<?xml version='1.0' encoding='UTF-8'?><gpx version="1.1" creator="JPX - https://github.com/jenetics/jpx" xmlns="http://www.topografix.com/GPX/1/1"><trk><trkseg><trkpt lat="44.6419002" lon="10.6177203"><ele>101.0</ele><time>2026-04-19T07:50:48.97Z</time></trkpt><trkpt lat="44.6419637" lon="10.617775"><ele>101.0</ele><time>2026-04-19T07:50:50.913Z</time></trkpt><trkpt lat="44.6420441" lon="10.617838"><ele>101.0</ele><time>2026-04-19T07:50:52.914Z</time></trkpt><trkpt lat="44.6421269" lon="10.6179459"><ele>101.0</ele><time>2026-04-19T07:50:54.911Z</time></trkpt><trkpt lat="44.6421889" lon="10.6180871"><ele>101.0</ele><time>2026-04-19T07:50:56.916Z</time></trkpt><trkpt lat="44.6422149" lon="10.618239"><ele>100.4</ele><time>2026-04-19T07:50:58.941Z</time></trkpt><trkpt lat="44.6422225" lon="10.6183983"><ele>99.8</ele><time>2026-04-19T07:51:00.913Z</time></trkpt><trkpt lat="44.6422888" lon="10.6185465"><ele>99.2</ele><time>2026-04-19T07:51:02.954Z</time></trkpt><trkpt lat="44.642348" lon="10.6186008"><ele>98.60000000000001</ele><time>2026-04-19T07:51:03.95Z</time></trkpt><trkpt lat="44.6424221" lon="10.6186467"><ele>98.0</ele><time>2026-04-19T07:51:04.955Z</time></trkpt><trkpt lat="44.642506" lon="10.6186969"><ele>98.0</ele><time>2026-04-19T07:51:05.928Z</time></trkpt><trkpt lat="44.6425954" lon="10.6187516"><ele>98.0</ele><time>2026-04-19T07:51:06.929Z</time></trkpt><trkpt lat="44.6426862" lon="10.6188075"><ele>98.0</ele><time>2026-04-19T07:51:07.918Z</time></trkpt><trkpt lat="44.6427732" lon="10.6188592"><ele>98.0</ele><time>2026-04-19T07:51:08.912Z</time></trkpt><trkpt lat="44.6428575" lon="10.6189128"><ele>98.0</ele><time>2026-04-19T07:51:09.961Z</time></trkpt><trkpt lat="44.6429397" lon="10.6189711"><ele>96.80000000000001</ele><time>2026-04-19T07:51:10.921Z</time></trkpt><trkpt lat="44.6430201" lon="10.6190271"><ele>95.6</ele><time>2026-04-19T07:51:11.925Z</time></trkpt><trkpt lat="44.6430996" lon="10.6190831"><ele>94.4</ele><time>2026-04-19T07:51:12.911Z</time></trkpt><trkpt lat="44.6431856" lon="10.6191439"><ele>93.19999999999999</ele><time>2026-04-19T07:51:13.981Z</time></trkpt><trkpt lat="44.6432738" lon="10.619206"><ele>92.0</ele><time>2026-04-19T07:51:14.932Z</time></trkpt><trkpt lat="44.6433676" lon="10.6192673"><ele>92.0</ele><time>2026-04-19T07:51:15.922Z</time></trkpt><trkpt lat="44.6434614" lon="10.6193208"><ele>92.0</ele><time>2026-04-19T07:51:16.912Z</time></trkpt><trkpt lat="44.6435508" lon="10.6193557"><ele>92.0</ele><time>2026-04-19T07:51:17.936Z</time></trkpt><trkpt lat="44.6436419" lon="10.6193463"><ele>92.0</ele><time>2026-04-19T07:51:18.952Z</time></trkpt><trkpt lat="44.6437263" lon="10.619291"><ele>92.0</ele><time>2026-04-19T07:51:19.944Z</time></trkpt><trkpt lat="44.6437931" lon="10.6192172"><ele>91.19999999999999</ele><time>2026-04-19T07:51:20.911Z</time></trkpt><trkpt lat="44.6438496" lon="10.6191365"><ele>90.4</ele><time>2026-04-19T07:51:22.085Z</time></trkpt><trkpt lat="44.6439482" lon="10.6189651"><ele>89.6</ele><time>2026-04-19T07:51:23.949Z</time></trkpt><trkpt lat="44.643998" lon="10.6188761"><ele>88.80000000000001</ele><time>2026-04-19T07:51:24.912Z</time></trkpt><trkpt lat="44.6440498" lon="10.6187855"><ele>88.0</ele><time>2026-04-19T07:51:25.912Z</time></trkpt><trkpt lat="44.6441036" lon="10.6186884"><ele>88.60000000000001</ele><time>2026-04-19T07:51:26.972Z</time></trkpt><trkpt lat="44.6441595" lon="10.6185863"><ele>89.2</ele><time>2026-04-19T07:51:27.926Z</time></trkpt><trkpt lat="44.6442209" lon="10.6184771"><ele>89.8</ele><time>2026-04-19T07:51:28.936Z</time></trkpt><trkpt lat="44.6442844" lon="10.618367"><ele>90.4</ele><time>2026-04-19T07:51:29.919Z</time></trkpt><trkpt lat="44.6443516" lon="10.6182544"><ele>91.0</ele><time>2026-04-19T07:51:30.948Z</time></trkpt><trkpt lat="44.6444198" lon="10.6181431"><ele>91.0</ele><time>2026-04-19T07:51:31.929Z</time></trkpt><trkpt lat="44.6444865" lon="10.6180333"><ele>91.0</ele><time>2026-04-19T07:51:32.912Z</time></trkpt><trkpt lat="44.6445531" lon="10.6179213"><ele>91.0</ele><time>2026-04-19T07:51:33.932Z</time></trkpt><trkpt lat="44.6446202" lon="10.617806"><ele>91.0</ele><time>2026-04-19T07:51:34.968Z</time></trkpt><trkpt lat="44.6446871" lon="10.6176925"><ele>91.0</ele><time>2026-04-19T07:51:35.912Z</time></trkpt><trkpt lat="44.6447565" lon="10.6175797"><ele>91.0</ele><time>2026-04-19T07:51:36.912Z</time></trkpt><trkpt lat="44.6448248" lon="10.6174696"><ele>91.0</ele><time>2026-04-19T07:51:37.911Z</time></trkpt><trkpt lat="44.6448919" lon="10.6173607"><ele>91.0</ele><time>2026-04-19T07:51:38.935Z</time></trkpt><trkpt lat="44.6449611" lon="10.6172563"><ele>91.0</ele><time>2026-04-19T07:51:39.917Z</time></trkpt><trkpt lat="44.6450317" lon="10.6171541"><ele>91.0</ele><time>2026-04-19T07:51:40.935Z</time></trkpt><trkpt lat="44.6451058" lon="10.6170576"><ele>91.19999999999999</ele><time>2026-04-19T07:51:42.013Z</time></trkpt><trkpt lat="44.6451805" lon="10.6169762"><ele>91.39999999999999</ele><time>2026-04-19T07:51:42.942Z</time></trkpt><trkpt lat="44.6452638" lon="10.6168992"><ele>91.6</ele><time>2026-04-19T07:51:43.912Z</time></trkpt><trkpt lat="44.6453526" lon="10.6168273"><ele>91.8</ele><time>2026-04-19T07:51:44.909Z</time></trkpt><trkpt lat="44.6454492" lon="10.6167466"><ele>92.0</ele><time>2026-04-19T07:51:45.909Z</time></trkpt><trkpt lat="44.64555" lon="10.6166564"><ele>92.5</ele><time>2026-04-19T07:51:46.957Z</time></trkpt><trkpt lat="44.6456474" lon="10.6165656"><ele>93.0</ele><time>2026-04-19T07:51:47.909Z</time></trkpt><trkpt lat="44.645742" lon="10.6164744"><ele>93.5</ele><time>2026-04-19T07:51:48.907Z</time></trkpt><trkpt lat="44.6458366" lon="10.6163888"><ele>94.0</ele><time>2026-04-19T07:51:49.912Z</time></trkpt><trkpt lat="44.6459317" lon="10.6163131"><ele>94.0</ele><time>2026-04-19T07:51:50.953Z</time></trkpt><trkpt lat="44.646027" lon="10.6162416"><ele>94.0</ele><time>2026-04-19T07:51:51.91Z</time></trkpt><trkpt lat="44.6461189" lon="10.6161672"><ele>94.0</ele><time>2026-04-19T07:51:52.941Z</time></trkpt><trkpt lat="44.6462104" lon="10.6160947"><ele>94.0</ele><time>2026-04-19T07:51:53.907Z</time></trkpt><trkpt lat="44.6463017" lon="10.6160153"><ele>94.0</ele><time>2026-04-19T07:51:54.933Z</time></trkpt><trkpt lat="44.6463826" lon="10.6159325"><ele>94.0</ele><time>2026-04-19T07:51:55.915Z</time></trkpt><trkpt lat="44.6464612" lon="10.6158478"><ele>94.0</ele><time>2026-04-19T07:51:56.956Z</time></trkpt><trkpt lat="44.6465385" lon="10.6157603"><ele>94.0</ele><time>2026-04-19T07:51:57.924Z</time></trkpt><trkpt lat="44.6466143" lon="10.6156568"><ele>94.0</ele><time>2026-04-19T07:51:58.962Z</time></trkpt><trkpt lat="44.6466877" lon="10.6155533"><ele>94.0</ele><time>2026-04-19T07:51:59.912Z</time></trkpt><trkpt lat="44.6467676" lon="10.6154395"><ele>94.0</ele><time>2026-04-19T07:52:00.911Z</time></trkpt><trkpt lat="44.6468484" lon="10.6153146"><ele>94.0</ele><time>2026-04-19T07:52:01.967Z</time></trkpt><trkpt lat="44.6469306" lon="10.6151881"><ele>94.0</ele><time>2026-04-19T07:52:02.913Z</time></trkpt><trkpt lat="44.6470176" lon="10.6150569"><ele>94.0</ele><time>2026-04-19T07:52:03.917Z</time></trkpt><trkpt lat="44.6471015" lon="10.6149232"><ele>94.0</ele><time>2026-04-19T07:52:04.913Z</time></trkpt><trkpt lat="44.6471802" lon="10.6147877"><ele>94.0</ele><time>2026-04-19T07:52:05.93Z</time></trkpt><trkpt lat="44.6472521" lon="10.6146541"><ele>94.0</ele><time>2026-04-19T07:52:06.927Z</time></trkpt><trkpt lat="44.6473188" lon="10.6145228"><ele>94.0</ele><time>2026-04-19T07:52:07.934Z</time></trkpt><trkpt lat="44.6473849" lon="10.6143874"><ele>94.25</ele><time>2026-04-19T07:52:08.915Z</time></trkpt><trkpt lat="44.6474503" lon="10.6142498"><ele>94.5</ele><time>2026-04-19T07:52:09.913Z</time></trkpt><trkpt lat="44.6475157" lon="10.6141085"><ele>94.75</ele><time>2026-04-19T07:52:10.963Z</time></trkpt><trkpt lat="44.6475783" lon="10.6139747"><ele>95.0</ele><time>2026-04-19T07:52:11.938Z</time></trkpt><trkpt lat="44.6476413" lon="10.6138446"><ele>95.0</ele><time>2026-04-19T07:52:12.913Z</time></trkpt><trkpt lat="44.6477099" lon="10.6137189"><ele>95.0</ele><time>2026-04-19T07:52:13.943Z</time></trkpt><trkpt lat="44.6477811" lon="10.6135987"><ele>95.0</ele><time>2026-04-19T07:52:14.912Z</time></trkpt><trkpt lat="44.6478448" lon="10.6134847"><ele>95.0</ele><time>2026-04-19T07:52:15.947Z</time></trkpt><trkpt lat="44.647911" lon="10.6133741"><ele>95.0</ele><time>2026-04-19T07:52:16.941Z</time></trkpt><trkpt lat="44.6479781" lon="10.6132619"><ele>96.33333333333334</ele><time>2026-04-19T07:52:17.924Z</time></trkpt><trkpt lat="44.6480427" lon="10.6131445"><ele>97.66666666666667</ele><time>2026-04-19T07:52:19.083Z</time></trkpt><trkpt lat="44.648182" lon="10.6128855"><ele>99.0</ele><time>2026-04-19T07:52:20.912Z</time></trkpt><trkpt lat="44.6482546" lon="10.6127413"><ele>99.25</ele><time>2026-04-19T07:52:21.955Z</time></trkpt><trkpt lat="44.6483216" lon="10.612599"><ele>99.5</ele><time>2026-04-19T07:52:22.92Z</time></trkpt><trkpt lat="44.6483926" lon="10.6124535"><ele>99.75</ele><time>2026-04-19T07:52:23.92Z</time></trkpt><trkpt lat="44.6484663" lon="10.6123071"><ele>100.0</ele><time>2026-04-19T07:52:24.9Z</time></trkpt><trkpt lat="44.648542" lon="10.6121596"><ele>99.0</ele><time>2026-04-19T07:52:25.913Z</time></trkpt><trkpt lat="44.648631" lon="10.6120125"><ele>98.0</ele><time>2026-04-19T07:52:26.929Z</time></trkpt><trkpt lat="44.6487364" lon="10.6118691"><ele>97.0</ele><time>2026-04-19T07:52:27.92Z</time></trkpt><trkpt lat="44.6488515" lon="10.61174"><ele>96.0</ele><time>2026-04-19T07:52:28.913Z</time></trkpt><trkpt lat="44.6489612" lon="10.6116112"><ele>96.0</ele><time>2026-04-19T07:52:29.915Z</time></trkpt><trkpt lat="44.6490654" lon="10.6114838"><ele>96.0</ele><time>2026-04-19T07:52:30.91Z</time></trkpt><trkpt lat="44.6491685" lon="10.6113614"><ele>96.0</ele><time>2026-04-19T07:52:31.91Z</time></trkpt><trkpt lat="44.6492682" lon="10.6112435"><ele>96.0</ele><time>2026-04-19T07:52:32.909Z</time></trkpt><trkpt lat="44.6493653" lon="10.6111295"><ele>96.25</ele><time>2026-04-19T07:52:33.909Z</time></trkpt><trkpt lat="44.6494676" lon="10.6110071"><ele>96.5</ele><time>2026-04-19T07:52:34.911Z</time></trkpt><trkpt lat="44.6495682" lon="10.6108864"><ele>96.75</ele><time>2026-04-19T07:52:35.915Z</time></trkpt><trkpt lat="44.6496595" lon="10.6107709"><ele>97.0</ele><time>2026-04-19T07:52:36.929Z</time></trkpt><trkpt lat="44.6497465" lon="10.6106612"><ele>97.0</ele><time>2026-04-19T07:52:37.913Z</time></trkpt><trkpt lat="44.6498353" lon="10.6105585"><ele>97.0</ele><time>2026-04-19T07:52:38.933Z</time></trkpt><trkpt lat="44.6499262" lon="10.6104558"><ele>97.0</ele><time>2026-04-19T07:52:39.936Z</time></trkpt><trkpt lat="44.6500159" lon="10.610353"><ele>97.0</ele><time>2026-04-19T07:52:40.912Z</time></trkpt><trkpt lat="44.6501037" lon="10.6102613"><ele>97.0</ele><time>2026-04-19T07:52:41.945Z</time></trkpt><trkpt lat="44.6501849" lon="10.6101671"><ele>97.0</ele><time>2026-04-19T07:52:42.91Z</time></trkpt><trkpt lat="44.6502618" lon="10.6100789"><ele>97.0</ele><time>2026-04-19T07:52:43.911Z</time></trkpt><trkpt lat="44.6503365" lon="10.6099926"><ele>97.0</ele><time>2026-04-19T07:52:44.911Z</time></trkpt><trkpt lat="44.6504104" lon="10.6099013"><ele>97.0</ele><time>2026-04-19T07:52:45.951Z</time></trkpt><trkpt lat="44.6504804" lon="10.6098086"><ele>97.00000000000001</ele><time>2026-04-19T07:52:46.942Z</time></trkpt><trkpt lat="44.6505486" lon="10.6097271"><ele>97.0</ele><time>2026-04-19T07:52:47.924Z</time></trkpt><trkpt lat="44.6506137" lon="10.6096557"><ele>97.0</ele><time>2026-04-19T07:52:48.911Z</time></trkpt><trkpt lat="44.6506724" lon="10.6095817"><ele>97.0</ele><time>2026-04-19T07:52:49.919Z</time></trkpt><trkpt lat="44.6507255" lon="10.6095102"><ele>97.00000000000001</ele><time>2026-04-19T07:52:50.912Z</time></trkpt><trkpt lat="44.6507725" lon="10.6094492"><ele>97.0</ele><time>2026-04-19T07:52:51.938Z</time></trkpt><trkpt lat="44.6508418" lon="10.6093618"><ele>97.00000000000001</ele><time>2026-04-19T07:52:53.911Z</time></trkpt><trkpt lat="44.6509294" lon="10.6093367"><ele>97.0</ele><time>2026-04-19T07:52:55.912Z</time></trkpt><trkpt lat="44.6510022" lon="10.6093651"><ele>97.0</ele><time>2026-04-19T07:52:56.938Z</time></trkpt><trkpt lat="44.6510886" lon="10.6094005"><ele>97.0</ele><time>2026-04-19T07:52:57.932Z</time></trkpt><trkpt lat="44.6511798" lon="10.6094334"><ele>97.00000000000001</ele><time>2026-04-19T07:52:58.911Z</time></trkpt><trkpt lat="44.6512739" lon="10.6094669"><ele>97.0</ele><time>2026-04-19T07:52:59.91Z</time></trkpt><trkpt lat="44.651366" lon="10.6094968"><ele>96.66666666666667</ele><time>2026-04-19T07:53:00.91Z</time></trkpt><trkpt lat="44.6514552" lon="10.609521"><ele>96.33333333333334</ele><time>2026-04-19T07:53:01.911Z</time></trkpt><trkpt lat="44.6515421" lon="10.6095429"><ele>96.0</ele><time>2026-04-19T07:53:02.913Z</time></trkpt><trkpt lat="44.651625" lon="10.6095633"><ele>95.66666666666667</ele><time>2026-04-19T07:53:03.911Z</time></trkpt><trkpt lat="44.6517033" lon="10.6095861"><ele>95.33333333333334</ele><time>2026-04-19T07:53:04.913Z</time></trkpt><trkpt lat="44.6517783" lon="10.6096115"><ele>95.0</ele><time>2026-04-19T07:53:05.911Z</time></trkpt><trkpt lat="44.6518441" lon="10.6096217"><ele>95.0</ele><time>2026-04-19T07:53:06.912Z</time></trkpt><trkpt lat="44.6519536" lon="10.6095895"><ele>95.0</ele><time>2026-04-19T07:53:08.913Z</time></trkpt><trkpt lat="44.651957" lon="10.6094768"><ele>95.0</ele><time>2026-04-19T07:53:10.912Z</time></trkpt><trkpt lat="44.6518976" lon="10.6094437"><ele>95.0</ele><time>2026-04-19T07:53:11.911Z</time></trkpt><trkpt lat="44.6518222" lon="10.6094347"><ele>95.0</ele><time>2026-04-19T07:53:12.911Z</time></trkpt><trkpt lat="44.6517367" lon="10.609457"><ele>95.0</ele><time>2026-04-19T07:53:13.912Z</time></trkpt><trkpt lat="44.6516378" lon="10.6094873"><ele>95.0</ele><time>2026-04-19T07:53:14.914Z</time></trkpt><trkpt lat="44.6515276" lon="10.6094936"><ele>95.0</ele><time>2026-04-19T07:53:15.912Z</time></trkpt><trkpt lat="44.6514106" lon="10.6094739"><ele>95.0</ele><time>2026-04-19T07:53:16.915Z</time></trkpt><trkpt lat="44.6512899" lon="10.6094414"><ele>95.0</ele><time>2026-04-19T07:53:17.912Z</time></trkpt><trkpt lat="44.65116" lon="10.6094013"><ele>96.0</ele><time>2026-04-19T07:53:18.909Z</time></trkpt><trkpt lat="44.6510217" lon="10.609352"><ele>97.0</ele><time>2026-04-19T07:53:19.912Z</time></trkpt><trkpt lat="44.6508808" lon="10.6092955"><ele>98.0</ele><time>2026-04-19T07:53:20.912Z</time></trkpt><trkpt lat="44.6507402" lon="10.6092362"><ele>99.0</ele><time>2026-04-19T07:53:21.917Z</time></trkpt><trkpt lat="44.6506019" lon="10.6091711"><ele>99.0</ele><time>2026-04-19T07:53:22.915Z</time></trkpt><trkpt lat="44.6504685" lon="10.609105"><ele>99.0</ele><time>2026-04-19T07:53:23.912Z</time></trkpt><trkpt lat="44.6503367" lon="10.6090407"><ele>99.0</ele><time>2026-04-19T07:53:24.911Z</time></trkpt><trkpt lat="44.6502108" lon="10.608972"><ele>99.0</ele><time>2026-04-19T07:53:25.934Z</time></trkpt><trkpt lat="44.6500824" lon="10.6089022"><ele>99.5</ele><time>2026-04-19T07:53:26.918Z</time></trkpt><trkpt lat="44.6499574" lon="10.6088389"><ele>100.0</ele><time>2026-04-19T07:53:27.942Z</time></trkpt><trkpt lat="44.649833" lon="10.6087771"><ele>100.5</ele><time>2026-04-19T07:53:28.911Z</time></trkpt><trkpt lat="44.6497087" lon="10.6087225"><ele>101.0</ele><time>2026-04-19T07:53:29.911Z</time></trkpt><trkpt lat="44.6495878" lon="10.6086798"><ele>101.25</ele><time>2026-04-19T07:53:30.92Z</time></trkpt><trkpt lat="44.6494707" lon="10.6086456"><ele>101.5</ele><time>2026-04-19T07:53:31.911Z</time></trkpt><trkpt lat="44.6493517" lon="10.6086058"><ele>101.75</ele><time>2026-04-19T07:53:32.911Z</time></trkpt><trkpt lat="44.6492304" lon="10.6085747"><ele>102.0</ele><time>2026-04-19T07:53:33.909Z</time></trkpt><trkpt lat="44.6491068" lon="10.6085402"><ele>102.0</ele><time>2026-04-19T07:53:34.918Z</time></trkpt><trkpt lat="44.6489807" lon="10.6085104"><ele>102.0</ele><time>2026-04-19T07:53:35.911Z</time></trkpt><trkpt lat="44.6488489" lon="10.6084761"><ele>102.0</ele><time>2026-04-19T07:53:36.912Z</time></trkpt><trkpt lat="44.6487182" lon="10.608442"><ele>102.0</ele><time>2026-04-19T07:53:37.913Z</time></trkpt><trkpt lat="44.6485869" lon="10.6084043"><ele>102.0</ele><time>2026-04-19T07:53:38.914Z</time></trkpt><trkpt lat="44.6484611" lon="10.6083751"><ele>102.0</ele><time>2026-04-19T07:53:39.91Z</time></trkpt><trkpt lat="44.6483442" lon="10.6083455"><ele>102.0</ele><time>2026-04-19T07:53:40.916Z</time></trkpt><trkpt lat="44.6482295" lon="10.6083171"><ele>102.0</ele><time>2026-04-19T07:53:41.912Z</time></trkpt><trkpt lat="44.6481133" lon="10.608287"><ele>102.0</ele><time>2026-04-19T07:53:42.911Z</time></trkpt><trkpt lat="44.6479997" lon="10.6082583"><ele>102.0</ele><time>2026-04-19T07:53:43.917Z</time></trkpt><trkpt lat="44.6478866" lon="10.6082315"><ele>102.0</ele><time>2026-04-19T07:53:44.912Z</time></trkpt><trkpt lat="44.6477718" lon="10.6082019"><ele>102.0</ele><time>2026-04-19T07:53:45.911Z</time></trkpt><trkpt lat="44.6476624" lon="10.6081752"><ele>101.83333333333333</ele><time>2026-04-19T07:53:46.92Z</time></trkpt><trkpt lat="44.6475655" lon="10.6081518"><ele>101.66666666666666</ele><time>2026-04-19T07:53:47.928Z</time></trkpt><trkpt lat="44.6474788" lon="10.6081312"><ele>101.5</ele><time>2026-04-19T07:53:48.913Z</time></trkpt><trkpt lat="44.6474107" lon="10.6081203"><ele>101.33333333333333</ele><time>2026-04-19T07:53:49.937Z</time></trkpt><trkpt lat="44.6473381" lon="10.6081046"><ele>101.16666666666666</ele><time>2026-04-19T07:53:51.912Z</time></trkpt><trkpt lat="44.6472571" lon="10.6081063"><ele>101.0</ele><time>2026-04-19T07:53:54.911Z</time></trkpt><trkpt lat="44.6472036" lon="10.6081697"><ele>100.99999999999999</ele><time>2026-04-19T07:53:56.912Z</time></trkpt><trkpt lat="44.6471369" lon="10.6081862"><ele>101.0</ele><time>2026-04-19T07:53:58.912Z</time></trkpt><trkpt lat="44.6470776" lon="10.6082198"><ele>101.0</ele><time>2026-04-19T07:54:00.908Z</time></trkpt><trkpt lat="44.6470929" lon="10.6081208"><ele>101.0</ele><time>2026-04-19T07:57:56.914Z</time></trkpt><trkpt lat="44.6472044" lon="10.608096"><ele>100.99999999999999</ele><time>2026-04-19T07:57:58.914Z</time></trkpt><trkpt lat="44.6472802" lon="10.6081075"><ele>101.0</ele><time>2026-04-19T07:57:59.908Z</time></trkpt><trkpt lat="44.6473565" lon="10.608129"><ele>100.99999999999999</ele><time>2026-04-19T07:58:00.913Z</time></trkpt><trkpt lat="44.6474292" lon="10.6081479"><ele>101.0</ele><time>2026-04-19T07:58:01.91Z</time></trkpt><trkpt lat="44.647503" lon="10.6081703"><ele>101.0</ele><time>2026-04-19T07:58:02.913Z</time></trkpt><trkpt lat="44.6475765" lon="10.6082029"><ele>101.0</ele><time>2026-04-19T07:58:03.913Z</time></trkpt><trkpt lat="44.6476561" lon="10.6082282"><ele>100.99999999999999</ele><time>2026-04-19T07:58:04.918Z</time></trkpt><trkpt lat="44.6477364" lon="10.6082445"><ele>101.0</ele><time>2026-04-19T07:58:05.911Z</time></trkpt><trkpt lat="44.6478165" lon="10.608266"><ele>101.19999999999999</ele><time>2026-04-19T07:58:06.912Z</time></trkpt><trkpt lat="44.6479012" lon="10.6082886"><ele>101.39999999999999</ele><time>2026-04-19T07:58:07.916Z</time></trkpt><trkpt lat="44.6479937" lon="10.6083115"><ele>101.6</ele><time>2026-04-19T07:58:08.911Z</time></trkpt><trkpt lat="44.6480926" lon="10.6083346"><ele>101.8</ele><time>2026-04-19T07:58:09.912Z</time></trkpt><trkpt lat="44.6481922" lon="10.6083582"><ele>102.0</ele><time>2026-04-19T07:58:10.911Z</time></trkpt><trkpt lat="44.6482995" lon="10.6083852"><ele>102.0</ele><time>2026-04-19T07:58:11.912Z</time></trkpt><trkpt lat="44.6484143" lon="10.608409"><ele>102.0</ele><time>2026-04-19T07:58:12.915Z</time></trkpt><trkpt lat="44.6485282" lon="10.6084339"><ele>102.0</ele><time>2026-04-19T07:58:13.917Z</time></trkpt><trkpt lat="44.6486431" lon="10.6084631"><ele>102.0</ele><time>2026-04-19T07:58:14.912Z</time></trkpt><trkpt lat="44.6487629" lon="10.608496"><ele>101.5</ele><time>2026-04-19T07:58:15.913Z</time></trkpt><trkpt lat="44.64888" lon="10.6085255"><ele>101.0</ele><time>2026-04-19T07:58:16.913Z</time></trkpt><trkpt lat="44.648998" lon="10.6085563"><ele>100.5</ele><time>2026-04-19T07:58:17.908Z</time></trkpt><trkpt lat="44.6491194" lon="10.6085879"><ele>100.0</ele><time>2026-04-19T07:58:18.917Z</time></trkpt><trkpt lat="44.6492511" lon="10.6086242"><ele>100.0</ele><time>2026-04-19T07:58:19.91Z</time></trkpt><trkpt lat="44.6493866" lon="10.6086639"><ele>100.0</ele><time>2026-04-19T07:58:20.912Z</time></trkpt><trkpt lat="44.6495176" lon="10.6087072"><ele>100.0</ele><time>2026-04-19T07:58:21.913Z</time></trkpt><trkpt lat="44.6496476" lon="10.6087586"><ele>100.0</ele><time>2026-04-19T07:58:22.932Z</time></trkpt><trkpt lat="44.6497779" lon="10.6088133"><ele>100.25</ele><time>2026-04-19T07:58:23.908Z</time></trkpt><trkpt lat="44.6499085" lon="10.6088817"><ele>100.5</ele><time>2026-04-19T07:58:24.908Z</time></trkpt><trkpt lat="44.6500371" lon="10.608945"><ele>100.75</ele><time>2026-04-19T07:58:25.909Z</time></trkpt><trkpt lat="44.6501607" lon="10.609003"><ele>101.0</ele><time>2026-04-19T07:58:26.913Z</time></trkpt><trkpt lat="44.6502801" lon="10.6090569"><ele>100.5</ele><time>2026-04-19T07:58:27.911Z</time></trkpt><trkpt lat="44.6503926" lon="10.6091143"><ele>100.0</ele><time>2026-04-19T07:58:28.911Z</time></trkpt><trkpt lat="44.6505069" lon="10.6091723"><ele>99.5</ele><time>2026-04-19T07:58:29.907Z</time></trkpt><trkpt lat="44.6506284" lon="10.6092269"><ele>99.0</ele><time>2026-04-19T07:58:30.917Z</time></trkpt><trkpt lat="44.6507514" lon="10.6092826"><ele>99.0</ele><time>2026-04-19T07:58:31.914Z</time></trkpt><trkpt lat="44.6508733" lon="10.6093317"><ele>99.0</ele><time>2026-04-19T07:58:32.912Z</time></trkpt><trkpt lat="44.6509952" lon="10.6093774"><ele>99.0</ele><time>2026-04-19T07:58:33.911Z</time></trkpt><trkpt lat="44.6511135" lon="10.6094213"><ele>99.0</ele><time>2026-04-19T07:58:34.917Z</time></trkpt><trkpt lat="44.6512314" lon="10.6094626"><ele>98.0</ele><time>2026-04-19T07:58:35.911Z</time></trkpt><trkpt lat="44.651347" lon="10.6095024"><ele>97.0</ele><time>2026-04-19T07:58:36.91Z</time></trkpt><trkpt lat="44.6514591" lon="10.6095368"><ele>96.0</ele><time>2026-04-19T07:58:37.907Z</time></trkpt><trkpt lat="44.6515692" lon="10.609565"><ele>95.0</ele><time>2026-04-19T07:58:38.916Z</time></trkpt><trkpt lat="44.6516879" lon="10.609599"><ele>95.0</ele><time>2026-04-19T07:58:39.91Z</time></trkpt><trkpt lat="44.6518083" lon="10.6096454"><ele>95.0</ele><time>2026-04-19T07:58:40.912Z</time></trkpt><trkpt lat="44.6519279" lon="10.6097035"><ele>95.0</ele><time>2026-04-19T07:58:41.91Z</time></trkpt><trkpt lat="44.6520456" lon="10.6097703"><ele>95.0</ele><time>2026-04-19T07:58:42.917Z</time></trkpt><trkpt lat="44.6521648" lon="10.609847"><ele>94.75</ele><time>2026-04-19T07:58:43.912Z</time></trkpt><trkpt lat="44.652288" lon="10.6099261"><ele>94.5</ele><time>2026-04-19T07:58:44.909Z</time></trkpt><trkpt lat="44.6524114" lon="10.6100093"><ele>94.25</ele><time>2026-04-19T07:58:45.91Z</time></trkpt><trkpt lat="44.652541" lon="10.6100902"><ele>94.0</ele><time>2026-04-19T07:58:46.912Z</time></trkpt><trkpt lat="44.6526731" lon="10.6101703"><ele>94.0</ele><time>2026-04-19T07:58:47.906Z</time></trkpt><trkpt lat="44.6528007" lon="10.6102546"><ele>94.0</ele><time>2026-04-19T07:58:48.906Z</time></trkpt><trkpt lat="44.6529277" lon="10.6103417"><ele>94.0</ele><time>2026-04-19T07:58:49.908Z</time></trkpt><trkpt lat="44.6530554" lon="10.6104286"><ele>94.0</ele><time>2026-04-19T07:58:50.916Z</time></trkpt><trkpt lat="44.653184" lon="10.6105117"><ele>94.0</ele><time>2026-04-19T07:58:51.919Z</time></trkpt><trkpt lat="44.6533151" lon="10.6105915"><ele>94.0</ele><time>2026-04-19T07:58:52.911Z</time></trkpt><trkpt lat="44.6534472" lon="10.6106718"><ele>94.0</ele><time>2026-04-19T07:58:53.927Z</time></trkpt><trkpt lat="44.6535782" lon="10.6107499"><ele>94.0</ele><time>2026-04-19T07:58:54.909Z</time></trkpt><trkpt lat="44.6537117" lon="10.6108251"><ele>94.0</ele><time>2026-04-19T07:58:55.91Z</time></trkpt><trkpt lat="44.6538438" lon="10.6108982"><ele>94.0</ele><time>2026-04-19T07:58:56.918Z</time></trkpt><trkpt lat="44.6539765" lon="10.6109727"><ele>94.0</ele><time>2026-04-19T07:58:57.911Z</time></trkpt><trkpt lat="44.65411" lon="10.6110554"><ele>94.0</ele><time>2026-04-19T07:58:58.91Z</time></trkpt><trkpt lat="44.6542451" lon="10.6111479"><ele>92.66666666666666</ele><time>2026-04-19T07:58:59.91Z</time></trkpt><trkpt lat="44.6543759" lon="10.6112563"><ele>91.33333333333333</ele><time>2026-04-19T07:59:00.91Z</time></trkpt><trkpt lat="44.6545007" lon="10.6113811"><ele>90.0</ele><time>2026-04-19T07:59:01.91Z</time></trkpt><trkpt lat="44.6546239" lon="10.6115107"><ele>90.0</ele><time>2026-04-19T07:59:02.907Z</time></trkpt><trkpt lat="44.65475" lon="10.6116456"><ele>90.0</ele><time>2026-04-19T07:59:03.911Z</time></trkpt><trkpt lat="44.6548709" lon="10.6117783"><ele>90.0</ele><time>2026-04-19T07:59:04.91Z</time></trkpt><trkpt lat="44.6549922" lon="10.6118993"><ele>89.75</ele><time>2026-04-19T07:59:05.917Z</time></trkpt><trkpt lat="44.655116" lon="10.6120097"><ele>89.5</ele><time>2026-04-19T07:59:06.912Z</time></trkpt><trkpt lat="44.6552456" lon="10.612114"><ele>89.25</ele><time>2026-04-19T07:59:07.909Z</time></trkpt><trkpt lat="44.6553745" lon="10.6122094"><ele>89.0</ele><time>2026-04-19T07:59:08.913Z</time></trkpt><trkpt lat="44.655496" lon="10.6122953"><ele>89.5</ele><time>2026-04-19T07:59:09.912Z</time></trkpt><trkpt lat="44.6556127" lon="10.6123722"><ele>90.0</ele><time>2026-04-19T07:59:10.912Z</time></trkpt><trkpt lat="44.6557225" lon="10.6124391"><ele>90.5</ele><time>2026-04-19T07:59:11.906Z</time></trkpt><trkpt lat="44.655826" lon="10.612503"><ele>91.0</ele><time>2026-04-19T07:59:12.906Z</time></trkpt><trkpt lat="44.6559224" lon="10.6125572"><ele>91.0</ele><time>2026-04-19T07:59:13.907Z</time></trkpt><trkpt lat="44.6560122" lon="10.6126025"><ele>91.0</ele><time>2026-04-19T07:59:14.911Z</time></trkpt><trkpt lat="44.6560957" lon="10.6126432"><ele>91.0</ele><time>2026-04-19T07:59:15.91Z</time></trkpt><trkpt lat="44.6561723" lon="10.6126788"><ele>91.0</ele><time>2026-04-19T07:59:16.911Z</time></trkpt><trkpt lat="44.6562441" lon="10.6127088"><ele>91.0</ele><time>2026-04-19T07:59:17.909Z</time></trkpt><trkpt lat="44.6563074" lon="10.6127371"><ele>91.0</ele><time>2026-04-19T07:59:18.909Z</time></trkpt><trkpt lat="44.6564147" lon="10.6127802"><ele>90.6</ele><time>2026-04-19T07:59:20.911Z</time></trkpt><trkpt lat="44.6565208" lon="10.6128247"><ele>90.19999999999999</ele><time>2026-04-19T07:59:22.912Z</time></trkpt><trkpt lat="44.6566278" lon="10.6128568"><ele>89.80000000000001</ele><time>2026-04-19T07:59:24.912Z</time></trkpt><trkpt lat="44.65671" lon="10.6128854"><ele>89.4</ele><time>2026-04-19T07:59:26.912Z</time></trkpt><trkpt lat="44.6567736" lon="10.6129265"><ele>89.0</ele><time>2026-04-19T07:59:28.911Z</time></trkpt><trkpt lat="44.6568507" lon="10.6129914"><ele>89.0</ele><time>2026-04-19T07:59:30.907Z</time></trkpt><trkpt lat="44.6569001" lon="10.6130506"><ele>89.0</ele><time>2026-04-19T07:59:31.908Z</time></trkpt><trkpt lat="44.6569477" lon="10.6131402"><ele>89.0</ele><time>2026-04-19T07:59:32.906Z</time></trkpt><trkpt lat="44.656993" lon="10.6132527"><ele>89.0</ele><time>2026-04-19T07:59:33.905Z</time></trkpt><trkpt lat="44.6570194" lon="10.613381"><ele>89.0</ele><time>2026-04-19T07:59:34.908Z</time></trkpt><trkpt lat="44.6570142" lon="10.6135271"><ele>89.0</ele><time>2026-04-19T07:59:35.907Z</time></trkpt><trkpt lat="44.6569834" lon="10.6136671"><ele>89.0</ele><time>2026-04-19T07:59:36.906Z</time></trkpt><trkpt lat="44.6569475" lon="10.6138106"><ele>89.0</ele><time>2026-04-19T07:59:37.907Z</time></trkpt><trkpt lat="44.6569095" lon="10.6139566"><ele>89.0</ele><time>2026-04-19T07:59:38.909Z</time></trkpt><trkpt lat="44.6568688" lon="10.6141049"><ele>89.0</ele><time>2026-04-19T07:59:39.908Z</time></trkpt><trkpt lat="44.6568351" lon="10.6142554"><ele>89.0</ele><time>2026-04-19T07:59:40.926Z</time></trkpt><trkpt lat="44.656802" lon="10.6143974"><ele>89.2</ele><time>2026-04-19T07:59:41.918Z</time></trkpt><trkpt lat="44.6567644" lon="10.6145305"><ele>89.4</ele><time>2026-04-19T07:59:42.918Z</time></trkpt><trkpt lat="44.6567311" lon="10.6146553"><ele>89.6</ele><time>2026-04-19T07:59:43.923Z</time></trkpt><trkpt lat="44.6566992" lon="10.6147731"><ele>89.8</ele><time>2026-04-19T07:59:44.904Z</time></trkpt><trkpt lat="44.6566686" lon="10.6148875"><ele>90.0</ele><time>2026-04-19T07:59:45.914Z</time></trkpt><trkpt lat="44.6566389" lon="10.6149965"><ele>90.0</ele><time>2026-04-19T07:59:46.911Z</time></trkpt><trkpt lat="44.6566056" lon="10.615115"><ele>90.0</ele><time>2026-04-19T07:59:47.91Z</time></trkpt><trkpt lat="44.6565747" lon="10.6152449"><ele>90.0</ele><time>2026-04-19T07:59:48.909Z</time></trkpt><trkpt lat="44.6565468" lon="10.6153852"><ele>90.0</ele><time>2026-04-19T07:59:49.914Z</time></trkpt><trkpt lat="44.6565108" lon="10.615529"><ele>90.0</ele><time>2026-04-19T07:59:50.911Z</time></trkpt><trkpt lat="44.6564755" lon="10.615673"><ele>89.8</ele><time>2026-04-19T07:59:51.91Z</time></trkpt><trkpt lat="44.6564438" lon="10.6158091"><ele>89.6</ele><time>2026-04-19T07:59:52.911Z</time></trkpt><trkpt lat="44.6564154" lon="10.6159383"><ele>89.4</ele><time>2026-04-19T07:59:53.911Z</time></trkpt><trkpt lat="44.6563897" lon="10.6160649"><ele>89.2</ele><time>2026-04-19T07:59:54.91Z</time></trkpt><trkpt lat="44.656362" lon="10.6161933"><ele>89.0</ele><time>2026-04-19T07:59:55.913Z</time></trkpt><trkpt lat="44.6563324" lon="10.616317"><ele>88.80000000000001</ele><time>2026-04-19T07:59:56.912Z</time></trkpt><trkpt lat="44.6563009" lon="10.6164483"><ele>88.60000000000001</ele><time>2026-04-19T07:59:57.91Z</time></trkpt><trkpt lat="44.6562671" lon="10.6165895"><ele>88.4</ele><time>2026-04-19T07:59:58.923Z</time></trkpt><trkpt lat="44.6562321" lon="10.6167403"><ele>88.2</ele><time>2026-04-19T07:59:59.911Z</time></trkpt><trkpt lat="44.6561967" lon="10.616906"><ele>88.0</ele><time>2026-04-19T08:00:00.921Z</time></trkpt><trkpt lat="44.6561569" lon="10.6170764"><ele>87.5</ele><time>2026-04-19T08:00:01.925Z</time></trkpt><trkpt lat="44.6561184" lon="10.6172529"><ele>87.0</ele><time>2026-04-19T08:00:02.933Z</time></trkpt><trkpt lat="44.6560774" lon="10.6174307"><ele>86.5</ele><time>2026-04-19T08:00:03.907Z</time></trkpt><trkpt lat="44.6560368" lon="10.6176108"><ele>86.0</ele><time>2026-04-19T08:00:04.936Z</time></trkpt><trkpt lat="44.6559966" lon="10.6177922"><ele>86.25</ele><time>2026-04-19T08:00:05.91Z</time></trkpt><trkpt lat="44.6559538" lon="10.6179793"><ele>86.5</ele><time>2026-04-19T08:00:06.915Z</time></trkpt><trkpt lat="44.6559086" lon="10.6181695"><ele>86.75</ele><time>2026-04-19T08:00:07.91Z</time></trkpt><trkpt lat="44.6558624" lon="10.6183649"><ele>87.0</ele><time>2026-04-19T08:00:08.915Z</time></trkpt><trkpt lat="44.6558142" lon="10.6185634"><ele>87.0</ele><time>2026-04-19T08:00:09.91Z</time></trkpt><trkpt lat="44.6557639" lon="10.6187697"><ele>87.0</ele><time>2026-04-19T08:00:10.912Z</time></trkpt><trkpt lat="44.6557184" lon="10.6189752"><ele>87.0</ele><time>2026-04-19T08:00:11.907Z</time></trkpt><trkpt lat="44.6556721" lon="10.6191727"><ele>87.0</ele><time>2026-04-19T08:00:12.909Z</time></trkpt><trkpt lat="44.6556301" lon="10.6193649"><ele>87.0</ele><time>2026-04-19T08:00:13.91Z</time></trkpt><trkpt lat="44.6555855" lon="10.6195524"><ele>87.0</ele><time>2026-04-19T08:00:14.91Z</time></trkpt><trkpt lat="44.6555421" lon="10.6197403"><ele>87.0</ele><time>2026-04-19T08:00:15.905Z</time></trkpt><trkpt lat="44.6554998" lon="10.6199268"><ele>86.75</ele><time>2026-04-19T08:00:16.91Z</time></trkpt><trkpt lat="44.655458" lon="10.6201108"><ele>86.5</ele><time>2026-04-19T08:00:17.931Z</time></trkpt><trkpt lat="44.6554188" lon="10.6202914"><ele>86.25</ele><time>2026-04-19T08:00:18.906Z</time></trkpt><trkpt lat="44.6553817" lon="10.6204749"><ele>86.0</ele><time>2026-04-19T08:00:19.906Z</time></trkpt><trkpt lat="44.6553438" lon="10.6206542"><ele>86.5</ele><time>2026-04-19T08:00:20.909Z</time></trkpt><trkpt lat="44.6553049" lon="10.6208194"><ele>87.0</ele><time>2026-04-19T08:00:21.902Z</time></trkpt><trkpt lat="44.6552593" lon="10.6209733"><ele>87.5</ele><time>2026-04-19T08:00:22.91Z</time></trkpt><trkpt lat="44.6552103" lon="10.6211084"><ele>88.0</ele><time>2026-04-19T08:00:23.908Z</time></trkpt><trkpt lat="44.6551558" lon="10.6212258"><ele>88.0</ele><time>2026-04-19T08:00:24.906Z</time></trkpt><trkpt lat="44.6551047" lon="10.621324"><ele>88.0</ele><time>2026-04-19T08:00:25.907Z</time></trkpt><trkpt lat="44.6550562" lon="10.6213941"><ele>88.0</ele><time>2026-04-19T08:00:26.92Z</time></trkpt><trkpt lat="44.65497" lon="10.6214715"><ele>88.0</ele><time>2026-04-19T08:00:28.91Z</time></trkpt><trkpt lat="44.6548613" lon="10.6214865"><ele>88.0</ele><time>2026-04-19T08:00:30.909Z</time></trkpt><trkpt lat="44.654798" lon="10.6214607"><ele>88.0</ele><time>2026-04-19T08:00:31.909Z</time></trkpt><trkpt lat="44.6547221" lon="10.6214337"><ele>88.0</ele><time>2026-04-19T08:00:32.913Z</time></trkpt><trkpt lat="44.6546376" lon="10.6214276"><ele>88.0</ele><time>2026-04-19T08:00:33.909Z</time></trkpt><trkpt lat="44.6545492" lon="10.621449"><ele>88.0</ele><time>2026-04-19T08:00:34.912Z</time></trkpt><trkpt lat="44.6544539" lon="10.621498"><ele>88.0</ele><time>2026-04-19T08:00:35.913Z</time></trkpt><trkpt lat="44.6543543" lon="10.6215433"><ele>88.0</ele><time>2026-04-19T08:00:36.909Z</time></trkpt><trkpt lat="44.6542491" lon="10.6215619"><ele>87.5</ele><time>2026-04-19T08:00:37.908Z</time></trkpt><trkpt lat="44.654142" lon="10.6215474"><ele>87.0</ele><time>2026-04-19T08:00:38.905Z</time></trkpt><trkpt lat="44.6540376" lon="10.6214966"><ele>86.5</ele><time>2026-04-19T08:00:39.906Z</time></trkpt><trkpt lat="44.6539408" lon="10.621407"><ele>86.0</ele><time>2026-04-19T08:00:40.911Z</time></trkpt><trkpt lat="44.6538492" lon="10.6212969"><ele>86.0</ele><time>2026-04-19T08:00:41.91Z</time></trkpt><trkpt lat="44.6537625" lon="10.6211795"><ele>86.0</ele><time>2026-04-19T08:00:42.924Z</time></trkpt><trkpt lat="44.6536763" lon="10.6210702"><ele>86.0</ele><time>2026-04-19T08:00:43.911Z</time></trkpt><trkpt lat="44.6535931" lon="10.620964"><ele>86.0</ele><time>2026-04-19T08:00:44.908Z</time></trkpt><trkpt lat="44.6535119" lon="10.6208652"><ele>86.0</ele><time>2026-04-19T08:00:45.907Z</time></trkpt><trkpt lat="44.6534282" lon="10.6207709"><ele>86.0</ele><time>2026-04-19T08:00:46.912Z</time></trkpt><trkpt lat="44.6533424" lon="10.6206787"><ele>86.0</ele><time>2026-04-19T08:00:47.919Z</time></trkpt><trkpt lat="44.6532511" lon="10.6205992"><ele>86.0</ele><time>2026-04-19T08:00:48.905Z</time></trkpt><trkpt lat="44.6531494" lon="10.6205343"><ele>86.0</ele><time>2026-04-19T08:00:49.917Z</time></trkpt><trkpt lat="44.6530424" lon="10.6204905"><ele>86.0</ele><time>2026-04-19T08:00:50.909Z</time></trkpt><trkpt lat="44.6529243" lon="10.6204637"><ele>86.0</ele><time>2026-04-19T08:00:51.92Z</time></trkpt><trkpt lat="44.6527994" lon="10.6204479"><ele>86.0</ele><time>2026-04-19T08:00:52.908Z</time></trkpt><trkpt lat="44.6526737" lon="10.620437"><ele>86.0</ele><time>2026-04-19T08:00:53.911Z</time></trkpt><trkpt lat="44.6525453" lon="10.62044"><ele>85.75</ele><time>2026-04-19T08:00:54.915Z</time></trkpt><trkpt lat="44.6524203" lon="10.6204569"><ele>85.5</ele><time>2026-04-19T08:00:55.909Z</time></trkpt><trkpt lat="44.6523013" lon="10.6204843"><ele>85.25</ele><time>2026-04-19T08:00:56.907Z</time></trkpt><trkpt lat="44.6521849" lon="10.6205218"><ele>85.0</ele><time>2026-04-19T08:00:57.909Z</time></trkpt><trkpt lat="44.6520713" lon="10.6205763"><ele>85.0</ele><time>2026-04-19T08:00:58.926Z</time></trkpt><trkpt lat="44.65196" lon="10.6206375"><ele>85.0</ele><time>2026-04-19T08:00:59.914Z</time></trkpt><trkpt lat="44.651853" lon="10.6207008"><ele>85.0</ele><time>2026-04-19T08:01:00.908Z</time></trkpt><trkpt lat="44.651748" lon="10.6207621"><ele>85.0</ele><time>2026-04-19T08:01:01.908Z</time></trkpt><trkpt lat="44.6516428" lon="10.6208191"><ele>85.33333333333333</ele><time>2026-04-19T08:01:02.907Z</time></trkpt><trkpt lat="44.6515459" lon="10.6208645"><ele>85.66666666666666</ele><time>2026-04-19T08:01:03.9Z</time></trkpt><trkpt lat="44.6514617" lon="10.6209022"><ele>86.0</ele><time>2026-04-19T08:01:04.912Z</time></trkpt><trkpt lat="44.6513885" lon="10.6209441"><ele>86.33333333333333</ele><time>2026-04-19T08:01:05.908Z</time></trkpt><trkpt lat="44.6513282" lon="10.6210012"><ele>86.66666666666667</ele><time>2026-04-19T08:01:06.91Z</time></trkpt><trkpt lat="44.6512822" lon="10.6210906"><ele>87.0</ele><time>2026-04-19T08:01:07.913Z</time></trkpt><trkpt lat="44.6512592" lon="10.6212153"><ele>87.0</ele><time>2026-04-19T08:01:08.913Z</time></trkpt><trkpt lat="44.6512566" lon="10.6213753"><ele>87.0</ele><time>2026-04-19T08:01:09.907Z</time></trkpt><trkpt lat="44.6512585" lon="10.6215434"><ele>87.0</ele><time>2026-04-19T08:01:10.916Z</time></trkpt><trkpt lat="44.651269" lon="10.6217205"><ele>87.0</ele><time>2026-04-19T08:01:11.906Z</time></trkpt><trkpt lat="44.6512738" lon="10.6218903"><ele>86.5</ele><time>2026-04-19T08:01:12.909Z</time></trkpt><trkpt lat="44.6512768" lon="10.6220559"><ele>86.0</ele><time>2026-04-19T08:01:13.91Z</time></trkpt><trkpt lat="44.6512739" lon="10.6222232"><ele>85.5</ele><time>2026-04-19T08:01:14.911Z</time></trkpt><trkpt lat="44.6512678" lon="10.6223868"><ele>85.0</ele><time>2026-04-19T08:01:15.916Z</time></trkpt><trkpt lat="44.6512603" lon="10.6225526"><ele>85.0</ele><time>2026-04-19T08:01:16.911Z</time></trkpt><trkpt lat="44.6512495" lon="10.6227251"><ele>85.0</ele><time>2026-04-19T08:01:17.93Z</time></trkpt><trkpt lat="44.651231" lon="10.6229012"><ele>85.0</ele><time>2026-04-19T08:01:18.907Z</time></trkpt><trkpt lat="44.6512073" lon="10.6230765"><ele>85.0</ele><time>2026-04-19T08:01:19.924Z</time></trkpt><trkpt lat="44.6511836" lon="10.6232531"><ele>84.75</ele><time>2026-04-19T08:01:20.911Z</time></trkpt><trkpt lat="44.651159" lon="10.6234338"><ele>84.5</ele><time>2026-04-19T08:01:21.921Z</time></trkpt><trkpt lat="44.651135" lon="10.6236163"><ele>84.25</ele><time>2026-04-19T08:01:22.95Z</time></trkpt><trkpt lat="44.6511123" lon="10.6237919"><ele>84.0</ele><time>2026-04-19T08:01:23.921Z</time></trkpt><trkpt lat="44.6510873" lon="10.6239637"><ele>84.0</ele><time>2026-04-19T08:01:24.913Z</time></trkpt><trkpt lat="44.6510617" lon="10.6241274"><ele>84.0</ele><time>2026-04-19T08:01:25.912Z</time></trkpt><trkpt lat="44.6510385" lon="10.6242814"><ele>84.0</ele><time>2026-04-19T08:01:26.911Z</time></trkpt><trkpt lat="44.6510197" lon="10.6244211"><ele>84.0</ele><time>2026-04-19T08:01:27.9Z</time></trkpt><trkpt lat="44.6510048" lon="10.6245474"><ele>84.0</ele><time>2026-04-19T08:01:28.912Z</time></trkpt><trkpt lat="44.6509941" lon="10.6246518"><ele>84.0</ele><time>2026-04-19T08:01:29.912Z</time></trkpt><trkpt lat="44.6509634" lon="10.6247834"><ele>84.0</ele><time>2026-04-19T08:01:31.918Z</time></trkpt><trkpt lat="44.6508854" lon="10.6248285"><ele>84.0</ele><time>2026-04-19T08:01:34.912Z</time></trkpt><trkpt lat="44.650787" lon="10.6247844"><ele>84.0</ele><time>2026-04-19T08:01:36.919Z</time></trkpt><trkpt lat="44.6507126" lon="10.624752"><ele>84.0</ele><time>2026-04-19T08:01:37.928Z</time></trkpt><trkpt lat="44.6506335" lon="10.6247147"><ele>84.0</ele><time>2026-04-19T08:01:38.907Z</time></trkpt><trkpt lat="44.6505468" lon="10.6246817"><ele>84.0</ele><time>2026-04-19T08:01:39.938Z</time></trkpt><trkpt lat="44.6504585" lon="10.6246472"><ele>84.0</ele><time>2026-04-19T08:01:40.912Z</time></trkpt><trkpt lat="44.6503646" lon="10.6246072"><ele>84.0</ele><time>2026-04-19T08:01:41.92Z</time></trkpt><trkpt lat="44.6502629" lon="10.6245656"><ele>84.0</ele><time>2026-04-19T08:01:42.909Z</time></trkpt><trkpt lat="44.65015" lon="10.6245244"><ele>84.0</ele><time>2026-04-19T08:01:43.907Z</time></trkpt><trkpt lat="44.6500248" lon="10.6244819"><ele>83.5</ele><time>2026-04-19T08:01:44.909Z</time></trkpt><trkpt lat="44.6499031" lon="10.6244351"><ele>83.0</ele><time>2026-04-19T08:01:45.907Z</time></trkpt><trkpt lat="44.649783" lon="10.6243804"><ele>82.5</ele><time>2026-04-19T08:01:46.911Z</time></trkpt><trkpt lat="44.6496659" lon="10.6243194"><ele>82.0</ele><time>2026-04-19T08:01:47.915Z</time></trkpt><trkpt lat="44.6495546" lon="10.6242569"><ele>82.0</ele><time>2026-04-19T08:01:48.908Z</time></trkpt><trkpt lat="44.649442" lon="10.6241986"><ele>82.0</ele><time>2026-04-19T08:01:49.908Z</time></trkpt><trkpt lat="44.6493257" lon="10.6241416"><ele>82.0</ele><time>2026-04-19T08:01:50.912Z</time></trkpt><trkpt lat="44.6492116" lon="10.6240824"><ele>82.0</ele><time>2026-04-19T08:01:51.909Z</time></trkpt><trkpt lat="44.6490964" lon="10.624019"><ele>82.0</ele><time>2026-04-19T08:01:52.924Z</time></trkpt><trkpt lat="44.6489789" lon="10.6239512"><ele>82.0</ele><time>2026-04-19T08:01:53.906Z</time></trkpt><trkpt lat="44.6488613" lon="10.6238867"><ele>82.0</ele><time>2026-04-19T08:01:54.912Z</time></trkpt><trkpt lat="44.6487418" lon="10.6238232"><ele>82.0</ele><time>2026-04-19T08:01:55.91Z</time></trkpt><trkpt lat="44.6486185" lon="10.6237568"><ele>82.25</ele><time>2026-04-19T08:01:56.911Z</time></trkpt><trkpt lat="44.6484982" lon="10.6236835"><ele>82.5</ele><time>2026-04-19T08:01:57.922Z</time></trkpt><trkpt lat="44.6483787" lon="10.6236058"><ele>82.75</ele><time>2026-04-19T08:01:58.912Z</time></trkpt><trkpt lat="44.6482628" lon="10.6235283"><ele>83.0</ele><time>2026-04-19T08:01:59.928Z</time></trkpt><trkpt lat="44.6481503" lon="10.6234551"><ele>83.0</ele><time>2026-04-19T08:02:00.91Z</time></trkpt><trkpt lat="44.6480375" lon="10.623383"><ele>83.0</ele><time>2026-04-19T08:02:01.963Z</time></trkpt><trkpt lat="44.6479271" lon="10.6233103"><ele>83.0</ele><time>2026-04-19T08:02:02.943Z</time></trkpt><trkpt lat="44.6478155" lon="10.6232356"><ele>83.0</ele><time>2026-04-19T08:02:03.92Z</time></trkpt><trkpt lat="44.6477023" lon="10.6231633"><ele>83.25</ele><time>2026-04-19T08:02:04.914Z</time></trkpt><trkpt lat="44.6475916" lon="10.6230915"><ele>83.5</ele><time>2026-04-19T08:02:05.917Z</time></trkpt><trkpt lat="44.6474833" lon="10.6230228"><ele>83.75</ele><time>2026-04-19T08:02:06.911Z</time></trkpt><trkpt lat="44.6473792" lon="10.6229573"><ele>84.0</ele><time>2026-04-19T08:02:07.925Z</time></trkpt><trkpt lat="44.6472797" lon="10.6228967"><ele>84.0</ele><time>2026-04-19T08:02:08.917Z</time></trkpt><trkpt lat="44.6471845" lon="10.6228323"><ele>84.0</ele><time>2026-04-19T08:02:09.912Z</time></trkpt><trkpt lat="44.6470971" lon="10.6227739"><ele>84.0</ele><time>2026-04-19T08:02:10.918Z</time></trkpt><trkpt lat="44.6470111" lon="10.6227374"><ele>84.0</ele><time>2026-04-19T08:02:11.92Z</time></trkpt><trkpt lat="44.6469266" lon="10.6227338"><ele>84.0</ele><time>2026-04-19T08:02:12.909Z</time></trkpt><trkpt lat="44.6468386" lon="10.6227725"><ele>83.75</ele><time>2026-04-19T08:02:13.916Z</time></trkpt><trkpt lat="44.6467581" lon="10.6228672"><ele>83.5</ele><time>2026-04-19T08:02:14.923Z</time></trkpt><trkpt lat="44.6466951" lon="10.623009"><ele>83.25</ele><time>2026-04-19T08:02:15.913Z</time></trkpt><trkpt lat="44.6466364" lon="10.6231574"><ele>83.0</ele><time>2026-04-19T08:02:16.913Z</time></trkpt><trkpt lat="44.6465722" lon="10.6233078"><ele>83.0</ele><time>2026-04-19T08:02:17.911Z</time></trkpt><trkpt lat="44.6465082" lon="10.6234611"><ele>83.0</ele><time>2026-04-19T08:02:18.929Z</time></trkpt><trkpt lat="44.6464405" lon="10.6236171"><ele>83.0</ele><time>2026-04-19T08:02:19.948Z</time></trkpt><trkpt lat="44.6463724" lon="10.6237725"><ele>83.0</ele><time>2026-04-19T08:02:20.913Z</time></trkpt><trkpt lat="44.646302" lon="10.6239333"><ele>83.0</ele><time>2026-04-19T08:02:21.929Z</time></trkpt><trkpt lat="44.6462288" lon="10.6240861"><ele>83.0</ele><time>2026-04-19T08:02:22.911Z</time></trkpt><trkpt lat="44.646157" lon="10.624234"><ele>83.0</ele><time>2026-04-19T08:02:23.91Z</time></trkpt><trkpt lat="44.6460896" lon="10.6243793"><ele>83.0</ele><time>2026-04-19T08:02:24.907Z</time></trkpt><trkpt lat="44.6460297" lon="10.6245261"><ele>83.5</ele><time>2026-04-19T08:02:25.909Z</time></trkpt><trkpt lat="44.6459699" lon="10.624676"><ele>84.0</ele><time>2026-04-19T08:02:26.911Z</time></trkpt><trkpt lat="44.6459053" lon="10.6248276"><ele>84.5</ele><time>2026-04-19T08:02:27.911Z</time></trkpt><trkpt lat="44.6458372" lon="10.6249843"><ele>85.0</ele><time>2026-04-19T08:02:28.913Z</time></trkpt><trkpt lat="44.6457651" lon="10.6251427"><ele>85.0</ele><time>2026-04-19T08:02:29.91Z</time></trkpt><trkpt lat="44.6456903" lon="10.6253002"><ele>85.0</ele><time>2026-04-19T08:02:30.907Z</time></trkpt><trkpt lat="44.6456133" lon="10.6254508"><ele>85.0</ele><time>2026-04-19T08:02:31.918Z</time></trkpt><trkpt lat="44.6455367" lon="10.6255956"><ele>85.0</ele><time>2026-04-19T08:02:32.919Z</time></trkpt><trkpt lat="44.6454603" lon="10.6257372"><ele>85.0</ele><time>2026-04-19T08:02:33.918Z</time></trkpt><trkpt lat="44.6453836" lon="10.6258769"><ele>85.0</ele><time>2026-04-19T08:02:34.92Z</time></trkpt><trkpt lat="44.6453069" lon="10.6260126"><ele>85.0</ele><time>2026-04-19T08:02:35.92Z</time></trkpt><trkpt lat="44.6452333" lon="10.6261499"><ele>85.0</ele><time>2026-04-19T08:02:36.913Z</time></trkpt><trkpt lat="44.6451616" lon="10.6262871"><ele>85.8</ele><time>2026-04-19T08:02:37.914Z</time></trkpt><trkpt lat="44.6450902" lon="10.6264148"><ele>86.6</ele><time>2026-04-19T08:02:38.907Z</time></trkpt><trkpt lat="44.6450121" lon="10.6265319"><ele>87.4</ele><time>2026-04-19T08:02:39.948Z</time></trkpt><trkpt lat="44.6449247" lon="10.6266247"><ele>88.2</ele><time>2026-04-19T08:02:40.912Z</time></trkpt><trkpt lat="44.6448252" lon="10.6266865"><ele>89.0</ele><time>2026-04-19T08:02:41.969Z</time></trkpt><trkpt lat="44.6447219" lon="10.6267091"><ele>89.0</ele><time>2026-04-19T08:02:42.949Z</time></trkpt><trkpt lat="44.6446109" lon="10.6267031"><ele>89.0</ele><time>2026-04-19T08:02:43.933Z</time></trkpt><trkpt lat="44.644494" lon="10.6266815"><ele>89.0</ele><time>2026-04-19T08:02:44.925Z</time></trkpt><trkpt lat="44.6443801" lon="10.6266542"><ele>89.0</ele><time>2026-04-19T08:02:45.907Z</time></trkpt><trkpt lat="44.644269" lon="10.6266255"><ele>89.0</ele><time>2026-04-19T08:02:46.912Z</time></trkpt><trkpt lat="44.6441567" lon="10.6265973"><ele>89.0</ele><time>2026-04-19T08:02:47.907Z</time></trkpt><trkpt lat="44.6440416" lon="10.6265688"><ele>89.0</ele><time>2026-04-19T08:02:48.916Z</time></trkpt><trkpt lat="44.6439342" lon="10.6265317"><ele>89.0</ele><time>2026-04-19T08:02:49.907Z</time></trkpt><trkpt lat="44.6438295" lon="10.6264962"><ele>89.0</ele><time>2026-04-19T08:02:50.907Z</time></trkpt><trkpt lat="44.6437228" lon="10.6264671"><ele>89.2</ele><time>2026-04-19T08:02:51.918Z</time></trkpt><trkpt lat="44.6436131" lon="10.6264422"><ele>89.4</ele><time>2026-04-19T08:02:52.92Z</time></trkpt><trkpt lat="44.6435062" lon="10.6264225"><ele>89.6</ele><time>2026-04-19T08:02:53.91Z</time></trkpt><trkpt lat="44.6434008" lon="10.626399"><ele>89.8</ele><time>2026-04-19T08:02:54.92Z</time></trkpt><trkpt lat="44.6433003" lon="10.6263768"><ele>90.0</ele><time>2026-04-19T08:02:55.909Z</time></trkpt><trkpt lat="44.6432002" lon="10.6263531"><ele>90.0</ele><time>2026-04-19T08:02:56.909Z</time></trkpt><trkpt lat="44.6431" lon="10.6263265"><ele>90.0</ele><time>2026-04-19T08:02:57.913Z</time></trkpt><trkpt lat="44.6430036" lon="10.6262997"><ele>90.0</ele><time>2026-04-19T08:02:58.911Z</time></trkpt><trkpt lat="44.642916" lon="10.6262686"><ele>90.0</ele><time>2026-04-19T08:02:59.91Z</time></trkpt><trkpt lat="44.6428392" lon="10.6262369"><ele>90.0</ele><time>2026-04-19T08:03:00.907Z</time></trkpt><trkpt lat="44.6427678" lon="10.6262096"><ele>90.0</ele><time>2026-04-19T08:03:01.912Z</time></trkpt><trkpt lat="44.6426636" lon="10.6261594"><ele>90.33333333333333</ele><time>2026-04-19T08:03:03.911Z</time></trkpt><trkpt lat="44.6425787" lon="10.6261314"><ele>90.66666666666667</ele><time>2026-04-19T08:03:05.907Z</time></trkpt><trkpt lat="44.6424962" lon="10.6261822"><ele>91.0</ele><time>2026-04-19T08:03:07.918Z</time></trkpt><trkpt lat="44.6424579" lon="10.6262685"><ele>91.33333333333334</ele><time>2026-04-19T08:03:08.911Z</time></trkpt><trkpt lat="44.6424268" lon="10.6263842"><ele>91.66666666666667</ele><time>2026-04-19T08:03:09.92Z</time></trkpt><trkpt lat="44.6423966" lon="10.6265121"><ele>92.0</ele><time>2026-04-19T08:03:10.913Z</time></trkpt><trkpt lat="44.6423636" lon="10.6266447"><ele>92.0</ele><time>2026-04-19T08:03:11.91Z</time></trkpt><trkpt lat="44.642324" lon="10.6267775"><ele>92.0</ele><time>2026-04-19T08:03:12.943Z</time></trkpt><trkpt lat="44.6422823" lon="10.626907"><ele>92.0</ele><time>2026-04-19T08:03:13.913Z</time></trkpt><trkpt lat="44.6422399" lon="10.6270395"><ele>92.0</ele><time>2026-04-19T08:03:14.927Z</time></trkpt><trkpt lat="44.642199" lon="10.6271742"><ele>92.0</ele><time>2026-04-19T08:03:15.908Z</time></trkpt><trkpt lat="44.6421555" lon="10.6273162"><ele>92.0</ele><time>2026-04-19T08:03:16.973Z</time></trkpt><trkpt lat="44.6421107" lon="10.6274626"><ele>92.0</ele><time>2026-04-19T08:03:17.957Z</time></trkpt><trkpt lat="44.6420685" lon="10.6276218"><ele>92.0</ele><time>2026-04-19T08:03:18.952Z</time></trkpt><trkpt lat="44.6420311" lon="10.6277923"><ele>92.0</ele><time>2026-04-19T08:03:19.931Z</time></trkpt><trkpt lat="44.6419926" lon="10.627965"><ele>92.25</ele><time>2026-04-19T08:03:20.911Z</time></trkpt><trkpt lat="44.6419558" lon="10.6281418"><ele>92.5</ele><time>2026-04-19T08:03:21.914Z</time></trkpt><trkpt lat="44.6419161" lon="10.6283155"><ele>92.75</ele><time>2026-04-19T08:03:22.913Z</time></trkpt><trkpt lat="44.6418766" lon="10.6284882"><ele>93.0</ele><time>2026-04-19T08:03:23.913Z</time></trkpt><trkpt lat="44.6418353" lon="10.6286571"><ele>92.5</ele><time>2026-04-19T08:03:24.909Z</time></trkpt><trkpt lat="44.6417932" lon="10.628819"><ele>92.0</ele><time>2026-04-19T08:03:25.911Z</time></trkpt><trkpt lat="44.6417544" lon="10.6289787"><ele>91.5</ele><time>2026-04-19T08:03:26.921Z</time></trkpt><trkpt lat="44.6417139" lon="10.6291384"><ele>91.0</ele><time>2026-04-19T08:03:27.911Z</time></trkpt><trkpt lat="44.6416724" lon="10.6293033"><ele>91.0</ele><time>2026-04-19T08:03:28.913Z</time></trkpt><trkpt lat="44.641632" lon="10.6294715"><ele>91.0</ele><time>2026-04-19T08:03:29.929Z</time></trkpt><trkpt lat="44.6415905" lon="10.6296427"><ele>91.0</ele><time>2026-04-19T08:03:30.907Z</time></trkpt><trkpt lat="44.6415473" lon="10.6298151"><ele>91.0</ele><time>2026-04-19T08:03:31.911Z</time></trkpt><trkpt lat="44.6415038" lon="10.6299902"><ele>90.75</ele><time>2026-04-19T08:03:32.911Z</time></trkpt><trkpt lat="44.6414587" lon="10.6301636"><ele>90.5</ele><time>2026-04-19T08:03:33.908Z</time></trkpt><trkpt lat="44.6414087" lon="10.6303342"><ele>90.25</ele><time>2026-04-19T08:03:34.935Z</time></trkpt><trkpt lat="44.6413571" lon="10.630497"><ele>90.0</ele><time>2026-04-19T08:03:35.913Z</time></trkpt><trkpt lat="44.6413022" lon="10.6306661"><ele>90.0</ele><time>2026-04-19T08:03:36.907Z</time></trkpt><trkpt lat="44.6412437" lon="10.6308336"><ele>90.0</ele><time>2026-04-19T08:03:37.911Z</time></trkpt><trkpt lat="44.641177" lon="10.6309966"><ele>90.0</ele><time>2026-04-19T08:03:38.95Z</time></trkpt><trkpt lat="44.6411105" lon="10.6311546"><ele>90.0</ele><time>2026-04-19T08:03:39.917Z</time></trkpt><trkpt lat="44.6410435" lon="10.6313149"><ele>90.0</ele><time>2026-04-19T08:03:40.912Z</time></trkpt><trkpt lat="44.640975" lon="10.6314765"><ele>90.0</ele><time>2026-04-19T08:03:41.918Z</time></trkpt><trkpt lat="44.6409067" lon="10.6316403"><ele>90.0</ele><time>2026-04-19T08:03:42.911Z</time></trkpt><trkpt lat="44.6408381" lon="10.6317992"><ele>90.0</ele><time>2026-04-19T08:03:43.912Z</time></trkpt><trkpt lat="44.6407699" lon="10.6319514"><ele>89.25</ele><time>2026-04-19T08:03:44.917Z</time></trkpt><trkpt lat="44.6407013" lon="10.6320984"><ele>88.5</ele><time>2026-04-19T08:03:45.907Z</time></trkpt><trkpt lat="44.6406316" lon="10.6322422"><ele>87.75</ele><time>2026-04-19T08:03:46.914Z</time></trkpt><trkpt lat="44.6405682" lon="10.6323866"><ele>87.0</ele><time>2026-04-19T08:03:47.911Z</time></trkpt><trkpt lat="44.6405065" lon="10.6325297"><ele>87.0</ele><time>2026-04-19T08:03:48.906Z</time></trkpt><trkpt lat="44.6404496" lon="10.6326814"><ele>87.0</ele><time>2026-04-19T08:03:49.911Z</time></trkpt><trkpt lat="44.6403977" lon="10.6328457"><ele>87.0</ele><time>2026-04-19T08:03:50.908Z</time></trkpt><trkpt lat="44.6403498" lon="10.6330164"><ele>87.0</ele><time>2026-04-19T08:03:51.91Z</time></trkpt><trkpt lat="44.6402986" lon="10.6331885"><ele>87.25</ele><time>2026-04-19T08:03:52.912Z</time></trkpt><trkpt lat="44.6402518" lon="10.6333638"><ele>87.5</ele><time>2026-04-19T08:03:53.915Z</time></trkpt><trkpt lat="44.6402095" lon="10.6335427"><ele>87.75</ele><time>2026-04-19T08:03:54.91Z</time></trkpt><trkpt lat="44.6401729" lon="10.633723"><ele>88.0</ele><time>2026-04-19T08:03:55.913Z</time></trkpt><trkpt lat="44.6401425" lon="10.6339063"><ele>88.0</ele><time>2026-04-19T08:03:56.912Z</time></trkpt><trkpt lat="44.6401145" lon="10.6340891"><ele>88.0</ele><time>2026-04-19T08:03:57.937Z</time></trkpt><trkpt lat="44.6400888" lon="10.6342684"><ele>88.0</ele><time>2026-04-19T08:03:58.912Z</time></trkpt><trkpt lat="44.6400583" lon="10.6344448"><ele>88.0</ele><time>2026-04-19T08:03:59.927Z</time></trkpt><trkpt lat="44.6400233" lon="10.6346168"><ele>87.5</ele><time>2026-04-19T08:04:00.909Z</time></trkpt><trkpt lat="44.6399833" lon="10.6347787"><ele>87.0</ele><time>2026-04-19T08:04:01.911Z</time></trkpt><trkpt lat="44.639939" lon="10.6349348"><ele>86.5</ele><time>2026-04-19T08:04:02.91Z</time></trkpt><trkpt lat="44.6398944" lon="10.6350877"><ele>86.0</ele><time>2026-04-19T08:04:03.913Z</time></trkpt><trkpt lat="44.6398459" lon="10.6352371"><ele>85.5</ele><time>2026-04-19T08:04:04.907Z</time></trkpt><trkpt lat="44.639789" lon="10.6353872"><ele>85.0</ele><time>2026-04-19T08:04:05.917Z</time></trkpt><trkpt lat="44.6397288" lon="10.6355348"><ele>84.5</ele><time>2026-04-19T08:04:06.908Z</time></trkpt><trkpt lat="44.6396656" lon="10.6356866"><ele>84.0</ele><time>2026-04-19T08:04:07.912Z</time></trkpt><trkpt lat="44.6395975" lon="10.635831"><ele>84.0</ele><time>2026-04-19T08:04:08.919Z</time></trkpt><trkpt lat="44.6395182" lon="10.63596"><ele>84.0</ele><time>2026-04-19T08:04:09.92Z</time></trkpt><trkpt lat="44.6394263" lon="10.636063"><ele>84.0</ele><time>2026-04-19T08:04:10.922Z</time></trkpt><trkpt lat="44.6393286" lon="10.636139"><ele>84.0</ele><time>2026-04-19T08:04:11.913Z</time></trkpt><trkpt lat="44.6392343" lon="10.6362203"><ele>83.6</ele><time>2026-04-19T08:04:12.908Z</time></trkpt><trkpt lat="44.6391591" lon="10.6363293"><ele>83.2</ele><time>2026-04-19T08:04:13.909Z</time></trkpt><trkpt lat="44.6390974" lon="10.6364582"><ele>82.8</ele><time>2026-04-19T08:04:14.908Z</time></trkpt><trkpt lat="44.6390412" lon="10.6365985"><ele>82.39999999999999</ele><time>2026-04-19T08:04:15.906Z</time></trkpt><trkpt lat="44.6389832" lon="10.6367401"><ele>82.0</ele><time>2026-04-19T08:04:16.928Z</time></trkpt><trkpt lat="44.6389218" lon="10.6368809"><ele>81.75</ele><time>2026-04-19T08:04:17.912Z</time></trkpt><trkpt lat="44.6388617" lon="10.6370281"><ele>81.5</ele><time>2026-04-19T08:04:18.905Z</time></trkpt><trkpt lat="44.638797" lon="10.6371736"><ele>81.25</ele><time>2026-04-19T08:04:19.933Z</time></trkpt><trkpt lat="44.6387326" lon="10.6373198"><ele>81.0</ele><time>2026-04-19T08:04:20.909Z</time></trkpt><trkpt lat="44.6386669" lon="10.6374644"><ele>82.19999999999999</ele><time>2026-04-19T08:04:21.93Z</time></trkpt><trkpt lat="44.6386053" lon="10.6376021"><ele>83.39999999999999</ele><time>2026-04-19T08:04:22.91Z</time></trkpt><trkpt lat="44.6385438" lon="10.6377323"><ele>84.6</ele><time>2026-04-19T08:04:23.91Z</time></trkpt><trkpt lat="44.6384881" lon="10.6378593"><ele>85.8</ele><time>2026-04-19T08:04:24.908Z</time></trkpt><trkpt lat="44.638435" lon="10.6379806"><ele>87.0</ele><time>2026-04-19T08:04:25.91Z</time></trkpt><trkpt lat="44.63838" lon="10.6381085"><ele>87.0</ele><time>2026-04-19T08:04:26.934Z</time></trkpt><trkpt lat="44.6383251" lon="10.6382415"><ele>87.0</ele><time>2026-04-19T08:04:27.918Z</time></trkpt><trkpt lat="44.6382653" lon="10.6383832"><ele>87.0</ele><time>2026-04-19T08:04:28.938Z</time></trkpt><trkpt lat="44.6381993" lon="10.6385236"><ele>87.0</ele><time>2026-04-19T08:04:29.935Z</time></trkpt><trkpt lat="44.6381293" lon="10.6386698"><ele>86.5</ele><time>2026-04-19T08:04:30.92Z</time></trkpt><trkpt lat="44.6380574" lon="10.6388196"><ele>86.0</ele><time>2026-04-19T08:04:31.909Z</time></trkpt><trkpt lat="44.6379812" lon="10.6389723"><ele>85.5</ele><time>2026-04-19T08:04:32.922Z</time></trkpt><trkpt lat="44.6378992" lon="10.6391188"><ele>85.0</ele><time>2026-04-19T08:04:33.911Z</time></trkpt><trkpt lat="44.6378162" lon="10.6392634"><ele>85.25</ele><time>2026-04-19T08:04:34.96Z</time></trkpt><trkpt lat="44.6377382" lon="10.639405"><ele>85.5</ele><time>2026-04-19T08:04:35.942Z</time></trkpt><trkpt lat="44.637664" lon="10.6395479"><ele>85.75</ele><time>2026-04-19T08:04:36.909Z</time></trkpt><trkpt lat="44.637586" lon="10.6396952"><ele>86.0</ele><time>2026-04-19T08:04:37.934Z</time></trkpt><trkpt lat="44.6375087" lon="10.639835"><ele>85.5</ele><time>2026-04-19T08:04:38.912Z</time></trkpt><trkpt lat="44.6374271" lon="10.6399718"><ele>85.0</ele><time>2026-04-19T08:04:39.919Z</time></trkpt><trkpt lat="44.6373433" lon="10.6401076"><ele>84.5</ele><time>2026-04-19T08:04:40.946Z</time></trkpt><trkpt lat="44.6372592" lon="10.6402366"><ele>84.0</ele><time>2026-04-19T08:04:41.912Z</time></trkpt><trkpt lat="44.6371736" lon="10.6403605"><ele>83.0</ele><time>2026-04-19T08:04:42.906Z</time></trkpt><trkpt lat="44.6370929" lon="10.6404823"><ele>82.0</ele><time>2026-04-19T08:04:43.931Z</time></trkpt><trkpt lat="44.6370142" lon="10.640606"><ele>81.0</ele><time>2026-04-19T08:04:44.907Z</time></trkpt><trkpt lat="44.6369276" lon="10.640734"><ele>80.0</ele><time>2026-04-19T08:04:45.926Z</time></trkpt><trkpt lat="44.6368356" lon="10.6408513"><ele>79.75</ele><time>2026-04-19T08:04:46.912Z</time></trkpt><trkpt lat="44.6367335" lon="10.6409595"><ele>79.5</ele><time>2026-04-19T08:04:47.945Z</time></trkpt><trkpt lat="44.6366303" lon="10.6410633"><ele>79.25</ele><time>2026-04-19T08:04:48.92Z</time></trkpt><trkpt lat="44.6365284" lon="10.6411687"><ele>79.0</ele><time>2026-04-19T08:04:49.919Z</time></trkpt><trkpt lat="44.6364324" lon="10.6412708"><ele>79.0</ele><time>2026-04-19T08:04:50.951Z</time></trkpt><trkpt lat="44.6363457" lon="10.6413689"><ele>79.0</ele><time>2026-04-19T08:04:51.959Z</time></trkpt><trkpt lat="44.6362681" lon="10.6414631"><ele>79.0</ele><time>2026-04-19T08:04:52.912Z</time></trkpt><trkpt lat="44.6362007" lon="10.6415461"><ele>79.0</ele><time>2026-04-19T08:04:53.91Z</time></trkpt><trkpt lat="44.6361427" lon="10.6416135"><ele>79.0</ele><time>2026-04-19T08:04:54.91Z</time></trkpt><trkpt lat="44.636087" lon="10.6416623"><ele>79.0</ele><time>2026-04-19T08:04:55.912Z</time></trkpt><trkpt lat="44.6359974" lon="10.6416449"><ele>78.60000000000001</ele><time>2026-04-19T08:04:57.955Z</time></trkpt><trkpt lat="44.6359076" lon="10.6414962"><ele>78.2</ele><time>2026-04-19T08:04:59.91Z</time></trkpt><trkpt lat="44.6358386" lon="10.6414162"><ele>77.80000000000001</ele><time>2026-04-19T08:05:00.91Z</time></trkpt><trkpt lat="44.6357516" lon="10.6413342"><ele>77.4</ele><time>2026-04-19T08:05:01.955Z</time></trkpt><trkpt lat="44.6356598" lon="10.6412531"><ele>77.0</ele><time>2026-04-19T08:05:02.925Z</time></trkpt><trkpt lat="44.6355635" lon="10.6411676"><ele>78.0</ele><time>2026-04-19T08:05:03.944Z</time></trkpt><trkpt lat="44.6354685" lon="10.6410822"><ele>79.0</ele><time>2026-04-19T08:05:04.927Z</time></trkpt><trkpt lat="44.6353716" lon="10.641"><ele>80.0</ele><time>2026-04-19T08:05:05.954Z</time></trkpt><trkpt lat="44.6352773" lon="10.640921"><ele>81.0</ele><time>2026-04-19T08:05:06.909Z</time></trkpt><trkpt lat="44.6351832" lon="10.6408374"><ele>82.0</ele><time>2026-04-19T08:05:07.912Z</time></trkpt><trkpt lat="44.635091" lon="10.6407552"><ele>82.0</ele><time>2026-04-19T08:05:08.932Z</time></trkpt><trkpt lat="44.6350028" lon="10.6406731"><ele>82.0</ele><time>2026-04-19T08:05:09.955Z</time></trkpt><trkpt lat="44.6349125" lon="10.640594"><ele>82.0</ele><time>2026-04-19T08:05:10.93Z</time></trkpt><trkpt lat="44.6348174" lon="10.6405139"><ele>82.0</ele><time>2026-04-19T08:05:11.91Z</time></trkpt><trkpt lat="44.6347186" lon="10.6404322"><ele>82.0</ele><time>2026-04-19T08:05:12.909Z</time></trkpt><trkpt lat="44.6346215" lon="10.6403485"><ele>82.5</ele><time>2026-04-19T08:05:13.91Z</time></trkpt><trkpt lat="44.6345229" lon="10.6402676"><ele>83.0</ele><time>2026-04-19T08:05:14.94Z</time></trkpt><trkpt lat="44.6344271" lon="10.6401855"><ele>83.5</ele><time>2026-04-19T08:05:15.909Z</time></trkpt><trkpt lat="44.6343301" lon="10.6400997"><ele>84.0</ele><time>2026-04-19T08:05:16.914Z</time></trkpt><trkpt lat="44.6342326" lon="10.6400106"><ele>84.0</ele><time>2026-04-19T08:05:17.963Z</time></trkpt><trkpt lat="44.6341355" lon="10.6399254"><ele>84.0</ele><time>2026-04-19T08:05:18.932Z</time></trkpt><trkpt lat="44.6340341" lon="10.6398386"><ele>84.0</ele><time>2026-04-19T08:05:19.911Z</time></trkpt><trkpt lat="44.6339299" lon="10.6397514"><ele>84.0</ele><time>2026-04-19T08:05:20.93Z</time></trkpt><trkpt lat="44.6338251" lon="10.6396638"><ele>84.0</ele><time>2026-04-19T08:05:21.916Z</time></trkpt><trkpt lat="44.6337177" lon="10.6395715"><ele>84.0</ele><time>2026-04-19T08:05:22.967Z</time></trkpt><trkpt lat="44.6336101" lon="10.639476"><ele>84.0</ele><time>2026-04-19T08:05:23.952Z</time></trkpt><trkpt lat="44.6335009" lon="10.6393827"><ele>84.0</ele><time>2026-04-19T08:05:24.907Z</time></trkpt><trkpt lat="44.6333881" lon="10.6392853"><ele>84.5</ele><time>2026-04-19T08:05:25.921Z</time></trkpt><trkpt lat="44.6332781" lon="10.6391888"><ele>85.0</ele><time>2026-04-19T08:05:26.925Z</time></trkpt><trkpt lat="44.6331716" lon="10.6390922"><ele>85.5</ele><time>2026-04-19T08:05:27.913Z</time></trkpt><trkpt lat="44.6330627" lon="10.6389948"><ele>86.0</ele><time>2026-04-19T08:05:28.96Z</time></trkpt><trkpt lat="44.6329559" lon="10.6388961"><ele>86.0</ele><time>2026-04-19T08:05:29.912Z</time></trkpt><trkpt lat="44.6328467" lon="10.6387967"><ele>86.0</ele><time>2026-04-19T08:05:30.929Z</time></trkpt><trkpt lat="44.6327412" lon="10.6386976"><ele>86.0</ele><time>2026-04-19T08:05:31.953Z</time></trkpt><trkpt lat="44.6326344" lon="10.6386014"><ele>86.0</ele><time>2026-04-19T08:05:32.914Z</time></trkpt><trkpt lat="44.6325231" lon="10.6384998"><ele>86.5</ele><time>2026-04-19T08:05:33.937Z</time></trkpt><trkpt lat="44.6324112" lon="10.6383964"><ele>87.0</ele><time>2026-04-19T08:05:34.97Z</time></trkpt><trkpt lat="44.6323015" lon="10.6382922"><ele>87.5</ele><time>2026-04-19T08:05:35.972Z</time></trkpt><trkpt lat="44.6321958" lon="10.6381834"><ele>88.0</ele><time>2026-04-19T08:05:36.913Z</time></trkpt><trkpt lat="44.632094" lon="10.6380663"><ele>88.0</ele><time>2026-04-19T08:05:37.917Z</time></trkpt><trkpt lat="44.6320086" lon="10.6379379"><ele>88.0</ele><time>2026-04-19T08:05:38.91Z</time></trkpt><trkpt lat="44.6319262" lon="10.6377993"><ele>88.0</ele><time>2026-04-19T08:05:39.91Z</time></trkpt><trkpt lat="44.6318446" lon="10.6376571"><ele>88.0</ele><time>2026-04-19T08:05:40.912Z</time></trkpt><trkpt lat="44.6317647" lon="10.6375151"><ele>88.0</ele><time>2026-04-19T08:05:41.927Z</time></trkpt><trkpt lat="44.6316866" lon="10.6373783"><ele>88.0</ele><time>2026-04-19T08:05:42.909Z</time></trkpt><trkpt lat="44.6316169" lon="10.6372483"><ele>88.0</ele><time>2026-04-19T08:05:43.952Z</time></trkpt><trkpt lat="44.631547" lon="10.6371272"><ele>88.0</ele><time>2026-04-19T08:05:44.912Z</time></trkpt><trkpt lat="44.6314736" lon="10.6370046"><ele>87.80000000000001</ele><time>2026-04-19T08:05:45.912Z</time></trkpt><trkpt lat="44.6314044" lon="10.6368868"><ele>87.6</ele><time>2026-04-19T08:05:46.917Z</time></trkpt><trkpt lat="44.6313412" lon="10.6367773"><ele>87.4</ele><time>2026-04-19T08:05:47.91Z</time></trkpt><trkpt lat="44.6312873" lon="10.6366871"><ele>87.19999999999999</ele><time>2026-04-19T08:05:48.908Z</time></trkpt><trkpt lat="44.6312396" lon="10.6366174"><ele>87.0</ele><time>2026-04-19T08:05:49.909Z</time></trkpt><trkpt lat="44.6311359" lon="10.6365439"><ele>87.0</ele><time>2026-04-19T08:05:51.912Z</time></trkpt><trkpt lat="44.6310157" lon="10.6365941"><ele>87.0</ele><time>2026-04-19T08:05:53.913Z</time></trkpt><trkpt lat="44.6309514" lon="10.6366667"><ele>87.0</ele><time>2026-04-19T08:05:54.98Z</time></trkpt><trkpt lat="44.630889" lon="10.6367582"><ele>87.0</ele><time>2026-04-19T08:05:55.911Z</time></trkpt><trkpt lat="44.6308313" lon="10.6368634"><ele>87.0</ele><time>2026-04-19T08:05:56.916Z</time></trkpt><trkpt lat="44.6307769" lon="10.6369731"><ele>86.6</ele><time>2026-04-19T08:05:57.912Z</time></trkpt><trkpt lat="44.6307127" lon="10.6370883"><ele>86.19999999999999</ele><time>2026-04-19T08:05:58.921Z</time></trkpt><trkpt lat="44.6306441" lon="10.6372138"><ele>85.8</ele><time>2026-04-19T08:05:59.912Z</time></trkpt><trkpt lat="44.6305722" lon="10.6373426"><ele>85.4</ele><time>2026-04-19T08:06:00.908Z</time></trkpt><trkpt lat="44.6305013" lon="10.6374699"><ele>85.0</ele><time>2026-04-19T08:06:01.954Z</time></trkpt><trkpt lat="44.6304306" lon="10.6375896"><ele>85.0</ele><time>2026-04-19T08:06:02.911Z</time></trkpt><trkpt lat="44.6303597" lon="10.6377053"><ele>85.0</ele><time>2026-04-19T08:06:03.917Z</time></trkpt><trkpt lat="44.6302877" lon="10.6378177"><ele>85.0</ele><time>2026-04-19T08:06:04.976Z</time></trkpt><trkpt lat="44.6302174" lon="10.637923"><ele>85.0</ele><time>2026-04-19T08:06:05.911Z</time></trkpt><trkpt lat="44.6301448" lon="10.6380298"><ele>85.0</ele><time>2026-04-19T08:06:06.961Z</time></trkpt><trkpt lat="44.6300768" lon="10.6381275"><ele>84.5</ele><time>2026-04-19T08:06:07.94Z</time></trkpt><trkpt lat="44.6300121" lon="10.6382203"><ele>84.0</ele><time>2026-04-19T08:06:08.909Z</time></trkpt><trkpt lat="44.6299468" lon="10.6383045"><ele>83.5</ele><time>2026-04-19T08:06:09.911Z</time></trkpt><trkpt lat="44.6298786" lon="10.638372"><ele>83.0</ele><time>2026-04-19T08:06:10.912Z</time></trkpt><trkpt lat="44.6298096" lon="10.638418"><ele>82.5</ele><time>2026-04-19T08:06:11.936Z</time></trkpt><trkpt lat="44.6297431" lon="10.6384395"><ele>82.0</ele><time>2026-04-19T08:06:12.912Z</time></trkpt><trkpt lat="44.6296764" lon="10.6384445"><ele>82.0</ele><time>2026-04-19T08:06:13.935Z</time></trkpt><trkpt lat="44.6296083" lon="10.6384302"><ele>82.0</ele><time>2026-04-19T08:06:14.942Z</time></trkpt><trkpt lat="44.6295331" lon="10.6383935"><ele>82.0</ele><time>2026-04-19T08:06:15.913Z</time></trkpt><trkpt lat="44.6294548" lon="10.6383443"><ele>82.0</ele><time>2026-04-19T08:06:16.973Z</time></trkpt><trkpt lat="44.6293783" lon="10.638284"><ele>82.0</ele><time>2026-04-19T08:06:17.959Z</time></trkpt><trkpt lat="44.6293017" lon="10.6382154"><ele>82.0</ele><time>2026-04-19T08:06:18.973Z</time></trkpt><trkpt lat="44.6292346" lon="10.6381374"><ele>82.0</ele><time>2026-04-19T08:06:19.924Z</time></trkpt><trkpt lat="44.6291747" lon="10.6380473"><ele>82.0</ele><time>2026-04-19T08:06:20.908Z</time></trkpt><trkpt lat="44.6291181" lon="10.6379549"><ele>82.0</ele><time>2026-04-19T08:06:21.918Z</time></trkpt><trkpt lat="44.6290668" lon="10.6378762"><ele>82.0</ele><time>2026-04-19T08:06:22.966Z</time></trkpt><trkpt lat="44.6290197" lon="10.6378121"><ele>82.0</ele><time>2026-04-19T08:06:23.997Z</time></trkpt><trkpt lat="44.6289251" lon="10.6377094"><ele>82.0</ele><time>2026-04-19T08:06:25.945Z</time></trkpt><trkpt lat="44.628866" lon="10.637675"><ele>82.42857142857142</ele><time>2026-04-19T08:06:26.918Z</time></trkpt><trkpt lat="44.628797" lon="10.6376477"><ele>82.85714285714286</ele><time>2026-04-19T08:06:27.915Z</time></trkpt><trkpt lat="44.628723" lon="10.6376289"><ele>83.28571428571428</ele><time>2026-04-19T08:06:28.956Z</time></trkpt><trkpt lat="44.6286517" lon="10.6376164"><ele>83.71428571428571</ele><time>2026-04-19T08:06:29.912Z</time></trkpt><trkpt lat="44.6285798" lon="10.6376082"><ele>84.14285714285714</ele><time>2026-04-19T08:06:30.932Z</time></trkpt><trkpt lat="44.6285098" lon="10.6376032"><ele>84.57142857142857</ele><time>2026-04-19T08:06:31.911Z</time></trkpt><trkpt lat="44.6284395" lon="10.637596"><ele>85.0</ele><time>2026-04-19T08:06:32.958Z</time></trkpt><trkpt lat="44.6283719" lon="10.6375807"><ele>85.33333333333333</ele><time>2026-04-19T08:06:33.907Z</time></trkpt><trkpt lat="44.6283029" lon="10.6375638"><ele>85.66666666666666</ele><time>2026-04-19T08:06:34.913Z</time></trkpt><trkpt lat="44.6282345" lon="10.6375407"><ele>86.0</ele><time>2026-04-19T08:06:35.93Z</time></trkpt><trkpt lat="44.6281684" lon="10.6375124"><ele>86.33333333333333</ele><time>2026-04-19T08:06:36.914Z</time></trkpt><trkpt lat="44.6281049" lon="10.6374791"><ele>86.66666666666667</ele><time>2026-04-19T08:06:37.91Z</time></trkpt><trkpt lat="44.6280426" lon="10.6374405"><ele>87.0</ele><time>2026-04-19T08:06:38.959Z</time></trkpt><trkpt lat="44.6279382" lon="10.6373589"><ele>87.0</ele><time>2026-04-19T08:06:40.911Z</time></trkpt><trkpt lat="44.6278365" lon="10.6372768"><ele>87.0</ele><time>2026-04-19T08:06:42.933Z</time></trkpt><trkpt lat="44.6277323" lon="10.6372012"><ele>87.0</ele><time>2026-04-19T08:06:44.91Z</time></trkpt><trkpt lat="44.6276187" lon="10.6371205"><ele>87.0</ele><time>2026-04-19T08:06:46.921Z</time></trkpt><trkpt lat="44.6275567" lon="10.6370775"><ele>87.0</ele><time>2026-04-19T08:06:47.987Z</time></trkpt><trkpt lat="44.6274899" lon="10.6370396"><ele>87.0</ele><time>2026-04-19T08:06:48.911Z</time></trkpt><trkpt lat="44.6274251" lon="10.6369915"><ele>87.0</ele><time>2026-04-19T08:06:49.973Z</time></trkpt><trkpt lat="44.6273604" lon="10.6369393"><ele>87.0</ele><time>2026-04-19T08:06:50.933Z</time></trkpt><trkpt lat="44.6272886" lon="10.6368835"><ele>87.0</ele><time>2026-04-19T08:06:51.937Z</time></trkpt><trkpt lat="44.6272235" lon="10.6368279"><ele>87.0</ele><time>2026-04-19T08:06:52.913Z</time></trkpt><trkpt lat="44.6271617" lon="10.6367726"><ele>87.0</ele><time>2026-04-19T08:06:53.913Z</time></trkpt><trkpt lat="44.6270989" lon="10.6367163"><ele>87.71428571428571</ele><time>2026-04-19T08:06:54.961Z</time></trkpt><trkpt lat="44.6270374" lon="10.6366599"><ele>88.42857142857143</ele><time>2026-04-19T08:06:55.911Z</time></trkpt><trkpt lat="44.6269843" lon="10.6365996"><ele>89.14285714285714</ele><time>2026-04-19T08:06:56.906Z</time></trkpt><trkpt lat="44.626933" lon="10.6365453"><ele>89.85714285714286</ele><time>2026-04-19T08:06:57.968Z</time></trkpt><trkpt lat="44.6268789" lon="10.6364914"><ele>90.57142857142857</ele><time>2026-04-19T08:06:58.977Z</time></trkpt><trkpt lat="44.6268221" lon="10.6364278"><ele>91.28571428571429</ele><time>2026-04-19T08:06:59.953Z</time></trkpt><trkpt lat="44.626761" lon="10.6363561"><ele>92.0</ele><time>2026-04-19T08:07:00.908Z</time></trkpt><trkpt lat="44.626694" lon="10.6362734"><ele>92.0</ele><time>2026-04-19T08:07:01.933Z</time></trkpt><trkpt lat="44.6266234" lon="10.6361874"><ele>92.0</ele><time>2026-04-19T08:07:02.919Z</time></trkpt><trkpt lat="44.6265519" lon="10.636094"><ele>92.0</ele><time>2026-04-19T08:07:03.915Z</time></trkpt><trkpt lat="44.6264797" lon="10.6359921"><ele>92.0</ele><time>2026-04-19T08:07:04.935Z</time></trkpt><trkpt lat="44.6264058" lon="10.6358892"><ele>92.0</ele><time>2026-04-19T08:07:05.9Z</time></trkpt><trkpt lat="44.6263318" lon="10.6357913"><ele>94.0</ele><time>2026-04-19T08:07:06.908Z</time></trkpt><trkpt lat="44.6262611" lon="10.6356963"><ele>96.0</ele><time>2026-04-19T08:07:07.924Z</time></trkpt><trkpt lat="44.6261919" lon="10.6356016"><ele>98.0</ele><time>2026-04-19T08:07:08.915Z</time></trkpt><trkpt lat="44.6261232" lon="10.6355115"><ele>100.0</ele><time>2026-04-19T08:07:09.91Z</time></trkpt><trkpt lat="44.6260619" lon="10.6354264"><ele>102.0</ele><time>2026-04-19T08:07:10.91Z</time></trkpt><trkpt lat="44.6260073" lon="10.6353511"><ele>102.66666666666667</ele><time>2026-04-19T08:07:11.906Z</time></trkpt><trkpt lat="44.6259576" lon="10.6352801"><ele>103.33333333333334</ele><time>2026-04-19T08:07:12.91Z</time></trkpt><trkpt lat="44.6259066" lon="10.6352096"><ele>104.0</ele><time>2026-04-19T08:07:13.91Z</time></trkpt><trkpt lat="44.6258565" lon="10.6351403"><ele>104.66666666666667</ele><time>2026-04-19T08:07:14.912Z</time></trkpt><trkpt lat="44.6258072" lon="10.6350655"><ele>105.33333333333334</ele><time>2026-04-19T08:07:16.095Z</time></trkpt><trkpt lat="44.6256927" lon="10.6349227"><ele>106.0</ele><time>2026-04-19T08:07:17.968Z</time></trkpt><trkpt lat="44.6256237" lon="10.6348593"><ele>106.0</ele><time>2026-04-19T08:07:18.911Z</time></trkpt><trkpt lat="44.6255436" lon="10.6347943"><ele>106.0</ele><time>2026-04-19T08:07:19.952Z</time></trkpt><trkpt lat="44.625456" lon="10.6347212"><ele>106.0</ele><time>2026-04-19T08:07:20.912Z</time></trkpt><trkpt lat="44.625359" lon="10.6346525"><ele>106.0</ele><time>2026-04-19T08:07:21.912Z</time></trkpt><trkpt lat="44.6252535" lon="10.6345876"><ele>106.0</ele><time>2026-04-19T08:07:22.94Z</time></trkpt><trkpt lat="44.6251467" lon="10.6345239"><ele>106.66666666666667</ele><time>2026-04-19T08:07:23.91Z</time></trkpt><trkpt lat="44.6250505" lon="10.6344632"><ele>107.33333333333334</ele><time>2026-04-19T08:07:24.909Z</time></trkpt><trkpt lat="44.6249675" lon="10.6344074"><ele>108.0</ele><time>2026-04-19T08:07:25.958Z</time></trkpt><trkpt lat="44.6249" lon="10.6343603"><ele>108.66666666666666</ele><time>2026-04-19T08:07:26.945Z</time></trkpt><trkpt lat="44.6248441" lon="10.6343135"><ele>109.33333333333333</ele><time>2026-04-19T08:07:28.08Z</time></trkpt><trkpt lat="44.6247795" lon="10.6341977"><ele>110.0</ele><time>2026-04-19T08:07:29.969Z</time></trkpt><trkpt lat="44.6247971" lon="10.634017"><ele>109.99999999999999</ele><time>2026-04-19T08:07:31.967Z</time></trkpt><trkpt lat="44.6248066" lon="10.6339164"><ele>110.0</ele><time>2026-04-19T08:07:32.955Z</time></trkpt><trkpt lat="44.6247947" lon="10.6338152"><ele>110.0</ele><time>2026-04-19T08:07:33.947Z</time></trkpt><trkpt lat="44.6247517" lon="10.6337305"><ele>110.0</ele><time>2026-04-19T08:07:34.921Z</time></trkpt><trkpt lat="44.6246567" lon="10.6336636"><ele>109.99999999999999</ele><time>2026-04-19T08:07:35.933Z</time></trkpt><trkpt lat="44.624543" lon="10.6336021"><ele>110.0</ele><time>2026-04-19T08:07:36.907Z</time></trkpt><trkpt lat="44.624418" lon="10.6335335"><ele>110.5</ele><time>2026-04-19T08:07:37.969Z</time></trkpt><trkpt lat="44.6242874" lon="10.6334557"><ele>111.0</ele><time>2026-04-19T08:07:38.912Z</time></trkpt><trkpt lat="44.6241544" lon="10.6333767"><ele>111.5</ele><time>2026-04-19T08:07:39.94Z</time></trkpt><trkpt lat="44.6240256" lon="10.6332994"><ele>112.0</ele><time>2026-04-19T08:07:40.912Z</time></trkpt><trkpt lat="44.6238979" lon="10.6332217"><ele>112.0</ele><time>2026-04-19T08:07:41.959Z</time></trkpt><trkpt lat="44.6237734" lon="10.6331469"><ele>112.0</ele><time>2026-04-19T08:07:42.946Z</time></trkpt><trkpt lat="44.6236455" lon="10.6330742"><ele>112.0</ele><time>2026-04-19T08:07:43.945Z</time></trkpt><trkpt lat="44.6235309" lon="10.633008"><ele>112.0</ele><time>2026-04-19T08:07:44.908Z</time></trkpt><trkpt lat="44.6234098" lon="10.632937"><ele>112.75</ele><time>2026-04-19T08:07:45.937Z</time></trkpt><trkpt lat="44.6232947" lon="10.6328644"><ele>113.5</ele><time>2026-04-19T08:07:46.912Z</time></trkpt><trkpt lat="44.6231759" lon="10.6327859"><ele>114.25</ele><time>2026-04-19T08:07:47.961Z</time></trkpt><trkpt lat="44.6230557" lon="10.632711"><ele>115.0</ele><time>2026-04-19T08:07:48.922Z</time></trkpt><trkpt lat="44.6229376" lon="10.632635"><ele>115.0</ele><time>2026-04-19T08:07:49.938Z</time></trkpt><trkpt lat="44.6228201" lon="10.632565"><ele>115.0</ele><time>2026-04-19T08:07:50.911Z</time></trkpt><trkpt lat="44.6227011" lon="10.632494"><ele>115.0</ele><time>2026-04-19T08:07:51.932Z</time></trkpt><trkpt lat="44.6225789" lon="10.6324224"><ele>115.0</ele><time>2026-04-19T08:07:52.912Z</time></trkpt><trkpt lat="44.6224569" lon="10.6323458"><ele>116.0</ele><time>2026-04-19T08:07:53.917Z</time></trkpt><trkpt lat="44.6223334" lon="10.6322756"><ele>117.0</ele><time>2026-04-19T08:07:54.932Z</time></trkpt><trkpt lat="44.6222078" lon="10.6322054"><ele>118.0</ele><time>2026-04-19T08:07:55.909Z</time></trkpt><trkpt lat="44.6220814" lon="10.6321369"><ele>119.0</ele><time>2026-04-19T08:07:56.938Z</time></trkpt><trkpt lat="44.6219571" lon="10.6320763"><ele>119.5</ele><time>2026-04-19T08:07:57.909Z</time></trkpt><trkpt lat="44.6218296" lon="10.6320077"><ele>120.0</ele><time>2026-04-19T08:07:58.951Z</time></trkpt><trkpt lat="44.6217038" lon="10.6319351"><ele>120.5</ele><time>2026-04-19T08:07:59.929Z</time></trkpt><trkpt lat="44.6215758" lon="10.631858"><ele>121.0</ele><time>2026-04-19T08:08:00.91Z</time></trkpt><trkpt lat="44.6214492" lon="10.6317786"><ele>121.5</ele><time>2026-04-19T08:08:01.939Z</time></trkpt><trkpt lat="44.6213259" lon="10.6317071"><ele>122.0</ele><time>2026-04-19T08:08:02.948Z</time></trkpt><trkpt lat="44.6212047" lon="10.6316387"><ele>122.5</ele><time>2026-04-19T08:08:03.926Z</time></trkpt><trkpt lat="44.6210859" lon="10.6315723"><ele>123.0</ele><time>2026-04-19T08:08:04.935Z</time></trkpt><trkpt lat="44.6209697" lon="10.631507"><ele>123.5</ele><time>2026-04-19T08:08:05.92Z</time></trkpt><trkpt lat="44.6208484" lon="10.6314483"><ele>124.0</ele><time>2026-04-19T08:08:06.909Z</time></trkpt><trkpt lat="44.6207233" lon="10.6313803"><ele>124.5</ele><time>2026-04-19T08:08:07.907Z</time></trkpt><trkpt lat="44.6205987" lon="10.6313062"><ele>125.0</ele><time>2026-04-19T08:08:08.907Z</time></trkpt><trkpt lat="44.6204748" lon="10.6312379"><ele>125.0</ele><time>2026-04-19T08:08:09.908Z</time></trkpt><trkpt lat="44.6203488" lon="10.6311778"><ele>125.0</ele><time>2026-04-19T08:08:10.912Z</time></trkpt><trkpt lat="44.6202173" lon="10.6311131"><ele>125.0</ele><time>2026-04-19T08:08:11.925Z</time></trkpt><trkpt lat="44.6200905" lon="10.6310527"><ele>125.0</ele><time>2026-04-19T08:08:12.907Z</time></trkpt><trkpt lat="44.6199719" lon="10.6309964"><ele>125.0</ele><time>2026-04-19T08:08:13.957Z</time></trkpt><trkpt lat="44.6198543" lon="10.6309389"><ele>125.0</ele><time>2026-04-19T08:08:14.922Z</time></trkpt><trkpt lat="44.6197255" lon="10.6308802"><ele>125.0</ele><time>2026-04-19T08:08:15.932Z</time></trkpt><trkpt lat="44.6195945" lon="10.6308172"><ele>125.0</ele><time>2026-04-19T08:08:16.911Z</time></trkpt><trkpt lat="44.6194531" lon="10.6307558"><ele>125.5</ele><time>2026-04-19T08:08:17.922Z</time></trkpt><trkpt lat="44.6193174" lon="10.6306993"><ele>126.0</ele><time>2026-04-19T08:08:18.938Z</time></trkpt><trkpt lat="44.6191881" lon="10.6306495"><ele>126.5</ele><time>2026-04-19T08:08:19.913Z</time></trkpt><trkpt lat="44.6190587" lon="10.6305993"><ele>127.0</ele><time>2026-04-19T08:08:20.906Z</time></trkpt><trkpt lat="44.6189312" lon="10.6305439"><ele>127.0</ele><time>2026-04-19T08:08:21.909Z</time></trkpt><trkpt lat="44.6188043" lon="10.6304893"><ele>127.0</ele><time>2026-04-19T08:08:22.91Z</time></trkpt><trkpt lat="44.6186799" lon="10.6304332"><ele>127.0</ele><time>2026-04-19T08:08:23.916Z</time></trkpt><trkpt lat="44.6185517" lon="10.6303887"><ele>127.0</ele><time>2026-04-19T08:08:24.914Z</time></trkpt><trkpt lat="44.6184219" lon="10.6303646"><ele>127.25</ele><time>2026-04-19T08:08:25.916Z</time></trkpt><trkpt lat="44.618286" lon="10.6303582"><ele>127.5</ele><time>2026-04-19T08:08:26.911Z</time></trkpt><trkpt lat="44.6181478" lon="10.630346"><ele>127.75</ele><time>2026-04-19T08:08:27.923Z</time></trkpt><trkpt lat="44.618024" lon="10.6303188"><ele>128.0</ele><time>2026-04-19T08:08:28.911Z</time></trkpt><trkpt lat="44.6179118" lon="10.6302752"><ele>128.8</ele><time>2026-04-19T08:08:29.969Z</time></trkpt><trkpt lat="44.6178048" lon="10.6302238"><ele>129.60000000000002</ele><time>2026-04-19T08:08:30.93Z</time></trkpt><trkpt lat="44.6176995" lon="10.6301614"><ele>130.39999999999998</ele><time>2026-04-19T08:08:31.928Z</time></trkpt><trkpt lat="44.6176028" lon="10.6301004"><ele>131.2</ele><time>2026-04-19T08:08:32.921Z</time></trkpt><trkpt lat="44.6175082" lon="10.6300359"><ele>132.0</ele><time>2026-04-19T08:08:33.938Z</time></trkpt><trkpt lat="44.617415" lon="10.6299629"><ele>132.0</ele><time>2026-04-19T08:08:34.916Z</time></trkpt><trkpt lat="44.6173258" lon="10.6298913"><ele>132.0</ele><time>2026-04-19T08:08:35.925Z</time></trkpt><trkpt lat="44.6172315" lon="10.6298146"><ele>132.0</ele><time>2026-04-19T08:08:36.913Z</time></trkpt><trkpt lat="44.6171233" lon="10.629724"><ele>132.0</ele><time>2026-04-19T08:08:37.931Z</time></trkpt><trkpt lat="44.617015" lon="10.6296229"><ele>131.66666666666666</ele><time>2026-04-19T08:08:38.948Z</time></trkpt><trkpt lat="44.6169032" lon="10.6295236"><ele>131.33333333333331</ele><time>2026-04-19T08:08:40.088Z</time></trkpt><trkpt lat="44.6166768" lon="10.6293174"><ele>131.0</ele><time>2026-04-19T08:08:41.919Z</time></trkpt><trkpt lat="44.616562" lon="10.6292161"><ele>131.5</ele><time>2026-04-19T08:08:42.91Z</time></trkpt><trkpt lat="44.6164453" lon="10.6291136"><ele>132.0</ele><time>2026-04-19T08:08:43.923Z</time></trkpt><trkpt lat="44.6163268" lon="10.629014"><ele>132.5</ele><time>2026-04-19T08:08:44.92Z</time></trkpt><trkpt lat="44.6162062" lon="10.6289106"><ele>133.0</ele><time>2026-04-19T08:08:45.956Z</time></trkpt><trkpt lat="44.6160808" lon="10.6288027"><ele>133.33333333333334</ele><time>2026-04-19T08:08:46.948Z</time></trkpt><trkpt lat="44.6159467" lon="10.6286897"><ele>133.66666666666666</ele><time>2026-04-19T08:08:47.91Z</time></trkpt><trkpt lat="44.6158103" lon="10.6285779"><ele>134.0</ele><time>2026-04-19T08:08:48.906Z</time></trkpt><trkpt lat="44.6156797" lon="10.6284729"><ele>134.25</ele><time>2026-04-19T08:08:49.909Z</time></trkpt><trkpt lat="44.6155562" lon="10.6283729"><ele>134.5</ele><time>2026-04-19T08:08:50.908Z</time></trkpt><trkpt lat="44.6154337" lon="10.6282759"><ele>134.75</ele><time>2026-04-19T08:08:51.965Z</time></trkpt><trkpt lat="44.6153143" lon="10.6281778"><ele>135.0</ele><time>2026-04-19T08:08:52.91Z</time></trkpt><trkpt lat="44.6151933" lon="10.6280736"><ele>135.75</ele><time>2026-04-19T08:08:53.921Z</time></trkpt><trkpt lat="44.6150776" lon="10.6279747"><ele>136.5</ele><time>2026-04-19T08:08:54.909Z</time></trkpt><trkpt lat="44.6149652" lon="10.6278789"><ele>137.25</ele><time>2026-04-19T08:08:55.986Z</time></trkpt><trkpt lat="44.6148551" lon="10.6277852"><ele>138.0</ele><time>2026-04-19T08:08:56.959Z</time></trkpt><trkpt lat="44.6147479" lon="10.6276919"><ele>138.6</ele><time>2026-04-19T08:08:57.931Z</time></trkpt><trkpt lat="44.6146464" lon="10.6276047"><ele>139.20000000000002</ele><time>2026-04-19T08:08:58.992Z</time></trkpt><trkpt lat="44.6145559" lon="10.6275291"><ele>139.8</ele><time>2026-04-19T08:08:59.977Z</time></trkpt><trkpt lat="44.6144747" lon="10.6274645"><ele>140.4</ele><time>2026-04-19T08:09:00.907Z</time></trkpt><trkpt lat="44.6144051" lon="10.6274075"><ele>141.0</ele><time>2026-04-19T08:09:01.933Z</time></trkpt><trkpt lat="44.6143486" lon="10.6273614"><ele>141.2</ele><time>2026-04-19T08:09:02.905Z</time></trkpt><trkpt lat="44.6142632" lon="10.6272857"><ele>141.39999999999998</ele><time>2026-04-19T08:09:04.944Z</time></trkpt><trkpt lat="44.6141861" lon="10.627377"><ele>141.6</ele><time>2026-04-19T08:09:21.906Z</time></trkpt><trkpt lat="44.6141935" lon="10.6274871"><ele>141.79999999999998</ele><time>2026-04-19T08:09:22.91Z</time></trkpt><trkpt lat="44.6142241" lon="10.6276203"><ele>142.0</ele><time>2026-04-19T08:09:23.926Z</time></trkpt><trkpt lat="44.6142767" lon="10.6277726"><ele>141.25</ele><time>2026-04-19T08:09:24.907Z</time></trkpt><trkpt lat="44.6143289" lon="10.6279284"><ele>140.5</ele><time>2026-04-19T08:09:25.928Z</time></trkpt><trkpt lat="44.6143793" lon="10.6280862"><ele>139.75</ele><time>2026-04-19T08:09:26.912Z</time></trkpt><trkpt lat="44.6144254" lon="10.6282426"><ele>139.0</ele><time>2026-04-19T08:09:27.909Z</time></trkpt><trkpt lat="44.6144672" lon="10.6283929"><ele>138.8</ele><time>2026-04-19T08:09:28.913Z</time></trkpt><trkpt lat="44.6145042" lon="10.6285398"><ele>138.60000000000002</ele><time>2026-04-19T08:09:29.911Z</time></trkpt><trkpt lat="44.6145325" lon="10.6286818"><ele>138.4</ele><time>2026-04-19T08:09:30.909Z</time></trkpt><trkpt lat="44.614548" lon="10.628827"><ele>138.20000000000002</ele><time>2026-04-19T08:09:31.924Z</time></trkpt><trkpt lat="44.6145489" lon="10.6289671"><ele>138.0</ele><time>2026-04-19T08:09:32.912Z</time></trkpt><trkpt lat="44.6145402" lon="10.629106"><ele>137.0</ele><time>2026-04-19T08:09:33.91Z</time></trkpt><trkpt lat="44.6145235" lon="10.6292425"><ele>136.0</ele><time>2026-04-19T08:09:34.921Z</time></trkpt><trkpt lat="44.6144998" lon="10.62938"><ele>135.0</ele><time>2026-04-19T08:09:35.911Z</time></trkpt><trkpt lat="44.6144654" lon="10.6295157"><ele>134.0</ele><time>2026-04-19T08:09:36.918Z</time></trkpt><trkpt lat="44.6144257" lon="10.6296423"><ele>133.0</ele><time>2026-04-19T08:09:37.96Z</time></trkpt><trkpt lat="44.6143811" lon="10.6297543"><ele>132.6</ele><time>2026-04-19T08:09:38.939Z</time></trkpt><trkpt lat="44.6143309" lon="10.6298665"><ele>132.20000000000002</ele><time>2026-04-19T08:09:39.92Z</time></trkpt><trkpt lat="44.6142725" lon="10.6299799"><ele>131.8</ele><time>2026-04-19T08:09:40.908Z</time></trkpt><trkpt lat="44.614206" lon="10.6300934"><ele>131.4</ele><time>2026-04-19T08:09:41.911Z</time></trkpt><trkpt lat="44.6141315" lon="10.6302083"><ele>131.0</ele><time>2026-04-19T08:09:42.91Z</time></trkpt><trkpt lat="44.6140538" lon="10.6303279"><ele>128.75</ele><time>2026-04-19T08:09:43.912Z</time></trkpt><trkpt lat="44.6139725" lon="10.6304483"><ele>126.5</ele><time>2026-04-19T08:09:44.911Z</time></trkpt><trkpt lat="44.6138872" lon="10.6305712"><ele>124.25</ele><time>2026-04-19T08:09:45.91Z</time></trkpt><trkpt lat="44.6138019" lon="10.6306934"><ele>122.0</ele><time>2026-04-19T08:09:46.914Z</time></trkpt><trkpt lat="44.613715" lon="10.6308143"><ele>122.5</ele><time>2026-04-19T08:09:47.934Z</time></trkpt><trkpt lat="44.6136303" lon="10.6309302"><ele>123.0</ele><time>2026-04-19T08:09:48.912Z</time></trkpt><trkpt lat="44.6135437" lon="10.631047"><ele>123.5</ele><time>2026-04-19T08:09:49.914Z</time></trkpt><trkpt lat="44.6134554" lon="10.6311683"><ele>124.0</ele><time>2026-04-19T08:09:50.913Z</time></trkpt><trkpt lat="44.6133611" lon="10.6312938"><ele>123.0</ele><time>2026-04-19T08:09:51.912Z</time></trkpt><trkpt lat="44.6132673" lon="10.6314223"><ele>122.0</ele><time>2026-04-19T08:09:52.921Z</time></trkpt><trkpt lat="44.613178" lon="10.6315443"><ele>121.0</ele><time>2026-04-19T08:09:53.929Z</time></trkpt><trkpt lat="44.6130931" lon="10.6316614"><ele>120.0</ele><time>2026-04-19T08:09:54.937Z</time></trkpt><trkpt lat="44.6130112" lon="10.631771"><ele>120.0</ele><time>2026-04-19T08:09:55.951Z</time></trkpt><trkpt lat="44.6129338" lon="10.6318766"><ele>120.0</ele><time>2026-04-19T08:09:56.911Z</time></trkpt><trkpt lat="44.6128561" lon="10.6319872"><ele>120.0</ele><time>2026-04-19T08:09:57.948Z</time></trkpt><trkpt lat="44.6127802" lon="10.6320952"><ele>120.0</ele><time>2026-04-19T08:09:58.933Z</time></trkpt><trkpt lat="44.6127018" lon="10.6322022"><ele>120.0</ele><time>2026-04-19T08:09:59.94Z</time></trkpt><trkpt lat="44.6126239" lon="10.6323081"><ele>121.5</ele><time>2026-04-19T08:10:00.908Z</time></trkpt><trkpt lat="44.6125419" lon="10.632414"><ele>123.0</ele><time>2026-04-19T08:10:01.929Z</time></trkpt><trkpt lat="44.6124541" lon="10.6325214"><ele>124.5</ele><time>2026-04-19T08:10:02.912Z</time></trkpt><trkpt lat="44.6123622" lon="10.6326287"><ele>126.0</ele><time>2026-04-19T08:10:03.909Z</time></trkpt><trkpt lat="44.612262" lon="10.632731"><ele>128.0</ele><time>2026-04-19T08:10:04.923Z</time></trkpt><trkpt lat="44.6121567" lon="10.6328328"><ele>130.0</ele><time>2026-04-19T08:10:05.947Z</time></trkpt><trkpt lat="44.6120483" lon="10.6329302"><ele>132.0</ele><time>2026-04-19T08:10:06.926Z</time></trkpt><trkpt lat="44.6119361" lon="10.6330245"><ele>134.0</ele><time>2026-04-19T08:10:07.959Z</time></trkpt><trkpt lat="44.611825" lon="10.6331164"><ele>134.25</ele><time>2026-04-19T08:10:08.941Z</time></trkpt><trkpt lat="44.6117133" lon="10.6332053"><ele>134.5</ele><time>2026-04-19T08:10:09.953Z</time></trkpt><trkpt lat="44.6116075" lon="10.6332911"><ele>134.75</ele><time>2026-04-19T08:10:10.912Z</time></trkpt><trkpt lat="44.6115015" lon="10.633374"><ele>135.0</ele><time>2026-04-19T08:10:11.936Z</time></trkpt><trkpt lat="44.6114005" lon="10.6334511"><ele>135.0</ele><time>2026-04-19T08:10:12.912Z</time></trkpt><trkpt lat="44.6112987" lon="10.6335261"><ele>135.0</ele><time>2026-04-19T08:10:13.913Z</time></trkpt><trkpt lat="44.6112013" lon="10.6336025"><ele>135.0</ele><time>2026-04-19T08:10:14.928Z</time></trkpt><trkpt lat="44.6111039" lon="10.6336836"><ele>135.0</ele><time>2026-04-19T08:10:15.91Z</time></trkpt><trkpt lat="44.6110067" lon="10.6337713"><ele>135.75</ele><time>2026-04-19T08:10:16.913Z</time></trkpt><trkpt lat="44.610913" lon="10.6338617"><ele>136.5</ele><time>2026-04-19T08:10:17.914Z</time></trkpt><trkpt lat="44.6108242" lon="10.6339651"><ele>137.25</ele><time>2026-04-19T08:10:18.919Z</time></trkpt><trkpt lat="44.6107466" lon="10.6340816"><ele>138.0</ele><time>2026-04-19T08:10:19.934Z</time></trkpt><trkpt lat="44.6106757" lon="10.6342107"><ele>138.0</ele><time>2026-04-19T08:10:20.915Z</time></trkpt><trkpt lat="44.6106073" lon="10.6343525"><ele>138.0</ele><time>2026-04-19T08:10:21.909Z</time></trkpt><trkpt lat="44.6105452" lon="10.6345075"><ele>138.0</ele><time>2026-04-19T08:10:22.915Z</time></trkpt><trkpt lat="44.6104913" lon="10.6346752"><ele>138.0</ele><time>2026-04-19T08:10:23.954Z</time></trkpt><trkpt lat="44.6104483" lon="10.6348469"><ele>138.5</ele><time>2026-04-19T08:10:24.933Z</time></trkpt><trkpt lat="44.6104167" lon="10.6350286"><ele>139.0</ele><time>2026-04-19T08:10:25.923Z</time></trkpt><trkpt lat="44.6103926" lon="10.6352204"><ele>139.5</ele><time>2026-04-19T08:10:26.918Z</time></trkpt><trkpt lat="44.6103823" lon="10.6354242"><ele>140.0</ele><time>2026-04-19T08:10:27.945Z</time></trkpt><trkpt lat="44.6103684" lon="10.6356262"><ele>140.0</ele><time>2026-04-19T08:10:28.959Z</time></trkpt><trkpt lat="44.6103493" lon="10.6358195"><ele>140.0</ele><time>2026-04-19T08:10:29.91Z</time></trkpt><trkpt lat="44.6103349" lon="10.636016"><ele>140.0</ele><time>2026-04-19T08:10:30.933Z</time></trkpt><trkpt lat="44.6103205" lon="10.6362079"><ele>140.0</ele><time>2026-04-19T08:10:31.912Z</time></trkpt><trkpt lat="44.6103024" lon="10.6363987"><ele>141.0</ele><time>2026-04-19T08:10:32.916Z</time></trkpt><trkpt lat="44.6102798" lon="10.6365872"><ele>142.0</ele><time>2026-04-19T08:10:33.932Z</time></trkpt><trkpt lat="44.6102465" lon="10.6367685"><ele>143.0</ele><time>2026-04-19T08:10:34.913Z</time></trkpt><trkpt lat="44.6102064" lon="10.6369474"><ele>144.0</ele><time>2026-04-19T08:10:35.913Z</time></trkpt><trkpt lat="44.6101581" lon="10.6371177"><ele>144.25</ele><time>2026-04-19T08:10:36.909Z</time></trkpt><trkpt lat="44.6101024" lon="10.6372844"><ele>144.5</ele><time>2026-04-19T08:10:37.919Z</time></trkpt><trkpt lat="44.6100386" lon="10.6374494"><ele>144.75</ele><time>2026-04-19T08:10:38.966Z</time></trkpt><trkpt lat="44.6099756" lon="10.6376122"><ele>145.0</ele><time>2026-04-19T08:10:39.943Z</time></trkpt><trkpt lat="44.6099125" lon="10.6377683"><ele>144.5</ele><time>2026-04-19T08:10:40.913Z</time></trkpt><trkpt lat="44.6098487" lon="10.637917"><ele>144.0</ele><time>2026-04-19T08:10:41.919Z</time></trkpt><trkpt lat="44.6097854" lon="10.6380665"><ele>143.5</ele><time>2026-04-19T08:10:42.909Z</time></trkpt><trkpt lat="44.6097231" lon="10.6382173"><ele>143.0</ele><time>2026-04-19T08:10:43.928Z</time></trkpt><trkpt lat="44.6096631" lon="10.6383557"><ele>143.0</ele><time>2026-04-19T08:10:44.912Z</time></trkpt><trkpt lat="44.6096024" lon="10.6384757"><ele>143.0</ele><time>2026-04-19T08:10:45.913Z</time></trkpt><trkpt lat="44.6095422" lon="10.6385881"><ele>143.0</ele><time>2026-04-19T08:10:46.913Z</time></trkpt><trkpt lat="44.6094851" lon="10.638696"><ele>143.0</ele><time>2026-04-19T08:10:47.909Z</time></trkpt><trkpt lat="44.6094319" lon="10.6387897"><ele>143.0</ele><time>2026-04-19T08:10:48.906Z</time></trkpt><trkpt lat="44.6093758" lon="10.6388611"><ele>142.6</ele><time>2026-04-19T08:10:49.912Z</time></trkpt><trkpt lat="44.6093152" lon="10.6389029"><ele>142.20000000000002</ele><time>2026-04-19T08:10:50.911Z</time></trkpt><trkpt lat="44.6091935" lon="10.6388964"><ele>141.8</ele><time>2026-04-19T08:10:52.911Z</time></trkpt><trkpt lat="44.6091229" lon="10.6388533"><ele>141.4</ele><time>2026-04-19T08:10:53.911Z</time></trkpt><trkpt lat="44.6090427" lon="10.6387933"><ele>141.0</ele><time>2026-04-19T08:10:54.91Z</time></trkpt><trkpt lat="44.6089542" lon="10.6387231"><ele>141.0</ele><time>2026-04-19T08:10:55.913Z</time></trkpt><trkpt lat="44.6088637" lon="10.6386563"><ele>141.0</ele><time>2026-04-19T08:10:56.91Z</time></trkpt><trkpt lat="44.6087702" lon="10.6385872"><ele>141.0</ele><time>2026-04-19T08:10:57.907Z</time></trkpt><trkpt lat="44.608673" lon="10.6385166"><ele>141.0</ele><time>2026-04-19T08:10:58.929Z</time></trkpt><trkpt lat="44.6085707" lon="10.6384484"><ele>141.0</ele><time>2026-04-19T08:10:59.909Z</time></trkpt><trkpt lat="44.6084637" lon="10.6383908"><ele>142.0</ele><time>2026-04-19T08:11:00.908Z</time></trkpt><trkpt lat="44.6083505" lon="10.6383466"><ele>143.0</ele><time>2026-04-19T08:11:01.921Z</time></trkpt><trkpt lat="44.6082334" lon="10.6383202"><ele>144.0</ele><time>2026-04-19T08:11:02.931Z</time></trkpt><trkpt lat="44.6081108" lon="10.6383116"><ele>145.0</ele><time>2026-04-19T08:11:03.913Z</time></trkpt><trkpt lat="44.6079849" lon="10.6383239"><ele>145.0</ele><time>2026-04-19T08:11:04.936Z</time></trkpt><trkpt lat="44.607864" lon="10.6383555"><ele>145.0</ele><time>2026-04-19T08:11:05.953Z</time></trkpt><trkpt lat="44.6077497" lon="10.6383961"><ele>145.0</ele><time>2026-04-19T08:11:06.941Z</time></trkpt><trkpt lat="44.6076374" lon="10.63844"><ele>145.0</ele><time>2026-04-19T08:11:07.908Z</time></trkpt><trkpt lat="44.6075214" lon="10.6384821"><ele>145.5</ele><time>2026-04-19T08:11:08.933Z</time></trkpt><trkpt lat="44.607409" lon="10.6385299"><ele>146.0</ele><time>2026-04-19T08:11:09.961Z</time></trkpt><trkpt lat="44.6072987" lon="10.6385762"><ele>146.5</ele><time>2026-04-19T08:11:10.912Z</time></trkpt><trkpt lat="44.6071879" lon="10.6386231"><ele>147.0</ele><time>2026-04-19T08:11:11.928Z</time></trkpt><trkpt lat="44.6070783" lon="10.6386639"><ele>147.5</ele><time>2026-04-19T08:11:12.91Z</time></trkpt><trkpt lat="44.6069662" lon="10.6386959"><ele>148.0</ele><time>2026-04-19T08:11:13.937Z</time></trkpt><trkpt lat="44.6068534" lon="10.6387149"><ele>148.5</ele><time>2026-04-19T08:11:14.944Z</time></trkpt><trkpt lat="44.6067373" lon="10.638719"><ele>149.0</ele><time>2026-04-19T08:11:15.951Z</time></trkpt><trkpt lat="44.6066254" lon="10.638717"><ele>149.0</ele><time>2026-04-19T08:11:16.911Z</time></trkpt><trkpt lat="44.6065161" lon="10.6387092"><ele>149.0</ele><time>2026-04-19T08:11:17.957Z</time></trkpt><trkpt lat="44.6064058" lon="10.6386975"><ele>149.0</ele><time>2026-04-19T08:11:18.929Z</time></trkpt><trkpt lat="44.6062936" lon="10.6386768"><ele>149.0</ele><time>2026-04-19T08:11:19.911Z</time></trkpt><trkpt lat="44.6061818" lon="10.6386442"><ele>149.0</ele><time>2026-04-19T08:11:20.9Z</time></trkpt><trkpt lat="44.6060762" lon="10.6385858"><ele>149.4</ele><time>2026-04-19T08:11:21.963Z</time></trkpt><trkpt lat="44.6059807" lon="10.6385153"><ele>149.8</ele><time>2026-04-19T08:11:22.932Z</time></trkpt><trkpt lat="44.605891" lon="10.6384409"><ele>150.2</ele><time>2026-04-19T08:11:23.911Z</time></trkpt><trkpt lat="44.6058016" lon="10.638365"><ele>150.6</ele><time>2026-04-19T08:11:24.905Z</time></trkpt><trkpt lat="44.6057094" lon="10.6382863"><ele>151.0</ele><time>2026-04-19T08:11:25.953Z</time></trkpt><trkpt lat="44.6056186" lon="10.6382102"><ele>151.0</ele><time>2026-04-19T08:11:26.912Z</time></trkpt><trkpt lat="44.6055268" lon="10.6381371"><ele>151.0</ele><time>2026-04-19T08:11:27.902Z</time></trkpt><trkpt lat="44.605436" lon="10.6380667"><ele>151.0</ele><time>2026-04-19T08:11:28.917Z</time></trkpt><trkpt lat="44.6053463" lon="10.6379978"><ele>151.0</ele><time>2026-04-19T08:11:29.933Z</time></trkpt><trkpt lat="44.6052579" lon="10.6379286"><ele>151.0</ele><time>2026-04-19T08:11:30.911Z</time></trkpt><trkpt lat="44.6051712" lon="10.6378561"><ele>152.2</ele><time>2026-04-19T08:11:31.911Z</time></trkpt><trkpt lat="44.6050777" lon="10.6377864"><ele>153.39999999999998</ele><time>2026-04-19T08:11:32.907Z</time></trkpt><trkpt lat="44.60498" lon="10.6377133"><ele>154.6</ele><time>2026-04-19T08:11:33.937Z</time></trkpt><trkpt lat="44.6048789" lon="10.6376448"><ele>155.79999999999998</ele><time>2026-04-19T08:11:34.925Z</time></trkpt><trkpt lat="44.6047784" lon="10.6375724"><ele>157.0</ele><time>2026-04-19T08:11:35.909Z</time></trkpt><trkpt lat="44.6046749" lon="10.6375002"><ele>157.0</ele><time>2026-04-19T08:11:36.906Z</time></trkpt><trkpt lat="44.6045695" lon="10.637436"><ele>157.0</ele><time>2026-04-19T08:11:37.934Z</time></trkpt><trkpt lat="44.6044635" lon="10.6373748"><ele>157.0</ele><time>2026-04-19T08:11:38.918Z</time></trkpt><trkpt lat="44.6043561" lon="10.6373117"><ele>157.0</ele><time>2026-04-19T08:11:39.953Z</time></trkpt><trkpt lat="44.6042537" lon="10.6372489"><ele>157.4</ele><time>2026-04-19T08:11:40.912Z</time></trkpt><trkpt lat="44.6041557" lon="10.6371801"><ele>157.79999999999998</ele><time>2026-04-19T08:11:41.952Z</time></trkpt><trkpt lat="44.6040695" lon="10.6371106"><ele>158.2</ele><time>2026-04-19T08:11:42.933Z</time></trkpt><trkpt lat="44.6039866" lon="10.6370386"><ele>158.6</ele><time>2026-04-19T08:11:43.908Z</time></trkpt><trkpt lat="44.6039031" lon="10.6369681"><ele>159.0</ele><time>2026-04-19T08:11:44.911Z</time></trkpt><trkpt lat="44.6038287" lon="10.636898"><ele>159.2</ele><time>2026-04-19T08:11:45.948Z</time></trkpt><trkpt lat="44.6037643" lon="10.6368167"><ele>159.4</ele><time>2026-04-19T08:11:46.935Z</time></trkpt><trkpt lat="44.6037002" lon="10.6367242"><ele>159.6</ele><time>2026-04-19T08:11:47.925Z</time></trkpt><trkpt lat="44.6036232" lon="10.6366513"><ele>159.8</ele><time>2026-04-19T08:11:48.907Z</time></trkpt><trkpt lat="44.6035285" lon="10.6366003"><ele>160.0</ele><time>2026-04-19T08:11:49.968Z</time></trkpt><trkpt lat="44.6034329" lon="10.6365395"><ele>160.5</ele><time>2026-04-19T08:11:50.909Z</time></trkpt><trkpt lat="44.6033321" lon="10.6364586"><ele>161.0</ele><time>2026-04-19T08:11:51.921Z</time></trkpt><trkpt lat="44.6032269" lon="10.6363715"><ele>161.5</ele><time>2026-04-19T08:11:52.95Z</time></trkpt><trkpt lat="44.6031225" lon="10.6362868"><ele>162.0</ele><time>2026-04-19T08:11:53.928Z</time></trkpt><trkpt lat="44.6030185" lon="10.6362005"><ele>162.75</ele><time>2026-04-19T08:11:54.911Z</time></trkpt><trkpt lat="44.6029196" lon="10.6361178"><ele>163.5</ele><time>2026-04-19T08:11:55.909Z</time></trkpt><trkpt lat="44.6028233" lon="10.6360362"><ele>164.25</ele><time>2026-04-19T08:11:56.906Z</time></trkpt><trkpt lat="44.6027259" lon="10.6359515"><ele>165.0</ele><time>2026-04-19T08:11:57.946Z</time></trkpt><trkpt lat="44.6026257" lon="10.6358616"><ele>165.0</ele><time>2026-04-19T08:11:58.929Z</time></trkpt><trkpt lat="44.6025222" lon="10.6357682"><ele>165.0</ele><time>2026-04-19T08:11:59.915Z</time></trkpt><trkpt lat="44.6024152" lon="10.6356666"><ele>165.0</ele><time>2026-04-19T08:12:00.908Z</time></trkpt><trkpt lat="44.6023066" lon="10.6355682"><ele>165.0</ele><time>2026-04-19T08:12:01.911Z</time></trkpt><trkpt lat="44.6022041" lon="10.6354776"><ele>165.0</ele><time>2026-04-19T08:12:02.911Z</time></trkpt><trkpt lat="44.602106" lon="10.6353965"><ele>165.0</ele><time>2026-04-19T08:12:03.906Z</time></trkpt><trkpt lat="44.6020005" lon="10.6353374"><ele>165.0</ele><time>2026-04-19T08:12:04.913Z</time></trkpt><trkpt lat="44.6018877" lon="10.6353048"><ele>165.0</ele><time>2026-04-19T08:12:05.909Z</time></trkpt><trkpt lat="44.6017727" lon="10.6352966"><ele>165.75</ele><time>2026-04-19T08:12:06.916Z</time></trkpt><trkpt lat="44.6016542" lon="10.6353027"><ele>166.5</ele><time>2026-04-19T08:12:07.948Z</time></trkpt><trkpt lat="44.6015371" lon="10.6353144"><ele>167.25</ele><time>2026-04-19T08:12:08.912Z</time></trkpt><trkpt lat="44.6014182" lon="10.6353233"><ele>168.0</ele><time>2026-04-19T08:12:09.916Z</time></trkpt><trkpt lat="44.601303" lon="10.6353335"><ele>168.0</ele><time>2026-04-19T08:12:10.911Z</time></trkpt><trkpt lat="44.6011893" lon="10.6353436"><ele>168.0</ele><time>2026-04-19T08:12:11.939Z</time></trkpt><trkpt lat="44.6010831" lon="10.6353517"><ele>168.0</ele><time>2026-04-19T08:12:12.908Z</time></trkpt><trkpt lat="44.6009855" lon="10.6353631"><ele>168.0</ele><time>2026-04-19T08:12:13.907Z</time></trkpt><trkpt lat="44.6008976" lon="10.6353703"><ele>168.0</ele><time>2026-04-19T08:12:14.907Z</time></trkpt><trkpt lat="44.6008188" lon="10.6353749"><ele>168.28571428571428</ele><time>2026-04-19T08:12:15.909Z</time></trkpt><trkpt lat="44.6007443" lon="10.6353815"><ele>168.57142857142856</ele><time>2026-04-19T08:12:16.911Z</time></trkpt><trkpt lat="44.60067" lon="10.6353901"><ele>168.85714285714286</ele><time>2026-04-19T08:12:17.909Z</time></trkpt><trkpt lat="44.6006038" lon="10.6353911"><ele>169.14285714285714</ele><time>2026-04-19T08:12:18.91Z</time></trkpt><trkpt lat="44.6005386" lon="10.6353937"><ele>169.42857142857142</ele><time>2026-04-19T08:12:19.918Z</time></trkpt><trkpt lat="44.6004736" lon="10.635404"><ele>169.71428571428572</ele><time>2026-04-19T08:12:20.91Z</time></trkpt><trkpt lat="44.6004101" lon="10.6354253"><ele>170.0</ele><time>2026-04-19T08:12:21.92Z</time></trkpt><trkpt lat="44.600353" lon="10.6354672"><ele>170.5</ele><time>2026-04-19T08:12:22.911Z</time></trkpt><trkpt lat="44.6002948" lon="10.6355295"><ele>171.0</ele><time>2026-04-19T08:12:23.935Z</time></trkpt><trkpt lat="44.6002356" lon="10.6356056"><ele>171.5</ele><time>2026-04-19T08:12:24.92Z</time></trkpt><trkpt lat="44.6001721" lon="10.6356879"><ele>172.0</ele><time>2026-04-19T08:12:25.908Z</time></trkpt><trkpt lat="44.6000995" lon="10.6357731"><ele>172.5</ele><time>2026-04-19T08:12:26.906Z</time></trkpt><trkpt lat="44.6000245" lon="10.635865"><ele>173.0</ele><time>2026-04-19T08:12:27.945Z</time></trkpt><trkpt lat="44.5999464" lon="10.6359507"><ele>173.0</ele><time>2026-04-19T08:12:28.913Z</time></trkpt><trkpt lat="44.5998624" lon="10.6360389"><ele>173.0</ele><time>2026-04-19T08:12:29.909Z</time></trkpt><trkpt lat="44.5997753" lon="10.6361237"><ele>173.0</ele><time>2026-04-19T08:12:30.907Z</time></trkpt><trkpt lat="44.5996883" lon="10.6362009"><ele>173.0</ele><time>2026-04-19T08:12:31.911Z</time></trkpt><trkpt lat="44.5996005" lon="10.6362643"><ele>173.0</ele><time>2026-04-19T08:12:32.906Z</time></trkpt><trkpt lat="44.599505" lon="10.6363186"><ele>173.25</ele><time>2026-04-19T08:12:33.948Z</time></trkpt><trkpt lat="44.5994125" lon="10.6363758"><ele>173.5</ele><time>2026-04-19T08:12:34.923Z</time></trkpt><trkpt lat="44.5993288" lon="10.6364378"><ele>173.75</ele><time>2026-04-19T08:12:35.913Z</time></trkpt><trkpt lat="44.5992566" lon="10.6365293"><ele>174.0</ele><time>2026-04-19T08:12:37.084Z</time></trkpt><trkpt lat="44.5991741" lon="10.6368247"><ele>172.5</ele><time>2026-04-19T08:12:38.912Z</time></trkpt><trkpt lat="44.5991451" lon="10.6370024"><ele>171.0</ele><time>2026-04-19T08:12:39.924Z</time></trkpt><trkpt lat="44.5991131" lon="10.6371847"><ele>169.5</ele><time>2026-04-19T08:12:40.913Z</time></trkpt><trkpt lat="44.5990742" lon="10.6373618"><ele>168.0</ele><time>2026-04-19T08:12:41.914Z</time></trkpt><trkpt lat="44.59904" lon="10.6375313"><ele>168.0</ele><time>2026-04-19T08:12:42.908Z</time></trkpt><trkpt lat="44.5990038" lon="10.6376923"><ele>168.0</ele><time>2026-04-19T08:12:43.909Z</time></trkpt><trkpt lat="44.5989718" lon="10.6378466"><ele>168.0</ele><time>2026-04-19T08:12:44.91Z</time></trkpt><trkpt lat="44.5989351" lon="10.6380062"><ele>168.0</ele><time>2026-04-19T08:12:45.968Z</time></trkpt><trkpt lat="44.5988977" lon="10.638162"><ele>166.75</ele><time>2026-04-19T08:12:46.91Z</time></trkpt><trkpt lat="44.5988576" lon="10.638319"><ele>165.5</ele><time>2026-04-19T08:12:47.91Z</time></trkpt><trkpt lat="44.5988219" lon="10.6384783"><ele>164.25</ele><time>2026-04-19T08:12:48.908Z</time></trkpt><trkpt lat="44.5987871" lon="10.6386354"><ele>163.0</ele><time>2026-04-19T08:12:49.908Z</time></trkpt><trkpt lat="44.5987461" lon="10.6387964"><ele>162.8</ele><time>2026-04-19T08:12:50.908Z</time></trkpt><trkpt lat="44.598702" lon="10.6389501"><ele>162.60000000000002</ele><time>2026-04-19T08:12:51.964Z</time></trkpt><trkpt lat="44.5986675" lon="10.6391003"><ele>162.39999999999998</ele><time>2026-04-19T08:12:52.913Z</time></trkpt><trkpt lat="44.5986476" lon="10.6392474"><ele>162.2</ele><time>2026-04-19T08:12:53.921Z</time></trkpt><trkpt lat="44.5986534" lon="10.6393853"><ele>162.0</ele><time>2026-04-19T08:12:54.915Z</time></trkpt><trkpt lat="44.598699" lon="10.6395206"><ele>161.66666666666666</ele><time>2026-04-19T08:12:55.984Z</time></trkpt><trkpt lat="44.5987687" lon="10.6396491"><ele>161.33333333333334</ele><time>2026-04-19T08:12:56.906Z</time></trkpt><trkpt lat="44.5988402" lon="10.6397731"><ele>161.0</ele><time>2026-04-19T08:12:57.909Z</time></trkpt><trkpt lat="44.5988948" lon="10.6398644"><ele>160.66666666666669</ele><time>2026-04-19T08:12:58.935Z</time></trkpt><trkpt lat="44.5989334" lon="10.6399351"><ele>160.33333333333334</ele><time>2026-04-19T08:12:59.91Z</time></trkpt><trkpt lat="44.5989657" lon="10.640015"><ele>160.0</ele><time>2026-04-19T08:13:02.91Z</time></trkpt><trkpt lat="44.5990276" lon="10.6401396"><ele>160.0</ele><time>2026-04-19T08:13:12.924Z</time></trkpt><trkpt lat="44.59912" lon="10.640282"><ele>160.0</ele><time>2026-04-19T08:13:14.934Z</time></trkpt><trkpt lat="44.5991707" lon="10.6403708"><ele>160.0</ele><time>2026-04-19T08:13:15.91Z</time></trkpt><trkpt lat="44.5992316" lon="10.6404676"><ele>160.0</ele><time>2026-04-19T08:13:16.908Z</time></trkpt><trkpt lat="44.5992961" lon="10.6405796"><ele>160.0</ele><time>2026-04-19T08:13:17.953Z</time></trkpt><trkpt lat="44.5993622" lon="10.6407064"><ele>160.25</ele><time>2026-04-19T08:13:18.906Z</time></trkpt><trkpt lat="44.5994318" lon="10.640841"><ele>160.5</ele><time>2026-04-19T08:13:19.911Z</time></trkpt><trkpt lat="44.5994919" lon="10.6409838"><ele>160.75</ele><time>2026-04-19T08:13:20.908Z</time></trkpt><trkpt lat="44.5995456" lon="10.6411312"><ele>161.0</ele><time>2026-04-19T08:13:22.086Z</time></trkpt><trkpt lat="44.5996433" lon="10.6414217"><ele>160.0</ele><time>2026-04-19T08:13:23.921Z</time></trkpt><trkpt lat="44.5996917" lon="10.6415636"><ele>159.0</ele><time>2026-04-19T08:13:24.908Z</time></trkpt><trkpt lat="44.5997416" lon="10.6417028"><ele>158.0</ele><time>2026-04-19T08:13:25.91Z</time></trkpt><trkpt lat="44.5997963" lon="10.6418466"><ele>157.0</ele><time>2026-04-19T08:13:26.922Z</time></trkpt><trkpt lat="44.599853" lon="10.6419902"><ele>156.5</ele><time>2026-04-19T08:13:27.948Z</time></trkpt><trkpt lat="44.5999135" lon="10.6421361"><ele>156.0</ele><time>2026-04-19T08:13:28.908Z</time></trkpt><trkpt lat="44.5999725" lon="10.6422917"><ele>155.5</ele><time>2026-04-19T08:13:29.951Z</time></trkpt><trkpt lat="44.6000304" lon="10.6424425"><ele>155.0</ele><time>2026-04-19T08:13:30.909Z</time></trkpt><trkpt lat="44.6000889" lon="10.642592"><ele>155.0</ele><time>2026-04-19T08:13:31.919Z</time></trkpt><trkpt lat="44.6001392" lon="10.6427463"><ele>155.0</ele><time>2026-04-19T08:13:32.911Z</time></trkpt><trkpt lat="44.6001891" lon="10.6429057"><ele>155.0</ele><time>2026-04-19T08:13:33.932Z</time></trkpt><trkpt lat="44.6002417" lon="10.6430647"><ele>155.0</ele><time>2026-04-19T08:13:34.91Z</time></trkpt><trkpt lat="44.6002928" lon="10.64323"><ele>154.75</ele><time>2026-04-19T08:13:35.936Z</time></trkpt><trkpt lat="44.6003405" lon="10.6433955"><ele>154.5</ele><time>2026-04-19T08:13:36.907Z</time></trkpt><trkpt lat="44.600392" lon="10.6435618"><ele>154.25</ele><time>2026-04-19T08:13:37.924Z</time></trkpt><trkpt lat="44.6004467" lon="10.6437332"><ele>154.0</ele><time>2026-04-19T08:13:38.944Z</time></trkpt><trkpt lat="44.6005032" lon="10.6438991"><ele>154.0</ele><time>2026-04-19T08:13:39.917Z</time></trkpt><trkpt lat="44.6005628" lon="10.6440718"><ele>154.0</ele><time>2026-04-19T08:13:40.912Z</time></trkpt><trkpt lat="44.6006206" lon="10.644243"><ele>154.0</ele><time>2026-04-19T08:13:41.909Z</time></trkpt><trkpt lat="44.6006753" lon="10.6444062"><ele>154.0</ele><time>2026-04-19T08:13:42.923Z</time></trkpt><trkpt lat="44.6007288" lon="10.644567"><ele>153.75</ele><time>2026-04-19T08:13:43.911Z</time></trkpt><trkpt lat="44.6007789" lon="10.6447267"><ele>153.5</ele><time>2026-04-19T08:13:44.908Z</time></trkpt><trkpt lat="44.6008287" lon="10.6448778"><ele>153.25</ele><time>2026-04-19T08:13:45.915Z</time></trkpt><trkpt lat="44.6008786" lon="10.645029"><ele>153.0</ele><time>2026-04-19T08:13:46.913Z</time></trkpt><trkpt lat="44.6009134" lon="10.6451775"><ele>152.6</ele><time>2026-04-19T08:13:47.915Z</time></trkpt><trkpt lat="44.6009381" lon="10.6453193"><ele>152.20000000000002</ele><time>2026-04-19T08:13:48.911Z</time></trkpt><trkpt lat="44.6009527" lon="10.6454648"><ele>151.8</ele><time>2026-04-19T08:13:49.902Z</time></trkpt><trkpt lat="44.6009612" lon="10.6456138"><ele>151.4</ele><time>2026-04-19T08:13:50.923Z</time></trkpt><trkpt lat="44.6009659" lon="10.6457683"><ele>151.0</ele><time>2026-04-19T08:13:51.921Z</time></trkpt><trkpt lat="44.6009737" lon="10.6459276"><ele>151.0</ele><time>2026-04-19T08:13:52.945Z</time></trkpt><trkpt lat="44.6009778" lon="10.6460904"><ele>151.0</ele><time>2026-04-19T08:13:53.907Z</time></trkpt><trkpt lat="44.6009789" lon="10.6462649"><ele>151.0</ele><time>2026-04-19T08:13:54.928Z</time></trkpt><trkpt lat="44.6009693" lon="10.6464384"><ele>151.0</ele><time>2026-04-19T08:13:55.928Z</time></trkpt><trkpt lat="44.6009479" lon="10.6466143"><ele>150.25</ele><time>2026-04-19T08:13:56.912Z</time></trkpt><trkpt lat="44.600916" lon="10.6467891"><ele>149.5</ele><time>2026-04-19T08:13:57.971Z</time></trkpt><trkpt lat="44.6008778" lon="10.6469526"><ele>148.75</ele><time>2026-04-19T08:13:58.912Z</time></trkpt><trkpt lat="44.6008372" lon="10.6471181"><ele>148.0</ele><time>2026-04-19T08:13:59.91Z</time></trkpt><trkpt lat="44.6007956" lon="10.6472878"><ele>148.0</ele><time>2026-04-19T08:14:00.91Z</time></trkpt><trkpt lat="44.600749" lon="10.6474646"><ele>148.0</ele><time>2026-04-19T08:14:01.909Z</time></trkpt><trkpt lat="44.6007038" lon="10.6476399"><ele>148.0</ele><time>2026-04-19T08:14:02.906Z</time></trkpt><trkpt lat="44.6006587" lon="10.6478166"><ele>148.0</ele><time>2026-04-19T08:14:03.908Z</time></trkpt><trkpt lat="44.6006185" lon="10.6479994"><ele>147.5</ele><time>2026-04-19T08:14:04.908Z</time></trkpt><trkpt lat="44.6005863" lon="10.6481874"><ele>147.0</ele><time>2026-04-19T08:14:05.93Z</time></trkpt><trkpt lat="44.600569" lon="10.6483714"><ele>146.5</ele><time>2026-04-19T08:14:06.916Z</time></trkpt><trkpt lat="44.6005596" lon="10.6485601"><ele>146.0</ele><time>2026-04-19T08:14:07.909Z</time></trkpt><trkpt lat="44.6005581" lon="10.6487524"><ele>146.0</ele><time>2026-04-19T08:14:08.907Z</time></trkpt><trkpt lat="44.6005615" lon="10.648947"><ele>146.0</ele><time>2026-04-19T08:14:09.912Z</time></trkpt><trkpt lat="44.6005684" lon="10.6491466"><ele>146.0</ele><time>2026-04-19T08:14:10.911Z</time></trkpt><trkpt lat="44.6005766" lon="10.649344"><ele>146.0</ele><time>2026-04-19T08:14:11.924Z</time></trkpt><trkpt lat="44.6005838" lon="10.6495372"><ele>146.25</ele><time>2026-04-19T08:14:12.908Z</time></trkpt><trkpt lat="44.6005898" lon="10.6497248"><ele>146.5</ele><time>2026-04-19T08:14:13.936Z</time></trkpt><trkpt lat="44.6005984" lon="10.6499066"><ele>146.75</ele><time>2026-04-19T08:14:14.909Z</time></trkpt><trkpt lat="44.6006086" lon="10.6500839"><ele>147.0</ele><time>2026-04-19T08:14:15.952Z</time></trkpt><trkpt lat="44.6006152" lon="10.650239"><ele>146.83333333333334</ele><time>2026-04-19T08:14:16.905Z</time></trkpt><trkpt lat="44.6006233" lon="10.6503854"><ele>146.66666666666666</ele><time>2026-04-19T08:14:17.991Z</time></trkpt><trkpt lat="44.6006269" lon="10.6505152"><ele>146.5</ele><time>2026-04-19T08:14:18.908Z</time></trkpt><trkpt lat="44.6006343" lon="10.6506418"><ele>146.33333333333331</ele><time>2026-04-19T08:14:19.965Z</time></trkpt><trkpt lat="44.6006386" lon="10.6507509"><ele>146.16666666666666</ele><time>2026-04-19T08:14:20.907Z</time></trkpt><trkpt lat="44.6006444" lon="10.6508553"><ele>146.0</ele><time>2026-04-19T08:14:21.904Z</time></trkpt><trkpt lat="44.6006528" lon="10.6509605"><ele>146.0</ele><time>2026-04-19T08:14:22.925Z</time></trkpt><trkpt lat="44.6006628" lon="10.6510646"><ele>146.0</ele><time>2026-04-19T08:14:23.919Z</time></trkpt><trkpt lat="44.6006743" lon="10.6511687"><ele>146.0</ele><time>2026-04-19T08:14:24.906Z</time></trkpt><trkpt lat="44.6006904" lon="10.6512731"><ele>146.0</ele><time>2026-04-19T08:14:25.961Z</time></trkpt><trkpt lat="44.6007113" lon="10.6513824"><ele>146.0</ele><time>2026-04-19T08:14:26.988Z</time></trkpt><trkpt lat="44.6007391" lon="10.6514964"><ele>146.0</ele><time>2026-04-19T08:14:27.96Z</time></trkpt><trkpt lat="44.6007789" lon="10.6516155"><ele>145.4</ele><time>2026-04-19T08:14:28.908Z</time></trkpt><trkpt lat="44.6008259" lon="10.6517434"><ele>144.8</ele><time>2026-04-19T08:14:29.936Z</time></trkpt><trkpt lat="44.6008778" lon="10.6518755"><ele>144.20000000000002</ele><time>2026-04-19T08:14:30.912Z</time></trkpt><trkpt lat="44.6009299" lon="10.6520216"><ele>143.6</ele><time>2026-04-19T08:14:31.905Z</time></trkpt><trkpt lat="44.6009806" lon="10.652177"><ele>143.0</ele><time>2026-04-19T08:14:32.907Z</time></trkpt><trkpt lat="44.6010243" lon="10.6523387"><ele>142.75</ele><time>2026-04-19T08:14:33.907Z</time></trkpt><trkpt lat="44.6010488" lon="10.6525067"><ele>142.5</ele><time>2026-04-19T08:14:34.939Z</time></trkpt><trkpt lat="44.6010658" lon="10.6526763"><ele>142.25</ele><time>2026-04-19T08:14:35.928Z</time></trkpt><trkpt lat="44.6010786" lon="10.652846"><ele>142.0</ele><time>2026-04-19T08:14:36.915Z</time></trkpt><trkpt lat="44.6010899" lon="10.6530138"><ele>142.0</ele><time>2026-04-19T08:14:37.941Z</time></trkpt><trkpt lat="44.6010989" lon="10.6531783"><ele>142.0</ele><time>2026-04-19T08:14:38.931Z</time></trkpt><trkpt lat="44.6011099" lon="10.6533444"><ele>142.0</ele><time>2026-04-19T08:14:39.906Z</time></trkpt><trkpt lat="44.6011206" lon="10.6535115"><ele>142.0</ele><time>2026-04-19T08:14:40.911Z</time></trkpt><trkpt lat="44.6011277" lon="10.6536789"><ele>141.75</ele><time>2026-04-19T08:14:41.959Z</time></trkpt><trkpt lat="44.6011403" lon="10.6538479"><ele>141.5</ele><time>2026-04-19T08:14:42.909Z</time></trkpt><trkpt lat="44.6011543" lon="10.6540221"><ele>141.25</ele><time>2026-04-19T08:14:43.931Z</time></trkpt><trkpt lat="44.6011671" lon="10.6542003"><ele>141.0</ele><time>2026-04-19T08:14:44.908Z</time></trkpt><trkpt lat="44.6011794" lon="10.6543868"><ele>140.25</ele><time>2026-04-19T08:14:45.938Z</time></trkpt><trkpt lat="44.601189" lon="10.6545696"><ele>139.5</ele><time>2026-04-19T08:14:46.928Z</time></trkpt><trkpt lat="44.6011973" lon="10.6547526"><ele>138.75</ele><time>2026-04-19T08:14:47.907Z</time></trkpt><trkpt lat="44.6012105" lon="10.6549309"><ele>138.0</ele><time>2026-04-19T08:14:48.931Z</time></trkpt><trkpt lat="44.6012199" lon="10.6550936"><ele>138.0</ele><time>2026-04-19T08:14:49.925Z</time></trkpt><trkpt lat="44.6012299" lon="10.6552324"><ele>138.0</ele><time>2026-04-19T08:14:50.913Z</time></trkpt><trkpt lat="44.6012385" lon="10.6553449"><ele>138.0</ele><time>2026-04-19T08:14:51.913Z</time></trkpt><trkpt lat="44.6012377" lon="10.6554338"><ele>138.0</ele><time>2026-04-19T08:14:52.915Z</time></trkpt><trkpt lat="44.6012037" lon="10.6555474"><ele>138.0</ele><time>2026-04-19T08:14:54.948Z</time></trkpt><trkpt lat="44.6011949" lon="10.6556439"><ele>138.0</ele><time>2026-04-19T08:14:57.909Z</time></trkpt><trkpt lat="44.6012473" lon="10.6555283"><ele>138.0</ele><time>2026-04-19T08:15:00.91Z</time></trkpt><trkpt lat="44.6012505" lon="10.6554353"><ele>138.0</ele><time>2026-04-19T08:15:01.921Z</time></trkpt><trkpt lat="44.6012478" lon="10.6553195"><ele>138.0</ele><time>2026-04-19T08:15:02.936Z</time></trkpt><trkpt lat="44.6012388" lon="10.6551767"><ele>138.0</ele><time>2026-04-19T08:15:03.907Z</time></trkpt><trkpt lat="44.6012211" lon="10.6550195"><ele>138.0</ele><time>2026-04-19T08:15:04.911Z</time></trkpt><trkpt lat="44.6012104" lon="10.6548741"><ele>138.0</ele><time>2026-04-19T08:15:05.909Z</time></trkpt><trkpt lat="44.6012018" lon="10.6547372"><ele>138.0</ele><time>2026-04-19T08:15:06.911Z</time></trkpt><trkpt lat="44.601195" lon="10.6545967"><ele>138.0</ele><time>2026-04-19T08:15:07.933Z</time></trkpt><trkpt lat="44.601184" lon="10.6544495"><ele>138.0</ele><time>2026-04-19T08:15:08.917Z</time></trkpt><trkpt lat="44.6011761" lon="10.6542978"><ele>138.0</ele><time>2026-04-19T08:15:09.908Z</time></trkpt><trkpt lat="44.6011664" lon="10.6541421"><ele>138.75</ele><time>2026-04-19T08:15:10.913Z</time></trkpt><trkpt lat="44.6011577" lon="10.6539827"><ele>139.5</ele><time>2026-04-19T08:15:11.967Z</time></trkpt><trkpt lat="44.6011524" lon="10.653817"><ele>140.25</ele><time>2026-04-19T08:15:12.921Z</time></trkpt><trkpt lat="44.6011445" lon="10.6536427"><ele>141.0</ele><time>2026-04-19T08:15:13.908Z</time></trkpt><trkpt lat="44.6011351" lon="10.6534574"><ele>141.25</ele><time>2026-04-19T08:15:14.933Z</time></trkpt><trkpt lat="44.6011217" lon="10.6532707"><ele>141.5</ele><time>2026-04-19T08:15:15.918Z</time></trkpt><trkpt lat="44.6011114" lon="10.6530875"><ele>141.75</ele><time>2026-04-19T08:15:16.928Z</time></trkpt><trkpt lat="44.601098" lon="10.6529124"><ele>142.0</ele><time>2026-04-19T08:15:17.907Z</time></trkpt><trkpt lat="44.6010853" lon="10.6527403"><ele>142.0</ele><time>2026-04-19T08:15:18.947Z</time></trkpt><trkpt lat="44.6010702" lon="10.6525776"><ele>142.0</ele><time>2026-04-19T08:15:19.908Z</time></trkpt><trkpt lat="44.6010514" lon="10.652409"><ele>142.0</ele><time>2026-04-19T08:15:20.906Z</time></trkpt><trkpt lat="44.6010205" lon="10.6522427"><ele>142.0</ele><time>2026-04-19T08:15:21.922Z</time></trkpt><trkpt lat="44.6009746" lon="10.6520863"><ele>142.2</ele><time>2026-04-19T08:15:22.913Z</time></trkpt><trkpt lat="44.6009231" lon="10.6519365"><ele>142.39999999999998</ele><time>2026-04-19T08:15:23.951Z</time></trkpt><trkpt lat="44.6008718" lon="10.6518037"><ele>142.60000000000002</ele><time>2026-04-19T08:15:24.934Z</time></trkpt><trkpt lat="44.6008302" lon="10.6516839"><ele>142.8</ele><time>2026-04-19T08:15:25.913Z</time></trkpt><trkpt lat="44.6007987" lon="10.6515753"><ele>143.0</ele><time>2026-04-19T08:15:26.912Z</time></trkpt><trkpt lat="44.600771" lon="10.6514772"><ele>143.0</ele><time>2026-04-19T08:15:27.909Z</time></trkpt><trkpt lat="44.6007459" lon="10.6513762"><ele>143.0</ele><time>2026-04-19T08:15:28.955Z</time></trkpt><trkpt lat="44.6007227" lon="10.6512748"><ele>143.0</ele><time>2026-04-19T08:15:29.932Z</time></trkpt><trkpt lat="44.6007042" lon="10.6511793"><ele>143.0</ele><time>2026-04-19T08:15:30.92Z</time></trkpt><trkpt lat="44.6006859" lon="10.651017"><ele>143.0</ele><time>2026-04-19T08:15:32.957Z</time></trkpt><trkpt lat="44.6006717" lon="10.6509072"><ele>143.0</ele><time>2026-04-19T08:15:34.941Z</time></trkpt><trkpt lat="44.6005889" lon="10.6508388"><ele>143.33333333333331</ele><time>2026-04-19T08:15:36.912Z</time></trkpt><trkpt lat="44.6005176" lon="10.6508291"><ele>143.66666666666666</ele><time>2026-04-19T08:15:37.907Z</time></trkpt><trkpt lat="44.6004311" lon="10.650821"><ele>144.0</ele><time>2026-04-19T08:15:38.969Z</time></trkpt><trkpt lat="44.6003367" lon="10.6508003"><ele>144.33333333333334</ele><time>2026-04-19T08:15:39.909Z</time></trkpt><trkpt lat="44.6002484" lon="10.6507794"><ele>144.66666666666669</ele><time>2026-04-19T08:15:40.915Z</time></trkpt><trkpt lat="44.6001636" lon="10.6507601"><ele>145.0</ele><time>2026-04-19T08:15:41.91Z</time></trkpt><trkpt lat="44.6000833" lon="10.6507386"><ele>145.0</ele><time>2026-04-19T08:15:42.921Z</time></trkpt><trkpt lat="44.5999972" lon="10.6507225"><ele>145.0</ele><time>2026-04-19T08:15:43.952Z</time></trkpt><trkpt lat="44.5999087" lon="10.6507026"><ele>145.0</ele><time>2026-04-19T08:15:44.934Z</time></trkpt><trkpt lat="44.5998144" lon="10.650679"><ele>145.0</ele><time>2026-04-19T08:15:45.927Z</time></trkpt><trkpt lat="44.5997129" lon="10.6506537"><ele>145.0</ele><time>2026-04-19T08:15:46.915Z</time></trkpt><trkpt lat="44.5996062" lon="10.6506302"><ele>144.75</ele><time>2026-04-19T08:15:47.91Z</time></trkpt><trkpt lat="44.5994927" lon="10.6506075"><ele>144.5</ele><time>2026-04-19T08:15:48.909Z</time></trkpt><trkpt lat="44.5993761" lon="10.65058"><ele>144.25</ele><time>2026-04-19T08:15:49.911Z</time></trkpt><trkpt lat="44.5992632" lon="10.6505456"><ele>144.0</ele><time>2026-04-19T08:15:50.918Z</time></trkpt><trkpt lat="44.5991608" lon="10.650504"><ele>144.0</ele><time>2026-04-19T08:15:51.911Z</time></trkpt><trkpt lat="44.5990609" lon="10.6504481"><ele>144.0</ele><time>2026-04-19T08:15:52.975Z</time></trkpt><trkpt lat="44.5989686" lon="10.6503674"><ele>144.0</ele><time>2026-04-19T08:15:53.909Z</time></trkpt><trkpt lat="44.598882" lon="10.6502613"><ele>144.0</ele><time>2026-04-19T08:15:54.943Z</time></trkpt><trkpt lat="44.5987999" lon="10.6501419"><ele>144.0</ele><time>2026-04-19T08:15:55.911Z</time></trkpt><trkpt lat="44.5987166" lon="10.6500199"><ele>145.0</ele><time>2026-04-19T08:15:56.912Z</time></trkpt><trkpt lat="44.5986361" lon="10.6499009"><ele>146.0</ele><time>2026-04-19T08:15:57.916Z</time></trkpt><trkpt lat="44.598554" lon="10.6497865"><ele>147.0</ele><time>2026-04-19T08:15:58.967Z</time></trkpt><trkpt lat="44.59847" lon="10.6496773"><ele>148.0</ele><time>2026-04-19T08:15:59.944Z</time></trkpt><trkpt lat="44.5983835" lon="10.6495781"><ele>148.0</ele><time>2026-04-19T08:16:00.919Z</time></trkpt><trkpt lat="44.5982947" lon="10.649495"><ele>148.0</ele><time>2026-04-19T08:16:01.911Z</time></trkpt><trkpt lat="44.5982036" lon="10.6494081"><ele>148.0</ele><time>2026-04-19T08:16:02.992Z</time></trkpt><trkpt lat="44.5981142" lon="10.6493218"><ele>148.0</ele><time>2026-04-19T08:16:03.907Z</time></trkpt><trkpt lat="44.5980188" lon="10.6492355"><ele>148.0</ele><time>2026-04-19T08:16:05.005Z</time></trkpt><trkpt lat="44.5979246" lon="10.6491588"><ele>148.20000000000002</ele><time>2026-04-19T08:16:05.93Z</time></trkpt><trkpt lat="44.5978275" lon="10.6490838"><ele>148.4</ele><time>2026-04-19T08:16:06.917Z</time></trkpt><trkpt lat="44.5977359" lon="10.6490089"><ele>148.60000000000002</ele><time>2026-04-19T08:16:07.969Z</time></trkpt><trkpt lat="44.5976546" lon="10.6489454"><ele>148.8</ele><time>2026-04-19T08:16:08.941Z</time></trkpt><trkpt lat="44.5975819" lon="10.6488878"><ele>149.0</ele><time>2026-04-19T08:16:09.947Z</time></trkpt><trkpt lat="44.5975177" lon="10.6488329"><ele>149.0</ele><time>2026-04-19T08:16:10.911Z</time></trkpt><trkpt lat="44.597462" lon="10.6487793"><ele>149.0</ele><time>2026-04-19T08:16:11.924Z</time></trkpt><trkpt lat="44.5973543" lon="10.6487403"><ele>149.0</ele><time>2026-04-19T08:16:13.966Z</time></trkpt><trkpt lat="44.5972821" lon="10.6488655"><ele>149.0</ele><time>2026-04-19T08:16:15.936Z</time></trkpt><trkpt lat="44.5972609" lon="10.6489533"><ele>149.0</ele><time>2026-04-19T08:16:16.925Z</time></trkpt><trkpt lat="44.5972388" lon="10.6490375"><ele>149.0</ele><time>2026-04-19T08:16:17.914Z</time></trkpt><trkpt lat="44.5972081" lon="10.6491149"><ele>149.0</ele><time>2026-04-19T08:16:18.96Z</time></trkpt><trkpt lat="44.5971406" lon="10.6492597"><ele>149.0</ele><time>2026-04-19T08:16:20.905Z</time></trkpt><trkpt lat="44.5971036" lon="10.6493323"><ele>149.0</ele><time>2026-04-19T08:16:21.937Z</time></trkpt><trkpt lat="44.5970642" lon="10.6494044"><ele>149.0</ele><time>2026-04-19T08:16:22.912Z</time></trkpt><trkpt lat="44.5970189" lon="10.6494828"><ele>149.0</ele><time>2026-04-19T08:16:23.925Z</time></trkpt><trkpt lat="44.596975" lon="10.6495631"><ele>149.0</ele><time>2026-04-19T08:16:24.931Z</time></trkpt><trkpt lat="44.5969284" lon="10.6496486"><ele>150.4</ele><time>2026-04-19T08:16:25.932Z</time></trkpt><trkpt lat="44.5968862" lon="10.6497422"><ele>151.8</ele><time>2026-04-19T08:16:26.915Z</time></trkpt><trkpt lat="44.5968468" lon="10.6498425"><ele>153.2</ele><time>2026-04-19T08:16:28.08Z</time></trkpt><trkpt lat="44.5967629" lon="10.6500283"><ele>154.6</ele><time>2026-04-19T08:16:29.91Z</time></trkpt><trkpt lat="44.5967205" lon="10.6501125"><ele>156.0</ele><time>2026-04-19T08:16:30.91Z</time></trkpt><trkpt lat="44.5966711" lon="10.6501953"><ele>156.0</ele><time>2026-04-19T08:16:31.911Z</time></trkpt><trkpt lat="44.596616" lon="10.6502877"><ele>156.0</ele><time>2026-04-19T08:16:32.945Z</time></trkpt><trkpt lat="44.5965614" lon="10.6503811"><ele>156.0</ele><time>2026-04-19T08:16:33.908Z</time></trkpt><trkpt lat="44.5965028" lon="10.6504769"><ele>156.0</ele><time>2026-04-19T08:16:34.95Z</time></trkpt><trkpt lat="44.5964488" lon="10.6505745"><ele>156.0</ele><time>2026-04-19T08:16:35.934Z</time></trkpt><trkpt lat="44.596394" lon="10.6506728"><ele>156.0</ele><time>2026-04-19T08:16:36.911Z</time></trkpt><trkpt lat="44.5963348" lon="10.6507764"><ele>155.8</ele><time>2026-04-19T08:16:37.909Z</time></trkpt><trkpt lat="44.5962784" lon="10.6508668"><ele>155.6</ele><time>2026-04-19T08:16:38.912Z</time></trkpt><trkpt lat="44.5962201" lon="10.6509577"><ele>155.4</ele><time>2026-04-19T08:16:39.952Z</time></trkpt><trkpt lat="44.596167" lon="10.6510434"><ele>155.2</ele><time>2026-04-19T08:16:40.921Z</time></trkpt><trkpt lat="44.5961199" lon="10.6511163"><ele>155.0</ele><time>2026-04-19T08:16:41.908Z</time></trkpt><trkpt lat="44.5960416" lon="10.6512553"><ele>154.16666666666666</ele><time>2026-04-19T08:16:43.932Z</time></trkpt><trkpt lat="44.5959967" lon="10.6513338"><ele>153.33333333333331</ele><time>2026-04-19T08:16:44.911Z</time></trkpt><trkpt lat="44.5959442" lon="10.6514241"><ele>152.5</ele><time>2026-04-19T08:16:45.969Z</time></trkpt><trkpt lat="44.5958849" lon="10.6515155"><ele>151.66666666666666</ele><time>2026-04-19T08:16:46.93Z</time></trkpt><trkpt lat="44.5958192" lon="10.6515987"><ele>150.83333333333334</ele><time>2026-04-19T08:16:47.912Z</time></trkpt><trkpt lat="44.5957533" lon="10.6516757"><ele>150.0</ele><time>2026-04-19T08:16:48.929Z</time></trkpt><trkpt lat="44.5956915" lon="10.6517475"><ele>150.0</ele><time>2026-04-19T08:16:49.96Z</time></trkpt><trkpt lat="44.5956303" lon="10.6518313"><ele>150.0</ele><time>2026-04-19T08:16:50.93Z</time></trkpt><trkpt lat="44.5955807" lon="10.651936"><ele>150.0</ele><time>2026-04-19T08:16:51.925Z</time></trkpt><trkpt lat="44.5955397" lon="10.6520547"><ele>150.0</ele><time>2026-04-19T08:16:52.913Z</time></trkpt><trkpt lat="44.5954943" lon="10.6521813"><ele>150.0</ele><time>2026-04-19T08:16:53.938Z</time></trkpt><trkpt lat="44.5954378" lon="10.6522977"><ele>149.4</ele><time>2026-04-19T08:16:54.959Z</time></trkpt><trkpt lat="44.5953692" lon="10.6524049"><ele>148.8</ele><time>2026-04-19T08:16:55.911Z</time></trkpt><trkpt lat="44.5952913" lon="10.6525122"><ele>148.2</ele><time>2026-04-19T08:16:56.935Z</time></trkpt><trkpt lat="44.5952097" lon="10.6526172"><ele>147.6</ele><time>2026-04-19T08:16:57.93Z</time></trkpt><trkpt lat="44.5951317" lon="10.6527082"><ele>147.0</ele><time>2026-04-19T08:16:58.921Z</time></trkpt><trkpt lat="44.5950582" lon="10.6527781"><ele>147.33333333333334</ele><time>2026-04-19T08:16:59.912Z</time></trkpt><trkpt lat="44.594984" lon="10.6528284"><ele>147.66666666666666</ele><time>2026-04-19T08:17:00.899Z</time></trkpt><trkpt lat="44.594916" lon="10.6528687"><ele>148.0</ele><time>2026-04-19T08:17:01.922Z</time></trkpt><trkpt lat="44.5948537" lon="10.6528532"><ele>148.33333333333331</ele><time>2026-04-19T08:17:02.948Z</time></trkpt><trkpt lat="44.5947844" lon="10.6528007"><ele>148.66666666666666</ele><time>2026-04-19T08:17:03.914Z</time></trkpt><trkpt lat="44.5947075" lon="10.6527749"><ele>149.0</ele><time>2026-04-19T08:17:04.908Z</time></trkpt><trkpt lat="44.5946304" lon="10.6528087"><ele>149.0</ele><time>2026-04-19T08:17:05.908Z</time></trkpt><trkpt lat="44.5945588" lon="10.6528857"><ele>149.0</ele><time>2026-04-19T08:17:06.928Z</time></trkpt><trkpt lat="44.5944861" lon="10.6529878"><ele>149.0</ele><time>2026-04-19T08:17:07.907Z</time></trkpt><trkpt lat="44.5944047" lon="10.6530927"><ele>149.0</ele><time>2026-04-19T08:17:08.906Z</time></trkpt><trkpt lat="44.5943183" lon="10.6531902"><ele>149.0</ele><time>2026-04-19T08:17:09.95Z</time></trkpt><trkpt lat="44.5942305" lon="10.6532889"><ele>149.2</ele><time>2026-04-19T08:17:10.923Z</time></trkpt><trkpt lat="44.5941402" lon="10.6533997"><ele>149.4</ele><time>2026-04-19T08:17:11.995Z</time></trkpt><trkpt lat="44.5940584" lon="10.653497"><ele>149.6</ele><time>2026-04-19T08:17:12.907Z</time></trkpt><trkpt lat="44.5939765" lon="10.6535765"><ele>149.8</ele><time>2026-04-19T08:17:13.906Z</time></trkpt><trkpt lat="44.5938933" lon="10.6536377"><ele>150.0</ele><time>2026-04-19T08:17:14.907Z</time></trkpt><trkpt lat="44.5938197" lon="10.6536851"><ele>150.0</ele><time>2026-04-19T08:17:15.957Z</time></trkpt><trkpt lat="44.5937544" lon="10.6537207"><ele>150.0</ele><time>2026-04-19T08:17:16.923Z</time></trkpt><trkpt lat="44.5936836" lon="10.6537447"><ele>150.0</ele><time>2026-04-19T08:17:17.908Z</time></trkpt><trkpt lat="44.5936135" lon="10.6537626"><ele>150.0</ele><time>2026-04-19T08:17:18.91Z</time></trkpt><trkpt lat="44.5935451" lon="10.6537799"><ele>150.0</ele><time>2026-04-19T08:17:19.909Z</time></trkpt><trkpt lat="44.5934826" lon="10.6537997"><ele>150.0</ele><time>2026-04-19T08:17:20.912Z</time></trkpt><trkpt lat="44.5933663" lon="10.6538555"><ele>150.0</ele><time>2026-04-19T08:17:22.945Z</time></trkpt><trkpt lat="44.5932501" lon="10.6539424"><ele>150.0</ele><time>2026-04-19T08:17:24.945Z</time></trkpt><trkpt lat="44.5931942" lon="10.6540081"><ele>150.0</ele><time>2026-04-19T08:17:25.936Z</time></trkpt><trkpt lat="44.5931467" lon="10.6540928"><ele>150.0</ele><time>2026-04-19T08:17:26.968Z</time></trkpt><trkpt lat="44.593104" lon="10.6541978"><ele>150.0</ele><time>2026-04-19T08:17:27.938Z</time></trkpt><trkpt lat="44.5930644" lon="10.6543347"><ele>149.75</ele><time>2026-04-19T08:17:28.912Z</time></trkpt><trkpt lat="44.5930189" lon="10.6544918"><ele>149.5</ele><time>2026-04-19T08:17:29.91Z</time></trkpt><trkpt lat="44.5929722" lon="10.654652"><ele>149.25</ele><time>2026-04-19T08:17:30.911Z</time></trkpt><trkpt lat="44.5929221" lon="10.654813"><ele>149.0</ele><time>2026-04-19T08:17:31.907Z</time></trkpt><trkpt lat="44.5928675" lon="10.6549745"><ele>149.5</ele><time>2026-04-19T08:17:32.909Z</time></trkpt><trkpt lat="44.5928108" lon="10.6551289"><ele>150.0</ele><time>2026-04-19T08:17:33.909Z</time></trkpt><trkpt lat="44.5927492" lon="10.6552704"><ele>150.5</ele><time>2026-04-19T08:17:34.91Z</time></trkpt><trkpt lat="44.592679" lon="10.6553998"><ele>151.0</ele><time>2026-04-19T08:17:35.951Z</time></trkpt><trkpt lat="44.5925971" lon="10.6555232"><ele>151.0</ele><time>2026-04-19T08:17:36.911Z</time></trkpt><trkpt lat="44.5925063" lon="10.6556485"><ele>151.0</ele><time>2026-04-19T08:17:37.996Z</time></trkpt><trkpt lat="44.5924182" lon="10.6557678"><ele>151.0</ele><time>2026-04-19T08:17:38.919Z</time></trkpt><trkpt lat="44.5923253" lon="10.6558882"><ele>151.0</ele><time>2026-04-19T08:17:39.944Z</time></trkpt><trkpt lat="44.5922297" lon="10.6559991"><ele>151.0</ele><time>2026-04-19T08:17:40.913Z</time></trkpt><trkpt lat="44.5921329" lon="10.6561095"><ele>151.0</ele><time>2026-04-19T08:17:41.949Z</time></trkpt><trkpt lat="44.5920396" lon="10.6562127"><ele>151.0</ele><time>2026-04-19T08:17:42.965Z</time></trkpt><trkpt lat="44.5919477" lon="10.6563159"><ele>151.0</ele><time>2026-04-19T08:17:43.909Z</time></trkpt><trkpt lat="44.5918532" lon="10.6564201"><ele>150.5</ele><time>2026-04-19T08:17:44.931Z</time></trkpt><trkpt lat="44.5917631" lon="10.6565256"><ele>150.0</ele><time>2026-04-19T08:17:45.926Z</time></trkpt><trkpt lat="44.5916766" lon="10.6566393"><ele>149.5</ele><time>2026-04-19T08:17:46.913Z</time></trkpt><trkpt lat="44.5915924" lon="10.6567536"><ele>149.0</ele><time>2026-04-19T08:17:47.974Z</time></trkpt><trkpt lat="44.5915103" lon="10.6568542"><ele>149.0</ele><time>2026-04-19T08:17:48.91Z</time></trkpt><trkpt lat="44.5914321" lon="10.6569422"><ele>149.0</ele><time>2026-04-19T08:17:49.947Z</time></trkpt><trkpt lat="44.5913672" lon="10.6570148"><ele>149.0</ele><time>2026-04-19T08:17:50.933Z</time></trkpt><trkpt lat="44.5913161" lon="10.6570732"><ele>149.0</ele><time>2026-04-19T08:17:51.917Z</time></trkpt><trkpt lat="44.5912183" lon="10.6571495"><ele>149.0</ele><time>2026-04-19T08:17:53.967Z</time></trkpt><trkpt lat="44.5911098" lon="10.6572118"><ele>148.57142857142856</ele><time>2026-04-19T08:17:55.938Z</time></trkpt><trkpt lat="44.591051" lon="10.6572506"><ele>148.14285714285714</ele><time>2026-04-19T08:17:56.91Z</time></trkpt><trkpt lat="44.5909838" lon="10.6572913"><ele>147.71428571428572</ele><time>2026-04-19T08:17:57.948Z</time></trkpt><trkpt lat="44.5909154" lon="10.6573253"><ele>147.28571428571428</ele><time>2026-04-19T08:17:58.923Z</time></trkpt><trkpt lat="44.5908406" lon="10.6573566"><ele>146.85714285714286</ele><time>2026-04-19T08:17:59.965Z</time></trkpt><trkpt lat="44.5907656" lon="10.6573914"><ele>146.42857142857142</ele><time>2026-04-19T08:18:00.927Z</time></trkpt><trkpt lat="44.5906935" lon="10.6574314"><ele>146.0</ele><time>2026-04-19T08:18:01.927Z</time></trkpt><trkpt lat="44.5906278" lon="10.6574607"><ele>146.0</ele><time>2026-04-19T08:18:02.928Z</time></trkpt><trkpt lat="44.5905157" lon="10.6575046"><ele>146.0</ele><time>2026-04-19T08:18:04.944Z</time></trkpt><trkpt lat="44.5904205" lon="10.6574776"><ele>146.0</ele><time>2026-04-19T08:18:06.94Z</time></trkpt><trkpt lat="44.5903107" lon="10.6574197"><ele>146.0</ele><time>2026-04-19T08:18:08.968Z</time></trkpt><trkpt lat="44.5902006" lon="10.6574406"><ele>146.0</ele><time>2026-04-19T08:18:10.929Z</time></trkpt><trkpt lat="44.5901408" lon="10.6574753"><ele>146.5</ele><time>2026-04-19T08:18:11.906Z</time></trkpt><trkpt lat="44.5900779" lon="10.6575289"><ele>147.0</ele><time>2026-04-19T08:18:12.913Z</time></trkpt><trkpt lat="44.5900119" lon="10.6575816"><ele>147.5</ele><time>2026-04-19T08:18:13.984Z</time></trkpt><trkpt lat="44.589943" lon="10.6576297"><ele>148.0</ele><time>2026-04-19T08:18:14.943Z</time></trkpt><trkpt lat="44.5898725" lon="10.6576753"><ele>148.5</ele><time>2026-04-19T08:18:15.941Z</time></trkpt><trkpt lat="44.5898029" lon="10.6577207"><ele>149.0</ele><time>2026-04-19T08:18:16.911Z</time></trkpt><trkpt lat="44.5897352" lon="10.6577635"><ele>148.57142857142856</ele><time>2026-04-19T08:18:17.94Z</time></trkpt><trkpt lat="44.5896736" lon="10.6578128"><ele>148.14285714285714</ele><time>2026-04-19T08:18:18.925Z</time></trkpt><trkpt lat="44.5896107" lon="10.6578655"><ele>147.71428571428572</ele><time>2026-04-19T08:18:19.923Z</time></trkpt><trkpt lat="44.5895441" lon="10.6579204"><ele>147.28571428571428</ele><time>2026-04-19T08:18:20.921Z</time></trkpt><trkpt lat="44.5894759" lon="10.6579678"><ele>146.85714285714286</ele><time>2026-04-19T08:18:21.91Z</time></trkpt><trkpt lat="44.5894113" lon="10.6580116"><ele>146.42857142857142</ele><time>2026-04-19T08:18:22.911Z</time></trkpt><trkpt lat="44.5893468" lon="10.65805"><ele>146.0</ele><time>2026-04-19T08:18:23.904Z</time></trkpt><trkpt lat="44.5892818" lon="10.6580923"><ele>146.0</ele><time>2026-04-19T08:18:24.908Z</time></trkpt><trkpt lat="44.5892136" lon="10.6581436"><ele>146.0</ele><time>2026-04-19T08:18:25.936Z</time></trkpt><trkpt lat="44.5891399" lon="10.6581976"><ele>146.0</ele><time>2026-04-19T08:18:26.906Z</time></trkpt><trkpt lat="44.5890608" lon="10.6582572"><ele>146.0</ele><time>2026-04-19T08:18:27.935Z</time></trkpt><trkpt lat="44.5889855" lon="10.6583087"><ele>146.0</ele><time>2026-04-19T08:18:28.911Z</time></trkpt><trkpt lat="44.588912" lon="10.6583615"><ele>146.0</ele><time>2026-04-19T08:18:29.91Z</time></trkpt><trkpt lat="44.5888413" lon="10.6584179"><ele>146.0</ele><time>2026-04-19T08:18:30.932Z</time></trkpt><trkpt lat="44.5887715" lon="10.6584712"><ele>146.0</ele><time>2026-04-19T08:18:31.909Z</time></trkpt><trkpt lat="44.588697" lon="10.6585184"><ele>146.0</ele><time>2026-04-19T08:18:32.907Z</time></trkpt><trkpt lat="44.5886231" lon="10.6585692"><ele>146.0</ele><time>2026-04-19T08:18:33.921Z</time></trkpt><trkpt lat="44.588556" lon="10.6586158"><ele>146.0</ele><time>2026-04-19T08:18:34.911Z</time></trkpt><trkpt lat="44.5884908" lon="10.6586614"><ele>146.0</ele><time>2026-04-19T08:18:35.913Z</time></trkpt><trkpt lat="44.5884273" lon="10.6587025"><ele>145.2</ele><time>2026-04-19T08:18:36.91Z</time></trkpt><trkpt lat="44.5883675" lon="10.6587487"><ele>144.39999999999998</ele><time>2026-04-19T08:18:37.913Z</time></trkpt><trkpt lat="44.5882923" lon="10.6588028"><ele>143.6</ele><time>2026-04-19T08:18:38.908Z</time></trkpt><trkpt lat="44.5882144" lon="10.6588641"><ele>142.79999999999998</ele><time>2026-04-19T08:18:40.084Z</time></trkpt><trkpt lat="44.5880674" lon="10.6589638"><ele>142.0</ele><time>2026-04-19T08:18:41.909Z</time></trkpt><trkpt lat="44.5879852" lon="10.659015"><ele>142.0</ele><time>2026-04-19T08:18:42.916Z</time></trkpt><trkpt lat="44.5878993" lon="10.6590774"><ele>142.0</ele><time>2026-04-19T08:18:43.916Z</time></trkpt><trkpt lat="44.5878157" lon="10.6591442"><ele>142.0</ele><time>2026-04-19T08:18:44.91Z</time></trkpt><trkpt lat="44.5877423" lon="10.6592232"><ele>142.0</ele><time>2026-04-19T08:18:45.91Z</time></trkpt><trkpt lat="44.5876788" lon="10.659301"><ele>142.0</ele><time>2026-04-19T08:18:46.911Z</time></trkpt><trkpt lat="44.5876112" lon="10.6593718"><ele>142.0</ele><time>2026-04-19T08:18:47.952Z</time></trkpt><trkpt lat="44.5875437" lon="10.6594408"><ele>142.0</ele><time>2026-04-19T08:18:48.906Z</time></trkpt><trkpt lat="44.5874791" lon="10.6595025"><ele>142.0</ele><time>2026-04-19T08:18:49.916Z</time></trkpt><trkpt lat="44.5874236" lon="10.6595636"><ele>142.0</ele><time>2026-04-19T08:18:50.911Z</time></trkpt><trkpt lat="44.5873724" lon="10.6596254"><ele>142.0</ele><time>2026-04-19T08:18:51.911Z</time></trkpt><trkpt lat="44.5872784" lon="10.659724"><ele>142.0</ele><time>2026-04-19T08:18:53.925Z</time></trkpt><trkpt lat="44.5871795" lon="10.6598089"><ele>142.0</ele><time>2026-04-19T08:18:55.91Z</time></trkpt><trkpt lat="44.5870919" lon="10.6598745"><ele>142.0</ele><time>2026-04-19T08:18:57.971Z</time></trkpt><trkpt lat="44.5870087" lon="10.6599506"><ele>142.0</ele><time>2026-04-19T08:18:59.924Z</time></trkpt><trkpt lat="44.5869338" lon="10.6600654"><ele>142.0</ele><time>2026-04-19T08:19:01.912Z</time></trkpt><trkpt lat="44.5868715" lon="10.6602067"><ele>142.0</ele><time>2026-04-19T08:19:03.948Z</time></trkpt><trkpt lat="44.5868367" lon="10.6603752"><ele>140.71428571428572</ele><time>2026-04-19T08:19:05.906Z</time></trkpt><trkpt lat="44.5868197" lon="10.6604633"><ele>139.42857142857142</ele><time>2026-04-19T08:19:06.911Z</time></trkpt><trkpt lat="44.5868006" lon="10.6605519"><ele>138.14285714285714</ele><time>2026-04-19T08:19:07.936Z</time></trkpt><trkpt lat="44.5867797" lon="10.6606392"><ele>136.85714285714286</ele><time>2026-04-19T08:19:08.933Z</time></trkpt><trkpt lat="44.5867566" lon="10.6607292"><ele>135.57142857142856</ele><time>2026-04-19T08:19:09.938Z</time></trkpt><trkpt lat="44.5867387" lon="10.6608228"><ele>134.28571428571428</ele><time>2026-04-19T08:19:10.908Z</time></trkpt><trkpt lat="44.5867259" lon="10.6609176"><ele>133.0</ele><time>2026-04-19T08:19:11.91Z</time></trkpt><trkpt lat="44.5867118" lon="10.6610145"><ele>133.0</ele><time>2026-04-19T08:19:12.917Z</time></trkpt><trkpt lat="44.5866976" lon="10.6611078"><ele>133.0</ele><time>2026-04-19T08:19:13.908Z</time></trkpt><trkpt lat="44.5866889" lon="10.6612072"><ele>133.0</ele><time>2026-04-19T08:19:14.946Z</time></trkpt><trkpt lat="44.5866705" lon="10.6613562"><ele>133.0</ele><time>2026-04-19T08:19:16.916Z</time></trkpt><trkpt lat="44.5866586" lon="10.6615081"><ele>133.0</ele><time>2026-04-19T08:19:18.967Z</time></trkpt><trkpt lat="44.5866612" lon="10.6616505"><ele>130.83333333333334</ele><time>2026-04-19T08:19:20.91Z</time></trkpt><trkpt lat="44.5866692" lon="10.6617636"><ele>128.66666666666669</ele><time>2026-04-19T08:19:22.931Z</time></trkpt><trkpt lat="44.5866241" lon="10.6618343"><ele>126.5</ele><time>2026-04-19T08:19:25.907Z</time></trkpt><trkpt lat="44.5865237" lon="10.6618352"><ele>124.33333333333334</ele><time>2026-04-19T08:19:27.907Z</time></trkpt><trkpt lat="44.5864476" lon="10.6618312"><ele>122.16666666666667</ele><time>2026-04-19T08:19:28.909Z</time></trkpt><trkpt lat="44.5863579" lon="10.6618221"><ele>120.0</ele><time>2026-04-19T08:19:29.91Z</time></trkpt><trkpt lat="44.5862657" lon="10.6618207"><ele>120.0</ele><time>2026-04-19T08:19:30.94Z</time></trkpt><trkpt lat="44.5861685" lon="10.6618177"><ele>120.0</ele><time>2026-04-19T08:19:31.905Z</time></trkpt><trkpt lat="44.586061" lon="10.6618151"><ele>120.0</ele><time>2026-04-19T08:19:32.913Z</time></trkpt><trkpt lat="44.5859465" lon="10.6618184"><ele>120.0</ele><time>2026-04-19T08:19:33.925Z</time></trkpt><trkpt lat="44.5858399" lon="10.6618311"><ele>120.0</ele><time>2026-04-19T08:19:34.908Z</time></trkpt><trkpt lat="44.5857416" lon="10.6618497"><ele>120.0</ele><time>2026-04-19T08:19:35.911Z</time></trkpt><trkpt lat="44.5856503" lon="10.6618758"><ele>120.0</ele><time>2026-04-19T08:19:36.912Z</time></trkpt><trkpt lat="44.5855619" lon="10.6619085"><ele>120.0</ele><time>2026-04-19T08:19:37.911Z</time></trkpt><trkpt lat="44.5854716" lon="10.6619442"><ele>120.0</ele><time>2026-04-19T08:19:38.911Z</time></trkpt><trkpt lat="44.5853771" lon="10.6619767"><ele>120.0</ele><time>2026-04-19T08:19:39.929Z</time></trkpt><trkpt lat="44.585279" lon="10.6620087"><ele>119.2</ele><time>2026-04-19T08:19:40.913Z</time></trkpt><trkpt lat="44.5851803" lon="10.6620424"><ele>118.4</ele><time>2026-04-19T08:19:41.91Z</time></trkpt><trkpt lat="44.5850866" lon="10.662072"><ele>117.6</ele><time>2026-04-19T08:19:42.912Z</time></trkpt><trkpt lat="44.5849894" lon="10.6621"><ele>116.8</ele><time>2026-04-19T08:19:43.92Z</time></trkpt><trkpt lat="44.5848958" lon="10.6621253"><ele>116.0</ele><time>2026-04-19T08:19:44.9Z</time></trkpt><trkpt lat="44.5848074" lon="10.6621443"><ele>115.99999999999999</ele><time>2026-04-19T08:19:45.954Z</time></trkpt><trkpt lat="44.5847253" lon="10.662172"><ele>116.0</ele><time>2026-04-19T08:19:46.931Z</time></trkpt><trkpt lat="44.584643" lon="10.6622001"><ele>116.0</ele><time>2026-04-19T08:19:47.905Z</time></trkpt><trkpt lat="44.5845692" lon="10.662227"><ele>116.0</ele><time>2026-04-19T08:19:48.907Z</time></trkpt><trkpt lat="44.5845084" lon="10.6622522"><ele>115.99999999999999</ele><time>2026-04-19T08:19:49.956Z</time></trkpt><trkpt lat="44.5844031" lon="10.6622778"><ele>116.0</ele><time>2026-04-19T08:19:51.934Z</time></trkpt><trkpt lat="44.5842829" lon="10.6622488"><ele>116.0</ele><time>2026-04-19T08:19:53.922Z</time></trkpt><trkpt lat="44.5842004" lon="10.6622203"><ele>116.0</ele><time>2026-04-19T08:19:54.92Z</time></trkpt><trkpt lat="44.5841149" lon="10.6621947"><ele>116.0</ele><time>2026-04-19T08:19:55.909Z</time></trkpt><trkpt lat="44.5840259" lon="10.662177"><ele>116.0</ele><time>2026-04-19T08:19:56.907Z</time></trkpt><trkpt lat="44.5839285" lon="10.6621597"><ele>116.0</ele><time>2026-04-19T08:19:57.952Z</time></trkpt><trkpt lat="44.5838291" lon="10.6621431"><ele>116.0</ele><time>2026-04-19T08:19:58.935Z</time></trkpt><trkpt lat="44.5837231" lon="10.6621173"><ele>116.0</ele><time>2026-04-19T08:19:59.909Z</time></trkpt><trkpt lat="44.5836104" lon="10.6620727"><ele>116.0</ele><time>2026-04-19T08:20:00.916Z</time></trkpt><trkpt lat="44.5834955" lon="10.6620047"><ele>116.0</ele><time>2026-04-19T08:20:01.91Z</time></trkpt><trkpt lat="44.5833865" lon="10.6619116"><ele>115.6</ele><time>2026-04-19T08:20:02.951Z</time></trkpt><trkpt lat="44.5832958" lon="10.6618024"><ele>115.19999999999999</ele><time>2026-04-19T08:20:03.923Z</time></trkpt><trkpt lat="44.5832222" lon="10.6616856"><ele>114.80000000000001</ele><time>2026-04-19T08:20:04.911Z</time></trkpt><trkpt lat="44.5831632" lon="10.6615718"><ele>114.4</ele><time>2026-04-19T08:20:05.936Z</time></trkpt><trkpt lat="44.5831183" lon="10.661479"><ele>114.0</ele><time>2026-04-19T08:20:06.947Z</time></trkpt><trkpt lat="44.5830805" lon="10.6614054"><ele>114.0</ele><time>2026-04-19T08:20:07.932Z</time></trkpt><trkpt lat="44.5830154" lon="10.6612793"><ele>114.0</ele><time>2026-04-19T08:20:09.915Z</time></trkpt><trkpt lat="44.5829608" lon="10.6611705"><ele>114.0</ele><time>2026-04-19T08:20:11.921Z</time></trkpt><trkpt lat="44.5829112" lon="10.6610802"><ele>114.0</ele><time>2026-04-19T08:20:13.933Z</time></trkpt><trkpt lat="44.5828711" lon="10.6610102"><ele>114.0</ele><time>2026-04-19T08:20:15.907Z</time></trkpt><trkpt lat="44.5828283" lon="10.6609312"><ele>114.0</ele><time>2026-04-19T08:20:18.946Z</time></trkpt><trkpt lat="44.5827582" lon="10.660848"><ele>114.2</ele><time>2026-04-19T08:20:23.94Z</time></trkpt><trkpt lat="44.5827124" lon="10.6607705"><ele>114.4</ele><time>2026-04-19T08:20:25.925Z</time></trkpt><trkpt lat="44.5826511" lon="10.6606572"><ele>114.6</ele><time>2026-04-19T08:20:27.948Z</time></trkpt><trkpt lat="44.5825925" lon="10.6605503"><ele>114.8</ele><time>2026-04-19T08:20:29.937Z</time></trkpt><trkpt lat="44.5825353" lon="10.6604578"><ele>115.0</ele><time>2026-04-19T08:20:31.934Z</time></trkpt><trkpt lat="44.5824734" lon="10.6603588"><ele>117.00000000000001</ele><time>2026-04-19T08:20:33.906Z</time></trkpt><trkpt lat="44.5823917" lon="10.6602267"><ele>119.0</ele><time>2026-04-19T08:20:35.921Z</time></trkpt><trkpt lat="44.5823467" lon="10.6601567"><ele>121.0</ele><time>2026-04-19T08:20:36.914Z</time></trkpt><trkpt lat="44.5823" lon="10.660095"><ele>123.0</ele><time>2026-04-19T08:20:37.97Z</time></trkpt><trkpt lat="44.5822533" lon="10.6600333"><ele>125.00000000000001</ele><time>2026-04-19T08:20:38.954Z</time></trkpt><trkpt lat="44.5822033" lon="10.6599717"><ele>127.0</ele><time>2026-04-19T08:20:39.91Z</time></trkpt><trkpt lat="44.582155" lon="10.659905"><ele>127.0</ele><time>2026-04-19T08:20:40.926Z</time></trkpt><trkpt lat="44.5821083" lon="10.6598433"><ele>127.0</ele><time>2026-04-19T08:20:41.911Z</time></trkpt><trkpt lat="44.5820583" lon="10.6597783"><ele>127.0</ele><time>2026-04-19T08:20:42.945Z</time></trkpt><trkpt lat="44.5820133" lon="10.659705"><ele>127.0</ele><time>2026-04-19T08:20:43.908Z</time></trkpt><trkpt lat="44.581965" lon="10.659635"><ele>127.0</ele><time>2026-04-19T08:20:44.918Z</time></trkpt><trkpt lat="44.5819167" lon="10.6595667"><ele>127.0</ele><time>2026-04-19T08:20:45.919Z</time></trkpt><trkpt lat="44.5818667" lon="10.6595017"><ele>127.0</ele><time>2026-04-19T08:20:46.924Z</time></trkpt><trkpt lat="44.581815" lon="10.659435"><ele>126.16666666666667</ele><time>2026-04-19T08:20:47.92Z</time></trkpt><trkpt lat="44.5817567" lon="10.6593633"><ele>125.33333333333334</ele><time>2026-04-19T08:20:48.912Z</time></trkpt><trkpt lat="44.5817" lon="10.6592833"><ele>124.5</ele><time>2026-04-19T08:20:49.908Z</time></trkpt><trkpt lat="44.581635" lon="10.6591967"><ele>123.66666666666666</ele><time>2026-04-19T08:20:50.923Z</time></trkpt><trkpt lat="44.58156" lon="10.6591083"><ele>122.83333333333333</ele><time>2026-04-19T08:20:51.915Z</time></trkpt><trkpt lat="44.5814883" lon="10.6590117"><ele>122.0</ele><time>2026-04-19T08:20:52.913Z</time></trkpt><trkpt lat="44.5814183" lon="10.6589133"><ele>122.0</ele><time>2026-04-19T08:20:53.907Z</time></trkpt><trkpt lat="44.581355" lon="10.65881"><ele>121.99999999999999</ele><time>2026-04-19T08:20:54.928Z</time></trkpt><trkpt lat="44.58129" lon="10.6587067"><ele>121.99999999999999</ele><time>2026-04-19T08:20:55.917Z</time></trkpt><trkpt lat="44.581225" lon="10.6586033"><ele>122.0</ele><time>2026-04-19T08:20:56.906Z</time></trkpt><trkpt lat="44.581165" lon="10.6584883"><ele>122.0</ele><time>2026-04-19T08:20:57.909Z</time></trkpt><trkpt lat="44.5811117" lon="10.65837"><ele>121.39999999999999</ele><time>2026-04-19T08:20:58.923Z</time></trkpt><trkpt lat="44.58106" lon="10.6582483"><ele>120.79999999999998</ele><time>2026-04-19T08:20:59.916Z</time></trkpt><trkpt lat="44.5810083" lon="10.6581217"><ele>120.2</ele><time>2026-04-19T08:21:00.908Z</time></trkpt><trkpt lat="44.58096" lon="10.6579917"><ele>119.6</ele><time>2026-04-19T08:21:01.912Z</time></trkpt><trkpt lat="44.5809117" lon="10.65786"><ele>119.0</ele><time>2026-04-19T08:21:02.969Z</time></trkpt><trkpt lat="44.5808633" lon="10.6577283"><ele>121.0</ele><time>2026-04-19T08:21:03.92Z</time></trkpt><trkpt lat="44.5808133" lon="10.6575967"><ele>123.0</ele><time>2026-04-19T08:21:04.912Z</time></trkpt><trkpt lat="44.5807667" lon="10.6574633"><ele>125.0</ele><time>2026-04-19T08:21:05.911Z</time></trkpt><trkpt lat="44.5807167" lon="10.65733"><ele>127.0</ele><time>2026-04-19T08:21:06.916Z</time></trkpt><trkpt lat="44.5806683" lon="10.657195"><ele>129.0</ele><time>2026-04-19T08:21:07.908Z</time></trkpt><trkpt lat="44.580615" lon="10.657065"><ele>128.2</ele><time>2026-04-19T08:21:08.91Z</time></trkpt><trkpt lat="44.5805533" lon="10.6569383"><ele>127.4</ele><time>2026-04-19T08:21:09.936Z</time></trkpt><trkpt lat="44.5804883" lon="10.6568167"><ele>126.6</ele><time>2026-04-19T08:21:10.927Z</time></trkpt><trkpt lat="44.5804117" lon="10.65671"><ele>125.8</ele><time>2026-04-19T08:21:11.93Z</time></trkpt><trkpt lat="44.580335" lon="10.656615"><ele>125.0</ele><time>2026-04-19T08:21:12.91Z</time></trkpt><trkpt lat="44.580255" lon="10.6565217"><ele>125.0</ele><time>2026-04-19T08:21:13.918Z</time></trkpt><trkpt lat="44.5801683" lon="10.6564383"><ele>125.0</ele><time>2026-04-19T08:21:14.909Z</time></trkpt><trkpt lat="44.5800733" lon="10.6563667"><ele>125.0</ele><time>2026-04-19T08:21:15.907Z</time></trkpt><trkpt lat="44.5799733" lon="10.6563083"><ele>125.0</ele><time>2026-04-19T08:21:16.907Z</time></trkpt><trkpt lat="44.579865" lon="10.656255"><ele>125.0</ele><time>2026-04-19T08:21:17.945Z</time></trkpt><trkpt lat="44.579755" lon="10.6562"><ele>125.0</ele><time>2026-04-19T08:21:18.929Z</time></trkpt><trkpt lat="44.5796433" lon="10.6561483"><ele>125.0</ele><time>2026-04-19T08:21:19.916Z</time></trkpt><trkpt lat="44.5795333" lon="10.6561033"><ele>125.0</ele><time>2026-04-19T08:21:20.918Z</time></trkpt><trkpt lat="44.579425" lon="10.656065"><ele>125.0</ele><time>2026-04-19T08:21:21.911Z</time></trkpt><trkpt lat="44.5793167" lon="10.6560167"><ele>125.25</ele><time>2026-04-19T08:21:22.924Z</time></trkpt><trkpt lat="44.579205" lon="10.6559717"><ele>125.5</ele><time>2026-04-19T08:21:23.928Z</time></trkpt><trkpt lat="44.5790917" lon="10.65593"><ele>125.75</ele><time>2026-04-19T08:21:24.922Z</time></trkpt><trkpt lat="44.578975" lon="10.655885"><ele>126.0</ele><time>2026-04-19T08:21:25.931Z</time></trkpt><trkpt lat="44.5788583" lon="10.6558433"><ele>126.0</ele><time>2026-04-19T08:21:26.951Z</time></trkpt><trkpt lat="44.5787467" lon="10.655795"><ele>126.0</ele><time>2026-04-19T08:21:27.957Z</time></trkpt><trkpt lat="44.5786333" lon="10.6557467"><ele>126.0</ele><time>2026-04-19T08:21:28.913Z</time></trkpt><trkpt lat="44.5785167" lon="10.6556933"><ele>126.0</ele><time>2026-04-19T08:21:29.908Z</time></trkpt><trkpt lat="44.578405" lon="10.6556367"><ele>125.66666666666667</ele><time>2026-04-19T08:21:30.928Z</time></trkpt><trkpt lat="44.5783067" lon="10.6555867"><ele>125.33333333333334</ele><time>2026-04-19T08:21:31.91Z</time></trkpt><trkpt lat="44.5782317" lon="10.6555417"><ele>125.0</ele><time>2026-04-19T08:21:32.957Z</time></trkpt><trkpt lat="44.578175" lon="10.6555"><ele>124.66666666666667</ele><time>2026-04-19T08:21:33.937Z</time></trkpt><trkpt lat="44.5781083" lon="10.655435"><ele>124.33333333333334</ele><time>2026-04-19T08:21:35.913Z</time></trkpt><trkpt lat="44.5780267" lon="10.6554033"><ele>124.0</ele><time>2026-04-19T08:21:52.937Z</time></trkpt><trkpt lat="44.5779117" lon="10.6553267"><ele>125.0</ele><time>2026-04-19T08:21:54.926Z</time></trkpt><trkpt lat="44.5778383" lon="10.6552733"><ele>126.0</ele><time>2026-04-19T08:21:55.909Z</time></trkpt><trkpt lat="44.577745" lon="10.6552017"><ele>127.0</ele><time>2026-04-19T08:21:56.911Z</time></trkpt><trkpt lat="44.5776517" lon="10.6551383"><ele>128.0</ele><time>2026-04-19T08:21:57.91Z</time></trkpt><trkpt lat="44.57755" lon="10.6550717"><ele>129.0</ele><time>2026-04-19T08:21:58.929Z</time></trkpt><trkpt lat="44.5774433" lon="10.6550067"><ele>129.0</ele><time>2026-04-19T08:21:59.919Z</time></trkpt><trkpt lat="44.57733" lon="10.6549433"><ele>129.0</ele><time>2026-04-19T08:22:00.907Z</time></trkpt><trkpt lat="44.5772067" lon="10.65488"><ele>129.0</ele><time>2026-04-19T08:22:01.913Z</time></trkpt><trkpt lat="44.5770783" lon="10.654825"><ele>129.0</ele><time>2026-04-19T08:22:02.916Z</time></trkpt><trkpt lat="44.5769533" lon="10.6547783"><ele>128.5</ele><time>2026-04-19T08:22:03.924Z</time></trkpt><trkpt lat="44.5768317" lon="10.6547417"><ele>128.0</ele><time>2026-04-19T08:22:04.928Z</time></trkpt><trkpt lat="44.57671" lon="10.6547083"><ele>127.5</ele><time>2026-04-19T08:22:05.907Z</time></trkpt><trkpt lat="44.5765833" lon="10.6546883"><ele>127.0</ele><time>2026-04-19T08:22:06.908Z</time></trkpt><trkpt lat="44.57646" lon="10.65468"><ele>127.0</ele><time>2026-04-19T08:22:07.9Z</time></trkpt><trkpt lat="44.5763367" lon="10.6546817"><ele>127.0</ele><time>2026-04-19T08:22:08.94Z</time></trkpt><trkpt lat="44.5762183" lon="10.6547033"><ele>127.0</ele><time>2026-04-19T08:22:09.911Z</time></trkpt><trkpt lat="44.5761" lon="10.654755"><ele>127.0</ele><time>2026-04-19T08:22:10.916Z</time></trkpt><trkpt lat="44.575995" lon="10.6548483"><ele>127.75</ele><time>2026-04-19T08:22:11.908Z</time></trkpt><trkpt lat="44.5759067" lon="10.6549633"><ele>128.5</ele><time>2026-04-19T08:22:12.906Z</time></trkpt><trkpt lat="44.5758267" lon="10.6550883"><ele>129.25</ele><time>2026-04-19T08:22:13.908Z</time></trkpt><trkpt lat="44.5757333" lon="10.6552033"><ele>130.0</ele><time>2026-04-19T08:22:14.909Z</time></trkpt><trkpt lat="44.5756317" lon="10.6552933"><ele>128.25</ele><time>2026-04-19T08:22:15.918Z</time></trkpt><trkpt lat="44.575525" lon="10.6553567"><ele>126.5</ele><time>2026-04-19T08:22:16.911Z</time></trkpt><trkpt lat="44.5754117" lon="10.65539"><ele>124.75</ele><time>2026-04-19T08:22:17.908Z</time></trkpt><trkpt lat="44.5752917" lon="10.655375"><ele>123.0</ele><time>2026-04-19T08:22:18.932Z</time></trkpt><trkpt lat="44.575175" lon="10.6553217"><ele>125.0</ele><time>2026-04-19T08:22:19.908Z</time></trkpt><trkpt lat="44.5750583" lon="10.6552383"><ele>127.0</ele><time>2026-04-19T08:22:20.908Z</time></trkpt><trkpt lat="44.5749417" lon="10.6551417"><ele>129.0</ele><time>2026-04-19T08:22:21.935Z</time></trkpt><trkpt lat="44.574825" lon="10.6550433"><ele>131.0</ele><time>2026-04-19T08:22:22.911Z</time></trkpt><trkpt lat="44.5747083" lon="10.6549483"><ele>131.0</ele><time>2026-04-19T08:22:23.948Z</time></trkpt><trkpt lat="44.574595" lon="10.654855"><ele>131.0</ele><time>2026-04-19T08:22:24.912Z</time></trkpt><trkpt lat="44.5744817" lon="10.654765"><ele>131.0</ele><time>2026-04-19T08:22:25.961Z</time></trkpt><trkpt lat="44.574365" lon="10.6546717"><ele>131.0</ele><time>2026-04-19T08:22:26.917Z</time></trkpt><trkpt lat="44.57425" lon="10.6545783"><ele>131.0</ele><time>2026-04-19T08:22:27.949Z</time></trkpt><trkpt lat="44.5741367" lon="10.6544783"><ele>131.0</ele><time>2026-04-19T08:22:28.94Z</time></trkpt><trkpt lat="44.5740233" lon="10.6543833"><ele>131.0</ele><time>2026-04-19T08:22:29.906Z</time></trkpt><trkpt lat="44.5739117" lon="10.6542917"><ele>131.0</ele><time>2026-04-19T08:22:30.91Z</time></trkpt><trkpt lat="44.573795" lon="10.654195"><ele>129.5</ele><time>2026-04-19T08:22:31.925Z</time></trkpt><trkpt lat="44.5736767" lon="10.6541"><ele>128.0</ele><time>2026-04-19T08:22:32.911Z</time></trkpt><trkpt lat="44.5735567" lon="10.6540067"><ele>126.5</ele><time>2026-04-19T08:22:33.908Z</time></trkpt><trkpt lat="44.5734267" lon="10.65391"><ele>125.0</ele><time>2026-04-19T08:22:34.91Z</time></trkpt><trkpt lat="44.5732933" lon="10.6538133"><ele>125.0</ele><time>2026-04-19T08:22:35.938Z</time></trkpt><trkpt lat="44.5731533" lon="10.6537283"><ele>125.0</ele><time>2026-04-19T08:22:36.937Z</time></trkpt><trkpt lat="44.57301" lon="10.6536517"><ele>125.0</ele><time>2026-04-19T08:22:37.917Z</time></trkpt><trkpt lat="44.5728633" lon="10.6535867"><ele>127.0</ele><time>2026-04-19T08:22:38.925Z</time></trkpt><trkpt lat="44.5727117" lon="10.6535317"><ele>129.0</ele><time>2026-04-19T08:22:39.927Z</time></trkpt><trkpt lat="44.5725617" lon="10.6534883"><ele>131.0</ele><time>2026-04-19T08:22:40.919Z</time></trkpt><trkpt lat="44.5724133" lon="10.6534617"><ele>131.0</ele><time>2026-04-19T08:22:41.922Z</time></trkpt><trkpt lat="44.5722683" lon="10.6534483"><ele>131.0</ele><time>2026-04-19T08:22:42.909Z</time></trkpt><trkpt lat="44.572125" lon="10.6534433"><ele>131.0</ele><time>2026-04-19T08:22:43.921Z</time></trkpt><trkpt lat="44.5719867" lon="10.653445"><ele>131.0</ele><time>2026-04-19T08:22:44.913Z</time></trkpt><trkpt lat="44.5718467" lon="10.6534483"><ele>131.25</ele><time>2026-04-19T08:22:45.916Z</time></trkpt><trkpt lat="44.5717017" lon="10.65345"><ele>131.5</ele><time>2026-04-19T08:22:46.911Z</time></trkpt><trkpt lat="44.5715583" lon="10.653455"><ele>131.75</ele><time>2026-04-19T08:22:47.927Z</time></trkpt><trkpt lat="44.5714083" lon="10.653455"><ele>132.0</ele><time>2026-04-19T08:22:48.911Z</time></trkpt><trkpt lat="44.57126" lon="10.6534633"><ele>132.5</ele><time>2026-04-19T08:22:49.913Z</time></trkpt><trkpt lat="44.5711183" lon="10.6534717"><ele>133.0</ele><time>2026-04-19T08:22:50.929Z</time></trkpt><trkpt lat="44.5709783" lon="10.6534767"><ele>133.5</ele><time>2026-04-19T08:22:51.909Z</time></trkpt><trkpt lat="44.570835" lon="10.6534817"><ele>134.0</ele><time>2026-04-19T08:22:52.909Z</time></trkpt><trkpt lat="44.5706867" lon="10.6534767"><ele>134.0</ele><time>2026-04-19T08:22:53.909Z</time></trkpt><trkpt lat="44.5705367" lon="10.6534533"><ele>134.0</ele><time>2026-04-19T08:22:54.915Z</time></trkpt><trkpt lat="44.5703833" lon="10.653415"><ele>134.0</ele><time>2026-04-19T08:22:55.921Z</time></trkpt><trkpt lat="44.5702317" lon="10.6533667"><ele>134.0</ele><time>2026-04-19T08:22:56.911Z</time></trkpt><trkpt lat="44.5700783" lon="10.6533117"><ele>134.0</ele><time>2026-04-19T08:22:57.914Z</time></trkpt><trkpt lat="44.56992" lon="10.6532583"><ele>134.0</ele><time>2026-04-19T08:22:58.948Z</time></trkpt><trkpt lat="44.5697633" lon="10.653205"><ele>134.0</ele><time>2026-04-19T08:22:59.957Z</time></trkpt><trkpt lat="44.569615" lon="10.6531483"><ele>134.0</ele><time>2026-04-19T08:23:00.909Z</time></trkpt><trkpt lat="44.569465" lon="10.6530917"><ele>134.0</ele><time>2026-04-19T08:23:01.936Z</time></trkpt><trkpt lat="44.569315" lon="10.6530317"><ele>134.0</ele><time>2026-04-19T08:23:02.923Z</time></trkpt><trkpt lat="44.569165" lon="10.6529733"><ele>134.0</ele><time>2026-04-19T08:23:03.912Z</time></trkpt><trkpt lat="44.5690217" lon="10.65291"><ele>134.0</ele><time>2026-04-19T08:23:04.948Z</time></trkpt><trkpt lat="44.56889" lon="10.6528267"><ele>135.33333333333331</ele><time>2026-04-19T08:23:05.908Z</time></trkpt><trkpt lat="44.5687733" lon="10.6527017"><ele>136.66666666666666</ele><time>2026-04-19T08:23:06.928Z</time></trkpt><trkpt lat="44.56867" lon="10.65254"><ele>138.0</ele><time>2026-04-19T08:23:07.906Z</time></trkpt><trkpt lat="44.568565" lon="10.6523667"><ele>138.0</ele><time>2026-04-19T08:23:08.918Z</time></trkpt><trkpt lat="44.56845" lon="10.65222"><ele>138.0</ele><time>2026-04-19T08:23:09.908Z</time></trkpt><trkpt lat="44.56832" lon="10.652115"><ele>138.0</ele><time>2026-04-19T08:23:10.955Z</time></trkpt><trkpt lat="44.568175" lon="10.6520517"><ele>138.0</ele><time>2026-04-19T08:23:11.95Z</time></trkpt><trkpt lat="44.56803" lon="10.6520183"><ele>138.0</ele><time>2026-04-19T08:23:12.941Z</time></trkpt><trkpt lat="44.5678867" lon="10.6519967"><ele>138.0</ele><time>2026-04-19T08:23:13.934Z</time></trkpt><trkpt lat="44.56774" lon="10.6519717"><ele>138.0</ele><time>2026-04-19T08:23:14.904Z</time></trkpt><trkpt lat="44.5675917" lon="10.651935"><ele>141.25</ele><time>2026-04-19T08:23:15.933Z</time></trkpt><trkpt lat="44.5674467" lon="10.6518833"><ele>144.5</ele><time>2026-04-19T08:23:16.919Z</time></trkpt><trkpt lat="44.567305" lon="10.6518283"><ele>147.75</ele><time>2026-04-19T08:23:17.938Z</time></trkpt><trkpt lat="44.56717" lon="10.6517683"><ele>151.0</ele><time>2026-04-19T08:23:18.91Z</time></trkpt><trkpt lat="44.5670333" lon="10.6517067"><ele>150.0</ele><time>2026-04-19T08:23:19.906Z</time></trkpt><trkpt lat="44.566895" lon="10.6516467"><ele>149.0</ele><time>2026-04-19T08:23:20.911Z</time></trkpt><trkpt lat="44.5667567" lon="10.6515867"><ele>148.0</ele><time>2026-04-19T08:23:22.08Z</time></trkpt><trkpt lat="44.5664733" lon="10.651455"><ele>148.0</ele><time>2026-04-19T08:23:23.944Z</time></trkpt><trkpt lat="44.5663283" lon="10.651395"><ele>148.0</ele><time>2026-04-19T08:23:24.913Z</time></trkpt><trkpt lat="44.5661833" lon="10.6513383"><ele>148.0</ele><time>2026-04-19T08:23:25.907Z</time></trkpt><trkpt lat="44.5660433" lon="10.6512767"><ele>148.0</ele><time>2026-04-19T08:23:26.976Z</time></trkpt><trkpt lat="44.565915" lon="10.6512217"><ele>148.8</ele><time>2026-04-19T08:23:27.909Z</time></trkpt><trkpt lat="44.5658067" lon="10.6511717"><ele>149.60000000000002</ele><time>2026-04-19T08:23:28.922Z</time></trkpt><trkpt lat="44.5657083" lon="10.6511317"><ele>150.39999999999998</ele><time>2026-04-19T08:23:29.909Z</time></trkpt><trkpt lat="44.5656233" lon="10.6511017"><ele>151.2</ele><time>2026-04-19T08:23:30.948Z</time></trkpt><trkpt lat="44.5655517" lon="10.6510817"><ele>152.0</ele><time>2026-04-19T08:23:31.909Z</time></trkpt><trkpt lat="44.5654783" lon="10.6510733"><ele>152.0</ele><time>2026-04-19T08:23:32.936Z</time></trkpt><trkpt lat="44.5654117" lon="10.651095"><ele>152.0</ele><time>2026-04-19T08:23:33.915Z</time></trkpt><trkpt lat="44.5653533" lon="10.651145"><ele>152.0</ele><time>2026-04-19T08:23:34.928Z</time></trkpt><trkpt lat="44.5652817" lon="10.651185"><ele>152.0</ele><time>2026-04-19T08:23:35.909Z</time></trkpt><trkpt lat="44.5652067" lon="10.65123"><ele>152.0</ele><time>2026-04-19T08:23:36.913Z</time></trkpt><trkpt lat="44.565125" lon="10.6512717"><ele>152.0</ele><time>2026-04-19T08:23:37.908Z</time></trkpt><trkpt lat="44.565055" lon="10.6513033"><ele>149.83333333333331</ele><time>2026-04-19T08:23:38.942Z</time></trkpt><trkpt lat="44.5649767" lon="10.6513267"><ele>147.66666666666666</ele><time>2026-04-19T08:23:39.929Z</time></trkpt><trkpt lat="44.5648967" lon="10.651335"><ele>145.5</ele><time>2026-04-19T08:23:40.91Z</time></trkpt><trkpt lat="44.56481" lon="10.65133"><ele>143.33333333333334</ele><time>2026-04-19T08:23:41.922Z</time></trkpt><trkpt lat="44.5647217" lon="10.65132"><ele>141.16666666666669</ele><time>2026-04-19T08:23:42.907Z</time></trkpt><trkpt lat="44.564635" lon="10.651305"><ele>139.0</ele><time>2026-04-19T08:23:43.916Z</time></trkpt><trkpt lat="44.564545" lon="10.651295"><ele>138.8</ele><time>2026-04-19T08:23:44.911Z</time></trkpt><trkpt lat="44.5644533" lon="10.651305"><ele>138.60000000000002</ele><time>2026-04-19T08:23:45.91Z</time></trkpt><trkpt lat="44.5643533" lon="10.6513217"><ele>138.4</ele><time>2026-04-19T08:23:46.909Z</time></trkpt><trkpt lat="44.5642567" lon="10.6513333"><ele>138.20000000000002</ele><time>2026-04-19T08:23:47.969Z</time></trkpt><trkpt lat="44.564165" lon="10.6513383"><ele>138.0</ele><time>2026-04-19T08:23:48.913Z</time></trkpt><trkpt lat="44.564075" lon="10.6513383"><ele>138.0</ele><time>2026-04-19T08:23:49.937Z</time></trkpt><trkpt lat="44.5639933" lon="10.65134"><ele>138.0</ele><time>2026-04-19T08:23:50.929Z</time></trkpt><trkpt lat="44.56391" lon="10.6513517"><ele>138.0</ele><time>2026-04-19T08:23:51.912Z</time></trkpt><trkpt lat="44.5638283" lon="10.65138"><ele>138.0</ele><time>2026-04-19T08:23:52.907Z</time></trkpt><trkpt lat="44.56375" lon="10.6514283"><ele>138.0</ele><time>2026-04-19T08:23:53.949Z</time></trkpt><trkpt lat="44.56367" lon="10.65149"><ele>138.0</ele><time>2026-04-19T08:23:54.943Z</time></trkpt><trkpt lat="44.5635933" lon="10.6515533"><ele>138.0</ele><time>2026-04-19T08:23:55.941Z</time></trkpt><trkpt lat="44.5635267" lon="10.65163"><ele>138.0</ele><time>2026-04-19T08:23:56.921Z</time></trkpt><trkpt lat="44.5634667" lon="10.6517233"><ele>138.0</ele><time>2026-04-19T08:23:57.924Z</time></trkpt><trkpt lat="44.563435" lon="10.6518317"><ele>138.0</ele><time>2026-04-19T08:23:58.933Z</time></trkpt><trkpt lat="44.5634267" lon="10.651945"><ele>138.0</ele><time>2026-04-19T08:23:59.942Z</time></trkpt><trkpt lat="44.5634167" lon="10.6520567"><ele>138.0</ele><time>2026-04-19T08:24:00.937Z</time></trkpt><trkpt lat="44.5633967" lon="10.65216"><ele>137.33333333333334</ele><time>2026-04-19T08:24:01.921Z</time></trkpt><trkpt lat="44.5633633" lon="10.6522567"><ele>136.66666666666666</ele><time>2026-04-19T08:24:02.909Z</time></trkpt><trkpt lat="44.5633167" lon="10.65232"><ele>136.0</ele><time>2026-04-19T08:24:03.909Z</time></trkpt><trkpt lat="44.5632583" lon="10.65236"><ele>135.33333333333331</ele><time>2026-04-19T08:24:04.948Z</time></trkpt><trkpt lat="44.56318" lon="10.652365"><ele>134.66666666666666</ele><time>2026-04-19T08:24:05.913Z</time></trkpt><trkpt lat="44.5630867" lon="10.6523583"><ele>134.0</ele><time>2026-04-19T08:24:06.918Z</time></trkpt><trkpt lat="44.562995" lon="10.6523483"><ele>134.0</ele><time>2026-04-19T08:24:07.912Z</time></trkpt><trkpt lat="44.5629033" lon="10.6523467"><ele>134.0</ele><time>2026-04-19T08:24:08.963Z</time></trkpt><trkpt lat="44.5628083" lon="10.6523517"><ele>134.0</ele><time>2026-04-19T08:24:09.985Z</time></trkpt><trkpt lat="44.5627117" lon="10.652355"><ele>134.0</ele><time>2026-04-19T08:24:10.93Z</time></trkpt><trkpt lat="44.5626117" lon="10.6523617"><ele>134.0</ele><time>2026-04-19T08:24:11.915Z</time></trkpt><trkpt lat="44.5625083" lon="10.6523633"><ele>134.0</ele><time>2026-04-19T08:24:12.975Z</time></trkpt><trkpt lat="44.56241" lon="10.65236"><ele>134.0</ele><time>2026-04-19T08:24:13.972Z</time></trkpt><trkpt lat="44.56232" lon="10.6523617"><ele>134.0</ele><time>2026-04-19T08:24:14.955Z</time></trkpt><trkpt lat="44.5622417" lon="10.6523583"><ele>134.0</ele><time>2026-04-19T08:24:15.948Z</time></trkpt><trkpt lat="44.562175" lon="10.652355"><ele>134.0</ele><time>2026-04-19T08:24:16.91Z</time></trkpt><trkpt lat="44.562095" lon="10.6523467"><ele>134.0</ele><time>2026-04-19T08:24:18.961Z</time></trkpt><trkpt lat="44.561995" lon="10.652315"><ele>134.33333333333331</ele><time>2026-04-19T08:24:21.908Z</time></trkpt><trkpt lat="44.561905" lon="10.6522467"><ele>134.66666666666666</ele><time>2026-04-19T08:24:23.926Z</time></trkpt><trkpt lat="44.5618567" lon="10.652185"><ele>135.0</ele><time>2026-04-19T08:24:24.907Z</time></trkpt><trkpt lat="44.5618067" lon="10.6521033"><ele>135.33333333333334</ele><time>2026-04-19T08:24:25.907Z</time></trkpt><trkpt lat="44.561765" lon="10.652015"><ele>135.66666666666669</ele><time>2026-04-19T08:24:26.918Z</time></trkpt><trkpt lat="44.5617183" lon="10.651925"><ele>136.0</ele><time>2026-04-19T08:24:27.911Z</time></trkpt><trkpt lat="44.5616717" lon="10.651845"><ele>136.14285714285714</ele><time>2026-04-19T08:24:28.935Z</time></trkpt><trkpt lat="44.5616183" lon="10.6517717"><ele>136.28571428571428</ele><time>2026-04-19T08:24:29.908Z</time></trkpt><trkpt lat="44.56156" lon="10.6517033"><ele>136.42857142857144</ele><time>2026-04-19T08:24:30.912Z</time></trkpt><trkpt lat="44.561505" lon="10.651645"><ele>136.57142857142856</ele><time>2026-04-19T08:24:31.907Z</time></trkpt><trkpt lat="44.5614517" lon="10.651595"><ele>136.71428571428572</ele><time>2026-04-19T08:24:32.906Z</time></trkpt><trkpt lat="44.56139" lon="10.651555"><ele>136.85714285714286</ele><time>2026-04-19T08:24:33.911Z</time></trkpt><trkpt lat="44.5613117" lon="10.651535"><ele>137.0</ele><time>2026-04-19T08:24:34.908Z</time></trkpt><trkpt lat="44.56123" lon="10.6515367"><ele>137.4</ele><time>2026-04-19T08:24:36.005Z</time></trkpt><trkpt lat="44.5611467" lon="10.65155"><ele>137.79999999999998</ele><time>2026-04-19T08:24:36.907Z</time></trkpt><trkpt lat="44.5610567" lon="10.651565"><ele>138.2</ele><time>2026-04-19T08:24:37.96Z</time></trkpt><trkpt lat="44.5609667" lon="10.6515817"><ele>138.6</ele><time>2026-04-19T08:24:38.957Z</time></trkpt><trkpt lat="44.56086" lon="10.651595"><ele>139.0</ele><time>2026-04-19T08:24:39.911Z</time></trkpt><trkpt lat="44.560755" lon="10.6516133"><ele>139.0</ele><time>2026-04-19T08:24:40.913Z</time></trkpt><trkpt lat="44.5606483" lon="10.6516383"><ele>139.0</ele><time>2026-04-19T08:24:41.936Z</time></trkpt><trkpt lat="44.5605417" lon="10.6516717"><ele>139.0</ele><time>2026-04-19T08:24:42.928Z</time></trkpt><trkpt lat="44.56043" lon="10.651705"><ele>139.0</ele><time>2026-04-19T08:24:43.909Z</time></trkpt><trkpt lat="44.5603217" lon="10.6517333"><ele>139.0</ele><time>2026-04-19T08:24:44.915Z</time></trkpt><trkpt lat="44.56021" lon="10.6517433"><ele>139.25</ele><time>2026-04-19T08:24:45.937Z</time></trkpt><trkpt lat="44.5601067" lon="10.6517367"><ele>139.5</ele><time>2026-04-19T08:24:46.911Z</time></trkpt><trkpt lat="44.56" lon="10.6517117"><ele>139.75</ele><time>2026-04-19T08:24:47.907Z</time></trkpt><trkpt lat="44.5598833" lon="10.6516683"><ele>140.0</ele><time>2026-04-19T08:24:48.909Z</time></trkpt><trkpt lat="44.559765" lon="10.6516133"><ele>140.0</ele><time>2026-04-19T08:24:49.949Z</time></trkpt><trkpt lat="44.55964" lon="10.65156"><ele>140.0</ele><time>2026-04-19T08:24:50.918Z</time></trkpt><trkpt lat="44.559515" lon="10.6515117"><ele>140.0</ele><time>2026-04-19T08:24:51.909Z</time></trkpt><trkpt lat="44.55939" lon="10.6514733"><ele>140.0</ele><time>2026-04-19T08:24:52.908Z</time></trkpt><trkpt lat="44.5592717" lon="10.6514467"><ele>139.5</ele><time>2026-04-19T08:24:53.993Z</time></trkpt><trkpt lat="44.559155" lon="10.651425"><ele>139.0</ele><time>2026-04-19T08:24:54.944Z</time></trkpt><trkpt lat="44.55904" lon="10.6514017"><ele>138.5</ele><time>2026-04-19T08:24:55.908Z</time></trkpt><trkpt lat="44.558925" lon="10.6513833"><ele>138.0</ele><time>2026-04-19T08:24:56.909Z</time></trkpt><trkpt lat="44.5588217" lon="10.651365"><ele>138.0</ele><time>2026-04-19T08:24:57.908Z</time></trkpt><trkpt lat="44.5587283" lon="10.6513433"><ele>138.0</ele><time>2026-04-19T08:24:58.91Z</time></trkpt><trkpt lat="44.5586517" lon="10.6513167"><ele>138.0</ele><time>2026-04-19T08:24:59.945Z</time></trkpt><trkpt lat="44.558575" lon="10.651305"><ele>138.0</ele><time>2026-04-19T08:25:00.906Z</time></trkpt><trkpt lat="44.558465" lon="10.651385"><ele>138.0</ele><time>2026-04-19T08:25:02.909Z</time></trkpt><trkpt lat="44.5584233" lon="10.6514683"><ele>138.0</ele><time>2026-04-19T08:25:03.919Z</time></trkpt><trkpt lat="44.5583717" lon="10.6515567"><ele>138.20000000000002</ele><time>2026-04-19T08:25:04.907Z</time></trkpt><trkpt lat="44.55832" lon="10.6516583"><ele>138.4</ele><time>2026-04-19T08:25:05.926Z</time></trkpt><trkpt lat="44.55827" lon="10.65177"><ele>138.60000000000002</ele><time>2026-04-19T08:25:06.92Z</time></trkpt><trkpt lat="44.5582217" lon="10.6518883"><ele>138.8</ele><time>2026-04-19T08:25:07.911Z</time></trkpt><trkpt lat="44.5581683" lon="10.6520167"><ele>139.0</ele><time>2026-04-19T08:25:08.906Z</time></trkpt><trkpt lat="44.5581133" lon="10.6521567"><ele>139.0</ele><time>2026-04-19T08:25:09.916Z</time></trkpt><trkpt lat="44.5580533" lon="10.65231"><ele>139.0</ele><time>2026-04-19T08:25:10.921Z</time></trkpt><trkpt lat="44.5579917" lon="10.6524717"><ele>139.0</ele><time>2026-04-19T08:25:11.936Z</time></trkpt><trkpt lat="44.5579283" lon="10.6526317"><ele>139.0</ele><time>2026-04-19T08:25:12.907Z</time></trkpt><trkpt lat="44.5578683" lon="10.6527917"><ele>138.75</ele><time>2026-04-19T08:25:13.909Z</time></trkpt><trkpt lat="44.55781" lon="10.6529467"><ele>138.5</ele><time>2026-04-19T08:25:14.908Z</time></trkpt><trkpt lat="44.5577533" lon="10.65309"><ele>138.25</ele><time>2026-04-19T08:25:15.913Z</time></trkpt><trkpt lat="44.5576967" lon="10.6532167"><ele>138.0</ele><time>2026-04-19T08:25:16.907Z</time></trkpt><trkpt lat="44.55762" lon="10.65331"><ele>138.0</ele><time>2026-04-19T08:25:17.947Z</time></trkpt><trkpt lat="44.5575317" lon="10.65336"><ele>138.0</ele><time>2026-04-19T08:25:18.92Z</time></trkpt><trkpt lat="44.557435" lon="10.6533633"><ele>138.0</ele><time>2026-04-19T08:25:19.914Z</time></trkpt><trkpt lat="44.557325" lon="10.653325"><ele>138.0</ele><time>2026-04-19T08:25:20.906Z</time></trkpt><trkpt lat="44.55721" lon="10.65327"><ele>138.0</ele><time>2026-04-19T08:25:21.925Z</time></trkpt><trkpt lat="44.5570933" lon="10.6532183"><ele>138.5</ele><time>2026-04-19T08:25:22.917Z</time></trkpt><trkpt lat="44.5569717" lon="10.6531617"><ele>139.0</ele><time>2026-04-19T08:25:23.918Z</time></trkpt><trkpt lat="44.5568467" lon="10.6531017"><ele>139.5</ele><time>2026-04-19T08:25:24.907Z</time></trkpt><trkpt lat="44.5567167" lon="10.6530417"><ele>140.0</ele><time>2026-04-19T08:25:25.908Z</time></trkpt><trkpt lat="44.5565833" lon="10.652985"><ele>140.0</ele><time>2026-04-19T08:25:26.978Z</time></trkpt><trkpt lat="44.5564417" lon="10.6529367"><ele>140.0</ele><time>2026-04-19T08:25:27.909Z</time></trkpt><trkpt lat="44.5562983" lon="10.6528917"><ele>140.0</ele><time>2026-04-19T08:25:28.947Z</time></trkpt><trkpt lat="44.5561533" lon="10.6528517"><ele>140.0</ele><time>2026-04-19T08:25:29.91Z</time></trkpt><trkpt lat="44.556015" lon="10.6528183"><ele>141.5</ele><time>2026-04-19T08:25:30.906Z</time></trkpt><trkpt lat="44.5558883" lon="10.6527883"><ele>143.0</ele><time>2026-04-19T08:25:31.909Z</time></trkpt><trkpt lat="44.55577" lon="10.6527567"><ele>144.5</ele><time>2026-04-19T08:25:32.909Z</time></trkpt><trkpt lat="44.555655" lon="10.6527167"><ele>146.0</ele><time>2026-04-19T08:25:33.908Z</time></trkpt><trkpt lat="44.5555583" lon="10.6526867"><ele>146.0</ele><time>2026-04-19T08:25:34.958Z</time></trkpt><trkpt lat="44.555465" lon="10.652665"><ele>146.0</ele><time>2026-04-19T08:25:35.947Z</time></trkpt><trkpt lat="44.5553817" lon="10.6526517"><ele>146.0</ele><time>2026-04-19T08:25:36.904Z</time></trkpt><trkpt lat="44.5553083" lon="10.6526417"><ele>146.0</ele><time>2026-04-19T08:25:37.92Z</time></trkpt><trkpt lat="44.5552433" lon="10.6526317"><ele>146.0</ele><time>2026-04-19T08:25:38.949Z</time></trkpt><trkpt lat="44.5551583" lon="10.65262"><ele>146.0</ele><time>2026-04-19T08:25:40.907Z</time></trkpt><trkpt lat="44.5550567" lon="10.6526183"><ele>146.0</ele><time>2026-04-19T08:25:43.937Z</time></trkpt><trkpt lat="44.5549217" lon="10.6526583"><ele>146.0</ele><time>2026-04-19T08:25:45.912Z</time></trkpt><trkpt lat="44.5548367" lon="10.652695"><ele>146.0</ele><time>2026-04-19T08:25:46.953Z</time></trkpt><trkpt lat="44.5547483" lon="10.6527583"><ele>146.0</ele><time>2026-04-19T08:25:47.909Z</time></trkpt><trkpt lat="44.5546733" lon="10.65281"><ele>146.0</ele><time>2026-04-19T08:25:48.907Z</time></trkpt><trkpt lat="44.5545917" lon="10.65286"><ele>146.6</ele><time>2026-04-19T08:25:49.931Z</time></trkpt><trkpt lat="44.554515" lon="10.6529017"><ele>147.2</ele><time>2026-04-19T08:25:50.913Z</time></trkpt><trkpt lat="44.5544233" lon="10.6529467"><ele>147.8</ele><time>2026-04-19T08:25:51.912Z</time></trkpt><trkpt lat="44.5543367" lon="10.6530117"><ele>148.4</ele><time>2026-04-19T08:25:52.91Z</time></trkpt><trkpt lat="44.5542567" lon="10.6531033"><ele>149.0</ele><time>2026-04-19T08:25:53.911Z</time></trkpt><trkpt lat="44.554195" lon="10.65322"><ele>149.0</ele><time>2026-04-19T08:25:54.912Z</time></trkpt><trkpt lat="44.55416" lon="10.6533583"><ele>149.0</ele><time>2026-04-19T08:25:55.936Z</time></trkpt><trkpt lat="44.554135" lon="10.6535133"><ele>149.0</ele><time>2026-04-19T08:25:56.956Z</time></trkpt><trkpt lat="44.5541233" lon="10.6536733"><ele>149.0</ele><time>2026-04-19T08:25:57.924Z</time></trkpt><trkpt lat="44.5541067" lon="10.65385"><ele>148.25</ele><time>2026-04-19T08:25:58.919Z</time></trkpt><trkpt lat="44.554095" lon="10.6540383"><ele>147.5</ele><time>2026-04-19T08:25:59.907Z</time></trkpt><trkpt lat="44.554085" lon="10.6542283"><ele>146.75</ele><time>2026-04-19T08:26:00.906Z</time></trkpt><trkpt lat="44.55407" lon="10.6544117"><ele>146.0</ele><time>2026-04-19T08:26:01.933Z</time></trkpt><trkpt lat="44.5540567" lon="10.6545933"><ele>146.0</ele><time>2026-04-19T08:26:02.932Z</time></trkpt><trkpt lat="44.5540433" lon="10.65477"><ele>146.0</ele><time>2026-04-19T08:26:03.917Z</time></trkpt><trkpt lat="44.5540267" lon="10.654945"><ele>146.0</ele><time>2026-04-19T08:26:04.921Z</time></trkpt><trkpt lat="44.55399" lon="10.65512"><ele>146.0</ele><time>2026-04-19T08:26:05.936Z</time></trkpt><trkpt lat="44.5539383" lon="10.6552883"><ele>145.25</ele><time>2026-04-19T08:26:06.937Z</time></trkpt><trkpt lat="44.55387" lon="10.655445"><ele>144.5</ele><time>2026-04-19T08:26:07.909Z</time></trkpt><trkpt lat="44.5537867" lon="10.6556"><ele>143.75</ele><time>2026-04-19T08:26:08.945Z</time></trkpt><trkpt lat="44.55369" lon="10.655755"><ele>143.0</ele><time>2026-04-19T08:26:09.941Z</time></trkpt><trkpt lat="44.5535933" lon="10.6559233"><ele>143.0</ele><time>2026-04-19T08:26:10.91Z</time></trkpt><trkpt lat="44.5535017" lon="10.656105"><ele>143.0</ele><time>2026-04-19T08:26:11.908Z</time></trkpt><trkpt lat="44.5534167" lon="10.656285"><ele>143.0</ele><time>2026-04-19T08:26:12.907Z</time></trkpt><trkpt lat="44.5533367" lon="10.6564667"><ele>142.75</ele><time>2026-04-19T08:26:13.906Z</time></trkpt><trkpt lat="44.5532633" lon="10.65665"><ele>142.5</ele><time>2026-04-19T08:26:14.907Z</time></trkpt><trkpt lat="44.553195" lon="10.65683"><ele>142.25</ele><time>2026-04-19T08:26:15.907Z</time></trkpt><trkpt lat="44.5531283" lon="10.6570233"><ele>142.0</ele><time>2026-04-19T08:26:16.909Z</time></trkpt><trkpt lat="44.5530683" lon="10.65722"><ele>142.5</ele><time>2026-04-19T08:26:17.908Z</time></trkpt><trkpt lat="44.5530183" lon="10.6574083"><ele>143.0</ele><time>2026-04-19T08:26:18.907Z</time></trkpt><trkpt lat="44.5529633" lon="10.6575983"><ele>143.5</ele><time>2026-04-19T08:26:19.908Z</time></trkpt><trkpt lat="44.55291" lon="10.65778"><ele>144.0</ele><time>2026-04-19T08:26:20.909Z</time></trkpt><trkpt lat="44.552855" lon="10.6579583"><ele>146.5</ele><time>2026-04-19T08:26:21.908Z</time></trkpt><trkpt lat="44.552795" lon="10.6581317"><ele>149.0</ele><time>2026-04-19T08:26:22.909Z</time></trkpt><trkpt lat="44.5527317" lon="10.6583033"><ele>151.5</ele><time>2026-04-19T08:26:23.908Z</time></trkpt><trkpt lat="44.552665" lon="10.6584733"><ele>154.0</ele><time>2026-04-19T08:26:24.906Z</time></trkpt><trkpt lat="44.552595" lon="10.6586467"><ele>154.0</ele><time>2026-04-19T08:26:25.907Z</time></trkpt><trkpt lat="44.5525233" lon="10.658815"><ele>154.0</ele><time>2026-04-19T08:26:26.909Z</time></trkpt><trkpt lat="44.55245" lon="10.6589783"><ele>154.0</ele><time>2026-04-19T08:26:27.91Z</time></trkpt><trkpt lat="44.5523717" lon="10.6591383"><ele>154.0</ele><time>2026-04-19T08:26:28.909Z</time></trkpt><trkpt lat="44.552295" lon="10.6593"><ele>152.25</ele><time>2026-04-19T08:26:29.909Z</time></trkpt><trkpt lat="44.5522167" lon="10.6594667"><ele>150.5</ele><time>2026-04-19T08:26:30.908Z</time></trkpt><trkpt lat="44.5521417" lon="10.65964"><ele>148.75</ele><time>2026-04-19T08:26:31.907Z</time></trkpt><trkpt lat="44.552065" lon="10.6598167"><ele>147.0</ele><time>2026-04-19T08:26:32.907Z</time></trkpt><trkpt lat="44.5519917" lon="10.6599917"><ele>148.25</ele><time>2026-04-19T08:26:33.908Z</time></trkpt><trkpt lat="44.5519183" lon="10.660155"><ele>149.5</ele><time>2026-04-19T08:26:34.908Z</time></trkpt><trkpt lat="44.551845" lon="10.6603133"><ele>150.75</ele><time>2026-04-19T08:26:35.909Z</time></trkpt><trkpt lat="44.5517667" lon="10.6604733"><ele>152.0</ele><time>2026-04-19T08:26:36.912Z</time></trkpt><trkpt lat="44.5516917" lon="10.6606317"><ele>152.0</ele><time>2026-04-19T08:26:37.94Z</time></trkpt><trkpt lat="44.5516167" lon="10.6607983"><ele>152.0</ele><time>2026-04-19T08:26:38.92Z</time></trkpt><trkpt lat="44.5515417" lon="10.6609683"><ele>152.0</ele><time>2026-04-19T08:26:39.908Z</time></trkpt><trkpt lat="44.5514717" lon="10.6611433"><ele>152.0</ele><time>2026-04-19T08:26:40.915Z</time></trkpt><trkpt lat="44.5514067" lon="10.6613183"><ele>151.0</ele><time>2026-04-19T08:26:41.915Z</time></trkpt><trkpt lat="44.5513567" lon="10.6615"><ele>150.0</ele><time>2026-04-19T08:26:42.909Z</time></trkpt><trkpt lat="44.5513333" lon="10.66169"><ele>149.0</ele><time>2026-04-19T08:26:43.965Z</time></trkpt><trkpt lat="44.5513417" lon="10.6618783"><ele>148.0</ele><time>2026-04-19T08:26:44.949Z</time></trkpt><trkpt lat="44.5513817" lon="10.6620683"><ele>147.75</ele><time>2026-04-19T08:26:45.929Z</time></trkpt><trkpt lat="44.551445" lon="10.662245"><ele>147.5</ele><time>2026-04-19T08:26:46.908Z</time></trkpt><trkpt lat="44.5515317" lon="10.662405"><ele>147.25</ele><time>2026-04-19T08:26:47.908Z</time></trkpt><trkpt lat="44.5516267" lon="10.6625583"><ele>147.0</ele><time>2026-04-19T08:26:48.91Z</time></trkpt><trkpt lat="44.5517217" lon="10.6627133"><ele>147.25</ele><time>2026-04-19T08:26:49.908Z</time></trkpt><trkpt lat="44.5518167" lon="10.6628667"><ele>147.5</ele><time>2026-04-19T08:26:50.906Z</time></trkpt><trkpt lat="44.5519083" lon="10.6630183"><ele>147.75</ele><time>2026-04-19T08:26:51.904Z</time></trkpt><trkpt lat="44.552" lon="10.6631733"><ele>148.0</ele><time>2026-04-19T08:26:52.907Z</time></trkpt><trkpt lat="44.55209" lon="10.6633267"><ele>148.25</ele><time>2026-04-19T08:26:53.927Z</time></trkpt><trkpt lat="44.5521767" lon="10.6634867"><ele>148.5</ele><time>2026-04-19T08:26:54.911Z</time></trkpt><trkpt lat="44.5522583" lon="10.663655"><ele>148.75</ele><time>2026-04-19T08:26:55.954Z</time></trkpt><trkpt lat="44.55233" lon="10.6638383"><ele>149.0</ele><time>2026-04-19T08:26:56.907Z</time></trkpt><trkpt lat="44.55239" lon="10.664035"><ele>149.0</ele><time>2026-04-19T08:26:57.91Z</time></trkpt><trkpt lat="44.5524383" lon="10.6642433"><ele>149.0</ele><time>2026-04-19T08:26:58.907Z</time></trkpt><trkpt lat="44.5524717" lon="10.66446"><ele>149.0</ele><time>2026-04-19T08:26:59.923Z</time></trkpt><trkpt lat="44.5525033" lon="10.66468"><ele>149.0</ele><time>2026-04-19T08:27:00.905Z</time></trkpt><trkpt lat="44.55254" lon="10.6649067"><ele>149.0</ele><time>2026-04-19T08:27:01.926Z</time></trkpt><trkpt lat="44.5525717" lon="10.6651217"><ele>149.0</ele><time>2026-04-19T08:27:02.909Z</time></trkpt><trkpt lat="44.5525967" lon="10.6653367"><ele>149.66666666666666</ele><time>2026-04-19T08:27:03.908Z</time></trkpt><trkpt lat="44.5526067" lon="10.665555"><ele>150.33333333333334</ele><time>2026-04-19T08:27:04.906Z</time></trkpt><trkpt lat="44.5525983" lon="10.6657817"><ele>151.0</ele><time>2026-04-19T08:27:05.951Z</time></trkpt><trkpt lat="44.552565" lon="10.6660033"><ele>151.66666666666669</ele><time>2026-04-19T08:27:06.906Z</time></trkpt><trkpt lat="44.5525017" lon="10.666215"><ele>152.33333333333334</ele><time>2026-04-19T08:27:07.912Z</time></trkpt><trkpt lat="44.55242" lon="10.66642"><ele>153.0</ele><time>2026-04-19T08:27:08.906Z</time></trkpt><trkpt lat="44.5523333" lon="10.6666183"><ele>153.0</ele><time>2026-04-19T08:27:09.907Z</time></trkpt><trkpt lat="44.5522417" lon="10.66681"><ele>153.0</ele><time>2026-04-19T08:27:10.909Z</time></trkpt><trkpt lat="44.5521467" lon="10.6669933"><ele>153.0</ele><time>2026-04-19T08:27:11.908Z</time></trkpt><trkpt lat="44.5520517" lon="10.6671817"><ele>153.33333333333334</ele><time>2026-04-19T08:27:12.909Z</time></trkpt><trkpt lat="44.55196" lon="10.6673667"><ele>153.66666666666669</ele><time>2026-04-19T08:27:13.991Z</time></trkpt><trkpt lat="44.551875" lon="10.6675483"><ele>154.0</ele><time>2026-04-19T08:27:14.953Z</time></trkpt><trkpt lat="44.5517867" lon="10.6677317"><ele>154.33333333333334</ele><time>2026-04-19T08:27:15.943Z</time></trkpt><trkpt lat="44.5516983" lon="10.6679133"><ele>154.66666666666666</ele><time>2026-04-19T08:27:16.912Z</time></trkpt><trkpt lat="44.5516067" lon="10.6681"><ele>155.0</ele><time>2026-04-19T08:27:17.927Z</time></trkpt><trkpt lat="44.5515133" lon="10.6682933"><ele>155.0</ele><time>2026-04-19T08:27:18.912Z</time></trkpt><trkpt lat="44.5514183" lon="10.6684917"><ele>155.0</ele><time>2026-04-19T08:27:19.952Z</time></trkpt><trkpt lat="44.551325" lon="10.6686867"><ele>155.0</ele><time>2026-04-19T08:27:20.907Z</time></trkpt><trkpt lat="44.55123" lon="10.668885"><ele>154.66666666666666</ele><time>2026-04-19T08:27:21.931Z</time></trkpt><trkpt lat="44.551135" lon="10.6690917"><ele>154.33333333333334</ele><time>2026-04-19T08:27:22.907Z</time></trkpt><trkpt lat="44.551045" lon="10.6693"><ele>154.0</ele><time>2026-04-19T08:27:23.933Z</time></trkpt><trkpt lat="44.5509483" lon="10.66951"><ele>155.0</ele><time>2026-04-19T08:27:24.911Z</time></trkpt><trkpt lat="44.5508483" lon="10.6697183"><ele>156.0</ele><time>2026-04-19T08:27:25.909Z</time></trkpt><trkpt lat="44.5507483" lon="10.6699183"><ele>157.0</ele><time>2026-04-19T08:27:26.906Z</time></trkpt><trkpt lat="44.550645" lon="10.6701183"><ele>157.0</ele><time>2026-04-19T08:27:27.93Z</time></trkpt><trkpt lat="44.5505483" lon="10.6703267"><ele>157.0</ele><time>2026-04-19T08:27:28.913Z</time></trkpt><trkpt lat="44.5504567" lon="10.6705233"><ele>157.0</ele><time>2026-04-19T08:27:29.938Z</time></trkpt><trkpt lat="44.55037" lon="10.670715"><ele>157.0</ele><time>2026-04-19T08:27:30.92Z</time></trkpt><trkpt lat="44.550285" lon="10.6709033"><ele>157.0</ele><time>2026-04-19T08:27:31.94Z</time></trkpt><trkpt lat="44.5501967" lon="10.6710933"><ele>157.0</ele><time>2026-04-19T08:27:32.912Z</time></trkpt><trkpt lat="44.55011" lon="10.6712817"><ele>157.0</ele><time>2026-04-19T08:27:33.908Z</time></trkpt><trkpt lat="44.5500283" lon="10.6714683"><ele>157.0</ele><time>2026-04-19T08:27:34.909Z</time></trkpt><trkpt lat="44.5499483" lon="10.6716567"><ele>157.0</ele><time>2026-04-19T08:27:35.943Z</time></trkpt><trkpt lat="44.54987" lon="10.6718467"><ele>157.66666666666669</ele><time>2026-04-19T08:27:36.936Z</time></trkpt><trkpt lat="44.5497883" lon="10.67204"><ele>158.33333333333334</ele><time>2026-04-19T08:27:37.908Z</time></trkpt><trkpt lat="44.5496967" lon="10.672225"><ele>159.0</ele><time>2026-04-19T08:27:38.921Z</time></trkpt><trkpt lat="44.549595" lon="10.672405"><ele>158.33333333333334</ele><time>2026-04-19T08:27:39.91Z</time></trkpt><trkpt lat="44.549485" lon="10.6725833"><ele>157.66666666666669</ele><time>2026-04-19T08:27:40.909Z</time></trkpt><trkpt lat="44.5493717" lon="10.67276"><ele>157.0</ele><time>2026-04-19T08:27:41.905Z</time></trkpt><trkpt lat="44.5492583" lon="10.6729417"><ele>156.33333333333334</ele><time>2026-04-19T08:27:42.909Z</time></trkpt><trkpt lat="44.5491417" lon="10.67313"><ele>155.66666666666666</ele><time>2026-04-19T08:27:43.908Z</time></trkpt><trkpt lat="44.5490267" lon="10.6733133"><ele>155.0</ele><time>2026-04-19T08:27:44.91Z</time></trkpt><trkpt lat="44.548905" lon="10.67349"><ele>155.0</ele><time>2026-04-19T08:27:45.914Z</time></trkpt><trkpt lat="44.5487867" lon="10.67367"><ele>155.0</ele><time>2026-04-19T08:27:46.906Z</time></trkpt><trkpt lat="44.548665" lon="10.6738517"><ele>155.0</ele><time>2026-04-19T08:27:47.908Z</time></trkpt><trkpt lat="44.5485483" lon="10.6740333"><ele>155.0</ele><time>2026-04-19T08:27:48.908Z</time></trkpt><trkpt lat="44.548425" lon="10.674215"><ele>155.0</ele><time>2026-04-19T08:27:49.906Z</time></trkpt><trkpt lat="44.5483067" lon="10.6743883"><ele>155.0</ele><time>2026-04-19T08:27:50.907Z</time></trkpt><trkpt lat="44.5481917" lon="10.6745567"><ele>155.0</ele><time>2026-04-19T08:27:51.909Z</time></trkpt><trkpt lat="44.5480783" lon="10.67473"><ele>155.0</ele><time>2026-04-19T08:27:52.91Z</time></trkpt><trkpt lat="44.547965" lon="10.6748983"><ele>155.0</ele><time>2026-04-19T08:27:53.912Z</time></trkpt><trkpt lat="44.5478517" lon="10.6750717"><ele>155.0</ele><time>2026-04-19T08:27:54.911Z</time></trkpt><trkpt lat="44.5477417" lon="10.6752433"><ele>155.0</ele><time>2026-04-19T08:27:55.907Z</time></trkpt><trkpt lat="44.5476283" lon="10.6754117"><ele>155.0</ele><time>2026-04-19T08:27:56.911Z</time></trkpt><trkpt lat="44.5475133" lon="10.675585"><ele>154.66666666666666</ele><time>2026-04-19T08:27:57.911Z</time></trkpt><trkpt lat="44.5474017" lon="10.6757567"><ele>154.33333333333334</ele><time>2026-04-19T08:27:58.914Z</time></trkpt><trkpt lat="44.5472767" lon="10.675935"><ele>154.0</ele><time>2026-04-19T08:27:59.909Z</time></trkpt><trkpt lat="44.5471567" lon="10.67611"><ele>156.0</ele><time>2026-04-19T08:28:00.908Z</time></trkpt><trkpt lat="44.54704" lon="10.67628"><ele>158.0</ele><time>2026-04-19T08:28:01.908Z</time></trkpt><trkpt lat="44.546925" lon="10.6764483"><ele>160.0</ele><time>2026-04-19T08:28:02.908Z</time></trkpt><trkpt lat="44.5468083" lon="10.676615"><ele>160.0</ele><time>2026-04-19T08:28:03.908Z</time></trkpt><trkpt lat="44.5467033" lon="10.6767767"><ele>160.0</ele><time>2026-04-19T08:28:04.909Z</time></trkpt><trkpt lat="44.5466" lon="10.6769267"><ele>160.0</ele><time>2026-04-19T08:28:05.908Z</time></trkpt><trkpt lat="44.5464817" lon="10.6770683"><ele>160.66666666666669</ele><time>2026-04-19T08:28:06.908Z</time></trkpt><trkpt lat="44.5463483" lon="10.6771983"><ele>161.33333333333334</ele><time>2026-04-19T08:28:07.905Z</time></trkpt><trkpt lat="44.5462067" lon="10.6772883"><ele>162.0</ele><time>2026-04-19T08:28:08.906Z</time></trkpt><trkpt lat="44.546065" lon="10.6773633"><ele>162.75</ele><time>2026-04-19T08:28:09.906Z</time></trkpt><trkpt lat="44.54593" lon="10.6774367"><ele>163.5</ele><time>2026-04-19T08:28:10.908Z</time></trkpt><trkpt lat="44.5458033" lon="10.6775333"><ele>164.25</ele><time>2026-04-19T08:28:11.911Z</time></trkpt><trkpt lat="44.5456717" lon="10.6776367"><ele>165.0</ele><time>2026-04-19T08:28:12.908Z</time></trkpt><trkpt lat="44.545545" lon="10.677735"><ele>164.33333333333334</ele><time>2026-04-19T08:28:13.91Z</time></trkpt><trkpt lat="44.545415" lon="10.677825"><ele>163.66666666666669</ele><time>2026-04-19T08:28:14.912Z</time></trkpt><trkpt lat="44.5452783" lon="10.6779083"><ele>163.0</ele><time>2026-04-19T08:28:15.911Z</time></trkpt><trkpt lat="44.54513" lon="10.6779833"><ele>164.33333333333334</ele><time>2026-04-19T08:28:16.909Z</time></trkpt><trkpt lat="44.5449817" lon="10.6780533"><ele>165.66666666666666</ele><time>2026-04-19T08:28:17.907Z</time></trkpt><trkpt lat="44.54483" lon="10.6781233"><ele>167.0</ele><time>2026-04-19T08:28:18.908Z</time></trkpt><trkpt lat="44.5446817" lon="10.6781967"><ele>167.0</ele><time>2026-04-19T08:28:19.908Z</time></trkpt><trkpt lat="44.5445467" lon="10.6782833"><ele>167.0</ele><time>2026-04-19T08:28:20.909Z</time></trkpt><trkpt lat="44.544435" lon="10.6783933"><ele>167.0</ele><time>2026-04-19T08:28:21.909Z</time></trkpt><trkpt lat="44.54434" lon="10.6785183"><ele>167.0</ele><time>2026-04-19T08:28:22.91Z</time></trkpt><trkpt lat="44.5442517" lon="10.6786633"><ele>168.5</ele><time>2026-04-19T08:28:23.91Z</time></trkpt><trkpt lat="44.54418" lon="10.6788267"><ele>170.0</ele><time>2026-04-19T08:28:24.908Z</time></trkpt><trkpt lat="44.5441333" lon="10.6789983"><ele>171.5</ele><time>2026-04-19T08:28:25.911Z</time></trkpt><trkpt lat="44.5441033" lon="10.6791683"><ele>173.0</ele><time>2026-04-19T08:28:26.912Z</time></trkpt><trkpt lat="44.544075" lon="10.6793317"><ele>172.25</ele><time>2026-04-19T08:28:27.908Z</time></trkpt><trkpt lat="44.5440367" lon="10.6794933"><ele>171.5</ele><time>2026-04-19T08:28:28.91Z</time></trkpt><trkpt lat="44.5439633" lon="10.6796483"><ele>170.75</ele><time>2026-04-19T08:28:29.91Z</time></trkpt><trkpt lat="44.5438717" lon="10.67978"><ele>170.0</ele><time>2026-04-19T08:28:30.914Z</time></trkpt><trkpt lat="44.5437767" lon="10.67991"><ele>171.25</ele><time>2026-04-19T08:28:31.911Z</time></trkpt><trkpt lat="44.5436833" lon="10.6800317"><ele>172.5</ele><time>2026-04-19T08:28:32.91Z</time></trkpt><trkpt lat="44.5435833" lon="10.680135"><ele>173.75</ele><time>2026-04-19T08:28:33.905Z</time></trkpt><trkpt lat="44.5434683" lon="10.680225"><ele>175.0</ele><time>2026-04-19T08:28:34.909Z</time></trkpt><trkpt lat="44.5433333" lon="10.6802917"><ele>175.0</ele><time>2026-04-19T08:28:35.909Z</time></trkpt><trkpt lat="44.54319" lon="10.680345"><ele>175.0</ele><time>2026-04-19T08:28:36.909Z</time></trkpt><trkpt lat="44.5430467" lon="10.6803867"><ele>175.0</ele><time>2026-04-19T08:28:37.918Z</time></trkpt><trkpt lat="44.5429117" lon="10.6804233"><ele>175.0</ele><time>2026-04-19T08:28:38.909Z</time></trkpt><trkpt lat="44.54278" lon="10.680455"><ele>177.25</ele><time>2026-04-19T08:28:39.909Z</time></trkpt><trkpt lat="44.5426467" lon="10.6804783"><ele>179.5</ele><time>2026-04-19T08:28:40.91Z</time></trkpt><trkpt lat="44.54251" lon="10.6804983"><ele>181.75</ele><time>2026-04-19T08:28:41.911Z</time></trkpt><trkpt lat="44.542375" lon="10.68051"><ele>184.0</ele><time>2026-04-19T08:28:42.908Z</time></trkpt><trkpt lat="44.542235" lon="10.6805167"><ele>184.0</ele><time>2026-04-19T08:28:43.907Z</time></trkpt><trkpt lat="44.5421067" lon="10.6805217"><ele>184.0</ele><time>2026-04-19T08:28:44.907Z</time></trkpt><trkpt lat="44.54199" lon="10.6805317"><ele>184.0</ele><time>2026-04-19T08:28:45.907Z</time></trkpt><trkpt lat="44.5418817" lon="10.680545"><ele>184.0</ele><time>2026-04-19T08:28:46.909Z</time></trkpt><trkpt lat="44.5417833" lon="10.6805533"><ele>185.2</ele><time>2026-04-19T08:28:47.909Z</time></trkpt><trkpt lat="44.5416783" lon="10.6805517"><ele>186.39999999999998</ele><time>2026-04-19T08:28:48.907Z</time></trkpt><trkpt lat="44.541575" lon="10.6805317"><ele>187.6</ele><time>2026-04-19T08:28:49.906Z</time></trkpt><trkpt lat="44.5414767" lon="10.6804917"><ele>188.8</ele><time>2026-04-19T08:28:50.91Z</time></trkpt><trkpt lat="44.5413817" lon="10.6804433"><ele>190.0</ele><time>2026-04-19T08:28:51.91Z</time></trkpt><trkpt lat="44.5412817" lon="10.6803617"><ele>191.25</ele><time>2026-04-19T08:28:52.911Z</time></trkpt><trkpt lat="44.541185" lon="10.6802383"><ele>192.5</ele><time>2026-04-19T08:28:53.91Z</time></trkpt><trkpt lat="44.5410933" lon="10.6801267"><ele>193.75</ele><time>2026-04-19T08:28:54.911Z</time></trkpt><trkpt lat="44.540985" lon="10.68004"><ele>195.0</ele><time>2026-04-19T08:28:55.909Z</time></trkpt><trkpt lat="44.5408717" lon="10.67998"><ele>195.0</ele><time>2026-04-19T08:28:56.91Z</time></trkpt><trkpt lat="44.5407567" lon="10.67993"><ele>195.0</ele><time>2026-04-19T08:28:57.908Z</time></trkpt><trkpt lat="44.540635" lon="10.67989"><ele>195.0</ele><time>2026-04-19T08:28:58.909Z</time></trkpt><trkpt lat="44.5405083" lon="10.6798567"><ele>195.0</ele><time>2026-04-19T08:28:59.91Z</time></trkpt><trkpt lat="44.540375" lon="10.6798233"><ele>195.75</ele><time>2026-04-19T08:29:00.907Z</time></trkpt><trkpt lat="44.54024" lon="10.6797917"><ele>196.5</ele><time>2026-04-19T08:29:01.91Z</time></trkpt><trkpt lat="44.540105" lon="10.6797567"><ele>197.25</ele><time>2026-04-19T08:29:02.908Z</time></trkpt><trkpt lat="44.53997" lon="10.679705"><ele>198.0</ele><time>2026-04-19T08:29:03.915Z</time></trkpt><trkpt lat="44.5398333" lon="10.67964"><ele>198.0</ele><time>2026-04-19T08:29:04.908Z</time></trkpt><trkpt lat="44.5397017" lon="10.6795767"><ele>198.0</ele><time>2026-04-19T08:29:05.909Z</time></trkpt><trkpt lat="44.539575" lon="10.6795133"><ele>198.0</ele><time>2026-04-19T08:29:06.907Z</time></trkpt><trkpt lat="44.5394433" lon="10.6794667"><ele>198.0</ele><time>2026-04-19T08:29:07.908Z</time></trkpt><trkpt lat="44.5393133" lon="10.6794333"><ele>199.25</ele><time>2026-04-19T08:29:08.911Z</time></trkpt><trkpt lat="44.539185" lon="10.6793933"><ele>200.5</ele><time>2026-04-19T08:29:09.907Z</time></trkpt><trkpt lat="44.5390683" lon="10.6793617"><ele>201.75</ele><time>2026-04-19T08:29:10.909Z</time></trkpt><trkpt lat="44.538965" lon="10.67933"><ele>203.0</ele><time>2026-04-19T08:29:11.91Z</time></trkpt><trkpt lat="44.538865" lon="10.6793"><ele>203.0</ele><time>2026-04-19T08:29:12.91Z</time></trkpt><trkpt lat="44.5387833" lon="10.679285"><ele>203.0</ele><time>2026-04-19T08:29:13.91Z</time></trkpt><trkpt lat="44.53872" lon="10.679285"><ele>203.0</ele><time>2026-04-19T08:29:14.911Z</time></trkpt><trkpt lat="44.5386167" lon="10.6792717"><ele>203.0</ele><time>2026-04-19T08:29:16.912Z</time></trkpt><trkpt lat="44.5385383" lon="10.6792283"><ele>203.0</ele><time>2026-04-19T08:29:18.906Z</time></trkpt><trkpt lat="44.5384783" lon="10.679085"><ele>202.8</ele><time>2026-04-19T08:29:20.911Z</time></trkpt><trkpt lat="44.538475" lon="10.6789733"><ele>202.60000000000002</ele><time>2026-04-19T08:29:21.91Z</time></trkpt><trkpt lat="44.5384717" lon="10.678855"><ele>202.39999999999998</ele><time>2026-04-19T08:29:22.912Z</time></trkpt><trkpt lat="44.5384667" lon="10.6787317"><ele>202.2</ele><time>2026-04-19T08:29:23.911Z</time></trkpt><trkpt lat="44.538475" lon="10.6785783"><ele>202.0</ele><time>2026-04-19T08:29:24.908Z</time></trkpt><trkpt lat="44.5384917" lon="10.6784333"><ele>202.0</ele><time>2026-04-19T08:29:25.91Z</time></trkpt><trkpt lat="44.53852" lon="10.6782883"><ele>202.0</ele><time>2026-04-19T08:29:26.911Z</time></trkpt><trkpt lat="44.5385017" lon="10.6781183"><ele>202.0</ele><time>2026-04-19T08:29:27.91Z</time></trkpt><trkpt lat="44.5384767" lon="10.6779383"><ele>202.0</ele><time>2026-04-19T08:29:28.91Z</time></trkpt><trkpt lat="44.538435" lon="10.6777483"><ele>201.0</ele><time>2026-04-19T08:29:29.909Z</time></trkpt><trkpt lat="44.53839" lon="10.677565"><ele>200.0</ele><time>2026-04-19T08:29:30.909Z</time></trkpt><trkpt lat="44.5383467" lon="10.6773867"><ele>199.0</ele><time>2026-04-19T08:29:31.911Z</time></trkpt><trkpt lat="44.5383217" lon="10.6772017"><ele>198.0</ele><time>2026-04-19T08:29:32.91Z</time></trkpt><trkpt lat="44.5383117" lon="10.67701"><ele>196.0</ele><time>2026-04-19T08:29:33.906Z</time></trkpt><trkpt lat="44.5383067" lon="10.6768167"><ele>194.0</ele><time>2026-04-19T08:29:34.911Z</time></trkpt><trkpt lat="44.5383017" lon="10.6766283"><ele>192.0</ele><time>2026-04-19T08:29:35.911Z</time></trkpt><trkpt lat="44.5382933" lon="10.6764333"><ele>190.0</ele><time>2026-04-19T08:29:36.906Z</time></trkpt><trkpt lat="44.5382867" lon="10.6762417"><ele>189.5</ele><time>2026-04-19T08:29:37.908Z</time></trkpt><trkpt lat="44.538275" lon="10.6760467"><ele>189.0</ele><time>2026-04-19T08:29:38.912Z</time></trkpt><trkpt lat="44.5382683" lon="10.6758467"><ele>188.5</ele><time>2026-04-19T08:29:39.911Z</time></trkpt><trkpt lat="44.538275" lon="10.6756517"><ele>188.0</ele><time>2026-04-19T08:29:40.911Z</time></trkpt><trkpt lat="44.53829" lon="10.67545"><ele>187.0</ele><time>2026-04-19T08:29:41.911Z</time></trkpt><trkpt lat="44.538305" lon="10.6752467"><ele>186.0</ele><time>2026-04-19T08:29:42.906Z</time></trkpt><trkpt lat="44.53831" lon="10.6750433"><ele>185.0</ele><time>2026-04-19T08:29:43.91Z</time></trkpt><trkpt lat="44.538315" lon="10.67485"><ele>184.0</ele><time>2026-04-19T08:29:44.909Z</time></trkpt><trkpt lat="44.538325" lon="10.6746617"><ele>184.0</ele><time>2026-04-19T08:29:45.91Z</time></trkpt><trkpt lat="44.5383333" lon="10.6744667"><ele>184.0</ele><time>2026-04-19T08:29:46.91Z</time></trkpt><trkpt lat="44.5383283" lon="10.6742733"><ele>184.0</ele><time>2026-04-19T08:29:47.908Z</time></trkpt><trkpt lat="44.5383133" lon="10.6740783"><ele>184.0</ele><time>2026-04-19T08:29:48.915Z</time></trkpt><trkpt lat="44.5382883" lon="10.67389"><ele>182.0</ele><time>2026-04-19T08:29:49.91Z</time></trkpt><trkpt lat="44.5382417" lon="10.6736917"><ele>180.0</ele><time>2026-04-19T08:29:50.912Z</time></trkpt><trkpt lat="44.5381833" lon="10.6735"><ele>178.0</ele><time>2026-04-19T08:29:51.909Z</time></trkpt><trkpt lat="44.5381267" lon="10.6733017"><ele>176.5</ele><time>2026-04-19T08:29:52.91Z</time></trkpt><trkpt lat="44.5380717" lon="10.6731133"><ele>175.0</ele><time>2026-04-19T08:29:53.91Z</time></trkpt><trkpt lat="44.5380133" lon="10.6729367"><ele>173.5</ele><time>2026-04-19T08:29:54.913Z</time></trkpt><trkpt lat="44.5379317" lon="10.67277"><ele>172.0</ele><time>2026-04-19T08:29:55.91Z</time></trkpt><trkpt lat="44.5378333" lon="10.6726083"><ele>171.25</ele><time>2026-04-19T08:29:56.911Z</time></trkpt><trkpt lat="44.53772" lon="10.6724683"><ele>170.5</ele><time>2026-04-19T08:29:57.908Z</time></trkpt><trkpt lat="44.5376067" lon="10.67235"><ele>169.75</ele><time>2026-04-19T08:29:58.91Z</time></trkpt><trkpt lat="44.537495" lon="10.6722483"><ele>169.0</ele><time>2026-04-19T08:29:59.906Z</time></trkpt><trkpt lat="44.5373833" lon="10.6721617"><ele>169.0</ele><time>2026-04-19T08:30:00.909Z</time></trkpt><trkpt lat="44.5372683" lon="10.6721067"><ele>169.0</ele><time>2026-04-19T08:30:01.909Z</time></trkpt><trkpt lat="44.5371433" lon="10.67207"><ele>169.0</ele><time>2026-04-19T08:30:02.911Z</time></trkpt><trkpt lat="44.5370117" lon="10.6720567"><ele>169.0</ele><time>2026-04-19T08:30:03.909Z</time></trkpt><trkpt lat="44.5368783" lon="10.6720433"><ele>169.0</ele><time>2026-04-19T08:30:04.911Z</time></trkpt><trkpt lat="44.53675" lon="10.6720367"><ele>169.0</ele><time>2026-04-19T08:30:05.91Z</time></trkpt><trkpt lat="44.5366267" lon="10.67203"><ele>169.0</ele><time>2026-04-19T08:30:06.908Z</time></trkpt><trkpt lat="44.536505" lon="10.672025"><ele>169.0</ele><time>2026-04-19T08:30:07.908Z</time></trkpt><trkpt lat="44.53639" lon="10.67201"><ele>169.0</ele><time>2026-04-19T08:30:08.911Z</time></trkpt><trkpt lat="44.53627" lon="10.6719933"><ele>169.0</ele><time>2026-04-19T08:30:09.91Z</time></trkpt><trkpt lat="44.536155" lon="10.671975"><ele>169.0</ele><time>2026-04-19T08:30:10.923Z</time></trkpt><trkpt lat="44.536045" lon="10.6719483"><ele>169.0</ele><time>2026-04-19T08:30:11.911Z</time></trkpt><trkpt lat="44.5359467" lon="10.671915"><ele>169.0</ele><time>2026-04-19T08:30:12.906Z</time></trkpt><trkpt lat="44.5358633" lon="10.6718717"><ele>169.33333333333334</ele><time>2026-04-19T08:30:13.907Z</time></trkpt><trkpt lat="44.535785" lon="10.6718433"><ele>169.66666666666669</ele><time>2026-04-19T08:30:14.911Z</time></trkpt><trkpt lat="44.5357133" lon="10.67182"><ele>170.0</ele><time>2026-04-19T08:30:15.91Z</time></trkpt><trkpt lat="44.5356567" lon="10.67174"><ele>170.33333333333334</ele><time>2026-04-19T08:30:17.908Z</time></trkpt><trkpt lat="44.5356633" lon="10.67162"><ele>170.66666666666666</ele><time>2026-04-19T08:30:19.911Z</time></trkpt><trkpt lat="44.535685" lon="10.6715167"><ele>171.0</ele><time>2026-04-19T08:30:20.907Z</time></trkpt><trkpt lat="44.5357067" lon="10.67139"><ele>171.0</ele><time>2026-04-19T08:30:21.91Z</time></trkpt><trkpt lat="44.5357283" lon="10.6712567"><ele>171.0</ele><time>2026-04-19T08:30:22.911Z</time></trkpt><trkpt lat="44.5357567" lon="10.671115"><ele>171.0</ele><time>2026-04-19T08:30:23.907Z</time></trkpt><trkpt lat="44.535785" lon="10.6709933"><ele>171.0</ele><time>2026-04-19T08:30:24.908Z</time></trkpt><trkpt lat="44.5358167" lon="10.67087"><ele>171.0</ele><time>2026-04-19T08:30:25.909Z</time></trkpt><trkpt lat="44.5358433" lon="10.670755"><ele>172.16666666666666</ele><time>2026-04-19T08:30:26.91Z</time></trkpt><trkpt lat="44.53587" lon="10.6706467"><ele>173.33333333333334</ele><time>2026-04-19T08:30:27.91Z</time></trkpt><trkpt lat="44.5358983" lon="10.6705367"><ele>174.5</ele><time>2026-04-19T08:30:28.91Z</time></trkpt><trkpt lat="44.53591" lon="10.6704467"><ele>175.66666666666669</ele><time>2026-04-19T08:30:29.9Z</time></trkpt><trkpt lat="44.5359083" lon="10.670335"><ele>176.83333333333334</ele><time>2026-04-19T08:30:30.909Z</time></trkpt><trkpt lat="44.5358817" lon="10.6702233"><ele>178.0</ele><time>2026-04-19T08:30:31.91Z</time></trkpt><trkpt lat="44.5358017" lon="10.6701617"><ele>179.33333333333334</ele><time>2026-04-19T08:30:32.912Z</time></trkpt><trkpt lat="44.5357317" lon="10.6700983"><ele>180.66666666666669</ele><time>2026-04-19T08:30:33.913Z</time></trkpt><trkpt lat="44.5356517" lon="10.6700517"><ele>182.0</ele><time>2026-04-19T08:30:34.911Z</time></trkpt><trkpt lat="44.5355817" lon="10.66999"><ele>183.33333333333334</ele><time>2026-04-19T08:30:35.91Z</time></trkpt><trkpt lat="44.5355" lon="10.6699567"><ele>184.66666666666666</ele><time>2026-04-19T08:30:36.911Z</time></trkpt><trkpt lat="44.53541" lon="10.669925"><ele>186.0</ele><time>2026-04-19T08:30:37.908Z</time></trkpt><trkpt lat="44.5353133" lon="10.6698617"><ele>187.8</ele><time>2026-04-19T08:30:38.908Z</time></trkpt><trkpt lat="44.535215" lon="10.669795"><ele>189.60000000000002</ele><time>2026-04-19T08:30:39.909Z</time></trkpt><trkpt lat="44.5351217" lon="10.66973"><ele>191.4</ele><time>2026-04-19T08:30:40.907Z</time></trkpt><trkpt lat="44.535025" lon="10.6696833"><ele>193.2</ele><time>2026-04-19T08:30:41.909Z</time></trkpt><trkpt lat="44.5349233" lon="10.66965"><ele>195.0</ele><time>2026-04-19T08:30:42.908Z</time></trkpt><trkpt lat="44.5348217" lon="10.6696117"><ele>195.0</ele><time>2026-04-19T08:30:43.909Z</time></trkpt><trkpt lat="44.53472" lon="10.6695783"><ele>195.0</ele><time>2026-04-19T08:30:44.911Z</time></trkpt><trkpt lat="44.5346333" lon="10.6695083"><ele>195.0</ele><time>2026-04-19T08:30:45.91Z</time></trkpt><trkpt lat="44.5345583" lon="10.669425"><ele>195.0</ele><time>2026-04-19T08:30:46.911Z</time></trkpt><trkpt lat="44.5345" lon="10.6693183"><ele>195.0</ele><time>2026-04-19T08:30:47.908Z</time></trkpt><trkpt lat="44.53446" lon="10.6692033"><ele>197.0</ele><time>2026-04-19T08:30:48.907Z</time></trkpt><trkpt lat="44.5344583" lon="10.66907"><ele>199.0</ele><time>2026-04-19T08:30:49.91Z</time></trkpt><trkpt lat="44.5344483" lon="10.6689367"><ele>201.0</ele><time>2026-04-19T08:30:50.905Z</time></trkpt><trkpt lat="44.5344083" lon="10.6688083"><ele>203.0</ele><time>2026-04-19T08:30:51.908Z</time></trkpt><trkpt lat="44.53436" lon="10.668685"><ele>205.0</ele><time>2026-04-19T08:30:52.918Z</time></trkpt><trkpt lat="44.5343217" lon="10.6685517"><ele>207.4</ele><time>2026-04-19T08:30:53.909Z</time></trkpt><trkpt lat="44.5343" lon="10.6684033"><ele>209.8</ele><time>2026-04-19T08:30:54.909Z</time></trkpt><trkpt lat="44.5343033" lon="10.668265"><ele>212.2</ele><time>2026-04-19T08:30:55.905Z</time></trkpt><trkpt lat="44.5343117" lon="10.6681317"><ele>214.6</ele><time>2026-04-19T08:30:56.909Z</time></trkpt><trkpt lat="44.5342933" lon="10.6680033"><ele>217.0</ele><time>2026-04-19T08:30:57.909Z</time></trkpt><trkpt lat="44.5342433" lon="10.6678933"><ele>217.0</ele><time>2026-04-19T08:30:58.91Z</time></trkpt><trkpt lat="44.5341583" lon="10.6678133"><ele>217.0</ele><time>2026-04-19T08:30:59.909Z</time></trkpt><trkpt lat="44.53406" lon="10.667775"><ele>217.0</ele><time>2026-04-19T08:31:00.904Z</time></trkpt><trkpt lat="44.5339567" lon="10.667755"><ele>217.0</ele><time>2026-04-19T08:31:01.907Z</time></trkpt><trkpt lat="44.5338617" lon="10.667715"><ele>217.0</ele><time>2026-04-19T08:31:02.911Z</time></trkpt><trkpt lat="44.5337817" lon="10.66764"><ele>219.2</ele><time>2026-04-19T08:31:03.911Z</time></trkpt><trkpt lat="44.5337017" lon="10.6675667"><ele>221.39999999999998</ele><time>2026-04-19T08:31:04.914Z</time></trkpt><trkpt lat="44.53362" lon="10.6674917"><ele>223.60000000000002</ele><time>2026-04-19T08:31:05.911Z</time></trkpt><trkpt lat="44.5335483" lon="10.6673967"><ele>225.8</ele><time>2026-04-19T08:31:06.909Z</time></trkpt><trkpt lat="44.5334883" lon="10.6672783"><ele>228.0</ele><time>2026-04-19T08:31:07.908Z</time></trkpt><trkpt lat="44.5334467" lon="10.66714"><ele>228.0</ele><time>2026-04-19T08:31:08.908Z</time></trkpt><trkpt lat="44.53342" lon="10.6669917"><ele>228.0</ele><time>2026-04-19T08:31:09.911Z</time></trkpt><trkpt lat="44.533395" lon="10.6668483"><ele>228.0</ele><time>2026-04-19T08:31:10.911Z</time></trkpt><trkpt lat="44.53338" lon="10.6667067"><ele>228.0</ele><time>2026-04-19T08:31:11.906Z</time></trkpt><trkpt lat="44.5333833" lon="10.66657"><ele>228.0</ele><time>2026-04-19T08:31:12.909Z</time></trkpt><trkpt lat="44.5333933" lon="10.666435"><ele>229.60000000000002</ele><time>2026-04-19T08:31:13.91Z</time></trkpt><trkpt lat="44.5333867" lon="10.6662883"><ele>231.20000000000002</ele><time>2026-04-19T08:31:14.91Z</time></trkpt><trkpt lat="44.53337" lon="10.666145"><ele>232.8</ele><time>2026-04-19T08:31:15.937Z</time></trkpt><trkpt lat="44.5333533" lon="10.6659933"><ele>234.4</ele><time>2026-04-19T08:31:16.911Z</time></trkpt><trkpt lat="44.5333533" lon="10.6658467"><ele>236.0</ele><time>2026-04-19T08:31:17.909Z</time></trkpt><trkpt lat="44.5333767" lon="10.665705"><ele>237.16666666666669</ele><time>2026-04-19T08:31:18.908Z</time></trkpt><trkpt lat="44.533405" lon="10.665565"><ele>238.33333333333334</ele><time>2026-04-19T08:31:19.907Z</time></trkpt><trkpt lat="44.5334183" lon="10.6654333"><ele>239.5</ele><time>2026-04-19T08:31:20.911Z</time></trkpt><trkpt lat="44.5334117" lon="10.6653067"><ele>240.66666666666669</ele><time>2026-04-19T08:31:21.911Z</time></trkpt><trkpt lat="44.5333917" lon="10.6652033"><ele>241.83333333333334</ele><time>2026-04-19T08:31:22.91Z</time></trkpt><trkpt lat="44.5333583" lon="10.6651133"><ele>243.0</ele><time>2026-04-19T08:31:23.91Z</time></trkpt><trkpt lat="44.5333017" lon="10.665045"><ele>243.5</ele><time>2026-04-19T08:31:24.909Z</time></trkpt><trkpt lat="44.5332217" lon="10.6650417"><ele>244.0</ele><time>2026-04-19T08:31:25.91Z</time></trkpt><trkpt lat="44.5331433" lon="10.6650333"><ele>244.5</ele><time>2026-04-19T08:31:26.911Z</time></trkpt><trkpt lat="44.5330667" lon="10.665065"><ele>245.0</ele><time>2026-04-19T08:31:27.907Z</time></trkpt><trkpt lat="44.5329817" lon="10.6651283"><ele>245.5</ele><time>2026-04-19T08:31:28.912Z</time></trkpt><trkpt lat="44.5328917" lon="10.665175"><ele>246.0</ele><time>2026-04-19T08:31:29.916Z</time></trkpt><trkpt lat="44.532805" lon="10.66521"><ele>249.0</ele><time>2026-04-19T08:31:30.909Z</time></trkpt><trkpt lat="44.5327" lon="10.6652083"><ele>252.00000000000003</ele><time>2026-04-19T08:31:31.952Z</time></trkpt><trkpt lat="44.5326017" lon="10.665185"><ele>255.00000000000003</ele><time>2026-04-19T08:31:32.912Z</time></trkpt><trkpt lat="44.5325033" lon="10.6651567"><ele>258.0</ele><time>2026-04-19T08:31:33.911Z</time></trkpt><trkpt lat="44.532405" lon="10.6651317"><ele>261.0</ele><time>2026-04-19T08:31:34.913Z</time></trkpt><trkpt lat="44.5323083" lon="10.66512"><ele>261.0</ele><time>2026-04-19T08:31:35.941Z</time></trkpt><trkpt lat="44.5322083" lon="10.66512"><ele>261.0</ele><time>2026-04-19T08:31:36.906Z</time></trkpt><trkpt lat="44.5321033" lon="10.66514"><ele>261.0</ele><time>2026-04-19T08:31:37.911Z</time></trkpt><trkpt lat="44.5319933" lon="10.6651517"><ele>261.0</ele><time>2026-04-19T08:31:38.912Z</time></trkpt><trkpt lat="44.53188" lon="10.665155"><ele>261.0</ele><time>2026-04-19T08:31:39.909Z</time></trkpt><trkpt lat="44.5317617" lon="10.6651467"><ele>263.2</ele><time>2026-04-19T08:31:40.911Z</time></trkpt><trkpt lat="44.5316483" lon="10.6651317"><ele>265.40000000000003</ele><time>2026-04-19T08:31:41.911Z</time></trkpt><trkpt lat="44.531535" lon="10.66511"><ele>267.6</ele><time>2026-04-19T08:31:42.91Z</time></trkpt><trkpt lat="44.5314317" lon="10.6650767"><ele>269.8</ele><time>2026-04-19T08:31:43.91Z</time></trkpt><trkpt lat="44.5313283" lon="10.6650417"><ele>272.0</ele><time>2026-04-19T08:31:44.91Z</time></trkpt><trkpt lat="44.53123" lon="10.6650067"><ele>273.5</ele><time>2026-04-19T08:31:45.911Z</time></trkpt><trkpt lat="44.5311333" lon="10.66497"><ele>275.0</ele><time>2026-04-19T08:31:46.912Z</time></trkpt><trkpt lat="44.5310283" lon="10.6649283"><ele>276.5</ele><time>2026-04-19T08:31:47.91Z</time></trkpt><trkpt lat="44.53092" lon="10.6648783"><ele>278.0</ele><time>2026-04-19T08:31:48.909Z</time></trkpt><trkpt lat="44.5307983" lon="10.6648283"><ele>278.0</ele><time>2026-04-19T08:31:49.911Z</time></trkpt><trkpt lat="44.5306833" lon="10.664775"><ele>278.0</ele><time>2026-04-19T08:31:50.907Z</time></trkpt><trkpt lat="44.53057" lon="10.6647317"><ele>278.0</ele><time>2026-04-19T08:31:51.91Z</time></trkpt><trkpt lat="44.5304683" lon="10.6646917"><ele>278.0</ele><time>2026-04-19T08:31:52.91Z</time></trkpt><trkpt lat="44.530365" lon="10.6646467"><ele>278.0</ele><time>2026-04-19T08:31:53.91Z</time></trkpt><trkpt lat="44.53026" lon="10.6645967"><ele>278.0</ele><time>2026-04-19T08:31:54.909Z</time></trkpt><trkpt lat="44.5301567" lon="10.66454"><ele>278.0</ele><time>2026-04-19T08:31:55.91Z</time></trkpt><trkpt lat="44.5300467" lon="10.6644817"><ele>278.0</ele><time>2026-04-19T08:31:56.911Z</time></trkpt><trkpt lat="44.5299367" lon="10.6644383"><ele>280.8</ele><time>2026-04-19T08:31:57.91Z</time></trkpt><trkpt lat="44.52982" lon="10.664415"><ele>283.6</ele><time>2026-04-19T08:31:58.91Z</time></trkpt><trkpt lat="44.5297083" lon="10.6643883"><ele>286.4</ele><time>2026-04-19T08:31:59.91Z</time></trkpt><trkpt lat="44.52961" lon="10.6643667"><ele>289.2</ele><time>2026-04-19T08:32:00.91Z</time></trkpt><trkpt lat="44.5295083" lon="10.6643367"><ele>292.0</ele><time>2026-04-19T08:32:01.91Z</time></trkpt><trkpt lat="44.5293983" lon="10.6643067"><ele>292.0</ele><time>2026-04-19T08:32:02.912Z</time></trkpt><trkpt lat="44.5292983" lon="10.6642583"><ele>292.0</ele><time>2026-04-19T08:32:03.911Z</time></trkpt><trkpt lat="44.5292033" lon="10.6642067"><ele>292.0</ele><time>2026-04-19T08:32:04.91Z</time></trkpt><trkpt lat="44.52911" lon="10.6641533"><ele>292.0</ele><time>2026-04-19T08:32:05.911Z</time></trkpt><trkpt lat="44.529015" lon="10.6640933"><ele>292.0</ele><time>2026-04-19T08:32:06.906Z</time></trkpt><trkpt lat="44.5289267" lon="10.6640267"><ele>292.0</ele><time>2026-04-19T08:32:07.907Z</time></trkpt><trkpt lat="44.5288533" lon="10.6639667"><ele>292.0</ele><time>2026-04-19T08:32:08.91Z</time></trkpt><trkpt lat="44.5287967" lon="10.663905"><ele>292.0</ele><time>2026-04-19T08:32:09.91Z</time></trkpt><trkpt lat="44.528745" lon="10.6638433"><ele>292.0</ele><time>2026-04-19T08:32:10.925Z</time></trkpt><trkpt lat="44.5287267" lon="10.6636733"><ele>292.0</ele><time>2026-04-19T08:32:12.908Z</time></trkpt><trkpt lat="44.5287483" lon="10.6635683"><ele>292.0</ele><time>2026-04-19T08:32:13.912Z</time></trkpt><trkpt lat="44.5287783" lon="10.6634733"><ele>293.5</ele><time>2026-04-19T08:32:14.912Z</time></trkpt><trkpt lat="44.5288233" lon="10.6633933"><ele>295.0</ele><time>2026-04-19T08:32:15.91Z</time></trkpt><trkpt lat="44.5288583" lon="10.663245"><ele>296.5</ele><time>2026-04-19T08:32:17.91Z</time></trkpt><trkpt lat="44.528805" lon="10.663145"><ele>298.0</ele><time>2026-04-19T08:32:19.907Z</time></trkpt><trkpt lat="44.5287417" lon="10.6631433"><ele>299.5</ele><time>2026-04-19T08:32:20.909Z</time></trkpt><trkpt lat="44.5286617" lon="10.66317"><ele>301.0</ele><time>2026-04-19T08:32:21.909Z</time></trkpt><trkpt lat="44.52857" lon="10.6631917"><ele>301.40000000000003</ele><time>2026-04-19T08:32:22.912Z</time></trkpt><trkpt lat="44.5284783" lon="10.663195"><ele>301.8</ele><time>2026-04-19T08:32:23.91Z</time></trkpt><trkpt lat="44.5283867" lon="10.6631917"><ele>302.20000000000005</ele><time>2026-04-19T08:32:24.906Z</time></trkpt><trkpt lat="44.5282933" lon="10.6631817"><ele>302.6</ele><time>2026-04-19T08:32:25.906Z</time></trkpt><trkpt lat="44.5282033" lon="10.663165"><ele>303.0</ele><time>2026-04-19T08:32:26.906Z</time></trkpt><trkpt lat="44.528115" lon="10.663145"><ele>303.0</ele><time>2026-04-19T08:32:27.908Z</time></trkpt><trkpt lat="44.5280217" lon="10.663135"><ele>303.0</ele><time>2026-04-19T08:32:28.912Z</time></trkpt><trkpt lat="44.5279317" lon="10.6631233"><ele>303.0</ele><time>2026-04-19T08:32:29.911Z</time></trkpt><trkpt lat="44.5278367" lon="10.6630983"><ele>303.0</ele><time>2026-04-19T08:32:30.906Z</time></trkpt><trkpt lat="44.52774" lon="10.66308"><ele>303.0</ele><time>2026-04-19T08:32:31.91Z</time></trkpt><trkpt lat="44.52764" lon="10.6630633"><ele>303.6</ele><time>2026-04-19T08:32:32.912Z</time></trkpt><trkpt lat="44.5275383" lon="10.66305"><ele>304.20000000000005</ele><time>2026-04-19T08:32:33.91Z</time></trkpt><trkpt lat="44.5274417" lon="10.6630383"><ele>304.8</ele><time>2026-04-19T08:32:34.911Z</time></trkpt><trkpt lat="44.52735" lon="10.6630217"><ele>305.40000000000003</ele><time>2026-04-19T08:32:35.909Z</time></trkpt><trkpt lat="44.52726" lon="10.663005"><ele>306.0</ele><time>2026-04-19T08:32:36.909Z</time></trkpt><trkpt lat="44.5271717" lon="10.6629883"><ele>306.0</ele><time>2026-04-19T08:32:37.908Z</time></trkpt><trkpt lat="44.5270833" lon="10.6629667"><ele>306.0</ele><time>2026-04-19T08:32:38.91Z</time></trkpt><trkpt lat="44.5269933" lon="10.6629467"><ele>306.0</ele><time>2026-04-19T08:32:39.908Z</time></trkpt><trkpt lat="44.5269017" lon="10.6629283"><ele>306.0</ele><time>2026-04-19T08:32:40.907Z</time></trkpt><trkpt lat="44.5268117" lon="10.6629067"><ele>306.0</ele><time>2026-04-19T08:32:41.907Z</time></trkpt><trkpt lat="44.5267217" lon="10.6628817"><ele>307.3333333333333</ele><time>2026-04-19T08:32:42.908Z</time></trkpt><trkpt lat="44.526635" lon="10.662855"><ele>308.6666666666667</ele><time>2026-04-19T08:32:43.912Z</time></trkpt><trkpt lat="44.5265517" lon="10.6628217"><ele>310.0</ele><time>2026-04-19T08:32:44.911Z</time></trkpt><trkpt lat="44.526475" lon="10.6627783"><ele>311.33333333333337</ele><time>2026-04-19T08:32:45.933Z</time></trkpt><trkpt lat="44.5263983" lon="10.66272"><ele>312.6666666666667</ele><time>2026-04-19T08:32:46.922Z</time></trkpt><trkpt lat="44.52632" lon="10.66265"><ele>314.0</ele><time>2026-04-19T08:32:47.912Z</time></trkpt><trkpt lat="44.5262483" lon="10.66257"><ele>315.79999999999995</ele><time>2026-04-19T08:32:48.908Z</time></trkpt><trkpt lat="44.52617" lon="10.66248"><ele>317.59999999999997</ele><time>2026-04-19T08:32:49.908Z</time></trkpt><trkpt lat="44.5260967" lon="10.66237"><ele>319.4</ele><time>2026-04-19T08:32:50.927Z</time></trkpt><trkpt lat="44.5260267" lon="10.662265"><ele>321.2</ele><time>2026-04-19T08:32:51.921Z</time></trkpt><trkpt lat="44.525955" lon="10.6621683"><ele>323.0</ele><time>2026-04-19T08:32:52.912Z</time></trkpt><trkpt lat="44.5258933" lon="10.6620783"><ele>323.0</ele><time>2026-04-19T08:32:53.912Z</time></trkpt><trkpt lat="44.5258417" lon="10.6620017"><ele>323.0</ele><time>2026-04-19T08:32:54.91Z</time></trkpt><trkpt lat="44.5257917" lon="10.6619133"><ele>323.0</ele><time>2026-04-19T08:32:55.914Z</time></trkpt><trkpt lat="44.5257633" lon="10.6618167"><ele>323.0</ele><time>2026-04-19T08:32:56.912Z</time></trkpt><trkpt lat="44.52576" lon="10.6617117"><ele>323.0</ele><time>2026-04-19T08:32:57.92Z</time></trkpt><trkpt lat="44.5257483" lon="10.6616033"><ele>323.0</ele><time>2026-04-19T08:32:58.911Z</time></trkpt><trkpt lat="44.5257233" lon="10.6614933"><ele>321.4</ele><time>2026-04-19T08:32:59.91Z</time></trkpt><trkpt lat="44.5256917" lon="10.6613767"><ele>319.79999999999995</ele><time>2026-04-19T08:33:00.911Z</time></trkpt><trkpt lat="44.525665" lon="10.661255"><ele>318.2</ele><time>2026-04-19T08:33:01.909Z</time></trkpt><trkpt lat="44.525625" lon="10.6611417"><ele>316.6</ele><time>2026-04-19T08:33:02.917Z</time></trkpt><trkpt lat="44.5256" lon="10.66102"><ele>315.0</ele><time>2026-04-19T08:33:03.916Z</time></trkpt><trkpt lat="44.5255917" lon="10.6608817"><ele>314.4</ele><time>2026-04-19T08:33:04.912Z</time></trkpt><trkpt lat="44.5255733" lon="10.6607567"><ele>313.8</ele><time>2026-04-19T08:33:05.91Z</time></trkpt><trkpt lat="44.5255467" lon="10.6606433"><ele>313.2</ele><time>2026-04-19T08:33:06.911Z</time></trkpt><trkpt lat="44.5255" lon="10.66053"><ele>312.6</ele><time>2026-04-19T08:33:07.919Z</time></trkpt><trkpt lat="44.525435" lon="10.660405"><ele>312.0</ele><time>2026-04-19T08:33:08.942Z</time></trkpt><trkpt lat="44.5253633" lon="10.6602733"><ele>308.5</ele><time>2026-04-19T08:33:09.912Z</time></trkpt><trkpt lat="44.52529" lon="10.6601467"><ele>305.0</ele><time>2026-04-19T08:33:10.914Z</time></trkpt><trkpt lat="44.525215" lon="10.6600217"><ele>301.5</ele><time>2026-04-19T08:33:11.912Z</time></trkpt><trkpt lat="44.5251383" lon="10.6599067"><ele>298.0</ele><time>2026-04-19T08:33:12.907Z</time></trkpt><trkpt lat="44.5250533" lon="10.6598083"><ele>298.0</ele><time>2026-04-19T08:33:13.913Z</time></trkpt><trkpt lat="44.52496" lon="10.659725"><ele>298.0</ele><time>2026-04-19T08:33:14.918Z</time></trkpt><trkpt lat="44.52485" lon="10.6596617"><ele>298.0</ele><time>2026-04-19T08:33:15.913Z</time></trkpt><trkpt lat="44.5247367" lon="10.6596117"><ele>298.0</ele><time>2026-04-19T08:33:16.922Z</time></trkpt><trkpt lat="44.52462" lon="10.6595717"><ele>297.5</ele><time>2026-04-19T08:33:17.91Z</time></trkpt><trkpt lat="44.5245" lon="10.6595417"><ele>297.0</ele><time>2026-04-19T08:33:18.91Z</time></trkpt><trkpt lat="44.5243817" lon="10.6595117"><ele>296.5</ele><time>2026-04-19T08:33:19.916Z</time></trkpt><trkpt lat="44.5242733" lon="10.65948"><ele>296.0</ele><time>2026-04-19T08:33:20.923Z</time></trkpt><trkpt lat="44.5241717" lon="10.6594483"><ele>298.0</ele><time>2026-04-19T08:33:21.915Z</time></trkpt><trkpt lat="44.5240767" lon="10.6594067"><ele>300.0</ele><time>2026-04-19T08:33:22.93Z</time></trkpt><trkpt lat="44.5239817" lon="10.65936"><ele>302.0</ele><time>2026-04-19T08:33:23.917Z</time></trkpt><trkpt lat="44.523885" lon="10.659315"><ele>304.0</ele><time>2026-04-19T08:33:24.917Z</time></trkpt><trkpt lat="44.523785" lon="10.6592717"><ele>306.0</ele><time>2026-04-19T08:33:25.917Z</time></trkpt><trkpt lat="44.52369" lon="10.65923"><ele>307.1666666666667</ele><time>2026-04-19T08:33:26.919Z</time></trkpt><trkpt lat="44.5236" lon="10.6591917"><ele>308.3333333333333</ele><time>2026-04-19T08:33:27.909Z</time></trkpt><trkpt lat="44.52352" lon="10.6591467"><ele>309.5</ele><time>2026-04-19T08:33:28.908Z</time></trkpt><trkpt lat="44.5234517" lon="10.6590933"><ele>310.66666666666663</ele><time>2026-04-19T08:33:29.923Z</time></trkpt><trkpt lat="44.5233933" lon="10.6590333"><ele>311.8333333333333</ele><time>2026-04-19T08:33:30.91Z</time></trkpt><trkpt lat="44.523345" lon="10.658955"><ele>313.0</ele><time>2026-04-19T08:33:31.927Z</time></trkpt><trkpt lat="44.523305" lon="10.6588433"><ele>313.0</ele><time>2026-04-19T08:33:32.925Z</time></trkpt><trkpt lat="44.52327" lon="10.6586983"><ele>313.0</ele><time>2026-04-19T08:33:33.918Z</time></trkpt><trkpt lat="44.523225" lon="10.6585733"><ele>313.0</ele><time>2026-04-19T08:33:34.913Z</time></trkpt><trkpt lat="44.523175" lon="10.6584383"><ele>313.0</ele><time>2026-04-19T08:33:35.909Z</time></trkpt><trkpt lat="44.5231167" lon="10.658295"><ele>313.0</ele><time>2026-04-19T08:33:36.91Z</time></trkpt><trkpt lat="44.523065" lon="10.6581367"><ele>312.6</ele><time>2026-04-19T08:33:37.92Z</time></trkpt><trkpt lat="44.5230183" lon="10.6579817"><ele>312.20000000000005</ele><time>2026-04-19T08:33:38.908Z</time></trkpt><trkpt lat="44.522965" lon="10.65784"><ele>311.8</ele><time>2026-04-19T08:33:39.912Z</time></trkpt><trkpt lat="44.5229167" lon="10.6577083"><ele>311.40000000000003</ele><time>2026-04-19T08:33:40.926Z</time></trkpt><trkpt lat="44.52287" lon="10.6575783"><ele>311.0</ele><time>2026-04-19T08:33:41.914Z</time></trkpt><trkpt lat="44.52282" lon="10.6574533"><ele>312.2</ele><time>2026-04-19T08:33:42.912Z</time></trkpt><trkpt lat="44.52277" lon="10.6573283"><ele>313.40000000000003</ele><time>2026-04-19T08:33:43.919Z</time></trkpt><trkpt lat="44.5227183" lon="10.6571967"><ele>314.6</ele><time>2026-04-19T08:33:44.926Z</time></trkpt><trkpt lat="44.52267" lon="10.65706"><ele>315.8</ele><time>2026-04-19T08:33:45.909Z</time></trkpt><trkpt lat="44.5226167" lon="10.65693"><ele>317.0</ele><time>2026-04-19T08:33:46.925Z</time></trkpt><trkpt lat="44.5225583" lon="10.6567883"><ele>318.4</ele><time>2026-04-19T08:33:47.909Z</time></trkpt><trkpt lat="44.5225" lon="10.6566433"><ele>319.79999999999995</ele><time>2026-04-19T08:33:48.912Z</time></trkpt><trkpt lat="44.522435" lon="10.65652"><ele>321.2</ele><time>2026-04-19T08:33:49.92Z</time></trkpt><trkpt lat="44.5223667" lon="10.6564017"><ele>322.59999999999997</ele><time>2026-04-19T08:33:50.924Z</time></trkpt><trkpt lat="44.5222983" lon="10.6562883"><ele>324.0</ele><time>2026-04-19T08:33:51.914Z</time></trkpt><trkpt lat="44.522225" lon="10.6561767"><ele>324.79999999999995</ele><time>2026-04-19T08:33:52.908Z</time></trkpt><trkpt lat="44.52215" lon="10.656065"><ele>325.59999999999997</ele><time>2026-04-19T08:33:53.923Z</time></trkpt><trkpt lat="44.52208" lon="10.6559483"><ele>326.4</ele><time>2026-04-19T08:33:54.917Z</time></trkpt><trkpt lat="44.5220117" lon="10.65583"><ele>327.2</ele><time>2026-04-19T08:33:55.921Z</time></trkpt><trkpt lat="44.52195" lon="10.6557017"><ele>328.0</ele><time>2026-04-19T08:33:56.911Z</time></trkpt><trkpt lat="44.52189" lon="10.65557"><ele>328.0</ele><time>2026-04-19T08:33:57.932Z</time></trkpt><trkpt lat="44.5218317" lon="10.6554383"><ele>328.0</ele><time>2026-04-19T08:33:58.911Z</time></trkpt><trkpt lat="44.5217717" lon="10.6553067"><ele>328.0</ele><time>2026-04-19T08:33:59.912Z</time></trkpt><trkpt lat="44.5217167" lon="10.6551783"><ele>328.0</ele><time>2026-04-19T08:34:00.906Z</time></trkpt><trkpt lat="44.521665" lon="10.6550517"><ele>328.0</ele><time>2026-04-19T08:34:01.908Z</time></trkpt><trkpt lat="44.5216117" lon="10.654935"><ele>328.79999999999995</ele><time>2026-04-19T08:34:02.919Z</time></trkpt><trkpt lat="44.5215517" lon="10.654825"><ele>329.6</ele><time>2026-04-19T08:34:03.908Z</time></trkpt><trkpt lat="44.5214783" lon="10.6547283"><ele>330.4</ele><time>2026-04-19T08:34:04.912Z</time></trkpt><trkpt lat="44.5213967" lon="10.6546433"><ele>331.20000000000005</ele><time>2026-04-19T08:34:05.947Z</time></trkpt><trkpt lat="44.52131" lon="10.6545667"><ele>332.0</ele><time>2026-04-19T08:34:06.939Z</time></trkpt><trkpt lat="44.5212233" lon="10.6545117"><ele>332.0</ele><time>2026-04-19T08:34:07.908Z</time></trkpt><trkpt lat="44.5211367" lon="10.6544617"><ele>332.0</ele><time>2026-04-19T08:34:08.911Z</time></trkpt><trkpt lat="44.521055" lon="10.6544133"><ele>332.0</ele><time>2026-04-19T08:34:09.943Z</time></trkpt><trkpt lat="44.5209883" lon="10.65436"><ele>332.0</ele><time>2026-04-19T08:34:10.913Z</time></trkpt><trkpt lat="44.5209317" lon="10.6543033"><ele>332.0</ele><time>2026-04-19T08:34:11.915Z</time></trkpt><trkpt lat="44.5208433" lon="10.6541967"><ele>332.0</ele><time>2026-04-19T08:34:13.911Z</time></trkpt><trkpt lat="44.5207783" lon="10.6541017"><ele>334.1666666666667</ele><time>2026-04-19T08:34:15.936Z</time></trkpt><trkpt lat="44.5207583" lon="10.6539667"><ele>336.33333333333337</ele><time>2026-04-19T08:34:17.908Z</time></trkpt><trkpt lat="44.520795" lon="10.6538067"><ele>338.5</ele><time>2026-04-19T08:34:19.907Z</time></trkpt><trkpt lat="44.520825" lon="10.6537233"><ele>340.6666666666667</ele><time>2026-04-19T08:34:20.911Z</time></trkpt><trkpt lat="44.5208583" lon="10.6536317"><ele>342.8333333333333</ele><time>2026-04-19T08:34:21.932Z</time></trkpt><trkpt lat="44.52089" lon="10.653525"><ele>345.0</ele><time>2026-04-19T08:34:22.912Z</time></trkpt><trkpt lat="44.5209167" lon="10.65341"><ele>346.0</ele><time>2026-04-19T08:34:23.933Z</time></trkpt><trkpt lat="44.5209267" lon="10.6532867"><ele>347.0</ele><time>2026-04-19T08:34:24.943Z</time></trkpt><trkpt lat="44.52093" lon="10.65316"><ele>348.0</ele><time>2026-04-19T08:34:25.936Z</time></trkpt><trkpt lat="44.52093" lon="10.653035"><ele>349.0</ele><time>2026-04-19T08:34:26.91Z</time></trkpt><trkpt lat="44.5209283" lon="10.6529117"><ele>350.0</ele><time>2026-04-19T08:34:27.907Z</time></trkpt><trkpt lat="44.5209283" lon="10.6527867"><ele>351.0</ele><time>2026-04-19T08:34:28.906Z</time></trkpt><trkpt lat="44.5209383" lon="10.652655"><ele>352.1666666666667</ele><time>2026-04-19T08:34:29.919Z</time></trkpt><trkpt lat="44.520955" lon="10.6525367"><ele>353.3333333333333</ele><time>2026-04-19T08:34:30.903Z</time></trkpt><trkpt lat="44.5209833" lon="10.6524267"><ele>354.5</ele><time>2026-04-19T08:34:31.932Z</time></trkpt><trkpt lat="44.521015" lon="10.6523233"><ele>355.66666666666663</ele><time>2026-04-19T08:34:32.91Z</time></trkpt><trkpt lat="44.5210517" lon="10.6522233"><ele>356.8333333333333</ele><time>2026-04-19T08:34:33.921Z</time></trkpt><trkpt lat="44.5210967" lon="10.652125"><ele>358.0</ele><time>2026-04-19T08:34:34.916Z</time></trkpt><trkpt lat="44.5211583" lon="10.65203"><ele>358.2</ele><time>2026-04-19T08:34:35.949Z</time></trkpt><trkpt lat="44.5212267" lon="10.6519383"><ele>358.4</ele><time>2026-04-19T08:34:36.937Z</time></trkpt><trkpt lat="44.5212967" lon="10.6518533"><ele>358.59999999999997</ele><time>2026-04-19T08:34:37.925Z</time></trkpt><trkpt lat="44.5213667" lon="10.6517667"><ele>358.79999999999995</ele><time>2026-04-19T08:34:38.915Z</time></trkpt><trkpt lat="44.5214383" lon="10.6516717"><ele>359.0</ele><time>2026-04-19T08:34:39.94Z</time></trkpt><trkpt lat="44.521495" lon="10.6515733"><ele>359.4</ele><time>2026-04-19T08:34:40.914Z</time></trkpt><trkpt lat="44.5215367" lon="10.65145"><ele>359.79999999999995</ele><time>2026-04-19T08:34:41.932Z</time></trkpt><trkpt lat="44.52155" lon="10.6513167"><ele>360.20000000000005</ele><time>2026-04-19T08:34:42.928Z</time></trkpt><trkpt lat="44.521565" lon="10.6511767"><ele>360.6</ele><time>2026-04-19T08:34:43.917Z</time></trkpt><trkpt lat="44.5215833" lon="10.6510383"><ele>361.0</ele><time>2026-04-19T08:34:44.913Z</time></trkpt><trkpt lat="44.5216117" lon="10.6509083"><ele>362.16666666666663</ele><time>2026-04-19T08:34:45.905Z</time></trkpt><trkpt lat="44.5216533" lon="10.650785"><ele>363.3333333333333</ele><time>2026-04-19T08:34:46.908Z</time></trkpt><trkpt lat="44.5216933" lon="10.65067"><ele>364.5</ele><time>2026-04-19T08:34:47.908Z</time></trkpt><trkpt lat="44.5217283" lon="10.650565"><ele>365.6666666666667</ele><time>2026-04-19T08:34:48.928Z</time></trkpt><trkpt lat="44.5217567" lon="10.6504667"><ele>366.83333333333337</ele><time>2026-04-19T08:34:49.908Z</time></trkpt><trkpt lat="44.5217783" lon="10.6503817"><ele>368.0</ele><time>2026-04-19T08:34:50.912Z</time></trkpt><trkpt lat="44.5218083" lon="10.6502533"><ele>369.4</ele><time>2026-04-19T08:34:52.912Z</time></trkpt><trkpt lat="44.5218167" lon="10.6501133"><ele>370.79999999999995</ele><time>2026-04-19T08:34:54.909Z</time></trkpt><trkpt lat="44.521815" lon="10.6499417"><ele>372.2</ele><time>2026-04-19T08:34:56.93Z</time></trkpt><trkpt lat="44.52182" lon="10.64984"><ele>373.6</ele><time>2026-04-19T08:34:57.91Z</time></trkpt><trkpt lat="44.521825" lon="10.64973"><ele>375.0</ele><time>2026-04-19T08:34:58.965Z</time></trkpt><trkpt lat="44.5218317" lon="10.6496133"><ele>375.0</ele><time>2026-04-19T08:34:59.92Z</time></trkpt><trkpt lat="44.5218367" lon="10.649485"><ele>375.0</ele><time>2026-04-19T08:35:00.906Z</time></trkpt><trkpt lat="44.5218317" lon="10.6493517"><ele>375.0</ele><time>2026-04-19T08:35:01.917Z</time></trkpt><trkpt lat="44.5218217" lon="10.649215"><ele>375.0</ele><time>2026-04-19T08:35:02.924Z</time></trkpt><trkpt lat="44.5218033" lon="10.6490783"><ele>375.0</ele><time>2026-04-19T08:35:03.917Z</time></trkpt><trkpt lat="44.5217817" lon="10.6489417"><ele>375.2</ele><time>2026-04-19T08:35:04.916Z</time></trkpt><trkpt lat="44.5217517" lon="10.6488033"><ele>375.4</ele><time>2026-04-19T08:35:05.911Z</time></trkpt><trkpt lat="44.5217217" lon="10.6486633"><ele>375.6</ele><time>2026-04-19T08:35:06.911Z</time></trkpt><trkpt lat="44.52169" lon="10.6485183"><ele>375.8</ele><time>2026-04-19T08:35:07.909Z</time></trkpt><trkpt lat="44.5216683" lon="10.648365"><ele>376.0</ele><time>2026-04-19T08:35:08.914Z</time></trkpt><trkpt lat="44.52165" lon="10.6482117"><ele>376.4</ele><time>2026-04-19T08:35:09.949Z</time></trkpt><trkpt lat="44.521635" lon="10.6480617"><ele>376.8</ele><time>2026-04-19T08:35:10.912Z</time></trkpt><trkpt lat="44.52162" lon="10.6479133"><ele>377.2</ele><time>2026-04-19T08:35:11.936Z</time></trkpt><trkpt lat="44.5216067" lon="10.6477633"><ele>377.59999999999997</ele><time>2026-04-19T08:35:12.921Z</time></trkpt><trkpt lat="44.5216" lon="10.6476133"><ele>378.0</ele><time>2026-04-19T08:35:13.912Z</time></trkpt><trkpt lat="44.5215983" lon="10.647455"><ele>378.5</ele><time>2026-04-19T08:35:14.907Z</time></trkpt><trkpt lat="44.5215967" lon="10.6472967"><ele>379.0</ele><time>2026-04-19T08:35:15.911Z</time></trkpt><trkpt lat="44.5215917" lon="10.64714"><ele>379.5</ele><time>2026-04-19T08:35:16.973Z</time></trkpt><trkpt lat="44.5215867" lon="10.64698"><ele>380.0</ele><time>2026-04-19T08:35:17.923Z</time></trkpt><trkpt lat="44.5215883" lon="10.64682"><ele>380.0</ele><time>2026-04-19T08:35:18.91Z</time></trkpt><trkpt lat="44.5215933" lon="10.6466717"><ele>380.0</ele><time>2026-04-19T08:35:19.924Z</time></trkpt><trkpt lat="44.5216" lon="10.6465267"><ele>380.0</ele><time>2026-04-19T08:35:20.912Z</time></trkpt><trkpt lat="44.5216117" lon="10.6463817"><ele>380.0</ele><time>2026-04-19T08:35:21.918Z</time></trkpt><trkpt lat="44.5216267" lon="10.6462367"><ele>380.0</ele><time>2026-04-19T08:35:22.983Z</time></trkpt><trkpt lat="44.5216517" lon="10.6460933"><ele>380.0</ele><time>2026-04-19T08:35:23.931Z</time></trkpt><trkpt lat="44.5216983" lon="10.6459533"><ele>380.0</ele><time>2026-04-19T08:35:24.908Z</time></trkpt><trkpt lat="44.52174" lon="10.6458133"><ele>380.0</ele><time>2026-04-19T08:35:25.971Z</time></trkpt><trkpt lat="44.5217683" lon="10.6456633"><ele>380.0</ele><time>2026-04-19T08:35:26.953Z</time></trkpt><trkpt lat="44.5217867" lon="10.6455167"><ele>380.0</ele><time>2026-04-19T08:35:27.912Z</time></trkpt><trkpt lat="44.5217883" lon="10.6453667"><ele>379.8</ele><time>2026-04-19T08:35:28.912Z</time></trkpt><trkpt lat="44.5217817" lon="10.64521"><ele>379.6</ele><time>2026-04-19T08:35:29.908Z</time></trkpt><trkpt lat="44.52177" lon="10.6450583"><ele>379.4</ele><time>2026-04-19T08:35:30.91Z</time></trkpt><trkpt lat="44.5217483" lon="10.644925"><ele>379.2</ele><time>2026-04-19T08:35:31.923Z</time></trkpt><trkpt lat="44.52171" lon="10.6448"><ele>379.0</ele><time>2026-04-19T08:35:32.908Z</time></trkpt><trkpt lat="44.5216583" lon="10.6446867"><ele>379.0</ele><time>2026-04-19T08:35:33.949Z</time></trkpt><trkpt lat="44.521615" lon="10.6445783"><ele>379.0</ele><time>2026-04-19T08:35:34.911Z</time></trkpt><trkpt lat="44.521585" lon="10.6444617"><ele>379.0</ele><time>2026-04-19T08:35:35.951Z</time></trkpt><trkpt lat="44.52158" lon="10.6443333"><ele>379.0</ele><time>2026-04-19T08:35:36.91Z</time></trkpt><trkpt lat="44.5216083" lon="10.6441883"><ele>379.0</ele><time>2026-04-19T08:35:37.945Z</time></trkpt><trkpt lat="44.5216533" lon="10.6440217"><ele>378.75</ele><time>2026-04-19T08:35:38.912Z</time></trkpt><trkpt lat="44.5216933" lon="10.6438583"><ele>378.5</ele><time>2026-04-19T08:35:39.911Z</time></trkpt><trkpt lat="44.5217383" lon="10.64369"><ele>378.25</ele><time>2026-04-19T08:35:40.914Z</time></trkpt><trkpt lat="44.5217717" lon="10.643515"><ele>378.0</ele><time>2026-04-19T08:35:41.914Z</time></trkpt><trkpt lat="44.5218" lon="10.6433283"><ele>376.75</ele><time>2026-04-19T08:35:42.916Z</time></trkpt><trkpt lat="44.5218183" lon="10.6431433"><ele>375.5</ele><time>2026-04-19T08:35:43.91Z</time></trkpt><trkpt lat="44.521825" lon="10.642965"><ele>374.25</ele><time>2026-04-19T08:35:44.91Z</time></trkpt><trkpt lat="44.52183" lon="10.6427967"><ele>373.0</ele><time>2026-04-19T08:35:45.909Z</time></trkpt><trkpt lat="44.521835" lon="10.6426333"><ele>372.5</ele><time>2026-04-19T08:35:46.91Z</time></trkpt><trkpt lat="44.5218367" lon="10.6424733"><ele>372.0</ele><time>2026-04-19T08:35:47.908Z</time></trkpt><trkpt lat="44.521835" lon="10.64231"><ele>371.5</ele><time>2026-04-19T08:35:48.909Z</time></trkpt><trkpt lat="44.5218417" lon="10.6421467"><ele>371.0</ele><time>2026-04-19T08:35:49.916Z</time></trkpt><trkpt lat="44.52186" lon="10.64199"><ele>370.8</ele><time>2026-04-19T08:35:50.909Z</time></trkpt><trkpt lat="44.5218883" lon="10.64186"><ele>370.6</ele><time>2026-04-19T08:35:51.909Z</time></trkpt><trkpt lat="44.5219267" lon="10.64174"><ele>370.4</ele><time>2026-04-19T08:35:52.92Z</time></trkpt><trkpt lat="44.5219483" lon="10.641615"><ele>370.2</ele><time>2026-04-19T08:35:53.908Z</time></trkpt><trkpt lat="44.5219367" lon="10.6414783"><ele>370.0</ele><time>2026-04-19T08:35:54.908Z</time></trkpt><trkpt lat="44.5219017" lon="10.6413383"><ele>370.0</ele><time>2026-04-19T08:35:55.909Z</time></trkpt><trkpt lat="44.52186" lon="10.6411933"><ele>370.0</ele><time>2026-04-19T08:35:56.909Z</time></trkpt><trkpt lat="44.5218167" lon="10.6410483"><ele>370.0</ele><time>2026-04-19T08:35:57.915Z</time></trkpt><trkpt lat="44.5217783" lon="10.640905"><ele>370.0</ele><time>2026-04-19T08:35:58.944Z</time></trkpt><trkpt lat="44.52176" lon="10.640745"><ele>370.0</ele><time>2026-04-19T08:35:59.932Z</time></trkpt><trkpt lat="44.5217483" lon="10.64057"><ele>371.0</ele><time>2026-04-19T08:36:00.917Z</time></trkpt><trkpt lat="44.5217383" lon="10.6403917"><ele>372.0</ele><time>2026-04-19T08:36:01.934Z</time></trkpt><trkpt lat="44.5217217" lon="10.6402083"><ele>373.0</ele><time>2026-04-19T08:36:02.92Z</time></trkpt><trkpt lat="44.5217" lon="10.6400283"><ele>374.0</ele><time>2026-04-19T08:36:03.927Z</time></trkpt><trkpt lat="44.521675" lon="10.6398567"><ele>376.0</ele><time>2026-04-19T08:36:04.908Z</time></trkpt><trkpt lat="44.5216483" lon="10.639675"><ele>378.0</ele><time>2026-04-19T08:36:05.902Z</time></trkpt><trkpt lat="44.521625" lon="10.6394967"><ele>380.0</ele><time>2026-04-19T08:36:06.919Z</time></trkpt><trkpt lat="44.5216033" lon="10.6393233"><ele>382.0</ele><time>2026-04-19T08:36:07.923Z</time></trkpt><trkpt lat="44.5215817" lon="10.63915"><ele>382.5</ele><time>2026-04-19T08:36:08.912Z</time></trkpt><trkpt lat="44.5215567" lon="10.6389883"><ele>383.0</ele><time>2026-04-19T08:36:09.908Z</time></trkpt><trkpt lat="44.521535" lon="10.6388217"><ele>383.5</ele><time>2026-04-19T08:36:10.91Z</time></trkpt><trkpt lat="44.521505" lon="10.6386533"><ele>384.0</ele><time>2026-04-19T08:36:11.908Z</time></trkpt><trkpt lat="44.5214667" lon="10.638485"><ele>382.5</ele><time>2026-04-19T08:36:12.899Z</time></trkpt><trkpt lat="44.521415" lon="10.6383267"><ele>381.0</ele><time>2026-04-19T08:36:13.929Z</time></trkpt><trkpt lat="44.52136" lon="10.6381667"><ele>379.5</ele><time>2026-04-19T08:36:14.944Z</time></trkpt><trkpt lat="44.5213083" lon="10.6380133"><ele>378.0</ele><time>2026-04-19T08:36:15.909Z</time></trkpt><trkpt lat="44.5212567" lon="10.6378583"><ele>376.0</ele><time>2026-04-19T08:36:16.93Z</time></trkpt><trkpt lat="44.5212183" lon="10.637695"><ele>374.0</ele><time>2026-04-19T08:36:17.908Z</time></trkpt><trkpt lat="44.5211883" lon="10.6375283"><ele>372.0</ele><time>2026-04-19T08:36:18.903Z</time></trkpt><trkpt lat="44.52116" lon="10.63736"><ele>370.0</ele><time>2026-04-19T08:36:19.907Z</time></trkpt><trkpt lat="44.52113" lon="10.6371967"><ele>370.0</ele><time>2026-04-19T08:36:20.906Z</time></trkpt><trkpt lat="44.5211033" lon="10.6370433"><ele>370.0</ele><time>2026-04-19T08:36:21.91Z</time></trkpt><trkpt lat="44.5210717" lon="10.6369033"><ele>370.0</ele><time>2026-04-19T08:36:22.922Z</time></trkpt><trkpt lat="44.5210283" lon="10.6367667"><ele>370.0</ele><time>2026-04-19T08:36:23.955Z</time></trkpt><trkpt lat="44.5209783" lon="10.63663"><ele>370.0</ele><time>2026-04-19T08:36:24.932Z</time></trkpt><trkpt lat="44.5209217" lon="10.6365"><ele>372.25</ele><time>2026-04-19T08:36:25.907Z</time></trkpt><trkpt lat="44.52085" lon="10.636385"><ele>374.5</ele><time>2026-04-19T08:36:26.913Z</time></trkpt><trkpt lat="44.520765" lon="10.6362783"><ele>376.75</ele><time>2026-04-19T08:36:27.908Z</time></trkpt><trkpt lat="44.5206683" lon="10.6361917"><ele>379.0</ele><time>2026-04-19T08:36:28.911Z</time></trkpt><trkpt lat="44.5205633" lon="10.6361083"><ele>379.0</ele><time>2026-04-19T08:36:29.934Z</time></trkpt><trkpt lat="44.520455" lon="10.6360233"><ele>379.0</ele><time>2026-04-19T08:36:30.923Z</time></trkpt><trkpt lat="44.520345" lon="10.635925"><ele>379.0</ele><time>2026-04-19T08:36:31.953Z</time></trkpt><trkpt lat="44.520245" lon="10.6358067"><ele>379.0</ele><time>2026-04-19T08:36:32.92Z</time></trkpt><trkpt lat="44.5201617" lon="10.6356733"><ele>380.25</ele><time>2026-04-19T08:36:33.943Z</time></trkpt><trkpt lat="44.520085" lon="10.6355333"><ele>381.5</ele><time>2026-04-19T08:36:34.912Z</time></trkpt><trkpt lat="44.5200217" lon="10.635385"><ele>382.75</ele><time>2026-04-19T08:36:35.909Z</time></trkpt><trkpt lat="44.5199567" lon="10.6352517"><ele>384.0</ele><time>2026-04-19T08:36:36.908Z</time></trkpt><trkpt lat="44.519905" lon="10.6351117"><ele>385.25</ele><time>2026-04-19T08:36:37.909Z</time></trkpt><trkpt lat="44.519865" lon="10.6349633"><ele>386.5</ele><time>2026-04-19T08:36:38.931Z</time></trkpt><trkpt lat="44.5198417" lon="10.6348017"><ele>387.75</ele><time>2026-04-19T08:36:39.932Z</time></trkpt><trkpt lat="44.5198383" lon="10.6346367"><ele>389.0</ele><time>2026-04-19T08:36:40.909Z</time></trkpt><trkpt lat="44.519855" lon="10.63447"><ele>390.75</ele><time>2026-04-19T08:36:41.954Z</time></trkpt><trkpt lat="44.51989" lon="10.6343083"><ele>392.5</ele><time>2026-04-19T08:36:42.94Z</time></trkpt><trkpt lat="44.519935" lon="10.634145"><ele>394.25</ele><time>2026-04-19T08:36:43.927Z</time></trkpt><trkpt lat="44.5199917" lon="10.6339833"><ele>396.0</ele><time>2026-04-19T08:36:44.923Z</time></trkpt><trkpt lat="44.5200683" lon="10.63384"><ele>396.0</ele><time>2026-04-19T08:36:45.912Z</time></trkpt><trkpt lat="44.5201583" lon="10.6337183"><ele>396.0</ele><time>2026-04-19T08:36:46.935Z</time></trkpt><trkpt lat="44.5202483" lon="10.633625"><ele>396.0</ele><time>2026-04-19T08:36:47.92Z</time></trkpt><trkpt lat="44.520335" lon="10.6335717"><ele>396.0</ele><time>2026-04-19T08:36:48.911Z</time></trkpt><trkpt lat="44.5204267" lon="10.6335633"><ele>396.0</ele><time>2026-04-19T08:36:49.936Z</time></trkpt><trkpt lat="44.5205117" lon="10.6336117"><ele>398.75</ele><time>2026-04-19T08:36:50.907Z</time></trkpt><trkpt lat="44.520595" lon="10.6337083"><ele>401.5</ele><time>2026-04-19T08:36:51.947Z</time></trkpt><trkpt lat="44.5206783" lon="10.6338383"><ele>404.25</ele><time>2026-04-19T08:36:52.928Z</time></trkpt><trkpt lat="44.52076" lon="10.63398"><ele>407.0</ele><time>2026-04-19T08:36:53.902Z</time></trkpt><trkpt lat="44.5208433" lon="10.6341167"><ele>407.0</ele><time>2026-04-19T08:36:54.928Z</time></trkpt><trkpt lat="44.5209167" lon="10.6342517"><ele>407.0</ele><time>2026-04-19T08:36:55.953Z</time></trkpt><trkpt lat="44.52098" lon="10.6343533"><ele>407.0</ele><time>2026-04-19T08:36:56.915Z</time></trkpt><trkpt lat="44.5210383" lon="10.6344283"><ele>407.0</ele><time>2026-04-19T08:36:57.932Z</time></trkpt><trkpt lat="44.521095" lon="10.6344667"><ele>407.0</ele><time>2026-04-19T08:36:58.924Z</time></trkpt><trkpt lat="44.52119" lon="10.6343833"><ele>407.0</ele><time>2026-04-19T08:37:00.907Z</time></trkpt><trkpt lat="44.5211767" lon="10.634275"><ele>407.0</ele><time>2026-04-19T08:37:01.911Z</time></trkpt><trkpt lat="44.5211383" lon="10.63416"><ele>407.0</ele><time>2026-04-19T08:37:02.907Z</time></trkpt><trkpt lat="44.521085" lon="10.6340433"><ele>407.0</ele><time>2026-04-19T08:37:03.948Z</time></trkpt><trkpt lat="44.5210283" lon="10.63392"><ele>407.0</ele><time>2026-04-19T08:37:04.912Z</time></trkpt><trkpt lat="44.520975" lon="10.6337867"><ele>407.0</ele><time>2026-04-19T08:37:05.947Z</time></trkpt><trkpt lat="44.520935" lon="10.633645"><ele>407.0</ele><time>2026-04-19T08:37:06.934Z</time></trkpt><trkpt lat="44.5209067" lon="10.6334967"><ele>407.0</ele><time>2026-04-19T08:37:07.913Z</time></trkpt><trkpt lat="44.520885" lon="10.6333467"><ele>407.0</ele><time>2026-04-19T08:37:08.935Z</time></trkpt><trkpt lat="44.5208683" lon="10.63319"><ele>407.0</ele><time>2026-04-19T08:37:09.923Z</time></trkpt><trkpt lat="44.5208567" lon="10.6330283"><ele>409.40000000000003</ele><time>2026-04-19T08:37:10.907Z</time></trkpt><trkpt lat="44.5208517" lon="10.63287"><ele>411.8</ele><time>2026-04-19T08:37:11.907Z</time></trkpt><trkpt lat="44.5208533" lon="10.6327183"><ele>414.2</ele><time>2026-04-19T08:37:12.913Z</time></trkpt><trkpt lat="44.5208583" lon="10.63258"><ele>416.6</ele><time>2026-04-19T08:37:13.908Z</time></trkpt><trkpt lat="44.520865" lon="10.63245"><ele>419.0</ele><time>2026-04-19T08:37:14.917Z</time></trkpt><trkpt lat="44.5208667" lon="10.632325"><ele>420.99999999999994</ele><time>2026-04-19T08:37:15.91Z</time></trkpt><trkpt lat="44.5208433" lon="10.6322267"><ele>423.0</ele><time>2026-04-19T08:37:16.913Z</time></trkpt><trkpt lat="44.52082" lon="10.63212"><ele>425.0</ele><time>2026-04-19T08:37:17.913Z</time></trkpt><trkpt lat="44.5207717" lon="10.6320417"><ele>427.0</ele><time>2026-04-19T08:37:18.909Z</time></trkpt><trkpt lat="44.5207067" lon="10.6319817"><ele>428.99999999999994</ele><time>2026-04-19T08:37:19.956Z</time></trkpt><trkpt lat="44.5206217" lon="10.6319367"><ele>431.0</ele><time>2026-04-19T08:37:20.908Z</time></trkpt><trkpt lat="44.520515" lon="10.6319"><ele>431.6</ele><time>2026-04-19T08:37:21.911Z</time></trkpt><trkpt lat="44.5204183" lon="10.63185"><ele>432.20000000000005</ele><time>2026-04-19T08:37:22.936Z</time></trkpt><trkpt lat="44.5203317" lon="10.63178"><ele>432.79999999999995</ele><time>2026-04-19T08:37:23.912Z</time></trkpt><trkpt lat="44.5202517" lon="10.631705"><ele>433.4</ele><time>2026-04-19T08:37:24.91Z</time></trkpt><trkpt lat="44.52018" lon="10.6316233"><ele>434.0</ele><time>2026-04-19T08:37:25.912Z</time></trkpt><trkpt lat="44.5201083" lon="10.6315367"><ele>433.99999999999994</ele><time>2026-04-19T08:37:26.92Z</time></trkpt><trkpt lat="44.52004" lon="10.63145"><ele>434.0</ele><time>2026-04-19T08:37:27.91Z</time></trkpt><trkpt lat="44.51998" lon="10.631365"><ele>434.0</ele><time>2026-04-19T08:37:28.95Z</time></trkpt><trkpt lat="44.5199233" lon="10.6312917"><ele>434.0</ele><time>2026-04-19T08:37:29.915Z</time></trkpt><trkpt lat="44.5198583" lon="10.63124"><ele>433.99999999999994</ele><time>2026-04-19T08:37:30.908Z</time></trkpt><trkpt lat="44.519785" lon="10.6312033"><ele>434.0</ele><time>2026-04-19T08:37:31.998Z</time></trkpt><trkpt lat="44.5196883" lon="10.6311983"><ele>434.0</ele><time>2026-04-19T08:37:32.913Z</time></trkpt><trkpt lat="44.5195817" lon="10.6312083"><ele>434.0</ele><time>2026-04-19T08:37:33.9Z</time></trkpt><trkpt lat="44.5194717" lon="10.6312333"><ele>434.0</ele><time>2026-04-19T08:37:34.913Z</time></trkpt><trkpt lat="44.51936" lon="10.631275"><ele>434.0</ele><time>2026-04-19T08:37:35.909Z</time></trkpt><trkpt lat="44.51925" lon="10.6313317"><ele>434.4</ele><time>2026-04-19T08:37:36.909Z</time></trkpt><trkpt lat="44.5191483" lon="10.6314033"><ele>434.79999999999995</ele><time>2026-04-19T08:37:37.923Z</time></trkpt><trkpt lat="44.5190567" lon="10.6314817"><ele>435.20000000000005</ele><time>2026-04-19T08:37:38.916Z</time></trkpt><trkpt lat="44.5189767" lon="10.6315867"><ele>435.6</ele><time>2026-04-19T08:37:39.928Z</time></trkpt><trkpt lat="44.5189067" lon="10.6317067"><ele>436.0</ele><time>2026-04-19T08:37:40.922Z</time></trkpt><trkpt lat="44.5188433" lon="10.6318383"><ele>436.0</ele><time>2026-04-19T08:37:41.911Z</time></trkpt><trkpt lat="44.5187733" lon="10.63196"><ele>436.0</ele><time>2026-04-19T08:37:43.082Z</time></trkpt><trkpt lat="44.5185967" lon="10.6321083"><ele>436.0</ele><time>2026-04-19T08:37:44.912Z</time></trkpt><trkpt lat="44.5184967" lon="10.63214"><ele>436.0</ele><time>2026-04-19T08:37:45.922Z</time></trkpt><trkpt lat="44.5184083" lon="10.632185"><ele>438.8</ele><time>2026-04-19T08:37:46.929Z</time></trkpt><trkpt lat="44.5183267" lon="10.6322633"><ele>441.6</ele><time>2026-04-19T08:37:47.917Z</time></trkpt><trkpt lat="44.51825" lon="10.6323617"><ele>444.4</ele><time>2026-04-19T08:37:48.928Z</time></trkpt><trkpt lat="44.51818" lon="10.632455"><ele>447.2</ele><time>2026-04-19T08:37:49.939Z</time></trkpt><trkpt lat="44.51812" lon="10.63253"><ele>450.0</ele><time>2026-04-19T08:37:50.914Z</time></trkpt><trkpt lat="44.5180633" lon="10.6325983"><ele>450.0</ele><time>2026-04-19T08:37:51.952Z</time></trkpt><trkpt lat="44.5180017" lon="10.6326717"><ele>450.0</ele><time>2026-04-19T08:37:52.925Z</time></trkpt><trkpt lat="44.5179433" lon="10.6327483"><ele>450.0</ele><time>2026-04-19T08:37:53.909Z</time></trkpt><trkpt lat="44.51788" lon="10.6328167"><ele>450.0</ele><time>2026-04-19T08:37:54.909Z</time></trkpt><trkpt lat="44.517815" lon="10.6328767"><ele>450.0</ele><time>2026-04-19T08:37:55.91Z</time></trkpt><trkpt lat="44.5177483" lon="10.6329267"><ele>450.0</ele><time>2026-04-19T08:37:56.907Z</time></trkpt><trkpt lat="44.5176733" lon="10.632965"><ele>451.6</ele><time>2026-04-19T08:37:57.926Z</time></trkpt><trkpt lat="44.517595" lon="10.6329867"><ele>453.2</ele><time>2026-04-19T08:37:58.929Z</time></trkpt><trkpt lat="44.51751" lon="10.6329767"><ele>454.79999999999995</ele><time>2026-04-19T08:37:59.952Z</time></trkpt><trkpt lat="44.51742" lon="10.6329317"><ele>456.4</ele><time>2026-04-19T08:38:00.907Z</time></trkpt><trkpt lat="44.5173317" lon="10.63285"><ele>458.0</ele><time>2026-04-19T08:38:01.908Z</time></trkpt><trkpt lat="44.5172483" lon="10.632765"><ele>458.0</ele><time>2026-04-19T08:38:02.907Z</time></trkpt><trkpt lat="44.5171633" lon="10.6326767"><ele>457.99999999999994</ele><time>2026-04-19T08:38:03.909Z</time></trkpt><trkpt lat="44.5170733" lon="10.63259"><ele>457.99999999999994</ele><time>2026-04-19T08:38:04.909Z</time></trkpt><trkpt lat="44.5169783" lon="10.6325117"><ele>458.0</ele><time>2026-04-19T08:38:05.952Z</time></trkpt><trkpt lat="44.5168733" lon="10.6324467"><ele>458.0</ele><time>2026-04-19T08:38:06.947Z</time></trkpt><trkpt lat="44.5167583" lon="10.6324017"><ele>459.75</ele><time>2026-04-19T08:38:07.907Z</time></trkpt><trkpt lat="44.5166433" lon="10.6323833"><ele>461.5</ele><time>2026-04-19T08:38:08.917Z</time></trkpt><trkpt lat="44.5165233" lon="10.6323767"><ele>463.25</ele><time>2026-04-19T08:38:09.937Z</time></trkpt><trkpt lat="44.516405" lon="10.6323767"><ele>465.0</ele><time>2026-04-19T08:38:10.907Z</time></trkpt><trkpt lat="44.5162917" lon="10.6323783"><ele>465.75</ele><time>2026-04-19T08:38:11.912Z</time></trkpt><trkpt lat="44.516175" lon="10.6324017"><ele>466.5</ele><time>2026-04-19T08:38:12.925Z</time></trkpt><trkpt lat="44.5160617" lon="10.6324517"><ele>467.25</ele><time>2026-04-19T08:38:13.942Z</time></trkpt><trkpt lat="44.5159467" lon="10.632515"><ele>468.0</ele><time>2026-04-19T08:38:14.922Z</time></trkpt><trkpt lat="44.51583" lon="10.6325733"><ele>468.0</ele><time>2026-04-19T08:38:15.909Z</time></trkpt><trkpt lat="44.5157167" lon="10.6326183"><ele>467.99999999999994</ele><time>2026-04-19T08:38:16.963Z</time></trkpt><trkpt lat="44.5156017" lon="10.6326517"><ele>467.99999999999994</ele><time>2026-04-19T08:38:17.953Z</time></trkpt><trkpt lat="44.5154933" lon="10.6326783"><ele>468.0</ele><time>2026-04-19T08:38:18.921Z</time></trkpt><trkpt lat="44.5153933" lon="10.6326683"><ele>468.0</ele><time>2026-04-19T08:38:19.909Z</time></trkpt><trkpt lat="44.5153" lon="10.6326183"><ele>469.75</ele><time>2026-04-19T08:38:20.912Z</time></trkpt><trkpt lat="44.5152017" lon="10.6325417"><ele>471.5</ele><time>2026-04-19T08:38:21.939Z</time></trkpt><trkpt lat="44.5150867" lon="10.6324717"><ele>473.25</ele><time>2026-04-19T08:38:22.928Z</time></trkpt><trkpt lat="44.5149583" lon="10.63243"><ele>475.0</ele><time>2026-04-19T08:38:23.942Z</time></trkpt><trkpt lat="44.514825" lon="10.63241"><ele>475.0</ele><time>2026-04-19T08:38:24.908Z</time></trkpt><trkpt lat="44.5146933" lon="10.6323883"><ele>475.0</ele><time>2026-04-19T08:38:25.91Z</time></trkpt><trkpt lat="44.5145667" lon="10.632355"><ele>475.0</ele><time>2026-04-19T08:38:26.923Z</time></trkpt><trkpt lat="44.514445" lon="10.6323033"><ele>475.0</ele><time>2026-04-19T08:38:27.907Z</time></trkpt><trkpt lat="44.5143217" lon="10.6322367"><ele>476.25</ele><time>2026-04-19T08:38:28.907Z</time></trkpt><trkpt lat="44.5141983" lon="10.6321733"><ele>477.5</ele><time>2026-04-19T08:38:29.909Z</time></trkpt><trkpt lat="44.5140683" lon="10.632135"><ele>478.75</ele><time>2026-04-19T08:38:30.909Z</time></trkpt><trkpt lat="44.51394" lon="10.6321233"><ele>480.0</ele><time>2026-04-19T08:38:31.937Z</time></trkpt><trkpt lat="44.5138183" lon="10.6321083"><ele>479.5</ele><time>2026-04-19T08:38:32.907Z</time></trkpt><trkpt lat="44.5137033" lon="10.6320967"><ele>479.0</ele><time>2026-04-19T08:38:33.909Z</time></trkpt><trkpt lat="44.5135917" lon="10.632075"><ele>478.5</ele><time>2026-04-19T08:38:34.935Z</time></trkpt><trkpt lat="44.51348" lon="10.6320483"><ele>478.0</ele><time>2026-04-19T08:38:35.942Z</time></trkpt><trkpt lat="44.5133717" lon="10.6320317"><ele>478.0</ele><time>2026-04-19T08:38:36.91Z</time></trkpt><trkpt lat="44.5132767" lon="10.632025"><ele>477.99999999999994</ele><time>2026-04-19T08:38:37.92Z</time></trkpt><trkpt lat="44.5131833" lon="10.632055"><ele>477.99999999999994</ele><time>2026-04-19T08:38:38.913Z</time></trkpt><trkpt lat="44.513085" lon="10.63212"><ele>478.0</ele><time>2026-04-19T08:38:39.932Z</time></trkpt><trkpt lat="44.5129917" lon="10.6322067"><ele>478.0</ele><time>2026-04-19T08:38:40.915Z</time></trkpt><trkpt lat="44.5128883" lon="10.63227"><ele>478.5</ele><time>2026-04-19T08:38:41.914Z</time></trkpt><trkpt lat="44.5127683" lon="10.6322983"><ele>479.0</ele><time>2026-04-19T08:38:42.908Z</time></trkpt><trkpt lat="44.512635" lon="10.6322933"><ele>479.5</ele><time>2026-04-19T08:38:43.921Z</time></trkpt><trkpt lat="44.5125033" lon="10.6322483"><ele>480.0</ele><time>2026-04-19T08:38:44.908Z</time></trkpt><trkpt lat="44.512375" lon="10.63217"><ele>480.0</ele><time>2026-04-19T08:38:45.911Z</time></trkpt><trkpt lat="44.512255" lon="10.632065"><ele>480.0</ele><time>2026-04-19T08:38:46.921Z</time></trkpt><trkpt lat="44.5121383" lon="10.6319483"><ele>480.0</ele><time>2026-04-19T08:38:47.907Z</time></trkpt><trkpt lat="44.51202" lon="10.6318317"><ele>480.0</ele><time>2026-04-19T08:38:48.964Z</time></trkpt><trkpt lat="44.5118983" lon="10.6317183"><ele>481.0</ele><time>2026-04-19T08:38:49.917Z</time></trkpt><trkpt lat="44.5117817" lon="10.631615"><ele>482.0</ele><time>2026-04-19T08:38:50.93Z</time></trkpt><trkpt lat="44.5116617" lon="10.6315217"><ele>483.0</ele><time>2026-04-19T08:38:51.92Z</time></trkpt><trkpt lat="44.5115467" lon="10.63144"><ele>484.0</ele><time>2026-04-19T08:38:52.913Z</time></trkpt><trkpt lat="44.5114317" lon="10.6313567"><ele>484.0</ele><time>2026-04-19T08:38:53.927Z</time></trkpt><trkpt lat="44.5113183" lon="10.63126"><ele>484.0</ele><time>2026-04-19T08:38:54.911Z</time></trkpt><trkpt lat="44.51122" lon="10.6311367"><ele>484.0</ele><time>2026-04-19T08:38:55.917Z</time></trkpt><trkpt lat="44.5111383" lon="10.630985"><ele>484.0</ele><time>2026-04-19T08:38:56.905Z</time></trkpt><trkpt lat="44.511075" lon="10.630805"><ele>485.75</ele><time>2026-04-19T08:38:57.912Z</time></trkpt><trkpt lat="44.511035" lon="10.6306067"><ele>487.5</ele><time>2026-04-19T08:38:58.913Z</time></trkpt><trkpt lat="44.5110083" lon="10.6304017"><ele>489.25</ele><time>2026-04-19T08:38:59.925Z</time></trkpt><trkpt lat="44.51098" lon="10.6302083"><ele>491.0</ele><time>2026-04-19T08:39:00.909Z</time></trkpt><trkpt lat="44.51095" lon="10.630025"><ele>491.0</ele><time>2026-04-19T08:39:01.907Z</time></trkpt><trkpt lat="44.5109033" lon="10.6298517"><ele>491.0</ele><time>2026-04-19T08:39:02.921Z</time></trkpt><trkpt lat="44.5108317" lon="10.62969"><ele>491.0</ele><time>2026-04-19T08:39:03.912Z</time></trkpt><trkpt lat="44.5107467" lon="10.629525"><ele>491.0</ele><time>2026-04-19T08:39:04.925Z</time></trkpt><trkpt lat="44.51067" lon="10.6293417"><ele>491.66666666666663</ele><time>2026-04-19T08:39:05.937Z</time></trkpt><trkpt lat="44.5106117" lon="10.6291433"><ele>492.33333333333337</ele><time>2026-04-19T08:39:06.96Z</time></trkpt><trkpt lat="44.510565" lon="10.6289417"><ele>493.0</ele><time>2026-04-19T08:39:07.911Z</time></trkpt><trkpt lat="44.5105217" lon="10.628745"><ele>494.75</ele><time>2026-04-19T08:39:08.911Z</time></trkpt><trkpt lat="44.5104783" lon="10.6285517"><ele>496.5</ele><time>2026-04-19T08:39:09.907Z</time></trkpt><trkpt lat="44.5104383" lon="10.628365"><ele>498.25</ele><time>2026-04-19T08:39:10.908Z</time></trkpt><trkpt lat="44.5103983" lon="10.62819"><ele>500.0</ele><time>2026-04-19T08:39:11.911Z</time></trkpt><trkpt lat="44.510365" lon="10.628035"><ele>499.99999999999994</ele><time>2026-04-19T08:39:12.909Z</time></trkpt><trkpt lat="44.5103317" lon="10.6279067"><ele>500.0</ele><time>2026-04-19T08:39:13.911Z</time></trkpt><trkpt lat="44.5102867" lon="10.627795"><ele>500.0</ele><time>2026-04-19T08:39:14.91Z</time></trkpt><trkpt lat="44.5102317" lon="10.627695"><ele>500.0</ele><time>2026-04-19T08:39:15.911Z</time></trkpt><trkpt lat="44.51017" lon="10.6276117"><ele>499.99999999999994</ele><time>2026-04-19T08:39:16.911Z</time></trkpt><trkpt lat="44.5101067" lon="10.627535"><ele>500.0</ele><time>2026-04-19T08:39:17.909Z</time></trkpt><trkpt lat="44.5100467" lon="10.62747"><ele>499.99999999999994</ele><time>2026-04-19T08:39:18.908Z</time></trkpt><trkpt lat="44.5099883" lon="10.6274183"><ele>500.0</ele><time>2026-04-19T08:39:19.905Z</time></trkpt><trkpt lat="44.50993" lon="10.627375"><ele>500.0</ele><time>2026-04-19T08:39:20.904Z</time></trkpt><trkpt lat="44.50987" lon="10.6273433"><ele>500.0</ele><time>2026-04-19T08:39:21.916Z</time></trkpt><trkpt lat="44.509745" lon="10.6273333"><ele>499.99999999999994</ele><time>2026-04-19T08:39:23.921Z</time></trkpt><trkpt lat="44.509675" lon="10.6273517"><ele>500.0</ele><time>2026-04-19T08:39:24.945Z</time></trkpt><trkpt lat="44.5096017" lon="10.6273733"><ele>499.2</ele><time>2026-04-19T08:39:25.917Z</time></trkpt><trkpt lat="44.5095283" lon="10.6273967"><ele>498.4</ele><time>2026-04-19T08:39:26.911Z</time></trkpt><trkpt lat="44.5094567" lon="10.6274017"><ele>497.6</ele><time>2026-04-19T08:39:27.966Z</time></trkpt><trkpt lat="44.5093917" lon="10.6273783"><ele>496.8</ele><time>2026-04-19T08:39:28.918Z</time></trkpt><trkpt lat="44.509315" lon="10.62725"><ele>496.0</ele><time>2026-04-19T08:39:30.963Z</time></trkpt><trkpt lat="44.50931" lon="10.6270667"><ele>494.33333333333337</ele><time>2026-04-19T08:39:32.917Z</time></trkpt><trkpt lat="44.5093633" lon="10.626975"><ele>492.6666666666667</ele><time>2026-04-19T08:39:33.907Z</time></trkpt><trkpt lat="44.5094167" lon="10.6269033"><ele>491.0</ele><time>2026-04-19T08:39:34.922Z</time></trkpt><trkpt lat="44.5094883" lon="10.62686"><ele>489.33333333333337</ele><time>2026-04-19T08:39:35.908Z</time></trkpt><trkpt lat="44.5095683" lon="10.626825"><ele>487.6666666666667</ele><time>2026-04-19T08:39:36.969Z</time></trkpt><trkpt lat="44.5096333" lon="10.6267733"><ele>486.0</ele><time>2026-04-19T08:39:37.931Z</time></trkpt><trkpt lat="44.5096817" lon="10.6266967"><ele>485.57142857142856</ele><time>2026-04-19T08:39:38.912Z</time></trkpt><trkpt lat="44.509715" lon="10.6266133"><ele>485.14285714285717</ele><time>2026-04-19T08:39:39.938Z</time></trkpt><trkpt lat="44.5097367" lon="10.626525"><ele>484.7142857142857</ele><time>2026-04-19T08:39:40.912Z</time></trkpt><trkpt lat="44.5097483" lon="10.62643"><ele>484.2857142857143</ele><time>2026-04-19T08:39:41.911Z</time></trkpt><trkpt lat="44.50975" lon="10.6263367"><ele>483.8571428571429</ele><time>2026-04-19T08:39:42.929Z</time></trkpt><trkpt lat="44.5097433" lon="10.6262467"><ele>483.42857142857144</ele><time>2026-04-19T08:39:43.936Z</time></trkpt><trkpt lat="44.5097033" lon="10.6260983"><ele>483.0</ele><time>2026-04-19T08:39:45.923Z</time></trkpt><trkpt lat="44.5096617" lon="10.625965"><ele>481.4</ele><time>2026-04-19T08:39:47.921Z</time></trkpt><trkpt lat="44.509635" lon="10.6258533"><ele>479.79999999999995</ele><time>2026-04-19T08:39:49.946Z</time></trkpt><trkpt lat="44.50962" lon="10.6257417"><ele>478.2</ele><time>2026-04-19T08:39:52.907Z</time></trkpt><trkpt lat="44.50959" lon="10.625615"><ele>476.6</ele><time>2026-04-19T08:49:22.921Z</time></trkpt><trkpt lat="44.5095583" lon="10.6254567"><ele>475.0</ele><time>2026-04-19T08:49:24.917Z</time></trkpt><trkpt lat="44.5095583" lon="10.6253083"><ele>473.50000000000006</ele><time>2026-04-19T08:49:25.913Z</time></trkpt><trkpt lat="44.50958" lon="10.6252"><ele>472.0</ele><time>2026-04-19T08:49:26.912Z</time></trkpt><trkpt lat="44.5096" lon="10.6250867"><ele>470.5</ele><time>2026-04-19T08:49:27.909Z</time></trkpt><trkpt lat="44.5096183" lon="10.6249633"><ele>469.0</ele><time>2026-04-19T08:49:28.912Z</time></trkpt><trkpt lat="44.5096267" lon="10.6248417"><ele>467.50000000000006</ele><time>2026-04-19T08:49:29.912Z</time></trkpt><trkpt lat="44.5096283" lon="10.6247133"><ele>466.0</ele><time>2026-04-19T08:49:30.912Z</time></trkpt><trkpt lat="44.50962" lon="10.624575"><ele>465.20000000000005</ele><time>2026-04-19T08:49:31.91Z</time></trkpt><trkpt lat="44.5096017" lon="10.6244317"><ele>464.40000000000003</ele><time>2026-04-19T08:49:32.911Z</time></trkpt><trkpt lat="44.5095817" lon="10.624285"><ele>463.6</ele><time>2026-04-19T08:49:33.91Z</time></trkpt><trkpt lat="44.509555" lon="10.62414"><ele>462.8</ele><time>2026-04-19T08:49:34.934Z</time></trkpt><trkpt lat="44.5095183" lon="10.6239983"><ele>462.0</ele><time>2026-04-19T08:49:35.909Z</time></trkpt><trkpt lat="44.509475" lon="10.6238583"><ele>464.20000000000005</ele><time>2026-04-19T08:49:36.906Z</time></trkpt><trkpt lat="44.5094333" lon="10.623715"><ele>466.40000000000003</ele><time>2026-04-19T08:49:37.911Z</time></trkpt><trkpt lat="44.5094017" lon="10.6235683"><ele>468.59999999999997</ele><time>2026-04-19T08:49:38.911Z</time></trkpt><trkpt lat="44.5093883" lon="10.623415"><ele>470.79999999999995</ele><time>2026-04-19T08:49:39.913Z</time></trkpt><trkpt lat="44.509375" lon="10.6232583"><ele>473.0</ele><time>2026-04-19T08:49:40.914Z</time></trkpt><trkpt lat="44.5093567" lon="10.6231117"><ele>474.2</ele><time>2026-04-19T08:49:41.908Z</time></trkpt><trkpt lat="44.50933" lon="10.6229767"><ele>475.4</ele><time>2026-04-19T08:49:42.915Z</time></trkpt><trkpt lat="44.5093" lon="10.62285"><ele>476.59999999999997</ele><time>2026-04-19T08:49:43.91Z</time></trkpt><trkpt lat="44.5092683" lon="10.622725"><ele>477.79999999999995</ele><time>2026-04-19T08:49:44.911Z</time></trkpt><trkpt lat="44.5092417" lon="10.6226017"><ele>479.0</ele><time>2026-04-19T08:49:45.912Z</time></trkpt><trkpt lat="44.5092183" lon="10.6224633"><ele>480.4</ele><time>2026-04-19T08:49:46.914Z</time></trkpt><trkpt lat="44.509195" lon="10.6223367"><ele>481.79999999999995</ele><time>2026-04-19T08:49:47.908Z</time></trkpt><trkpt lat="44.50917" lon="10.6222067"><ele>483.20000000000005</ele><time>2026-04-19T08:49:48.911Z</time></trkpt><trkpt lat="44.5091333" lon="10.6220833"><ele>484.6</ele><time>2026-04-19T08:49:49.917Z</time></trkpt><trkpt lat="44.5090783" lon="10.6219567"><ele>486.0</ele><time>2026-04-19T08:49:50.909Z</time></trkpt><trkpt lat="44.5090233" lon="10.6218267"><ele>485.8</ele><time>2026-04-19T08:49:51.909Z</time></trkpt><trkpt lat="44.50899" lon="10.6216917"><ele>485.6</ele><time>2026-04-19T08:49:52.908Z</time></trkpt><trkpt lat="44.5089733" lon="10.6215533"><ele>485.4</ele><time>2026-04-19T08:49:53.912Z</time></trkpt><trkpt lat="44.5089717" lon="10.6214183"><ele>485.2</ele><time>2026-04-19T08:49:54.911Z</time></trkpt><trkpt lat="44.5089817" lon="10.621285"><ele>485.0</ele><time>2026-04-19T08:49:55.91Z</time></trkpt><trkpt lat="44.508995" lon="10.6211483"><ele>485.0</ele><time>2026-04-19T08:49:56.944Z</time></trkpt><trkpt lat="44.5090067" lon="10.6210067"><ele>485.0</ele><time>2026-04-19T08:49:57.937Z</time></trkpt><trkpt lat="44.5090133" lon="10.6208633"><ele>485.0</ele><time>2026-04-19T08:49:58.936Z</time></trkpt><trkpt lat="44.50902" lon="10.6207233"><ele>485.0</ele><time>2026-04-19T08:49:59.908Z</time></trkpt><trkpt lat="44.5090217" lon="10.6205817"><ele>485.0</ele><time>2026-04-19T08:50:00.91Z</time></trkpt><trkpt lat="44.5090233" lon="10.6204517"><ele>485.49999999999994</ele><time>2026-04-19T08:50:01.909Z</time></trkpt><trkpt lat="44.5090267" lon="10.6203117"><ele>486.0</ele><time>2026-04-19T08:50:02.909Z</time></trkpt><trkpt lat="44.5090233" lon="10.620185"><ele>486.5</ele><time>2026-04-19T08:50:03.909Z</time></trkpt><trkpt lat="44.5090067" lon="10.62007"><ele>487.0</ele><time>2026-04-19T08:50:04.911Z</time></trkpt><trkpt lat="44.5089767" lon="10.61996"><ele>487.49999999999994</ele><time>2026-04-19T08:50:05.913Z</time></trkpt><trkpt lat="44.50893" lon="10.61985"><ele>488.0</ele><time>2026-04-19T08:50:06.921Z</time></trkpt><trkpt lat="44.5088683" lon="10.6197483"><ele>488.0</ele><time>2026-04-19T08:50:07.922Z</time></trkpt><trkpt lat="44.5087867" lon="10.6196633"><ele>488.0</ele><time>2026-04-19T08:50:08.912Z</time></trkpt><trkpt lat="44.5086767" lon="10.6195967"><ele>488.0</ele><time>2026-04-19T08:50:09.91Z</time></trkpt><trkpt lat="44.5085683" lon="10.6195283"><ele>488.0</ele><time>2026-04-19T08:50:10.916Z</time></trkpt><trkpt lat="44.508475" lon="10.6194433"><ele>486.5</ele><time>2026-04-19T08:50:11.916Z</time></trkpt><trkpt lat="44.5083983" lon="10.619325"><ele>485.0</ele><time>2026-04-19T08:50:12.907Z</time></trkpt><trkpt lat="44.5083317" lon="10.6191933"><ele>483.5</ele><time>2026-04-19T08:50:13.91Z</time></trkpt><trkpt lat="44.50827" lon="10.619055"><ele>482.0</ele><time>2026-04-19T08:50:14.909Z</time></trkpt><trkpt lat="44.5082133" lon="10.6189133"><ele>482.0</ele><time>2026-04-19T08:50:15.916Z</time></trkpt><trkpt lat="44.508155" lon="10.618765"><ele>482.0</ele><time>2026-04-19T08:50:16.928Z</time></trkpt><trkpt lat="44.5080883" lon="10.618635"><ele>482.0</ele><time>2026-04-19T08:50:17.92Z</time></trkpt><trkpt lat="44.5080133" lon="10.6185183"><ele>482.0</ele><time>2026-04-19T08:50:18.912Z</time></trkpt><trkpt lat="44.5079233" lon="10.618425"><ele>483.40000000000003</ele><time>2026-04-19T08:50:19.911Z</time></trkpt><trkpt lat="44.5078267" lon="10.61836"><ele>484.80000000000007</ele><time>2026-04-19T08:50:20.907Z</time></trkpt><trkpt lat="44.5077233" lon="10.6183133"><ele>486.2</ele><time>2026-04-19T08:50:21.91Z</time></trkpt><trkpt lat="44.50762" lon="10.6182733"><ele>487.6</ele><time>2026-04-19T08:50:22.929Z</time></trkpt><trkpt lat="44.50751" lon="10.6182217"><ele>489.0</ele><time>2026-04-19T08:50:23.91Z</time></trkpt><trkpt lat="44.5074067" lon="10.6181533"><ele>489.0</ele><time>2026-04-19T08:50:24.909Z</time></trkpt><trkpt lat="44.507305" lon="10.6180633"><ele>489.0</ele><time>2026-04-19T08:50:25.917Z</time></trkpt><trkpt lat="44.5072" lon="10.61796"><ele>489.0</ele><time>2026-04-19T08:50:26.91Z</time></trkpt><trkpt lat="44.5070967" lon="10.6178533"><ele>489.0</ele><time>2026-04-19T08:50:27.909Z</time></trkpt><trkpt lat="44.5069983" lon="10.6177517"><ele>490.4</ele><time>2026-04-19T08:50:28.913Z</time></trkpt><trkpt lat="44.50692" lon="10.6176533"><ele>491.79999999999995</ele><time>2026-04-19T08:50:29.913Z</time></trkpt><trkpt lat="44.50686" lon="10.617545"><ele>493.20000000000005</ele><time>2026-04-19T08:50:30.907Z</time></trkpt><trkpt lat="44.50683" lon="10.617415"><ele>494.6</ele><time>2026-04-19T08:50:31.918Z</time></trkpt><trkpt lat="44.5068333" lon="10.6172783"><ele>496.0</ele><time>2026-04-19T08:50:32.917Z</time></trkpt><trkpt lat="44.5068717" lon="10.6171383"><ele>496.00000000000006</ele><time>2026-04-19T08:50:33.909Z</time></trkpt><trkpt lat="44.50692" lon="10.6170067"><ele>496.0</ele><time>2026-04-19T08:50:34.912Z</time></trkpt><trkpt lat="44.5069667" lon="10.6168833"><ele>496.0</ele><time>2026-04-19T08:50:35.917Z</time></trkpt><trkpt lat="44.5070083" lon="10.61678"><ele>496.0</ele><time>2026-04-19T08:50:36.91Z</time></trkpt><trkpt lat="44.5070433" lon="10.6167017"><ele>496.00000000000006</ele><time>2026-04-19T08:50:37.912Z</time></trkpt><trkpt lat="44.5070917" lon="10.6165917"><ele>496.0</ele><time>2026-04-19T08:50:39.911Z</time></trkpt><trkpt lat="44.507075" lon="10.6164667"><ele>497.33333333333337</ele><time>2026-04-19T08:50:41.911Z</time></trkpt><trkpt lat="44.5070167" lon="10.6163217"><ele>498.6666666666667</ele><time>2026-04-19T08:50:43.909Z</time></trkpt><trkpt lat="44.5069817" lon="10.6162467"><ele>500.0</ele><time>2026-04-19T08:50:44.907Z</time></trkpt><trkpt lat="44.5069383" lon="10.616165"><ele>501.33333333333337</ele><time>2026-04-19T08:50:45.908Z</time></trkpt><trkpt lat="44.506895" lon="10.6160767"><ele>502.6666666666667</ele><time>2026-04-19T08:50:46.951Z</time></trkpt><trkpt lat="44.5068483" lon="10.6159867"><ele>504.0</ele><time>2026-04-19T08:50:47.915Z</time></trkpt><trkpt lat="44.506805" lon="10.6158983"><ele>506.0</ele><time>2026-04-19T08:50:48.913Z</time></trkpt><trkpt lat="44.506765" lon="10.6158183"><ele>508.0</ele><time>2026-04-19T08:50:49.907Z</time></trkpt><trkpt lat="44.5067183" lon="10.615745"><ele>510.0</ele><time>2026-04-19T08:50:50.91Z</time></trkpt><trkpt lat="44.50667" lon="10.615675"><ele>512.0</ele><time>2026-04-19T08:50:51.908Z</time></trkpt><trkpt lat="44.506625" lon="10.6156067"><ele>514.0</ele><time>2026-04-19T08:50:52.912Z</time></trkpt><trkpt lat="44.5065867" lon="10.615535"><ele>516.0</ele><time>2026-04-19T08:50:53.908Z</time></trkpt><trkpt lat="44.50655" lon="10.615455"><ele>518.0</ele><time>2026-04-19T08:50:54.905Z</time></trkpt><trkpt lat="44.5065133" lon="10.61538"><ele>519.0</ele><time>2026-04-19T08:50:55.908Z</time></trkpt><trkpt lat="44.5064817" lon="10.6153033"><ele>520.0</ele><time>2026-04-19T08:50:56.905Z</time></trkpt><trkpt lat="44.5064267" lon="10.615165"><ele>521.0</ele><time>2026-04-19T08:50:58.921Z</time></trkpt><trkpt lat="44.50638" lon="10.6150483"><ele>522.0</ele><time>2026-04-19T08:51:00.909Z</time></trkpt><trkpt lat="44.5062817" lon="10.6149683"><ele>523.0</ele><time>2026-04-19T08:51:02.927Z</time></trkpt><trkpt lat="44.506215" lon="10.61493"><ele>524.8</ele><time>2026-04-19T08:51:03.899Z</time></trkpt><trkpt lat="44.5061383" lon="10.6149"><ele>526.5999999999999</ele><time>2026-04-19T08:51:04.913Z</time></trkpt><trkpt lat="44.5060483" lon="10.6148683"><ele>528.4000000000001</ele><time>2026-04-19T08:51:05.929Z</time></trkpt><trkpt lat="44.5059517" lon="10.6148317"><ele>530.2</ele><time>2026-04-19T08:51:06.909Z</time></trkpt><trkpt lat="44.5058517" lon="10.61479"><ele>532.0</ele><time>2026-04-19T08:51:07.921Z</time></trkpt><trkpt lat="44.5057517" lon="10.6147317"><ele>532.0</ele><time>2026-04-19T08:51:08.912Z</time></trkpt><trkpt lat="44.5056583" lon="10.6146367"><ele>532.0</ele><time>2026-04-19T08:51:09.932Z</time></trkpt><trkpt lat="44.505565" lon="10.614515"><ele>532.0</ele><time>2026-04-19T08:51:10.912Z</time></trkpt><trkpt lat="44.505475" lon="10.6143883"><ele>532.0</ele><time>2026-04-19T08:51:11.922Z</time></trkpt><trkpt lat="44.5053883" lon="10.6142583"><ele>533.75</ele><time>2026-04-19T08:51:12.927Z</time></trkpt><trkpt lat="44.5053017" lon="10.6141283"><ele>535.5</ele><time>2026-04-19T08:51:13.909Z</time></trkpt><trkpt lat="44.505215" lon="10.6139967"><ele>537.25</ele><time>2026-04-19T08:51:14.91Z</time></trkpt><trkpt lat="44.5051217" lon="10.613875"><ele>539.0</ele><time>2026-04-19T08:51:15.912Z</time></trkpt><trkpt lat="44.50502" lon="10.61376"><ele>539.0</ele><time>2026-04-19T08:51:16.913Z</time></trkpt><trkpt lat="44.5049167" lon="10.6136583"><ele>539.0</ele><time>2026-04-19T08:51:17.919Z</time></trkpt><trkpt lat="44.5047983" lon="10.61357"><ele>539.0</ele><time>2026-04-19T08:51:18.91Z</time></trkpt><trkpt lat="44.5046817" lon="10.613485"><ele>539.0</ele><time>2026-04-19T08:51:19.917Z</time></trkpt><trkpt lat="44.5045733" lon="10.6133917"><ele>536.0</ele><time>2026-04-19T08:51:20.912Z</time></trkpt><trkpt lat="44.5044717" lon="10.6132867"><ele>533.0</ele><time>2026-04-19T08:51:21.909Z</time></trkpt><trkpt lat="44.5043767" lon="10.6131683"><ele>530.0</ele><time>2026-04-19T08:51:22.913Z</time></trkpt><trkpt lat="44.5042867" lon="10.6130367"><ele>527.0</ele><time>2026-04-19T08:51:23.911Z</time></trkpt><trkpt lat="44.5041983" lon="10.6128967"><ele>526.25</ele><time>2026-04-19T08:51:24.911Z</time></trkpt><trkpt lat="44.5041083" lon="10.6127567"><ele>525.5</ele><time>2026-04-19T08:51:25.92Z</time></trkpt><trkpt lat="44.5040167" lon="10.612615"><ele>524.75</ele><time>2026-04-19T08:51:26.912Z</time></trkpt><trkpt lat="44.5039283" lon="10.6124717"><ele>524.0</ele><time>2026-04-19T08:51:27.926Z</time></trkpt><trkpt lat="44.5038417" lon="10.6123233"><ele>524.0</ele><time>2026-04-19T08:51:28.921Z</time></trkpt><trkpt lat="44.50376" lon="10.6121733"><ele>524.0</ele><time>2026-04-19T08:51:29.925Z</time></trkpt><trkpt lat="44.5036783" lon="10.6120117"><ele>524.0</ele><time>2026-04-19T08:51:30.934Z</time></trkpt><trkpt lat="44.503595" lon="10.6118517"><ele>524.0</ele><time>2026-04-19T08:51:31.935Z</time></trkpt><trkpt lat="44.5035067" lon="10.611695"><ele>523.25</ele><time>2026-04-19T08:51:32.929Z</time></trkpt><trkpt lat="44.503415" lon="10.611545"><ele>522.5</ele><time>2026-04-19T08:51:33.909Z</time></trkpt><trkpt lat="44.5033083" lon="10.6114133"><ele>521.75</ele><time>2026-04-19T08:51:34.914Z</time></trkpt><trkpt lat="44.50319" lon="10.6113033"><ele>521.0</ele><time>2026-04-19T08:51:35.933Z</time></trkpt><trkpt lat="44.5030667" lon="10.6112117"><ele>520.0</ele><time>2026-04-19T08:51:36.906Z</time></trkpt><trkpt lat="44.5029367" lon="10.6111283"><ele>519.0</ele><time>2026-04-19T08:51:37.934Z</time></trkpt><trkpt lat="44.502815" lon="10.611045"><ele>518.0</ele><time>2026-04-19T08:51:38.924Z</time></trkpt><trkpt lat="44.502695" lon="10.6109617"><ele>517.0</ele><time>2026-04-19T08:51:39.91Z</time></trkpt><trkpt lat="44.50258" lon="10.6108817"><ele>519.25</ele><time>2026-04-19T08:51:40.94Z</time></trkpt><trkpt lat="44.5024767" lon="10.6107783"><ele>521.5</ele><time>2026-04-19T08:51:41.91Z</time></trkpt><trkpt lat="44.5023783" lon="10.6106417"><ele>523.75</ele><time>2026-04-19T08:51:42.943Z</time></trkpt><trkpt lat="44.5022833" lon="10.61049"><ele>526.0</ele><time>2026-04-19T08:51:43.911Z</time></trkpt><trkpt lat="44.502185" lon="10.610335"><ele>526.5</ele><time>2026-04-19T08:51:44.926Z</time></trkpt><trkpt lat="44.5020867" lon="10.6101833"><ele>527.0</ele><time>2026-04-19T08:51:45.924Z</time></trkpt><trkpt lat="44.5019917" lon="10.6100383"><ele>527.5</ele><time>2026-04-19T08:51:46.911Z</time></trkpt><trkpt lat="44.5019" lon="10.6098967"><ele>528.0</ele><time>2026-04-19T08:51:47.92Z</time></trkpt><trkpt lat="44.50181" lon="10.6097533"><ele>529.5</ele><time>2026-04-19T08:51:48.918Z</time></trkpt><trkpt lat="44.5017233" lon="10.6096033"><ele>531.0</ele><time>2026-04-19T08:51:49.932Z</time></trkpt><trkpt lat="44.5016417" lon="10.6094517"><ele>532.5</ele><time>2026-04-19T08:51:50.91Z</time></trkpt><trkpt lat="44.501565" lon="10.6092817"><ele>534.0</ele><time>2026-04-19T08:51:51.952Z</time></trkpt><trkpt lat="44.5014883" lon="10.6091117"><ele>534.0</ele><time>2026-04-19T08:51:52.932Z</time></trkpt><trkpt lat="44.5014167" lon="10.6089417"><ele>534.0</ele><time>2026-04-19T08:51:53.922Z</time></trkpt><trkpt lat="44.501345" lon="10.60877"><ele>534.0</ele><time>2026-04-19T08:51:54.936Z</time></trkpt><trkpt lat="44.5012767" lon="10.608595"><ele>534.0</ele><time>2026-04-19T08:51:55.911Z</time></trkpt><trkpt lat="44.5012083" lon="10.6084167"><ele>532.0</ele><time>2026-04-19T08:51:56.913Z</time></trkpt><trkpt lat="44.5011383" lon="10.6082417"><ele>530.0</ele><time>2026-04-19T08:51:57.911Z</time></trkpt><trkpt lat="44.50107" lon="10.6080683"><ele>528.0</ele><time>2026-04-19T08:51:58.912Z</time></trkpt><trkpt lat="44.5010017" lon="10.6078917"><ele>526.0</ele><time>2026-04-19T08:51:59.911Z</time></trkpt><trkpt lat="44.50094" lon="10.6077133"><ele>530.5</ele><time>2026-04-19T08:52:00.912Z</time></trkpt><trkpt lat="44.5008783" lon="10.6075367"><ele>535.0</ele><time>2026-04-19T08:52:01.911Z</time></trkpt><trkpt lat="44.5008183" lon="10.6073583"><ele>539.5</ele><time>2026-04-19T08:52:02.909Z</time></trkpt><trkpt lat="44.5007633" lon="10.6071883"><ele>544.0</ele><time>2026-04-19T08:52:03.914Z</time></trkpt><trkpt lat="44.5007217" lon="10.6070167"><ele>547.5</ele><time>2026-04-19T08:52:04.91Z</time></trkpt><trkpt lat="44.500695" lon="10.6068333"><ele>551.0</ele><time>2026-04-19T08:52:05.913Z</time></trkpt><trkpt lat="44.50067" lon="10.6066517"><ele>554.5</ele><time>2026-04-19T08:52:06.908Z</time></trkpt><trkpt lat="44.5006267" lon="10.6064917"><ele>558.0</ele><time>2026-04-19T08:52:07.916Z</time></trkpt><trkpt lat="44.5005833" lon="10.6063233"><ele>558.0</ele><time>2026-04-19T08:52:08.907Z</time></trkpt><trkpt lat="44.5005283" lon="10.60618"><ele>558.0</ele><time>2026-04-19T08:52:09.915Z</time></trkpt><trkpt lat="44.5004783" lon="10.6060333"><ele>558.0</ele><time>2026-04-19T08:52:10.951Z</time></trkpt><trkpt lat="44.500435" lon="10.6058817"><ele>558.0</ele><time>2026-04-19T08:52:11.92Z</time></trkpt><trkpt lat="44.5003833" lon="10.6057467"><ele>557.0</ele><time>2026-04-19T08:52:12.919Z</time></trkpt><trkpt lat="44.500315" lon="10.605645"><ele>556.0</ele><time>2026-04-19T08:52:13.917Z</time></trkpt><trkpt lat="44.5002367" lon="10.6055617"><ele>555.0</ele><time>2026-04-19T08:52:14.939Z</time></trkpt><trkpt lat="44.5001483" lon="10.6054917"><ele>554.0</ele><time>2026-04-19T08:52:15.922Z</time></trkpt><trkpt lat="44.50006" lon="10.60543"><ele>553.0</ele><time>2026-04-19T08:52:16.911Z</time></trkpt><trkpt lat="44.4999833" lon="10.6053733"><ele>553.0</ele><time>2026-04-19T08:52:17.912Z</time></trkpt><trkpt lat="44.49991" lon="10.6053333"><ele>553.0</ele><time>2026-04-19T08:52:18.931Z</time></trkpt><trkpt lat="44.499845" lon="10.6053"><ele>553.0</ele><time>2026-04-19T08:52:19.958Z</time></trkpt><trkpt lat="44.4997367" lon="10.6052367"><ele>553.0</ele><time>2026-04-19T08:52:21.934Z</time></trkpt><trkpt lat="44.499655" lon="10.6051117"><ele>553.0</ele><time>2026-04-19T08:52:23.911Z</time></trkpt><trkpt lat="44.49962" lon="10.6050367"><ele>553.3333333333334</ele><time>2026-04-19T08:52:24.908Z</time></trkpt><trkpt lat="44.4996017" lon="10.6049417"><ele>553.6666666666667</ele><time>2026-04-19T08:52:25.927Z</time></trkpt><trkpt lat="44.4995817" lon="10.60485"><ele>554.0</ele><time>2026-04-19T08:52:26.917Z</time></trkpt><trkpt lat="44.49957" lon="10.6047467"><ele>554.3333333333334</ele><time>2026-04-19T08:52:27.913Z</time></trkpt><trkpt lat="44.49956" lon="10.6046367"><ele>554.6666666666666</ele><time>2026-04-19T08:52:28.914Z</time></trkpt><trkpt lat="44.4995433" lon="10.604525"><ele>555.0</ele><time>2026-04-19T08:52:29.911Z</time></trkpt><trkpt lat="44.4995117" lon="10.6044217"><ele>555.0</ele><time>2026-04-19T08:52:30.919Z</time></trkpt><trkpt lat="44.4994683" lon="10.6043183"><ele>555.0</ele><time>2026-04-19T08:52:31.938Z</time></trkpt><trkpt lat="44.499415" lon="10.6042267"><ele>555.0</ele><time>2026-04-19T08:52:32.912Z</time></trkpt><trkpt lat="44.49936" lon="10.6041383"><ele>555.0</ele><time>2026-04-19T08:52:33.912Z</time></trkpt><trkpt lat="44.4992983" lon="10.6040533"><ele>555.0</ele><time>2026-04-19T08:52:34.92Z</time></trkpt><trkpt lat="44.4992317" lon="10.6039733"><ele>555.0</ele><time>2026-04-19T08:52:35.923Z</time></trkpt><trkpt lat="44.4991517" lon="10.6038867"><ele>555.0</ele><time>2026-04-19T08:52:36.907Z</time></trkpt><trkpt lat="44.499065" lon="10.6038083"><ele>555.0</ele><time>2026-04-19T08:52:37.91Z</time></trkpt><trkpt lat="44.4989733" lon="10.60374"><ele>555.0</ele><time>2026-04-19T08:52:38.931Z</time></trkpt><trkpt lat="44.4988817" lon="10.603685"><ele>555.0</ele><time>2026-04-19T08:52:39.901Z</time></trkpt><trkpt lat="44.4987917" lon="10.60364"><ele>555.0</ele><time>2026-04-19T08:52:40.92Z</time></trkpt><trkpt lat="44.4987067" lon="10.603595"><ele>552.1666666666666</ele><time>2026-04-19T08:52:41.907Z</time></trkpt><trkpt lat="44.4986317" lon="10.603555"><ele>549.3333333333334</ele><time>2026-04-19T08:52:42.923Z</time></trkpt><trkpt lat="44.4985717" lon="10.6035183"><ele>546.5</ele><time>2026-04-19T08:52:43.916Z</time></trkpt><trkpt lat="44.4984933" lon="10.6034783"><ele>543.6666666666667</ele><time>2026-04-19T08:52:45.939Z</time></trkpt><trkpt lat="44.4984183" lon="10.6034133"><ele>540.8333333333334</ele><time>2026-04-19T08:52:47.909Z</time></trkpt><trkpt lat="44.49836" lon="10.60338"><ele>538.0</ele><time>2026-04-19T08:52:48.92Z</time></trkpt><trkpt lat="44.4982933" lon="10.603345"><ele>538.0</ele><time>2026-04-19T08:52:49.923Z</time></trkpt><trkpt lat="44.4982233" lon="10.6033033"><ele>538.0</ele><time>2026-04-19T08:52:50.931Z</time></trkpt><trkpt lat="44.4981533" lon="10.6032617"><ele>538.0</ele><time>2026-04-19T08:52:51.913Z</time></trkpt><trkpt lat="44.49808" lon="10.6032083"><ele>538.0</ele><time>2026-04-19T08:52:52.946Z</time></trkpt><trkpt lat="44.4980067" lon="10.6031467"><ele>538.0</ele><time>2026-04-19T08:52:53.911Z</time></trkpt><trkpt lat="44.49793" lon="10.6030817"><ele>538.0</ele><time>2026-04-19T08:52:55.12Z</time></trkpt><trkpt lat="44.4977617" lon="10.60294"><ele>537.75</ele><time>2026-04-19T08:52:56.912Z</time></trkpt><trkpt lat="44.497665" lon="10.6028567"><ele>537.5</ele><time>2026-04-19T08:52:57.912Z</time></trkpt><trkpt lat="44.4975633" lon="10.6027717"><ele>537.25</ele><time>2026-04-19T08:52:58.912Z</time></trkpt><trkpt lat="44.4974617" lon="10.6026933"><ele>537.0</ele><time>2026-04-19T08:52:59.932Z</time></trkpt><trkpt lat="44.4973617" lon="10.60262"><ele>537.0</ele><time>2026-04-19T08:53:00.907Z</time></trkpt><trkpt lat="44.4972633" lon="10.60255"><ele>537.0</ele><time>2026-04-19T08:53:01.962Z</time></trkpt><trkpt lat="44.4971633" lon="10.6024917"><ele>537.0</ele><time>2026-04-19T08:53:02.909Z</time></trkpt><trkpt lat="44.4970717" lon="10.6024283"><ele>537.0</ele><time>2026-04-19T08:53:03.92Z</time></trkpt><trkpt lat="44.496985" lon="10.6023633"><ele>537.0</ele><time>2026-04-19T08:53:04.929Z</time></trkpt><trkpt lat="44.4969033" lon="10.6022967"><ele>536.8333333333334</ele><time>2026-04-19T08:53:05.908Z</time></trkpt><trkpt lat="44.496835" lon="10.60222"><ele>536.6666666666666</ele><time>2026-04-19T08:53:06.916Z</time></trkpt><trkpt lat="44.49678" lon="10.6021317"><ele>536.5</ele><time>2026-04-19T08:53:07.91Z</time></trkpt><trkpt lat="44.496735" lon="10.6020383"><ele>536.3333333333333</ele><time>2026-04-19T08:53:08.908Z</time></trkpt><trkpt lat="44.4966933" lon="10.60193"><ele>536.1666666666666</ele><time>2026-04-19T08:53:09.936Z</time></trkpt><trkpt lat="44.4966517" lon="10.60183"><ele>536.0</ele><time>2026-04-19T08:53:10.939Z</time></trkpt><trkpt lat="44.4966167" lon="10.6017233"><ele>535.6666666666666</ele><time>2026-04-19T08:53:11.906Z</time></trkpt><trkpt lat="44.4965767" lon="10.6016217"><ele>535.3333333333333</ele><time>2026-04-19T08:53:12.906Z</time></trkpt><trkpt lat="44.4965433" lon="10.6015117"><ele>535.0</ele><time>2026-04-19T08:53:13.908Z</time></trkpt><trkpt lat="44.4965067" lon="10.6014033"><ele>534.6666666666666</ele><time>2026-04-19T08:53:14.967Z</time></trkpt><trkpt lat="44.496475" lon="10.6012967"><ele>534.3333333333334</ele><time>2026-04-19T08:53:15.924Z</time></trkpt><trkpt lat="44.4964467" lon="10.6011983"><ele>534.0</ele><time>2026-04-19T08:53:16.914Z</time></trkpt><trkpt lat="44.4964133" lon="10.60111"><ele>534.0000000000001</ele><time>2026-04-19T08:53:17.913Z</time></trkpt><trkpt lat="44.49638" lon="10.6010133"><ele>534.0</ele><time>2026-04-19T08:53:18.908Z</time></trkpt><trkpt lat="44.4963467" lon="10.6009183"><ele>534.0</ele><time>2026-04-19T08:53:19.923Z</time></trkpt><trkpt lat="44.4963133" lon="10.6008267"><ele>534.0</ele><time>2026-04-19T08:53:20.915Z</time></trkpt><trkpt lat="44.496285" lon="10.6007367"><ele>534.0</ele><time>2026-04-19T08:53:21.929Z</time></trkpt><trkpt lat="44.496255" lon="10.6006467"><ele>534.0000000000001</ele><time>2026-04-19T08:53:22.948Z</time></trkpt><trkpt lat="44.4962217" lon="10.6005583"><ele>534.0</ele><time>2026-04-19T08:53:23.909Z</time></trkpt><trkpt lat="44.4961817" lon="10.6004783"><ele>533.8571428571429</ele><time>2026-04-19T08:53:24.912Z</time></trkpt><trkpt lat="44.4961517" lon="10.60039"><ele>533.7142857142858</ele><time>2026-04-19T08:53:25.937Z</time></trkpt><trkpt lat="44.49612" lon="10.600295"><ele>533.5714285714286</ele><time>2026-04-19T08:53:26.916Z</time></trkpt><trkpt lat="44.4960833" lon="10.600205"><ele>533.4285714285714</ele><time>2026-04-19T08:53:27.917Z</time></trkpt><trkpt lat="44.4960483" lon="10.6001117"><ele>533.2857142857142</ele><time>2026-04-19T08:53:28.912Z</time></trkpt><trkpt lat="44.4960167" lon="10.6000233"><ele>533.1428571428571</ele><time>2026-04-19T08:53:29.924Z</time></trkpt><trkpt lat="44.495985" lon="10.5999283"><ele>533.0</ele><time>2026-04-19T08:53:30.923Z</time></trkpt><trkpt lat="44.4959533" lon="10.5998367"><ele>533.0</ele><time>2026-04-19T08:53:31.971Z</time></trkpt><trkpt lat="44.4959167" lon="10.599755"><ele>533.0</ele><time>2026-04-19T08:53:32.926Z</time></trkpt><trkpt lat="44.4958383" lon="10.59962"><ele>533.0</ele><time>2026-04-19T08:53:34.932Z</time></trkpt><trkpt lat="44.49578" lon="10.59957"><ele>533.0</ele><time>2026-04-19T08:53:35.935Z</time></trkpt><trkpt lat="44.49571" lon="10.599525"><ele>533.0</ele><time>2026-04-19T08:53:36.912Z</time></trkpt><trkpt lat="44.4956333" lon="10.599475"><ele>533.0</ele><time>2026-04-19T08:53:37.91Z</time></trkpt><trkpt lat="44.495545" lon="10.5994183"><ele>533.4</ele><time>2026-04-19T08:53:38.91Z</time></trkpt><trkpt lat="44.4954667" lon="10.59937"><ele>533.8</ele><time>2026-04-19T08:53:39.928Z</time></trkpt><trkpt lat="44.4953967" lon="10.5993317"><ele>534.2</ele><time>2026-04-19T08:53:42.92Z</time></trkpt><trkpt lat="44.4953033" lon="10.5992867"><ele>534.6</ele><time>2026-04-19T08:53:44.918Z</time></trkpt><trkpt lat="44.4952217" lon="10.5992117"><ele>535.0</ele><time>2026-04-19T08:53:45.91Z</time></trkpt><trkpt lat="44.4951333" lon="10.5991233"><ele>535.75</ele><time>2026-04-19T08:53:46.922Z</time></trkpt><trkpt lat="44.4950367" lon="10.5990117"><ele>536.5</ele><time>2026-04-19T08:53:47.919Z</time></trkpt><trkpt lat="44.4949367" lon="10.5988933"><ele>537.25</ele><time>2026-04-19T08:53:48.926Z</time></trkpt><trkpt lat="44.49484" lon="10.5987767"><ele>538.0</ele><time>2026-04-19T08:53:49.955Z</time></trkpt><trkpt lat="44.4947333" lon="10.5986817"><ele>538.6</ele><time>2026-04-19T08:53:50.944Z</time></trkpt><trkpt lat="44.4946267" lon="10.59861"><ele>539.1999999999999</ele><time>2026-04-19T08:53:51.92Z</time></trkpt><trkpt lat="44.494525" lon="10.5985533"><ele>539.8</ele><time>2026-04-19T08:53:52.961Z</time></trkpt><trkpt lat="44.4944233" lon="10.5985083"><ele>540.4</ele><time>2026-04-19T08:53:53.961Z</time></trkpt><trkpt lat="44.4943233" lon="10.5984667"><ele>541.0</ele><time>2026-04-19T08:53:54.911Z</time></trkpt><trkpt lat="44.4942217" lon="10.5984217"><ele>541.0</ele><time>2026-04-19T08:53:55.912Z</time></trkpt><trkpt lat="44.4941183" lon="10.59838"><ele>541.0</ele><time>2026-04-19T08:53:56.914Z</time></trkpt><trkpt lat="44.4940117" lon="10.5983417"><ele>541.0</ele><time>2026-04-19T08:53:57.911Z</time></trkpt><trkpt lat="44.4938983" lon="10.5983083"><ele>541.0</ele><time>2026-04-19T08:53:58.936Z</time></trkpt><trkpt lat="44.493785" lon="10.59828"><ele>541.0</ele><time>2026-04-19T08:53:59.927Z</time></trkpt><trkpt lat="44.4936633" lon="10.59826"><ele>540.5</ele><time>2026-04-19T08:54:00.912Z</time></trkpt><trkpt lat="44.49354" lon="10.5982383"><ele>540.0</ele><time>2026-04-19T08:54:01.907Z</time></trkpt><trkpt lat="44.4934083" lon="10.5982183"><ele>539.5</ele><time>2026-04-19T08:54:02.908Z</time></trkpt><trkpt lat="44.4932733" lon="10.5981983"><ele>539.0</ele><time>2026-04-19T08:54:03.941Z</time></trkpt><trkpt lat="44.4931417" lon="10.5981817"><ele>539.0</ele><time>2026-04-19T08:54:04.899Z</time></trkpt><trkpt lat="44.4930133" lon="10.5981667"><ele>539.0</ele><time>2026-04-19T08:54:05.911Z</time></trkpt><trkpt lat="44.4928883" lon="10.5981367"><ele>539.0</ele><time>2026-04-19T08:54:06.967Z</time></trkpt><trkpt lat="44.4927683" lon="10.5980783"><ele>539.0</ele><time>2026-04-19T08:54:07.909Z</time></trkpt><trkpt lat="44.4926517" lon="10.5979833"><ele>538.0</ele><time>2026-04-19T08:54:08.899Z</time></trkpt><trkpt lat="44.492545" lon="10.5978633"><ele>537.0</ele><time>2026-04-19T08:54:09.913Z</time></trkpt><trkpt lat="44.49244" lon="10.5977317"><ele>536.0</ele><time>2026-04-19T08:54:10.94Z</time></trkpt><trkpt lat="44.4923333" lon="10.5976017"><ele>535.0</ele><time>2026-04-19T08:54:11.916Z</time></trkpt><trkpt lat="44.4922217" lon="10.597475"><ele>535.0</ele><time>2026-04-19T08:54:12.9Z</time></trkpt><trkpt lat="44.4921133" lon="10.5973467"><ele>535.0</ele><time>2026-04-19T08:54:13.93Z</time></trkpt><trkpt lat="44.4920167" lon="10.5972117"><ele>535.0</ele><time>2026-04-19T08:54:14.909Z</time></trkpt><trkpt lat="44.4919267" lon="10.5970717"><ele>535.0</ele><time>2026-04-19T08:54:15.931Z</time></trkpt><trkpt lat="44.4918383" lon="10.59693"><ele>537.0</ele><time>2026-04-19T08:54:16.908Z</time></trkpt><trkpt lat="44.4917433" lon="10.5967967"><ele>539.0</ele><time>2026-04-19T08:54:17.91Z</time></trkpt><trkpt lat="44.4916433" lon="10.5966633"><ele>541.0</ele><time>2026-04-19T08:54:18.91Z</time></trkpt><trkpt lat="44.4915467" lon="10.59653"><ele>543.0</ele><time>2026-04-19T08:54:19.91Z</time></trkpt><trkpt lat="44.4914617" lon="10.5964"><ele>543.0</ele><time>2026-04-19T08:54:20.907Z</time></trkpt><trkpt lat="44.491395" lon="10.5962567"><ele>543.0</ele><time>2026-04-19T08:54:21.938Z</time></trkpt><trkpt lat="44.49135" lon="10.5960883"><ele>543.0</ele><time>2026-04-19T08:54:22.908Z</time></trkpt><trkpt lat="44.4913217" lon="10.5959017"><ele>543.0</ele><time>2026-04-19T08:54:23.95Z</time></trkpt><trkpt lat="44.4912983" lon="10.5957033"><ele>541.75</ele><time>2026-04-19T08:54:24.91Z</time></trkpt><trkpt lat="44.4912783" lon="10.5955017"><ele>540.5</ele><time>2026-04-19T08:54:25.978Z</time></trkpt><trkpt lat="44.4912517" lon="10.5952967"><ele>539.25</ele><time>2026-04-19T08:54:26.917Z</time></trkpt><trkpt lat="44.491215" lon="10.59509"><ele>538.0</ele><time>2026-04-19T08:54:27.909Z</time></trkpt><trkpt lat="44.491175" lon="10.594885"><ele>538.0</ele><time>2026-04-19T08:54:28.9Z</time></trkpt><trkpt lat="44.4911317" lon="10.59469"><ele>538.0</ele><time>2026-04-19T08:54:29.917Z</time></trkpt><trkpt lat="44.49109" lon="10.59451"><ele>538.0</ele><time>2026-04-19T08:54:30.912Z</time></trkpt><trkpt lat="44.4910467" lon="10.5943483"><ele>538.0</ele><time>2026-04-19T08:54:31.925Z</time></trkpt><trkpt lat="44.4909917" lon="10.5942"><ele>540.25</ele><time>2026-04-19T08:54:32.906Z</time></trkpt><trkpt lat="44.490915" lon="10.5940783"><ele>542.5</ele><time>2026-04-19T08:54:33.952Z</time></trkpt><trkpt lat="44.49082" lon="10.5939867"><ele>544.75</ele><time>2026-04-19T08:54:34.934Z</time></trkpt><trkpt lat="44.4907067" lon="10.5939317"><ele>547.0</ele><time>2026-04-19T08:54:35.916Z</time></trkpt><trkpt lat="44.4905833" lon="10.593905"><ele>547.0</ele><time>2026-04-19T08:54:36.916Z</time></trkpt><trkpt lat="44.4904517" lon="10.593885"><ele>547.0</ele><time>2026-04-19T08:54:37.908Z</time></trkpt><trkpt lat="44.4903183" lon="10.5938517"><ele>547.0</ele><time>2026-04-19T08:54:38.92Z</time></trkpt><trkpt lat="44.4901883" lon="10.5937717"><ele>547.0</ele><time>2026-04-19T08:54:39.909Z</time></trkpt><trkpt lat="44.4900683" lon="10.5936517"><ele>548.3333333333334</ele><time>2026-04-19T08:54:40.913Z</time></trkpt><trkpt lat="44.4899583" lon="10.5934967"><ele>549.6666666666666</ele><time>2026-04-19T08:54:41.915Z</time></trkpt><trkpt lat="44.4898567" lon="10.5933383"><ele>551.0</ele><time>2026-04-19T08:54:42.942Z</time></trkpt><trkpt lat="44.4897667" lon="10.5931767"><ele>551.0</ele><time>2026-04-19T08:54:43.916Z</time></trkpt><trkpt lat="44.48968" lon="10.5930167"><ele>551.0</ele><time>2026-04-19T08:54:44.939Z</time></trkpt><trkpt lat="44.4895983" lon="10.59286"><ele>551.0</ele><time>2026-04-19T08:54:45.917Z</time></trkpt><trkpt lat="44.4895217" lon="10.592695"><ele>551.0</ele><time>2026-04-19T08:54:46.94Z</time></trkpt><trkpt lat="44.48946" lon="10.5925233"><ele>550.5</ele><time>2026-04-19T08:54:47.917Z</time></trkpt><trkpt lat="44.48942" lon="10.592355"><ele>550.0</ele><time>2026-04-19T08:54:48.907Z</time></trkpt><trkpt lat="44.4893933" lon="10.5921867"><ele>549.5</ele><time>2026-04-19T08:54:49.936Z</time></trkpt><trkpt lat="44.489365" lon="10.5920117"><ele>549.0</ele><time>2026-04-19T08:54:50.931Z</time></trkpt><trkpt lat="44.4893133" lon="10.591845"><ele>549.0</ele><time>2026-04-19T08:54:51.925Z</time></trkpt><trkpt lat="44.4892367" lon="10.5916917"><ele>549.0</ele><time>2026-04-19T08:54:52.917Z</time></trkpt><trkpt lat="44.4891467" lon="10.591555"><ele>549.0</ele><time>2026-04-19T08:54:53.918Z</time></trkpt><trkpt lat="44.489035" lon="10.5914517"><ele>549.0</ele><time>2026-04-19T08:54:54.928Z</time></trkpt><trkpt lat="44.4889067" lon="10.59139"><ele>549.0</ele><time>2026-04-19T08:54:55.919Z</time></trkpt><trkpt lat="44.48878" lon="10.5913567"><ele>549.0</ele><time>2026-04-19T08:54:56.914Z</time></trkpt><trkpt lat="44.4886667" lon="10.591325"><ele>549.0</ele><time>2026-04-19T08:54:57.927Z</time></trkpt><trkpt lat="44.4885683" lon="10.5912583"><ele>549.0</ele><time>2026-04-19T08:54:58.936Z</time></trkpt><trkpt lat="44.4884883" lon="10.591145"><ele>549.25</ele><time>2026-04-19T08:54:59.914Z</time></trkpt><trkpt lat="44.4884317" lon="10.5909917"><ele>549.5</ele><time>2026-04-19T08:55:00.928Z</time></trkpt><trkpt lat="44.4883717" lon="10.59084"><ele>549.75</ele><time>2026-04-19T08:55:01.908Z</time></trkpt><trkpt lat="44.48829" lon="10.5907317"><ele>550.0</ele><time>2026-04-19T08:55:02.91Z</time></trkpt><trkpt lat="44.48817" lon="10.5906767"><ele>550.0</ele><time>2026-04-19T08:55:03.952Z</time></trkpt><trkpt lat="44.4880383" lon="10.5906417"><ele>550.0</ele><time>2026-04-19T08:55:04.91Z</time></trkpt><trkpt lat="44.4879167" lon="10.590575"><ele>550.0</ele><time>2026-04-19T08:55:05.908Z</time></trkpt><trkpt lat="44.4878167" lon="10.5904633"><ele>550.0</ele><time>2026-04-19T08:55:06.935Z</time></trkpt><trkpt lat="44.4877417" lon="10.5903233"><ele>550.25</ele><time>2026-04-19T08:55:07.92Z</time></trkpt><trkpt lat="44.48767" lon="10.5901983"><ele>550.5</ele><time>2026-04-19T08:55:08.908Z</time></trkpt><trkpt lat="44.4875733" lon="10.5901167"><ele>550.75</ele><time>2026-04-19T08:55:09.916Z</time></trkpt><trkpt lat="44.4874617" lon="10.5900667"><ele>551.0</ele><time>2026-04-19T08:55:10.906Z</time></trkpt><trkpt lat="44.487345" lon="10.5900333"><ele>551.0</ele><time>2026-04-19T08:55:11.931Z</time></trkpt><trkpt lat="44.4872183" lon="10.59002"><ele>551.0</ele><time>2026-04-19T08:55:12.913Z</time></trkpt><trkpt lat="44.48709" lon="10.5900133"><ele>551.0</ele><time>2026-04-19T08:55:13.908Z</time></trkpt><trkpt lat="44.48696" lon="10.5900167"><ele>551.0</ele><time>2026-04-19T08:55:14.924Z</time></trkpt><trkpt lat="44.4868217" lon="10.5900217"><ele>549.75</ele><time>2026-04-19T08:55:15.909Z</time></trkpt><trkpt lat="44.48668" lon="10.590025"><ele>548.5</ele><time>2026-04-19T08:55:16.912Z</time></trkpt><trkpt lat="44.4865417" lon="10.5900283"><ele>547.25</ele><time>2026-04-19T08:55:17.917Z</time></trkpt><trkpt lat="44.4864033" lon="10.59003"><ele>546.0</ele><time>2026-04-19T08:55:18.952Z</time></trkpt><trkpt lat="44.486265" lon="10.590035"><ele>544.75</ele><time>2026-04-19T08:55:19.921Z</time></trkpt><trkpt lat="44.486125" lon="10.59003"><ele>543.5</ele><time>2026-04-19T08:55:20.913Z</time></trkpt><trkpt lat="44.48599" lon="10.590025"><ele>542.25</ele><time>2026-04-19T08:55:21.936Z</time></trkpt><trkpt lat="44.4858567" lon="10.5900017"><ele>541.0</ele><time>2026-04-19T08:55:22.93Z</time></trkpt><trkpt lat="44.4857367" lon="10.5899517"><ele>541.0</ele><time>2026-04-19T08:55:23.917Z</time></trkpt><trkpt lat="44.48562" lon="10.589885"><ele>541.0</ele><time>2026-04-19T08:55:24.907Z</time></trkpt><trkpt lat="44.4855067" lon="10.5898183"><ele>541.0</ele><time>2026-04-19T08:55:25.942Z</time></trkpt><trkpt lat="44.4853867" lon="10.5897783"><ele>541.0</ele><time>2026-04-19T08:55:26.918Z</time></trkpt><trkpt lat="44.4852583" lon="10.5897833"><ele>540.5</ele><time>2026-04-19T08:55:27.959Z</time></trkpt><trkpt lat="44.485135" lon="10.5898433"><ele>540.0</ele><time>2026-04-19T08:55:28.907Z</time></trkpt><trkpt lat="44.4850183" lon="10.5899467"><ele>539.5</ele><time>2026-04-19T08:55:29.927Z</time></trkpt><trkpt lat="44.4849017" lon="10.590075"><ele>539.0</ele><time>2026-04-19T08:55:30.91Z</time></trkpt><trkpt lat="44.4847817" lon="10.5902067"><ele>539.0</ele><time>2026-04-19T08:55:31.907Z</time></trkpt><trkpt lat="44.4846567" lon="10.5903383"><ele>539.0</ele><time>2026-04-19T08:55:32.907Z</time></trkpt><trkpt lat="44.4845333" lon="10.590465"><ele>539.0</ele><time>2026-04-19T08:55:33.908Z</time></trkpt><trkpt lat="44.4844167" lon="10.5905867"><ele>538.75</ele><time>2026-04-19T08:55:34.925Z</time></trkpt><trkpt lat="44.4843017" lon="10.5907067"><ele>538.5</ele><time>2026-04-19T08:55:35.953Z</time></trkpt><trkpt lat="44.4841817" lon="10.5908083"><ele>538.25</ele><time>2026-04-19T08:55:36.906Z</time></trkpt><trkpt lat="44.484055" lon="10.5908833"><ele>538.0</ele><time>2026-04-19T08:55:37.917Z</time></trkpt><trkpt lat="44.48392" lon="10.5909267"><ele>538.0</ele><time>2026-04-19T08:55:38.929Z</time></trkpt><trkpt lat="44.4837833" lon="10.590925"><ele>538.0</ele><time>2026-04-19T08:55:39.913Z</time></trkpt><trkpt lat="44.4836517" lon="10.5908967"><ele>538.0</ele><time>2026-04-19T08:55:40.911Z</time></trkpt><trkpt lat="44.4835283" lon="10.5908283"><ele>538.0</ele><time>2026-04-19T08:55:41.909Z</time></trkpt><trkpt lat="44.4834217" lon="10.59073"><ele>536.25</ele><time>2026-04-19T08:55:42.927Z</time></trkpt><trkpt lat="44.4833183" lon="10.590625"><ele>534.5</ele><time>2026-04-19T08:55:43.952Z</time></trkpt><trkpt lat="44.4832133" lon="10.5905433"><ele>532.75</ele><time>2026-04-19T08:55:44.913Z</time></trkpt><trkpt lat="44.4830983" lon="10.5905017"><ele>531.0</ele><time>2026-04-19T08:55:45.939Z</time></trkpt><trkpt lat="44.4829767" lon="10.59053"><ele>527.25</ele><time>2026-04-19T08:55:46.927Z</time></trkpt><trkpt lat="44.4828633" lon="10.5906083"><ele>523.5</ele><time>2026-04-19T08:55:47.908Z</time></trkpt><trkpt lat="44.48277" lon="10.5907267"><ele>519.75</ele><time>2026-04-19T08:55:48.909Z</time></trkpt><trkpt lat="44.4826967" lon="10.590875"><ele>516.0</ele><time>2026-04-19T08:55:49.912Z</time></trkpt><trkpt lat="44.482655" lon="10.5910667"><ele>517.75</ele><time>2026-04-19T08:55:50.936Z</time></trkpt><trkpt lat="44.4826433" lon="10.59128"><ele>519.5</ele><time>2026-04-19T08:55:51.908Z</time></trkpt><trkpt lat="44.482625" lon="10.5914867"><ele>521.25</ele><time>2026-04-19T08:55:52.936Z</time></trkpt><trkpt lat="44.4825883" lon="10.59168"><ele>523.0</ele><time>2026-04-19T08:55:53.95Z</time></trkpt><trkpt lat="44.48253" lon="10.5918617"><ele>524.5</ele><time>2026-04-19T08:55:54.909Z</time></trkpt><trkpt lat="44.4824433" lon="10.592015"><ele>526.0</ele><time>2026-04-19T08:55:55.953Z</time></trkpt><trkpt lat="44.4823467" lon="10.592155"><ele>527.5</ele><time>2026-04-19T08:55:56.912Z</time></trkpt><trkpt lat="44.482245" lon="10.5922767"><ele>529.0</ele><time>2026-04-19T08:55:57.936Z</time></trkpt><trkpt lat="44.48214" lon="10.5924017"><ele>524.5</ele><time>2026-04-19T08:55:58.912Z</time></trkpt><trkpt lat="44.48205" lon="10.5925483"><ele>520.0</ele><time>2026-04-19T08:55:59.937Z</time></trkpt><trkpt lat="44.4819883" lon="10.5927183"><ele>515.5</ele><time>2026-04-19T08:56:00.912Z</time></trkpt><trkpt lat="44.481955" lon="10.5928983"><ele>511.0</ele><time>2026-04-19T08:56:01.911Z</time></trkpt><trkpt lat="44.4819433" lon="10.59309"><ele>511.0</ele><time>2026-04-19T08:56:02.908Z</time></trkpt><trkpt lat="44.4819433" lon="10.593285"><ele>511.0</ele><time>2026-04-19T08:56:03.934Z</time></trkpt><trkpt lat="44.4819317" lon="10.593475"><ele>511.0</ele><time>2026-04-19T08:56:04.907Z</time></trkpt><trkpt lat="44.481895" lon="10.593665"><ele>511.0</ele><time>2026-04-19T08:56:05.924Z</time></trkpt><trkpt lat="44.4818383" lon="10.5938333"><ele>511.0</ele><time>2026-04-19T08:56:06.908Z</time></trkpt><trkpt lat="44.481755" lon="10.5939917"><ele>511.0</ele><time>2026-04-19T08:56:07.938Z</time></trkpt><trkpt lat="44.4816567" lon="10.5941367"><ele>511.0</ele><time>2026-04-19T08:56:08.954Z</time></trkpt><trkpt lat="44.48155" lon="10.5942733"><ele>511.0</ele><time>2026-04-19T08:56:09.917Z</time></trkpt><trkpt lat="44.4814383" lon="10.5943917"><ele>511.0</ele><time>2026-04-19T08:56:10.91Z</time></trkpt><trkpt lat="44.4813117" lon="10.59448"><ele>511.0</ele><time>2026-04-19T08:56:11.952Z</time></trkpt><trkpt lat="44.48117" lon="10.59453"><ele>511.0</ele><time>2026-04-19T08:56:12.913Z</time></trkpt><trkpt lat="44.481025" lon="10.59454"><ele>511.0</ele><time>2026-04-19T08:56:13.93Z</time></trkpt><trkpt lat="44.4808767" lon="10.594515"><ele>508.75</ele><time>2026-04-19T08:56:14.913Z</time></trkpt><trkpt lat="44.4807317" lon="10.5944733"><ele>506.5</ele><time>2026-04-19T08:56:15.986Z</time></trkpt><trkpt lat="44.4805967" lon="10.59444"><ele>504.25</ele><time>2026-04-19T08:56:16.9Z</time></trkpt><trkpt lat="44.4804667" lon="10.59441"><ele>502.0</ele><time>2026-04-19T08:56:17.938Z</time></trkpt><trkpt lat="44.48033" lon="10.5944"><ele>501.25</ele><time>2026-04-19T08:56:18.935Z</time></trkpt><trkpt lat="44.480195" lon="10.59442"><ele>500.5</ele><time>2026-04-19T08:56:19.908Z</time></trkpt><trkpt lat="44.48006" lon="10.5944667"><ele>499.75</ele><time>2026-04-19T08:56:20.935Z</time></trkpt><trkpt lat="44.479925" lon="10.5945467"><ele>499.0</ele><time>2026-04-19T08:56:21.908Z</time></trkpt><trkpt lat="44.479795" lon="10.594645"><ele>498.75</ele><time>2026-04-19T08:56:22.921Z</time></trkpt><trkpt lat="44.4796617" lon="10.5947483"><ele>498.5</ele><time>2026-04-19T08:56:23.91Z</time></trkpt><trkpt lat="44.47953" lon="10.5948467"><ele>498.25</ele><time>2026-04-19T08:56:24.906Z</time></trkpt><trkpt lat="44.4794" lon="10.594945"><ele>498.0</ele><time>2026-04-19T08:56:25.981Z</time></trkpt><trkpt lat="44.4792683" lon="10.5950383"><ele>500.0</ele><time>2026-04-19T08:56:26.968Z</time></trkpt><trkpt lat="44.4791317" lon="10.5951217"><ele>502.0</ele><time>2026-04-19T08:56:27.937Z</time></trkpt><trkpt lat="44.478995" lon="10.5951983"><ele>504.0</ele><time>2026-04-19T08:56:28.931Z</time></trkpt><trkpt lat="44.478865" lon="10.5952833"><ele>506.0</ele><time>2026-04-19T08:56:29.93Z</time></trkpt><trkpt lat="44.478745" lon="10.595385"><ele>507.75</ele><time>2026-04-19T08:56:30.909Z</time></trkpt><trkpt lat="44.478645" lon="10.5955167"><ele>509.5</ele><time>2026-04-19T08:56:31.91Z</time></trkpt><trkpt lat="44.4785567" lon="10.5956467"><ele>511.25</ele><time>2026-04-19T08:56:32.91Z</time></trkpt><trkpt lat="44.4784617" lon="10.595755"><ele>513.0</ele><time>2026-04-19T08:56:33.971Z</time></trkpt><trkpt lat="44.47835" lon="10.5958283"><ele>513.0</ele><time>2026-04-19T08:56:34.941Z</time></trkpt><trkpt lat="44.4782267" lon="10.595855"><ele>513.0</ele><time>2026-04-19T08:56:35.935Z</time></trkpt><trkpt lat="44.4780933" lon="10.595875"><ele>513.0</ele><time>2026-04-19T08:56:36.928Z</time></trkpt><trkpt lat="44.477965" lon="10.59592"><ele>513.0</ele><time>2026-04-19T08:56:37.946Z</time></trkpt><trkpt lat="44.4778517" lon="10.59599"><ele>514.0</ele><time>2026-04-19T08:56:38.92Z</time></trkpt><trkpt lat="44.4777467" lon="10.5960567"><ele>515.0</ele><time>2026-04-19T08:56:39.925Z</time></trkpt><trkpt lat="44.4776383" lon="10.5960683"><ele>516.0</ele><time>2026-04-19T08:56:40.911Z</time></trkpt><trkpt lat="44.477525" lon="10.5960383"><ele>517.0</ele><time>2026-04-19T08:56:41.929Z</time></trkpt><trkpt lat="44.477425" lon="10.5959467"><ele>517.0</ele><time>2026-04-19T08:56:42.929Z</time></trkpt><trkpt lat="44.4773317" lon="10.5958"><ele>517.0</ele><time>2026-04-19T08:56:43.909Z</time></trkpt><trkpt lat="44.4772383" lon="10.59564"><ele>517.0</ele><time>2026-04-19T08:56:44.912Z</time></trkpt><trkpt lat="44.4771483" lon="10.59548"><ele>517.0</ele><time>2026-04-19T08:56:45.913Z</time></trkpt><trkpt lat="44.4770517" lon="10.5953333"><ele>517.5</ele><time>2026-04-19T08:56:46.91Z</time></trkpt><trkpt lat="44.476955" lon="10.595185"><ele>518.0</ele><time>2026-04-19T08:56:47.925Z</time></trkpt><trkpt lat="44.47685" lon="10.5950583"><ele>518.5</ele><time>2026-04-19T08:56:48.909Z</time></trkpt><trkpt lat="44.47673" lon="10.594955"><ele>519.0</ele><time>2026-04-19T08:56:49.92Z</time></trkpt><trkpt lat="44.4766067" lon="10.5948683"><ele>519.0</ele><time>2026-04-19T08:56:50.92Z</time></trkpt><trkpt lat="44.4764867" lon="10.59479"><ele>519.0</ele><time>2026-04-19T08:56:51.914Z</time></trkpt><trkpt lat="44.4763733" lon="10.594705"><ele>519.0</ele><time>2026-04-19T08:56:52.908Z</time></trkpt><trkpt lat="44.4762717" lon="10.5945883"><ele>519.0</ele><time>2026-04-19T08:56:53.961Z</time></trkpt><trkpt lat="44.476205" lon="10.59444"><ele>517.75</ele><time>2026-04-19T08:56:54.945Z</time></trkpt><trkpt lat="44.4761767" lon="10.5942567"><ele>516.5</ele><time>2026-04-19T08:56:55.918Z</time></trkpt><trkpt lat="44.4761917" lon="10.5940517"><ele>515.25</ele><time>2026-04-19T08:56:56.923Z</time></trkpt><trkpt lat="44.476195" lon="10.5938633"><ele>514.0</ele><time>2026-04-19T08:56:57.91Z</time></trkpt><trkpt lat="44.4761767" lon="10.5936833"><ele>517.5</ele><time>2026-04-19T08:56:58.961Z</time></trkpt><trkpt lat="44.4761217" lon="10.5935417"><ele>521.0</ele><time>2026-04-19T08:56:59.943Z</time></trkpt><trkpt lat="44.4760417" lon="10.5934267"><ele>524.5</ele><time>2026-04-19T08:57:00.934Z</time></trkpt><trkpt lat="44.4759483" lon="10.593335"><ele>528.0</ele><time>2026-04-19T08:57:01.91Z</time></trkpt><trkpt lat="44.4758517" lon="10.5932567"><ele>528.0</ele><time>2026-04-19T08:57:02.943Z</time></trkpt><trkpt lat="44.4757517" lon="10.5932083"><ele>528.0</ele><time>2026-04-19T08:57:03.939Z</time></trkpt><trkpt lat="44.4756483" lon="10.5931867"><ele>528.0</ele><time>2026-04-19T08:57:04.912Z</time></trkpt><trkpt lat="44.47555" lon="10.5931967"><ele>528.0</ele><time>2026-04-19T08:57:05.913Z</time></trkpt><trkpt lat="44.4754567" lon="10.5932183"><ele>528.0</ele><time>2026-04-19T08:57:06.912Z</time></trkpt><trkpt lat="44.47536" lon="10.5932333"><ele>526.0</ele><time>2026-04-19T08:57:07.925Z</time></trkpt><trkpt lat="44.4752533" lon="10.59323"><ele>524.0</ele><time>2026-04-19T08:57:08.911Z</time></trkpt><trkpt lat="44.4751517" lon="10.5932083"><ele>522.0</ele><time>2026-04-19T08:57:09.909Z</time></trkpt><trkpt lat="44.4750533" lon="10.5931583"><ele>520.0</ele><time>2026-04-19T08:57:10.93Z</time></trkpt><trkpt lat="44.4749667" lon="10.5930833"><ele>518.0</ele><time>2026-04-19T08:57:11.913Z</time></trkpt><trkpt lat="44.4748967" lon="10.593"><ele>518.0</ele><time>2026-04-19T08:57:12.913Z</time></trkpt><trkpt lat="44.4748483" lon="10.5929167"><ele>518.0</ele><time>2026-04-19T08:57:13.912Z</time></trkpt><trkpt lat="44.474825" lon="10.5928167"><ele>518.0</ele><time>2026-04-19T08:57:14.913Z</time></trkpt><trkpt lat="44.474815" lon="10.5927117"><ele>518.0</ele><time>2026-04-19T08:57:15.915Z</time></trkpt><trkpt lat="44.47483" lon="10.5925933"><ele>518.0</ele><time>2026-04-19T08:57:16.931Z</time></trkpt><trkpt lat="44.474845" lon="10.5924717"><ele>518.0</ele><time>2026-04-19T08:57:17.913Z</time></trkpt><trkpt lat="44.4748517" lon="10.592355"><ele>520.5</ele><time>2026-04-19T08:57:18.908Z</time></trkpt><trkpt lat="44.4748417" lon="10.5922433"><ele>523.0</ele><time>2026-04-19T08:57:19.925Z</time></trkpt><trkpt lat="44.4748183" lon="10.592135"><ele>525.5</ele><time>2026-04-19T08:57:20.909Z</time></trkpt><trkpt lat="44.47478" lon="10.5920367"><ele>528.0</ele><time>2026-04-19T08:57:21.911Z</time></trkpt><trkpt lat="44.4747267" lon="10.5919417"><ele>530.5</ele><time>2026-04-19T08:57:22.912Z</time></trkpt><trkpt lat="44.4746733" lon="10.591845"><ele>533.0</ele><time>2026-04-19T08:57:23.909Z</time></trkpt><trkpt lat="44.4746233" lon="10.5917367"><ele>533.5</ele><time>2026-04-19T08:57:24.909Z</time></trkpt><trkpt lat="44.47458" lon="10.5916333"><ele>534.0</ele><time>2026-04-19T08:57:25.909Z</time></trkpt><trkpt lat="44.4745417" lon="10.59153"><ele>534.5</ele><time>2026-04-19T08:57:26.928Z</time></trkpt><trkpt lat="44.4745017" lon="10.59143"><ele>535.0</ele><time>2026-04-19T08:57:27.961Z</time></trkpt><trkpt lat="44.47447" lon="10.5913283"><ele>535.5</ele><time>2026-04-19T08:57:28.917Z</time></trkpt><trkpt lat="44.4744367" lon="10.5912267"><ele>536.0</ele><time>2026-04-19T08:57:29.923Z</time></trkpt><trkpt lat="44.4744" lon="10.5911283"><ele>536.0</ele><time>2026-04-19T08:57:30.924Z</time></trkpt><trkpt lat="44.4743583" lon="10.5910333"><ele>536.0</ele><time>2026-04-19T08:57:31.911Z</time></trkpt><trkpt lat="44.474315" lon="10.5909333"><ele>536.0</ele><time>2026-04-19T08:57:32.912Z</time></trkpt><trkpt lat="44.47427" lon="10.590825"><ele>536.0</ele><time>2026-04-19T08:57:33.923Z</time></trkpt><trkpt lat="44.4742233" lon="10.590705"><ele>536.0</ele><time>2026-04-19T08:57:34.916Z</time></trkpt><trkpt lat="44.474175" lon="10.5905733"><ele>536.0</ele><time>2026-04-19T08:57:35.916Z</time></trkpt><trkpt lat="44.4741333" lon="10.5904267"><ele>536.0</ele><time>2026-04-19T08:57:36.908Z</time></trkpt><trkpt lat="44.4740967" lon="10.5902667"><ele>536.0</ele><time>2026-04-19T08:57:37.911Z</time></trkpt><trkpt lat="44.4740717" lon="10.5900933"><ele>536.0</ele><time>2026-04-19T08:57:38.943Z</time></trkpt><trkpt lat="44.4740517" lon="10.58993"><ele>537.25</ele><time>2026-04-19T08:57:39.916Z</time></trkpt><trkpt lat="44.4740233" lon="10.589775"><ele>538.5</ele><time>2026-04-19T08:57:40.991Z</time></trkpt><trkpt lat="44.4739533" lon="10.5896467"><ele>539.75</ele><time>2026-04-19T08:57:41.92Z</time></trkpt><trkpt lat="44.4738817" lon="10.58952"><ele>541.0</ele><time>2026-04-19T08:57:42.953Z</time></trkpt><trkpt lat="44.47379" lon="10.5894017"><ele>539.0</ele><time>2026-04-19T08:57:43.907Z</time></trkpt><trkpt lat="44.473685" lon="10.5892817"><ele>537.0</ele><time>2026-04-19T08:57:44.913Z</time></trkpt><trkpt lat="44.473575" lon="10.58916"><ele>535.0</ele><time>2026-04-19T08:57:45.925Z</time></trkpt><trkpt lat="44.4734617" lon="10.5890333"><ele>533.0</ele><time>2026-04-19T08:57:46.908Z</time></trkpt><trkpt lat="44.473345" lon="10.5889067"><ele>533.0</ele><time>2026-04-19T08:57:47.919Z</time></trkpt><trkpt lat="44.4732283" lon="10.5887817"><ele>533.0</ele><time>2026-04-19T08:57:48.91Z</time></trkpt><trkpt lat="44.4731067" lon="10.58866"><ele>533.0</ele><time>2026-04-19T08:57:49.911Z</time></trkpt><trkpt lat="44.47299" lon="10.5885417"><ele>533.0</ele><time>2026-04-19T08:57:50.911Z</time></trkpt><trkpt lat="44.47288" lon="10.5884167"><ele>533.5</ele><time>2026-04-19T08:57:51.913Z</time></trkpt><trkpt lat="44.4727767" lon="10.588275"><ele>534.0</ele><time>2026-04-19T08:57:52.919Z</time></trkpt><trkpt lat="44.4726867" lon="10.58812"><ele>534.5</ele><time>2026-04-19T08:57:53.924Z</time></trkpt><trkpt lat="44.4726067" lon="10.587955"><ele>535.0</ele><time>2026-04-19T08:57:54.929Z</time></trkpt><trkpt lat="44.4725233" lon="10.58779"><ele>535.0</ele><time>2026-04-19T08:57:55.932Z</time></trkpt><trkpt lat="44.4724433" lon="10.58762"><ele>535.0</ele><time>2026-04-19T08:57:56.927Z</time></trkpt><trkpt lat="44.47236" lon="10.5874617"><ele>535.0</ele><time>2026-04-19T08:57:57.916Z</time></trkpt><trkpt lat="44.47227" lon="10.5873083"><ele>535.0</ele><time>2026-04-19T08:57:58.93Z</time></trkpt><trkpt lat="44.4721733" lon="10.5871733"><ele>534.75</ele><time>2026-04-19T08:57:59.954Z</time></trkpt><trkpt lat="44.4720617" lon="10.587065"><ele>534.5</ele><time>2026-04-19T08:58:00.911Z</time></trkpt><trkpt lat="44.4719467" lon="10.5869783"><ele>534.25</ele><time>2026-04-19T08:58:01.91Z</time></trkpt><trkpt lat="44.4718283" lon="10.58691"><ele>534.0</ele><time>2026-04-19T08:58:02.907Z</time></trkpt><trkpt lat="44.4717067" lon="10.5868567"><ele>538.0</ele><time>2026-04-19T08:58:03.909Z</time></trkpt><trkpt lat="44.4715867" lon="10.586795"><ele>542.0</ele><time>2026-04-19T08:58:04.91Z</time></trkpt><trkpt lat="44.47148" lon="10.5867033"><ele>546.0</ele><time>2026-04-19T08:58:05.951Z</time></trkpt><trkpt lat="44.47139" lon="10.586575"><ele>550.0</ele><time>2026-04-19T08:58:06.91Z</time></trkpt><trkpt lat="44.4713" lon="10.5864317"><ele>550.75</ele><time>2026-04-19T08:58:07.907Z</time></trkpt><trkpt lat="44.4711983" lon="10.5862983"><ele>551.5</ele><time>2026-04-19T08:58:08.937Z</time></trkpt><trkpt lat="44.47108" lon="10.5861933"><ele>552.25</ele><time>2026-04-19T08:58:09.907Z</time></trkpt><trkpt lat="44.47095" lon="10.5861133"><ele>553.0</ele><time>2026-04-19T08:58:10.912Z</time></trkpt><trkpt lat="44.4708067" lon="10.5860583"><ele>553.0</ele><time>2026-04-19T08:58:11.914Z</time></trkpt><trkpt lat="44.4706567" lon="10.5860183"><ele>553.0</ele><time>2026-04-19T08:58:12.917Z</time></trkpt><trkpt lat="44.47051" lon="10.5859783"><ele>553.0</ele><time>2026-04-19T08:58:13.912Z</time></trkpt><trkpt lat="44.4703683" lon="10.5859317"><ele>553.0</ele><time>2026-04-19T08:58:14.928Z</time></trkpt><trkpt lat="44.4702317" lon="10.5858783"><ele>554.5</ele><time>2026-04-19T08:58:15.914Z</time></trkpt><trkpt lat="44.4701" lon="10.585825"><ele>556.0</ele><time>2026-04-19T08:58:16.913Z</time></trkpt><trkpt lat="44.4699733" lon="10.5857717"><ele>557.5</ele><time>2026-04-19T08:58:17.915Z</time></trkpt><trkpt lat="44.4698517" lon="10.5857183"><ele>559.0</ele><time>2026-04-19T08:58:18.921Z</time></trkpt><trkpt lat="44.469735" lon="10.585665"><ele>559.0</ele><time>2026-04-19T08:58:19.914Z</time></trkpt><trkpt lat="44.4696183" lon="10.5856133"><ele>559.0</ele><time>2026-04-19T08:58:20.912Z</time></trkpt><trkpt lat="44.4695017" lon="10.5855633"><ele>559.0</ele><time>2026-04-19T08:58:21.967Z</time></trkpt><trkpt lat="44.4694" lon="10.585515"><ele>559.0</ele><time>2026-04-19T08:58:22.925Z</time></trkpt><trkpt lat="44.4693083" lon="10.5854767"><ele>559.0</ele><time>2026-04-19T08:58:23.91Z</time></trkpt><trkpt lat="44.4692117" lon="10.58544"><ele>559.1666666666667</ele><time>2026-04-19T08:58:24.911Z</time></trkpt><trkpt lat="44.469115" lon="10.585405"><ele>559.3333333333334</ele><time>2026-04-19T08:58:25.916Z</time></trkpt><trkpt lat="44.4690283" lon="10.5853733"><ele>559.5</ele><time>2026-04-19T08:58:26.913Z</time></trkpt><trkpt lat="44.4689433" lon="10.5853567"><ele>559.6666666666666</ele><time>2026-04-19T08:58:27.913Z</time></trkpt><trkpt lat="44.4688583" lon="10.5853583"><ele>559.8333333333333</ele><time>2026-04-19T08:58:28.912Z</time></trkpt><trkpt lat="44.46878" lon="10.58536"><ele>560.0</ele><time>2026-04-19T08:58:29.919Z</time></trkpt><trkpt lat="44.46871" lon="10.5853583"><ele>561.5</ele><time>2026-04-19T08:58:30.907Z</time></trkpt><trkpt lat="44.4685983" lon="10.585345"><ele>563.0</ele><time>2026-04-19T08:58:32.945Z</time></trkpt><trkpt lat="44.4685333" lon="10.5853333"><ele>564.5</ele><time>2026-04-19T08:58:33.909Z</time></trkpt><trkpt lat="44.4684617" lon="10.5853133"><ele>566.0</ele><time>2026-04-19T08:58:34.913Z</time></trkpt><trkpt lat="44.4683833" lon="10.5852867"><ele>567.5</ele><time>2026-04-19T08:58:35.913Z</time></trkpt><trkpt lat="44.4682967" lon="10.5852533"><ele>569.0</ele><time>2026-04-19T08:58:36.914Z</time></trkpt><trkpt lat="44.4682067" lon="10.5852167"><ele>569.0</ele><time>2026-04-19T08:58:37.911Z</time></trkpt><trkpt lat="44.4681133" lon="10.5851733"><ele>569.0</ele><time>2026-04-19T08:58:38.921Z</time></trkpt><trkpt lat="44.4680083" lon="10.5851333"><ele>569.0</ele><time>2026-04-19T08:58:39.91Z</time></trkpt><trkpt lat="44.4679017" lon="10.5850883"><ele>569.0</ele><time>2026-04-19T08:58:40.916Z</time></trkpt><trkpt lat="44.46779" lon="10.58504"><ele>569.0</ele><time>2026-04-19T08:58:41.919Z</time></trkpt><trkpt lat="44.4676783" lon="10.584995"><ele>570.2</ele><time>2026-04-19T08:58:42.923Z</time></trkpt><trkpt lat="44.4675683" lon="10.5849467"><ele>571.4</ele><time>2026-04-19T08:58:43.916Z</time></trkpt><trkpt lat="44.4674617" lon="10.5848933"><ele>572.6</ele><time>2026-04-19T08:58:44.91Z</time></trkpt><trkpt lat="44.46736" lon="10.584845"><ele>573.8</ele><time>2026-04-19T08:58:45.924Z</time></trkpt><trkpt lat="44.4672617" lon="10.5847933"><ele>575.0</ele><time>2026-04-19T08:58:46.936Z</time></trkpt><trkpt lat="44.4671683" lon="10.5847317"><ele>576.2</ele><time>2026-04-19T08:58:47.913Z</time></trkpt><trkpt lat="44.467075" lon="10.58466"><ele>577.4</ele><time>2026-04-19T08:58:48.911Z</time></trkpt><trkpt lat="44.4669817" lon="10.5845717"><ele>578.6</ele><time>2026-04-19T08:58:49.923Z</time></trkpt><trkpt lat="44.46689" lon="10.5844717"><ele>579.8</ele><time>2026-04-19T08:58:50.944Z</time></trkpt><trkpt lat="44.4668033" lon="10.5843717"><ele>581.0</ele><time>2026-04-19T08:58:51.926Z</time></trkpt><trkpt lat="44.4667183" lon="10.5842767"><ele>581.8</ele><time>2026-04-19T08:58:52.918Z</time></trkpt><trkpt lat="44.4666333" lon="10.584185"><ele>582.6</ele><time>2026-04-19T08:58:53.931Z</time></trkpt><trkpt lat="44.4665533" lon="10.58409"><ele>583.4</ele><time>2026-04-19T08:58:54.933Z</time></trkpt><trkpt lat="44.4664817" lon="10.5839833"><ele>584.2</ele><time>2026-04-19T08:58:55.921Z</time></trkpt><trkpt lat="44.4664183" lon="10.5838717"><ele>585.0</ele><time>2026-04-19T08:58:56.918Z</time></trkpt><trkpt lat="44.4663583" lon="10.5837583"><ele>583.4</ele><time>2026-04-19T08:58:57.936Z</time></trkpt><trkpt lat="44.46629" lon="10.5836617"><ele>581.8</ele><time>2026-04-19T08:58:58.911Z</time></trkpt><trkpt lat="44.4662117" lon="10.58359"><ele>580.2</ele><time>2026-04-19T08:58:59.908Z</time></trkpt><trkpt lat="44.4661317" lon="10.583545"><ele>578.6</ele><time>2026-04-19T08:59:00.91Z</time></trkpt><trkpt lat="44.4660283" lon="10.58352"><ele>577.0</ele><time>2026-04-19T08:59:01.912Z</time></trkpt><trkpt lat="44.4659283" lon="10.5834833"><ele>579.6666666666667</ele><time>2026-04-19T08:59:02.911Z</time></trkpt><trkpt lat="44.4658333" lon="10.5834333"><ele>582.3333333333334</ele><time>2026-04-19T08:59:03.91Z</time></trkpt><trkpt lat="44.4657567" lon="10.58336"><ele>585.0</ele><time>2026-04-19T08:59:04.912Z</time></trkpt><trkpt lat="44.4657017" lon="10.5832633"><ele>587.6666666666666</ele><time>2026-04-19T08:59:05.909Z</time></trkpt><trkpt lat="44.4656467" lon="10.5831867"><ele>590.3333333333333</ele><time>2026-04-19T08:59:06.91Z</time></trkpt><trkpt lat="44.4655717" lon="10.5831733"><ele>593.0</ele><time>2026-04-19T08:59:07.909Z</time></trkpt><trkpt lat="44.4655" lon="10.5832033"><ele>593.0</ele><time>2026-04-19T08:59:08.907Z</time></trkpt><trkpt lat="44.465455" lon="10.5832967"><ele>593.0</ele><time>2026-04-19T08:59:09.91Z</time></trkpt><trkpt lat="44.4654267" lon="10.5833917"><ele>593.0</ele><time>2026-04-19T08:59:10.913Z</time></trkpt><trkpt lat="44.4654217" lon="10.5835033"><ele>593.0</ele><time>2026-04-19T08:59:11.911Z</time></trkpt><trkpt lat="44.46542" lon="10.5836283"><ele>593.0</ele><time>2026-04-19T08:59:12.923Z</time></trkpt><trkpt lat="44.4654067" lon="10.5837483"><ele>593.0</ele><time>2026-04-19T08:59:13.911Z</time></trkpt><trkpt lat="44.4653833" lon="10.5838683"><ele>596.4</ele><time>2026-04-19T08:59:14.91Z</time></trkpt><trkpt lat="44.4653533" lon="10.5839783"><ele>599.8</ele><time>2026-04-19T08:59:15.91Z</time></trkpt><trkpt lat="44.4653183" lon="10.5840767"><ele>603.2</ele><time>2026-04-19T08:59:16.913Z</time></trkpt><trkpt lat="44.4652767" lon="10.58415"><ele>606.6</ele><time>2026-04-19T08:59:17.909Z</time></trkpt><trkpt lat="44.4651683" lon="10.5841517"><ele>610.0</ele><time>2026-04-19T08:59:19.909Z</time></trkpt><trkpt lat="44.4651133" lon="10.583935"><ele>610.0</ele><time>2026-04-19T08:59:21.911Z</time></trkpt><trkpt lat="44.465105" lon="10.5837783"><ele>610.0</ele><time>2026-04-19T08:59:22.932Z</time></trkpt><trkpt lat="44.46509" lon="10.583645"><ele>610.0</ele><time>2026-04-19T08:59:23.912Z</time></trkpt><trkpt lat="44.465075" lon="10.5835217"><ele>610.0</ele><time>2026-04-19T08:59:24.907Z</time></trkpt><trkpt lat="44.4650483" lon="10.5834033"><ele>610.0</ele><time>2026-04-19T08:59:25.912Z</time></trkpt><trkpt lat="44.465" lon="10.58329"><ele>611.0</ele><time>2026-04-19T08:59:26.912Z</time></trkpt><trkpt lat="44.46494" lon="10.5831817"><ele>612.0</ele><time>2026-04-19T08:59:27.908Z</time></trkpt><trkpt lat="44.46487" lon="10.5830833"><ele>613.0</ele><time>2026-04-19T08:59:28.912Z</time></trkpt><trkpt lat="44.46479" lon="10.583"><ele>614.0</ele><time>2026-04-19T08:59:29.908Z</time></trkpt><trkpt lat="44.464705" lon="10.5829333"><ele>615.0</ele><time>2026-04-19T08:59:30.91Z</time></trkpt><trkpt lat="44.4646167" lon="10.5828783"><ele>620.8</ele><time>2026-04-19T08:59:31.909Z</time></trkpt><trkpt lat="44.4645217" lon="10.582825"><ele>626.6</ele><time>2026-04-19T08:59:32.91Z</time></trkpt><trkpt lat="44.4644383" lon="10.5827617"><ele>632.4000000000001</ele><time>2026-04-19T08:59:33.908Z</time></trkpt><trkpt lat="44.4643717" lon="10.5826617"><ele>638.2</ele><time>2026-04-19T08:59:34.91Z</time></trkpt><trkpt lat="44.464335" lon="10.5825267"><ele>644.0</ele><time>2026-04-19T08:59:35.91Z</time></trkpt><trkpt lat="44.464315" lon="10.58238"><ele>644.0</ele><time>2026-04-19T08:59:36.909Z</time></trkpt><trkpt lat="44.4642933" lon="10.58223"><ele>644.0</ele><time>2026-04-19T08:59:37.909Z</time></trkpt><trkpt lat="44.4642667" lon="10.5820767"><ele>644.0</ele><time>2026-04-19T08:59:38.909Z</time></trkpt><trkpt lat="44.464225" lon="10.5819267"><ele>644.0</ele><time>2026-04-19T08:59:39.91Z</time></trkpt><trkpt lat="44.4641667" lon="10.581795"><ele>644.0</ele><time>2026-04-19T08:59:40.917Z</time></trkpt><trkpt lat="44.4640933" lon="10.58168"><ele>644.25</ele><time>2026-04-19T08:59:41.912Z</time></trkpt><trkpt lat="44.4640167" lon="10.581565"><ele>644.5</ele><time>2026-04-19T08:59:42.923Z</time></trkpt><trkpt lat="44.46394" lon="10.58145"><ele>644.75</ele><time>2026-04-19T08:59:43.911Z</time></trkpt><trkpt lat="44.4638567" lon="10.5813333"><ele>645.0</ele><time>2026-04-19T08:59:44.91Z</time></trkpt><trkpt lat="44.46377" lon="10.5812217"><ele>646.75</ele><time>2026-04-19T08:59:45.91Z</time></trkpt><trkpt lat="44.463675" lon="10.58112"><ele>648.5</ele><time>2026-04-19T08:59:46.925Z</time></trkpt><trkpt lat="44.4635767" lon="10.5810333"><ele>650.25</ele><time>2026-04-19T08:59:47.909Z</time></trkpt><trkpt lat="44.4634767" lon="10.5809583"><ele>652.0</ele><time>2026-04-19T08:59:48.911Z</time></trkpt><trkpt lat="44.4633767" lon="10.58089"><ele>652.0</ele><time>2026-04-19T08:59:49.94Z</time></trkpt><trkpt lat="44.4632817" lon="10.5808217"><ele>652.0</ele><time>2026-04-19T08:59:50.912Z</time></trkpt><trkpt lat="44.4631933" lon="10.580735"><ele>652.0</ele><time>2026-04-19T08:59:51.912Z</time></trkpt><trkpt lat="44.4631183" lon="10.5806283"><ele>652.0</ele><time>2026-04-19T08:59:52.912Z</time></trkpt><trkpt lat="44.46306" lon="10.5804983"><ele>652.0</ele><time>2026-04-19T08:59:53.912Z</time></trkpt><trkpt lat="44.4630167" lon="10.5803567"><ele>651.0</ele><time>2026-04-19T08:59:54.911Z</time></trkpt><trkpt lat="44.4629933" lon="10.5802033"><ele>650.0</ele><time>2026-04-19T08:59:55.912Z</time></trkpt><trkpt lat="44.4629817" lon="10.5800433"><ele>649.0</ele><time>2026-04-19T08:59:56.912Z</time></trkpt><trkpt lat="44.4629983" lon="10.57988"><ele>648.0</ele><time>2026-04-19T08:59:57.908Z</time></trkpt><trkpt lat="44.4630383" lon="10.57972"><ele>648.0</ele><time>2026-04-19T08:59:58.914Z</time></trkpt><trkpt lat="44.463095" lon="10.579565"><ele>648.0</ele><time>2026-04-19T08:59:59.909Z</time></trkpt><trkpt lat="44.4631617" lon="10.5794183"><ele>648.0</ele><time>2026-04-19T09:00:00.909Z</time></trkpt><trkpt lat="44.4632333" lon="10.5792733"><ele>648.0</ele><time>2026-04-19T09:00:01.91Z</time></trkpt><trkpt lat="44.4632967" lon="10.5791217"><ele>650.0</ele><time>2026-04-19T09:00:02.912Z</time></trkpt><trkpt lat="44.4633617" lon="10.5789717"><ele>652.0</ele><time>2026-04-19T09:00:03.911Z</time></trkpt><trkpt lat="44.4634283" lon="10.5788233"><ele>654.0</ele><time>2026-04-19T09:00:04.907Z</time></trkpt><trkpt lat="44.46349" lon="10.5786883"><ele>656.0</ele><time>2026-04-19T09:00:05.912Z</time></trkpt><trkpt lat="44.4635433" lon="10.5785617"><ele>658.4</ele><time>2026-04-19T09:00:06.91Z</time></trkpt><trkpt lat="44.46358" lon="10.57844"><ele>660.8</ele><time>2026-04-19T09:00:07.911Z</time></trkpt><trkpt lat="44.4635917" lon="10.5783167"><ele>663.1999999999999</ele><time>2026-04-19T09:00:08.913Z</time></trkpt><trkpt lat="44.463575" lon="10.5782033"><ele>665.5999999999999</ele><time>2026-04-19T09:00:09.91Z</time></trkpt><trkpt lat="44.463525" lon="10.5781167"><ele>668.0</ele><time>2026-04-19T09:00:10.913Z</time></trkpt><trkpt lat="44.46342" lon="10.5780867"><ele>668.0</ele><time>2026-04-19T09:00:11.91Z</time></trkpt><trkpt lat="44.4633233" lon="10.5780783"><ele>668.0</ele><time>2026-04-19T09:00:12.912Z</time></trkpt><trkpt lat="44.4632417" lon="10.5780867"><ele>668.0</ele><time>2026-04-19T09:00:13.91Z</time></trkpt><trkpt lat="44.4631617" lon="10.5780933"><ele>668.0</ele><time>2026-04-19T09:00:14.91Z</time></trkpt><trkpt lat="44.4630767" lon="10.578105"><ele>668.0</ele><time>2026-04-19T09:00:15.909Z</time></trkpt><trkpt lat="44.4629883" lon="10.5781283"><ele>668.0</ele><time>2026-04-19T09:00:16.912Z</time></trkpt><trkpt lat="44.4629" lon="10.5781633"><ele>672.3333333333333</ele><time>2026-04-19T09:00:17.909Z</time></trkpt><trkpt lat="44.4628117" lon="10.5782083"><ele>676.6666666666666</ele><time>2026-04-19T09:00:18.909Z</time></trkpt><trkpt lat="44.462725" lon="10.5782467"><ele>681.0</ele><time>2026-04-19T09:00:19.911Z</time></trkpt><trkpt lat="44.462645" lon="10.578285"><ele>685.3333333333334</ele><time>2026-04-19T09:00:20.91Z</time></trkpt><trkpt lat="44.462565" lon="10.5783217"><ele>689.6666666666667</ele><time>2026-04-19T09:00:21.91Z</time></trkpt><trkpt lat="44.4624867" lon="10.578365"><ele>694.0</ele><time>2026-04-19T09:00:22.911Z</time></trkpt><trkpt lat="44.4624067" lon="10.5784233"><ele>694.0</ele><time>2026-04-19T09:00:23.913Z</time></trkpt><trkpt lat="44.4623283" lon="10.5784933"><ele>694.0</ele><time>2026-04-19T09:00:24.909Z</time></trkpt><trkpt lat="44.4622467" lon="10.57858"><ele>694.0</ele><time>2026-04-19T09:00:25.911Z</time></trkpt><trkpt lat="44.4621817" lon="10.578685"><ele>694.0</ele><time>2026-04-19T09:00:26.912Z</time></trkpt><trkpt lat="44.4621167" lon="10.578805"><ele>694.0</ele><time>2026-04-19T09:00:27.91Z</time></trkpt><trkpt lat="44.462055" lon="10.5789217"><ele>698.2</ele><time>2026-04-19T09:00:28.91Z</time></trkpt><trkpt lat="44.4620033" lon="10.579035"><ele>702.4000000000001</ele><time>2026-04-19T09:00:29.911Z</time></trkpt><trkpt lat="44.4619567" lon="10.5791467"><ele>706.6</ele><time>2026-04-19T09:00:30.909Z</time></trkpt><trkpt lat="44.4619067" lon="10.579255"><ele>710.8</ele><time>2026-04-19T09:00:31.911Z</time></trkpt><trkpt lat="44.461865" lon="10.5793583"><ele>715.0</ele><time>2026-04-19T09:00:32.911Z</time></trkpt><trkpt lat="44.4618333" lon="10.5794683"><ele>712.0</ele><time>2026-04-19T09:00:33.911Z</time></trkpt><trkpt lat="44.4618267" lon="10.579585"><ele>709.0</ele><time>2026-04-19T09:00:34.911Z</time></trkpt><trkpt lat="44.4618183" lon="10.5796967"><ele>706.0</ele><time>2026-04-19T09:00:35.911Z</time></trkpt><trkpt lat="44.4618283" lon="10.5798033"><ele>703.0</ele><time>2026-04-19T09:00:36.91Z</time></trkpt><trkpt lat="44.46174" lon="10.5799133"><ele>700.0</ele><time>2026-04-19T09:00:38.916Z</time></trkpt><trkpt lat="44.4616567" lon="10.5799533"><ele>697.0</ele><time>2026-04-19T09:00:39.912Z</time></trkpt><trkpt lat="44.4615583" lon="10.579975"><ele>697.0</ele><time>2026-04-19T09:00:40.912Z</time></trkpt><trkpt lat="44.4614533" lon="10.5799867"><ele>697.0</ele><time>2026-04-19T09:00:41.911Z</time></trkpt><trkpt lat="44.4613433" lon="10.5800017"><ele>697.0</ele><time>2026-04-19T09:00:42.909Z</time></trkpt><trkpt lat="44.4612267" lon="10.580015"><ele>697.0</ele><time>2026-04-19T09:00:43.91Z</time></trkpt><trkpt lat="44.4611067" lon="10.5800283"><ele>700.5</ele><time>2026-04-19T09:00:44.925Z</time></trkpt><trkpt lat="44.4609833" lon="10.5800317"><ele>704.0</ele><time>2026-04-19T09:00:45.91Z</time></trkpt><trkpt lat="44.46085" lon="10.5800333"><ele>707.5</ele><time>2026-04-19T09:00:46.912Z</time></trkpt><trkpt lat="44.460715" lon="10.5800367"><ele>711.0</ele><time>2026-04-19T09:00:47.909Z</time></trkpt><trkpt lat="44.4605817" lon="10.5800533"><ele>711.0</ele><time>2026-04-19T09:00:48.91Z</time></trkpt><trkpt lat="44.460455" lon="10.5800817"><ele>711.0</ele><time>2026-04-19T09:00:49.91Z</time></trkpt><trkpt lat="44.4603367" lon="10.5801333"><ele>711.0</ele><time>2026-04-19T09:00:50.911Z</time></trkpt><trkpt lat="44.46022" lon="10.5801933"><ele>711.0</ele><time>2026-04-19T09:00:51.911Z</time></trkpt><trkpt lat="44.4601083" lon="10.5802583"><ele>713.75</ele><time>2026-04-19T09:00:52.912Z</time></trkpt><trkpt lat="44.4599967" lon="10.580315"><ele>716.5</ele><time>2026-04-19T09:00:53.911Z</time></trkpt><trkpt lat="44.459885" lon="10.580355"><ele>719.25</ele><time>2026-04-19T09:00:54.91Z</time></trkpt><trkpt lat="44.4597733" lon="10.580385"><ele>722.0</ele><time>2026-04-19T09:00:55.91Z</time></trkpt><trkpt lat="44.45967" lon="10.5804167"><ele>718.8</ele><time>2026-04-19T09:00:56.911Z</time></trkpt><trkpt lat="44.459565" lon="10.5804433"><ele>715.6</ele><time>2026-04-19T09:00:57.912Z</time></trkpt><trkpt lat="44.45946" lon="10.58047"><ele>712.4</ele><time>2026-04-19T09:00:58.912Z</time></trkpt><trkpt lat="44.4593517" lon="10.5804917"><ele>709.1999999999999</ele><time>2026-04-19T09:00:59.911Z</time></trkpt><trkpt lat="44.4592367" lon="10.5805067"><ele>706.0</ele><time>2026-04-19T09:01:00.907Z</time></trkpt><trkpt lat="44.4591133" lon="10.5805233"><ele>706.0</ele><time>2026-04-19T09:01:01.91Z</time></trkpt><trkpt lat="44.4589883" lon="10.5805333"><ele>706.0</ele><time>2026-04-19T09:01:02.911Z</time></trkpt><trkpt lat="44.4588667" lon="10.58055"><ele>706.0</ele><time>2026-04-19T09:01:03.917Z</time></trkpt><trkpt lat="44.4587433" lon="10.5805617"><ele>706.0</ele><time>2026-04-19T09:01:04.912Z</time></trkpt><trkpt lat="44.45862" lon="10.5805767"><ele>707.0</ele><time>2026-04-19T09:01:05.907Z</time></trkpt><trkpt lat="44.458505" lon="10.5806067"><ele>708.0</ele><time>2026-04-19T09:01:06.935Z</time></trkpt><trkpt lat="44.45839" lon="10.580665"><ele>709.0</ele><time>2026-04-19T09:01:07.9Z</time></trkpt><trkpt lat="44.4582917" lon="10.5807683"><ele>710.0</ele><time>2026-04-19T09:01:08.912Z</time></trkpt><trkpt lat="44.4582167" lon="10.580905"><ele>710.0</ele><time>2026-04-19T09:01:09.91Z</time></trkpt><trkpt lat="44.4581567" lon="10.58106"><ele>710.0</ele><time>2026-04-19T09:01:10.912Z</time></trkpt><trkpt lat="44.4581" lon="10.5812233"><ele>710.0</ele><time>2026-04-19T09:01:11.912Z</time></trkpt><trkpt lat="44.4580433" lon="10.58139"><ele>710.0</ele><time>2026-04-19T09:01:12.91Z</time></trkpt><trkpt lat="44.457985" lon="10.5815567"><ele>710.75</ele><time>2026-04-19T09:01:13.924Z</time></trkpt><trkpt lat="44.45793" lon="10.581715"><ele>711.5</ele><time>2026-04-19T09:01:14.966Z</time></trkpt><trkpt lat="44.4578767" lon="10.5818683"><ele>712.25</ele><time>2026-04-19T09:01:15.91Z</time></trkpt><trkpt lat="44.457825" lon="10.58202"><ele>713.0</ele><time>2026-04-19T09:01:16.906Z</time></trkpt><trkpt lat="44.4577667" lon="10.5821667"><ele>713.0</ele><time>2026-04-19T09:01:17.906Z</time></trkpt><trkpt lat="44.457705" lon="10.5823067"><ele>713.0</ele><time>2026-04-19T09:01:18.912Z</time></trkpt><trkpt lat="44.4576367" lon="10.5824367"><ele>713.0</ele><time>2026-04-19T09:01:19.921Z</time></trkpt><trkpt lat="44.4575583" lon="10.5825533"><ele>713.0</ele><time>2026-04-19T09:01:20.928Z</time></trkpt><trkpt lat="44.45747" lon="10.5826567"><ele>713.0</ele><time>2026-04-19T09:01:21.917Z</time></trkpt><trkpt lat="44.4573783" lon="10.5827517"><ele>713.0</ele><time>2026-04-19T09:01:22.911Z</time></trkpt><trkpt lat="44.45729" lon="10.582845"><ele>713.0</ele><time>2026-04-19T09:01:23.911Z</time></trkpt><trkpt lat="44.4572017" lon="10.5829383"><ele>713.0</ele><time>2026-04-19T09:01:24.911Z</time></trkpt><trkpt lat="44.4571117" lon="10.5830333"><ele>713.0</ele><time>2026-04-19T09:01:25.913Z</time></trkpt><trkpt lat="44.4570233" lon="10.583125"><ele>709.4</ele><time>2026-04-19T09:01:26.913Z</time></trkpt><trkpt lat="44.4569267" lon="10.5831983"><ele>705.8</ele><time>2026-04-19T09:01:27.908Z</time></trkpt><trkpt lat="44.45682" lon="10.583245"><ele>702.2</ele><time>2026-04-19T09:01:28.923Z</time></trkpt><trkpt lat="44.45671" lon="10.583255"><ele>698.6</ele><time>2026-04-19T09:01:29.911Z</time></trkpt><trkpt lat="44.4565983" lon="10.583235"><ele>695.0</ele><time>2026-04-19T09:01:30.948Z</time></trkpt><trkpt lat="44.4564917" lon="10.583205"><ele>695.0</ele><time>2026-04-19T09:01:31.934Z</time></trkpt><trkpt lat="44.4563967" lon="10.5831567"><ele>695.0</ele><time>2026-04-19T09:01:32.913Z</time></trkpt><trkpt lat="44.4563117" lon="10.58311"><ele>695.0</ele><time>2026-04-19T09:01:33.932Z</time></trkpt><trkpt lat="44.45624" lon="10.5830717"><ele>695.0</ele><time>2026-04-19T09:01:34.92Z</time></trkpt><trkpt lat="44.456175" lon="10.5830517"><ele>695.0</ele><time>2026-04-19T09:01:35.926Z</time></trkpt><trkpt lat="44.45609" lon="10.5830933"><ele>695.0</ele><time>2026-04-19T09:01:37.933Z</time></trkpt><trkpt lat="44.4561067" lon="10.5832433"><ele>693.5</ele><time>2026-04-19T09:01:39.986Z</time></trkpt><trkpt lat="44.45617" lon="10.5833767"><ele>692.0</ele><time>2026-04-19T09:01:41.922Z</time></trkpt><trkpt lat="44.4562083" lon="10.5834833"><ele>690.5</ele><time>2026-04-19T09:01:43.909Z</time></trkpt><trkpt lat="44.4561633" lon="10.5835533"><ele>689.0</ele><time>2026-04-19T09:01:47.912Z</time></trkpt><trkpt lat="44.4560933" lon="10.58358"><ele>687.5</ele><time>2026-04-19T09:01:50.917Z</time></trkpt><trkpt lat="44.456015" lon="10.583635"><ele>686.0</ele><time>2026-04-19T09:01:53.928Z</time></trkpt><trkpt lat="44.4559417" lon="10.583685"><ele>686.0</ele><time>2026-04-19T09:01:56.91Z</time></trkpt><trkpt lat="44.455885" lon="10.5836333"><ele>686.0</ele><time>2026-04-19T09:02:00.91Z</time></trkpt><trkpt lat="44.4558533" lon="10.58353"><ele>686.0</ele><time>2026-04-19T09:02:02.949Z</time></trkpt><trkpt lat="44.4558017" lon="10.5834167"><ele>686.0</ele><time>2026-04-19T09:02:04.912Z</time></trkpt><trkpt lat="44.4557317" lon="10.5832933"><ele>686.0</ele><time>2026-04-19T09:02:06.907Z</time></trkpt><trkpt lat="44.4556667" lon="10.583155"><ele>686.0</ele><time>2026-04-19T09:02:08.906Z</time></trkpt><trkpt lat="44.4555883" lon="10.583025"><ele>686.0</ele><time>2026-04-19T09:02:10.912Z</time></trkpt><trkpt lat="44.4555517" lon="10.5829517"><ele>686.0</ele><time>2026-04-19T09:02:11.948Z</time></trkpt><trkpt lat="44.455515" lon="10.5828767"><ele>686.0</ele><time>2026-04-19T09:02:12.906Z</time></trkpt><trkpt lat="44.4554833" lon="10.5827883"><ele>686.0</ele><time>2026-04-19T09:02:13.909Z</time></trkpt><trkpt lat="44.4554567" lon="10.5826983"><ele>686.0</ele><time>2026-04-19T09:02:14.936Z</time></trkpt><trkpt lat="44.4554267" lon="10.5826117"><ele>684.8571428571429</ele><time>2026-04-19T09:02:15.911Z</time></trkpt><trkpt lat="44.455395" lon="10.5825217"><ele>683.7142857142858</ele><time>2026-04-19T09:02:16.926Z</time></trkpt><trkpt lat="44.45536" lon="10.5824367"><ele>682.5714285714286</ele><time>2026-04-19T09:02:17.909Z</time></trkpt><trkpt lat="44.4553217" lon="10.5823567"><ele>681.4285714285714</ele><time>2026-04-19T09:02:18.911Z</time></trkpt><trkpt lat="44.4552833" lon="10.5822833"><ele>680.2857142857143</ele><time>2026-04-19T09:02:19.976Z</time></trkpt><trkpt lat="44.4552467" lon="10.58221"><ele>679.1428571428571</ele><time>2026-04-19T09:02:20.943Z</time></trkpt><trkpt lat="44.4552083" lon="10.5821383"><ele>678.0</ele><time>2026-04-19T09:02:21.911Z</time></trkpt><trkpt lat="44.4551267" lon="10.5820283"><ele>680.25</ele><time>2026-04-19T09:02:23.909Z</time></trkpt><trkpt lat="44.455055" lon="10.5819117"><ele>682.5</ele><time>2026-04-19T09:02:25.91Z</time></trkpt><trkpt lat="44.455005" lon="10.5817667"><ele>684.75</ele><time>2026-04-19T09:02:27.914Z</time></trkpt><trkpt lat="44.4549583" lon="10.58161"><ele>687.0</ele><time>2026-04-19T09:02:29.906Z</time></trkpt><trkpt lat="44.4549067" lon="10.5814733"><ele>687.0</ele><time>2026-04-19T09:02:31.922Z</time></trkpt><trkpt lat="44.4548383" lon="10.58135"><ele>687.0</ele><time>2026-04-19T09:02:33.909Z</time></trkpt><trkpt lat="44.4547483" lon="10.5812533"><ele>687.0</ele><time>2026-04-19T09:02:35.908Z</time></trkpt><trkpt lat="44.4546483" lon="10.5811517"><ele>687.0</ele><time>2026-04-19T09:02:37.934Z</time></trkpt><trkpt lat="44.454595" lon="10.581095"><ele>687.0</ele><time>2026-04-19T09:02:38.909Z</time></trkpt><trkpt lat="44.45454" lon="10.5810433"><ele>685.6666666666666</ele><time>2026-04-19T09:02:39.935Z</time></trkpt><trkpt lat="44.4544517" lon="10.5809517"><ele>684.3333333333334</ele><time>2026-04-19T09:02:41.922Z</time></trkpt><trkpt lat="44.4543783" lon="10.5808167"><ele>683.0</ele><time>2026-04-19T09:02:43.91Z</time></trkpt><trkpt lat="44.454345" lon="10.5807267"><ele>681.6666666666667</ele><time>2026-04-19T09:02:44.907Z</time></trkpt><trkpt lat="44.454315" lon="10.580635"><ele>680.3333333333334</ele><time>2026-04-19T09:02:45.943Z</time></trkpt><trkpt lat="44.45429" lon="10.5805417"><ele>679.0</ele><time>2026-04-19T09:02:46.92Z</time></trkpt><trkpt lat="44.454255" lon="10.5804033"><ele>680.0</ele><time>2026-04-19T09:02:48.907Z</time></trkpt><trkpt lat="44.4542283" lon="10.58025"><ele>681.0</ele><time>2026-04-19T09:02:50.93Z</time></trkpt><trkpt lat="44.4542133" lon="10.5800783"><ele>682.0</ele><time>2026-04-19T09:02:52.913Z</time></trkpt><trkpt lat="44.4542017" lon="10.5799433"><ele>683.0</ele><time>2026-04-19T09:02:54.908Z</time></trkpt><trkpt lat="44.454185" lon="10.5798"><ele>684.0</ele><time>2026-04-19T09:02:56.907Z</time></trkpt><trkpt lat="44.4541783" lon="10.5797083"><ele>683.9999999999999</ele><time>2026-04-19T09:02:57.917Z</time></trkpt><trkpt lat="44.4541783" lon="10.57961"><ele>684.0</ele><time>2026-04-19T09:02:58.91Z</time></trkpt><trkpt lat="44.4541717" lon="10.5795067"><ele>684.0</ele><time>2026-04-19T09:02:59.91Z</time></trkpt><trkpt lat="44.45416" lon="10.5794067"><ele>684.0</ele><time>2026-04-19T09:03:00.927Z</time></trkpt><trkpt lat="44.454155" lon="10.57931"><ele>684.0</ele><time>2026-04-19T09:03:01.91Z</time></trkpt><trkpt lat="44.4541517" lon="10.579215"><ele>683.9999999999999</ele><time>2026-04-19T09:03:02.906Z</time></trkpt><trkpt lat="44.4541467" lon="10.57912"><ele>684.0</ele><time>2026-04-19T09:03:03.907Z</time></trkpt><trkpt lat="44.454115" lon="10.5789483"><ele>683.5</ele><time>2026-04-19T09:03:05.901Z</time></trkpt><trkpt lat="44.4541067" lon="10.578855"><ele>683.0</ele><time>2026-04-19T09:03:06.915Z</time></trkpt><trkpt lat="44.4540917" lon="10.5787683"><ele>682.5</ele><time>2026-04-19T09:03:07.911Z</time></trkpt><trkpt lat="44.4540717" lon="10.5786367"><ele>682.0</ele><time>2026-04-19T09:03:09.91Z</time></trkpt><trkpt lat="44.4540633" lon="10.5785217"><ele>681.5</ele><time>2026-04-19T09:03:11.953Z</time></trkpt><trkpt lat="44.4540417" lon="10.5784033"><ele>681.0</ele><time>2026-04-19T09:03:13.935Z</time></trkpt><trkpt lat="44.4540317" lon="10.5782233"><ele>680.7142857142858</ele><time>2026-04-19T09:03:15.909Z</time></trkpt><trkpt lat="44.4540333" lon="10.5781217"><ele>680.4285714285714</ele><time>2026-04-19T09:03:16.911Z</time></trkpt><trkpt lat="44.454025" lon="10.5780267"><ele>680.1428571428571</ele><time>2026-04-19T09:03:17.899Z</time></trkpt><trkpt lat="44.4540233" lon="10.5779217"><ele>679.8571428571429</ele><time>2026-04-19T09:03:18.908Z</time></trkpt><trkpt lat="44.45402" lon="10.5778217"><ele>679.5714285714286</ele><time>2026-04-19T09:03:19.909Z</time></trkpt><trkpt lat="44.4540117" lon="10.5777117"><ele>679.2857142857143</ele><time>2026-04-19T09:03:20.913Z</time></trkpt><trkpt lat="44.4540083" lon="10.5776"><ele>679.0</ele><time>2026-04-19T09:03:21.914Z</time></trkpt><trkpt lat="44.4540083" lon="10.5775"><ele>679.0</ele><time>2026-04-19T09:03:22.911Z</time></trkpt><trkpt lat="44.4539917" lon="10.5773333"><ele>679.0</ele><time>2026-04-19T09:03:24.907Z</time></trkpt><trkpt lat="44.453985" lon="10.5771933"><ele>679.0</ele><time>2026-04-19T09:03:26.914Z</time></trkpt><trkpt lat="44.4539817" lon="10.57708"><ele>679.0</ele><time>2026-04-19T09:03:29.912Z</time></trkpt><trkpt lat="44.454" lon="10.576975"><ele>679.0</ele><time>2026-04-19T09:03:32.924Z</time></trkpt><trkpt lat="44.4540117" lon="10.5768783"><ele>679.0</ele><time>2026-04-19T09:03:34.939Z</time></trkpt><trkpt lat="44.4540017" lon="10.576745"><ele>678.2</ele><time>2026-04-19T09:03:36.912Z</time></trkpt><trkpt lat="44.453955" lon="10.5765783"><ele>677.4000000000001</ele><time>2026-04-19T09:03:38.91Z</time></trkpt><trkpt lat="44.4539083" lon="10.57648"><ele>676.6</ele><time>2026-04-19T09:03:39.929Z</time></trkpt><trkpt lat="44.4538567" lon="10.5763717"><ele>675.8</ele><time>2026-04-19T09:03:40.925Z</time></trkpt><trkpt lat="44.4538" lon="10.57627"><ele>675.0</ele><time>2026-04-19T09:03:41.931Z</time></trkpt><trkpt lat="44.4537533" lon="10.5761683"><ele>675.0</ele><time>2026-04-19T09:03:42.932Z</time></trkpt><trkpt lat="44.4537167" lon="10.5760733"><ele>675.0</ele><time>2026-04-19T09:03:43.917Z</time></trkpt><trkpt lat="44.453695" lon="10.57597"><ele>675.0</ele><time>2026-04-19T09:03:44.912Z</time></trkpt><trkpt lat="44.4536733" lon="10.5758867"><ele>675.0</ele><time>2026-04-19T09:03:45.93Z</time></trkpt><trkpt lat="44.4536517" lon="10.5757883"><ele>675.0</ele><time>2026-04-19T09:03:46.916Z</time></trkpt><trkpt lat="44.45363" lon="10.5757017"><ele>675.0</ele><time>2026-04-19T09:03:47.941Z</time></trkpt><trkpt lat="44.453605" lon="10.5756183"><ele>675.0</ele><time>2026-04-19T09:03:48.908Z</time></trkpt><trkpt lat="44.453575" lon="10.5755317"><ele>675.0</ele><time>2026-04-19T09:03:49.924Z</time></trkpt><trkpt lat="44.4535483" lon="10.5754383"><ele>675.0</ele><time>2026-04-19T09:03:50.906Z</time></trkpt><trkpt lat="44.4535183" lon="10.5753533"><ele>675.0</ele><time>2026-04-19T09:03:51.916Z</time></trkpt><trkpt lat="44.4534833" lon="10.575265"><ele>675.0</ele><time>2026-04-19T09:03:52.915Z</time></trkpt><trkpt lat="44.4534517" lon="10.5751867"><ele>675.0</ele><time>2026-04-19T09:03:53.928Z</time></trkpt><trkpt lat="44.4534033" lon="10.5750767"><ele>675.0</ele><time>2026-04-19T09:03:55.91Z</time></trkpt><trkpt lat="44.4533433" lon="10.5749917"><ele>679.8</ele><time>2026-04-19T09:03:57.942Z</time></trkpt><trkpt lat="44.4532633" lon="10.5749367"><ele>684.6</ele><time>2026-04-19T09:03:59.909Z</time></trkpt><trkpt lat="44.4531933" lon="10.574865"><ele>689.4000000000001</ele><time>2026-04-19T09:04:01.911Z</time></trkpt><trkpt lat="44.4531333" lon="10.5747767"><ele>694.2</ele><time>2026-04-19T09:04:03.911Z</time></trkpt><trkpt lat="44.453085" lon="10.57465"><ele>699.0</ele><time>2026-04-19T09:05:52.911Z</time></trkpt><trkpt lat="44.453015" lon="10.574575"><ele>701.0</ele><time>2026-04-19T09:05:54.942Z</time></trkpt><trkpt lat="44.4529333" lon="10.5744533"><ele>703.0</ele><time>2026-04-19T09:05:56.911Z</time></trkpt><trkpt lat="44.4529117" lon="10.5743483"><ele>705.0</ele><time>2026-04-19T09:05:58.91Z</time></trkpt><trkpt lat="44.45285" lon="10.5742383"><ele>707.0</ele><time>2026-04-19T09:06:19.936Z</time></trkpt><trkpt lat="44.4527833" lon="10.574175"><ele>709.0</ele><time>2026-04-19T09:06:21.909Z</time></trkpt><trkpt lat="44.45271" lon="10.5741267"><ele>709.0</ele><time>2026-04-19T09:06:23.94Z</time></trkpt><trkpt lat="44.4526333" lon="10.5741083"><ele>709.0</ele><time>2026-04-19T09:07:19.925Z</time></trkpt><trkpt lat="44.4525217" lon="10.5740567"><ele>709.0</ele><time>2026-04-19T09:07:21.937Z</time></trkpt><trkpt lat="44.4524483" lon="10.5740283"><ele>709.0</ele><time>2026-04-19T09:07:22.952Z</time></trkpt><trkpt lat="44.4523733" lon="10.5739983"><ele>709.0</ele><time>2026-04-19T09:07:23.929Z</time></trkpt><trkpt lat="44.4523067" lon="10.5739717"><ele>709.0</ele><time>2026-04-19T09:07:24.911Z</time></trkpt><trkpt lat="44.4522033" lon="10.5739133"><ele>709.0</ele><time>2026-04-19T09:07:26.928Z</time></trkpt><trkpt lat="44.4521333" lon="10.57379"><ele>709.0</ele><time>2026-04-19T09:07:28.911Z</time></trkpt><trkpt lat="44.4520733" lon="10.5736333"><ele>709.0</ele><time>2026-04-19T09:07:30.933Z</time></trkpt><trkpt lat="44.45204" lon="10.573515"><ele>709.0</ele><time>2026-04-19T09:07:31.937Z</time></trkpt><trkpt lat="44.4520117" lon="10.5733783"><ele>709.0</ele><time>2026-04-19T09:07:32.912Z</time></trkpt><trkpt lat="44.45199" lon="10.5732483"><ele>707.8333333333334</ele><time>2026-04-19T09:07:33.926Z</time></trkpt><trkpt lat="44.4519767" lon="10.5731267"><ele>706.6666666666667</ele><time>2026-04-19T09:07:34.956Z</time></trkpt><trkpt lat="44.4519667" lon="10.5730083"><ele>705.5</ele><time>2026-04-19T09:07:35.91Z</time></trkpt><trkpt lat="44.451965" lon="10.5728917"><ele>704.3333333333334</ele><time>2026-04-19T09:07:36.911Z</time></trkpt><trkpt lat="44.4519667" lon="10.5727683"><ele>703.1666666666666</ele><time>2026-04-19T09:07:37.954Z</time></trkpt><trkpt lat="44.4519667" lon="10.57266"><ele>702.0</ele><time>2026-04-19T09:07:38.912Z</time></trkpt><trkpt lat="44.451965" lon="10.5725483"><ele>702.0</ele><time>2026-04-19T09:07:39.91Z</time></trkpt><trkpt lat="44.4519533" lon="10.5724133"><ele>702.0</ele><time>2026-04-19T09:07:40.912Z</time></trkpt><trkpt lat="44.4519383" lon="10.5722833"><ele>702.0</ele><time>2026-04-19T09:07:41.911Z</time></trkpt><trkpt lat="44.4519167" lon="10.5721667"><ele>702.0</ele><time>2026-04-19T09:07:42.961Z</time></trkpt><trkpt lat="44.451895" lon="10.572055"><ele>702.0</ele><time>2026-04-19T09:07:43.943Z</time></trkpt><trkpt lat="44.4518817" lon="10.5719433"><ele>702.0</ele><time>2026-04-19T09:07:44.906Z</time></trkpt><trkpt lat="44.45188" lon="10.5718417"><ele>702.3333333333334</ele><time>2026-04-19T09:07:45.921Z</time></trkpt><trkpt lat="44.4518867" lon="10.571735"><ele>702.6666666666666</ele><time>2026-04-19T09:07:46.98Z</time></trkpt><trkpt lat="44.4518967" lon="10.5716267"><ele>703.0</ele><time>2026-04-19T09:07:47.913Z</time></trkpt><trkpt lat="44.4519317" lon="10.5715183"><ele>703.3333333333333</ele><time>2026-04-19T09:07:48.918Z</time></trkpt><trkpt lat="44.45197" lon="10.571415"><ele>703.6666666666666</ele><time>2026-04-19T09:07:49.909Z</time></trkpt><trkpt lat="44.452005" lon="10.5713033"><ele>704.0</ele><time>2026-04-19T09:07:50.912Z</time></trkpt><trkpt lat="44.45203" lon="10.5711817"><ele>702.8000000000001</ele><time>2026-04-19T09:07:51.929Z</time></trkpt><trkpt lat="44.45204" lon="10.571055"><ele>701.6</ele><time>2026-04-19T09:07:52.938Z</time></trkpt><trkpt lat="44.452035" lon="10.5709167"><ele>700.4</ele><time>2026-04-19T09:07:53.908Z</time></trkpt><trkpt lat="44.4520217" lon="10.5707783"><ele>699.2</ele><time>2026-04-19T09:07:54.922Z</time></trkpt><trkpt lat="44.452005" lon="10.570645"><ele>698.0</ele><time>2026-04-19T09:07:55.915Z</time></trkpt><trkpt lat="44.451985" lon="10.5705167"><ele>698.0</ele><time>2026-04-19T09:07:56.907Z</time></trkpt><trkpt lat="44.4519583" lon="10.570385"><ele>698.0</ele><time>2026-04-19T09:07:57.923Z</time></trkpt><trkpt lat="44.4519317" lon="10.5702433"><ele>698.0</ele><time>2026-04-19T09:07:58.909Z</time></trkpt><trkpt lat="44.4519083" lon="10.570095"><ele>698.0</ele><time>2026-04-19T09:07:59.908Z</time></trkpt><trkpt lat="44.4518833" lon="10.5699333"><ele>698.0</ele><time>2026-04-19T09:08:01.083Z</time></trkpt><trkpt lat="44.4518217" lon="10.5696333"><ele>700.5</ele><time>2026-04-19T09:08:02.949Z</time></trkpt><trkpt lat="44.45179" lon="10.5694833"><ele>703.0</ele><time>2026-04-19T09:08:03.92Z</time></trkpt><trkpt lat="44.4517633" lon="10.5693217"><ele>705.5</ele><time>2026-04-19T09:08:04.914Z</time></trkpt><trkpt lat="44.4517367" lon="10.5691667"><ele>708.0</ele><time>2026-04-19T09:08:05.9Z</time></trkpt><trkpt lat="44.451705" lon="10.5690183"><ele>708.0</ele><time>2026-04-19T09:08:06.909Z</time></trkpt><trkpt lat="44.4516667" lon="10.56888"><ele>708.0</ele><time>2026-04-19T09:08:07.912Z</time></trkpt><trkpt lat="44.4516333" lon="10.568755"><ele>708.0</ele><time>2026-04-19T09:08:08.911Z</time></trkpt><trkpt lat="44.4516067" lon="10.5686533"><ele>708.0</ele><time>2026-04-19T09:08:09.909Z</time></trkpt><trkpt lat="44.4515833" lon="10.5685583"><ele>708.0</ele><time>2026-04-19T09:08:10.934Z</time></trkpt><trkpt lat="44.451575" lon="10.5684667"><ele>708.0</ele><time>2026-04-19T09:08:11.921Z</time></trkpt><trkpt lat="44.4515833" lon="10.568365"><ele>707.8333333333334</ele><time>2026-04-19T09:08:12.9Z</time></trkpt><trkpt lat="44.4515917" lon="10.568255"><ele>707.6666666666666</ele><time>2026-04-19T09:08:13.935Z</time></trkpt><trkpt lat="44.4516017" lon="10.5681517"><ele>707.5</ele><time>2026-04-19T09:08:14.91Z</time></trkpt><trkpt lat="44.4516167" lon="10.5680517"><ele>707.3333333333333</ele><time>2026-04-19T09:08:15.907Z</time></trkpt><trkpt lat="44.45163" lon="10.5679633"><ele>707.1666666666666</ele><time>2026-04-19T09:08:16.904Z</time></trkpt><trkpt lat="44.45165" lon="10.5678017"><ele>707.0</ele><time>2026-04-19T09:08:18.911Z</time></trkpt><trkpt lat="44.4516467" lon="10.5676333"><ele>707.0</ele><time>2026-04-19T09:08:20.906Z</time></trkpt><trkpt lat="44.4516333" lon="10.56754"><ele>707.0</ele><time>2026-04-19T09:08:21.913Z</time></trkpt><trkpt lat="44.4516183" lon="10.5674433"><ele>707.0</ele><time>2026-04-19T09:08:22.91Z</time></trkpt><trkpt lat="44.451605" lon="10.5673517"><ele>707.0</ele><time>2026-04-19T09:08:23.907Z</time></trkpt><trkpt lat="44.4515917" lon="10.56726"><ele>707.0</ele><time>2026-04-19T09:08:24.91Z</time></trkpt><trkpt lat="44.4515817" lon="10.5671683"><ele>707.0</ele><time>2026-04-19T09:08:25.907Z</time></trkpt><trkpt lat="44.4515733" lon="10.5670767"><ele>707.0</ele><time>2026-04-19T09:08:26.96Z</time></trkpt><trkpt lat="44.45156" lon="10.5669883"><ele>707.8333333333333</ele><time>2026-04-19T09:08:27.935Z</time></trkpt><trkpt lat="44.4515417" lon="10.5668517"><ele>708.6666666666666</ele><time>2026-04-19T09:08:29.913Z</time></trkpt><trkpt lat="44.45152" lon="10.56673"><ele>709.5</ele><time>2026-04-19T09:08:31.909Z</time></trkpt><trkpt lat="44.4515067" lon="10.5666233"><ele>710.3333333333334</ele><time>2026-04-19T09:08:33.911Z</time></trkpt><trkpt lat="44.4514717" lon="10.5665267"><ele>711.1666666666667</ele><time>2026-04-19T09:08:36.914Z</time></trkpt><trkpt lat="44.451405" lon="10.5665783"><ele>712.0</ele><time>2026-04-19T09:08:39.912Z</time></trkpt><trkpt lat="44.4513867" lon="10.5667117"><ele>712.0</ele><time>2026-04-19T09:08:41.907Z</time></trkpt><trkpt lat="44.4513783" lon="10.566845"><ele>712.0</ele><time>2026-04-19T09:08:43.931Z</time></trkpt><trkpt lat="44.4513783" lon="10.5669733"><ele>712.0</ele><time>2026-04-19T09:08:45.938Z</time></trkpt><trkpt lat="44.4513767" lon="10.5671267"><ele>712.0</ele><time>2026-04-19T09:08:47.909Z</time></trkpt><trkpt lat="44.4513633" lon="10.5673017"><ele>712.0</ele><time>2026-04-19T09:08:49.918Z</time></trkpt><trkpt lat="44.4513533" lon="10.5673967"><ele>711.8571428571428</ele><time>2026-04-19T09:08:50.906Z</time></trkpt><trkpt lat="44.4513483" lon="10.56749"><ele>711.7142857142857</ele><time>2026-04-19T09:08:51.916Z</time></trkpt><trkpt lat="44.4513383" lon="10.5675867"><ele>711.5714285714286</ele><time>2026-04-19T09:08:52.92Z</time></trkpt><trkpt lat="44.4513317" lon="10.5676817"><ele>711.4285714285713</ele><time>2026-04-19T09:08:53.935Z</time></trkpt><trkpt lat="44.451315" lon="10.56778"><ele>711.2857142857142</ele><time>2026-04-19T09:08:54.944Z</time></trkpt><trkpt lat="44.4512917" lon="10.5678833"><ele>711.1428571428571</ele><time>2026-04-19T09:08:55.919Z</time></trkpt><trkpt lat="44.4512633" lon="10.5679817"><ele>711.0</ele><time>2026-04-19T09:08:56.911Z</time></trkpt><trkpt lat="44.4512367" lon="10.5680767"><ele>706.0</ele><time>2026-04-19T09:08:57.923Z</time></trkpt><trkpt lat="44.4512083" lon="10.56817"><ele>701.0</ele><time>2026-04-19T09:08:58.914Z</time></trkpt><trkpt lat="44.4511767" lon="10.5682583"><ele>696.0</ele><time>2026-04-19T09:08:59.92Z</time></trkpt><trkpt lat="44.4511433" lon="10.5683467"><ele>691.0</ele><time>2026-04-19T09:09:00.906Z</time></trkpt><trkpt lat="44.451115" lon="10.56844"><ele>686.0</ele><time>2026-04-19T09:09:01.928Z</time></trkpt><trkpt lat="44.4510933" lon="10.56854"><ele>681.0</ele><time>2026-04-19T09:09:02.953Z</time></trkpt><trkpt lat="44.4510817" lon="10.5686467"><ele>676.0</ele><time>2026-04-19T09:09:03.915Z</time></trkpt><trkpt lat="44.4510833" lon="10.5687617"><ele>675.4</ele><time>2026-04-19T09:09:04.913Z</time></trkpt><trkpt lat="44.4510983" lon="10.5688917"><ele>674.8</ele><time>2026-04-19T09:09:05.911Z</time></trkpt><trkpt lat="44.4511183" lon="10.5690367"><ele>674.1999999999999</ele><time>2026-04-19T09:09:06.961Z</time></trkpt><trkpt lat="44.4511433" lon="10.56919"><ele>673.5999999999999</ele><time>2026-04-19T09:09:07.925Z</time></trkpt><trkpt lat="44.451165" lon="10.569345"><ele>673.0</ele><time>2026-04-19T09:09:08.911Z</time></trkpt><trkpt lat="44.4511833" lon="10.5694967"><ele>671.0</ele><time>2026-04-19T09:09:09.922Z</time></trkpt><trkpt lat="44.4512" lon="10.5696467"><ele>669.0</ele><time>2026-04-19T09:09:10.913Z</time></trkpt><trkpt lat="44.4512133" lon="10.569795"><ele>667.0</ele><time>2026-04-19T09:09:11.906Z</time></trkpt><trkpt lat="44.451225" lon="10.56994"><ele>665.0</ele><time>2026-04-19T09:09:12.907Z</time></trkpt><trkpt lat="44.4512333" lon="10.5700833"><ele>663.0</ele><time>2026-04-19T09:09:13.941Z</time></trkpt><trkpt lat="44.451235" lon="10.57023"><ele>663.4</ele><time>2026-04-19T09:09:14.971Z</time></trkpt><trkpt lat="44.451235" lon="10.570375"><ele>663.8</ele><time>2026-04-19T09:09:15.907Z</time></trkpt><trkpt lat="44.451225" lon="10.5705233"><ele>664.2</ele><time>2026-04-19T09:09:16.913Z</time></trkpt><trkpt lat="44.45121" lon="10.5706767"><ele>664.6</ele><time>2026-04-19T09:09:17.924Z</time></trkpt><trkpt lat="44.451195" lon="10.5708333"><ele>665.0</ele><time>2026-04-19T09:09:18.91Z</time></trkpt><trkpt lat="44.4511817" lon="10.570985"><ele>665.0</ele><time>2026-04-19T09:09:19.924Z</time></trkpt><trkpt lat="44.451165" lon="10.5711367"><ele>665.0</ele><time>2026-04-19T09:09:20.909Z</time></trkpt><trkpt lat="44.4511383" lon="10.5712967"><ele>665.0</ele><time>2026-04-19T09:09:21.969Z</time></trkpt><trkpt lat="44.451105" lon="10.57146"><ele>665.0</ele><time>2026-04-19T09:09:22.943Z</time></trkpt><trkpt lat="44.4510683" lon="10.571625"><ele>665.0</ele><time>2026-04-19T09:09:23.909Z</time></trkpt><trkpt lat="44.4510267" lon="10.57179"><ele>665.0</ele><time>2026-04-19T09:09:24.914Z</time></trkpt><trkpt lat="44.4509867" lon="10.571955"><ele>665.0</ele><time>2026-04-19T09:09:25.915Z</time></trkpt><trkpt lat="44.450955" lon="10.5721083"><ele>665.0</ele><time>2026-04-19T09:09:26.908Z</time></trkpt><trkpt lat="44.4509233" lon="10.572255"><ele>665.0</ele><time>2026-04-19T09:09:27.961Z</time></trkpt><trkpt lat="44.4508883" lon="10.5723933"><ele>665.0</ele><time>2026-04-19T09:09:28.912Z</time></trkpt><trkpt lat="44.4508483" lon="10.5725233"><ele>665.0</ele><time>2026-04-19T09:09:29.925Z</time></trkpt><trkpt lat="44.4508067" lon="10.5726467"><ele>665.0</ele><time>2026-04-19T09:09:30.929Z</time></trkpt><trkpt lat="44.4507633" lon="10.572765"><ele>665.0</ele><time>2026-04-19T09:09:31.91Z</time></trkpt><trkpt lat="44.45073" lon="10.572885"><ele>664.6</ele><time>2026-04-19T09:09:32.927Z</time></trkpt><trkpt lat="44.450715" lon="10.5730083"><ele>664.2</ele><time>2026-04-19T09:09:33.912Z</time></trkpt><trkpt lat="44.4507233" lon="10.5731333"><ele>663.8</ele><time>2026-04-19T09:09:34.921Z</time></trkpt><trkpt lat="44.4507433" lon="10.5732617"><ele>663.4</ele><time>2026-04-19T09:09:35.911Z</time></trkpt><trkpt lat="44.4507717" lon="10.5733883"><ele>663.0</ele><time>2026-04-19T09:09:36.913Z</time></trkpt><trkpt lat="44.4508033" lon="10.57351"><ele>663.0</ele><time>2026-04-19T09:09:37.968Z</time></trkpt><trkpt lat="44.4508333" lon="10.57363"><ele>663.0</ele><time>2026-04-19T09:09:38.927Z</time></trkpt><trkpt lat="44.450855" lon="10.5737517"><ele>663.0</ele><time>2026-04-19T09:09:39.923Z</time></trkpt><trkpt lat="44.45086" lon="10.5738767"><ele>663.0</ele><time>2026-04-19T09:09:40.948Z</time></trkpt><trkpt lat="44.4508433" lon="10.5740033"><ele>663.0</ele><time>2026-04-19T09:09:41.91Z</time></trkpt><trkpt lat="44.4507983" lon="10.5741217"><ele>663.2</ele><time>2026-04-19T09:09:42.936Z</time></trkpt><trkpt lat="44.4507067" lon="10.5742217"><ele>663.4</ele><time>2026-04-19T09:09:43.92Z</time></trkpt><trkpt lat="44.4506183" lon="10.5743167"><ele>663.6</ele><time>2026-04-19T09:09:44.911Z</time></trkpt><trkpt lat="44.4505317" lon="10.5744117"><ele>663.8000000000001</ele><time>2026-04-19T09:09:45.974Z</time></trkpt><trkpt lat="44.45046" lon="10.5745183"><ele>664.0</ele><time>2026-04-19T09:09:46.949Z</time></trkpt><trkpt lat="44.4504183" lon="10.5746333"><ele>664.2</ele><time>2026-04-19T09:09:47.91Z</time></trkpt><trkpt lat="44.45041" lon="10.5747533"><ele>664.4000000000001</ele><time>2026-04-19T09:09:48.909Z</time></trkpt><trkpt lat="44.4504417" lon="10.574885"><ele>664.6</ele><time>2026-04-19T09:09:49.932Z</time></trkpt><trkpt lat="44.450495" lon="10.5750183"><ele>664.8</ele><time>2026-04-19T09:09:50.911Z</time></trkpt><trkpt lat="44.45055" lon="10.57516"><ele>665.0</ele><time>2026-04-19T09:09:51.925Z</time></trkpt><trkpt lat="44.4505983" lon="10.5753083"><ele>663.2</ele><time>2026-04-19T09:09:52.921Z</time></trkpt><trkpt lat="44.4506367" lon="10.5754583"><ele>661.4</ele><time>2026-04-19T09:09:53.946Z</time></trkpt><trkpt lat="44.4506633" lon="10.5756133"><ele>659.5999999999999</ele><time>2026-04-19T09:09:54.927Z</time></trkpt><trkpt lat="44.45068" lon="10.5757733"><ele>657.8</ele><time>2026-04-19T09:09:55.961Z</time></trkpt><trkpt lat="44.45069" lon="10.5759217"><ele>656.0</ele><time>2026-04-19T09:09:56.911Z</time></trkpt><trkpt lat="44.4507" lon="10.5760533"><ele>656.0</ele><time>2026-04-19T09:09:57.933Z</time></trkpt><trkpt lat="44.4507117" lon="10.5761717"><ele>656.0</ele><time>2026-04-19T09:09:58.919Z</time></trkpt><trkpt lat="44.4507183" lon="10.576275"><ele>656.0</ele><time>2026-04-19T09:09:59.924Z</time></trkpt><trkpt lat="44.4507383" lon="10.5764233"><ele>656.0</ele><time>2026-04-19T09:10:01.911Z</time></trkpt><trkpt lat="44.4507583" lon="10.5765233"><ele>656.0</ele><time>2026-04-19T09:10:03.915Z</time></trkpt><trkpt lat="44.4507383" lon="10.576615"><ele>656.0</ele><time>2026-04-19T09:10:06.906Z</time></trkpt><trkpt lat="44.4506833" lon="10.5765583"><ele>656.0</ele><time>2026-04-19T09:10:08.905Z</time></trkpt><trkpt lat="44.4506283" lon="10.5763817"><ele>656.0</ele><time>2026-04-19T09:10:10.944Z</time></trkpt><trkpt lat="44.45059" lon="10.5762783"><ele>656.0</ele><time>2026-04-19T09:10:11.946Z</time></trkpt><trkpt lat="44.4505467" lon="10.5761717"><ele>656.0</ele><time>2026-04-19T09:10:12.926Z</time></trkpt><trkpt lat="44.4505067" lon="10.576065"><ele>656.0</ele><time>2026-04-19T09:10:13.919Z</time></trkpt><trkpt lat="44.450465" lon="10.5759617"><ele>650.1999999999999</ele><time>2026-04-19T09:10:14.909Z</time></trkpt><trkpt lat="44.450425" lon="10.57586"><ele>644.4</ele><time>2026-04-19T09:10:15.912Z</time></trkpt><trkpt lat="44.45039" lon="10.575765"><ele>638.6</ele><time>2026-04-19T09:10:16.912Z</time></trkpt><trkpt lat="44.4503133" lon="10.57565"><ele>632.8</ele><time>2026-04-19T09:10:18.91Z</time></trkpt><trkpt lat="44.45024" lon="10.57573"><ele>627.0</ele><time>2026-04-19T09:10:20.945Z</time></trkpt><trkpt lat="44.4502467" lon="10.5758783"><ele>627.0</ele><time>2026-04-19T09:10:22.911Z</time></trkpt><trkpt lat="44.4502417" lon="10.57601"><ele>627.0</ele><time>2026-04-19T09:10:24.907Z</time></trkpt><trkpt lat="44.4501817" lon="10.5760817"><ele>627.0</ele><time>2026-04-19T09:10:26.93Z</time></trkpt><trkpt lat="44.4500817" lon="10.5760233"><ele>627.0</ele><time>2026-04-19T09:10:28.912Z</time></trkpt><trkpt lat="44.4500267" lon="10.57597"><ele>627.0</ele><time>2026-04-19T09:10:29.938Z</time></trkpt><trkpt lat="44.4499567" lon="10.5758633"><ele>627.0</ele><time>2026-04-19T09:10:30.96Z</time></trkpt><trkpt lat="44.4498933" lon="10.5757517"><ele>627.0</ele><time>2026-04-19T09:10:31.911Z</time></trkpt><trkpt lat="44.4498433" lon="10.5756417"><ele>627.0</ele><time>2026-04-19T09:10:32.912Z</time></trkpt><trkpt lat="44.4498067" lon="10.5755133"><ele>627.0</ele><time>2026-04-19T09:10:33.909Z</time></trkpt><trkpt lat="44.4497617" lon="10.57539"><ele>627.0</ele><time>2026-04-19T09:10:34.907Z</time></trkpt><trkpt lat="44.4496917" lon="10.57529"><ele>623.0</ele><time>2026-04-19T09:10:35.975Z</time></trkpt><trkpt lat="44.4496017" lon="10.5752083"><ele>619.0</ele><time>2026-04-19T09:10:36.938Z</time></trkpt><trkpt lat="44.449505" lon="10.57514"><ele>615.0</ele><time>2026-04-19T09:10:37.924Z</time></trkpt><trkpt lat="44.4494083" lon="10.575075"><ele>611.0</ele><time>2026-04-19T09:10:38.907Z</time></trkpt><trkpt lat="44.4493267" lon="10.5750083"><ele>607.0</ele><time>2026-04-19T09:10:39.905Z</time></trkpt><trkpt lat="44.4492617" lon="10.5749367"><ele>607.0</ele><time>2026-04-19T09:10:40.908Z</time></trkpt><trkpt lat="44.449215" lon="10.574865"><ele>607.0</ele><time>2026-04-19T09:10:41.91Z</time></trkpt><trkpt lat="44.4491767" lon="10.5747917"><ele>607.0</ele><time>2026-04-19T09:10:42.906Z</time></trkpt><trkpt lat="44.44917" lon="10.5746733"><ele>607.0</ele><time>2026-04-19T09:10:44.908Z</time></trkpt><trkpt lat="44.4492333" lon="10.5745267"><ele>607.0</ele><time>2026-04-19T09:10:46.911Z</time></trkpt><trkpt lat="44.4492667" lon="10.5744517"><ele>607.0</ele><time>2026-04-19T09:10:47.981Z</time></trkpt><trkpt lat="44.44931" lon="10.57438"><ele>606.2</ele><time>2026-04-19T09:10:48.906Z</time></trkpt><trkpt lat="44.449365" lon="10.5743183"><ele>605.4000000000001</ele><time>2026-04-19T09:10:49.925Z</time></trkpt><trkpt lat="44.4494217" lon="10.57427"><ele>604.5999999999999</ele><time>2026-04-19T09:10:50.915Z</time></trkpt><trkpt lat="44.4495133" lon="10.5741633"><ele>603.8</ele><time>2026-04-19T09:10:52.991Z</time></trkpt><trkpt lat="44.44954" lon="10.57406"><ele>603.0</ele><time>2026-04-19T09:10:54.906Z</time></trkpt><trkpt lat="44.4494333" lon="10.5739383"><ele>603.0</ele><time>2026-04-19T09:10:56.911Z</time></trkpt><trkpt lat="44.4493717" lon="10.5738617"><ele>603.0</ele><time>2026-04-19T09:10:57.921Z</time></trkpt><trkpt lat="44.4493233" lon="10.5737717"><ele>603.0</ele><time>2026-04-19T09:10:58.928Z</time></trkpt><trkpt lat="44.4492917" lon="10.5736683"><ele>603.0</ele><time>2026-04-19T09:10:59.915Z</time></trkpt><trkpt lat="44.4492667" lon="10.5735583"><ele>603.0</ele><time>2026-04-19T09:11:00.945Z</time></trkpt><trkpt lat="44.449255" lon="10.5734483"><ele>603.0</ele><time>2026-04-19T09:11:01.925Z</time></trkpt><trkpt lat="44.44925" lon="10.5733483"><ele>602.8</ele><time>2026-04-19T09:11:02.953Z</time></trkpt><trkpt lat="44.44927" lon="10.5731917"><ele>602.5999999999999</ele><time>2026-04-19T09:11:04.924Z</time></trkpt><trkpt lat="44.4492633" lon="10.5730467"><ele>602.4000000000001</ele><time>2026-04-19T09:11:06.907Z</time></trkpt><trkpt lat="44.4492117" lon="10.572925"><ele>602.2</ele><time>2026-04-19T09:11:08.909Z</time></trkpt><trkpt lat="44.4491167" lon="10.5728483"><ele>602.0</ele><time>2026-04-19T09:11:10.947Z</time></trkpt><trkpt lat="44.4490183" lon="10.5727817"><ele>602.8333333333333</ele><time>2026-04-19T09:11:12.907Z</time></trkpt><trkpt lat="44.4489233" lon="10.5727"><ele>603.6666666666666</ele><time>2026-04-19T09:11:14.907Z</time></trkpt><trkpt lat="44.448835" lon="10.5725683"><ele>604.5</ele><time>2026-04-19T09:11:16.912Z</time></trkpt><trkpt lat="44.4487917" lon="10.5725017"><ele>605.3333333333334</ele><time>2026-04-19T09:11:17.909Z</time></trkpt><trkpt lat="44.4487367" lon="10.572445"><ele>606.1666666666667</ele><time>2026-04-19T09:11:18.909Z</time></trkpt><trkpt lat="44.448675" lon="10.5724017"><ele>607.0</ele><time>2026-04-19T09:11:19.915Z</time></trkpt><trkpt lat="44.4485617" lon="10.572345"><ele>604.0</ele><time>2026-04-19T09:11:21.966Z</time></trkpt><trkpt lat="44.4484667" lon="10.5722683"><ele>601.0</ele><time>2026-04-19T09:11:23.92Z</time></trkpt><trkpt lat="44.4484033" lon="10.572155"><ele>598.0</ele><time>2026-04-19T09:11:25.909Z</time></trkpt><trkpt lat="44.448355" lon="10.5720183"><ele>595.0</ele><time>2026-04-19T09:11:27.915Z</time></trkpt><trkpt lat="44.4483133" lon="10.5718517"><ele>592.0</ele><time>2026-04-19T09:11:29.917Z</time></trkpt><trkpt lat="44.448265" lon="10.571695"><ele>592.0</ele><time>2026-04-19T09:11:31.968Z</time></trkpt><trkpt lat="44.44821" lon="10.5715433"><ele>592.0</ele><time>2026-04-19T09:11:33.915Z</time></trkpt><trkpt lat="44.4481717" lon="10.5714683"><ele>592.0</ele><time>2026-04-19T09:11:34.927Z</time></trkpt><trkpt lat="44.4481317" lon="10.571395"><ele>592.0</ele><time>2026-04-19T09:11:35.909Z</time></trkpt><trkpt lat="44.448095" lon="10.5713183"><ele>592.0</ele><time>2026-04-19T09:11:36.907Z</time></trkpt><trkpt lat="44.448055" lon="10.571245"><ele>592.0</ele><time>2026-04-19T09:11:37.92Z</time></trkpt><trkpt lat="44.4479783" lon="10.5711167"><ele>588.6666666666667</ele><time>2026-04-19T09:11:39.911Z</time></trkpt><trkpt lat="44.4478967" lon="10.5709867"><ele>585.3333333333334</ele><time>2026-04-19T09:11:41.921Z</time></trkpt><trkpt lat="44.4478617" lon="10.5709017"><ele>582.0</ele><time>2026-04-19T09:11:42.916Z</time></trkpt><trkpt lat="44.4478283" lon="10.5708067"><ele>578.6666666666666</ele><time>2026-04-19T09:11:43.911Z</time></trkpt><trkpt lat="44.4478017" lon="10.570705"><ele>575.3333333333333</ele><time>2026-04-19T09:11:44.909Z</time></trkpt><trkpt lat="44.4477833" lon="10.5706017"><ele>572.0</ele><time>2026-04-19T09:11:45.908Z</time></trkpt><trkpt lat="44.447765" lon="10.5705067"><ele>572.0</ele><time>2026-04-19T09:11:46.94Z</time></trkpt><trkpt lat="44.44773" lon="10.5703733"><ele>572.0</ele><time>2026-04-19T09:11:48.939Z</time></trkpt><trkpt lat="44.4476383" lon="10.57034"><ele>572.0</ele><time>2026-04-19T09:11:50.942Z</time></trkpt><trkpt lat="44.4475967" lon="10.5704417"><ele>572.0</ele><time>2026-04-19T09:11:52.913Z</time></trkpt><trkpt lat="44.4476067" lon="10.5706067"><ele>572.0</ele><time>2026-04-19T09:11:54.906Z</time></trkpt><trkpt lat="44.4476083" lon="10.570695"><ele>571.9999999999999</ele><time>2026-04-19T09:11:55.92Z</time></trkpt><trkpt lat="44.4476017" lon="10.5707967"><ele>572.0</ele><time>2026-04-19T09:11:56.938Z</time></trkpt><trkpt lat="44.447585" lon="10.5709"><ele>572.0</ele><time>2026-04-19T09:11:57.923Z</time></trkpt><trkpt lat="44.4475717" lon="10.5709983"><ele>572.0</ele><time>2026-04-19T09:11:58.912Z</time></trkpt><trkpt lat="44.4475583" lon="10.5710983"><ele>572.0</ele><time>2026-04-19T09:11:59.955Z</time></trkpt><trkpt lat="44.4475383" lon="10.571195"><ele>571.9999999999999</ele><time>2026-04-19T09:12:00.909Z</time></trkpt><trkpt lat="44.44751" lon="10.5712867"><ele>572.0</ele><time>2026-04-19T09:12:01.911Z</time></trkpt><trkpt lat="44.4474767" lon="10.5713683"><ele>572.4</ele><time>2026-04-19T09:12:02.918Z</time></trkpt><trkpt lat="44.44739" lon="10.5714683"><ele>572.8000000000001</ele><time>2026-04-19T09:12:04.926Z</time></trkpt><trkpt lat="44.447285" lon="10.5715267"><ele>573.2</ele><time>2026-04-19T09:12:06.929Z</time></trkpt><trkpt lat="44.44719" lon="10.5715383"><ele>573.6</ele><time>2026-04-19T09:12:08.911Z</time></trkpt><trkpt lat="44.447135" lon="10.57147"><ele>574.0</ele><time>2026-04-19T09:12:10.917Z</time></trkpt><trkpt lat="44.447155" lon="10.5713683"><ele>574.0</ele><time>2026-04-19T09:12:12.906Z</time></trkpt><trkpt lat="44.4471833" lon="10.5712717"><ele>574.0</ele><time>2026-04-19T09:12:14.94Z</time></trkpt><trkpt lat="44.4472083" lon="10.57116"><ele>574.0</ele><time>2026-04-19T09:12:16.92Z</time></trkpt><trkpt lat="44.4471983" lon="10.5710567"><ele>574.0</ele><time>2026-04-19T09:12:18.911Z</time></trkpt><trkpt lat="44.4471417" lon="10.5709617"><ele>574.0</ele><time>2026-04-19T09:12:20.911Z</time></trkpt><trkpt lat="44.447065" lon="10.570895"><ele>574.0</ele><time>2026-04-19T09:12:22.965Z</time></trkpt><trkpt lat="44.4469833" lon="10.57084"><ele>571.0</ele><time>2026-04-19T09:12:24.913Z</time></trkpt><trkpt lat="44.4469133" lon="10.57079"><ele>568.0</ele><time>2026-04-19T09:12:26.918Z</time></trkpt><trkpt lat="44.4468417" lon="10.5707333"><ele>565.0</ele><time>2026-04-19T09:12:28.908Z</time></trkpt><trkpt lat="44.4467833" lon="10.5706717"><ele>562.0</ele><time>2026-04-19T09:12:31.91Z</time></trkpt><trkpt lat="44.4467317" lon="10.5706167"><ele>559.0</ele><time>2026-04-19T09:12:42.909Z</time></trkpt><trkpt lat="44.44668" lon="10.570545"><ele>556.0</ele><time>2026-04-19T09:12:44.908Z</time></trkpt><trkpt lat="44.4467" lon="10.5706333"><ele>553.0</ele><time>2026-04-19T09:12:52.911Z</time></trkpt><trkpt lat="44.4468" lon="10.5707283"><ele>553.0</ele><time>2026-04-19T09:12:54.909Z</time></trkpt><trkpt lat="44.4469117" lon="10.5707733"><ele>553.0</ele><time>2026-04-19T09:12:56.909Z</time></trkpt><trkpt lat="44.447015" lon="10.570825"><ele>553.0</ele><time>2026-04-19T09:12:58.909Z</time></trkpt><trkpt lat="44.4470917" lon="10.5708767"><ele>553.0</ele><time>2026-04-19T09:13:00.907Z</time></trkpt><trkpt lat="44.4471533" lon="10.5709367"><ele>553.0</ele><time>2026-04-19T09:13:02.908Z</time></trkpt><trkpt lat="44.447195" lon="10.571045"><ele>556.8</ele><time>2026-04-19T09:13:04.909Z</time></trkpt><trkpt lat="44.4472" lon="10.57119"><ele>560.5999999999999</ele><time>2026-04-19T09:13:06.908Z</time></trkpt><trkpt lat="44.4471783" lon="10.57134"><ele>564.4000000000001</ele><time>2026-04-19T09:13:08.929Z</time></trkpt><trkpt lat="44.447185" lon="10.5714617"><ele>568.2</ele><time>2026-04-19T09:13:10.911Z</time></trkpt><trkpt lat="44.447225" lon="10.57153"><ele>572.0</ele><time>2026-04-19T09:13:12.913Z</time></trkpt><trkpt lat="44.447335" lon="10.571495"><ele>572.0</ele><time>2026-04-19T09:13:14.953Z</time></trkpt><trkpt lat="44.4474" lon="10.5714483"><ele>572.0</ele><time>2026-04-19T09:13:15.91Z</time></trkpt><trkpt lat="44.4474817" lon="10.5713283"><ele>572.0</ele><time>2026-04-19T09:13:17.9Z</time></trkpt><trkpt lat="44.4475133" lon="10.5712483"><ele>572.0</ele><time>2026-04-19T09:13:18.909Z</time></trkpt><trkpt lat="44.447535" lon="10.5711517"><ele>572.0</ele><time>2026-04-19T09:13:19.905Z</time></trkpt><trkpt lat="44.447555" lon="10.5710433"><ele>572.0</ele><time>2026-04-19T09:13:20.91Z</time></trkpt><trkpt lat="44.4475733" lon="10.5709367"><ele>572.0</ele><time>2026-04-19T09:13:21.916Z</time></trkpt><trkpt lat="44.4475917" lon="10.570835"><ele>572.0</ele><time>2026-04-19T09:13:22.911Z</time></trkpt><trkpt lat="44.4476083" lon="10.5707367"><ele>572.0</ele><time>2026-04-19T09:13:23.932Z</time></trkpt><trkpt lat="44.4476133" lon="10.5706433"><ele>572.0</ele><time>2026-04-19T09:13:24.908Z</time></trkpt><trkpt lat="44.447615" lon="10.5705483"><ele>572.0</ele><time>2026-04-19T09:13:25.91Z</time></trkpt><trkpt lat="44.4476183" lon="10.5704033"><ele>572.0</ele><time>2026-04-19T09:13:27.911Z</time></trkpt><trkpt lat="44.4476783" lon="10.57033"><ele>572.0</ele><time>2026-04-19T09:13:29.969Z</time></trkpt><trkpt lat="44.44776" lon="10.5703717"><ele>572.0</ele><time>2026-04-19T09:13:31.911Z</time></trkpt><trkpt lat="44.4477883" lon="10.5704583"><ele>572.0</ele><time>2026-04-19T09:13:32.911Z</time></trkpt><trkpt lat="44.4478133" lon="10.5705567"><ele>572.0</ele><time>2026-04-19T09:13:33.908Z</time></trkpt><trkpt lat="44.44784" lon="10.57068"><ele>572.0</ele><time>2026-04-19T09:13:34.917Z</time></trkpt><trkpt lat="44.4478833" lon="10.5707983"><ele>572.0</ele><time>2026-04-19T09:13:35.935Z</time></trkpt><trkpt lat="44.4479317" lon="10.5709167"><ele>575.3333333333333</ele><time>2026-04-19T09:13:36.945Z</time></trkpt><trkpt lat="44.4479825" lon="10.571024"><ele>578.6666666666666</ele><time>2026-04-19T09:13:37.904Z</time></trkpt><trkpt lat="44.4480321" lon="10.5711274"><ele>582.0</ele><time>2026-04-19T09:13:38.939Z</time></trkpt><trkpt lat="44.4480764" lon="10.5712134"><ele>585.3333333333334</ele><time>2026-04-19T09:13:39.914Z</time></trkpt><trkpt lat="44.4481161" lon="10.5712939"><ele>588.6666666666667</ele><time>2026-04-19T09:13:40.92Z</time></trkpt><trkpt lat="44.4481703" lon="10.5714318"><ele>592.0</ele><time>2026-04-19T09:13:42.916Z</time></trkpt><trkpt lat="44.448207" lon="10.571534"><ele>592.0</ele><time>2026-04-19T09:13:44.912Z</time></trkpt><trkpt lat="44.4482608" lon="10.5716103"><ele>592.0</ele><time>2026-04-19T09:13:47.945Z</time></trkpt><trkpt lat="44.4482961" lon="10.571519"><ele>592.0</ele><time>2026-04-19T09:13:50.913Z</time></trkpt><trkpt lat="44.4482893" lon="10.5714176"><ele>592.0</ele><time>2026-04-19T09:13:51.919Z</time></trkpt><trkpt lat="44.4482864" lon="10.5713089"><ele>592.0</ele><time>2026-04-19T09:13:52.907Z</time></trkpt><trkpt lat="44.448282" lon="10.5711846"><ele>592.0</ele><time>2026-04-19T09:13:53.936Z</time></trkpt><trkpt lat="44.4482659" lon="10.5710506"><ele>592.2</ele><time>2026-04-19T09:13:54.915Z</time></trkpt><trkpt lat="44.4482417" lon="10.5709066"><ele>592.4000000000001</ele><time>2026-04-19T09:13:55.952Z</time></trkpt><trkpt lat="44.4482152" lon="10.5707724"><ele>592.5999999999999</ele><time>2026-04-19T09:13:56.916Z</time></trkpt><trkpt lat="44.4481889" lon="10.5706367"><ele>592.8</ele><time>2026-04-19T09:13:57.945Z</time></trkpt><trkpt lat="44.4481624" lon="10.570508"><ele>593.0</ele><time>2026-04-19T09:13:58.911Z</time></trkpt><trkpt lat="44.4481344" lon="10.5703782"><ele>593.1999999999999</ele><time>2026-04-19T09:13:59.919Z</time></trkpt><trkpt lat="44.4481098" lon="10.5702462"><ele>593.4</ele><time>2026-04-19T09:14:00.908Z</time></trkpt><trkpt lat="44.4480921" lon="10.5701234"><ele>593.5999999999999</ele><time>2026-04-19T09:14:01.909Z</time></trkpt><trkpt lat="44.4480802" lon="10.5700106"><ele>593.8</ele><time>2026-04-19T09:14:02.924Z</time></trkpt><trkpt lat="44.4480744" lon="10.5699082"><ele>594.0</ele><time>2026-04-19T09:14:03.91Z</time></trkpt><trkpt lat="44.4480971" lon="10.569741"><ele>594.0</ele><time>2026-04-19T09:14:05.957Z</time></trkpt><trkpt lat="44.448144" lon="10.5695939"><ele>594.0</ele><time>2026-04-19T09:14:07.92Z</time></trkpt><trkpt lat="44.4482118" lon="10.569453"><ele>594.0</ele><time>2026-04-19T09:14:09.918Z</time></trkpt><trkpt lat="44.4482572" lon="10.5693806"><ele>594.0</ele><time>2026-04-19T09:14:10.928Z</time></trkpt><trkpt lat="44.4482964" lon="10.5693105"><ele>594.0</ele><time>2026-04-19T09:14:11.9Z</time></trkpt><trkpt lat="44.4483369" lon="10.5692412"><ele>594.0</ele><time>2026-04-19T09:14:12.913Z</time></trkpt><trkpt lat="44.4484243" lon="10.5691217"><ele>593.3333333333334</ele><time>2026-04-19T09:14:14.905Z</time></trkpt><trkpt lat="44.4485145" lon="10.5690525"><ele>592.6666666666666</ele><time>2026-04-19T09:14:16.908Z</time></trkpt><trkpt lat="44.4485767" lon="10.5690069"><ele>592.0</ele><time>2026-04-19T09:14:18.91Z</time></trkpt><trkpt lat="44.4486244" lon="10.5689424"><ele>591.3333333333333</ele><time>2026-04-19T09:14:21.912Z</time></trkpt><trkpt lat="44.4486899" lon="10.5688962"><ele>590.6666666666666</ele><time>2026-04-19T09:14:23.962Z</time></trkpt><trkpt lat="44.4487571" lon="10.5688531"><ele>590.0</ele><time>2026-04-19T09:14:25.939Z</time></trkpt><trkpt lat="44.4488067" lon="10.5687867"><ele>589.2</ele><time>2026-04-19T09:14:27.953Z</time></trkpt><trkpt lat="44.448835" lon="10.568675"><ele>588.4</ele><time>2026-04-19T09:14:30.923Z</time></trkpt><trkpt lat="44.448815" lon="10.568585"><ele>587.6</ele><time>2026-04-19T09:14:32.908Z</time></trkpt><trkpt lat="44.448775" lon="10.56847"><ele>586.8</ele><time>2026-04-19T09:14:34.907Z</time></trkpt><trkpt lat="44.44872" lon="10.5683433"><ele>586.0</ele><time>2026-04-19T09:14:36.907Z</time></trkpt><trkpt lat="44.4486633" lon="10.568215"><ele>586.0</ele><time>2026-04-19T09:14:38.91Z</time></trkpt><trkpt lat="44.4485883" lon="10.5680983"><ele>586.0</ele><time>2026-04-19T09:14:40.908Z</time></trkpt><trkpt lat="44.4485117" lon="10.5680383"><ele>586.0</ele><time>2026-04-19T09:14:42.913Z</time></trkpt><trkpt lat="44.4484383" lon="10.5679583"><ele>586.0</ele><time>2026-04-19T09:14:44.91Z</time></trkpt><trkpt lat="44.44839" lon="10.567855"><ele>586.0</ele><time>2026-04-19T09:14:46.916Z</time></trkpt><trkpt lat="44.4483683" lon="10.56774"><ele>586.6</ele><time>2026-04-19T09:14:48.906Z</time></trkpt><trkpt lat="44.4483617" lon="10.5675833"><ele>587.2</ele><time>2026-04-19T09:14:50.913Z</time></trkpt><trkpt lat="44.4483317" lon="10.5674533"><ele>587.8</ele><time>2026-04-19T09:14:52.919Z</time></trkpt><trkpt lat="44.4482717" lon="10.567345"><ele>588.4</ele><time>2026-04-19T09:14:54.92Z</time></trkpt><trkpt lat="44.44819" lon="10.567235"><ele>589.0</ele><time>2026-04-19T09:14:56.904Z</time></trkpt><trkpt lat="44.4481083" lon="10.5671383"><ele>589.0</ele><time>2026-04-19T09:14:58.911Z</time></trkpt><trkpt lat="44.4480233" lon="10.56708"><ele>589.0</ele><time>2026-04-19T09:15:00.909Z</time></trkpt><trkpt lat="44.4479267" lon="10.5670483"><ele>589.0</ele><time>2026-04-19T09:15:02.914Z</time></trkpt><trkpt lat="44.4478483" lon="10.5670017"><ele>589.0</ele><time>2026-04-19T09:15:04.911Z</time></trkpt><trkpt lat="44.4477883" lon="10.566915"><ele>589.0</ele><time>2026-04-19T09:15:06.91Z</time></trkpt><trkpt lat="44.4477383" lon="10.5668233"><ele>589.0</ele><time>2026-04-19T09:15:08.911Z</time></trkpt><trkpt lat="44.4477" lon="10.5667483"><ele>586.3333333333334</ele><time>2026-04-19T09:15:10.913Z</time></trkpt><trkpt lat="44.4476483" lon="10.56664"><ele>583.6666666666667</ele><time>2026-04-19T09:15:13.911Z</time></trkpt><trkpt lat="44.4476033" lon="10.56655"><ele>581.0</ele><time>2026-04-19T09:15:15.914Z</time></trkpt><trkpt lat="44.447555" lon="10.5664567"><ele>578.3333333333334</ele><time>2026-04-19T09:15:17.899Z</time></trkpt><trkpt lat="44.4474983" lon="10.5663733"><ele>575.6666666666666</ele><time>2026-04-19T09:15:19.908Z</time></trkpt><trkpt lat="44.4474433" lon="10.566285"><ele>573.0</ele><time>2026-04-19T09:15:21.921Z</time></trkpt><trkpt lat="44.4474033" lon="10.5661867"><ele>573.0</ele><time>2026-04-19T09:15:23.929Z</time></trkpt><trkpt lat="44.4474" lon="10.5660867"><ele>573.0</ele><time>2026-04-19T09:15:25.909Z</time></trkpt><trkpt lat="44.4474517" lon="10.5659883"><ele>573.0</ele><time>2026-04-19T09:15:27.911Z</time></trkpt><trkpt lat="44.4475317" lon="10.56588"><ele>573.0</ele><time>2026-04-19T09:15:29.914Z</time></trkpt><trkpt lat="44.447605" lon="10.56579"><ele>573.0</ele><time>2026-04-19T09:15:31.916Z</time></trkpt><trkpt lat="44.4476867" lon="10.5656867"><ele>573.0</ele><time>2026-04-19T09:15:33.917Z</time></trkpt><trkpt lat="44.4477733" lon="10.565595"><ele>573.0</ele><time>2026-04-19T09:15:35.91Z</time></trkpt><trkpt lat="44.4478767" lon="10.5654967"><ele>573.0</ele><time>2026-04-19T09:15:37.93Z</time></trkpt><trkpt lat="44.447985" lon="10.5654083"><ele>573.0</ele><time>2026-04-19T09:15:39.962Z</time></trkpt><trkpt lat="44.44805" lon="10.5653583"><ele>573.0</ele><time>2026-04-19T09:15:40.916Z</time></trkpt><trkpt lat="44.448145" lon="10.56527"><ele>574.1999999999999</ele><time>2026-04-19T09:15:42.929Z</time></trkpt><trkpt lat="44.4482417" lon="10.565185"><ele>575.4</ele><time>2026-04-19T09:15:44.911Z</time></trkpt><trkpt lat="44.4483283" lon="10.5651117"><ele>576.5999999999999</ele><time>2026-04-19T09:15:46.949Z</time></trkpt><trkpt lat="44.4484183" lon="10.5650433"><ele>577.8</ele><time>2026-04-19T09:15:48.931Z</time></trkpt><trkpt lat="44.4485033" lon="10.5649767"><ele>579.0</ele><time>2026-04-19T09:15:50.943Z</time></trkpt><trkpt lat="44.44856" lon="10.5648767"><ele>579.0</ele><time>2026-04-19T09:15:52.908Z</time></trkpt><trkpt lat="44.4485717" lon="10.5647167"><ele>579.0</ele><time>2026-04-19T09:15:54.936Z</time></trkpt><trkpt lat="44.4485733" lon="10.5646283"><ele>579.0</ele><time>2026-04-19T09:15:55.929Z</time></trkpt><trkpt lat="44.44857" lon="10.5644583"><ele>579.0</ele><time>2026-04-19T09:15:57.912Z</time></trkpt><trkpt lat="44.448585" lon="10.5643583"><ele>579.0</ele><time>2026-04-19T09:15:58.922Z</time></trkpt><trkpt lat="44.4485933" lon="10.5642667"><ele>579.0</ele><time>2026-04-19T09:15:59.91Z</time></trkpt><trkpt lat="44.448615" lon="10.5640983"><ele>579.5</ele><time>2026-04-19T09:16:01.924Z</time></trkpt><trkpt lat="44.4486533" lon="10.5639433"><ele>580.0</ele><time>2026-04-19T09:16:03.934Z</time></trkpt><trkpt lat="44.4487033" lon="10.5638033"><ele>580.5</ele><time>2026-04-19T09:16:05.928Z</time></trkpt><trkpt lat="44.448765" lon="10.5636483"><ele>581.0</ele><time>2026-04-19T09:16:07.927Z</time></trkpt><trkpt lat="44.448835" lon="10.5635067"><ele>581.0</ele><time>2026-04-19T09:16:09.92Z</time></trkpt><trkpt lat="44.4489017" lon="10.5633833"><ele>581.0</ele><time>2026-04-19T09:16:11.909Z</time></trkpt><trkpt lat="44.44899" lon="10.5632683"><ele>581.0</ele><time>2026-04-19T09:16:13.912Z</time></trkpt><trkpt lat="44.449045" lon="10.5632117"><ele>581.0</ele><time>2026-04-19T09:16:14.913Z</time></trkpt><trkpt lat="44.4491067" lon="10.56317"><ele>581.0</ele><time>2026-04-19T09:16:15.915Z</time></trkpt><trkpt lat="44.44917" lon="10.5631267"><ele>581.0</ele><time>2026-04-19T09:16:16.909Z</time></trkpt><trkpt lat="44.4492833" lon="10.5630517"><ele>581.0</ele><time>2026-04-19T09:16:18.911Z</time></trkpt><trkpt lat="44.4493383" lon="10.563005"><ele>581.0</ele><time>2026-04-19T09:16:19.907Z</time></trkpt><trkpt lat="44.4493917" lon="10.562955"><ele>581.0</ele><time>2026-04-19T09:16:20.91Z</time></trkpt><trkpt lat="44.4494883" lon="10.56286"><ele>581.0</ele><time>2026-04-19T09:16:22.928Z</time></trkpt><trkpt lat="44.4496" lon="10.5628"><ele>581.0</ele><time>2026-04-19T09:16:24.91Z</time></trkpt><trkpt lat="44.4496617" lon="10.5627783"><ele>581.0</ele><time>2026-04-19T09:16:25.908Z</time></trkpt><trkpt lat="44.4497283" lon="10.5627583"><ele>583.0</ele><time>2026-04-19T09:16:26.928Z</time></trkpt><trkpt lat="44.4498067" lon="10.5627417"><ele>585.0</ele><time>2026-04-19T09:16:27.912Z</time></trkpt><trkpt lat="44.4498817" lon="10.562735"><ele>587.0</ele><time>2026-04-19T09:16:28.911Z</time></trkpt><trkpt lat="44.4499917" lon="10.5627067"><ele>589.0</ele><time>2026-04-19T09:16:30.906Z</time></trkpt><trkpt lat="44.4500533" lon="10.5626333"><ele>591.0</ele><time>2026-04-19T09:16:32.921Z</time></trkpt><trkpt lat="44.4499967" lon="10.5624833"><ele>591.0</ele><time>2026-04-19T09:16:34.922Z</time></trkpt><trkpt lat="44.4499667" lon="10.562405"><ele>591.0</ele><time>2026-04-19T09:16:35.962Z</time></trkpt><trkpt lat="44.4499267" lon="10.5623267"><ele>591.0</ele><time>2026-04-19T09:16:36.925Z</time></trkpt><trkpt lat="44.4499067" lon="10.56224"><ele>591.0</ele><time>2026-04-19T09:16:37.926Z</time></trkpt><trkpt lat="44.4498867" lon="10.5620883"><ele>591.0</ele><time>2026-04-19T09:16:39.907Z</time></trkpt><trkpt lat="44.4499017" lon="10.561955"><ele>591.0</ele><time>2026-04-19T09:16:41.928Z</time></trkpt><trkpt lat="44.4499333" lon="10.561825"><ele>589.8</ele><time>2026-04-19T09:16:43.911Z</time></trkpt><trkpt lat="44.449975" lon="10.5616983"><ele>588.6</ele><time>2026-04-19T09:16:45.922Z</time></trkpt><trkpt lat="44.45" lon="10.5615783"><ele>587.4</ele><time>2026-04-19T09:16:47.907Z</time></trkpt><trkpt lat="44.4500283" lon="10.561475"><ele>586.2</ele><time>2026-04-19T09:16:49.945Z</time></trkpt><trkpt lat="44.450055" lon="10.5613583"><ele>585.0</ele><time>2026-04-19T09:16:51.935Z</time></trkpt><trkpt lat="44.45006" lon="10.56122"><ele>585.3333333333334</ele><time>2026-04-19T09:16:53.911Z</time></trkpt><trkpt lat="44.4500483" lon="10.5610667"><ele>585.6666666666666</ele><time>2026-04-19T09:16:55.906Z</time></trkpt><trkpt lat="44.4500233" lon="10.5609717"><ele>586.0</ele><time>2026-04-19T09:16:56.913Z</time></trkpt><trkpt lat="44.449995" lon="10.56087"><ele>586.3333333333333</ele><time>2026-04-19T09:16:57.929Z</time></trkpt><trkpt lat="44.4499667" lon="10.5607733"><ele>586.6666666666666</ele><time>2026-04-19T09:16:58.912Z</time></trkpt><trkpt lat="44.4499383" lon="10.560685"><ele>587.0</ele><time>2026-04-19T09:16:59.945Z</time></trkpt><trkpt lat="44.4499217" lon="10.5605983"><ele>587.0</ele><time>2026-04-19T09:17:00.941Z</time></trkpt><trkpt lat="44.4499267" lon="10.5604417"><ele>587.0</ele><time>2026-04-19T09:17:02.911Z</time></trkpt><trkpt lat="44.4499533" lon="10.560345"><ele>587.0</ele><time>2026-04-19T09:17:03.911Z</time></trkpt><trkpt lat="44.4499767" lon="10.5602367"><ele>587.0</ele><time>2026-04-19T09:17:04.913Z</time></trkpt><trkpt lat="44.4500083" lon="10.5601317"><ele>587.0</ele><time>2026-04-19T09:17:05.909Z</time></trkpt><trkpt lat="44.4500317" lon="10.5600317"><ele>587.0</ele><time>2026-04-19T09:17:06.94Z</time></trkpt><trkpt lat="44.4500317" lon="10.5599417"><ele>587.4285714285714</ele><time>2026-04-19T09:17:07.923Z</time></trkpt><trkpt lat="44.4500283" lon="10.559845"><ele>587.8571428571429</ele><time>2026-04-19T09:17:08.909Z</time></trkpt><trkpt lat="44.4500183" lon="10.5597433"><ele>588.2857142857143</ele><time>2026-04-19T09:17:09.924Z</time></trkpt><trkpt lat="44.45001" lon="10.5596317"><ele>588.7142857142858</ele><time>2026-04-19T09:17:10.924Z</time></trkpt><trkpt lat="44.45" lon="10.5595267"><ele>589.1428571428571</ele><time>2026-04-19T09:17:11.923Z</time></trkpt><trkpt lat="44.44999" lon="10.559425"><ele>589.5714285714287</ele><time>2026-04-19T09:17:12.909Z</time></trkpt><trkpt lat="44.4499783" lon="10.5593333"><ele>590.0</ele><time>2026-04-19T09:17:13.906Z</time></trkpt><trkpt lat="44.4500067" lon="10.55923"><ele>589.0</ele><time>2026-04-19T09:17:15.946Z</time></trkpt><trkpt lat="44.450045" lon="10.559135"><ele>588.0</ele><time>2026-04-19T09:17:17.934Z</time></trkpt><trkpt lat="44.4501133" lon="10.55903"><ele>587.0</ele><time>2026-04-19T09:17:19.907Z</time></trkpt><trkpt lat="44.45018" lon="10.5589533"><ele>586.0</ele><time>2026-04-19T09:17:20.908Z</time></trkpt><trkpt lat="44.45025" lon="10.558865"><ele>585.0</ele><time>2026-04-19T09:17:21.926Z</time></trkpt><trkpt lat="44.450315" lon="10.5587833"><ele>584.0</ele><time>2026-04-19T09:17:22.911Z</time></trkpt><trkpt lat="44.4503717" lon="10.5587083"><ele>586.5</ele><time>2026-04-19T09:17:23.915Z</time></trkpt><trkpt lat="44.4504467" lon="10.5585933"><ele>589.0</ele><time>2026-04-19T09:17:25.908Z</time></trkpt><trkpt lat="44.4504717" lon="10.5584917"><ele>591.5</ele><time>2026-04-19T09:17:28.915Z</time></trkpt><trkpt lat="44.4504833" lon="10.5583867"><ele>594.0</ele><time>2026-04-19T09:17:32.931Z</time></trkpt><trkpt lat="44.4504983" lon="10.5582983"><ele>596.5</ele><time>2026-04-19T09:17:46.91Z</time></trkpt><trkpt lat="44.4505317" lon="10.5582217"><ele>599.0</ele><time>2026-04-19T09:17:50.921Z</time></trkpt><trkpt lat="44.4505833" lon="10.558125"><ele>599.0</ele><time>2026-04-19T09:17:53.906Z</time></trkpt><trkpt lat="44.450645" lon="10.558075"><ele>599.0</ele><time>2026-04-19T09:17:55.922Z</time></trkpt><trkpt lat="44.4507067" lon="10.5580167"><ele>599.0</ele><time>2026-04-19T09:17:57.911Z</time></trkpt><trkpt lat="44.4507683" lon="10.5579383"><ele>599.0</ele><time>2026-04-19T09:17:59.918Z</time></trkpt><trkpt lat="44.45084" lon="10.55783"><ele>599.0</ele><time>2026-04-19T09:18:01.908Z</time></trkpt><trkpt lat="44.4509133" lon="10.5576967"><ele>596.1666666666666</ele><time>2026-04-19T09:18:03.908Z</time></trkpt><trkpt lat="44.4509417" lon="10.557615"><ele>593.3333333333333</ele><time>2026-04-19T09:18:04.911Z</time></trkpt><trkpt lat="44.450965" lon="10.5575167"><ele>590.5</ele><time>2026-04-19T09:18:05.924Z</time></trkpt><trkpt lat="44.450985" lon="10.5573967"><ele>587.6666666666666</ele><time>2026-04-19T09:18:06.91Z</time></trkpt><trkpt lat="44.4509967" lon="10.5572617"><ele>584.8333333333334</ele><time>2026-04-19T09:18:07.953Z</time></trkpt><trkpt lat="44.4510033" lon="10.55713"><ele>582.0</ele><time>2026-04-19T09:18:08.91Z</time></trkpt><trkpt lat="44.4510033" lon="10.5570017"><ele>580.5</ele><time>2026-04-19T09:18:09.912Z</time></trkpt><trkpt lat="44.450995" lon="10.5568867"><ele>579.0</ele><time>2026-04-19T09:18:10.911Z</time></trkpt><trkpt lat="44.450985" lon="10.5567683"><ele>577.5</ele><time>2026-04-19T09:18:11.922Z</time></trkpt><trkpt lat="44.4509817" lon="10.5566467"><ele>576.0</ele><time>2026-04-19T09:18:12.908Z</time></trkpt><trkpt lat="44.450985" lon="10.55653"><ele>574.5</ele><time>2026-04-19T09:18:13.921Z</time></trkpt><trkpt lat="44.450995" lon="10.5564117"><ele>573.0</ele><time>2026-04-19T09:18:14.91Z</time></trkpt><trkpt lat="44.4510233" lon="10.5562917"><ele>573.0</ele><time>2026-04-19T09:18:15.944Z</time></trkpt><trkpt lat="44.45107" lon="10.5561817"><ele>573.0</ele><time>2026-04-19T09:18:16.908Z</time></trkpt><trkpt lat="44.4511117" lon="10.5560783"><ele>573.0</ele><time>2026-04-19T09:18:17.911Z</time></trkpt><trkpt lat="44.451145" lon="10.5559767"><ele>573.0</ele><time>2026-04-19T09:18:18.91Z</time></trkpt><trkpt lat="44.4511633" lon="10.5558733"><ele>573.0</ele><time>2026-04-19T09:18:19.959Z</time></trkpt><trkpt lat="44.4511167" lon="10.5557783"><ele>573.0</ele><time>2026-04-19T09:18:20.911Z</time></trkpt><trkpt lat="44.4510667" lon="10.55569"><ele>573.0</ele><time>2026-04-19T09:18:21.91Z</time></trkpt><trkpt lat="44.45101" lon="10.5556133"><ele>573.0</ele><time>2026-04-19T09:18:22.907Z</time></trkpt><trkpt lat="44.45096" lon="10.5555333"><ele>573.0</ele><time>2026-04-19T09:18:23.924Z</time></trkpt><trkpt lat="44.4509117" lon="10.5554517"><ele>573.0</ele><time>2026-04-19T09:18:24.909Z</time></trkpt><trkpt lat="44.4508717" lon="10.5553617"><ele>573.0</ele><time>2026-04-19T09:18:25.908Z</time></trkpt><trkpt lat="44.4508333" lon="10.5552717"><ele>573.0</ele><time>2026-04-19T09:18:26.962Z</time></trkpt><trkpt lat="44.4507983" lon="10.555175"><ele>574.5</ele><time>2026-04-19T09:18:27.935Z</time></trkpt><trkpt lat="44.4507783" lon="10.5550733"><ele>576.0</ele><time>2026-04-19T09:18:28.912Z</time></trkpt><trkpt lat="44.4507633" lon="10.5549783"><ele>577.5</ele><time>2026-04-19T09:18:29.906Z</time></trkpt><trkpt lat="44.4507683" lon="10.5548733"><ele>579.0</ele><time>2026-04-19T09:18:30.928Z</time></trkpt><trkpt lat="44.450775" lon="10.554775"><ele>580.5</ele><time>2026-04-19T09:18:31.912Z</time></trkpt><trkpt lat="44.4507783" lon="10.55468"><ele>582.0</ele><time>2026-04-19T09:18:32.911Z</time></trkpt><trkpt lat="44.4507217" lon="10.5545133"><ele>582.6666666666666</ele><time>2026-04-19T09:18:34.973Z</time></trkpt><trkpt lat="44.45066" lon="10.5544383"><ele>583.3333333333334</ele><time>2026-04-19T09:18:35.907Z</time></trkpt><trkpt lat="44.450595" lon="10.5543667"><ele>584.0</ele><time>2026-04-19T09:18:36.908Z</time></trkpt><trkpt lat="44.4505233" lon="10.5542983"><ele>584.6666666666667</ele><time>2026-04-19T09:18:37.91Z</time></trkpt><trkpt lat="44.4504333" lon="10.5542817"><ele>585.3333333333334</ele><time>2026-04-19T09:18:38.914Z</time></trkpt><trkpt lat="44.4503467" lon="10.5542767"><ele>586.0</ele><time>2026-04-19T09:18:39.939Z</time></trkpt><trkpt lat="44.4502617" lon="10.5542667"><ele>583.8</ele><time>2026-04-19T09:18:40.911Z</time></trkpt><trkpt lat="44.4501767" lon="10.554235"><ele>581.6</ele><time>2026-04-19T09:18:41.997Z</time></trkpt><trkpt lat="44.4500833" lon="10.5541733"><ele>579.4</ele><time>2026-04-19T09:18:42.951Z</time></trkpt><trkpt lat="44.44999" lon="10.5541083"><ele>577.2</ele><time>2026-04-19T09:18:43.933Z</time></trkpt><trkpt lat="44.449895" lon="10.5540517"><ele>575.0</ele><time>2026-04-19T09:18:44.911Z</time></trkpt><trkpt lat="44.4498" lon="10.554015"><ele>575.0</ele><time>2026-04-19T09:18:45.917Z</time></trkpt><trkpt lat="44.4497067" lon="10.5539883"><ele>575.0</ele><time>2026-04-19T09:18:46.91Z</time></trkpt><trkpt lat="44.4496167" lon="10.5539667"><ele>575.0</ele><time>2026-04-19T09:18:47.906Z</time></trkpt><trkpt lat="44.4495367" lon="10.5539617"><ele>575.0</ele><time>2026-04-19T09:18:48.91Z</time></trkpt><trkpt lat="44.449455" lon="10.5539717"><ele>575.0</ele><time>2026-04-19T09:18:49.935Z</time></trkpt><trkpt lat="44.44937" lon="10.5539883"><ele>575.0</ele><time>2026-04-19T09:18:50.945Z</time></trkpt><trkpt lat="44.4492667" lon="10.5540117"><ele>575.6</ele><time>2026-04-19T09:18:51.92Z</time></trkpt><trkpt lat="44.4491633" lon="10.554045"><ele>576.2</ele><time>2026-04-19T09:18:52.908Z</time></trkpt><trkpt lat="44.4490683" lon="10.554085"><ele>576.8</ele><time>2026-04-19T09:18:53.935Z</time></trkpt><trkpt lat="44.4489833" lon="10.5541333"><ele>577.4</ele><time>2026-04-19T09:18:54.91Z</time></trkpt><trkpt lat="44.44891" lon="10.5541817"><ele>578.0</ele><time>2026-04-19T09:18:55.936Z</time></trkpt><trkpt lat="44.448845" lon="10.5542233"><ele>580.1666666666666</ele><time>2026-04-19T09:18:56.922Z</time></trkpt><trkpt lat="44.4487867" lon="10.55426"><ele>582.3333333333333</ele><time>2026-04-19T09:18:57.907Z</time></trkpt><trkpt lat="44.4487233" lon="10.5542883"><ele>584.5</ele><time>2026-04-19T09:18:58.94Z</time></trkpt><trkpt lat="44.4485983" lon="10.55433"><ele>586.6666666666666</ele><time>2026-04-19T09:19:00.907Z</time></trkpt><trkpt lat="44.4485333" lon="10.5543833"><ele>588.8333333333334</ele><time>2026-04-19T09:19:01.944Z</time></trkpt><trkpt lat="44.4484633" lon="10.5544433"><ele>591.0</ele><time>2026-04-19T09:19:02.907Z</time></trkpt><trkpt lat="44.448385" lon="10.5545133"><ele>590.6</ele><time>2026-04-19T09:19:03.933Z</time></trkpt><trkpt lat="44.4482967" lon="10.5545817"><ele>590.2</ele><time>2026-04-19T09:19:04.913Z</time></trkpt><trkpt lat="44.4482033" lon="10.5546317"><ele>589.8</ele><time>2026-04-19T09:19:05.91Z</time></trkpt><trkpt lat="44.448115" lon="10.55466"><ele>589.4</ele><time>2026-04-19T09:19:06.906Z</time></trkpt><trkpt lat="44.44802" lon="10.55467"><ele>589.0</ele><time>2026-04-19T09:19:07.937Z</time></trkpt><trkpt lat="44.44793" lon="10.55467"><ele>589.0</ele><time>2026-04-19T09:19:08.908Z</time></trkpt><trkpt lat="44.44785" lon="10.5546683"><ele>589.0</ele><time>2026-04-19T09:19:09.932Z</time></trkpt><trkpt lat="44.44778" lon="10.554675"><ele>589.0</ele><time>2026-04-19T09:19:10.923Z</time></trkpt><trkpt lat="44.447715" lon="10.5546917"><ele>589.0</ele><time>2026-04-19T09:19:11.915Z</time></trkpt><trkpt lat="44.4476383" lon="10.5547233"><ele>589.0</ele><time>2026-04-19T09:19:12.907Z</time></trkpt><trkpt lat="44.4475633" lon="10.554765"><ele>589.0</ele><time>2026-04-19T09:19:13.924Z</time></trkpt><trkpt lat="44.4474917" lon="10.554815"><ele>589.0</ele><time>2026-04-19T09:19:14.912Z</time></trkpt><trkpt lat="44.44742" lon="10.5548767"><ele>589.0</ele><time>2026-04-19T09:19:15.909Z</time></trkpt><trkpt lat="44.4473483" lon="10.554945"><ele>589.0</ele><time>2026-04-19T09:19:16.911Z</time></trkpt><trkpt lat="44.4472817" lon="10.5550167"><ele>589.0</ele><time>2026-04-19T09:19:17.937Z</time></trkpt><trkpt lat="44.4472183" lon="10.5550883"><ele>589.0</ele><time>2026-04-19T09:19:18.91Z</time></trkpt><trkpt lat="44.447155" lon="10.5551533"><ele>589.0</ele><time>2026-04-19T09:19:19.92Z</time></trkpt><trkpt lat="44.4471" lon="10.5552017"><ele>589.2</ele><time>2026-04-19T09:19:20.907Z</time></trkpt><trkpt lat="44.4470083" lon="10.55521"><ele>589.4</ele><time>2026-04-19T09:19:22.908Z</time></trkpt><trkpt lat="44.4469717" lon="10.55509"><ele>589.6</ele><time>2026-04-19T09:19:24.935Z</time></trkpt><trkpt lat="44.4469867" lon="10.554965"><ele>589.8</ele><time>2026-04-19T09:19:26.909Z</time></trkpt><trkpt lat="44.4470083" lon="10.55483"><ele>590.0</ele><time>2026-04-19T09:19:28.911Z</time></trkpt><trkpt lat="44.4470083" lon="10.55467"><ele>591.8</ele><time>2026-04-19T09:19:30.935Z</time></trkpt><trkpt lat="44.446995" lon="10.5544933"><ele>593.6</ele><time>2026-04-19T09:19:32.909Z</time></trkpt><trkpt lat="44.4469867" lon="10.55439"><ele>595.4</ele><time>2026-04-19T09:19:33.909Z</time></trkpt><trkpt lat="44.446975" lon="10.5542733"><ele>597.2</ele><time>2026-04-19T09:19:34.973Z</time></trkpt><trkpt lat="44.4469483" lon="10.5541517"><ele>599.0</ele><time>2026-04-19T09:19:35.953Z</time></trkpt><trkpt lat="44.4468967" lon="10.5540367"><ele>599.0</ele><time>2026-04-19T09:19:36.906Z</time></trkpt><trkpt lat="44.4468167" lon="10.5539233"><ele>599.0</ele><time>2026-04-19T09:19:37.909Z</time></trkpt><trkpt lat="44.4467167" lon="10.5538317"><ele>599.0</ele><time>2026-04-19T09:19:38.955Z</time></trkpt><trkpt lat="44.4466" lon="10.5537583"><ele>599.0</ele><time>2026-04-19T09:19:39.909Z</time></trkpt><trkpt lat="44.4464633" lon="10.5536933"><ele>605.6666666666666</ele><time>2026-04-19T09:19:40.919Z</time></trkpt><trkpt lat="44.44631" lon="10.5536283"><ele>612.3333333333334</ele><time>2026-04-19T09:19:41.908Z</time></trkpt><trkpt lat="44.4461433" lon="10.553585"><ele>619.0</ele><time>2026-04-19T09:19:42.907Z</time></trkpt><trkpt lat="44.4459633" lon="10.5535617"><ele>620.6666666666667</ele><time>2026-04-19T09:19:43.944Z</time></trkpt><trkpt lat="44.44579" lon="10.55357"><ele>622.3333333333334</ele><time>2026-04-19T09:19:44.928Z</time></trkpt><trkpt lat="44.4456267" lon="10.55358"><ele>624.0</ele><time>2026-04-19T09:19:45.923Z</time></trkpt><trkpt lat="44.4454717" lon="10.5535833"><ele>624.5</ele><time>2026-04-19T09:19:46.946Z</time></trkpt><trkpt lat="44.4453217" lon="10.5535783"><ele>625.0</ele><time>2026-04-19T09:19:47.908Z</time></trkpt><trkpt lat="44.445185" lon="10.5535633"><ele>625.5</ele><time>2026-04-19T09:19:48.914Z</time></trkpt><trkpt lat="44.4450733" lon="10.55354"><ele>626.0</ele><time>2026-04-19T09:19:49.92Z</time></trkpt><trkpt lat="44.44499" lon="10.553505"><ele>626.0</ele><time>2026-04-19T09:19:50.909Z</time></trkpt><trkpt lat="44.4449233" lon="10.5534567"><ele>626.0</ele><time>2026-04-19T09:19:51.909Z</time></trkpt><trkpt lat="44.4448767" lon="10.5533917"><ele>626.0</ele><time>2026-04-19T09:19:52.981Z</time></trkpt><trkpt lat="44.44485" lon="10.5533017"><ele>626.0</ele><time>2026-04-19T09:19:53.952Z</time></trkpt><trkpt lat="44.4448367" lon="10.55319"><ele>626.0</ele><time>2026-04-19T09:19:54.928Z</time></trkpt><trkpt lat="44.4448383" lon="10.5530833"><ele>626.0</ele><time>2026-04-19T09:19:55.92Z</time></trkpt><trkpt lat="44.4448683" lon="10.5529633"><ele>627.0</ele><time>2026-04-19T09:19:56.909Z</time></trkpt><trkpt lat="44.4449083" lon="10.552845"><ele>628.0</ele><time>2026-04-19T09:19:57.916Z</time></trkpt><trkpt lat="44.4449783" lon="10.552725"><ele>629.0</ele><time>2026-04-19T09:19:58.922Z</time></trkpt><trkpt lat="44.4450517" lon="10.552625"><ele>630.0</ele><time>2026-04-19T09:19:59.921Z</time></trkpt><trkpt lat="44.4451367" lon="10.552535"><ele>631.0</ele><time>2026-04-19T09:20:00.945Z</time></trkpt><trkpt lat="44.4452283" lon="10.55245"><ele>631.0</ele><time>2026-04-19T09:20:01.935Z</time></trkpt><trkpt lat="44.4453017" lon="10.55238"><ele>631.0</ele><time>2026-04-19T09:20:02.925Z</time></trkpt><trkpt lat="44.4453583" lon="10.5523217"><ele>631.0</ele><time>2026-04-19T09:20:03.933Z</time></trkpt><trkpt lat="44.445455" lon="10.5522417"><ele>631.0</ele><time>2026-04-19T09:20:05.924Z</time></trkpt><trkpt lat="44.4455117" lon="10.5521483"><ele>631.0</ele><time>2026-04-19T09:20:07.91Z</time></trkpt><trkpt lat="44.4454967" lon="10.55196"><ele>632.3333333333334</ele><time>2026-04-19T09:20:09.954Z</time></trkpt><trkpt lat="44.4454767" lon="10.551865"><ele>633.6666666666667</ele><time>2026-04-19T09:20:10.952Z</time></trkpt><trkpt lat="44.4454583" lon="10.5517683"><ele>635.0</ele><time>2026-04-19T09:20:11.914Z</time></trkpt><trkpt lat="44.4454417" lon="10.5516633"><ele>636.3333333333334</ele><time>2026-04-19T09:20:12.906Z</time></trkpt><trkpt lat="44.4454183" lon="10.55157"><ele>637.6666666666666</ele><time>2026-04-19T09:20:13.91Z</time></trkpt><trkpt lat="44.44539" lon="10.55149"><ele>639.0</ele><time>2026-04-19T09:20:14.919Z</time></trkpt><trkpt lat="44.4453467" lon="10.5513517"><ele>641.6666666666666</ele><time>2026-04-19T09:20:16.9Z</time></trkpt><trkpt lat="44.4454917" lon="10.55126"><ele>644.3333333333333</ele><time>2026-04-19T09:20:18.537Z</time></trkpt><trkpt lat="44.4454183" lon="10.5510033"><ele>647.0</ele><time>2026-04-19T09:20:20.897Z</time></trkpt><trkpt lat="44.4453117" lon="10.55099"><ele>647.0</ele><time>2026-04-19T09:20:21.896Z</time></trkpt><trkpt lat="44.44529" lon="10.5507883"><ele>647.0</ele><time>2026-04-19T09:20:23.895Z</time></trkpt><trkpt lat="44.4451583" lon="10.5509667"><ele>647.0</ele><time>2026-04-19T09:20:25.897Z</time></trkpt><trkpt lat="44.4451733" lon="10.55082"><ele>647.0</ele><time>2026-04-19T09:20:27.896Z</time></trkpt><trkpt lat="44.44516" lon="10.5506283"><ele>647.0</ele><time>2026-04-19T09:20:29.897Z</time></trkpt><trkpt lat="44.4451333" lon="10.5505467"><ele>647.0</ele><time>2026-04-19T09:20:30.896Z</time></trkpt><trkpt lat="44.4451233" lon="10.5504433"><ele>647.0</ele><time>2026-04-19T09:20:31.897Z</time></trkpt><trkpt lat="44.4451217" lon="10.550345"><ele>647.0</ele><time>2026-04-19T09:20:32.897Z</time></trkpt><trkpt lat="44.4450633" lon="10.550185"><ele>647.0</ele><time>2026-04-19T09:20:34.897Z</time></trkpt><trkpt lat="44.4450683" lon="10.5500933"><ele>647.0</ele><time>2026-04-19T09:20:35.897Z</time></trkpt><trkpt lat="44.4450583" lon="10.5499183"><ele>648.8333333333333</ele><time>2026-04-19T09:20:36.908Z</time></trkpt><trkpt lat="44.4450267" lon="10.54981"><ele>650.6666666666666</ele><time>2026-04-19T09:20:37.91Z</time></trkpt><trkpt lat="44.44499" lon="10.549705"><ele>652.5</ele><time>2026-04-19T09:20:38.91Z</time></trkpt><trkpt lat="44.444965" lon="10.549595"><ele>654.3333333333334</ele><time>2026-04-19T09:20:39.914Z</time></trkpt><trkpt lat="44.444945" lon="10.5494683"><ele>656.1666666666667</ele><time>2026-04-19T09:20:40.911Z</time></trkpt><trkpt lat="44.4449217" lon="10.5493217"><ele>658.0</ele><time>2026-04-19T09:20:41.909Z</time></trkpt><trkpt lat="44.4448983" lon="10.549195"><ele>659.8</ele><time>2026-04-19T09:20:42.91Z</time></trkpt><trkpt lat="44.4448833" lon="10.54906"><ele>661.5999999999999</ele><time>2026-04-19T09:20:43.912Z</time></trkpt><trkpt lat="44.444865" lon="10.5489133"><ele>663.4000000000001</ele><time>2026-04-19T09:20:44.908Z</time></trkpt><trkpt lat="44.4448467" lon="10.54877"><ele>665.2</ele><time>2026-04-19T09:20:45.91Z</time></trkpt><trkpt lat="44.444825" lon="10.5486317"><ele>667.0</ele><time>2026-04-19T09:20:46.91Z</time></trkpt><trkpt lat="44.44479" lon="10.54849"><ele>668.8</ele><time>2026-04-19T09:20:47.911Z</time></trkpt><trkpt lat="44.444755" lon="10.5483467"><ele>670.6</ele><time>2026-04-19T09:20:48.919Z</time></trkpt><trkpt lat="44.4447083" lon="10.5482083"><ele>672.4</ele><time>2026-04-19T09:20:49.908Z</time></trkpt><trkpt lat="44.4446533" lon="10.54809"><ele>674.1999999999999</ele><time>2026-04-19T09:20:50.923Z</time></trkpt><trkpt lat="44.4445983" lon="10.547985"><ele>676.0</ele><time>2026-04-19T09:20:51.908Z</time></trkpt><trkpt lat="44.4445283" lon="10.5478917"><ele>673.5999999999999</ele><time>2026-04-19T09:20:52.909Z</time></trkpt><trkpt lat="44.4444633" lon="10.5477867"><ele>671.2</ele><time>2026-04-19T09:20:53.912Z</time></trkpt><trkpt lat="44.4444083" lon="10.5476833"><ele>668.8</ele><time>2026-04-19T09:20:54.908Z</time></trkpt><trkpt lat="44.444365" lon="10.5475667"><ele>666.4000000000001</ele><time>2026-04-19T09:20:55.909Z</time></trkpt><trkpt lat="44.444335" lon="10.5474317"><ele>664.0</ele><time>2026-04-19T09:20:56.911Z</time></trkpt><trkpt lat="44.444315" lon="10.547275"><ele>664.0</ele><time>2026-04-19T09:20:57.911Z</time></trkpt><trkpt lat="44.4443" lon="10.5471067"><ele>664.0</ele><time>2026-04-19T09:20:58.909Z</time></trkpt><trkpt lat="44.44428" lon="10.546945"><ele>664.0</ele><time>2026-04-19T09:20:59.922Z</time></trkpt><trkpt lat="44.44426" lon="10.546795"><ele>664.0</ele><time>2026-04-19T09:21:00.927Z</time></trkpt><trkpt lat="44.4442183" lon="10.546665"><ele>664.0</ele><time>2026-04-19T09:21:01.922Z</time></trkpt><trkpt lat="44.4441467" lon="10.5465483"><ele>664.25</ele><time>2026-04-19T09:21:02.909Z</time></trkpt><trkpt lat="44.4440583" lon="10.546455"><ele>664.5</ele><time>2026-04-19T09:21:03.952Z</time></trkpt><trkpt lat="44.4439733" lon="10.5463467"><ele>664.75</ele><time>2026-04-19T09:21:04.928Z</time></trkpt><trkpt lat="44.4439033" lon="10.546205"><ele>665.0</ele><time>2026-04-19T09:21:05.91Z</time></trkpt><trkpt lat="44.443835" lon="10.54605"><ele>660.0</ele><time>2026-04-19T09:21:06.913Z</time></trkpt><trkpt lat="44.4437517" lon="10.5458883"><ele>655.0</ele><time>2026-04-19T09:21:07.912Z</time></trkpt><trkpt lat="44.4436567" lon="10.5457267"><ele>650.0</ele><time>2026-04-19T09:21:08.907Z</time></trkpt><trkpt lat="44.44356" lon="10.545575"><ele>645.0</ele><time>2026-04-19T09:21:09.907Z</time></trkpt><trkpt lat="44.44347" lon="10.5454383"><ele>646.8</ele><time>2026-04-19T09:21:10.914Z</time></trkpt><trkpt lat="44.443395" lon="10.5453183"><ele>648.6</ele><time>2026-04-19T09:21:11.911Z</time></trkpt><trkpt lat="44.4433283" lon="10.5452133"><ele>650.4000000000001</ele><time>2026-04-19T09:21:12.907Z</time></trkpt><trkpt lat="44.443265" lon="10.545115"><ele>652.2</ele><time>2026-04-19T09:21:13.912Z</time></trkpt><trkpt lat="44.4432183" lon="10.5450083"><ele>654.0</ele><time>2026-04-19T09:21:14.911Z</time></trkpt><trkpt lat="44.4431867" lon="10.544895"><ele>654.0</ele><time>2026-04-19T09:21:15.917Z</time></trkpt><trkpt lat="44.443155" lon="10.5447783"><ele>654.0</ele><time>2026-04-19T09:21:16.915Z</time></trkpt><trkpt lat="44.4431017" lon="10.54466"><ele>654.0</ele><time>2026-04-19T09:21:17.921Z</time></trkpt><trkpt lat="44.4430317" lon="10.54455"><ele>654.0</ele><time>2026-04-19T09:21:18.909Z</time></trkpt><trkpt lat="44.4429517" lon="10.544445"><ele>654.0</ele><time>2026-04-19T09:21:19.914Z</time></trkpt><trkpt lat="44.442875" lon="10.5443383"><ele>650.0</ele><time>2026-04-19T09:21:20.917Z</time></trkpt><trkpt lat="44.4428067" lon="10.5442217"><ele>646.0</ele><time>2026-04-19T09:21:21.935Z</time></trkpt><trkpt lat="44.4427417" lon="10.544095"><ele>642.0</ele><time>2026-04-19T09:21:22.956Z</time></trkpt><trkpt lat="44.4426833" lon="10.5439633"><ele>638.0</ele><time>2026-04-19T09:21:23.936Z</time></trkpt><trkpt lat="44.4426317" lon="10.5438267"><ele>634.0</ele><time>2026-04-19T09:21:24.91Z</time></trkpt><trkpt lat="44.4425883" lon="10.54368"><ele>634.0</ele><time>2026-04-19T09:21:25.934Z</time></trkpt><trkpt lat="44.4425617" lon="10.5435283"><ele>634.0</ele><time>2026-04-19T09:21:26.911Z</time></trkpt><trkpt lat="44.4425433" lon="10.5433667"><ele>634.0</ele><time>2026-04-19T09:21:27.911Z</time></trkpt><trkpt lat="44.442525" lon="10.5431967"><ele>634.0</ele><time>2026-04-19T09:21:28.912Z</time></trkpt><trkpt lat="44.442505" lon="10.5430183"><ele>631.25</ele><time>2026-04-19T09:21:29.908Z</time></trkpt><trkpt lat="44.4424817" lon="10.542835"><ele>628.5</ele><time>2026-04-19T09:21:30.917Z</time></trkpt><trkpt lat="44.4424567" lon="10.5426417"><ele>625.75</ele><time>2026-04-19T09:21:31.912Z</time></trkpt><trkpt lat="44.4424333" lon="10.5424467"><ele>623.0</ele><time>2026-04-19T09:21:32.912Z</time></trkpt><trkpt lat="44.4424083" lon="10.542245"><ele>620.6666666666666</ele><time>2026-04-19T09:21:33.911Z</time></trkpt><trkpt lat="44.4423817" lon="10.5420383"><ele>618.3333333333334</ele><time>2026-04-19T09:21:34.917Z</time></trkpt><trkpt lat="44.4423533" lon="10.541825"><ele>616.0</ele><time>2026-04-19T09:21:35.916Z</time></trkpt><trkpt lat="44.442325" lon="10.5416133"><ele>616.0</ele><time>2026-04-19T09:21:36.908Z</time></trkpt><trkpt lat="44.4422983" lon="10.5414067"><ele>616.0</ele><time>2026-04-19T09:21:37.911Z</time></trkpt><trkpt lat="44.442275" lon="10.5411983"><ele>616.0</ele><time>2026-04-19T09:21:38.907Z</time></trkpt><trkpt lat="44.4422533" lon="10.5409917"><ele>615.25</ele><time>2026-04-19T09:21:39.909Z</time></trkpt><trkpt lat="44.4422267" lon="10.5407917"><ele>614.5</ele><time>2026-04-19T09:21:40.927Z</time></trkpt><trkpt lat="44.442205" lon="10.5406067"><ele>613.75</ele><time>2026-04-19T09:21:41.908Z</time></trkpt><trkpt lat="44.442185" lon="10.540445"><ele>613.0</ele><time>2026-04-19T09:21:42.956Z</time></trkpt><trkpt lat="44.4421633" lon="10.5402983"><ele>612.0</ele><time>2026-04-19T09:21:43.908Z</time></trkpt><trkpt lat="44.44214" lon="10.5401633"><ele>611.0</ele><time>2026-04-19T09:21:44.906Z</time></trkpt><trkpt lat="44.4421233" lon="10.54005"><ele>610.0</ele><time>2026-04-19T09:21:45.907Z</time></trkpt><trkpt lat="44.4421117" lon="10.53996"><ele>609.0</ele><time>2026-04-19T09:21:46.911Z</time></trkpt><trkpt lat="44.4421383" lon="10.5397933"><ele>608.0</ele><time>2026-04-19T09:21:48.913Z</time></trkpt><trkpt lat="44.4421733" lon="10.5397"><ele>607.0</ele><time>2026-04-19T09:21:49.911Z</time></trkpt><trkpt lat="44.4422317" lon="10.5396083"><ele>604.8000000000001</ele><time>2026-04-19T09:21:50.911Z</time></trkpt><trkpt lat="44.4422983" lon="10.53951"><ele>602.6</ele><time>2026-04-19T09:21:51.913Z</time></trkpt><trkpt lat="44.44236" lon="10.539405"><ele>600.4000000000001</ele><time>2026-04-19T09:21:52.909Z</time></trkpt><trkpt lat="44.4424117" lon="10.5392983"><ele>598.2</ele><time>2026-04-19T09:21:53.91Z</time></trkpt><trkpt lat="44.4424417" lon="10.5391883"><ele>596.0</ele><time>2026-04-19T09:21:54.913Z</time></trkpt><trkpt lat="44.4424483" lon="10.5390683"><ele>596.0</ele><time>2026-04-19T09:21:55.911Z</time></trkpt><trkpt lat="44.44244" lon="10.5389517"><ele>596.0</ele><time>2026-04-19T09:21:56.907Z</time></trkpt><trkpt lat="44.4424333" lon="10.5388383"><ele>596.0</ele><time>2026-04-19T09:21:57.908Z</time></trkpt><trkpt lat="44.442445" lon="10.5387217"><ele>596.0</ele><time>2026-04-19T09:21:58.911Z</time></trkpt><trkpt lat="44.4424833" lon="10.5386083"><ele>596.0</ele><time>2026-04-19T09:21:59.908Z</time></trkpt><trkpt lat="44.44255" lon="10.5384917"><ele>596.0</ele><time>2026-04-19T09:22:00.91Z</time></trkpt><trkpt lat="44.4426383" lon="10.5383783"><ele>593.6</ele><time>2026-04-19T09:22:01.914Z</time></trkpt><trkpt lat="44.4427117" lon="10.5382567"><ele>591.2</ele><time>2026-04-19T09:22:02.928Z</time></trkpt><trkpt lat="44.4427617" lon="10.53812"><ele>588.8</ele><time>2026-04-19T09:22:03.908Z</time></trkpt><trkpt lat="44.4427833" lon="10.53798"><ele>586.4</ele><time>2026-04-19T09:22:04.918Z</time></trkpt><trkpt lat="44.4427767" lon="10.537835"><ele>584.0</ele><time>2026-04-19T09:22:05.921Z</time></trkpt><trkpt lat="44.4427383" lon="10.5377133"><ele>582.4</ele><time>2026-04-19T09:22:06.908Z</time></trkpt><trkpt lat="44.4426667" lon="10.53763"><ele>580.8</ele><time>2026-04-19T09:22:07.911Z</time></trkpt><trkpt lat="44.4425783" lon="10.537565"><ele>579.2</ele><time>2026-04-19T09:22:08.908Z</time></trkpt><trkpt lat="44.4424917" lon="10.5374883"><ele>577.6</ele><time>2026-04-19T09:22:09.916Z</time></trkpt><trkpt lat="44.4424233" lon="10.537385"><ele>576.0</ele><time>2026-04-19T09:22:10.921Z</time></trkpt><trkpt lat="44.4423733" lon="10.5372567"><ele>576.0</ele><time>2026-04-19T09:22:11.908Z</time></trkpt><trkpt lat="44.4423467" lon="10.537115"><ele>576.0</ele><time>2026-04-19T09:22:12.91Z</time></trkpt><trkpt lat="44.4423333" lon="10.53698"><ele>576.0</ele><time>2026-04-19T09:22:13.912Z</time></trkpt><trkpt lat="44.442325" lon="10.53685"><ele>576.0</ele><time>2026-04-19T09:22:14.92Z</time></trkpt><trkpt lat="44.4423183" lon="10.5367267"><ele>576.0</ele><time>2026-04-19T09:22:15.913Z</time></trkpt><trkpt lat="44.4423133" lon="10.5366083"><ele>574.8333333333334</ele><time>2026-04-19T09:22:16.917Z</time></trkpt><trkpt lat="44.4423133" lon="10.536495"><ele>573.6666666666666</ele><time>2026-04-19T09:22:17.907Z</time></trkpt><trkpt lat="44.4423167" lon="10.5363933"><ele>572.5</ele><time>2026-04-19T09:22:18.922Z</time></trkpt><trkpt lat="44.44232" lon="10.5363017"><ele>571.3333333333333</ele><time>2026-04-19T09:22:19.909Z</time></trkpt><trkpt lat="44.4423317" lon="10.5361667"><ele>570.1666666666666</ele><time>2026-04-19T09:22:21.909Z</time></trkpt><trkpt lat="44.4423383" lon="10.5360683"><ele>569.0</ele><time>2026-04-19T09:22:24.906Z</time></trkpt><trkpt lat="44.44235" lon="10.535935"><ele>567.6</ele><time>2026-04-19T09:22:37.914Z</time></trkpt><trkpt lat="44.4423767" lon="10.5358367"><ele>566.2</ele><time>2026-04-19T09:22:39.92Z</time></trkpt><trkpt lat="44.4424717" lon="10.5357383"><ele>564.8000000000001</ele><time>2026-04-19T09:22:41.944Z</time></trkpt><trkpt lat="44.442555" lon="10.5357167"><ele>563.4</ele><time>2026-04-19T09:22:42.903Z</time></trkpt><trkpt lat="44.4426483" lon="10.5357333"><ele>562.0</ele><time>2026-04-19T09:22:43.9Z</time></trkpt><trkpt lat="44.4427333" lon="10.5357583"><ele>562.0</ele><time>2026-04-19T09:22:44.91Z</time></trkpt><trkpt lat="44.4428333" lon="10.5358083"><ele>562.0</ele><time>2026-04-19T09:22:45.922Z</time></trkpt><trkpt lat="44.4429483" lon="10.535915"><ele>562.0</ele><time>2026-04-19T09:22:46.928Z</time></trkpt><trkpt lat="44.4430667" lon="10.536015"><ele>562.0</ele><time>2026-04-19T09:22:47.914Z</time></trkpt><trkpt lat="44.4431733" lon="10.5361017"><ele>560.75</ele><time>2026-04-19T09:22:48.907Z</time></trkpt><trkpt lat="44.4432917" lon="10.536195"><ele>559.5</ele><time>2026-04-19T09:22:49.909Z</time></trkpt><trkpt lat="44.4434017" lon="10.5362883"><ele>558.25</ele><time>2026-04-19T09:22:50.91Z</time></trkpt><trkpt lat="44.4435083" lon="10.5363867"><ele>557.0</ele><time>2026-04-19T09:22:51.936Z</time></trkpt><trkpt lat="44.4436033" lon="10.5364783"><ele>559.8000000000001</ele><time>2026-04-19T09:22:52.916Z</time></trkpt><trkpt lat="44.4436867" lon="10.5365617"><ele>562.6</ele><time>2026-04-19T09:22:53.94Z</time></trkpt><trkpt lat="44.443775" lon="10.536615"><ele>565.4000000000001</ele><time>2026-04-19T09:22:54.924Z</time></trkpt><trkpt lat="44.4438733" lon="10.5366283"><ele>568.2</ele><time>2026-04-19T09:22:55.929Z</time></trkpt><trkpt lat="44.4439733" lon="10.5365967"><ele>571.0</ele><time>2026-04-19T09:22:56.911Z</time></trkpt><trkpt lat="44.44407" lon="10.5365333"><ele>571.0</ele><time>2026-04-19T09:22:57.909Z</time></trkpt><trkpt lat="44.444165" lon="10.5364967"><ele>571.0</ele><time>2026-04-19T09:22:58.965Z</time></trkpt><trkpt lat="44.44426" lon="10.5364767"><ele>571.0</ele><time>2026-04-19T09:22:59.909Z</time></trkpt><trkpt lat="44.4443583" lon="10.5364667"><ele>571.0</ele><time>2026-04-19T09:23:00.907Z</time></trkpt><trkpt lat="44.44445" lon="10.5364417"><ele>571.0</ele><time>2026-04-19T09:23:01.93Z</time></trkpt><trkpt lat="44.4445283" lon="10.5363933"><ele>571.0</ele><time>2026-04-19T09:23:02.934Z</time></trkpt><trkpt lat="44.444585" lon="10.5363117"><ele>571.0</ele><time>2026-04-19T09:23:03.916Z</time></trkpt><trkpt lat="44.4445717" lon="10.5361917"><ele>571.0</ele><time>2026-04-19T09:23:04.909Z</time></trkpt><trkpt lat="44.4445517" lon="10.5360467"><ele>571.0</ele><time>2026-04-19T09:23:05.937Z</time></trkpt><trkpt lat="44.4445417" lon="10.5358733"><ele>571.0</ele><time>2026-04-19T09:23:06.908Z</time></trkpt><trkpt lat="44.4445367" lon="10.5356833"><ele>568.75</ele><time>2026-04-19T09:23:07.92Z</time></trkpt><trkpt lat="44.444535" lon="10.535485"><ele>566.5</ele><time>2026-04-19T09:23:08.927Z</time></trkpt><trkpt lat="44.4445283" lon="10.5352933"><ele>564.25</ele><time>2026-04-19T09:23:09.941Z</time></trkpt><trkpt lat="44.4445017" lon="10.5351133"><ele>562.0</ele><time>2026-04-19T09:23:10.91Z</time></trkpt><trkpt lat="44.4444533" lon="10.534935"><ele>561.75</ele><time>2026-04-19T09:23:11.914Z</time></trkpt><trkpt lat="44.4444083" lon="10.5347567"><ele>561.5</ele><time>2026-04-19T09:23:12.914Z</time></trkpt><trkpt lat="44.4443783" lon="10.534575"><ele>561.25</ele><time>2026-04-19T09:23:13.912Z</time></trkpt><trkpt lat="44.4443767" lon="10.5343933"><ele>561.0</ele><time>2026-04-19T09:23:14.979Z</time></trkpt><trkpt lat="44.4443933" lon="10.534205"><ele>561.0</ele><time>2026-04-19T09:23:15.955Z</time></trkpt><trkpt lat="44.4444367" lon="10.5340117"><ele>561.0</ele><time>2026-04-19T09:23:16.935Z</time></trkpt><trkpt lat="44.4444867" lon="10.533805"><ele>561.0</ele><time>2026-04-19T09:23:17.917Z</time></trkpt><trkpt lat="44.4445283" lon="10.5335917"><ele>561.0</ele><time>2026-04-19T09:23:18.909Z</time></trkpt><trkpt lat="44.4445517" lon="10.5333883"><ele>561.0</ele><time>2026-04-19T09:23:19.932Z</time></trkpt><trkpt lat="44.444575" lon="10.5332117"><ele>561.0</ele><time>2026-04-19T09:23:20.912Z</time></trkpt><trkpt lat="44.4446117" lon="10.5330517"><ele>561.0</ele><time>2026-04-19T09:23:21.922Z</time></trkpt><trkpt lat="44.44467" lon="10.5329083"><ele>569.0</ele><time>2026-04-19T09:23:22.909Z</time></trkpt><trkpt lat="44.4447433" lon="10.5327717"><ele>577.0</ele><time>2026-04-19T09:23:23.912Z</time></trkpt><trkpt lat="44.44481" lon="10.5326283"><ele>585.0</ele><time>2026-04-19T09:23:25.084Z</time></trkpt><trkpt lat="44.44491" lon="10.5323267"><ele>585.0</ele><time>2026-04-19T09:23:26.937Z</time></trkpt><trkpt lat="44.4449617" lon="10.5321817"><ele>585.0</ele><time>2026-04-19T09:23:27.912Z</time></trkpt><trkpt lat="44.445015" lon="10.5320333"><ele>585.0</ele><time>2026-04-19T09:23:28.907Z</time></trkpt><trkpt lat="44.44506" lon="10.5318783"><ele>585.0</ele><time>2026-04-19T09:23:29.92Z</time></trkpt><trkpt lat="44.4450867" lon="10.5317183"><ele>585.6</ele><time>2026-04-19T09:23:30.91Z</time></trkpt><trkpt lat="44.4450833" lon="10.53156"><ele>586.2</ele><time>2026-04-19T09:23:31.91Z</time></trkpt><trkpt lat="44.44505" lon="10.5314283"><ele>586.8</ele><time>2026-04-19T09:23:32.915Z</time></trkpt><trkpt lat="44.4449883" lon="10.5313167"><ele>587.4</ele><time>2026-04-19T09:23:33.936Z</time></trkpt><trkpt lat="44.4449083" lon="10.5312017"><ele>588.0</ele><time>2026-04-19T09:23:34.911Z</time></trkpt><trkpt lat="44.4448183" lon="10.531075"><ele>587.25</ele><time>2026-04-19T09:23:35.916Z</time></trkpt><trkpt lat="44.4447233" lon="10.53094"><ele>586.5</ele><time>2026-04-19T09:23:36.917Z</time></trkpt><trkpt lat="44.444625" lon="10.5307933"><ele>585.75</ele><time>2026-04-19T09:23:37.911Z</time></trkpt><trkpt lat="44.4445283" lon="10.5306533"><ele>585.0</ele><time>2026-04-19T09:23:38.923Z</time></trkpt><trkpt lat="44.444435" lon="10.5305167"><ele>585.0</ele><time>2026-04-19T09:23:39.906Z</time></trkpt><trkpt lat="44.4443517" lon="10.5303933"><ele>585.0</ele><time>2026-04-19T09:23:40.909Z</time></trkpt><trkpt lat="44.444285" lon="10.5302767"><ele>585.0</ele><time>2026-04-19T09:23:41.941Z</time></trkpt><trkpt lat="44.44424" lon="10.5301583"><ele>585.0</ele><time>2026-04-19T09:23:42.908Z</time></trkpt><trkpt lat="44.444215" lon="10.5300267"><ele>585.0</ele><time>2026-04-19T09:23:43.906Z</time></trkpt><trkpt lat="44.4442217" lon="10.5298917"><ele>586.8</ele><time>2026-04-19T09:23:44.909Z</time></trkpt><trkpt lat="44.444265" lon="10.5297533"><ele>588.6</ele><time>2026-04-19T09:23:45.932Z</time></trkpt><trkpt lat="44.4443167" lon="10.5296217"><ele>590.4</ele><time>2026-04-19T09:23:46.931Z</time></trkpt><trkpt lat="44.4443583" lon="10.5294933"><ele>592.2</ele><time>2026-04-19T09:23:47.915Z</time></trkpt><trkpt lat="44.4443967" lon="10.52936"><ele>594.0</ele><time>2026-04-19T09:23:48.911Z</time></trkpt><trkpt lat="44.444425" lon="10.5292317"><ele>595.8</ele><time>2026-04-19T09:23:49.941Z</time></trkpt><trkpt lat="44.4444417" lon="10.529095"><ele>597.5999999999999</ele><time>2026-04-19T09:23:50.907Z</time></trkpt><trkpt lat="44.4444483" lon="10.5289567"><ele>599.4</ele><time>2026-04-19T09:23:51.928Z</time></trkpt><trkpt lat="44.4444483" lon="10.528815"><ele>601.1999999999999</ele><time>2026-04-19T09:23:52.909Z</time></trkpt><trkpt lat="44.4444433" lon="10.528675"><ele>603.0</ele><time>2026-04-19T09:23:53.935Z</time></trkpt><trkpt lat="44.4444283" lon="10.5285433"><ele>605.8</ele><time>2026-04-19T09:23:54.909Z</time></trkpt><trkpt lat="44.444395" lon="10.5284233"><ele>608.5999999999999</ele><time>2026-04-19T09:23:55.935Z</time></trkpt><trkpt lat="44.4443383" lon="10.5283317"><ele>611.4000000000001</ele><time>2026-04-19T09:23:56.916Z</time></trkpt><trkpt lat="44.44427" lon="10.528255"><ele>614.2</ele><time>2026-04-19T09:23:57.91Z</time></trkpt><trkpt lat="44.4441867" lon="10.5281983"><ele>617.0</ele><time>2026-04-19T09:23:58.973Z</time></trkpt><trkpt lat="44.4440917" lon="10.5281633"><ele>617.0</ele><time>2026-04-19T09:23:59.96Z</time></trkpt><trkpt lat="44.4439917" lon="10.5281367"><ele>617.0</ele><time>2026-04-19T09:24:00.917Z</time></trkpt><trkpt lat="44.4438983" lon="10.5280967"><ele>617.0</ele><time>2026-04-19T09:24:01.909Z</time></trkpt><trkpt lat="44.44382" lon="10.5280317"><ele>617.0</ele><time>2026-04-19T09:24:02.909Z</time></trkpt><trkpt lat="44.4437367" lon="10.5279717"><ele>617.0</ele><time>2026-04-19T09:24:03.969Z</time></trkpt><trkpt lat="44.4436517" lon="10.5279033"><ele>618.0</ele><time>2026-04-19T09:24:04.911Z</time></trkpt><trkpt lat="44.4435633" lon="10.52783"><ele>619.0</ele><time>2026-04-19T09:24:05.936Z</time></trkpt><trkpt lat="44.44348" lon="10.527755"><ele>620.0</ele><time>2026-04-19T09:24:06.958Z</time></trkpt><trkpt lat="44.4434017" lon="10.5276633"><ele>621.0</ele><time>2026-04-19T09:24:07.915Z</time></trkpt><trkpt lat="44.4433267" lon="10.527565"><ele>622.0</ele><time>2026-04-19T09:24:08.909Z</time></trkpt><trkpt lat="44.4432567" lon="10.5274667"><ele>622.0</ele><time>2026-04-19T09:24:09.914Z</time></trkpt><trkpt lat="44.44318" lon="10.5273817"><ele>622.0</ele><time>2026-04-19T09:24:10.914Z</time></trkpt><trkpt lat="44.4430917" lon="10.5273033"><ele>622.0</ele><time>2026-04-19T09:24:11.906Z</time></trkpt><trkpt lat="44.4429983" lon="10.5272233"><ele>622.0</ele><time>2026-04-19T09:24:12.945Z</time></trkpt><trkpt lat="44.4429033" lon="10.5271467"><ele>622.0</ele><time>2026-04-19T09:24:13.965Z</time></trkpt><trkpt lat="44.4428133" lon="10.527075"><ele>623.0</ele><time>2026-04-19T09:24:14.95Z</time></trkpt><trkpt lat="44.4427233" lon="10.5270083"><ele>624.0</ele><time>2026-04-19T09:24:15.928Z</time></trkpt><trkpt lat="44.4426417" lon="10.5269417"><ele>625.0</ele><time>2026-04-19T09:24:16.923Z</time></trkpt><trkpt lat="44.4425683" lon="10.5268833"><ele>626.0</ele><time>2026-04-19T09:24:17.929Z</time></trkpt><trkpt lat="44.4425033" lon="10.52683"><ele>627.0</ele><time>2026-04-19T09:24:18.934Z</time></trkpt><trkpt lat="44.4424483" lon="10.5267817"><ele>628.0</ele><time>2026-04-19T09:24:19.91Z</time></trkpt><trkpt lat="44.4423933" lon="10.5267367"><ele>628.0</ele><time>2026-04-19T09:24:20.911Z</time></trkpt><trkpt lat="44.4422933" lon="10.52666"><ele>628.0</ele><time>2026-04-19T09:24:22.905Z</time></trkpt><trkpt lat="44.4422333" lon="10.5265967"><ele>628.0</ele><time>2026-04-19T09:24:24.915Z</time></trkpt><trkpt lat="44.4421967" lon="10.5265"><ele>628.0</ele><time>2026-04-19T09:24:27.915Z</time></trkpt><trkpt lat="44.442145" lon="10.52642"><ele>628.0</ele><time>2026-04-19T09:24:29.908Z</time></trkpt><trkpt lat="44.4420933" lon="10.52636"><ele>628.0</ele><time>2026-04-19T09:24:31.926Z</time></trkpt><trkpt lat="44.4420233" lon="10.5263067"><ele>626.1999999999999</ele><time>2026-04-19T09:24:33.983Z</time></trkpt><trkpt lat="44.4419583" lon="10.5262567"><ele>624.4</ele><time>2026-04-19T09:24:35.937Z</time></trkpt><trkpt lat="44.44189" lon="10.5262133"><ele>622.5999999999999</ele><time>2026-04-19T09:24:37.939Z</time></trkpt><trkpt lat="44.4418" lon="10.52616"><ele>620.8</ele><time>2026-04-19T09:24:39.944Z</time></trkpt><trkpt lat="44.4416917" lon="10.5260967"><ele>619.0</ele><time>2026-04-19T09:24:41.972Z</time></trkpt><trkpt lat="44.441615" lon="10.5260367"><ele>619.0</ele><time>2026-04-19T09:24:43.917Z</time></trkpt><trkpt lat="44.4417167" lon="10.5261083"><ele>619.0</ele><time>2026-04-19T09:24:49.909Z</time></trkpt><trkpt lat="44.4417833" lon="10.52615"><ele>619.0</ele><time>2026-04-19T09:24:50.91Z</time></trkpt><trkpt lat="44.44185" lon="10.5261917"><ele>619.0</ele><time>2026-04-19T09:24:51.911Z</time></trkpt><trkpt lat="44.44192" lon="10.5262333"><ele>619.0</ele><time>2026-04-19T09:24:52.928Z</time></trkpt><trkpt lat="44.4419933" lon="10.526275"><ele>619.0</ele><time>2026-04-19T09:24:53.913Z</time></trkpt><trkpt lat="44.4420683" lon="10.5263217"><ele>620.5</ele><time>2026-04-19T09:24:54.928Z</time></trkpt><trkpt lat="44.4421417" lon="10.52637"><ele>622.0</ele><time>2026-04-19T09:24:55.912Z</time></trkpt><trkpt lat="44.4422133" lon="10.5264233"><ele>623.5</ele><time>2026-04-19T09:24:56.91Z</time></trkpt><trkpt lat="44.442285" lon="10.526475"><ele>625.0</ele><time>2026-04-19T09:24:57.905Z</time></trkpt><trkpt lat="44.4423617" lon="10.5265233"><ele>626.5</ele><time>2026-04-19T09:24:58.972Z</time></trkpt><trkpt lat="44.4424417" lon="10.5265767"><ele>628.0</ele><time>2026-04-19T09:24:59.918Z</time></trkpt><trkpt lat="44.442525" lon="10.52663"><ele>628.0</ele><time>2026-04-19T09:25:00.923Z</time></trkpt><trkpt lat="44.442615" lon="10.5266833"><ele>628.0</ele><time>2026-04-19T09:25:01.913Z</time></trkpt><trkpt lat="44.4427083" lon="10.526735"><ele>628.0</ele><time>2026-04-19T09:25:02.936Z</time></trkpt><trkpt lat="44.4428017" lon="10.52678"><ele>628.0</ele><time>2026-04-19T09:25:03.975Z</time></trkpt><trkpt lat="44.4428867" lon="10.5268183"><ele>628.0</ele><time>2026-04-19T09:25:04.912Z</time></trkpt><trkpt lat="44.442965" lon="10.5268483"><ele>630.1666666666667</ele><time>2026-04-19T09:25:05.909Z</time></trkpt><trkpt lat="44.443045" lon="10.5268733"><ele>632.3333333333334</ele><time>2026-04-19T09:25:06.908Z</time></trkpt><trkpt lat="44.4431217" lon="10.526885"><ele>634.5</ele><time>2026-04-19T09:25:07.919Z</time></trkpt><trkpt lat="44.4431917" lon="10.5268933"><ele>636.6666666666666</ele><time>2026-04-19T09:25:08.908Z</time></trkpt><trkpt lat="44.4432633" lon="10.5269033"><ele>638.8333333333333</ele><time>2026-04-19T09:25:09.911Z</time></trkpt><trkpt lat="44.443335" lon="10.5269167"><ele>641.0</ele><time>2026-04-19T09:25:10.913Z</time></trkpt><trkpt lat="44.4434133" lon="10.526925"><ele>641.0</ele><time>2026-04-19T09:25:11.91Z</time></trkpt><trkpt lat="44.443495" lon="10.5269283"><ele>641.0</ele><time>2026-04-19T09:25:12.91Z</time></trkpt><trkpt lat="44.443585" lon="10.5269317"><ele>641.0</ele><time>2026-04-19T09:25:13.916Z</time></trkpt><trkpt lat="44.4436717" lon="10.526965"><ele>641.0</ele><time>2026-04-19T09:25:14.909Z</time></trkpt><trkpt lat="44.4437467" lon="10.5270167"><ele>641.0</ele><time>2026-04-19T09:25:15.908Z</time></trkpt><trkpt lat="44.443815" lon="10.5270983"><ele>641.0</ele><time>2026-04-19T09:25:16.91Z</time></trkpt><trkpt lat="44.4438733" lon="10.5272083"><ele>639.8</ele><time>2026-04-19T09:25:17.922Z</time></trkpt><trkpt lat="44.4439433" lon="10.5273033"><ele>638.5999999999999</ele><time>2026-04-19T09:25:18.911Z</time></trkpt><trkpt lat="44.444025" lon="10.52737"><ele>637.4</ele><time>2026-04-19T09:25:19.916Z</time></trkpt><trkpt lat="44.4441117" lon="10.5274017"><ele>636.2</ele><time>2026-04-19T09:25:20.923Z</time></trkpt><trkpt lat="44.4442017" lon="10.527405"><ele>635.0</ele><time>2026-04-19T09:25:21.913Z</time></trkpt><trkpt lat="44.4442867" lon="10.527355"><ele>635.0</ele><time>2026-04-19T09:25:22.92Z</time></trkpt><trkpt lat="44.4443733" lon="10.5272633"><ele>635.0</ele><time>2026-04-19T09:25:23.917Z</time></trkpt><trkpt lat="44.4444567" lon="10.5271633"><ele>635.0</ele><time>2026-04-19T09:25:24.92Z</time></trkpt><trkpt lat="44.444545" lon="10.5270917"><ele>635.0</ele><time>2026-04-19T09:25:25.909Z</time></trkpt><trkpt lat="44.4446417" lon="10.527055"><ele>635.0</ele><time>2026-04-19T09:25:26.937Z</time></trkpt><trkpt lat="44.4447517" lon="10.5270533"><ele>638.5</ele><time>2026-04-19T09:25:27.913Z</time></trkpt><trkpt lat="44.4448667" lon="10.5270817"><ele>642.0</ele><time>2026-04-19T09:25:28.911Z</time></trkpt><trkpt lat="44.444985" lon="10.5271417"><ele>645.5</ele><time>2026-04-19T09:25:29.908Z</time></trkpt><trkpt lat="44.4450967" lon="10.527235"><ele>649.0</ele><time>2026-04-19T09:25:30.932Z</time></trkpt><trkpt lat="44.44519" lon="10.5273433"><ele>649.0</ele><time>2026-04-19T09:25:31.91Z</time></trkpt><trkpt lat="44.4452783" lon="10.5274533"><ele>649.0</ele><time>2026-04-19T09:25:32.917Z</time></trkpt><trkpt lat="44.4453733" lon="10.5275517"><ele>649.0</ele><time>2026-04-19T09:25:33.924Z</time></trkpt><trkpt lat="44.4454717" lon="10.5276167"><ele>649.0</ele><time>2026-04-19T09:25:34.915Z</time></trkpt><trkpt lat="44.4455617" lon="10.527665"><ele>649.0</ele><time>2026-04-19T09:25:35.975Z</time></trkpt><trkpt lat="44.4456383" lon="10.5276983"><ele>654.4000000000001</ele><time>2026-04-19T09:25:36.906Z</time></trkpt><trkpt lat="44.445705" lon="10.5277233"><ele>659.8</ele><time>2026-04-19T09:25:37.933Z</time></trkpt><trkpt lat="44.445805" lon="10.5277067"><ele>665.2</ele><time>2026-04-19T09:25:39.937Z</time></trkpt><trkpt lat="44.445835" lon="10.52756"><ele>670.5999999999999</ele><time>2026-04-19T09:25:41.916Z</time></trkpt><trkpt lat="44.4457833" lon="10.52747"><ele>676.0</ele><time>2026-04-19T09:25:42.917Z</time></trkpt><trkpt lat="44.4456617" lon="10.5273867"><ele>676.0</ele><time>2026-04-19T09:25:43.923Z</time></trkpt><trkpt lat="44.4455517" lon="10.5272967"><ele>676.0</ele><time>2026-04-19T09:25:44.911Z</time></trkpt><trkpt lat="44.4454483" lon="10.5271883"><ele>676.0</ele><time>2026-04-19T09:25:45.936Z</time></trkpt><trkpt lat="44.445355" lon="10.52704"><ele>676.0</ele><time>2026-04-19T09:25:46.952Z</time></trkpt><trkpt lat="44.445255" lon="10.5268817"><ele>675.3333333333334</ele><time>2026-04-19T09:25:47.932Z</time></trkpt><trkpt lat="44.4451567" lon="10.52672"><ele>674.6666666666666</ele><time>2026-04-19T09:25:48.917Z</time></trkpt><trkpt lat="44.4450533" lon="10.5265633"><ele>674.0</ele><time>2026-04-19T09:25:49.916Z</time></trkpt><trkpt lat="44.44495" lon="10.526415"><ele>674.0</ele><time>2026-04-19T09:25:50.909Z</time></trkpt><trkpt lat="44.4448433" lon="10.526295"><ele>674.0</ele><time>2026-04-19T09:25:51.912Z</time></trkpt><trkpt lat="44.4447333" lon="10.526195"><ele>674.0</ele><time>2026-04-19T09:25:52.899Z</time></trkpt><trkpt lat="44.444635" lon="10.5260883"><ele>674.0</ele><time>2026-04-19T09:25:53.961Z</time></trkpt><trkpt lat="44.444565" lon="10.5259483"><ele>673.5</ele><time>2026-04-19T09:25:54.939Z</time></trkpt><trkpt lat="44.4445233" lon="10.5257983"><ele>673.0</ele><time>2026-04-19T09:25:55.912Z</time></trkpt><trkpt lat="44.444515" lon="10.52563"><ele>672.5</ele><time>2026-04-19T09:25:56.944Z</time></trkpt><trkpt lat="44.4445183" lon="10.525445"><ele>672.0</ele><time>2026-04-19T09:25:57.913Z</time></trkpt><trkpt lat="44.4445167" lon="10.5252583"><ele>674.25</ele><time>2026-04-19T09:25:58.912Z</time></trkpt><trkpt lat="44.4445183" lon="10.5250717"><ele>676.5</ele><time>2026-04-19T09:25:59.914Z</time></trkpt><trkpt lat="44.44453" lon="10.524905"><ele>678.75</ele><time>2026-04-19T09:26:00.907Z</time></trkpt><trkpt lat="44.4445617" lon="10.5247417"><ele>681.0</ele><time>2026-04-19T09:26:01.91Z</time></trkpt><trkpt lat="44.4445917" lon="10.52459"><ele>681.8</ele><time>2026-04-19T09:26:02.945Z</time></trkpt><trkpt lat="44.4445983" lon="10.5244533"><ele>682.5999999999999</ele><time>2026-04-19T09:26:03.913Z</time></trkpt><trkpt lat="44.4445933" lon="10.5243367"><ele>683.4</ele><time>2026-04-19T09:26:04.945Z</time></trkpt><trkpt lat="44.4445883" lon="10.5242483"><ele>684.2</ele><time>2026-04-19T09:26:05.92Z</time></trkpt><trkpt lat="44.4445867" lon="10.5241083"><ele>685.0</ele><time>2026-04-19T09:26:07.928Z</time></trkpt><trkpt lat="44.4445733" lon="10.5239467"><ele>685.0</ele><time>2026-04-19T09:26:09.917Z</time></trkpt><trkpt lat="44.4445483" lon="10.5238417"><ele>685.0</ele><time>2026-04-19T09:26:10.94Z</time></trkpt><trkpt lat="44.444505" lon="10.5237067"><ele>685.0</ele><time>2026-04-19T09:26:11.937Z</time></trkpt><trkpt lat="44.4444483" lon="10.5235417"><ele>685.0</ele><time>2026-04-19T09:26:12.91Z</time></trkpt><trkpt lat="44.4443833" lon="10.5233733"><ele>687.25</ele><time>2026-04-19T09:26:13.936Z</time></trkpt><trkpt lat="44.4443167" lon="10.5232017"><ele>689.5</ele><time>2026-04-19T09:26:14.906Z</time></trkpt><trkpt lat="44.4442433" lon="10.5230333"><ele>691.75</ele><time>2026-04-19T09:26:15.91Z</time></trkpt><trkpt lat="44.4441633" lon="10.5228717"><ele>694.0</ele><time>2026-04-19T09:26:16.92Z</time></trkpt><trkpt lat="44.4440833" lon="10.52271"><ele>696.25</ele><time>2026-04-19T09:26:17.93Z</time></trkpt><trkpt lat="44.44401" lon="10.5225483"><ele>698.5</ele><time>2026-04-19T09:26:18.918Z</time></trkpt><trkpt lat="44.4439417" lon="10.5223833"><ele>700.75</ele><time>2026-04-19T09:26:19.953Z</time></trkpt><trkpt lat="44.443885" lon="10.52221"><ele>703.0</ele><time>2026-04-19T09:26:20.907Z</time></trkpt><trkpt lat="44.4438383" lon="10.5220267"><ele>699.25</ele><time>2026-04-19T09:26:21.909Z</time></trkpt><trkpt lat="44.4437917" lon="10.52184"><ele>695.5</ele><time>2026-04-19T09:26:22.913Z</time></trkpt><trkpt lat="44.4437517" lon="10.5216583"><ele>691.75</ele><time>2026-04-19T09:26:23.909Z</time></trkpt><trkpt lat="44.443715" lon="10.5214967"><ele>688.0</ele><time>2026-04-19T09:26:24.909Z</time></trkpt><trkpt lat="44.4436883" lon="10.5213383"><ele>690.5</ele><time>2026-04-19T09:26:25.91Z</time></trkpt><trkpt lat="44.4436917" lon="10.5211733"><ele>693.0</ele><time>2026-04-19T09:26:26.909Z</time></trkpt><trkpt lat="44.443715" lon="10.5210067"><ele>695.5</ele><time>2026-04-19T09:26:27.91Z</time></trkpt><trkpt lat="44.44375" lon="10.52083"><ele>698.0</ele><time>2026-04-19T09:26:28.909Z</time></trkpt><trkpt lat="44.4437683" lon="10.52064"><ele>698.0</ele><time>2026-04-19T09:26:29.908Z</time></trkpt><trkpt lat="44.4437567" lon="10.520445"><ele>698.0</ele><time>2026-04-19T09:26:30.908Z</time></trkpt><trkpt lat="44.443735" lon="10.5202467"><ele>698.0</ele><time>2026-04-19T09:26:31.917Z</time></trkpt><trkpt lat="44.4437217" lon="10.520045"><ele>698.0</ele><time>2026-04-19T09:26:32.908Z</time></trkpt><trkpt lat="44.4437233" lon="10.5198417"><ele>697.25</ele><time>2026-04-19T09:26:33.91Z</time></trkpt><trkpt lat="44.4437467" lon="10.519645"><ele>696.5</ele><time>2026-04-19T09:26:34.911Z</time></trkpt><trkpt lat="44.4437933" lon="10.5194567"><ele>695.75</ele><time>2026-04-19T09:26:35.906Z</time></trkpt><trkpt lat="44.4438667" lon="10.51927"><ele>695.0</ele><time>2026-04-19T09:26:36.914Z</time></trkpt><trkpt lat="44.44395" lon="10.5190917"><ele>701.5</ele><time>2026-04-19T09:26:37.911Z</time></trkpt><trkpt lat="44.444035" lon="10.518925"><ele>708.0</ele><time>2026-04-19T09:26:38.907Z</time></trkpt><trkpt lat="44.4441217" lon="10.5187683"><ele>714.5</ele><time>2026-04-19T09:26:39.915Z</time></trkpt><trkpt lat="44.4441933" lon="10.518615"><ele>721.0</ele><time>2026-04-19T09:26:40.926Z</time></trkpt><trkpt lat="44.4442383" lon="10.5184517"><ele>721.0</ele><time>2026-04-19T09:26:41.91Z</time></trkpt><trkpt lat="44.4442517" lon="10.5182667"><ele>721.0</ele><time>2026-04-19T09:26:42.908Z</time></trkpt><trkpt lat="44.4442483" lon="10.5180667"><ele>721.0</ele><time>2026-04-19T09:26:43.925Z</time></trkpt><trkpt lat="44.4442367" lon="10.517865"><ele>721.0</ele><time>2026-04-19T09:26:44.912Z</time></trkpt><trkpt lat="44.4442183" lon="10.517655"><ele>722.3333333333334</ele><time>2026-04-19T09:26:45.907Z</time></trkpt><trkpt lat="44.4442017" lon="10.5174383"><ele>723.6666666666666</ele><time>2026-04-19T09:26:46.929Z</time></trkpt><trkpt lat="44.44418" lon="10.517215"><ele>725.0</ele><time>2026-04-19T09:26:47.928Z</time></trkpt><trkpt lat="44.4441483" lon="10.5169967"><ele>726.0</ele><time>2026-04-19T09:26:48.912Z</time></trkpt><trkpt lat="44.444105" lon="10.516785"><ele>727.0</ele><time>2026-04-19T09:26:49.915Z</time></trkpt><trkpt lat="44.4440583" lon="10.516585"><ele>728.0</ele><time>2026-04-19T09:26:50.928Z</time></trkpt><trkpt lat="44.4440167" lon="10.5164"><ele>729.0</ele><time>2026-04-19T09:26:51.909Z</time></trkpt><trkpt lat="44.4439617" lon="10.5162317"><ele>725.0</ele><time>2026-04-19T09:26:52.911Z</time></trkpt><trkpt lat="44.4439" lon="10.51608"><ele>721.0</ele><time>2026-04-19T09:26:53.908Z</time></trkpt><trkpt lat="44.4438417" lon="10.515935"><ele>717.0</ele><time>2026-04-19T09:26:54.913Z</time></trkpt><trkpt lat="44.4437683" lon="10.5158"><ele>713.0</ele><time>2026-04-19T09:26:55.911Z</time></trkpt><trkpt lat="44.4436767" lon="10.51569"><ele>713.0</ele><time>2026-04-19T09:26:56.907Z</time></trkpt><trkpt lat="44.4435767" lon="10.5156017"><ele>713.0</ele><time>2026-04-19T09:26:57.917Z</time></trkpt><trkpt lat="44.4434717" lon="10.515525"><ele>713.0</ele><time>2026-04-19T09:26:58.912Z</time></trkpt><trkpt lat="44.4433733" lon="10.5154533"><ele>713.0</ele><time>2026-04-19T09:26:59.911Z</time></trkpt><trkpt lat="44.4432683" lon="10.5153783"><ele>713.25</ele><time>2026-04-19T09:27:00.913Z</time></trkpt><trkpt lat="44.44317" lon="10.5152933"><ele>713.5</ele><time>2026-04-19T09:27:01.91Z</time></trkpt><trkpt lat="44.4430767" lon="10.5151983"><ele>713.75</ele><time>2026-04-19T09:27:02.911Z</time></trkpt><trkpt lat="44.4429867" lon="10.5151017"><ele>714.0</ele><time>2026-04-19T09:27:03.908Z</time></trkpt><trkpt lat="44.4429" lon="10.5149883"><ele>714.0</ele><time>2026-04-19T09:27:04.912Z</time></trkpt><trkpt lat="44.4428217" lon="10.514865"><ele>714.0</ele><time>2026-04-19T09:27:05.907Z</time></trkpt><trkpt lat="44.4427417" lon="10.5147383"><ele>714.0</ele><time>2026-04-19T09:27:06.926Z</time></trkpt><trkpt lat="44.442665" lon="10.5146117"><ele>714.0</ele><time>2026-04-19T09:27:07.911Z</time></trkpt><trkpt lat="44.44259" lon="10.514485"><ele>718.75</ele><time>2026-04-19T09:27:08.911Z</time></trkpt><trkpt lat="44.4425233" lon="10.5143483"><ele>723.5</ele><time>2026-04-19T09:27:09.964Z</time></trkpt><trkpt lat="44.44246" lon="10.514205"><ele>728.25</ele><time>2026-04-19T09:27:10.923Z</time></trkpt><trkpt lat="44.4423917" lon="10.5140483"><ele>733.0</ele><time>2026-04-19T09:27:11.909Z</time></trkpt><trkpt lat="44.442315" lon="10.5138883"><ele>730.5</ele><time>2026-04-19T09:27:12.91Z</time></trkpt><trkpt lat="44.4422267" lon="10.5137367"><ele>728.0</ele><time>2026-04-19T09:27:13.92Z</time></trkpt><trkpt lat="44.4421383" lon="10.513585"><ele>725.5</ele><time>2026-04-19T09:27:14.907Z</time></trkpt><trkpt lat="44.44205" lon="10.513425"><ele>723.0</ele><time>2026-04-19T09:27:15.917Z</time></trkpt><trkpt lat="44.4419617" lon="10.5132683"><ele>723.0</ele><time>2026-04-19T09:27:16.912Z</time></trkpt><trkpt lat="44.44187" lon="10.51311"><ele>723.0</ele><time>2026-04-19T09:27:17.907Z</time></trkpt><trkpt lat="44.4417767" lon="10.5129517"><ele>723.0</ele><time>2026-04-19T09:27:18.919Z</time></trkpt><trkpt lat="44.4416883" lon="10.5127967"><ele>723.0</ele><time>2026-04-19T09:27:19.916Z</time></trkpt><trkpt lat="44.4416" lon="10.51264"><ele>722.0</ele><time>2026-04-19T09:27:20.909Z</time></trkpt><trkpt lat="44.4415167" lon="10.5124967"><ele>721.0</ele><time>2026-04-19T09:27:21.909Z</time></trkpt><trkpt lat="44.44144" lon="10.512365"><ele>720.0</ele><time>2026-04-19T09:27:22.912Z</time></trkpt><trkpt lat="44.4413667" lon="10.51225"><ele>719.0</ele><time>2026-04-19T09:27:23.918Z</time></trkpt><trkpt lat="44.4412967" lon="10.5121467"><ele>724.0</ele><time>2026-04-19T09:27:24.909Z</time></trkpt><trkpt lat="44.44122" lon="10.5120617"><ele>729.0</ele><time>2026-04-19T09:27:25.913Z</time></trkpt><trkpt lat="44.4411467" lon="10.5119767"><ele>734.0</ele><time>2026-04-19T09:27:26.953Z</time></trkpt><trkpt lat="44.4410717" lon="10.5119017"><ele>739.0</ele><time>2026-04-19T09:27:27.916Z</time></trkpt><trkpt lat="44.4409933" lon="10.51181"><ele>744.0</ele><time>2026-04-19T09:27:28.912Z</time></trkpt><trkpt lat="44.4409133" lon="10.5117133"><ele>744.0</ele><time>2026-04-19T09:27:29.911Z</time></trkpt><trkpt lat="44.4408333" lon="10.511605"><ele>744.0</ele><time>2026-04-19T09:27:30.91Z</time></trkpt><trkpt lat="44.4407567" lon="10.511485"><ele>744.0</ele><time>2026-04-19T09:27:31.932Z</time></trkpt><trkpt lat="44.4406867" lon="10.5113667"><ele>744.0</ele><time>2026-04-19T09:27:32.912Z</time></trkpt><trkpt lat="44.4406267" lon="10.5112517"><ele>744.0</ele><time>2026-04-19T09:27:33.909Z</time></trkpt><trkpt lat="44.44057" lon="10.5111483"><ele>741.6</ele><time>2026-04-19T09:27:34.915Z</time></trkpt><trkpt lat="44.4405183" lon="10.51105"><ele>739.2</ele><time>2026-04-19T09:27:35.912Z</time></trkpt><trkpt lat="44.4404767" lon="10.5109433"><ele>736.8000000000001</ele><time>2026-04-19T09:27:36.907Z</time></trkpt><trkpt lat="44.4404533" lon="10.51082"><ele>734.4000000000001</ele><time>2026-04-19T09:27:37.911Z</time></trkpt><trkpt lat="44.4404733" lon="10.510685"><ele>732.0</ele><time>2026-04-19T09:27:38.91Z</time></trkpt><trkpt lat="44.4405017" lon="10.5105633"><ele>740.2</ele><time>2026-04-19T09:27:39.912Z</time></trkpt><trkpt lat="44.4405533" lon="10.5104433"><ele>748.4000000000001</ele><time>2026-04-19T09:27:40.914Z</time></trkpt><trkpt lat="44.4405967" lon="10.5103267"><ele>756.5999999999999</ele><time>2026-04-19T09:27:41.911Z</time></trkpt><trkpt lat="44.44063" lon="10.5102017"><ele>764.8</ele><time>2026-04-19T09:27:42.914Z</time></trkpt><trkpt lat="44.44064" lon="10.51007"><ele>773.0</ele><time>2026-04-19T09:27:43.909Z</time></trkpt><trkpt lat="44.4406067" lon="10.5099217"><ele>771.5</ele><time>2026-04-19T09:27:44.906Z</time></trkpt><trkpt lat="44.4405433" lon="10.5097783"><ele>770.0</ele><time>2026-04-19T09:27:45.91Z</time></trkpt><trkpt lat="44.4404733" lon="10.5096333"><ele>768.5</ele><time>2026-04-19T09:27:46.914Z</time></trkpt><trkpt lat="44.4403967" lon="10.509485"><ele>767.0</ele><time>2026-04-19T09:27:47.943Z</time></trkpt><trkpt lat="44.4403117" lon="10.509345"><ele>767.0</ele><time>2026-04-19T09:27:48.911Z</time></trkpt><trkpt lat="44.4402267" lon="10.509205"><ele>767.0</ele><time>2026-04-19T09:27:49.909Z</time></trkpt><trkpt lat="44.4401367" lon="10.5090767"><ele>767.0</ele><time>2026-04-19T09:27:50.919Z</time></trkpt><trkpt lat="44.440045" lon="10.50896"><ele>767.0</ele><time>2026-04-19T09:27:51.913Z</time></trkpt><trkpt lat="44.4399483" lon="10.5088633"><ele>767.0</ele><time>2026-04-19T09:27:52.912Z</time></trkpt><trkpt lat="44.4398617" lon="10.50876"><ele>767.0</ele><time>2026-04-19T09:27:53.958Z</time></trkpt><trkpt lat="44.4397817" lon="10.5086483"><ele>767.0</ele><time>2026-04-19T09:27:54.93Z</time></trkpt><trkpt lat="44.439705" lon="10.508525"><ele>767.0</ele><time>2026-04-19T09:27:55.924Z</time></trkpt><trkpt lat="44.4396283" lon="10.5084"><ele>765.6</ele><time>2026-04-19T09:27:56.911Z</time></trkpt><trkpt lat="44.4395517" lon="10.508275"><ele>764.2</ele><time>2026-04-19T09:27:57.916Z</time></trkpt><trkpt lat="44.4394817" lon="10.5081533"><ele>762.8</ele><time>2026-04-19T09:27:58.916Z</time></trkpt><trkpt lat="44.4394167" lon="10.5080383"><ele>761.4</ele><time>2026-04-19T09:27:59.907Z</time></trkpt><trkpt lat="44.439355" lon="10.5079217"><ele>760.0</ele><time>2026-04-19T09:28:00.916Z</time></trkpt><trkpt lat="44.4392933" lon="10.5078033"><ele>764.8</ele><time>2026-04-19T09:28:01.91Z</time></trkpt><trkpt lat="44.4392267" lon="10.5076883"><ele>769.6</ele><time>2026-04-19T09:28:02.927Z</time></trkpt><trkpt lat="44.43915" lon="10.5075767"><ele>774.4000000000001</ele><time>2026-04-19T09:28:03.91Z</time></trkpt><trkpt lat="44.439065" lon="10.5074767"><ele>779.2</ele><time>2026-04-19T09:28:04.912Z</time></trkpt><trkpt lat="44.4389733" lon="10.5073933"><ele>784.0</ele><time>2026-04-19T09:28:05.916Z</time></trkpt><trkpt lat="44.4388783" lon="10.5073267"><ele>785.6</ele><time>2026-04-19T09:28:06.928Z</time></trkpt><trkpt lat="44.43879" lon="10.5072517"><ele>787.2</ele><time>2026-04-19T09:28:07.921Z</time></trkpt><trkpt lat="44.4387033" lon="10.5071683"><ele>788.8000000000001</ele><time>2026-04-19T09:28:08.918Z</time></trkpt><trkpt lat="44.43862" lon="10.5070767"><ele>790.4000000000001</ele><time>2026-04-19T09:28:09.91Z</time></trkpt><trkpt lat="44.4385383" lon="10.50698"><ele>792.0</ele><time>2026-04-19T09:28:10.961Z</time></trkpt><trkpt lat="44.4384583" lon="10.5068733"><ele>792.0</ele><time>2026-04-19T09:28:11.912Z</time></trkpt><trkpt lat="44.438385" lon="10.5067633"><ele>792.0</ele><time>2026-04-19T09:28:12.91Z</time></trkpt><trkpt lat="44.4383217" lon="10.50664"><ele>792.0</ele><time>2026-04-19T09:28:13.911Z</time></trkpt><trkpt lat="44.4382667" lon="10.50651"><ele>792.0</ele><time>2026-04-19T09:28:14.949Z</time></trkpt><trkpt lat="44.4382167" lon="10.5063833"><ele>792.0</ele><time>2026-04-19T09:28:15.907Z</time></trkpt><trkpt lat="44.438175" lon="10.5062633"><ele>793.0</ele><time>2026-04-19T09:28:16.912Z</time></trkpt><trkpt lat="44.4381433" lon="10.50615"><ele>794.0</ele><time>2026-04-19T09:28:17.919Z</time></trkpt><trkpt lat="44.43812" lon="10.506035"><ele>795.0</ele><time>2026-04-19T09:28:18.921Z</time></trkpt><trkpt lat="44.4381067" lon="10.5059117"><ele>796.0</ele><time>2026-04-19T09:28:19.917Z</time></trkpt><trkpt lat="44.4381" lon="10.5057883"><ele>797.0</ele><time>2026-04-19T09:28:20.907Z</time></trkpt><trkpt lat="44.4380933" lon="10.5056633"><ele>798.0</ele><time>2026-04-19T09:28:21.911Z</time></trkpt><trkpt lat="44.4380917" lon="10.5055217"><ele>798.5999999999999</ele><time>2026-04-19T09:28:22.918Z</time></trkpt><trkpt lat="44.43809" lon="10.505375"><ele>799.1999999999999</ele><time>2026-04-19T09:28:23.933Z</time></trkpt><trkpt lat="44.43809" lon="10.5052233"><ele>799.8</ele><time>2026-04-19T09:28:24.921Z</time></trkpt><trkpt lat="44.43809" lon="10.5050717"><ele>800.4</ele><time>2026-04-19T09:28:25.912Z</time></trkpt><trkpt lat="44.4380867" lon="10.50492"><ele>801.0</ele><time>2026-04-19T09:28:26.915Z</time></trkpt><trkpt lat="44.4380833" lon="10.504765"><ele>801.0</ele><time>2026-04-19T09:28:27.937Z</time></trkpt><trkpt lat="44.4380817" lon="10.5046033"><ele>801.0</ele><time>2026-04-19T09:28:28.912Z</time></trkpt><trkpt lat="44.4380817" lon="10.50443"><ele>801.0</ele><time>2026-04-19T09:28:29.968Z</time></trkpt><trkpt lat="44.4380783" lon="10.50424"><ele>801.0</ele><time>2026-04-19T09:28:30.941Z</time></trkpt><trkpt lat="44.4380633" lon="10.504025"><ele>800.6666666666667</ele><time>2026-04-19T09:28:31.909Z</time></trkpt><trkpt lat="44.4380367" lon="10.5037933"><ele>800.3333333333334</ele><time>2026-04-19T09:28:32.909Z</time></trkpt><trkpt lat="44.438005" lon="10.5035567"><ele>800.0</ele><time>2026-04-19T09:28:33.937Z</time></trkpt><trkpt lat="44.437955" lon="10.5033283"><ele>792.0</ele><time>2026-04-19T09:28:34.923Z</time></trkpt><trkpt lat="44.4378883" lon="10.50312"><ele>784.0</ele><time>2026-04-19T09:28:35.944Z</time></trkpt><trkpt lat="44.4378183" lon="10.5029267"><ele>776.0</ele><time>2026-04-19T09:28:36.916Z</time></trkpt><trkpt lat="44.4377467" lon="10.5027483"><ele>775.0</ele><time>2026-04-19T09:28:37.947Z</time></trkpt><trkpt lat="44.4376783" lon="10.5025783"><ele>774.0</ele><time>2026-04-19T09:28:38.91Z</time></trkpt><trkpt lat="44.4376217" lon="10.5024133"><ele>773.0</ele><time>2026-04-19T09:28:39.907Z</time></trkpt><trkpt lat="44.4375783" lon="10.5022533"><ele>772.0</ele><time>2026-04-19T09:28:40.917Z</time></trkpt><trkpt lat="44.437555" lon="10.5020983"><ele>771.8</ele><time>2026-04-19T09:28:41.909Z</time></trkpt><trkpt lat="44.43754" lon="10.5019483"><ele>771.6</ele><time>2026-04-19T09:28:42.917Z</time></trkpt><trkpt lat="44.4375367" lon="10.5018067"><ele>771.4</ele><time>2026-04-19T09:28:43.927Z</time></trkpt><trkpt lat="44.437535" lon="10.5016683"><ele>771.1999999999999</ele><time>2026-04-19T09:28:44.91Z</time></trkpt><trkpt lat="44.43753" lon="10.5015283"><ele>771.0</ele><time>2026-04-19T09:28:45.922Z</time></trkpt><trkpt lat="44.437515" lon="10.5013783"><ele>770.5</ele><time>2026-04-19T09:28:46.936Z</time></trkpt><trkpt lat="44.4374767" lon="10.5012267"><ele>770.0</ele><time>2026-04-19T09:28:47.921Z</time></trkpt><trkpt lat="44.437425" lon="10.5010767"><ele>769.5</ele><time>2026-04-19T09:28:48.908Z</time></trkpt><trkpt lat="44.4373633" lon="10.500935"><ele>769.0</ele><time>2026-04-19T09:28:49.935Z</time></trkpt><trkpt lat="44.4373033" lon="10.5008033"><ele>768.9999999999999</ele><time>2026-04-19T09:28:50.909Z</time></trkpt><trkpt lat="44.4372483" lon="10.50068"><ele>769.0</ele><time>2026-04-19T09:28:51.918Z</time></trkpt><trkpt lat="44.4372017" lon="10.5005717"><ele>769.0</ele><time>2026-04-19T09:28:52.91Z</time></trkpt><trkpt lat="44.437165" lon="10.5004733"><ele>769.0</ele><time>2026-04-19T09:28:53.91Z</time></trkpt><trkpt lat="44.4371417" lon="10.5003817"><ele>768.9999999999999</ele><time>2026-04-19T09:28:54.949Z</time></trkpt><trkpt lat="44.4371267" lon="10.5002917"><ele>769.0</ele><time>2026-04-19T09:28:55.908Z</time></trkpt><trkpt lat="44.4371217" lon="10.5001967"><ele>768.4999999999999</ele><time>2026-04-19T09:28:56.911Z</time></trkpt><trkpt lat="44.437135" lon="10.5000933"><ele>768.0</ele><time>2026-04-19T09:28:57.911Z</time></trkpt><trkpt lat="44.43717" lon="10.4999767"><ele>767.5</ele><time>2026-04-19T09:28:58.911Z</time></trkpt><trkpt lat="44.4372083" lon="10.4998617"><ele>767.0</ele><time>2026-04-19T09:28:59.919Z</time></trkpt><trkpt lat="44.4372417" lon="10.499745"><ele>766.5</ele><time>2026-04-19T09:29:00.907Z</time></trkpt><trkpt lat="44.43727" lon="10.4996333"><ele>766.0</ele><time>2026-04-19T09:29:01.906Z</time></trkpt><trkpt lat="44.4372933" lon="10.499525"><ele>764.8571428571429</ele><time>2026-04-19T09:29:02.91Z</time></trkpt><trkpt lat="44.4373133" lon="10.49943"><ele>763.7142857142857</ele><time>2026-04-19T09:29:03.91Z</time></trkpt><trkpt lat="44.4373333" lon="10.49933"><ele>762.5714285714287</ele><time>2026-04-19T09:29:04.93Z</time></trkpt><trkpt lat="44.4373417" lon="10.4992367"><ele>761.4285714285714</ele><time>2026-04-19T09:29:05.9Z</time></trkpt><trkpt lat="44.4373467" lon="10.4991367"><ele>760.2857142857143</ele><time>2026-04-19T09:29:06.906Z</time></trkpt><trkpt lat="44.4373467" lon="10.4990367"><ele>759.1428571428572</ele><time>2026-04-19T09:29:07.909Z</time></trkpt><trkpt lat="44.4373467" lon="10.4989317"><ele>758.0</ele><time>2026-04-19T09:29:08.909Z</time></trkpt><trkpt lat="44.4373417" lon="10.4988217"><ele>758.2</ele><time>2026-04-19T09:29:09.91Z</time></trkpt><trkpt lat="44.43733" lon="10.498705"><ele>758.4</ele><time>2026-04-19T09:29:10.927Z</time></trkpt><trkpt lat="44.4373" lon="10.498595"><ele>758.6</ele><time>2026-04-19T09:29:11.912Z</time></trkpt><trkpt lat="44.437255" lon="10.4984717"><ele>758.8000000000001</ele><time>2026-04-19T09:29:12.91Z</time></trkpt><trkpt lat="44.437185" lon="10.4983333"><ele>759.0</ele><time>2026-04-19T09:29:13.905Z</time></trkpt><trkpt lat="44.4370983" lon="10.49818"><ele>755.5</ele><time>2026-04-19T09:29:14.917Z</time></trkpt><trkpt lat="44.43701" lon="10.4980267"><ele>752.0</ele><time>2026-04-19T09:29:15.906Z</time></trkpt><trkpt lat="44.4369233" lon="10.497875"><ele>748.5</ele><time>2026-04-19T09:29:16.91Z</time></trkpt><trkpt lat="44.4368467" lon="10.4977317"><ele>745.0</ele><time>2026-04-19T09:29:17.908Z</time></trkpt><trkpt lat="44.4367883" lon="10.4976017"><ele>745.0</ele><time>2026-04-19T09:29:18.906Z</time></trkpt><trkpt lat="44.4367517" lon="10.4974717"><ele>745.0</ele><time>2026-04-19T09:29:19.913Z</time></trkpt><trkpt lat="44.436735" lon="10.4973367"><ele>745.0</ele><time>2026-04-19T09:29:20.911Z</time></trkpt><trkpt lat="44.4367533" lon="10.497185"><ele>745.0</ele><time>2026-04-19T09:29:21.908Z</time></trkpt><trkpt lat="44.4367817" lon="10.4970183"><ele>745.0</ele><time>2026-04-19T09:29:22.917Z</time></trkpt><trkpt lat="44.4368083" lon="10.49684"><ele>743.75</ele><time>2026-04-19T09:29:23.907Z</time></trkpt><trkpt lat="44.436835" lon="10.4966583"><ele>742.5</ele><time>2026-04-19T09:29:24.911Z</time></trkpt><trkpt lat="44.4368617" lon="10.4964867"><ele>741.25</ele><time>2026-04-19T09:29:25.936Z</time></trkpt><trkpt lat="44.4368767" lon="10.4963183"><ele>740.0</ele><time>2026-04-19T09:29:26.91Z</time></trkpt><trkpt lat="44.4368783" lon="10.49615"><ele>738.5</ele><time>2026-04-19T09:29:27.907Z</time></trkpt><trkpt lat="44.436865" lon="10.49598"><ele>737.0</ele><time>2026-04-19T09:29:28.92Z</time></trkpt><trkpt lat="44.436835" lon="10.4958183"><ele>735.5</ele><time>2026-04-19T09:29:29.91Z</time></trkpt><trkpt lat="44.4367967" lon="10.49565"><ele>734.0</ele><time>2026-04-19T09:29:30.925Z</time></trkpt><trkpt lat="44.4367533" lon="10.495455"><ele>734.0</ele><time>2026-04-19T09:29:31.908Z</time></trkpt><trkpt lat="44.4367117" lon="10.4952417"><ele>734.0</ele><time>2026-04-19T09:29:32.909Z</time></trkpt><trkpt lat="44.4366767" lon="10.495015"><ele>734.0</ele><time>2026-04-19T09:29:33.908Z</time></trkpt><trkpt lat="44.4366383" lon="10.4947867"><ele>734.3333333333333</ele><time>2026-04-19T09:29:34.91Z</time></trkpt><trkpt lat="44.4365933" lon="10.4945617"><ele>734.6666666666666</ele><time>2026-04-19T09:29:35.908Z</time></trkpt><trkpt lat="44.4365283" lon="10.49434"><ele>735.0</ele><time>2026-04-19T09:29:36.909Z</time></trkpt><trkpt lat="44.4364433" lon="10.4941233"><ele>735.0</ele><time>2026-04-19T09:29:37.909Z</time></trkpt><trkpt lat="44.4363383" lon="10.49391"><ele>735.0</ele><time>2026-04-19T09:29:38.914Z</time></trkpt><trkpt lat="44.436215" lon="10.4937017"><ele>735.0</ele><time>2026-04-19T09:29:39.907Z</time></trkpt><trkpt lat="44.4360617" lon="10.4935017"><ele>728.0</ele><time>2026-04-19T09:29:40.912Z</time></trkpt><trkpt lat="44.43589" lon="10.4933067"><ele>721.0</ele><time>2026-04-19T09:29:41.912Z</time></trkpt><trkpt lat="44.435705" lon="10.4931167"><ele>721.0</ele><time>2026-04-19T09:29:42.909Z</time></trkpt><trkpt lat="44.435515" lon="10.492935"><ele>721.0</ele><time>2026-04-19T09:29:43.909Z</time></trkpt><trkpt lat="44.4353283" lon="10.49278"><ele>721.0</ele><time>2026-04-19T09:29:44.909Z</time></trkpt><trkpt lat="44.43514" lon="10.4926533"><ele>720.0</ele><time>2026-04-19T09:29:45.908Z</time></trkpt><trkpt lat="44.4349533" lon="10.4925383"><ele>719.0</ele><time>2026-04-19T09:29:46.911Z</time></trkpt><trkpt lat="44.4347733" lon="10.492425"><ele>718.0</ele><time>2026-04-19T09:29:47.922Z</time></trkpt><trkpt lat="44.4346017" lon="10.4923033"><ele>716.0</ele><time>2026-04-19T09:29:48.906Z</time></trkpt><trkpt lat="44.43444" lon="10.49217"><ele>714.0</ele><time>2026-04-19T09:29:49.921Z</time></trkpt><trkpt lat="44.4342983" lon="10.4920317"><ele>712.0</ele><time>2026-04-19T09:29:50.907Z</time></trkpt><trkpt lat="44.4341783" lon="10.4919033"><ele>712.0</ele><time>2026-04-19T09:29:51.911Z</time></trkpt><trkpt lat="44.4340717" lon="10.4917983"><ele>712.0</ele><time>2026-04-19T09:29:52.914Z</time></trkpt><trkpt lat="44.4339733" lon="10.4917183"><ele>712.0</ele><time>2026-04-19T09:29:53.912Z</time></trkpt><trkpt lat="44.4338683" lon="10.491655"><ele>712.0</ele><time>2026-04-19T09:29:54.961Z</time></trkpt><trkpt lat="44.43375" lon="10.4916083"><ele>710.25</ele><time>2026-04-19T09:29:55.954Z</time></trkpt><trkpt lat="44.4336217" lon="10.4915817"><ele>708.5</ele><time>2026-04-19T09:29:56.912Z</time></trkpt><trkpt lat="44.4334783" lon="10.4915767"><ele>706.75</ele><time>2026-04-19T09:29:57.923Z</time></trkpt><trkpt lat="44.4333233" lon="10.49159"><ele>705.0</ele><time>2026-04-19T09:29:58.927Z</time></trkpt><trkpt lat="44.433165" lon="10.4916133"><ele>705.0</ele><time>2026-04-19T09:29:59.909Z</time></trkpt><trkpt lat="44.4330133" lon="10.49165"><ele>705.0</ele><time>2026-04-19T09:30:00.907Z</time></trkpt><trkpt lat="44.43287" lon="10.4916983"><ele>705.0</ele><time>2026-04-19T09:30:01.909Z</time></trkpt><trkpt lat="44.4327283" lon="10.4917417"><ele>705.0</ele><time>2026-04-19T09:30:02.911Z</time></trkpt><trkpt lat="44.4325933" lon="10.491765"><ele>704.0</ele><time>2026-04-19T09:30:03.927Z</time></trkpt><trkpt lat="44.43245" lon="10.4917533"><ele>703.0</ele><time>2026-04-19T09:30:04.924Z</time></trkpt><trkpt lat="44.4323" lon="10.4917117"><ele>702.0</ele><time>2026-04-19T09:30:05.911Z</time></trkpt><trkpt lat="44.4321533" lon="10.491655"><ele>701.0</ele><time>2026-04-19T09:30:06.919Z</time></trkpt><trkpt lat="44.4320083" lon="10.4916117"><ele>700.0</ele><time>2026-04-19T09:30:07.908Z</time></trkpt><trkpt lat="44.4318733" lon="10.4915983"><ele>699.0</ele><time>2026-04-19T09:30:08.912Z</time></trkpt><trkpt lat="44.4317533" lon="10.4916283"><ele>698.0</ele><time>2026-04-19T09:30:09.986Z</time></trkpt><trkpt lat="44.4316467" lon="10.4917017"><ele>697.0</ele><time>2026-04-19T09:30:10.964Z</time></trkpt><trkpt lat="44.43155" lon="10.49181"><ele>697.0</ele><time>2026-04-19T09:30:11.925Z</time></trkpt><trkpt lat="44.43145" lon="10.4919217"><ele>697.0</ele><time>2026-04-19T09:30:12.911Z</time></trkpt><trkpt lat="44.43133" lon="10.4920217"><ele>697.0</ele><time>2026-04-19T09:30:13.919Z</time></trkpt><trkpt lat="44.4312017" lon="10.4921067"><ele>697.0</ele><time>2026-04-19T09:30:14.925Z</time></trkpt><trkpt lat="44.4310733" lon="10.4921767"><ele>694.25</ele><time>2026-04-19T09:30:15.913Z</time></trkpt><trkpt lat="44.430945" lon="10.4922417"><ele>691.5</ele><time>2026-04-19T09:30:16.911Z</time></trkpt><trkpt lat="44.430815" lon="10.4922883"><ele>688.75</ele><time>2026-04-19T09:30:17.96Z</time></trkpt><trkpt lat="44.43067" lon="10.4923183"><ele>686.0</ele><time>2026-04-19T09:30:18.929Z</time></trkpt><trkpt lat="44.430515" lon="10.4923467"><ele>687.6666666666666</ele><time>2026-04-19T09:30:19.907Z</time></trkpt><trkpt lat="44.4303617" lon="10.49237"><ele>689.3333333333334</ele><time>2026-04-19T09:30:20.929Z</time></trkpt><trkpt lat="44.4302117" lon="10.4923867"><ele>691.0</ele><time>2026-04-19T09:30:21.909Z</time></trkpt><trkpt lat="44.4300667" lon="10.49242"><ele>691.0</ele><time>2026-04-19T09:30:22.919Z</time></trkpt><trkpt lat="44.4299233" lon="10.49248"><ele>691.0</ele><time>2026-04-19T09:30:23.911Z</time></trkpt><trkpt lat="44.4297883" lon="10.492565"><ele>691.0</ele><time>2026-04-19T09:30:24.909Z</time></trkpt><trkpt lat="44.4296617" lon="10.49266"><ele>691.0</ele><time>2026-04-19T09:30:25.92Z</time></trkpt><trkpt lat="44.42954" lon="10.49276"><ele>690.25</ele><time>2026-04-19T09:30:26.976Z</time></trkpt><trkpt lat="44.4294367" lon="10.4928617"><ele>689.5</ele><time>2026-04-19T09:30:28.087Z</time></trkpt><trkpt lat="44.4293033" lon="10.4931083"><ele>688.75</ele><time>2026-04-19T09:30:29.908Z</time></trkpt><trkpt lat="44.429265" lon="10.4932283"><ele>688.0</ele><time>2026-04-19T09:30:30.919Z</time></trkpt><trkpt lat="44.429225" lon="10.493325"><ele>686.3333333333334</ele><time>2026-04-19T09:30:31.931Z</time></trkpt><trkpt lat="44.42918" lon="10.493395"><ele>684.6666666666667</ele><time>2026-04-19T09:30:32.909Z</time></trkpt><trkpt lat="44.4291267" lon="10.4934467"><ele>683.0</ele><time>2026-04-19T09:30:33.908Z</time></trkpt><trkpt lat="44.4290483" lon="10.4934283"><ele>681.3333333333334</ele><time>2026-04-19T09:30:34.919Z</time></trkpt><trkpt lat="44.4289667" lon="10.4933233"><ele>679.6666666666666</ele><time>2026-04-19T09:30:35.911Z</time></trkpt><trkpt lat="44.4288733" lon="10.4932383"><ele>678.0</ele><time>2026-04-19T09:30:36.911Z</time></trkpt><trkpt lat="44.4287633" lon="10.4931933"><ele>674.2</ele><time>2026-04-19T09:30:37.907Z</time></trkpt><trkpt lat="44.4286583" lon="10.4931633"><ele>670.4</ele><time>2026-04-19T09:30:38.912Z</time></trkpt><trkpt lat="44.42856" lon="10.49312"><ele>666.6</ele><time>2026-04-19T09:30:39.911Z</time></trkpt><trkpt lat="44.4284883" lon="10.493045"><ele>662.8000000000001</ele><time>2026-04-19T09:30:40.916Z</time></trkpt><trkpt lat="44.428445" lon="10.4929417"><ele>659.0</ele><time>2026-04-19T09:30:41.919Z</time></trkpt><trkpt lat="44.4284267" lon="10.49283"><ele>658.5</ele><time>2026-04-19T09:30:42.933Z</time></trkpt><trkpt lat="44.42844" lon="10.49273"><ele>658.0</ele><time>2026-04-19T09:30:43.909Z</time></trkpt><trkpt lat="44.4284817" lon="10.492575"><ele>657.5</ele><time>2026-04-19T09:30:45.905Z</time></trkpt><trkpt lat="44.42852" lon="10.492495"><ele>657.0</ele><time>2026-04-19T09:30:46.911Z</time></trkpt><trkpt lat="44.42857" lon="10.4924117"><ele>656.5</ele><time>2026-04-19T09:30:47.909Z</time></trkpt><trkpt lat="44.4286333" lon="10.4923133"><ele>656.0</ele><time>2026-04-19T09:30:48.906Z</time></trkpt><trkpt lat="44.4287" lon="10.4921933"><ele>655.4</ele><time>2026-04-19T09:30:49.918Z</time></trkpt><trkpt lat="44.428755" lon="10.4920717"><ele>654.8</ele><time>2026-04-19T09:30:50.907Z</time></trkpt><trkpt lat="44.4288017" lon="10.4919433"><ele>654.1999999999999</ele><time>2026-04-19T09:30:51.911Z</time></trkpt><trkpt lat="44.42883" lon="10.4918017"><ele>653.5999999999999</ele><time>2026-04-19T09:30:52.909Z</time></trkpt><trkpt lat="44.42886" lon="10.491655"><ele>653.0</ele><time>2026-04-19T09:30:53.912Z</time></trkpt><trkpt lat="44.42888" lon="10.491495"><ele>655.5</ele><time>2026-04-19T09:30:54.916Z</time></trkpt><trkpt lat="44.4288817" lon="10.49134"><ele>658.0</ele><time>2026-04-19T09:30:55.908Z</time></trkpt><trkpt lat="44.4288417" lon="10.4911867"><ele>660.5</ele><time>2026-04-19T09:30:56.911Z</time></trkpt><trkpt lat="44.4287717" lon="10.4910483"><ele>663.0</ele><time>2026-04-19T09:30:57.906Z</time></trkpt><trkpt lat="44.4286583" lon="10.49094"><ele>663.0</ele><time>2026-04-19T09:30:58.911Z</time></trkpt><trkpt lat="44.4285117" lon="10.4908483"><ele>663.0</ele><time>2026-04-19T09:30:59.907Z</time></trkpt><trkpt lat="44.42836" lon="10.4907617"><ele>663.0</ele><time>2026-04-19T09:31:00.911Z</time></trkpt><trkpt lat="44.4282133" lon="10.4906617"><ele>663.0</ele><time>2026-04-19T09:31:01.914Z</time></trkpt><trkpt lat="44.4280717" lon="10.4905683"><ele>663.0</ele><time>2026-04-19T09:31:02.93Z</time></trkpt><trkpt lat="44.4279433" lon="10.4905017"><ele>663.0</ele><time>2026-04-19T09:31:03.952Z</time></trkpt><trkpt lat="44.4278217" lon="10.4904667"><ele>663.0</ele><time>2026-04-19T09:31:04.912Z</time></trkpt><trkpt lat="44.4277033" lon="10.4904617"><ele>660.4</ele><time>2026-04-19T09:31:05.91Z</time></trkpt><trkpt lat="44.4276" lon="10.4904817"><ele>657.8</ele><time>2026-04-19T09:31:06.91Z</time></trkpt><trkpt lat="44.42751" lon="10.4905033"><ele>655.2</ele><time>2026-04-19T09:31:07.917Z</time></trkpt><trkpt lat="44.4274283" lon="10.4905183"><ele>652.6</ele><time>2026-04-19T09:31:08.913Z</time></trkpt><trkpt lat="44.427355" lon="10.49052"><ele>650.0</ele><time>2026-04-19T09:31:09.906Z</time></trkpt><trkpt lat="44.4272433" lon="10.4904467"><ele>648.8333333333333</ele><time>2026-04-19T09:31:11.907Z</time></trkpt><trkpt lat="44.4271967" lon="10.490375"><ele>647.6666666666666</ele><time>2026-04-19T09:31:12.907Z</time></trkpt><trkpt lat="44.42716" lon="10.490285"><ele>646.5</ele><time>2026-04-19T09:31:13.909Z</time></trkpt><trkpt lat="44.427125" lon="10.4901867"><ele>645.3333333333334</ele><time>2026-04-19T09:31:14.916Z</time></trkpt><trkpt lat="44.427085" lon="10.4900867"><ele>644.1666666666667</ele><time>2026-04-19T09:31:15.917Z</time></trkpt><trkpt lat="44.4270317" lon="10.4900033"><ele>643.0</ele><time>2026-04-19T09:31:16.911Z</time></trkpt><trkpt lat="44.426955" lon="10.4899583"><ele>643.0</ele><time>2026-04-19T09:31:17.924Z</time></trkpt><trkpt lat="44.4268617" lon="10.4899467"><ele>643.0</ele><time>2026-04-19T09:31:18.909Z</time></trkpt><trkpt lat="44.42678" lon="10.4899117"><ele>643.0</ele><time>2026-04-19T09:31:19.943Z</time></trkpt><trkpt lat="44.4267017" lon="10.489855"><ele>643.0</ele><time>2026-04-19T09:31:20.935Z</time></trkpt><trkpt lat="44.4266333" lon="10.4897917"><ele>643.0</ele><time>2026-04-19T09:31:21.911Z</time></trkpt><trkpt lat="44.426565" lon="10.4897283"><ele>643.0</ele><time>2026-04-19T09:31:22.921Z</time></trkpt><trkpt lat="44.4265017" lon="10.4896767"><ele>643.0</ele><time>2026-04-19T09:31:23.926Z</time></trkpt><trkpt lat="44.4264433" lon="10.48964"><ele>643.0</ele><time>2026-04-19T09:31:24.909Z</time></trkpt><trkpt lat="44.4263333" lon="10.4895883"><ele>643.0</ele><time>2026-04-19T09:31:26.911Z</time></trkpt><trkpt lat="44.426275" lon="10.489555"><ele>643.0</ele><time>2026-04-19T09:31:27.918Z</time></trkpt><trkpt lat="44.4262133" lon="10.4895217"><ele>643.0</ele><time>2026-04-19T09:31:28.913Z</time></trkpt><trkpt lat="44.42611" lon="10.4894667"><ele>643.0</ele><time>2026-04-19T09:31:30.912Z</time></trkpt><trkpt lat="44.425985" lon="10.4894267"><ele>642.8333333333334</ele><time>2026-04-19T09:31:32.911Z</time></trkpt><trkpt lat="44.4259217" lon="10.4894083"><ele>642.6666666666667</ele><time>2026-04-19T09:31:33.911Z</time></trkpt><trkpt lat="44.4258567" lon="10.4893867"><ele>642.5</ele><time>2026-04-19T09:31:34.912Z</time></trkpt><trkpt lat="44.4257383" lon="10.4893217"><ele>642.3333333333334</ele><time>2026-04-19T09:31:36.907Z</time></trkpt><trkpt lat="44.4256733" lon="10.4892717"><ele>642.1666666666666</ele><time>2026-04-19T09:31:37.969Z</time></trkpt><trkpt lat="44.4256167" lon="10.4891933"><ele>642.0</ele><time>2026-04-19T09:31:38.909Z</time></trkpt><trkpt lat="44.4255733" lon="10.4891067"><ele>642.0</ele><time>2026-04-19T09:31:39.91Z</time></trkpt><trkpt lat="44.42555" lon="10.48901"><ele>642.0</ele><time>2026-04-19T09:31:40.913Z</time></trkpt><trkpt lat="44.4255517" lon="10.4889133"><ele>642.0</ele><time>2026-04-19T09:31:41.909Z</time></trkpt><trkpt lat="44.4255483" lon="10.48882"><ele>642.0</ele><time>2026-04-19T09:31:42.958Z</time></trkpt><trkpt lat="44.4255283" lon="10.488735"><ele>642.0</ele><time>2026-04-19T09:31:43.909Z</time></trkpt><trkpt lat="44.4254233" lon="10.4886217"><ele>642.0</ele><time>2026-04-19T09:31:45.914Z</time></trkpt><trkpt lat="44.42533" lon="10.4885767"><ele>637.2</ele><time>2026-04-19T09:31:46.911Z</time></trkpt><trkpt lat="44.4252217" lon="10.488535"><ele>632.4000000000001</ele><time>2026-04-19T09:31:47.918Z</time></trkpt><trkpt lat="44.4251133" lon="10.4885083"><ele>627.5999999999999</ele><time>2026-04-19T09:31:48.91Z</time></trkpt><trkpt lat="44.4250183" lon="10.4885017"><ele>622.8</ele><time>2026-04-19T09:31:49.911Z</time></trkpt><trkpt lat="44.42494" lon="10.4885483"><ele>618.0</ele><time>2026-04-19T09:31:50.923Z</time></trkpt><trkpt lat="44.42487" lon="10.4886317"><ele>618.75</ele><time>2026-04-19T09:31:51.908Z</time></trkpt><trkpt lat="44.42483" lon="10.4887733"><ele>619.5</ele><time>2026-04-19T09:31:52.907Z</time></trkpt><trkpt lat="44.4248067" lon="10.48891"><ele>620.25</ele><time>2026-04-19T09:31:53.907Z</time></trkpt><trkpt lat="44.4248217" lon="10.4890667"><ele>621.0</ele><time>2026-04-19T09:31:54.913Z</time></trkpt><trkpt lat="44.42489" lon="10.4892633"><ele>621.0</ele><time>2026-04-19T09:31:55.905Z</time></trkpt><trkpt lat="44.4249617" lon="10.4894633"><ele>621.0</ele><time>2026-04-19T09:31:56.909Z</time></trkpt><trkpt lat="44.42502" lon="10.4896317"><ele>621.0</ele><time>2026-04-19T09:31:57.909Z</time></trkpt><trkpt lat="44.4250883" lon="10.4897533"><ele>621.0</ele><time>2026-04-19T09:31:58.907Z</time></trkpt><trkpt lat="44.4251767" lon="10.48985"><ele>621.25</ele><time>2026-04-19T09:31:59.918Z</time></trkpt><trkpt lat="44.4252917" lon="10.4899183"><ele>621.5</ele><time>2026-04-19T09:32:00.909Z</time></trkpt><trkpt lat="44.4254117" lon="10.4899767"><ele>621.75</ele><time>2026-04-19T09:32:01.919Z</time></trkpt><trkpt lat="44.42553" lon="10.4900433"><ele>622.0</ele><time>2026-04-19T09:32:02.913Z</time></trkpt><trkpt lat="44.4256533" lon="10.4902967"><ele>622.0</ele><time>2026-04-19T09:32:04.191Z</time></trkpt><trkpt lat="44.425805" lon="10.4902667"><ele>622.0</ele><time>2026-04-19T09:32:05.395Z</time></trkpt><trkpt lat="44.4259683" lon="10.490425"><ele>622.0</ele><time>2026-04-19T09:32:06.912Z</time></trkpt><trkpt lat="44.4260817" lon="10.490495"><ele>622.6</ele><time>2026-04-19T09:32:07.931Z</time></trkpt><trkpt lat="44.42619" lon="10.49056"><ele>623.2</ele><time>2026-04-19T09:32:08.911Z</time></trkpt><trkpt lat="44.426285" lon="10.4906267"><ele>623.8</ele><time>2026-04-19T09:32:09.91Z</time></trkpt><trkpt lat="44.42637" lon="10.4907033"><ele>624.4</ele><time>2026-04-19T09:32:10.911Z</time></trkpt><trkpt lat="44.4264033" lon="10.4908283"><ele>625.0</ele><time>2026-04-19T09:32:11.913Z</time></trkpt><trkpt lat="44.426435" lon="10.49095"><ele>625.0</ele><time>2026-04-19T09:32:12.935Z</time></trkpt><trkpt lat="44.42645" lon="10.4910883"><ele>625.0</ele><time>2026-04-19T09:32:13.934Z</time></trkpt><trkpt lat="44.42647" lon="10.491225"><ele>625.0</ele><time>2026-04-19T09:32:14.912Z</time></trkpt><trkpt lat="44.4264667" lon="10.4914283"><ele>625.0</ele><time>2026-04-19T09:32:15.909Z</time></trkpt><trkpt lat="44.4264633" lon="10.4916367"><ele>621.5</ele><time>2026-04-19T09:32:16.921Z</time></trkpt><trkpt lat="44.4264617" lon="10.4918333"><ele>618.0</ele><time>2026-04-19T09:32:17.909Z</time></trkpt><trkpt lat="44.4264583" lon="10.4920117"><ele>614.5</ele><time>2026-04-19T09:32:18.935Z</time></trkpt><trkpt lat="44.4264583" lon="10.4921517"><ele>611.0</ele><time>2026-04-19T09:32:19.91Z</time></trkpt><trkpt lat="44.4264567" lon="10.49227"><ele>609.1666666666666</ele><time>2026-04-19T09:32:20.905Z</time></trkpt><trkpt lat="44.4264517" lon="10.49237"><ele>607.3333333333333</ele><time>2026-04-19T09:32:21.943Z</time></trkpt><trkpt lat="44.4264167" lon="10.4925083"><ele>605.5</ele><time>2026-04-19T09:32:23.947Z</time></trkpt><trkpt lat="44.4263233" lon="10.492515"><ele>603.6666666666666</ele><time>2026-04-19T09:32:25.912Z</time></trkpt><trkpt lat="44.4262767" lon="10.4924483"><ele>601.8333333333334</ele><time>2026-04-19T09:32:26.967Z</time></trkpt><trkpt lat="44.4262317" lon="10.492345"><ele>600.0</ele><time>2026-04-19T09:32:27.952Z</time></trkpt><trkpt lat="44.426185" lon="10.4922083"><ele>596.5</ele><time>2026-04-19T09:32:28.94Z</time></trkpt><trkpt lat="44.4261367" lon="10.4920483"><ele>593.0</ele><time>2026-04-19T09:32:29.91Z</time></trkpt><trkpt lat="44.4260817" lon="10.49188"><ele>589.5</ele><time>2026-04-19T09:32:30.934Z</time></trkpt><trkpt lat="44.426015" lon="10.4917183"><ele>586.0</ele><time>2026-04-19T09:32:31.956Z</time></trkpt><trkpt lat="44.4259333" lon="10.4915783"><ele>586.0</ele><time>2026-04-19T09:32:32.93Z</time></trkpt><trkpt lat="44.4258367" lon="10.491465"><ele>586.0</ele><time>2026-04-19T09:32:33.926Z</time></trkpt><trkpt lat="44.425735" lon="10.4913717"><ele>586.0</ele><time>2026-04-19T09:32:34.933Z</time></trkpt><trkpt lat="44.4256283" lon="10.4912917"><ele>586.0</ele><time>2026-04-19T09:32:35.911Z</time></trkpt><trkpt lat="44.4255183" lon="10.4912017"><ele>585.0</ele><time>2026-04-19T09:32:36.906Z</time></trkpt><trkpt lat="44.42541" lon="10.4911033"><ele>584.0</ele><time>2026-04-19T09:32:37.925Z</time></trkpt><trkpt lat="44.4253" lon="10.4910167"><ele>583.0</ele><time>2026-04-19T09:32:38.907Z</time></trkpt><trkpt lat="44.4251833" lon="10.4909633"><ele>582.0</ele><time>2026-04-19T09:32:39.968Z</time></trkpt><trkpt lat="44.4250567" lon="10.49094"><ele>582.0</ele><time>2026-04-19T09:32:40.952Z</time></trkpt><trkpt lat="44.4249267" lon="10.4909167"><ele>582.0</ele><time>2026-04-19T09:32:41.931Z</time></trkpt><trkpt lat="44.4247983" lon="10.4908817"><ele>582.0</ele><time>2026-04-19T09:32:42.909Z</time></trkpt><trkpt lat="44.4246667" lon="10.49084"><ele>582.0</ele><time>2026-04-19T09:32:43.906Z</time></trkpt><trkpt lat="44.4245383" lon="10.4907967"><ele>579.75</ele><time>2026-04-19T09:32:44.927Z</time></trkpt><trkpt lat="44.4244083" lon="10.49076"><ele>577.5</ele><time>2026-04-19T09:32:45.931Z</time></trkpt><trkpt lat="44.4242767" lon="10.4907467"><ele>575.25</ele><time>2026-04-19T09:32:46.938Z</time></trkpt><trkpt lat="44.42415" lon="10.4907483"><ele>573.0</ele><time>2026-04-19T09:32:47.923Z</time></trkpt><trkpt lat="44.4240267" lon="10.4907517"><ele>573.0</ele><time>2026-04-19T09:32:48.919Z</time></trkpt><trkpt lat="44.4239067" lon="10.4907467"><ele>573.0</ele><time>2026-04-19T09:32:49.946Z</time></trkpt><trkpt lat="44.4237933" lon="10.4907217"><ele>573.0</ele><time>2026-04-19T09:32:50.951Z</time></trkpt><trkpt lat="44.4236917" lon="10.4906733"><ele>573.0</ele><time>2026-04-19T09:32:51.947Z</time></trkpt><trkpt lat="44.423605" lon="10.490595"><ele>573.0</ele><time>2026-04-19T09:32:52.922Z</time></trkpt><trkpt lat="44.4235233" lon="10.4904817"><ele>571.75</ele><time>2026-04-19T09:32:53.909Z</time></trkpt><trkpt lat="44.423445" lon="10.49035"><ele>570.5</ele><time>2026-04-19T09:32:54.923Z</time></trkpt><trkpt lat="44.4233633" lon="10.490205"><ele>569.25</ele><time>2026-04-19T09:32:55.912Z</time></trkpt><trkpt lat="44.4232817" lon="10.4900467"><ele>568.0</ele><time>2026-04-19T09:32:56.906Z</time></trkpt><trkpt lat="44.4232033" lon="10.489895"><ele>568.0</ele><time>2026-04-19T09:32:57.916Z</time></trkpt><trkpt lat="44.423125" lon="10.48975"><ele>568.0</ele><time>2026-04-19T09:32:58.929Z</time></trkpt><trkpt lat="44.4230467" lon="10.4896133"><ele>568.0</ele><time>2026-04-19T09:32:59.924Z</time></trkpt><trkpt lat="44.42297" lon="10.4894817"><ele>568.0</ele><time>2026-04-19T09:33:00.907Z</time></trkpt><trkpt lat="44.4228867" lon="10.4893667"><ele>563.75</ele><time>2026-04-19T09:33:01.918Z</time></trkpt><trkpt lat="44.4227867" lon="10.489275"><ele>559.5</ele><time>2026-04-19T09:33:02.917Z</time></trkpt><trkpt lat="44.4226717" lon="10.4891983"><ele>555.25</ele><time>2026-04-19T09:33:03.909Z</time></trkpt><trkpt lat="44.4225467" lon="10.4891617"><ele>551.0</ele><time>2026-04-19T09:33:04.914Z</time></trkpt><trkpt lat="44.4224133" lon="10.4891233"><ele>551.0</ele><time>2026-04-19T09:33:05.918Z</time></trkpt><trkpt lat="44.422275" lon="10.4890717"><ele>551.0</ele><time>2026-04-19T09:33:06.931Z</time></trkpt><trkpt lat="44.42215" lon="10.489005"><ele>551.0</ele><time>2026-04-19T09:33:07.909Z</time></trkpt><trkpt lat="44.42204" lon="10.488925"><ele>551.0</ele><time>2026-04-19T09:33:08.932Z</time></trkpt><trkpt lat="44.4219533" lon="10.4888267"><ele>548.0</ele><time>2026-04-19T09:33:09.913Z</time></trkpt><trkpt lat="44.42189" lon="10.4886967"><ele>545.0</ele><time>2026-04-19T09:33:10.967Z</time></trkpt><trkpt lat="44.4218517" lon="10.4885383"><ele>542.0</ele><time>2026-04-19T09:33:11.942Z</time></trkpt><trkpt lat="44.4218417" lon="10.488375"><ele>539.0</ele><time>2026-04-19T09:33:12.908Z</time></trkpt><trkpt lat="44.4218733" lon="10.4882083"><ele>539.0</ele><time>2026-04-19T09:33:13.921Z</time></trkpt><trkpt lat="44.421915" lon="10.4880517"><ele>539.0</ele><time>2026-04-19T09:33:14.985Z</time></trkpt><trkpt lat="44.42195" lon="10.4879"><ele>539.0</ele><time>2026-04-19T09:33:15.917Z</time></trkpt><trkpt lat="44.4219633" lon="10.4877617"><ele>539.0</ele><time>2026-04-19T09:33:16.94Z</time></trkpt><trkpt lat="44.42195" lon="10.4876433"><ele>539.0</ele><time>2026-04-19T09:33:17.909Z</time></trkpt><trkpt lat="44.4219183" lon="10.48755"><ele>538.4</ele><time>2026-04-19T09:33:18.929Z</time></trkpt><trkpt lat="44.4218467" lon="10.4875167"><ele>537.8</ele><time>2026-04-19T09:33:19.916Z</time></trkpt><trkpt lat="44.4217683" lon="10.4875267"><ele>537.2</ele><time>2026-04-19T09:33:20.906Z</time></trkpt><trkpt lat="44.4216783" lon="10.4876183"><ele>536.6</ele><time>2026-04-19T09:33:21.908Z</time></trkpt><trkpt lat="44.42159" lon="10.4877283"><ele>536.0</ele><time>2026-04-19T09:33:22.91Z</time></trkpt><trkpt lat="44.4215" lon="10.48785"><ele>536.6</ele><time>2026-04-19T09:33:23.97Z</time></trkpt><trkpt lat="44.4214083" lon="10.487965"><ele>537.2</ele><time>2026-04-19T09:33:24.945Z</time></trkpt><trkpt lat="44.4213217" lon="10.4880683"><ele>537.8</ele><time>2026-04-19T09:33:25.911Z</time></trkpt><trkpt lat="44.4212467" lon="10.4881483"><ele>538.4</ele><time>2026-04-19T09:33:26.909Z</time></trkpt><trkpt lat="44.421175" lon="10.4882"><ele>539.0</ele><time>2026-04-19T09:33:27.932Z</time></trkpt><trkpt lat="44.4211033" lon="10.48822"><ele>535.6</ele><time>2026-04-19T09:33:28.919Z</time></trkpt><trkpt lat="44.4210417" lon="10.4881517"><ele>532.2</ele><time>2026-04-19T09:33:29.907Z</time></trkpt><trkpt lat="44.4210183" lon="10.4880367"><ele>528.8000000000001</ele><time>2026-04-19T09:33:30.922Z</time></trkpt><trkpt lat="44.4210483" lon="10.4879067"><ele>525.4</ele><time>2026-04-19T09:33:31.906Z</time></trkpt><trkpt lat="44.4211033" lon="10.48778"><ele>522.0</ele><time>2026-04-19T09:33:32.912Z</time></trkpt><trkpt lat="44.421155" lon="10.4876383"><ele>522.0</ele><time>2026-04-19T09:33:33.946Z</time></trkpt><trkpt lat="44.4211783" lon="10.487465"><ele>522.0</ele><time>2026-04-19T09:33:34.911Z</time></trkpt><trkpt lat="44.4211767" lon="10.4872883"><ele>522.0</ele><time>2026-04-19T09:33:35.91Z</time></trkpt><trkpt lat="44.4211567" lon="10.487115"><ele>522.0</ele><time>2026-04-19T09:33:36.907Z</time></trkpt><trkpt lat="44.4211367" lon="10.486955"><ele>523.8000000000001</ele><time>2026-04-19T09:33:37.927Z</time></trkpt><trkpt lat="44.421105" lon="10.4868033"><ele>525.6</ele><time>2026-04-19T09:33:38.97Z</time></trkpt><trkpt lat="44.421055" lon="10.48667"><ele>527.4000000000001</ele><time>2026-04-19T09:33:39.928Z</time></trkpt><trkpt lat="44.4209867" lon="10.4865733"><ele>529.2</ele><time>2026-04-19T09:33:40.915Z</time></trkpt><trkpt lat="44.4208917" lon="10.4865183"><ele>531.0</ele><time>2026-04-19T09:33:41.898Z</time></trkpt><trkpt lat="44.4207883" lon="10.4865283"><ele>531.0</ele><time>2026-04-19T09:33:42.901Z</time></trkpt><trkpt lat="44.4206717" lon="10.48658"><ele>531.0</ele><time>2026-04-19T09:33:43.91Z</time></trkpt><trkpt lat="44.420545" lon="10.4866433"><ele>531.0</ele><time>2026-04-19T09:33:44.905Z</time></trkpt><trkpt lat="44.420415" lon="10.4866817"><ele>531.0</ele><time>2026-04-19T09:33:45.936Z</time></trkpt><trkpt lat="44.420285" lon="10.4866867"><ele>530.5</ele><time>2026-04-19T09:33:46.991Z</time></trkpt><trkpt lat="44.4201517" lon="10.4866617"><ele>530.0</ele><time>2026-04-19T09:33:47.924Z</time></trkpt><trkpt lat="44.4200167" lon="10.4866183"><ele>529.5</ele><time>2026-04-19T09:33:48.907Z</time></trkpt><trkpt lat="44.4198767" lon="10.486565"><ele>529.0</ele><time>2026-04-19T09:33:49.976Z</time></trkpt><trkpt lat="44.4197367" lon="10.4865233"><ele>529.25</ele><time>2026-04-19T09:33:50.94Z</time></trkpt><trkpt lat="44.419595" lon="10.4865117"><ele>529.5</ele><time>2026-04-19T09:33:51.91Z</time></trkpt><trkpt lat="44.419445" lon="10.4865167"><ele>529.75</ele><time>2026-04-19T09:33:52.915Z</time></trkpt><trkpt lat="44.4192967" lon="10.48655"><ele>530.0</ele><time>2026-04-19T09:33:53.925Z</time></trkpt><trkpt lat="44.4191467" lon="10.4866167"><ele>530.0</ele><time>2026-04-19T09:33:54.93Z</time></trkpt><trkpt lat="44.4189967" lon="10.4866933"><ele>530.0</ele><time>2026-04-19T09:33:55.961Z</time></trkpt><trkpt lat="44.4188483" lon="10.4867667"><ele>530.0</ele><time>2026-04-19T09:33:56.935Z</time></trkpt><trkpt lat="44.4187033" lon="10.4868267"><ele>531.5</ele><time>2026-04-19T09:33:57.923Z</time></trkpt><trkpt lat="44.41857" lon="10.4868717"><ele>533.0</ele><time>2026-04-19T09:33:58.917Z</time></trkpt><trkpt lat="44.41844" lon="10.4868983"><ele>534.5</ele><time>2026-04-19T09:33:59.918Z</time></trkpt><trkpt lat="44.4183117" lon="10.4869"><ele>536.0</ele><time>2026-04-19T09:34:00.911Z</time></trkpt><trkpt lat="44.418185" lon="10.4868733"><ele>536.0</ele><time>2026-04-19T09:34:01.907Z</time></trkpt><trkpt lat="44.4180633" lon="10.4868117"><ele>536.0</ele><time>2026-04-19T09:34:02.917Z</time></trkpt><trkpt lat="44.4179517" lon="10.4867117"><ele>536.0</ele><time>2026-04-19T09:34:03.912Z</time></trkpt><trkpt lat="44.4178533" lon="10.4866017"><ele>536.0</ele><time>2026-04-19T09:34:04.913Z</time></trkpt><trkpt lat="44.4177567" lon="10.4864933"><ele>533.0</ele><time>2026-04-19T09:34:05.908Z</time></trkpt><trkpt lat="44.4176567" lon="10.4864117"><ele>530.0</ele><time>2026-04-19T09:34:06.971Z</time></trkpt><trkpt lat="44.4175483" lon="10.4863917"><ele>527.0</ele><time>2026-04-19T09:34:07.91Z</time></trkpt><trkpt lat="44.4174267" lon="10.4864183"><ele>524.0</ele><time>2026-04-19T09:34:08.908Z</time></trkpt><trkpt lat="44.4172967" lon="10.4864617"><ele>524.0</ele><time>2026-04-19T09:34:09.918Z</time></trkpt><trkpt lat="44.4171617" lon="10.4865"><ele>524.0</ele><time>2026-04-19T09:34:10.912Z</time></trkpt><trkpt lat="44.417035" lon="10.48652"><ele>524.0</ele><time>2026-04-19T09:34:11.916Z</time></trkpt><trkpt lat="44.4169183" lon="10.4865217"><ele>524.0</ele><time>2026-04-19T09:34:12.917Z</time></trkpt><trkpt lat="44.4168117" lon="10.4864883"><ele>523.4</ele><time>2026-04-19T09:34:13.908Z</time></trkpt><trkpt lat="44.4167233" lon="10.4864183"><ele>522.8</ele><time>2026-04-19T09:34:14.928Z</time></trkpt><trkpt lat="44.41666" lon="10.4863217"><ele>522.2</ele><time>2026-04-19T09:34:15.948Z</time></trkpt><trkpt lat="44.4166267" lon="10.4861967"><ele>521.6</ele><time>2026-04-19T09:34:16.91Z</time></trkpt><trkpt lat="44.41663" lon="10.4860483"><ele>521.0</ele><time>2026-04-19T09:34:17.923Z</time></trkpt><trkpt lat="44.416635" lon="10.4858833"><ele>521.0</ele><time>2026-04-19T09:34:18.931Z</time></trkpt><trkpt lat="44.41661" lon="10.4857233"><ele>521.0</ele><time>2026-04-19T09:34:19.91Z</time></trkpt><trkpt lat="44.4165633" lon="10.4855867"><ele>521.0</ele><time>2026-04-19T09:34:20.926Z</time></trkpt><trkpt lat="44.4164833" lon="10.4854917"><ele>521.0</ele><time>2026-04-19T09:34:21.962Z</time></trkpt><trkpt lat="44.416375" lon="10.485425"><ele>521.0</ele><time>2026-04-19T09:34:22.908Z</time></trkpt><trkpt lat="44.4162617" lon="10.4853517"><ele>518.0</ele><time>2026-04-19T09:34:23.91Z</time></trkpt><trkpt lat="44.4161567" lon="10.4852567"><ele>515.0</ele><time>2026-04-19T09:34:24.905Z</time></trkpt><trkpt lat="44.4160533" lon="10.485165"><ele>512.0</ele><time>2026-04-19T09:34:25.937Z</time></trkpt><trkpt lat="44.4159517" lon="10.4850717"><ele>509.0</ele><time>2026-04-19T09:34:26.924Z</time></trkpt><trkpt lat="44.4158433" lon="10.48497"><ele>509.0</ele><time>2026-04-19T09:34:27.915Z</time></trkpt><trkpt lat="44.4157333" lon="10.4848633"><ele>509.0</ele><time>2026-04-19T09:34:28.934Z</time></trkpt><trkpt lat="44.4156233" lon="10.4847533"><ele>509.0</ele><time>2026-04-19T09:34:29.911Z</time></trkpt><trkpt lat="44.4155017" lon="10.4846383"><ele>509.0</ele><time>2026-04-19T09:34:30.915Z</time></trkpt><trkpt lat="44.4153717" lon="10.4845317"><ele>512.0</ele><time>2026-04-19T09:34:31.928Z</time></trkpt><trkpt lat="44.41524" lon="10.4844233"><ele>515.0</ele><time>2026-04-19T09:34:32.911Z</time></trkpt><trkpt lat="44.415105" lon="10.4843117"><ele>518.0</ele><time>2026-04-19T09:34:33.912Z</time></trkpt><trkpt lat="44.414975" lon="10.4842033"><ele>518.0</ele><time>2026-04-19T09:34:34.913Z</time></trkpt><trkpt lat="44.4148517" lon="10.4841117"><ele>518.0</ele><time>2026-04-19T09:34:35.911Z</time></trkpt><trkpt lat="44.4147317" lon="10.4840267"><ele>518.0</ele><time>2026-04-19T09:34:36.907Z</time></trkpt><trkpt lat="44.41462" lon="10.4839183"><ele>518.0</ele><time>2026-04-19T09:34:37.95Z</time></trkpt><trkpt lat="44.4145217" lon="10.4837733"><ele>518.0</ele><time>2026-04-19T09:34:38.909Z</time></trkpt><trkpt lat="44.4144283" lon="10.4836167"><ele>518.0</ele><time>2026-04-19T09:34:39.922Z</time></trkpt><trkpt lat="44.414355" lon="10.4834383"><ele>518.0</ele><time>2026-04-19T09:34:40.915Z</time></trkpt><trkpt lat="44.414295" lon="10.4832533"><ele>518.0</ele><time>2026-04-19T09:34:41.914Z</time></trkpt><trkpt lat="44.414225" lon="10.48307"><ele>527.0</ele><time>2026-04-19T09:34:42.91Z</time></trkpt><trkpt lat="44.41414" lon="10.4828917"><ele>536.0</ele><time>2026-04-19T09:34:43.921Z</time></trkpt><trkpt lat="44.4140467" lon="10.482715"><ele>545.0</ele><time>2026-04-19T09:34:44.912Z</time></trkpt><trkpt lat="44.4139383" lon="10.4825433"><ele>545.0</ele><time>2026-04-19T09:34:45.936Z</time></trkpt><trkpt lat="44.41383" lon="10.4823917"><ele>545.0</ele><time>2026-04-19T09:34:46.91Z</time></trkpt><trkpt lat="44.4137217" lon="10.4822617"><ele>545.0</ele><time>2026-04-19T09:34:47.91Z</time></trkpt><trkpt lat="44.4136217" lon="10.4821617"><ele>545.0</ele><time>2026-04-19T09:34:48.91Z</time></trkpt><trkpt lat="44.4135367" lon="10.4820883"><ele>542.8333333333333</ele><time>2026-04-19T09:34:49.978Z</time></trkpt><trkpt lat="44.41346" lon="10.4820317"><ele>540.6666666666666</ele><time>2026-04-19T09:34:50.92Z</time></trkpt><trkpt lat="44.4133967" lon="10.481975"><ele>538.5</ele><time>2026-04-19T09:34:51.908Z</time></trkpt><trkpt lat="44.4133483" lon="10.4819133"><ele>536.3333333333334</ele><time>2026-04-19T09:34:52.914Z</time></trkpt><trkpt lat="44.4133017" lon="10.4818367"><ele>534.1666666666667</ele><time>2026-04-19T09:34:53.92Z</time></trkpt><trkpt lat="44.4132667" lon="10.4817467"><ele>532.0</ele><time>2026-04-19T09:34:54.906Z</time></trkpt><trkpt lat="44.4132517" lon="10.48164"><ele>532.0</ele><time>2026-04-19T09:34:55.944Z</time></trkpt><trkpt lat="44.41327" lon="10.481515"><ele>532.0</ele><time>2026-04-19T09:34:56.911Z</time></trkpt><trkpt lat="44.41333" lon="10.4813767"><ele>532.0</ele><time>2026-04-19T09:34:57.918Z</time></trkpt><trkpt lat="44.4134167" lon="10.4812367"><ele>532.0</ele><time>2026-04-19T09:34:58.907Z</time></trkpt><trkpt lat="44.41351" lon="10.481095"><ele>535.25</ele><time>2026-04-19T09:34:59.908Z</time></trkpt><trkpt lat="44.4136033" lon="10.4809483"><ele>538.5</ele><time>2026-04-19T09:35:00.906Z</time></trkpt><trkpt lat="44.4136883" lon="10.4807967"><ele>541.75</ele><time>2026-04-19T09:35:01.919Z</time></trkpt><trkpt lat="44.4137633" lon="10.4806417"><ele>545.0</ele><time>2026-04-19T09:35:02.982Z</time></trkpt><trkpt lat="44.413825" lon="10.4804733"><ele>541.6</ele><time>2026-04-19T09:35:03.91Z</time></trkpt><trkpt lat="44.4138683" lon="10.4803033"><ele>538.2</ele><time>2026-04-19T09:35:04.913Z</time></trkpt><trkpt lat="44.4138967" lon="10.480145"><ele>534.8</ele><time>2026-04-19T09:35:05.946Z</time></trkpt><trkpt lat="44.413925" lon="10.48001"><ele>531.4</ele><time>2026-04-19T09:35:06.914Z</time></trkpt><trkpt lat="44.4139667" lon="10.4798817"><ele>528.0</ele><time>2026-04-19T09:35:07.915Z</time></trkpt><trkpt lat="44.4140367" lon="10.4797917"><ele>528.0</ele><time>2026-04-19T09:35:08.908Z</time></trkpt><trkpt lat="44.4141333" lon="10.4797033"><ele>528.0</ele><time>2026-04-19T09:35:09.915Z</time></trkpt><trkpt lat="44.414235" lon="10.4796133"><ele>528.0</ele><time>2026-04-19T09:35:10.969Z</time></trkpt><trkpt lat="44.4143483" lon="10.4795183"><ele>528.0</ele><time>2026-04-19T09:35:11.943Z</time></trkpt><trkpt lat="44.4144733" lon="10.4794383"><ele>526.75</ele><time>2026-04-19T09:35:12.912Z</time></trkpt><trkpt lat="44.4146083" lon="10.4793783"><ele>525.5</ele><time>2026-04-19T09:35:13.935Z</time></trkpt><trkpt lat="44.4147383" lon="10.47932"><ele>524.25</ele><time>2026-04-19T09:35:14.931Z</time></trkpt><trkpt lat="44.4148567" lon="10.4792583"><ele>523.0</ele><time>2026-04-19T09:35:15.911Z</time></trkpt><trkpt lat="44.4149633" lon="10.4791867"><ele>523.0</ele><time>2026-04-19T09:35:16.907Z</time></trkpt><trkpt lat="44.4150483" lon="10.47908"><ele>523.0</ele><time>2026-04-19T09:35:17.966Z</time></trkpt><trkpt lat="44.4151067" lon="10.47894"><ele>523.0</ele><time>2026-04-19T09:35:18.936Z</time></trkpt><trkpt lat="44.41515" lon="10.4787933"><ele>523.0</ele><time>2026-04-19T09:35:19.911Z</time></trkpt><trkpt lat="44.4152" lon="10.4786467"><ele>524.25</ele><time>2026-04-19T09:35:20.905Z</time></trkpt><trkpt lat="44.415265" lon="10.4785183"><ele>525.5</ele><time>2026-04-19T09:35:22.092Z</time></trkpt><trkpt lat="44.4154183" lon="10.4783017"><ele>526.75</ele><time>2026-04-19T09:35:23.973Z</time></trkpt><trkpt lat="44.4155067" lon="10.4782167"><ele>528.0</ele><time>2026-04-19T09:35:24.907Z</time></trkpt><trkpt lat="44.4155717" lon="10.4781267"><ele>528.0</ele><time>2026-04-19T09:35:25.909Z</time></trkpt><trkpt lat="44.415615" lon="10.4780367"><ele>528.0</ele><time>2026-04-19T09:35:26.914Z</time></trkpt><trkpt lat="44.41563" lon="10.47793"><ele>528.0</ele><time>2026-04-19T09:35:27.91Z</time></trkpt><trkpt lat="44.4155983" lon="10.47784"><ele>528.0</ele><time>2026-04-19T09:35:28.913Z</time></trkpt><trkpt lat="44.41552" lon="10.4777583"><ele>528.0</ele><time>2026-04-19T09:35:29.969Z</time></trkpt><trkpt lat="44.4154" lon="10.4776767"><ele>526.3333333333334</ele><time>2026-04-19T09:35:30.921Z</time></trkpt><trkpt lat="44.415245" lon="10.47757"><ele>524.6666666666667</ele><time>2026-04-19T09:35:31.909Z</time></trkpt><trkpt lat="44.4151133" lon="10.4774517"><ele>523.0</ele><time>2026-04-19T09:35:32.915Z</time></trkpt><trkpt lat="44.414965" lon="10.4773133"><ele>523.0</ele><time>2026-04-19T09:35:33.922Z</time></trkpt><trkpt lat="44.41481" lon="10.4771867"><ele>523.0</ele><time>2026-04-19T09:35:34.938Z</time></trkpt><trkpt lat="44.41467" lon="10.47705"><ele>523.0</ele><time>2026-04-19T09:35:35.91Z</time></trkpt><trkpt lat="44.414535" lon="10.4769183"><ele>524.6666666666667</ele><time>2026-04-19T09:35:36.906Z</time></trkpt><trkpt lat="44.4143983" lon="10.476815"><ele>526.3333333333334</ele><time>2026-04-19T09:35:37.906Z</time></trkpt><trkpt lat="44.4142567" lon="10.47675"><ele>528.0</ele><time>2026-04-19T09:35:38.909Z</time></trkpt><trkpt lat="44.4141033" lon="10.4767333"><ele>528.0</ele><time>2026-04-19T09:35:39.916Z</time></trkpt><trkpt lat="44.4139383" lon="10.47674"><ele>528.0</ele><time>2026-04-19T09:35:40.913Z</time></trkpt><trkpt lat="44.413775" lon="10.47674"><ele>528.0</ele><time>2026-04-19T09:35:41.921Z</time></trkpt><trkpt lat="44.41362" lon="10.4767267"><ele>528.5</ele><time>2026-04-19T09:35:42.924Z</time></trkpt><trkpt lat="44.4134733" lon="10.4766833"><ele>529.0</ele><time>2026-04-19T09:35:43.916Z</time></trkpt><trkpt lat="44.4133383" lon="10.4765983"><ele>529.5</ele><time>2026-04-19T09:35:44.906Z</time></trkpt><trkpt lat="44.4132233" lon="10.476495"><ele>530.0</ele><time>2026-04-19T09:35:45.905Z</time></trkpt><trkpt lat="44.413135" lon="10.4763833"><ele>530.0</ele><time>2026-04-19T09:35:46.945Z</time></trkpt><trkpt lat="44.4130783" lon="10.47626"><ele>530.0</ele><time>2026-04-19T09:35:47.908Z</time></trkpt><trkpt lat="44.4130517" lon="10.4761167"><ele>530.0</ele><time>2026-04-19T09:35:48.908Z</time></trkpt><trkpt lat="44.4130533" lon="10.47595"><ele>530.0</ele><time>2026-04-19T09:35:49.906Z</time></trkpt><trkpt lat="44.4130833" lon="10.475775"><ele>530.0</ele><time>2026-04-19T09:35:50.92Z</time></trkpt><trkpt lat="44.4131283" lon="10.475585"><ele>530.0</ele><time>2026-04-19T09:35:51.959Z</time></trkpt><trkpt lat="44.4131517" lon="10.475365"><ele>530.0</ele><time>2026-04-19T09:35:52.926Z</time></trkpt><trkpt lat="44.4131517" lon="10.4751383"><ele>528.6666666666666</ele><time>2026-04-19T09:35:53.937Z</time></trkpt><trkpt lat="44.4131417" lon="10.4749133"><ele>527.3333333333334</ele><time>2026-04-19T09:35:54.917Z</time></trkpt><trkpt lat="44.413125" lon="10.4746917"><ele>526.0</ele><time>2026-04-19T09:35:55.953Z</time></trkpt><trkpt lat="44.4131033" lon="10.4744783"><ele>526.0</ele><time>2026-04-19T09:35:56.907Z</time></trkpt><trkpt lat="44.4130717" lon="10.47429"><ele>526.0</ele><time>2026-04-19T09:35:57.913Z</time></trkpt><trkpt lat="44.4130183" lon="10.4741117"><ele>526.0</ele><time>2026-04-19T09:35:58.912Z</time></trkpt><trkpt lat="44.4129367" lon="10.47395"><ele>526.0</ele><time>2026-04-19T09:35:59.911Z</time></trkpt><trkpt lat="44.4128317" lon="10.473805"><ele>524.5</ele><time>2026-04-19T09:36:00.965Z</time></trkpt><trkpt lat="44.4127083" lon="10.4736767"><ele>523.0</ele><time>2026-04-19T09:36:01.937Z</time></trkpt><trkpt lat="44.4125817" lon="10.4735633"><ele>521.5</ele><time>2026-04-19T09:36:02.947Z</time></trkpt><trkpt lat="44.4124583" lon="10.4734567"><ele>520.0</ele><time>2026-04-19T09:36:03.908Z</time></trkpt><trkpt lat="44.4123367" lon="10.4733783"><ele>520.0</ele><time>2026-04-19T09:36:04.916Z</time></trkpt><trkpt lat="44.4122167" lon="10.473345"><ele>520.0</ele><time>2026-04-19T09:36:05.906Z</time></trkpt><trkpt lat="44.4120917" lon="10.473355"><ele>520.0</ele><time>2026-04-19T09:36:06.908Z</time></trkpt><trkpt lat="44.411975" lon="10.47338"><ele>520.0</ele><time>2026-04-19T09:36:07.918Z</time></trkpt><trkpt lat="44.4118667" lon="10.473405"><ele>517.4</ele><time>2026-04-19T09:36:08.91Z</time></trkpt><trkpt lat="44.41177" lon="10.473405"><ele>514.8</ele><time>2026-04-19T09:36:09.933Z</time></trkpt><trkpt lat="44.4116767" lon="10.4733717"><ele>512.2</ele><time>2026-04-19T09:36:10.912Z</time></trkpt><trkpt lat="44.4115983" lon="10.4732967"><ele>509.6</ele><time>2026-04-19T09:36:11.912Z</time></trkpt><trkpt lat="44.411525" lon="10.4731817"><ele>507.0</ele><time>2026-04-19T09:36:12.905Z</time></trkpt><trkpt lat="44.411445" lon="10.473045"><ele>508.75</ele><time>2026-04-19T09:36:13.915Z</time></trkpt><trkpt lat="44.4113633" lon="10.4729083"><ele>510.5</ele><time>2026-04-19T09:36:14.917Z</time></trkpt><trkpt lat="44.4112817" lon="10.4727733"><ele>512.25</ele><time>2026-04-19T09:36:15.912Z</time></trkpt><trkpt lat="44.411205" lon="10.4726367"><ele>514.0</ele><time>2026-04-19T09:36:16.911Z</time></trkpt><trkpt lat="44.4111417" lon="10.4724867"><ele>509.0</ele><time>2026-04-19T09:36:17.938Z</time></trkpt><trkpt lat="44.4110967" lon="10.4723233"><ele>504.0</ele><time>2026-04-19T09:36:18.924Z</time></trkpt><trkpt lat="44.4110833" lon="10.4721383"><ele>499.0</ele><time>2026-04-19T09:36:19.915Z</time></trkpt><trkpt lat="44.4110783" lon="10.47195"><ele>494.0</ele><time>2026-04-19T09:36:20.921Z</time></trkpt><trkpt lat="44.4110767" lon="10.4717617"><ele>493.5</ele><time>2026-04-19T09:36:21.911Z</time></trkpt><trkpt lat="44.4110583" lon="10.471595"><ele>493.0</ele><time>2026-04-19T09:36:22.929Z</time></trkpt><trkpt lat="44.41101" lon="10.4714533"><ele>492.5</ele><time>2026-04-19T09:36:23.909Z</time></trkpt><trkpt lat="44.41092" lon="10.471335"><ele>492.0</ele><time>2026-04-19T09:36:24.918Z</time></trkpt><trkpt lat="44.4108133" lon="10.4712367"><ele>493.25</ele><time>2026-04-19T09:36:25.917Z</time></trkpt><trkpt lat="44.4107" lon="10.471155"><ele>494.5</ele><time>2026-04-19T09:36:26.936Z</time></trkpt><trkpt lat="44.41058" lon="10.4710783"><ele>495.75</ele><time>2026-04-19T09:36:27.912Z</time></trkpt><trkpt lat="44.41047" lon="10.4710117"><ele>497.0</ele><time>2026-04-19T09:36:28.908Z</time></trkpt><trkpt lat="44.4103783" lon="10.4709417"><ele>491.0</ele><time>2026-04-19T09:36:29.911Z</time></trkpt><trkpt lat="44.4102983" lon="10.470845"><ele>485.0</ele><time>2026-04-19T09:36:30.932Z</time></trkpt><trkpt lat="44.410235" lon="10.4707033"><ele>479.0</ele><time>2026-04-19T09:36:31.924Z</time></trkpt><trkpt lat="44.4101733" lon="10.4705317"><ele>473.0</ele><time>2026-04-19T09:36:32.921Z</time></trkpt><trkpt lat="44.4101083" lon="10.47034"><ele>473.0</ele><time>2026-04-19T09:36:33.922Z</time></trkpt><trkpt lat="44.4100367" lon="10.4701433"><ele>473.0</ele><time>2026-04-19T09:36:34.911Z</time></trkpt><trkpt lat="44.4099667" lon="10.469945"><ele>473.0</ele><time>2026-04-19T09:36:35.915Z</time></trkpt><trkpt lat="44.409905" lon="10.4697383"><ele>472.25</ele><time>2026-04-19T09:36:36.911Z</time></trkpt><trkpt lat="44.409845" lon="10.469535"><ele>471.5</ele><time>2026-04-19T09:36:37.91Z</time></trkpt><trkpt lat="44.4098017" lon="10.4693383"><ele>470.75</ele><time>2026-04-19T09:36:38.908Z</time></trkpt><trkpt lat="44.4097733" lon="10.4691517"><ele>470.0</ele><time>2026-04-19T09:36:39.937Z</time></trkpt><trkpt lat="44.40976" lon="10.4689783"><ele>470.0</ele><time>2026-04-19T09:36:40.919Z</time></trkpt><trkpt lat="44.4097633" lon="10.4688233"><ele>470.0</ele><time>2026-04-19T09:36:41.911Z</time></trkpt><trkpt lat="44.409795" lon="10.4686917"><ele>470.0</ele><time>2026-04-19T09:36:42.918Z</time></trkpt><trkpt lat="44.409845" lon="10.4685733"><ele>470.0</ele><time>2026-04-19T09:36:43.917Z</time></trkpt><trkpt lat="44.409915" lon="10.46847"><ele>470.0</ele><time>2026-04-19T09:36:44.907Z</time></trkpt><trkpt lat="44.4099733" lon="10.4683717"><ele>468.4</ele><time>2026-04-19T09:36:45.965Z</time></trkpt><trkpt lat="44.41001" lon="10.4682633"><ele>466.8</ele><time>2026-04-19T09:36:46.946Z</time></trkpt><trkpt lat="44.4099967" lon="10.468125"><ele>465.20000000000005</ele><time>2026-04-19T09:36:47.932Z</time></trkpt><trkpt lat="44.4099567" lon="10.4679583"><ele>463.6</ele><time>2026-04-19T09:36:48.908Z</time></trkpt><trkpt lat="44.4099267" lon="10.467785"><ele>462.0</ele><time>2026-04-19T09:36:49.909Z</time></trkpt><trkpt lat="44.4099083" lon="10.4676167"><ele>458.8</ele><time>2026-04-19T09:36:50.915Z</time></trkpt><trkpt lat="44.409895" lon="10.4674533"><ele>455.6</ele><time>2026-04-19T09:36:51.912Z</time></trkpt><trkpt lat="44.4098767" lon="10.4673017"><ele>452.40000000000003</ele><time>2026-04-19T09:36:52.916Z</time></trkpt><trkpt lat="44.4098417" lon="10.4671833"><ele>449.20000000000005</ele><time>2026-04-19T09:36:53.923Z</time></trkpt><trkpt lat="44.409795" lon="10.46709"><ele>446.0</ele><time>2026-04-19T09:36:54.912Z</time></trkpt><trkpt lat="44.4097317" lon="10.4670233"><ele>444.75</ele><time>2026-04-19T09:36:55.92Z</time></trkpt><trkpt lat="44.40963" lon="10.4670417"><ele>443.5</ele><time>2026-04-19T09:36:56.911Z</time></trkpt><trkpt lat="44.4095383" lon="10.467105"><ele>442.25</ele><time>2026-04-19T09:36:57.907Z</time></trkpt><trkpt lat="44.4094533" lon="10.4672233"><ele>441.0</ele><time>2026-04-19T09:36:58.924Z</time></trkpt><trkpt lat="44.4093733" lon="10.4673717"><ele>441.0</ele><time>2026-04-19T09:36:59.912Z</time></trkpt><trkpt lat="44.4092817" lon="10.46752"><ele>441.0</ele><time>2026-04-19T09:37:00.906Z</time></trkpt><trkpt lat="44.409185" lon="10.4676517"><ele>441.0</ele><time>2026-04-19T09:37:01.969Z</time></trkpt><trkpt lat="44.4090867" lon="10.4677883"><ele>441.0</ele><time>2026-04-19T09:37:02.962Z</time></trkpt><trkpt lat="44.4089883" lon="10.4679383"><ele>440.25</ele><time>2026-04-19T09:37:03.941Z</time></trkpt><trkpt lat="44.40889" lon="10.468085"><ele>439.5</ele><time>2026-04-19T09:37:04.925Z</time></trkpt><trkpt lat="44.4087883" lon="10.46822"><ele>438.75</ele><time>2026-04-19T09:37:05.998Z</time></trkpt><trkpt lat="44.408675" lon="10.4683233"><ele>438.0</ele><time>2026-04-19T09:37:06.94Z</time></trkpt><trkpt lat="44.4085417" lon="10.4683983"><ele>438.0</ele><time>2026-04-19T09:37:07.909Z</time></trkpt><trkpt lat="44.408395" lon="10.4684483"><ele>438.0</ele><time>2026-04-19T09:37:08.907Z</time></trkpt><trkpt lat="44.4082533" lon="10.4684967"><ele>438.0</ele><time>2026-04-19T09:37:09.943Z</time></trkpt><trkpt lat="44.4081217" lon="10.4685367"><ele>438.0</ele><time>2026-04-19T09:37:10.913Z</time></trkpt><trkpt lat="44.4080083" lon="10.4685733"><ele>435.6666666666667</ele><time>2026-04-19T09:37:11.964Z</time></trkpt><trkpt lat="44.407915" lon="10.468595"><ele>433.33333333333337</ele><time>2026-04-19T09:37:12.906Z</time></trkpt><trkpt lat="44.407835" lon="10.4686133"><ele>431.0</ele><time>2026-04-19T09:37:13.951Z</time></trkpt><trkpt lat="44.40777" lon="10.46862"><ele>428.6666666666667</ele><time>2026-04-19T09:37:14.909Z</time></trkpt><trkpt lat="44.4077567" lon="10.4685217"><ele>426.33333333333337</ele><time>2026-04-19T09:37:16.912Z</time></trkpt><trkpt lat="44.407805" lon="10.468455"><ele>424.0</ele><time>2026-04-19T09:37:17.908Z</time></trkpt><trkpt lat="44.40791" lon="10.4684183"><ele>427.5</ele><time>2026-04-19T09:37:18.929Z</time></trkpt><trkpt lat="44.4080233" lon="10.4683733"><ele>431.0</ele><time>2026-04-19T09:37:19.909Z</time></trkpt><trkpt lat="44.4081517" lon="10.4683117"><ele>434.5</ele><time>2026-04-19T09:37:20.907Z</time></trkpt><trkpt lat="44.4082783" lon="10.468215"><ele>438.0</ele><time>2026-04-19T09:37:21.929Z</time></trkpt><trkpt lat="44.4084033" lon="10.4680733"><ele>431.33333333333337</ele><time>2026-04-19T09:37:22.925Z</time></trkpt><trkpt lat="44.4085233" lon="10.4679"><ele>424.6666666666667</ele><time>2026-04-19T09:37:23.911Z</time></trkpt><trkpt lat="44.40864" lon="10.467715"><ele>418.0</ele><time>2026-04-19T09:37:24.911Z</time></trkpt><trkpt lat="44.4087533" lon="10.4675267"><ele>418.33333333333337</ele><time>2026-04-19T09:37:25.936Z</time></trkpt><trkpt lat="44.4088633" lon="10.467345"><ele>418.66666666666663</ele><time>2026-04-19T09:37:26.923Z</time></trkpt><trkpt lat="44.4089667" lon="10.46717"><ele>419.0</ele><time>2026-04-19T09:37:27.917Z</time></trkpt><trkpt lat="44.4090583" lon="10.466985"><ele>419.0</ele><time>2026-04-19T09:37:28.911Z</time></trkpt><trkpt lat="44.4091383" lon="10.4668067"><ele>419.0</ele><time>2026-04-19T09:37:29.92Z</time></trkpt><trkpt lat="44.40921" lon="10.4666283"><ele>419.0</ele><time>2026-04-19T09:37:30.908Z</time></trkpt><trkpt lat="44.4092733" lon="10.4664417"><ele>419.0</ele><time>2026-04-19T09:37:31.909Z</time></trkpt><trkpt lat="44.40933" lon="10.466255"><ele>415.0</ele><time>2026-04-19T09:37:32.917Z</time></trkpt><trkpt lat="44.4093833" lon="10.4660767"><ele>411.0</ele><time>2026-04-19T09:37:33.908Z</time></trkpt><trkpt lat="44.4094317" lon="10.4659183"><ele>407.0</ele><time>2026-04-19T09:37:34.926Z</time></trkpt><trkpt lat="44.4094833" lon="10.4657833"><ele>403.0</ele><time>2026-04-19T09:37:35.952Z</time></trkpt><trkpt lat="44.4095483" lon="10.46569"><ele>403.0</ele><time>2026-04-19T09:37:36.906Z</time></trkpt><trkpt lat="44.40963" lon="10.4656383"><ele>403.0</ele><time>2026-04-19T09:37:37.92Z</time></trkpt><trkpt lat="44.409715" lon="10.4655817"><ele>403.0</ele><time>2026-04-19T09:37:38.942Z</time></trkpt><trkpt lat="44.4098217" lon="10.4655583"><ele>403.0</ele><time>2026-04-19T09:37:39.909Z</time></trkpt><trkpt lat="44.4099533" lon="10.46561"><ele>403.0</ele><time>2026-04-19T09:37:40.956Z</time></trkpt><trkpt lat="44.4100933" lon="10.4657117"><ele>405.5</ele><time>2026-04-19T09:37:41.941Z</time></trkpt><trkpt lat="44.4102217" lon="10.4658317"><ele>408.0</ele><time>2026-04-19T09:37:42.945Z</time></trkpt><trkpt lat="44.4103267" lon="10.4659333"><ele>410.5</ele><time>2026-04-19T09:37:43.907Z</time></trkpt><trkpt lat="44.4104133" lon="10.4660333"><ele>413.0</ele><time>2026-04-19T09:37:44.977Z</time></trkpt><trkpt lat="44.4105017" lon="10.466095"><ele>414.59999999999997</ele><time>2026-04-19T09:37:45.909Z</time></trkpt><trkpt lat="44.4105833" lon="10.46613"><ele>416.2</ele><time>2026-04-19T09:37:46.909Z</time></trkpt><trkpt lat="44.4106717" lon="10.4661033"><ele>417.8</ele><time>2026-04-19T09:37:47.924Z</time></trkpt><trkpt lat="44.4107367" lon="10.46605"><ele>419.4</ele><time>2026-04-19T09:37:48.905Z</time></trkpt><trkpt lat="44.4107467" lon="10.4659217"><ele>421.0</ele><time>2026-04-19T09:37:49.908Z</time></trkpt><trkpt lat="44.4107367" lon="10.46577"><ele>421.0</ele><time>2026-04-19T09:37:50.908Z</time></trkpt><trkpt lat="44.4106983" lon="10.4656233"><ele>421.0</ele><time>2026-04-19T09:37:51.943Z</time></trkpt><trkpt lat="44.4106717" lon="10.4654967"><ele>421.0</ele><time>2026-04-19T09:37:52.912Z</time></trkpt><trkpt lat="44.4106733" lon="10.4653683"><ele>421.0</ele><time>2026-04-19T09:37:53.908Z</time></trkpt><trkpt lat="44.4107133" lon="10.4652217"><ele>421.0</ele><time>2026-04-19T09:37:54.916Z</time></trkpt><trkpt lat="44.4107867" lon="10.4650383"><ele>418.0</ele><time>2026-04-19T09:37:55.915Z</time></trkpt><trkpt lat="44.4108683" lon="10.4648267"><ele>415.0</ele><time>2026-04-19T09:37:56.91Z</time></trkpt><trkpt lat="44.4109483" lon="10.464605"><ele>412.0</ele><time>2026-04-19T09:37:57.916Z</time></trkpt><trkpt lat="44.4110283" lon="10.46437"><ele>408.6666666666667</ele><time>2026-04-19T09:37:58.921Z</time></trkpt><trkpt lat="44.4111" lon="10.4641333"><ele>405.33333333333337</ele><time>2026-04-19T09:37:59.957Z</time></trkpt><trkpt lat="44.4111617" lon="10.4638833"><ele>402.0</ele><time>2026-04-19T09:38:00.911Z</time></trkpt><trkpt lat="44.4112233" lon="10.4636433"><ele>401.33333333333337</ele><time>2026-04-19T09:38:01.91Z</time></trkpt><trkpt lat="44.4112767" lon="10.4634133"><ele>400.6666666666667</ele><time>2026-04-19T09:38:02.927Z</time></trkpt><trkpt lat="44.4113217" lon="10.4632033"><ele>400.0</ele><time>2026-04-19T09:38:03.912Z</time></trkpt><trkpt lat="44.4113633" lon="10.46302"><ele>400.4</ele><time>2026-04-19T09:38:04.913Z</time></trkpt><trkpt lat="44.4113817" lon="10.4628617"><ele>400.8</ele><time>2026-04-19T09:38:05.928Z</time></trkpt><trkpt lat="44.4113817" lon="10.4627217"><ele>401.20000000000005</ele><time>2026-04-19T09:38:06.91Z</time></trkpt><trkpt lat="44.4113567" lon="10.46259"><ele>401.6</ele><time>2026-04-19T09:38:07.91Z</time></trkpt><trkpt lat="44.4113283" lon="10.4624833"><ele>402.0</ele><time>2026-04-19T09:38:08.916Z</time></trkpt><trkpt lat="44.4113233" lon="10.4623283"><ele>403.5</ele><time>2026-04-19T09:38:10.914Z</time></trkpt><trkpt lat="44.4113467" lon="10.4622317"><ele>405.0</ele><time>2026-04-19T09:38:12.918Z</time></trkpt><trkpt lat="44.41141" lon="10.462155"><ele>406.5</ele><time>2026-04-19T09:39:21.909Z</time></trkpt><trkpt lat="44.4114417" lon="10.4620783"><ele>408.0</ele><time>2026-04-19T09:39:24.906Z</time></trkpt><trkpt lat="44.4114133" lon="10.4619367"><ele>409.5</ele><time>2026-04-19T09:39:32.911Z</time></trkpt><trkpt lat="44.4113083" lon="10.461885"><ele>411.0</ele><time>2026-04-19T09:39:36.905Z</time></trkpt><trkpt lat="44.411245" lon="10.4619067"><ele>411.0</ele><time>2026-04-19T09:39:37.909Z</time></trkpt><trkpt lat="44.41117" lon="10.461955"><ele>411.0</ele><time>2026-04-19T09:39:38.91Z</time></trkpt><trkpt lat="44.4110983" lon="10.4620067"><ele>411.0</ele><time>2026-04-19T09:39:39.911Z</time></trkpt><trkpt lat="44.411025" lon="10.4620583"><ele>411.0</ele><time>2026-04-19T09:39:40.908Z</time></trkpt><trkpt lat="44.41096" lon="10.4621083"><ele>411.0</ele><time>2026-04-19T09:39:41.909Z</time></trkpt><trkpt lat="44.4108967" lon="10.4621617"><ele>411.0</ele><time>2026-04-19T09:39:42.929Z</time></trkpt><trkpt lat="44.4108383" lon="10.4622183"><ele>409.5</ele><time>2026-04-19T09:39:43.908Z</time></trkpt><trkpt lat="44.410785" lon="10.46229"><ele>408.0</ele><time>2026-04-19T09:39:44.923Z</time></trkpt><trkpt lat="44.410735" lon="10.46237"><ele>406.5</ele><time>2026-04-19T09:39:45.957Z</time></trkpt><trkpt lat="44.4106867" lon="10.4624633"><ele>405.0</ele><time>2026-04-19T09:39:46.925Z</time></trkpt><trkpt lat="44.4106383" lon="10.4625583"><ele>403.5</ele><time>2026-04-19T09:39:47.968Z</time></trkpt><trkpt lat="44.41059" lon="10.4626533"><ele>402.0</ele><time>2026-04-19T09:39:48.933Z</time></trkpt><trkpt lat="44.41054" lon="10.4627517"><ele>402.8</ele><time>2026-04-19T09:39:49.91Z</time></trkpt><trkpt lat="44.4104833" lon="10.46285"><ele>403.6</ele><time>2026-04-19T09:39:50.914Z</time></trkpt><trkpt lat="44.410425" lon="10.4629533"><ele>404.40000000000003</ele><time>2026-04-19T09:39:51.911Z</time></trkpt><trkpt lat="44.4103617" lon="10.4630567"><ele>405.20000000000005</ele><time>2026-04-19T09:39:52.908Z</time></trkpt><trkpt lat="44.4102933" lon="10.4631617"><ele>406.0</ele><time>2026-04-19T09:39:53.91Z</time></trkpt><trkpt lat="44.410215" lon="10.4632617"><ele>406.0</ele><time>2026-04-19T09:39:54.912Z</time></trkpt><trkpt lat="44.4101283" lon="10.4633517"><ele>406.0</ele><time>2026-04-19T09:39:55.912Z</time></trkpt><trkpt lat="44.4100333" lon="10.4634317"><ele>406.0</ele><time>2026-04-19T09:39:56.909Z</time></trkpt><trkpt lat="44.40994" lon="10.463505"><ele>406.0</ele><time>2026-04-19T09:39:57.926Z</time></trkpt><trkpt lat="44.4098483" lon="10.4635733"><ele>406.0</ele><time>2026-04-19T09:39:58.91Z</time></trkpt><trkpt lat="44.4097633" lon="10.4636433"><ele>406.0</ele><time>2026-04-19T09:39:59.909Z</time></trkpt><trkpt lat="44.40967" lon="10.4637133"><ele>406.0</ele><time>2026-04-19T09:40:00.906Z</time></trkpt><trkpt lat="44.4095717" lon="10.46378"><ele>406.0</ele><time>2026-04-19T09:40:01.908Z</time></trkpt><trkpt lat="44.4094717" lon="10.4638433"><ele>406.0</ele><time>2026-04-19T09:40:02.957Z</time></trkpt><trkpt lat="44.4093633" lon="10.4639017"><ele>406.0</ele><time>2026-04-19T09:40:03.964Z</time></trkpt><trkpt lat="44.4092483" lon="10.4639467"><ele>406.0</ele><time>2026-04-19T09:40:04.913Z</time></trkpt><trkpt lat="44.4091317" lon="10.4639733"><ele>406.0</ele><time>2026-04-19T09:40:05.984Z</time></trkpt><trkpt lat="44.409015" lon="10.4639983"><ele>406.0</ele><time>2026-04-19T09:40:06.908Z</time></trkpt><trkpt lat="44.4089067" lon="10.4640283"><ele>406.0</ele><time>2026-04-19T09:40:07.937Z</time></trkpt><trkpt lat="44.4088033" lon="10.46407"><ele>406.0</ele><time>2026-04-19T09:40:08.908Z</time></trkpt><trkpt lat="44.4087033" lon="10.4641333"><ele>406.0</ele><time>2026-04-19T09:40:09.91Z</time></trkpt><trkpt lat="44.4086117" lon="10.4642233"><ele>406.0</ele><time>2026-04-19T09:40:10.912Z</time></trkpt><trkpt lat="44.408525" lon="10.46432"><ele>406.0</ele><time>2026-04-19T09:40:11.919Z</time></trkpt><trkpt lat="44.40844" lon="10.46441"><ele>406.0</ele><time>2026-04-19T09:40:12.905Z</time></trkpt><trkpt lat="44.4083567" lon="10.464515"><ele>403.0</ele><time>2026-04-19T09:40:13.921Z</time></trkpt><trkpt lat="44.4082733" lon="10.4646233"><ele>400.0</ele><time>2026-04-19T09:40:14.909Z</time></trkpt><trkpt lat="44.4081883" lon="10.4647317"><ele>397.0</ele><time>2026-04-19T09:40:15.909Z</time></trkpt><trkpt lat="44.408105" lon="10.4648367"><ele>394.0</ele><time>2026-04-19T09:40:16.912Z</time></trkpt><trkpt lat="44.4080233" lon="10.4649383"><ele>396.4</ele><time>2026-04-19T09:40:17.91Z</time></trkpt><trkpt lat="44.407945" lon="10.46503"><ele>398.79999999999995</ele><time>2026-04-19T09:40:18.92Z</time></trkpt><trkpt lat="44.4078667" lon="10.4651133"><ele>401.20000000000005</ele><time>2026-04-19T09:40:19.912Z</time></trkpt><trkpt lat="44.407785" lon="10.465195"><ele>403.6</ele><time>2026-04-19T09:40:20.904Z</time></trkpt><trkpt lat="44.4077" lon="10.4652783"><ele>406.0</ele><time>2026-04-19T09:40:21.93Z</time></trkpt><trkpt lat="44.407615" lon="10.4653583"><ele>406.0</ele><time>2026-04-19T09:40:22.931Z</time></trkpt><trkpt lat="44.4075283" lon="10.4654367"><ele>406.0</ele><time>2026-04-19T09:40:23.911Z</time></trkpt><trkpt lat="44.4074417" lon="10.4655133"><ele>406.0</ele><time>2026-04-19T09:40:24.911Z</time></trkpt><trkpt lat="44.4073433" lon="10.4655733"><ele>406.0</ele><time>2026-04-19T09:40:25.911Z</time></trkpt><trkpt lat="44.4072333" lon="10.46562"><ele>406.0</ele><time>2026-04-19T09:40:26.908Z</time></trkpt><trkpt lat="44.4070983" lon="10.4656483"><ele>404.33333333333337</ele><time>2026-04-19T09:40:27.956Z</time></trkpt><trkpt lat="44.4069533" lon="10.4656783"><ele>402.66666666666663</ele><time>2026-04-19T09:40:28.929Z</time></trkpt><trkpt lat="44.4068" lon="10.4657233"><ele>401.0</ele><time>2026-04-19T09:40:29.91Z</time></trkpt><trkpt lat="44.4066367" lon="10.4657867"><ele>401.0</ele><time>2026-04-19T09:40:30.907Z</time></trkpt><trkpt lat="44.4064633" lon="10.4658617"><ele>401.0</ele><time>2026-04-19T09:40:31.953Z</time></trkpt><trkpt lat="44.4062817" lon="10.4659417"><ele>401.0</ele><time>2026-04-19T09:40:32.906Z</time></trkpt><trkpt lat="44.4061" lon="10.466025"><ele>402.3333333333333</ele><time>2026-04-19T09:40:33.936Z</time></trkpt><trkpt lat="44.40593" lon="10.466115"><ele>403.66666666666663</ele><time>2026-04-19T09:40:34.923Z</time></trkpt><trkpt lat="44.40577" lon="10.46621"><ele>405.0</ele><time>2026-04-19T09:40:35.928Z</time></trkpt><trkpt lat="44.40563" lon="10.466295"><ele>401.25</ele><time>2026-04-19T09:40:36.915Z</time></trkpt><trkpt lat="44.4055067" lon="10.4663667"><ele>397.5</ele><time>2026-04-19T09:40:37.903Z</time></trkpt><trkpt lat="44.4053867" lon="10.46642"><ele>393.75</ele><time>2026-04-19T09:40:38.911Z</time></trkpt><trkpt lat="44.405265" lon="10.466445"><ele>390.0</ele><time>2026-04-19T09:40:39.923Z</time></trkpt><trkpt lat="44.4051383" lon="10.4664317"><ele>389.75</ele><time>2026-04-19T09:40:40.907Z</time></trkpt><trkpt lat="44.4050133" lon="10.4663567"><ele>389.5</ele><time>2026-04-19T09:40:41.907Z</time></trkpt><trkpt lat="44.4048883" lon="10.466235"><ele>389.25</ele><time>2026-04-19T09:40:42.928Z</time></trkpt><trkpt lat="44.40477" lon="10.4661"><ele>389.0</ele><time>2026-04-19T09:40:43.912Z</time></trkpt><trkpt lat="44.4046533" lon="10.4659717"><ele>391.0</ele><time>2026-04-19T09:40:44.909Z</time></trkpt><trkpt lat="44.4045433" lon="10.46586"><ele>393.0</ele><time>2026-04-19T09:40:46.087Z</time></trkpt><trkpt lat="44.404335" lon="10.465665"><ele>395.0</ele><time>2026-04-19T09:40:47.912Z</time></trkpt><trkpt lat="44.40423" lon="10.4656"><ele>395.0</ele><time>2026-04-19T09:40:48.906Z</time></trkpt><trkpt lat="44.4041217" lon="10.4655717"><ele>395.0</ele><time>2026-04-19T09:40:49.93Z</time></trkpt><trkpt lat="44.4040183" lon="10.465565"><ele>395.0</ele><time>2026-04-19T09:40:50.912Z</time></trkpt><trkpt lat="44.4039183" lon="10.4655717"><ele>395.0</ele><time>2026-04-19T09:40:51.916Z</time></trkpt><trkpt lat="44.4038183" lon="10.4655733"><ele>395.0</ele><time>2026-04-19T09:40:52.943Z</time></trkpt><trkpt lat="44.4037267" lon="10.4655717"><ele>392.8</ele><time>2026-04-19T09:40:53.918Z</time></trkpt><trkpt lat="44.4036383" lon="10.4655817"><ele>390.6</ele><time>2026-04-19T09:40:54.917Z</time></trkpt><trkpt lat="44.4035467" lon="10.46561"><ele>388.4</ele><time>2026-04-19T09:40:55.935Z</time></trkpt><trkpt lat="44.4034533" lon="10.4656517"><ele>386.2</ele><time>2026-04-19T09:40:56.911Z</time></trkpt><trkpt lat="44.4033617" lon="10.465715"><ele>384.0</ele><time>2026-04-19T09:40:57.911Z</time></trkpt><trkpt lat="44.4032633" lon="10.4657933"><ele>384.0</ele><time>2026-04-19T09:40:58.912Z</time></trkpt><trkpt lat="44.4031667" lon="10.4658833"><ele>384.0</ele><time>2026-04-19T09:40:59.908Z</time></trkpt><trkpt lat="44.4030733" lon="10.4659683"><ele>384.0</ele><time>2026-04-19T09:41:00.909Z</time></trkpt><trkpt lat="44.4029867" lon="10.4660467"><ele>384.0</ele><time>2026-04-19T09:41:01.91Z</time></trkpt><trkpt lat="44.4029033" lon="10.46612"><ele>384.0</ele><time>2026-04-19T09:41:02.908Z</time></trkpt><trkpt lat="44.4028233" lon="10.4661917"><ele>384.0</ele><time>2026-04-19T09:41:03.911Z</time></trkpt><trkpt lat="44.4027433" lon="10.4662683"><ele>384.0</ele><time>2026-04-19T09:41:04.915Z</time></trkpt><trkpt lat="44.40266" lon="10.466345"><ele>384.0</ele><time>2026-04-19T09:41:05.922Z</time></trkpt><trkpt lat="44.402575" lon="10.46642"><ele>384.0</ele><time>2026-04-19T09:41:06.908Z</time></trkpt><trkpt lat="44.4024867" lon="10.4664967"><ele>384.0</ele><time>2026-04-19T09:41:07.928Z</time></trkpt><trkpt lat="44.4023967" lon="10.466575"><ele>384.0</ele><time>2026-04-19T09:41:08.913Z</time></trkpt><trkpt lat="44.40231" lon="10.46665"><ele>384.0</ele><time>2026-04-19T09:41:09.955Z</time></trkpt><trkpt lat="44.4022267" lon="10.4667283"><ele>384.0</ele><time>2026-04-19T09:41:10.912Z</time></trkpt><trkpt lat="44.4021433" lon="10.4668067"><ele>384.0</ele><time>2026-04-19T09:41:11.943Z</time></trkpt><trkpt lat="44.4020683" lon="10.4668783"><ele>384.0</ele><time>2026-04-19T09:41:12.906Z</time></trkpt><trkpt lat="44.4019983" lon="10.466945"><ele>385.5</ele><time>2026-04-19T09:41:13.91Z</time></trkpt><trkpt lat="44.4019317" lon="10.4670117"><ele>387.0</ele><time>2026-04-19T09:41:14.908Z</time></trkpt><trkpt lat="44.4018683" lon="10.4670817"><ele>388.5</ele><time>2026-04-19T09:41:15.912Z</time></trkpt><trkpt lat="44.401815" lon="10.4671533"><ele>390.0</ele><time>2026-04-19T09:41:16.908Z</time></trkpt><trkpt lat="44.4017767" lon="10.4672283"><ele>391.5</ele><time>2026-04-19T09:41:17.905Z</time></trkpt><trkpt lat="44.4017183" lon="10.467365"><ele>393.0</ele><time>2026-04-19T09:41:19.916Z</time></trkpt><trkpt lat="44.4016317" lon="10.4673633"><ele>393.0</ele><time>2026-04-19T09:41:21.914Z</time></trkpt><trkpt lat="44.40158" lon="10.4673017"><ele>393.0</ele><time>2026-04-19T09:41:22.953Z</time></trkpt><trkpt lat="44.4015267" lon="10.4672317"><ele>393.0</ele><time>2026-04-19T09:41:23.938Z</time></trkpt><trkpt lat="44.401475" lon="10.4671283"><ele>393.0</ele><time>2026-04-19T09:41:24.927Z</time></trkpt><trkpt lat="44.4014133" lon="10.4670033"><ele>393.0</ele><time>2026-04-19T09:41:25.917Z</time></trkpt><trkpt lat="44.40135" lon="10.4668617"><ele>396.5</ele><time>2026-04-19T09:41:26.926Z</time></trkpt><trkpt lat="44.40129" lon="10.466695"><ele>400.0</ele><time>2026-04-19T09:41:27.97Z</time></trkpt><trkpt lat="44.4012433" lon="10.4665383"><ele>403.5</ele><time>2026-04-19T09:41:28.909Z</time></trkpt><trkpt lat="44.4012267" lon="10.466375"><ele>407.0</ele><time>2026-04-19T09:41:29.92Z</time></trkpt><trkpt lat="44.4012533" lon="10.46621"><ele>407.0</ele><time>2026-04-19T09:41:30.912Z</time></trkpt><trkpt lat="44.4013183" lon="10.4660483"><ele>407.0</ele><time>2026-04-19T09:41:31.906Z</time></trkpt><trkpt lat="44.4013883" lon="10.4659033"><ele>407.0</ele><time>2026-04-19T09:41:32.905Z</time></trkpt><trkpt lat="44.4014583" lon="10.46578"><ele>407.0</ele><time>2026-04-19T09:41:33.906Z</time></trkpt><trkpt lat="44.4015267" lon="10.4656717"><ele>404.16666666666663</ele><time>2026-04-19T09:41:34.929Z</time></trkpt><trkpt lat="44.4015917" lon="10.4655867"><ele>401.3333333333333</ele><time>2026-04-19T09:41:35.911Z</time></trkpt><trkpt lat="44.401655" lon="10.4655367"><ele>398.5</ele><time>2026-04-19T09:41:36.913Z</time></trkpt><trkpt lat="44.4017367" lon="10.4654733"><ele>395.66666666666663</ele><time>2026-04-19T09:41:38.908Z</time></trkpt><trkpt lat="44.4017517" lon="10.4653633"><ele>392.8333333333333</ele><time>2026-04-19T09:41:40.95Z</time></trkpt><trkpt lat="44.4016967" lon="10.46529"><ele>390.0</ele><time>2026-04-19T09:41:41.908Z</time></trkpt><trkpt lat="44.401625" lon="10.46521"><ele>388.75</ele><time>2026-04-19T09:41:42.908Z</time></trkpt><trkpt lat="44.4015467" lon="10.4651217"><ele>387.5</ele><time>2026-04-19T09:41:43.913Z</time></trkpt><trkpt lat="44.4014583" lon="10.4650283"><ele>386.25</ele><time>2026-04-19T09:41:44.913Z</time></trkpt><trkpt lat="44.4013567" lon="10.46493"><ele>385.0</ele><time>2026-04-19T09:41:45.907Z</time></trkpt><trkpt lat="44.4012483" lon="10.4648233"><ele>384.75</ele><time>2026-04-19T09:41:46.935Z</time></trkpt><trkpt lat="44.4011317" lon="10.4647183"><ele>384.5</ele><time>2026-04-19T09:41:47.919Z</time></trkpt><trkpt lat="44.4010167" lon="10.4646217"><ele>384.25</ele><time>2026-04-19T09:41:48.906Z</time></trkpt><trkpt lat="44.400905" lon="10.464535"><ele>384.0</ele><time>2026-04-19T09:41:49.917Z</time></trkpt><trkpt lat="44.4007983" lon="10.4644583"><ele>384.0</ele><time>2026-04-19T09:41:50.917Z</time></trkpt><trkpt lat="44.4007033" lon="10.46439"><ele>384.0</ele><time>2026-04-19T09:41:51.913Z</time></trkpt><trkpt lat="44.4006117" lon="10.4643233"><ele>384.0</ele><time>2026-04-19T09:41:52.907Z</time></trkpt><trkpt lat="44.4005217" lon="10.4642583"><ele>384.0</ele><time>2026-04-19T09:41:53.919Z</time></trkpt><trkpt lat="44.400435" lon="10.4641967"><ele>384.0</ele><time>2026-04-19T09:41:54.907Z</time></trkpt><trkpt lat="44.4003483" lon="10.4641383"><ele>385.4</ele><time>2026-04-19T09:41:55.918Z</time></trkpt><trkpt lat="44.4002633" lon="10.46408"><ele>386.79999999999995</ele><time>2026-04-19T09:41:56.941Z</time></trkpt><trkpt lat="44.4001817" lon="10.46402"><ele>388.20000000000005</ele><time>2026-04-19T09:41:57.908Z</time></trkpt><trkpt lat="44.4001017" lon="10.4639567"><ele>389.6</ele><time>2026-04-19T09:41:58.928Z</time></trkpt><trkpt lat="44.4000217" lon="10.4638967"><ele>391.0</ele><time>2026-04-19T09:41:59.929Z</time></trkpt><trkpt lat="44.3999433" lon="10.4638367"><ele>391.6</ele><time>2026-04-19T09:42:00.926Z</time></trkpt><trkpt lat="44.3998617" lon="10.4637733"><ele>392.20000000000005</ele><time>2026-04-19T09:42:01.909Z</time></trkpt><trkpt lat="44.3997817" lon="10.4637083"><ele>392.79999999999995</ele><time>2026-04-19T09:42:02.917Z</time></trkpt><trkpt lat="44.3997033" lon="10.4636317"><ele>393.4</ele><time>2026-04-19T09:42:03.906Z</time></trkpt><trkpt lat="44.3996217" lon="10.46355"><ele>394.0</ele><time>2026-04-19T09:42:04.911Z</time></trkpt><trkpt lat="44.39954" lon="10.4634617"><ele>394.0</ele><time>2026-04-19T09:42:05.909Z</time></trkpt><trkpt lat="44.3994583" lon="10.4633667"><ele>394.0</ele><time>2026-04-19T09:42:06.906Z</time></trkpt><trkpt lat="44.3993733" lon="10.4632667"><ele>394.0</ele><time>2026-04-19T09:42:07.93Z</time></trkpt><trkpt lat="44.39928" lon="10.4631633"><ele>394.0</ele><time>2026-04-19T09:42:08.908Z</time></trkpt><trkpt lat="44.399185" lon="10.4630583"><ele>394.0</ele><time>2026-04-19T09:42:09.909Z</time></trkpt><trkpt lat="44.3990817" lon="10.4629533"><ele>394.0</ele><time>2026-04-19T09:42:10.908Z</time></trkpt><trkpt lat="44.3989767" lon="10.4628383"><ele>394.0</ele><time>2026-04-19T09:42:11.905Z</time></trkpt><trkpt lat="44.398865" lon="10.4627167"><ele>394.0</ele><time>2026-04-19T09:42:12.907Z</time></trkpt><trkpt lat="44.3987433" lon="10.4626017"><ele>394.0</ele><time>2026-04-19T09:42:13.941Z</time></trkpt><trkpt lat="44.3986167" lon="10.462485"><ele>394.0</ele><time>2026-04-19T09:42:14.931Z</time></trkpt><trkpt lat="44.3984867" lon="10.4623733"><ele>394.0</ele><time>2026-04-19T09:42:15.91Z</time></trkpt><trkpt lat="44.3983517" lon="10.4622717"><ele>394.0</ele><time>2026-04-19T09:42:16.907Z</time></trkpt><trkpt lat="44.3982133" lon="10.4621817"><ele>394.0</ele><time>2026-04-19T09:42:17.967Z</time></trkpt><trkpt lat="44.398075" lon="10.4620883"><ele>394.0</ele><time>2026-04-19T09:42:18.906Z</time></trkpt><trkpt lat="44.39794" lon="10.4619917"><ele>393.6666666666667</ele><time>2026-04-19T09:42:19.909Z</time></trkpt><trkpt lat="44.397805" lon="10.4618833"><ele>393.33333333333337</ele><time>2026-04-19T09:42:20.907Z</time></trkpt><trkpt lat="44.3976733" lon="10.461765"><ele>393.0</ele><time>2026-04-19T09:42:21.909Z</time></trkpt><trkpt lat="44.3975433" lon="10.4616367"><ele>393.0</ele><time>2026-04-19T09:42:22.911Z</time></trkpt><trkpt lat="44.3974133" lon="10.461495"><ele>393.0</ele><time>2026-04-19T09:42:23.925Z</time></trkpt><trkpt lat="44.3972833" lon="10.4613483"><ele>393.0</ele><time>2026-04-19T09:42:24.91Z</time></trkpt><trkpt lat="44.3971583" lon="10.4611933"><ele>396.33333333333337</ele><time>2026-04-19T09:42:25.939Z</time></trkpt><trkpt lat="44.39704" lon="10.4610283"><ele>399.6666666666667</ele><time>2026-04-19T09:42:26.919Z</time></trkpt><trkpt lat="44.3969267" lon="10.46086"><ele>403.0</ele><time>2026-04-19T09:42:27.916Z</time></trkpt><trkpt lat="44.39682" lon="10.4606917"><ele>403.0</ele><time>2026-04-19T09:42:28.94Z</time></trkpt><trkpt lat="44.396715" lon="10.4605167"><ele>403.0</ele><time>2026-04-19T09:42:29.907Z</time></trkpt><trkpt lat="44.39661" lon="10.4603417"><ele>403.0</ele><time>2026-04-19T09:42:30.921Z</time></trkpt><trkpt lat="44.3965033" lon="10.4601667"><ele>407.33333333333337</ele><time>2026-04-19T09:42:31.911Z</time></trkpt><trkpt lat="44.3963967" lon="10.45999"><ele>411.66666666666663</ele><time>2026-04-19T09:42:32.905Z</time></trkpt><trkpt lat="44.3962917" lon="10.4598133"><ele>416.0</ele><time>2026-04-19T09:42:33.909Z</time></trkpt><trkpt lat="44.3961883" lon="10.4596333"><ele>410.66666666666663</ele><time>2026-04-19T09:42:34.942Z</time></trkpt><trkpt lat="44.396085" lon="10.4594483"><ele>405.33333333333337</ele><time>2026-04-19T09:42:35.911Z</time></trkpt><trkpt lat="44.39598" lon="10.45926"><ele>400.0</ele><time>2026-04-19T09:42:36.911Z</time></trkpt><trkpt lat="44.395875" lon="10.4590667"><ele>400.0</ele><time>2026-04-19T09:42:37.908Z</time></trkpt><trkpt lat="44.3957767" lon="10.458865"><ele>400.0</ele><time>2026-04-19T09:42:38.912Z</time></trkpt><trkpt lat="44.39568" lon="10.458655"><ele>400.0</ele><time>2026-04-19T09:42:39.907Z</time></trkpt><trkpt lat="44.39559" lon="10.458435"><ele>402.0</ele><time>2026-04-19T09:42:40.909Z</time></trkpt><trkpt lat="44.3955033" lon="10.4582083"><ele>404.0</ele><time>2026-04-19T09:42:41.914Z</time></trkpt><trkpt lat="44.39542" lon="10.457975"><ele>406.0</ele><time>2026-04-19T09:42:42.916Z</time></trkpt><trkpt lat="44.3953383" lon="10.4577433"><ele>406.0</ele><time>2026-04-19T09:42:43.914Z</time></trkpt><trkpt lat="44.3952583" lon="10.4575133"><ele>406.0</ele><time>2026-04-19T09:42:44.906Z</time></trkpt><trkpt lat="44.3951833" lon="10.4572817"><ele>406.0</ele><time>2026-04-19T09:42:45.92Z</time></trkpt><trkpt lat="44.3951067" lon="10.4570533"><ele>403.0</ele><time>2026-04-19T09:42:46.911Z</time></trkpt><trkpt lat="44.39503" lon="10.4568283"><ele>400.0</ele><time>2026-04-19T09:42:47.91Z</time></trkpt><trkpt lat="44.394955" lon="10.456605"><ele>397.0</ele><time>2026-04-19T09:42:48.928Z</time></trkpt><trkpt lat="44.39488" lon="10.456385"><ele>395.6666666666667</ele><time>2026-04-19T09:42:49.929Z</time></trkpt><trkpt lat="44.394805" lon="10.456165"><ele>394.33333333333337</ele><time>2026-04-19T09:42:50.909Z</time></trkpt><trkpt lat="44.3947333" lon="10.4559467"><ele>393.0</ele><time>2026-04-19T09:42:51.91Z</time></trkpt><trkpt lat="44.3946567" lon="10.45573"><ele>395.66666666666663</ele><time>2026-04-19T09:42:52.906Z</time></trkpt><trkpt lat="44.3945783" lon="10.4555167"><ele>398.3333333333333</ele><time>2026-04-19T09:42:53.934Z</time></trkpt><trkpt lat="44.3944917" lon="10.4553033"><ele>401.0</ele><time>2026-04-19T09:42:54.918Z</time></trkpt><trkpt lat="44.3944017" lon="10.4550983"><ele>401.0</ele><time>2026-04-19T09:42:55.908Z</time></trkpt><trkpt lat="44.3943083" lon="10.454895"><ele>401.0</ele><time>2026-04-19T09:42:56.905Z</time></trkpt><trkpt lat="44.3942117" lon="10.4546983"><ele>401.0</ele><time>2026-04-19T09:42:57.956Z</time></trkpt><trkpt lat="44.3941133" lon="10.4544983"><ele>399.3333333333333</ele><time>2026-04-19T09:42:58.952Z</time></trkpt><trkpt lat="44.3940117" lon="10.454295"><ele>397.66666666666663</ele><time>2026-04-19T09:42:59.93Z</time></trkpt><trkpt lat="44.3939117" lon="10.4540867"><ele>396.0</ele><time>2026-04-19T09:43:00.908Z</time></trkpt><trkpt lat="44.3938133" lon="10.4538733"><ele>400.66666666666663</ele><time>2026-04-19T09:43:01.909Z</time></trkpt><trkpt lat="44.39372" lon="10.45365"><ele>405.3333333333333</ele><time>2026-04-19T09:43:02.917Z</time></trkpt><trkpt lat="44.3936317" lon="10.4534233"><ele>410.0</ele><time>2026-04-19T09:43:03.923Z</time></trkpt><trkpt lat="44.39355" lon="10.4531933"><ele>408.0</ele><time>2026-04-19T09:43:04.909Z</time></trkpt><trkpt lat="44.393475" lon="10.452955"><ele>406.0</ele><time>2026-04-19T09:43:05.907Z</time></trkpt><trkpt lat="44.3934033" lon="10.4527117"><ele>404.0</ele><time>2026-04-19T09:43:06.952Z</time></trkpt><trkpt lat="44.393335" lon="10.452465"><ele>404.0</ele><time>2026-04-19T09:43:07.94Z</time></trkpt><trkpt lat="44.393275" lon="10.4522117"><ele>404.0</ele><time>2026-04-19T09:43:08.912Z</time></trkpt><trkpt lat="44.393215" lon="10.4519567"><ele>404.0</ele><time>2026-04-19T09:43:09.924Z</time></trkpt><trkpt lat="44.393155" lon="10.4517017"><ele>402.66666666666663</ele><time>2026-04-19T09:43:10.94Z</time></trkpt><trkpt lat="44.39309" lon="10.4514483"><ele>401.33333333333337</ele><time>2026-04-19T09:43:11.923Z</time></trkpt><trkpt lat="44.3930217" lon="10.451195"><ele>400.0</ele><time>2026-04-19T09:43:12.913Z</time></trkpt><trkpt lat="44.39294" lon="10.4509467"><ele>402.33333333333337</ele><time>2026-04-19T09:43:13.931Z</time></trkpt><trkpt lat="44.3928417" lon="10.4507067"><ele>404.66666666666663</ele><time>2026-04-19T09:43:14.918Z</time></trkpt><trkpt lat="44.39274" lon="10.4504767"><ele>407.0</ele><time>2026-04-19T09:43:15.909Z</time></trkpt><trkpt lat="44.392645" lon="10.4502433"><ele>407.0</ele><time>2026-04-19T09:43:16.908Z</time></trkpt><trkpt lat="44.3925583" lon="10.4500033"><ele>407.0</ele><time>2026-04-19T09:43:17.926Z</time></trkpt><trkpt lat="44.3924783" lon="10.449765"><ele>407.0</ele><time>2026-04-19T09:43:18.912Z</time></trkpt><trkpt lat="44.392395" lon="10.449535"><ele>404.66666666666663</ele><time>2026-04-19T09:43:19.939Z</time></trkpt><trkpt lat="44.3922967" lon="10.4493167"><ele>402.33333333333337</ele><time>2026-04-19T09:43:20.905Z</time></trkpt><trkpt lat="44.3921783" lon="10.44911"><ele>400.0</ele><time>2026-04-19T09:43:21.916Z</time></trkpt><trkpt lat="44.392055" lon="10.44891"><ele>401.33333333333337</ele><time>2026-04-19T09:43:22.919Z</time></trkpt><trkpt lat="44.3919233" lon="10.4487283"><ele>402.66666666666663</ele><time>2026-04-19T09:43:23.92Z</time></trkpt><trkpt lat="44.39179" lon="10.448565"><ele>404.0</ele><time>2026-04-19T09:43:24.926Z</time></trkpt><trkpt lat="44.3916517" lon="10.4484183"><ele>404.0</ele><time>2026-04-19T09:43:25.913Z</time></trkpt><trkpt lat="44.3915167" lon="10.4482867"><ele>404.0</ele><time>2026-04-19T09:43:26.91Z</time></trkpt><trkpt lat="44.391385" lon="10.4481683"><ele>404.0</ele><time>2026-04-19T09:43:27.911Z</time></trkpt><trkpt lat="44.3912617" lon="10.448045"><ele>403.66666666666663</ele><time>2026-04-19T09:43:28.915Z</time></trkpt><trkpt lat="44.3911533" lon="10.4478967"><ele>403.33333333333337</ele><time>2026-04-19T09:43:29.905Z</time></trkpt><trkpt lat="44.3910617" lon="10.4477267"><ele>403.0</ele><time>2026-04-19T09:43:30.925Z</time></trkpt><trkpt lat="44.3909783" lon="10.4475417"><ele>403.0</ele><time>2026-04-19T09:43:31.975Z</time></trkpt><trkpt lat="44.3908983" lon="10.44734"><ele>403.0</ele><time>2026-04-19T09:43:32.953Z</time></trkpt><trkpt lat="44.3908167" lon="10.4471267"><ele>403.0</ele><time>2026-04-19T09:43:33.952Z</time></trkpt><trkpt lat="44.3907317" lon="10.446905"><ele>403.0</ele><time>2026-04-19T09:43:34.908Z</time></trkpt><trkpt lat="44.39065" lon="10.4466817"><ele>403.0</ele><time>2026-04-19T09:43:35.934Z</time></trkpt><trkpt lat="44.39057" lon="10.4464567"><ele>403.0</ele><time>2026-04-19T09:43:36.921Z</time></trkpt><trkpt lat="44.3904933" lon="10.446225"><ele>408.6666666666667</ele><time>2026-04-19T09:43:37.907Z</time></trkpt><trkpt lat="44.3904233" lon="10.44599"><ele>414.33333333333337</ele><time>2026-04-19T09:43:38.91Z</time></trkpt><trkpt lat="44.3903617" lon="10.4457517"><ele>420.0</ele><time>2026-04-19T09:43:39.922Z</time></trkpt><trkpt lat="44.3903133" lon="10.4455133"><ele>418.0</ele><time>2026-04-19T09:43:40.916Z</time></trkpt><trkpt lat="44.3902867" lon="10.4452817"><ele>416.0</ele><time>2026-04-19T09:43:41.918Z</time></trkpt><trkpt lat="44.390285" lon="10.44505"><ele>414.0</ele><time>2026-04-19T09:43:42.917Z</time></trkpt><trkpt lat="44.390305" lon="10.444815"><ele>414.33333333333337</ele><time>2026-04-19T09:43:43.953Z</time></trkpt><trkpt lat="44.39034" lon="10.4445767"><ele>414.6666666666667</ele><time>2026-04-19T09:43:44.913Z</time></trkpt><trkpt lat="44.390375" lon="10.4443433"><ele>415.0</ele><time>2026-04-19T09:43:45.909Z</time></trkpt><trkpt lat="44.3904067" lon="10.4441117"><ele>415.0</ele><time>2026-04-19T09:43:46.925Z</time></trkpt><trkpt lat="44.3904417" lon="10.4438783"><ele>415.0</ele><time>2026-04-19T09:43:47.923Z</time></trkpt><trkpt lat="44.3904733" lon="10.443645"><ele>415.0</ele><time>2026-04-19T09:43:48.911Z</time></trkpt><trkpt lat="44.3905033" lon="10.44341"><ele>412.6666666666667</ele><time>2026-04-19T09:43:49.91Z</time></trkpt><trkpt lat="44.3905333" lon="10.44318"><ele>410.33333333333337</ele><time>2026-04-19T09:43:50.913Z</time></trkpt><trkpt lat="44.3905617" lon="10.44295"><ele>408.0</ele><time>2026-04-19T09:43:51.955Z</time></trkpt><trkpt lat="44.3905933" lon="10.44272"><ele>408.0</ele><time>2026-04-19T09:43:52.926Z</time></trkpt><trkpt lat="44.3906233" lon="10.4424933"><ele>408.0</ele><time>2026-04-19T09:43:53.923Z</time></trkpt><trkpt lat="44.39065" lon="10.442275"><ele>408.0</ele><time>2026-04-19T09:43:54.911Z</time></trkpt><trkpt lat="44.39067" lon="10.4420667"><ele>407.5</ele><time>2026-04-19T09:43:55.975Z</time></trkpt><trkpt lat="44.3906817" lon="10.44187"><ele>407.0</ele><time>2026-04-19T09:43:56.91Z</time></trkpt><trkpt lat="44.3906933" lon="10.4416833"><ele>406.5</ele><time>2026-04-19T09:43:57.907Z</time></trkpt><trkpt lat="44.3907033" lon="10.44151"><ele>406.0</ele><time>2026-04-19T09:43:58.929Z</time></trkpt><trkpt lat="44.390715" lon="10.44135"><ele>406.20000000000005</ele><time>2026-04-19T09:43:59.908Z</time></trkpt><trkpt lat="44.3907317" lon="10.4412017"><ele>406.40000000000003</ele><time>2026-04-19T09:44:00.918Z</time></trkpt><trkpt lat="44.390755" lon="10.4410667"><ele>406.6</ele><time>2026-04-19T09:44:01.965Z</time></trkpt><trkpt lat="44.3907883" lon="10.4409333"><ele>406.8</ele><time>2026-04-19T09:44:02.972Z</time></trkpt><trkpt lat="44.3908267" lon="10.4408017"><ele>407.0</ele><time>2026-04-19T09:44:03.948Z</time></trkpt><trkpt lat="44.3908683" lon="10.44067"><ele>407.0</ele><time>2026-04-19T09:44:04.914Z</time></trkpt><trkpt lat="44.39091" lon="10.4405317"><ele>407.0</ele><time>2026-04-19T09:44:05.951Z</time></trkpt><trkpt lat="44.3909517" lon="10.4403883"><ele>407.0</ele><time>2026-04-19T09:44:06.93Z</time></trkpt><trkpt lat="44.3909917" lon="10.4402417"><ele>407.0</ele><time>2026-04-19T09:44:07.915Z</time></trkpt><trkpt lat="44.3910267" lon="10.4400933"><ele>407.0</ele><time>2026-04-19T09:44:08.924Z</time></trkpt><trkpt lat="44.39105" lon="10.4399517"><ele>407.40000000000003</ele><time>2026-04-19T09:44:09.911Z</time></trkpt><trkpt lat="44.3910633" lon="10.4398133"><ele>407.8</ele><time>2026-04-19T09:44:10.974Z</time></trkpt><trkpt lat="44.3910683" lon="10.4396783"><ele>408.2</ele><time>2026-04-19T09:44:11.908Z</time></trkpt><trkpt lat="44.39107" lon="10.439545"><ele>408.6</ele><time>2026-04-19T09:44:12.933Z</time></trkpt><trkpt lat="44.3910717" lon="10.4394167"><ele>409.0</ele><time>2026-04-19T09:44:13.91Z</time></trkpt><trkpt lat="44.3910717" lon="10.4393017"><ele>409.33333333333337</ele><time>2026-04-19T09:44:14.979Z</time></trkpt><trkpt lat="44.3910633" lon="10.43921"><ele>409.6666666666667</ele><time>2026-04-19T09:44:15.961Z</time></trkpt><trkpt lat="44.3910117" lon="10.4390933"><ele>410.0</ele><time>2026-04-19T09:44:17.908Z</time></trkpt><trkpt lat="44.3909283" lon="10.4391"><ele>410.33333333333337</ele><time>2026-04-19T09:44:19.914Z</time></trkpt><trkpt lat="44.39085" lon="10.43911"><ele>410.6666666666667</ele><time>2026-04-19T09:44:21.917Z</time></trkpt><trkpt lat="44.390775" lon="10.439125"><ele>411.0</ele><time>2026-04-19T09:44:24.908Z</time></trkpt><trkpt lat="44.3907083" lon="10.43913"><ele>411.0</ele><time>2026-04-19T09:44:29.939Z</time></trkpt><trkpt lat="44.39067" lon="10.439045"><ele>411.0</ele><time>2026-04-19T09:44:32.985Z</time></trkpt><trkpt lat="44.3906583" lon="10.4389433"><ele>411.0</ele><time>2026-04-19T09:44:36.908Z</time></trkpt><trkpt lat="44.3906717" lon="10.438845"><ele>411.0</ele><time>2026-04-19T09:44:38.909Z</time></trkpt></trkseg><trkseg><trkpt lat="44.3848894" lon="10.4045517"><ele>454.0</ele><time>2026-04-19T10:09:22.022Z</time></trkpt><trkpt lat="44.3849746" lon="10.4045136"><ele>454.0</ele><time>2026-04-19T10:09:35.897Z</time></trkpt><trkpt lat="44.3850413" lon="10.4045488"><ele>454.0</ele><time>2026-04-19T10:09:40.897Z</time></trkpt><trkpt lat="44.3849602" lon="10.4046253"><ele>454.0</ele><time>2026-04-19T10:10:40.897Z</time></trkpt><trkpt lat="44.3849059" lon="10.4046997"><ele>454.0</ele><time>2026-04-19T10:10:43.398Z</time></trkpt><trkpt lat="44.3848131" lon="10.404872"><ele>453.0</ele><time>2026-04-19T10:10:44.897Z</time></trkpt><trkpt lat="44.3847722" lon="10.4049516"><ele>452.0</ele><time>2026-04-19T10:10:45.897Z</time></trkpt><trkpt lat="44.3846946" lon="10.4050813"><ele>451.0</ele><time>2026-04-19T10:10:47.899Z</time></trkpt><trkpt lat="44.3845942" lon="10.4051663"><ele>450.0</ele><time>2026-04-19T10:10:49.897Z</time></trkpt><trkpt lat="44.3845243" lon="10.4052332"><ele>449.0</ele><time>2026-04-19T10:10:51.898Z</time></trkpt><trkpt lat="44.3844512" lon="10.4052402"><ele>453.49999999999994</ele><time>2026-04-19T10:10:54.897Z</time></trkpt><trkpt lat="44.3844125" lon="10.4053136"><ele>458.0</ele><time>2026-04-19T10:10:59.897Z</time></trkpt><trkpt lat="44.3843518" lon="10.4053522"><ele>462.5</ele><time>2026-04-19T10:11:10.898Z</time></trkpt><trkpt lat="44.3842757" lon="10.4053973"><ele>467.0</ele><time>2026-04-19T10:12:23.898Z</time></trkpt><trkpt lat="44.3843475" lon="10.4053939"><ele>471.49999999999994</ele><time>2026-04-19T10:12:38.901Z</time></trkpt><trkpt lat="44.3842809" lon="10.4053664"><ele>476.0</ele><time>2026-04-19T10:13:53.91Z</time></trkpt><trkpt lat="44.3843774" lon="10.4053713"><ele>475.99999999999994</ele><time>2026-04-19T10:16:35.96Z</time></trkpt><trkpt lat="44.3843847" lon="10.405275"><ele>476.0</ele><time>2026-04-19T10:16:48.923Z</time></trkpt><trkpt lat="44.3843693" lon="10.4051792"><ele>476.0</ele><time>2026-04-19T10:16:50.931Z</time></trkpt><trkpt lat="44.3843554" lon="10.4050574"><ele>476.0</ele><time>2026-04-19T10:16:52.922Z</time></trkpt><trkpt lat="44.3843407" lon="10.4049359"><ele>475.99999999999994</ele><time>2026-04-19T10:16:54.912Z</time></trkpt><trkpt lat="44.3843159" lon="10.4047786"><ele>476.0</ele><time>2026-04-19T10:16:56.92Z</time></trkpt><trkpt lat="44.3843018" lon="10.4046896"><ele>475.49999999999994</ele><time>2026-04-19T10:16:57.946Z</time></trkpt><trkpt lat="44.3842883" lon="10.404585"><ele>475.0</ele><time>2026-04-19T10:16:58.936Z</time></trkpt><trkpt lat="44.3842583" lon="10.4044217"><ele>474.5</ele><time>2026-04-19T10:17:00.912Z</time></trkpt><trkpt lat="44.3842117" lon="10.4043367"><ele>474.0</ele><time>2026-04-19T10:17:02.939Z</time></trkpt><trkpt lat="44.3841417" lon="10.40425"><ele>473.49999999999994</ele><time>2026-04-19T10:17:04.96Z</time></trkpt><trkpt lat="44.3840817" lon="10.4041917"><ele>473.0</ele><time>2026-04-19T10:17:07.908Z</time></trkpt><trkpt lat="44.3840383" lon="10.4041267"><ele>473.0</ele><time>2026-04-19T10:17:31.909Z</time></trkpt><trkpt lat="44.3839933" lon="10.4040117"><ele>472.99999999999994</ele><time>2026-04-19T10:17:32.908Z</time></trkpt><trkpt lat="44.383955" lon="10.4038583"><ele>472.99999999999994</ele><time>2026-04-19T10:18:21.91Z</time></trkpt><trkpt lat="44.383965" lon="10.4037517"><ele>473.0</ele><time>2026-04-19T10:18:24.905Z</time></trkpt><trkpt lat="44.3839983" lon="10.4036733"><ele>473.0</ele><time>2026-04-19T10:18:33.91Z</time></trkpt><trkpt lat="44.3840417" lon="10.40354"><ele>473.0</ele><time>2026-04-19T10:19:08.939Z</time></trkpt><trkpt lat="44.38404" lon="10.40341"><ele>472.99999999999994</ele><time>2026-04-19T10:19:11.923Z</time></trkpt><trkpt lat="44.384045" lon="10.4033067"><ele>472.99999999999994</ele><time>2026-04-19T10:19:13.91Z</time></trkpt><trkpt lat="44.3840533" lon="10.403175"><ele>473.0</ele><time>2026-04-19T10:19:15.915Z</time></trkpt><trkpt lat="44.3840317" lon="10.403035"><ele>473.0</ele><time>2026-04-19T10:19:17.93Z</time></trkpt><trkpt lat="44.383995" lon="10.4029067"><ele>473.0</ele><time>2026-04-19T10:19:19.907Z</time></trkpt><trkpt lat="44.3839567" lon="10.40276"><ele>472.99999999999994</ele><time>2026-04-19T10:19:21.926Z</time></trkpt><trkpt lat="44.3839233" lon="10.40259"><ele>472.99999999999994</ele><time>2026-04-19T10:19:23.906Z</time></trkpt><trkpt lat="44.38391" lon="10.40248"><ele>473.0</ele><time>2026-04-19T10:19:24.929Z</time></trkpt><trkpt lat="44.3838883" lon="10.4023567"><ele>473.0</ele><time>2026-04-19T10:19:25.918Z</time></trkpt><trkpt lat="44.3838683" lon="10.4022267"><ele>474.4</ele><time>2026-04-19T10:19:26.918Z</time></trkpt><trkpt lat="44.3838467" lon="10.4020983"><ele>475.79999999999995</ele><time>2026-04-19T10:19:27.966Z</time></trkpt><trkpt lat="44.3838283" lon="10.4019767"><ele>477.2</ele><time>2026-04-19T10:19:28.953Z</time></trkpt><trkpt lat="44.38381" lon="10.4018517"><ele>478.6</ele><time>2026-04-19T10:19:29.941Z</time></trkpt><trkpt lat="44.3837917" lon="10.4017217"><ele>480.0</ele><time>2026-04-19T10:19:30.909Z</time></trkpt><trkpt lat="44.383785" lon="10.401595"><ele>480.0</ele><time>2026-04-19T10:19:31.908Z</time></trkpt><trkpt lat="44.38378" lon="10.401465"><ele>480.0</ele><time>2026-04-19T10:19:32.909Z</time></trkpt><trkpt lat="44.383775" lon="10.4013483"><ele>480.0</ele><time>2026-04-19T10:19:33.921Z</time></trkpt><trkpt lat="44.3837683" lon="10.4012417"><ele>480.0</ele><time>2026-04-19T10:19:34.909Z</time></trkpt><trkpt lat="44.3837617" lon="10.4011417"><ele>480.0</ele><time>2026-04-19T10:19:35.911Z</time></trkpt><trkpt lat="44.3837383" lon="10.4009683"><ele>480.0</ele><time>2026-04-19T10:19:37.928Z</time></trkpt><trkpt lat="44.383725" lon="10.40088"><ele>480.0</ele><time>2026-04-19T10:19:38.909Z</time></trkpt><trkpt lat="44.3836883" lon="10.40072"><ele>480.0</ele><time>2026-04-19T10:19:40.975Z</time></trkpt><trkpt lat="44.3836217" lon="10.4005783"><ele>480.0</ele><time>2026-04-19T10:19:42.931Z</time></trkpt><trkpt lat="44.3835867" lon="10.4005033"><ele>480.0</ele><time>2026-04-19T10:19:43.912Z</time></trkpt><trkpt lat="44.38356" lon="10.4004167"><ele>480.0</ele><time>2026-04-19T10:19:44.935Z</time></trkpt><trkpt lat="44.3835367" lon="10.40033"><ele>480.0</ele><time>2026-04-19T10:19:45.913Z</time></trkpt><trkpt lat="44.38349" lon="10.4001867"><ele>480.0</ele><time>2026-04-19T10:19:47.904Z</time></trkpt><trkpt lat="44.3834433" lon="10.4000533"><ele>480.0</ele><time>2026-04-19T10:19:49.91Z</time></trkpt><trkpt lat="44.3834233" lon="10.3999533"><ele>480.0</ele><time>2026-04-19T10:19:51.937Z</time></trkpt><trkpt lat="44.3834367" lon="10.3998667"><ele>480.0</ele><time>2026-04-19T10:19:53.909Z</time></trkpt><trkpt lat="44.3834767" lon="10.399785"><ele>480.0</ele><time>2026-04-19T10:19:55.91Z</time></trkpt><trkpt lat="44.3835533" lon="10.3997233"><ele>479.42857142857144</ele><time>2026-04-19T10:19:57.922Z</time></trkpt><trkpt lat="44.3835983" lon="10.39966"><ele>478.85714285714283</ele><time>2026-04-19T10:19:58.911Z</time></trkpt><trkpt lat="44.3836517" lon="10.39959"><ele>478.2857142857143</ele><time>2026-04-19T10:19:59.966Z</time></trkpt><trkpt lat="44.3837067" lon="10.399525"><ele>477.7142857142857</ele><time>2026-04-19T10:20:00.93Z</time></trkpt><trkpt lat="44.383765" lon="10.3994667"><ele>477.1428571428571</ele><time>2026-04-19T10:20:01.911Z</time></trkpt><trkpt lat="44.38382" lon="10.3994117"><ele>476.57142857142856</ele><time>2026-04-19T10:20:02.961Z</time></trkpt><trkpt lat="44.3838733" lon="10.3993617"><ele>476.0</ele><time>2026-04-19T10:20:03.93Z</time></trkpt><trkpt lat="44.3839383" lon="10.3993117"><ele>475.42857142857144</ele><time>2026-04-19T10:20:04.922Z</time></trkpt><trkpt lat="44.3840017" lon="10.3992683"><ele>474.8571428571429</ele><time>2026-04-19T10:20:05.912Z</time></trkpt><trkpt lat="44.3840717" lon="10.3992317"><ele>474.2857142857143</ele><time>2026-04-19T10:20:06.9Z</time></trkpt><trkpt lat="44.3841483" lon="10.399195"><ele>473.7142857142857</ele><time>2026-04-19T10:20:07.912Z</time></trkpt><trkpt lat="44.3842233" lon="10.3991667"><ele>473.14285714285717</ele><time>2026-04-19T10:20:08.909Z</time></trkpt><trkpt lat="44.3842933" lon="10.3991433"><ele>472.57142857142856</ele><time>2026-04-19T10:20:09.913Z</time></trkpt><trkpt lat="44.3843633" lon="10.3991267"><ele>472.0</ele><time>2026-04-19T10:20:10.977Z</time></trkpt><trkpt lat="44.3844333" lon="10.3991117"><ele>472.00000000000006</ele><time>2026-04-19T10:20:11.952Z</time></trkpt><trkpt lat="44.3844983" lon="10.3991"><ele>472.0</ele><time>2026-04-19T10:20:12.907Z</time></trkpt><trkpt lat="44.384605" lon="10.3990617"><ele>472.0</ele><time>2026-04-19T10:20:14.911Z</time></trkpt><trkpt lat="44.384675" lon="10.398965"><ele>472.0</ele><time>2026-04-19T10:20:16.914Z</time></trkpt><trkpt lat="44.3846883" lon="10.398875"><ele>472.00000000000006</ele><time>2026-04-19T10:20:17.947Z</time></trkpt><trkpt lat="44.3846917" lon="10.3987717"><ele>472.0</ele><time>2026-04-19T10:20:18.911Z</time></trkpt><trkpt lat="44.38468" lon="10.39866"><ele>471.00000000000006</ele><time>2026-04-19T10:20:19.904Z</time></trkpt><trkpt lat="44.3846583" lon="10.39856"><ele>470.0</ele><time>2026-04-19T10:20:20.908Z</time></trkpt><trkpt lat="44.384645" lon="10.3984617"><ele>469.0</ele><time>2026-04-19T10:20:21.962Z</time></trkpt><trkpt lat="44.384635" lon="10.3983717"><ele>468.0</ele><time>2026-04-19T10:20:22.928Z</time></trkpt><trkpt lat="44.38464" lon="10.398235"><ele>467.00000000000006</ele><time>2026-04-19T10:20:24.942Z</time></trkpt><trkpt lat="44.3846467" lon="10.3981067"><ele>466.0</ele><time>2026-04-19T10:20:27.91Z</time></trkpt><trkpt lat="44.384635" lon="10.398005"><ele>464.50000000000006</ele><time>2026-04-19T10:20:30.906Z</time></trkpt><trkpt lat="44.3845783" lon="10.3979117"><ele>463.0</ele><time>2026-04-19T10:20:37.924Z</time></trkpt><trkpt lat="44.3845633" lon="10.397795"><ele>461.5</ele><time>2026-04-19T10:20:39.917Z</time></trkpt><trkpt lat="44.3845433" lon="10.3976717"><ele>460.0</ele><time>2026-04-19T10:20:41.963Z</time></trkpt><trkpt lat="44.3845383" lon="10.397565"><ele>458.50000000000006</ele><time>2026-04-19T10:20:43.945Z</time></trkpt><trkpt lat="44.38455" lon="10.3974517"><ele>457.0</ele><time>2026-04-19T10:20:46.924Z</time></trkpt><trkpt lat="44.3845617" lon="10.39734"><ele>457.0</ele><time>2026-04-19T10:20:49.91Z</time></trkpt><trkpt lat="44.3845583" lon="10.39724"><ele>457.00000000000006</ele><time>2026-04-19T10:20:51.965Z</time></trkpt><trkpt lat="44.3845617" lon="10.3971183"><ele>457.00000000000006</ele><time>2026-04-19T10:20:53.918Z</time></trkpt><trkpt lat="44.3845783" lon="10.396985"><ele>457.0</ele><time>2026-04-19T10:20:55.917Z</time></trkpt><trkpt lat="44.3846133" lon="10.396845"><ele>457.0</ele><time>2026-04-19T10:20:57.927Z</time></trkpt><trkpt lat="44.3846517" lon="10.3967083"><ele>456.0</ele><time>2026-04-19T10:20:59.939Z</time></trkpt><trkpt lat="44.3847" lon="10.396575"><ele>455.00000000000006</ele><time>2026-04-19T10:21:01.94Z</time></trkpt><trkpt lat="44.3847667" lon="10.3964567"><ele>454.00000000000006</ele><time>2026-04-19T10:21:03.93Z</time></trkpt><trkpt lat="44.3848217" lon="10.3963283"><ele>453.0</ele><time>2026-04-19T10:21:05.926Z</time></trkpt><trkpt lat="44.3848433" lon="10.39623"><ele>452.0</ele><time>2026-04-19T10:21:07.962Z</time></trkpt><trkpt lat="44.3847967" lon="10.396135"><ele>451.99999999999994</ele><time>2026-04-19T10:21:10.944Z</time></trkpt><trkpt lat="44.38469" lon="10.3961117"><ele>452.0</ele><time>2026-04-19T10:21:12.931Z</time></trkpt><trkpt lat="44.384625" lon="10.3961117"><ele>452.0</ele><time>2026-04-19T10:21:13.924Z</time></trkpt><trkpt lat="44.3845467" lon="10.3961133"><ele>452.0</ele><time>2026-04-19T10:21:14.91Z</time></trkpt><trkpt lat="44.3844717" lon="10.3961133"><ele>451.99999999999994</ele><time>2026-04-19T10:21:15.924Z</time></trkpt><trkpt lat="44.3843933" lon="10.3961017"><ele>452.0</ele><time>2026-04-19T10:21:16.981Z</time></trkpt><trkpt lat="44.3843167" lon="10.39607"><ele>452.8333333333333</ele><time>2026-04-19T10:21:17.949Z</time></trkpt><trkpt lat="44.3842417" lon="10.39603"><ele>453.66666666666663</ele><time>2026-04-19T10:21:18.938Z</time></trkpt><trkpt lat="44.384165" lon="10.395985"><ele>454.5</ele><time>2026-04-19T10:21:19.93Z</time></trkpt><trkpt lat="44.3840833" lon="10.395945"><ele>455.33333333333337</ele><time>2026-04-19T10:21:20.909Z</time></trkpt><trkpt lat="44.383995" lon="10.395915"><ele>456.1666666666667</ele><time>2026-04-19T10:21:21.968Z</time></trkpt><trkpt lat="44.3839033" lon="10.3958867"><ele>457.0</ele><time>2026-04-19T10:21:22.911Z</time></trkpt><trkpt lat="44.383815" lon="10.395855"><ele>457.8</ele><time>2026-04-19T10:21:23.915Z</time></trkpt><trkpt lat="44.3837267" lon="10.3958067"><ele>458.6</ele><time>2026-04-19T10:21:24.917Z</time></trkpt><trkpt lat="44.3836433" lon="10.3957583"><ele>459.40000000000003</ele><time>2026-04-19T10:21:25.935Z</time></trkpt><trkpt lat="44.383555" lon="10.3957183"><ele>460.20000000000005</ele><time>2026-04-19T10:21:26.927Z</time></trkpt><trkpt lat="44.383465" lon="10.3956867"><ele>461.0</ele><time>2026-04-19T10:21:27.909Z</time></trkpt><trkpt lat="44.3833817" lon="10.39566"><ele>460.99999999999994</ele><time>2026-04-19T10:21:28.944Z</time></trkpt><trkpt lat="44.38331" lon="10.39563"><ele>461.0</ele><time>2026-04-19T10:21:29.919Z</time></trkpt><trkpt lat="44.3832383" lon="10.3955817"><ele>461.0</ele><time>2026-04-19T10:21:30.957Z</time></trkpt><trkpt lat="44.3831817" lon="10.39551"><ele>461.0</ele><time>2026-04-19T10:21:31.945Z</time></trkpt><trkpt lat="44.3831183" lon="10.3954283"><ele>460.99999999999994</ele><time>2026-04-19T10:21:32.933Z</time></trkpt><trkpt lat="44.3830533" lon="10.3953533"><ele>461.0</ele><time>2026-04-19T10:21:33.924Z</time></trkpt><trkpt lat="44.3829883" lon="10.3953033"><ele>463.16666666666663</ele><time>2026-04-19T10:21:34.923Z</time></trkpt><trkpt lat="44.3829117" lon="10.395265"><ele>465.3333333333333</ele><time>2026-04-19T10:21:35.909Z</time></trkpt><trkpt lat="44.3828383" lon="10.3952433"><ele>467.5</ele><time>2026-04-19T10:21:36.914Z</time></trkpt><trkpt lat="44.3827583" lon="10.395235"><ele>469.66666666666663</ele><time>2026-04-19T10:21:37.94Z</time></trkpt><trkpt lat="44.3826683" lon="10.39524"><ele>471.8333333333333</ele><time>2026-04-19T10:21:38.908Z</time></trkpt><trkpt lat="44.3825883" lon="10.3952383"><ele>474.0</ele><time>2026-04-19T10:21:39.907Z</time></trkpt><trkpt lat="44.382515" lon="10.3952317"><ele>474.0</ele><time>2026-04-19T10:21:40.973Z</time></trkpt><trkpt lat="44.38244" lon="10.3952167"><ele>474.0</ele><time>2026-04-19T10:21:41.959Z</time></trkpt><trkpt lat="44.3823733" lon="10.3951917"><ele>474.0</ele><time>2026-04-19T10:21:43.081Z</time></trkpt><trkpt lat="44.3822317" lon="10.395165"><ele>474.0</ele><time>2026-04-19T10:21:44.926Z</time></trkpt><trkpt lat="44.3821583" lon="10.3951683"><ele>474.0</ele><time>2026-04-19T10:21:45.911Z</time></trkpt><trkpt lat="44.382085" lon="10.3951767"><ele>474.0</ele><time>2026-04-19T10:21:46.933Z</time></trkpt><trkpt lat="44.3819617" lon="10.39513"><ele>472.4</ele><time>2026-04-19T10:21:48.907Z</time></trkpt><trkpt lat="44.3818883" lon="10.3950717"><ele>470.79999999999995</ele><time>2026-04-19T10:21:49.932Z</time></trkpt><trkpt lat="44.381815" lon="10.395005"><ele>469.20000000000005</ele><time>2026-04-19T10:21:50.943Z</time></trkpt><trkpt lat="44.3817283" lon="10.394935"><ele>467.6</ele><time>2026-04-19T10:21:51.923Z</time></trkpt><trkpt lat="44.381625" lon="10.3948617"><ele>466.0</ele><time>2026-04-19T10:21:52.91Z</time></trkpt><trkpt lat="44.3815167" lon="10.3947867"><ele>466.0</ele><time>2026-04-19T10:21:53.931Z</time></trkpt><trkpt lat="44.3814183" lon="10.3947133"><ele>466.0</ele><time>2026-04-19T10:21:54.908Z</time></trkpt><trkpt lat="44.38133" lon="10.394645"><ele>466.0</ele><time>2026-04-19T10:21:55.911Z</time></trkpt><trkpt lat="44.38124" lon="10.3945783"><ele>466.0</ele><time>2026-04-19T10:21:56.911Z</time></trkpt><trkpt lat="44.381155" lon="10.3945117"><ele>466.0</ele><time>2026-04-19T10:21:57.955Z</time></trkpt><trkpt lat="44.381075" lon="10.3944433"><ele>468.20000000000005</ele><time>2026-04-19T10:21:58.935Z</time></trkpt><trkpt lat="44.381" lon="10.3943617"><ele>470.40000000000003</ele><time>2026-04-19T10:21:59.935Z</time></trkpt><trkpt lat="44.3809233" lon="10.39428"><ele>472.6</ele><time>2026-04-19T10:22:00.908Z</time></trkpt><trkpt lat="44.3808367" lon="10.3942067"><ele>474.8</ele><time>2026-04-19T10:22:01.916Z</time></trkpt><trkpt lat="44.3807433" lon="10.3941333"><ele>477.0</ele><time>2026-04-19T10:22:02.949Z</time></trkpt><trkpt lat="44.380655" lon="10.3940567"><ele>477.0</ele><time>2026-04-19T10:22:03.911Z</time></trkpt><trkpt lat="44.3805717" lon="10.3939917"><ele>477.0</ele><time>2026-04-19T10:22:04.915Z</time></trkpt><trkpt lat="44.3804917" lon="10.39393"><ele>477.0</ele><time>2026-04-19T10:22:05.972Z</time></trkpt><trkpt lat="44.3804217" lon="10.3938583"><ele>477.0</ele><time>2026-04-19T10:22:06.951Z</time></trkpt><trkpt lat="44.3803583" lon="10.3937733"><ele>477.0</ele><time>2026-04-19T10:22:07.931Z</time></trkpt><trkpt lat="44.3803" lon="10.3936833"><ele>477.0</ele><time>2026-04-19T10:22:08.909Z</time></trkpt><trkpt lat="44.3802367" lon="10.3935967"><ele>479.6</ele><time>2026-04-19T10:22:09.916Z</time></trkpt><trkpt lat="44.3801667" lon="10.3935167"><ele>482.20000000000005</ele><time>2026-04-19T10:22:10.96Z</time></trkpt><trkpt lat="44.3800933" lon="10.3934483"><ele>484.8</ele><time>2026-04-19T10:22:11.94Z</time></trkpt><trkpt lat="44.380015" lon="10.3933933"><ele>487.4</ele><time>2026-04-19T10:22:12.927Z</time></trkpt><trkpt lat="44.379925" lon="10.3933433"><ele>490.0</ele><time>2026-04-19T10:22:13.914Z</time></trkpt><trkpt lat="44.37982" lon="10.3932983"><ele>490.0</ele><time>2026-04-19T10:22:14.947Z</time></trkpt><trkpt lat="44.37972" lon="10.39325"><ele>490.0</ele><time>2026-04-19T10:22:15.94Z</time></trkpt><trkpt lat="44.3796267" lon="10.3932017"><ele>490.0</ele><time>2026-04-19T10:22:16.936Z</time></trkpt><trkpt lat="44.379535" lon="10.3931467"><ele>490.0</ele><time>2026-04-19T10:22:17.91Z</time></trkpt><trkpt lat="44.37945" lon="10.393085"><ele>490.0</ele><time>2026-04-19T10:22:18.931Z</time></trkpt><trkpt lat="44.3793683" lon="10.39303"><ele>493.0</ele><time>2026-04-19T10:22:19.918Z</time></trkpt><trkpt lat="44.3792867" lon="10.3929933"><ele>496.0</ele><time>2026-04-19T10:22:20.909Z</time></trkpt><trkpt lat="44.379195" lon="10.3929717"><ele>499.0</ele><time>2026-04-19T10:22:21.91Z</time></trkpt><trkpt lat="44.3791017" lon="10.3929483"><ele>502.0</ele><time>2026-04-19T10:22:22.932Z</time></trkpt><trkpt lat="44.3790083" lon="10.3929117"><ele>505.0</ele><time>2026-04-19T10:22:23.93Z</time></trkpt><trkpt lat="44.3789183" lon="10.3928517"><ele>500.8</ele><time>2026-04-19T10:22:24.923Z</time></trkpt><trkpt lat="44.3788233" lon="10.3927683"><ele>496.6</ele><time>2026-04-19T10:22:25.91Z</time></trkpt><trkpt lat="44.3787333" lon="10.3926917"><ele>492.4</ele><time>2026-04-19T10:22:26.937Z</time></trkpt><trkpt lat="44.3786533" lon="10.3926267"><ele>488.2</ele><time>2026-04-19T10:22:27.908Z</time></trkpt><trkpt lat="44.3785867" lon="10.39258"><ele>484.0</ele><time>2026-04-19T10:22:28.917Z</time></trkpt><trkpt lat="44.378495" lon="10.3925133"><ele>484.0</ele><time>2026-04-19T10:22:30.942Z</time></trkpt><trkpt lat="44.3784433" lon="10.392435"><ele>484.0</ele><time>2026-04-19T10:22:32.935Z</time></trkpt><trkpt lat="44.3783833" lon="10.392355"><ele>484.0</ele><time>2026-04-19T10:22:34.908Z</time></trkpt><trkpt lat="44.3783" lon="10.39229"><ele>484.0</ele><time>2026-04-19T10:22:36.925Z</time></trkpt><trkpt lat="44.3782033" lon="10.39224"><ele>484.0</ele><time>2026-04-19T10:22:38.92Z</time></trkpt><trkpt lat="44.3781067" lon="10.392175"><ele>486.79999999999995</ele><time>2026-04-19T10:22:40.923Z</time></trkpt><trkpt lat="44.378015" lon="10.3920833"><ele>489.59999999999997</ele><time>2026-04-19T10:22:42.908Z</time></trkpt><trkpt lat="44.3779167" lon="10.3920083"><ele>492.4</ele><time>2026-04-19T10:22:44.91Z</time></trkpt><trkpt lat="44.3778183" lon="10.3919517"><ele>495.2</ele><time>2026-04-19T10:22:46.923Z</time></trkpt><trkpt lat="44.3777217" lon="10.39189"><ele>498.0</ele><time>2026-04-19T10:22:48.915Z</time></trkpt><trkpt lat="44.377625" lon="10.3918233"><ele>498.0</ele><time>2026-04-19T10:22:50.969Z</time></trkpt><trkpt lat="44.3775383" lon="10.391765"><ele>497.99999999999994</ele><time>2026-04-19T10:22:52.964Z</time></trkpt><trkpt lat="44.3774717" lon="10.3917183"><ele>497.99999999999994</ele><time>2026-04-19T10:22:54.922Z</time></trkpt><trkpt lat="44.37739" lon="10.39166"><ele>498.0</ele><time>2026-04-19T10:22:56.974Z</time></trkpt><trkpt lat="44.3772983" lon="10.3915917"><ele>498.0</ele><time>2026-04-19T10:22:58.922Z</time></trkpt><trkpt lat="44.3772167" lon="10.3915067"><ele>499.2</ele><time>2026-04-19T10:23:00.937Z</time></trkpt><trkpt lat="44.3771233" lon="10.3914183"><ele>500.4</ele><time>2026-04-19T10:23:02.937Z</time></trkpt><trkpt lat="44.3770283" lon="10.3913483"><ele>501.59999999999997</ele><time>2026-04-19T10:23:04.912Z</time></trkpt><trkpt lat="44.376935" lon="10.3912783"><ele>502.79999999999995</ele><time>2026-04-19T10:23:06.943Z</time></trkpt><trkpt lat="44.3768483" lon="10.391205"><ele>504.0</ele><time>2026-04-19T10:23:08.912Z</time></trkpt><trkpt lat="44.376705" lon="10.391115"><ele>504.0</ele><time>2026-04-19T10:23:11.961Z</time></trkpt><trkpt lat="44.3766283" lon="10.3910467"><ele>504.0</ele><time>2026-04-19T10:23:13.998Z</time></trkpt><trkpt lat="44.37656" lon="10.39096"><ele>504.0</ele><time>2026-04-19T10:23:15.909Z</time></trkpt><trkpt lat="44.376475" lon="10.3908933"><ele>504.0</ele><time>2026-04-19T10:23:17.927Z</time></trkpt><trkpt lat="44.376375" lon="10.3908217"><ele>504.0</ele><time>2026-04-19T10:23:19.907Z</time></trkpt><trkpt lat="44.3763183" lon="10.3907783"><ele>502.4</ele><time>2026-04-19T10:23:20.931Z</time></trkpt><trkpt lat="44.3762233" lon="10.390715"><ele>500.79999999999995</ele><time>2026-04-19T10:23:22.91Z</time></trkpt><trkpt lat="44.3761433" lon="10.3906767"><ele>499.20000000000005</ele><time>2026-04-19T10:23:24.921Z</time></trkpt><trkpt lat="44.3760683" lon="10.3906267"><ele>497.6</ele><time>2026-04-19T10:23:26.909Z</time></trkpt><trkpt lat="44.37599" lon="10.39057"><ele>496.0</ele><time>2026-04-19T10:23:28.943Z</time></trkpt><trkpt lat="44.3758983" lon="10.3905367"><ele>496.8</ele><time>2026-04-19T10:23:30.911Z</time></trkpt><trkpt lat="44.3758017" lon="10.3904583"><ele>497.6</ele><time>2026-04-19T10:23:32.926Z</time></trkpt><trkpt lat="44.3757033" lon="10.3903717"><ele>498.4</ele><time>2026-04-19T10:23:34.922Z</time></trkpt><trkpt lat="44.3756317" lon="10.39027"><ele>499.2</ele><time>2026-04-19T10:23:36.909Z</time></trkpt><trkpt lat="44.3755717" lon="10.3901683"><ele>500.0</ele><time>2026-04-19T10:23:38.935Z</time></trkpt><trkpt lat="44.3755017" lon="10.3900633"><ele>500.0</ele><time>2026-04-19T10:23:40.967Z</time></trkpt><trkpt lat="44.3754217" lon="10.38994"><ele>500.0</ele><time>2026-04-19T10:23:42.939Z</time></trkpt><trkpt lat="44.3753417" lon="10.3898583"><ele>500.0</ele><time>2026-04-19T10:23:44.917Z</time></trkpt><trkpt lat="44.3752517" lon="10.3897717"><ele>500.0</ele><time>2026-04-19T10:23:46.912Z</time></trkpt><trkpt lat="44.3751783" lon="10.38974"><ele>500.0</ele><time>2026-04-19T10:23:49.203Z</time></trkpt><trkpt lat="44.3750533" lon="10.3896533"><ele>500.99999999999994</ele><time>2026-04-19T10:23:50.396Z</time></trkpt><trkpt lat="44.3750017" lon="10.3895983"><ele>502.0</ele><time>2026-04-19T10:23:51.902Z</time></trkpt><trkpt lat="44.3749533" lon="10.389485"><ele>503.0</ele><time>2026-04-19T10:23:55.397Z</time></trkpt><trkpt lat="44.3748817" lon="10.389445"><ele>504.0</ele><time>2026-04-19T10:23:57.899Z</time></trkpt><trkpt lat="44.374785" lon="10.3893733"><ele>504.99999999999994</ele><time>2026-04-19T10:23:58.9Z</time></trkpt><trkpt lat="44.37472" lon="10.3893283"><ele>506.0</ele><time>2026-04-19T10:23:59.899Z</time></trkpt><trkpt lat="44.37462" lon="10.3892533"><ele>505.99999999999994</ele><time>2026-04-19T10:24:01.898Z</time></trkpt><trkpt lat="44.37454" lon="10.3891517"><ele>506.0</ele><time>2026-04-19T10:24:03.898Z</time></trkpt><trkpt lat="44.3744917" lon="10.38907"><ele>506.0</ele><time>2026-04-19T10:24:04.898Z</time></trkpt><trkpt lat="44.374445" lon="10.38899"><ele>506.0</ele><time>2026-04-19T10:24:05.897Z</time></trkpt><trkpt lat="44.3743967" lon="10.388905"><ele>505.99999999999994</ele><time>2026-04-19T10:24:06.898Z</time></trkpt><trkpt lat="44.374335" lon="10.3888233"><ele>506.0</ele><time>2026-04-19T10:24:07.898Z</time></trkpt><trkpt lat="44.374275" lon="10.3887367"><ele>507.3333333333333</ele><time>2026-04-19T10:24:08.898Z</time></trkpt><trkpt lat="44.3742067" lon="10.3886533"><ele>508.66666666666663</ele><time>2026-04-19T10:24:09.898Z</time></trkpt><trkpt lat="44.374135" lon="10.388575"><ele>510.0</ele><time>2026-04-19T10:24:10.898Z</time></trkpt><trkpt lat="44.3740717" lon="10.3885083"><ele>511.33333333333337</ele><time>2026-04-19T10:24:11.896Z</time></trkpt><trkpt lat="44.37401" lon="10.3884483"><ele>512.6666666666667</ele><time>2026-04-19T10:24:12.898Z</time></trkpt><trkpt lat="44.37395" lon="10.3884017"><ele>514.0</ele><time>2026-04-19T10:24:13.91Z</time></trkpt><trkpt lat="44.37384" lon="10.3883183"><ele>514.0</ele><time>2026-04-19T10:24:15.909Z</time></trkpt><trkpt lat="44.3737783" lon="10.38828"><ele>514.0</ele><time>2026-04-19T10:24:16.91Z</time></trkpt><trkpt lat="44.373715" lon="10.3882317"><ele>514.0</ele><time>2026-04-19T10:24:17.909Z</time></trkpt><trkpt lat="44.3736417" lon="10.3881783"><ele>514.0</ele><time>2026-04-19T10:24:18.917Z</time></trkpt><trkpt lat="44.37357" lon="10.38813"><ele>514.0</ele><time>2026-04-19T10:24:19.907Z</time></trkpt><trkpt lat="44.3735083" lon="10.3880917"><ele>514.0</ele><time>2026-04-19T10:24:20.971Z</time></trkpt><trkpt lat="44.3734417" lon="10.3880633"><ele>514.0</ele><time>2026-04-19T10:24:21.911Z</time></trkpt><trkpt lat="44.37337" lon="10.3880333"><ele>514.1666666666667</ele><time>2026-04-19T10:24:22.919Z</time></trkpt><trkpt lat="44.3732983" lon="10.3879983"><ele>514.3333333333334</ele><time>2026-04-19T10:24:23.911Z</time></trkpt><trkpt lat="44.3732333" lon="10.3879717"><ele>514.5</ele><time>2026-04-19T10:24:24.91Z</time></trkpt><trkpt lat="44.3731233" lon="10.3879633"><ele>514.6666666666666</ele><time>2026-04-19T10:24:26.931Z</time></trkpt><trkpt lat="44.3730433" lon="10.3879917"><ele>514.8333333333333</ele><time>2026-04-19T10:24:28.914Z</time></trkpt><trkpt lat="44.3730017" lon="10.3880633"><ele>515.0</ele><time>2026-04-19T10:24:30.912Z</time></trkpt><trkpt lat="44.3729917" lon="10.3881517"><ele>515.0</ele><time>2026-04-19T10:24:32.98Z</time></trkpt><trkpt lat="44.37293" lon="10.3882033"><ele>515.0</ele><time>2026-04-19T10:24:35.951Z</time></trkpt><trkpt lat="44.372845" lon="10.3881333"><ele>515.0</ele><time>2026-04-19T10:24:37.93Z</time></trkpt><trkpt lat="44.37276" lon="10.38807"><ele>515.0</ele><time>2026-04-19T10:24:39.913Z</time></trkpt><trkpt lat="44.372695" lon="10.3880533"><ele>515.0</ele><time>2026-04-19T10:24:41.967Z</time></trkpt><trkpt lat="44.372645" lon="10.3879883"><ele>515.0</ele><time>2026-04-19T10:25:19.91Z</time></trkpt><trkpt lat="44.37261" lon="10.3879133"><ele>518.2</ele><time>2026-04-19T10:25:20.937Z</time></trkpt><trkpt lat="44.372565" lon="10.3878333"><ele>521.4</ele><time>2026-04-19T10:25:21.92Z</time></trkpt><trkpt lat="44.372515" lon="10.38774"><ele>524.6</ele><time>2026-04-19T10:25:22.922Z</time></trkpt><trkpt lat="44.3724583" lon="10.3876333"><ele>527.8</ele><time>2026-04-19T10:25:23.912Z</time></trkpt><trkpt lat="44.3723933" lon="10.3875133"><ele>531.0</ele><time>2026-04-19T10:25:24.967Z</time></trkpt><trkpt lat="44.372315" lon="10.3873933"><ele>531.0</ele><time>2026-04-19T10:25:25.909Z</time></trkpt><trkpt lat="44.37222" lon="10.3872833"><ele>531.0</ele><time>2026-04-19T10:25:26.944Z</time></trkpt><trkpt lat="44.3721167" lon="10.3871933"><ele>531.0</ele><time>2026-04-19T10:25:27.909Z</time></trkpt><trkpt lat="44.3720083" lon="10.38711"><ele>531.0</ele><time>2026-04-19T10:25:28.94Z</time></trkpt><trkpt lat="44.3719033" lon="10.38703"><ele>534.4</ele><time>2026-04-19T10:25:29.923Z</time></trkpt><trkpt lat="44.371805" lon="10.3869617"><ele>537.8</ele><time>2026-04-19T10:25:30.943Z</time></trkpt><trkpt lat="44.3717067" lon="10.3869167"><ele>541.1999999999999</ele><time>2026-04-19T10:25:31.912Z</time></trkpt><trkpt lat="44.371605" lon="10.3869217"><ele>544.6</ele><time>2026-04-19T10:25:32.91Z</time></trkpt><trkpt lat="44.37151" lon="10.3869733"><ele>548.0</ele><time>2026-04-19T10:25:33.911Z</time></trkpt><trkpt lat="44.3714333" lon="10.387055"><ele>548.0</ele><time>2026-04-19T10:25:34.952Z</time></trkpt><trkpt lat="44.3713517" lon="10.3871367"><ele>548.0</ele><time>2026-04-19T10:25:35.913Z</time></trkpt><trkpt lat="44.371255" lon="10.387195"><ele>548.0</ele><time>2026-04-19T10:25:36.91Z</time></trkpt><trkpt lat="44.37114" lon="10.3872167"><ele>548.0</ele><time>2026-04-19T10:25:37.937Z</time></trkpt><trkpt lat="44.3710033" lon="10.387205"><ele>548.0</ele><time>2026-04-19T10:25:38.913Z</time></trkpt><trkpt lat="44.37085" lon="10.3871733"><ele>548.0</ele><time>2026-04-19T10:25:39.922Z</time></trkpt><trkpt lat="44.3706917" lon="10.3871317"><ele>548.0</ele><time>2026-04-19T10:25:40.924Z</time></trkpt><trkpt lat="44.3705383" lon="10.3870967"><ele>547.75</ele><time>2026-04-19T10:25:41.911Z</time></trkpt><trkpt lat="44.3703867" lon="10.3870567"><ele>547.5</ele><time>2026-04-19T10:25:42.968Z</time></trkpt><trkpt lat="44.37024" lon="10.3870183"><ele>547.25</ele><time>2026-04-19T10:25:43.91Z</time></trkpt><trkpt lat="44.3701017" lon="10.3869833"><ele>547.0</ele><time>2026-04-19T10:25:44.911Z</time></trkpt><trkpt lat="44.3699783" lon="10.3869533"><ele>547.0</ele><time>2026-04-19T10:25:45.909Z</time></trkpt><trkpt lat="44.3698733" lon="10.3869233"><ele>547.0</ele><time>2026-04-19T10:25:46.91Z</time></trkpt><trkpt lat="44.36979" lon="10.386885"><ele>547.0</ele><time>2026-04-19T10:25:47.96Z</time></trkpt><trkpt lat="44.3697217" lon="10.386815"><ele>547.0</ele><time>2026-04-19T10:25:48.918Z</time></trkpt><trkpt lat="44.3696967" lon="10.3867183"><ele>547.0</ele><time>2026-04-19T10:25:49.907Z</time></trkpt><trkpt lat="44.3697133" lon="10.3866183"><ele>547.0</ele><time>2026-04-19T10:25:50.936Z</time></trkpt><trkpt lat="44.3697917" lon="10.38655"><ele>547.0</ele><time>2026-04-19T10:25:51.907Z</time></trkpt><trkpt lat="44.369895" lon="10.3865017"><ele>547.0</ele><time>2026-04-19T10:25:52.911Z</time></trkpt><trkpt lat="44.3700183" lon="10.3864733"><ele>547.0</ele><time>2026-04-19T10:25:53.912Z</time></trkpt><trkpt lat="44.3701583" lon="10.3864417"><ele>547.0</ele><time>2026-04-19T10:25:54.937Z</time></trkpt><trkpt lat="44.3703017" lon="10.3864117"><ele>547.0</ele><time>2026-04-19T10:25:55.91Z</time></trkpt><trkpt lat="44.37044" lon="10.3863833"><ele>547.0</ele><time>2026-04-19T10:25:56.946Z</time></trkpt><trkpt lat="44.3705667" lon="10.3863567"><ele>547.0</ele><time>2026-04-19T10:25:57.909Z</time></trkpt><trkpt lat="44.37068" lon="10.3863167"><ele>547.0</ele><time>2026-04-19T10:25:58.94Z</time></trkpt><trkpt lat="44.3707717" lon="10.3862517"><ele>550.8333333333334</ele><time>2026-04-19T10:25:59.909Z</time></trkpt><trkpt lat="44.3708233" lon="10.3861583"><ele>554.6666666666667</ele><time>2026-04-19T10:26:00.91Z</time></trkpt><trkpt lat="44.3708433" lon="10.38606"><ele>558.5</ele><time>2026-04-19T10:26:01.921Z</time></trkpt><trkpt lat="44.3708233" lon="10.3859633"><ele>562.3333333333334</ele><time>2026-04-19T10:26:02.917Z</time></trkpt><trkpt lat="44.37077" lon="10.3858917"><ele>566.1666666666666</ele><time>2026-04-19T10:26:03.911Z</time></trkpt><trkpt lat="44.3706583" lon="10.3858817"><ele>570.0</ele><time>2026-04-19T10:26:04.913Z</time></trkpt><trkpt lat="44.3705333" lon="10.3859083"><ele>567.5</ele><time>2026-04-19T10:26:05.916Z</time></trkpt><trkpt lat="44.3703967" lon="10.3859483"><ele>565.0</ele><time>2026-04-19T10:26:06.912Z</time></trkpt><trkpt lat="44.3702583" lon="10.385965"><ele>562.5</ele><time>2026-04-19T10:26:07.912Z</time></trkpt><trkpt lat="44.37012" lon="10.3859417"><ele>560.0</ele><time>2026-04-19T10:26:08.921Z</time></trkpt><trkpt lat="44.37" lon="10.3858767"><ele>560.0</ele><time>2026-04-19T10:26:09.918Z</time></trkpt><trkpt lat="44.3699017" lon="10.3857517"><ele>560.0</ele><time>2026-04-19T10:26:10.914Z</time></trkpt><trkpt lat="44.3698317" lon="10.3855767"><ele>560.0</ele><time>2026-04-19T10:26:11.917Z</time></trkpt><trkpt lat="44.369785" lon="10.3853583"><ele>560.0</ele><time>2026-04-19T10:26:12.921Z</time></trkpt><trkpt lat="44.3697467" lon="10.385135"><ele>561.75</ele><time>2026-04-19T10:26:13.912Z</time></trkpt><trkpt lat="44.3697133" lon="10.3849317"><ele>563.5</ele><time>2026-04-19T10:26:14.907Z</time></trkpt><trkpt lat="44.3696733" lon="10.3847683"><ele>565.25</ele><time>2026-04-19T10:26:15.916Z</time></trkpt><trkpt lat="44.3696117" lon="10.3846417"><ele>567.0</ele><time>2026-04-19T10:26:16.919Z</time></trkpt><trkpt lat="44.369525" lon="10.3845417"><ele>571.25</ele><time>2026-04-19T10:26:17.953Z</time></trkpt><trkpt lat="44.3694233" lon="10.3844617"><ele>575.5</ele><time>2026-04-19T10:26:18.93Z</time></trkpt><trkpt lat="44.3693017" lon="10.3844217"><ele>579.75</ele><time>2026-04-19T10:26:19.91Z</time></trkpt><trkpt lat="44.3691567" lon="10.3844267"><ele>584.0</ele><time>2026-04-19T10:26:20.983Z</time></trkpt><trkpt lat="44.3689967" lon="10.38445"><ele>584.0</ele><time>2026-04-19T10:26:21.951Z</time></trkpt><trkpt lat="44.368835" lon="10.3844633"><ele>584.0</ele><time>2026-04-19T10:26:22.939Z</time></trkpt><trkpt lat="44.3686717" lon="10.3844583"><ele>584.0</ele><time>2026-04-19T10:26:23.907Z</time></trkpt><trkpt lat="44.3685133" lon="10.3844067"><ele>584.0</ele><time>2026-04-19T10:26:24.91Z</time></trkpt><trkpt lat="44.368355" lon="10.3843067"><ele>584.0</ele><time>2026-04-19T10:26:25.911Z</time></trkpt><trkpt lat="44.3681967" lon="10.3841883"><ele>584.0</ele><time>2026-04-19T10:26:26.918Z</time></trkpt><trkpt lat="44.368055" lon="10.3840717"><ele>583.1666666666666</ele><time>2026-04-19T10:26:27.91Z</time></trkpt><trkpt lat="44.36794" lon="10.38397"><ele>582.3333333333333</ele><time>2026-04-19T10:26:28.912Z</time></trkpt><trkpt lat="44.367855" lon="10.3838933"><ele>581.5</ele><time>2026-04-19T10:26:29.915Z</time></trkpt><trkpt lat="44.36781" lon="10.3838167"><ele>580.6666666666666</ele><time>2026-04-19T10:26:30.911Z</time></trkpt><trkpt lat="44.36778" lon="10.383725"><ele>579.8333333333334</ele><time>2026-04-19T10:26:31.918Z</time></trkpt><trkpt lat="44.367785" lon="10.3836367"><ele>579.0</ele><time>2026-04-19T10:26:32.909Z</time></trkpt><trkpt lat="44.36791" lon="10.3836267"><ele>580.6666666666666</ele><time>2026-04-19T10:26:34.938Z</time></trkpt><trkpt lat="44.3680233" lon="10.383685"><ele>582.3333333333333</ele><time>2026-04-19T10:26:35.911Z</time></trkpt><trkpt lat="44.3681783" lon="10.383795"><ele>584.0</ele><time>2026-04-19T10:26:36.923Z</time></trkpt><trkpt lat="44.3683567" lon="10.3838817"><ele>584.0</ele><time>2026-04-19T10:26:37.947Z</time></trkpt><trkpt lat="44.36852" lon="10.383915"><ele>584.0</ele><time>2026-04-19T10:26:38.921Z</time></trkpt><trkpt lat="44.36869" lon="10.3838867"><ele>584.0</ele><time>2026-04-19T10:26:39.929Z</time></trkpt><trkpt lat="44.3688383" lon="10.38384"><ele>586.4</ele><time>2026-04-19T10:26:40.919Z</time></trkpt><trkpt lat="44.3689667" lon="10.3837867"><ele>588.8</ele><time>2026-04-19T10:26:41.937Z</time></trkpt><trkpt lat="44.3690467" lon="10.3837067"><ele>591.2</ele><time>2026-04-19T10:26:42.917Z</time></trkpt><trkpt lat="44.3690817" lon="10.3836017"><ele>593.6</ele><time>2026-04-19T10:26:43.923Z</time></trkpt><trkpt lat="44.3690583" lon="10.383485"><ele>596.0</ele><time>2026-04-19T10:26:44.936Z</time></trkpt><trkpt lat="44.368975" lon="10.3833767"><ele>596.0</ele><time>2026-04-19T10:26:45.978Z</time></trkpt><trkpt lat="44.3688633" lon="10.38328"><ele>596.0</ele><time>2026-04-19T10:26:46.913Z</time></trkpt><trkpt lat="44.3687467" lon="10.38318"><ele>596.0</ele><time>2026-04-19T10:26:47.967Z</time></trkpt><trkpt lat="44.3686217" lon="10.3830717"><ele>596.0</ele><time>2026-04-19T10:26:48.929Z</time></trkpt><trkpt lat="44.3684867" lon="10.3829467"><ele>600.6666666666666</ele><time>2026-04-19T10:26:49.95Z</time></trkpt><trkpt lat="44.3683433" lon="10.3828083"><ele>605.3333333333334</ele><time>2026-04-19T10:26:50.924Z</time></trkpt><trkpt lat="44.3682" lon="10.38266"><ele>610.0</ele><time>2026-04-19T10:26:51.907Z</time></trkpt><trkpt lat="44.3680583" lon="10.3825017"><ele>611.3333333333334</ele><time>2026-04-19T10:26:52.979Z</time></trkpt><trkpt lat="44.3679217" lon="10.3823333"><ele>612.6666666666666</ele><time>2026-04-19T10:26:53.918Z</time></trkpt><trkpt lat="44.3678" lon="10.382165"><ele>614.0</ele><time>2026-04-19T10:26:54.916Z</time></trkpt><trkpt lat="44.3676933" lon="10.382"><ele>614.0</ele><time>2026-04-19T10:26:55.942Z</time></trkpt><trkpt lat="44.367605" lon="10.381825"><ele>614.0</ele><time>2026-04-19T10:26:56.979Z</time></trkpt><trkpt lat="44.367535" lon="10.3816217"><ele>614.0</ele><time>2026-04-19T10:26:57.935Z</time></trkpt><trkpt lat="44.3674883" lon="10.381415"><ele>615.25</ele><time>2026-04-19T10:26:58.936Z</time></trkpt><trkpt lat="44.3674583" lon="10.38122"><ele>616.5</ele><time>2026-04-19T10:26:59.908Z</time></trkpt><trkpt lat="44.3674367" lon="10.3810433"><ele>617.75</ele><time>2026-04-19T10:27:00.94Z</time></trkpt><trkpt lat="44.367405" lon="10.3808867"><ele>619.0</ele><time>2026-04-19T10:27:01.971Z</time></trkpt><trkpt lat="44.36735" lon="10.3807617"><ele>619.0</ele><time>2026-04-19T10:27:02.934Z</time></trkpt><trkpt lat="44.36727" lon="10.38066"><ele>619.0</ele><time>2026-04-19T10:27:03.916Z</time></trkpt><trkpt lat="44.36719" lon="10.3805667"><ele>619.0</ele><time>2026-04-19T10:27:04.948Z</time></trkpt><trkpt lat="44.367125" lon="10.3804817"><ele>619.0</ele><time>2026-04-19T10:27:05.941Z</time></trkpt><trkpt lat="44.3670733" lon="10.380395"><ele>619.0</ele><time>2026-04-19T10:27:06.927Z</time></trkpt><trkpt lat="44.3670383" lon="10.3803033"><ele>620.25</ele><time>2026-04-19T10:27:07.91Z</time></trkpt><trkpt lat="44.36707" lon="10.380205"><ele>621.5</ele><time>2026-04-19T10:27:08.919Z</time></trkpt><trkpt lat="44.3671867" lon="10.3801633"><ele>622.75</ele><time>2026-04-19T10:27:09.934Z</time></trkpt><trkpt lat="44.367315" lon="10.3801533"><ele>624.0</ele><time>2026-04-19T10:27:10.951Z</time></trkpt><trkpt lat="44.367455" lon="10.380155"><ele>625.3333333333334</ele><time>2026-04-19T10:27:11.911Z</time></trkpt><trkpt lat="44.3676083" lon="10.38016"><ele>626.6666666666667</ele><time>2026-04-19T10:27:12.915Z</time></trkpt><trkpt lat="44.3677683" lon="10.38016"><ele>628.0</ele><time>2026-04-19T10:27:13.908Z</time></trkpt><trkpt lat="44.3679233" lon="10.380155"><ele>629.75</ele><time>2026-04-19T10:27:14.909Z</time></trkpt><trkpt lat="44.36807" lon="10.3801617"><ele>631.5</ele><time>2026-04-19T10:27:15.914Z</time></trkpt><trkpt lat="44.3682033" lon="10.3801967"><ele>633.25</ele><time>2026-04-19T10:27:16.917Z</time></trkpt><trkpt lat="44.3683133" lon="10.3802733"><ele>635.0</ele><time>2026-04-19T10:27:17.907Z</time></trkpt><trkpt lat="44.3683917" lon="10.38038"><ele>635.0</ele><time>2026-04-19T10:27:18.971Z</time></trkpt><trkpt lat="44.3684567" lon="10.3804867"><ele>635.0</ele><time>2026-04-19T10:27:19.943Z</time></trkpt><trkpt lat="44.3685217" lon="10.3805583"><ele>635.0</ele><time>2026-04-19T10:27:20.92Z</time></trkpt><trkpt lat="44.3685933" lon="10.380565"><ele>635.0</ele><time>2026-04-19T10:27:21.94Z</time></trkpt><trkpt lat="44.3686533" lon="10.380505"><ele>635.0</ele><time>2026-04-19T10:27:22.914Z</time></trkpt><trkpt lat="44.3686733" lon="10.3803783"><ele>635.0</ele><time>2026-04-19T10:27:23.918Z</time></trkpt><trkpt lat="44.3686567" lon="10.3802183"><ele>635.0</ele><time>2026-04-19T10:27:24.909Z</time></trkpt><trkpt lat="44.3686083" lon="10.38005"><ele>635.0</ele><time>2026-04-19T10:27:25.912Z</time></trkpt><trkpt lat="44.368525" lon="10.379885"><ele>635.0</ele><time>2026-04-19T10:27:26.912Z</time></trkpt><trkpt lat="44.3684183" lon="10.3797283"><ele>635.0</ele><time>2026-04-19T10:27:28.084Z</time></trkpt><trkpt lat="44.3683033" lon="10.379575"><ele>637.0</ele><time>2026-04-19T10:27:28.959Z</time></trkpt><trkpt lat="44.3681917" lon="10.379425"><ele>639.0</ele><time>2026-04-19T10:27:29.92Z</time></trkpt><trkpt lat="44.3680733" lon="10.3793067"><ele>641.0</ele><time>2026-04-19T10:27:30.935Z</time></trkpt><trkpt lat="44.3679333" lon="10.3792333"><ele>641.0</ele><time>2026-04-19T10:27:31.962Z</time></trkpt><trkpt lat="44.3677967" lon="10.3791717"><ele>641.0</ele><time>2026-04-19T10:27:32.912Z</time></trkpt><trkpt lat="44.367675" lon="10.37911"><ele>641.0</ele><time>2026-04-19T10:27:33.917Z</time></trkpt><trkpt lat="44.36757" lon="10.3790317"><ele>641.0</ele><time>2026-04-19T10:27:34.924Z</time></trkpt><trkpt lat="44.3674767" lon="10.3789117"><ele>642.75</ele><time>2026-04-19T10:27:35.995Z</time></trkpt><trkpt lat="44.3673917" lon="10.3787483"><ele>644.5</ele><time>2026-04-19T10:27:36.918Z</time></trkpt><trkpt lat="44.3673033" lon="10.3785783"><ele>646.25</ele><time>2026-04-19T10:27:37.91Z</time></trkpt><trkpt lat="44.3671933" lon="10.3784283"><ele>648.0</ele><time>2026-04-19T10:27:38.931Z</time></trkpt><trkpt lat="44.3670633" lon="10.3783133"><ele>648.0</ele><time>2026-04-19T10:27:39.964Z</time></trkpt><trkpt lat="44.3669233" lon="10.3782167"><ele>648.0</ele><time>2026-04-19T10:27:40.953Z</time></trkpt><trkpt lat="44.366795" lon="10.3781117"><ele>648.0</ele><time>2026-04-19T10:27:41.939Z</time></trkpt><trkpt lat="44.3666783" lon="10.3779733"><ele>650.6666666666666</ele><time>2026-04-19T10:27:42.911Z</time></trkpt><trkpt lat="44.3665567" lon="10.377835"><ele>653.3333333333333</ele><time>2026-04-19T10:27:43.918Z</time></trkpt><trkpt lat="44.3664283" lon="10.377715"><ele>656.0</ele><time>2026-04-19T10:27:44.909Z</time></trkpt><trkpt lat="44.3663033" lon="10.3776217"><ele>656.0</ele><time>2026-04-19T10:27:45.967Z</time></trkpt><trkpt lat="44.366185" lon="10.3775433"><ele>656.0</ele><time>2026-04-19T10:27:46.936Z</time></trkpt><trkpt lat="44.366065" lon="10.3774683"><ele>656.0</ele><time>2026-04-19T10:27:47.955Z</time></trkpt><trkpt lat="44.3659367" lon="10.3774117"><ele>656.0</ele><time>2026-04-19T10:27:48.906Z</time></trkpt><trkpt lat="44.3657983" lon="10.3773933"><ele>656.0</ele><time>2026-04-19T10:27:49.91Z</time></trkpt><trkpt lat="44.365655" lon="10.377395"><ele>656.0</ele><time>2026-04-19T10:27:50.904Z</time></trkpt><trkpt lat="44.3655183" lon="10.377395"><ele>656.0</ele><time>2026-04-19T10:27:51.91Z</time></trkpt><trkpt lat="44.36539" lon="10.3773733"><ele>656.0</ele><time>2026-04-19T10:27:52.909Z</time></trkpt><trkpt lat="44.3652667" lon="10.377305"><ele>656.25</ele><time>2026-04-19T10:27:53.912Z</time></trkpt><trkpt lat="44.3651367" lon="10.3772283"><ele>656.5</ele><time>2026-04-19T10:27:54.909Z</time></trkpt><trkpt lat="44.3650017" lon="10.3771733"><ele>656.75</ele><time>2026-04-19T10:27:55.917Z</time></trkpt><trkpt lat="44.3648667" lon="10.3771683"><ele>657.0</ele><time>2026-04-19T10:27:56.91Z</time></trkpt><trkpt lat="44.3647317" lon="10.3772117"><ele>659.25</ele><time>2026-04-19T10:27:57.911Z</time></trkpt><trkpt lat="44.3646067" lon="10.3772783"><ele>661.5</ele><time>2026-04-19T10:27:58.948Z</time></trkpt><trkpt lat="44.3644783" lon="10.3773283"><ele>663.75</ele><time>2026-04-19T10:27:59.908Z</time></trkpt><trkpt lat="44.3643367" lon="10.3773283"><ele>666.0</ele><time>2026-04-19T10:28:00.91Z</time></trkpt><trkpt lat="44.3641933" lon="10.3773"><ele>666.0</ele><time>2026-04-19T10:28:01.912Z</time></trkpt><trkpt lat="44.3640583" lon="10.3772833"><ele>666.0</ele><time>2026-04-19T10:28:02.91Z</time></trkpt><trkpt lat="44.363945" lon="10.3773067"><ele>666.0</ele><time>2026-04-19T10:28:03.909Z</time></trkpt><trkpt lat="44.3638533" lon="10.3773317"><ele>666.0</ele><time>2026-04-19T10:28:04.919Z</time></trkpt><trkpt lat="44.36377" lon="10.3773283"><ele>666.0</ele><time>2026-04-19T10:28:05.906Z</time></trkpt><trkpt lat="44.363715" lon="10.3772367"><ele>667.75</ele><time>2026-04-19T10:28:06.91Z</time></trkpt><trkpt lat="44.363665" lon="10.3771033"><ele>669.5</ele><time>2026-04-19T10:28:07.927Z</time></trkpt><trkpt lat="44.3635967" lon="10.37696"><ele>671.25</ele><time>2026-04-19T10:28:08.941Z</time></trkpt><trkpt lat="44.3635017" lon="10.3768217"><ele>673.0</ele><time>2026-04-19T10:28:09.911Z</time></trkpt><trkpt lat="44.3633733" lon="10.37669"><ele>673.0</ele><time>2026-04-19T10:28:10.95Z</time></trkpt><trkpt lat="44.36323" lon="10.3765633"><ele>673.0</ele><time>2026-04-19T10:28:11.938Z</time></trkpt><trkpt lat="44.3630817" lon="10.3764317"><ele>673.0</ele><time>2026-04-19T10:28:12.919Z</time></trkpt><trkpt lat="44.3629333" lon="10.3763017"><ele>675.3333333333334</ele><time>2026-04-19T10:28:13.911Z</time></trkpt><trkpt lat="44.36278" lon="10.3761867"><ele>677.6666666666666</ele><time>2026-04-19T10:28:14.909Z</time></trkpt><trkpt lat="44.3626133" lon="10.3760883"><ele>680.0</ele><time>2026-04-19T10:28:15.922Z</time></trkpt><trkpt lat="44.3624483" lon="10.3760067"><ele>680.0</ele><time>2026-04-19T10:28:16.921Z</time></trkpt><trkpt lat="44.3622883" lon="10.3759367"><ele>680.0</ele><time>2026-04-19T10:28:17.916Z</time></trkpt><trkpt lat="44.3621367" lon="10.3758717"><ele>680.0</ele><time>2026-04-19T10:28:18.929Z</time></trkpt><trkpt lat="44.3619967" lon="10.37581"><ele>679.0</ele><time>2026-04-19T10:28:19.96Z</time></trkpt><trkpt lat="44.3618733" lon="10.3757517"><ele>678.0</ele><time>2026-04-19T10:28:20.948Z</time></trkpt><trkpt lat="44.361765" lon="10.3757067"><ele>677.0</ele><time>2026-04-19T10:28:21.908Z</time></trkpt><trkpt lat="44.3616667" lon="10.3756883"><ele>676.0</ele><time>2026-04-19T10:28:22.935Z</time></trkpt><trkpt lat="44.361575" lon="10.3757167"><ele>675.0</ele><time>2026-04-19T10:28:23.929Z</time></trkpt><trkpt lat="44.3614917" lon="10.3757967"><ele>675.0</ele><time>2026-04-19T10:28:24.91Z</time></trkpt><trkpt lat="44.3614317" lon="10.3759267"><ele>675.0</ele><time>2026-04-19T10:28:25.91Z</time></trkpt><trkpt lat="44.3614183" lon="10.3760983"><ele>675.0</ele><time>2026-04-19T10:28:26.981Z</time></trkpt><trkpt lat="44.3614233" lon="10.376305"><ele>675.0</ele><time>2026-04-19T10:28:27.91Z</time></trkpt><trkpt lat="44.361415" lon="10.3765317"><ele>673.3333333333334</ele><time>2026-04-19T10:28:28.947Z</time></trkpt><trkpt lat="44.361405" lon="10.3767667"><ele>671.6666666666667</ele><time>2026-04-19T10:28:29.936Z</time></trkpt><trkpt lat="44.3613817" lon="10.3770017"><ele>670.0</ele><time>2026-04-19T10:28:30.941Z</time></trkpt><trkpt lat="44.3613583" lon="10.3772333"><ele>677.6666666666667</ele><time>2026-04-19T10:28:31.95Z</time></trkpt><trkpt lat="44.3613433" lon="10.3774683"><ele>685.3333333333334</ele><time>2026-04-19T10:28:32.956Z</time></trkpt><trkpt lat="44.361335" lon="10.3776867"><ele>693.0</ele><time>2026-04-19T10:28:33.911Z</time></trkpt><trkpt lat="44.3613283" lon="10.3778867"><ele>691.4</ele><time>2026-04-19T10:28:34.915Z</time></trkpt><trkpt lat="44.361315" lon="10.3780567"><ele>689.8</ele><time>2026-04-19T10:28:35.956Z</time></trkpt><trkpt lat="44.36128" lon="10.3781983"><ele>688.2</ele><time>2026-04-19T10:28:36.953Z</time></trkpt><trkpt lat="44.36121" lon="10.3783017"><ele>686.6</ele><time>2026-04-19T10:28:37.931Z</time></trkpt><trkpt lat="44.361115" lon="10.37836"><ele>685.0</ele><time>2026-04-19T10:28:38.912Z</time></trkpt><trkpt lat="44.361" lon="10.3783383"><ele>685.0</ele><time>2026-04-19T10:28:39.923Z</time></trkpt><trkpt lat="44.3608817" lon="10.3782683"><ele>685.0</ele><time>2026-04-19T10:28:40.967Z</time></trkpt><trkpt lat="44.360755" lon="10.3781633"><ele>685.0</ele><time>2026-04-19T10:28:41.923Z</time></trkpt><trkpt lat="44.3606217" lon="10.3780533"><ele>685.0</ele><time>2026-04-19T10:28:42.918Z</time></trkpt><trkpt lat="44.3604967" lon="10.3779683"><ele>687.5</ele><time>2026-04-19T10:28:43.971Z</time></trkpt><trkpt lat="44.360375" lon="10.377935"><ele>690.0</ele><time>2026-04-19T10:28:44.954Z</time></trkpt><trkpt lat="44.3602467" lon="10.3779667"><ele>692.5</ele><time>2026-04-19T10:28:45.917Z</time></trkpt><trkpt lat="44.3601167" lon="10.3780633"><ele>695.0</ele><time>2026-04-19T10:28:46.913Z</time></trkpt><trkpt lat="44.3599933" lon="10.3782"><ele>695.0</ele><time>2026-04-19T10:28:47.923Z</time></trkpt><trkpt lat="44.3598633" lon="10.37835"><ele>695.0</ele><time>2026-04-19T10:28:48.922Z</time></trkpt><trkpt lat="44.359725" lon="10.3785"><ele>695.0</ele><time>2026-04-19T10:28:49.96Z</time></trkpt><trkpt lat="44.3595867" lon="10.3786333"><ele>696.6666666666666</ele><time>2026-04-19T10:28:50.968Z</time></trkpt><trkpt lat="44.35944" lon="10.3787533"><ele>698.3333333333334</ele><time>2026-04-19T10:28:51.972Z</time></trkpt><trkpt lat="44.3592767" lon="10.3788567"><ele>700.0</ele><time>2026-04-19T10:28:52.96Z</time></trkpt><trkpt lat="44.3591" lon="10.3789383"><ele>700.0</ele><time>2026-04-19T10:28:53.951Z</time></trkpt><trkpt lat="44.3589117" lon="10.3790167"><ele>700.0</ele><time>2026-04-19T10:28:54.912Z</time></trkpt><trkpt lat="44.358735" lon="10.3790917"><ele>700.0</ele><time>2026-04-19T10:28:55.912Z</time></trkpt><trkpt lat="44.358575" lon="10.3791583"><ele>703.0</ele><time>2026-04-19T10:28:56.909Z</time></trkpt><trkpt lat="44.358425" lon="10.3792083"><ele>706.0</ele><time>2026-04-19T10:28:57.945Z</time></trkpt><trkpt lat="44.358275" lon="10.3792183"><ele>709.0</ele><time>2026-04-19T10:28:58.958Z</time></trkpt><trkpt lat="44.3581217" lon="10.3791917"><ele>710.0</ele><time>2026-04-19T10:28:59.927Z</time></trkpt><trkpt lat="44.357965" lon="10.3791217"><ele>711.0</ele><time>2026-04-19T10:29:00.919Z</time></trkpt><trkpt lat="44.3578033" lon="10.3790433"><ele>712.0</ele><time>2026-04-19T10:29:01.975Z</time></trkpt><trkpt lat="44.3576583" lon="10.3789717"><ele>712.0</ele><time>2026-04-19T10:29:02.909Z</time></trkpt><trkpt lat="44.3575367" lon="10.37892"><ele>712.0</ele><time>2026-04-19T10:29:03.907Z</time></trkpt><trkpt lat="44.357425" lon="10.378905"><ele>712.0</ele><time>2026-04-19T10:29:04.91Z</time></trkpt><trkpt lat="44.3573233" lon="10.37894"><ele>712.0</ele><time>2026-04-19T10:29:05.909Z</time></trkpt><trkpt lat="44.3572467" lon="10.3790283"><ele>712.0</ele><time>2026-04-19T10:29:06.912Z</time></trkpt><trkpt lat="44.3572117" lon="10.3791517"><ele>712.0</ele><time>2026-04-19T10:29:07.91Z</time></trkpt><trkpt lat="44.3572167" lon="10.3792867"><ele>712.0</ele><time>2026-04-19T10:29:08.917Z</time></trkpt><trkpt lat="44.3572683" lon="10.379415"><ele>712.0</ele><time>2026-04-19T10:29:09.91Z</time></trkpt><trkpt lat="44.3573417" lon="10.3795483"><ele>712.0</ele><time>2026-04-19T10:29:10.911Z</time></trkpt><trkpt lat="44.3573933" lon="10.3796833"><ele>712.0</ele><time>2026-04-19T10:29:11.91Z</time></trkpt><trkpt lat="44.357405" lon="10.3798217"><ele>712.0</ele><time>2026-04-19T10:29:12.906Z</time></trkpt><trkpt lat="44.3573917" lon="10.3799567"><ele>712.0</ele><time>2026-04-19T10:29:13.906Z</time></trkpt><trkpt lat="44.3573233" lon="10.3800683"><ele>712.0</ele><time>2026-04-19T10:29:14.907Z</time></trkpt><trkpt lat="44.3572167" lon="10.3801733"><ele>712.0</ele><time>2026-04-19T10:29:15.906Z</time></trkpt><trkpt lat="44.3571067" lon="10.3802867"><ele>715.3333333333334</ele><time>2026-04-19T10:29:16.923Z</time></trkpt><trkpt lat="44.35699" lon="10.3804217"><ele>718.6666666666666</ele><time>2026-04-19T10:29:17.919Z</time></trkpt><trkpt lat="44.3568867" lon="10.380575"><ele>722.0</ele><time>2026-04-19T10:29:18.908Z</time></trkpt><trkpt lat="44.3567933" lon="10.3807517"><ele>722.0</ele><time>2026-04-19T10:29:19.971Z</time></trkpt><trkpt lat="44.3566983" lon="10.3809433"><ele>722.0</ele><time>2026-04-19T10:29:20.96Z</time></trkpt><trkpt lat="44.35661" lon="10.3811483"><ele>722.0</ele><time>2026-04-19T10:29:21.924Z</time></trkpt><trkpt lat="44.3565417" lon="10.3813567"><ele>722.0</ele><time>2026-04-19T10:29:22.919Z</time></trkpt><trkpt lat="44.3564933" lon="10.3815533"><ele>722.0</ele><time>2026-04-19T10:29:23.921Z</time></trkpt><trkpt lat="44.3564617" lon="10.3817417"><ele>722.0</ele><time>2026-04-19T10:29:24.915Z</time></trkpt><trkpt lat="44.3564467" lon="10.3819167"><ele>722.0</ele><time>2026-04-19T10:29:25.908Z</time></trkpt><trkpt lat="44.3564417" lon="10.38208"><ele>722.0</ele><time>2026-04-19T10:29:26.919Z</time></trkpt><trkpt lat="44.3564433" lon="10.3822317"><ele>722.0</ele><time>2026-04-19T10:29:27.908Z</time></trkpt><trkpt lat="44.3564417" lon="10.382365"><ele>722.0</ele><time>2026-04-19T10:29:28.912Z</time></trkpt><trkpt lat="44.3564333" lon="10.3824833"><ele>722.0</ele><time>2026-04-19T10:29:29.906Z</time></trkpt><trkpt lat="44.3564183" lon="10.3825783"><ele>722.0</ele><time>2026-04-19T10:29:30.918Z</time></trkpt><trkpt lat="44.3563633" lon="10.3826883"><ele>723.0</ele><time>2026-04-19T10:29:32.909Z</time></trkpt><trkpt lat="44.3563033" lon="10.3827283"><ele>724.0</ele><time>2026-04-19T10:29:35.919Z</time></trkpt><trkpt lat="44.3562383" lon="10.3827867"><ele>725.0</ele><time>2026-04-19T10:29:37.919Z</time></trkpt><trkpt lat="44.3561783" lon="10.3829533"><ele>726.0</ele><time>2026-04-19T10:29:39.925Z</time></trkpt><trkpt lat="44.3561517" lon="10.3830783"><ele>727.0</ele><time>2026-04-19T10:29:40.916Z</time></trkpt><trkpt lat="44.3561183" lon="10.3832267"><ele>727.0</ele><time>2026-04-19T10:29:41.953Z</time></trkpt><trkpt lat="44.356075" lon="10.3833833"><ele>727.0</ele><time>2026-04-19T10:29:42.971Z</time></trkpt><trkpt lat="44.356015" lon="10.3835333"><ele>727.0</ele><time>2026-04-19T10:29:43.931Z</time></trkpt><trkpt lat="44.35593" lon="10.383665"><ele>727.0</ele><time>2026-04-19T10:29:44.93Z</time></trkpt><trkpt lat="44.3558317" lon="10.3837767"><ele>726.25</ele><time>2026-04-19T10:29:45.94Z</time></trkpt><trkpt lat="44.355725" lon="10.3838667"><ele>725.5</ele><time>2026-04-19T10:29:46.908Z</time></trkpt><trkpt lat="44.3556133" lon="10.38394"><ele>724.75</ele><time>2026-04-19T10:29:47.909Z</time></trkpt><trkpt lat="44.3554917" lon="10.3840033"><ele>724.0</ele><time>2026-04-19T10:29:48.939Z</time></trkpt><trkpt lat="44.3553733" lon="10.384055"><ele>724.0</ele><time>2026-04-19T10:29:49.91Z</time></trkpt><trkpt lat="44.35526" lon="10.3840917"><ele>724.0</ele><time>2026-04-19T10:29:50.924Z</time></trkpt><trkpt lat="44.35516" lon="10.3841233"><ele>724.0</ele><time>2026-04-19T10:29:51.955Z</time></trkpt><trkpt lat="44.35507" lon="10.3841733"><ele>724.0</ele><time>2026-04-19T10:29:52.912Z</time></trkpt><trkpt lat="44.3549967" lon="10.384255"><ele>724.0</ele><time>2026-04-19T10:29:53.912Z</time></trkpt><trkpt lat="44.3549683" lon="10.3843783"><ele>724.0</ele><time>2026-04-19T10:29:54.912Z</time></trkpt><trkpt lat="44.354985" lon="10.3845133"><ele>724.0</ele><time>2026-04-19T10:29:55.927Z</time></trkpt><trkpt lat="44.3550317" lon="10.3846383"><ele>724.0</ele><time>2026-04-19T10:29:56.952Z</time></trkpt><trkpt lat="44.3551117" lon="10.3847433"><ele>724.0</ele><time>2026-04-19T10:29:57.911Z</time></trkpt><trkpt lat="44.355225" lon="10.3848433"><ele>724.0</ele><time>2026-04-19T10:29:58.916Z</time></trkpt><trkpt lat="44.3553517" lon="10.3849583"><ele>728.3333333333334</ele><time>2026-04-19T10:29:59.922Z</time></trkpt><trkpt lat="44.3554833" lon="10.385085"><ele>732.6666666666666</ele><time>2026-04-19T10:30:00.947Z</time></trkpt><trkpt lat="44.355615" lon="10.385225"><ele>737.0</ele><time>2026-04-19T10:30:01.921Z</time></trkpt><trkpt lat="44.35574" lon="10.3853717"><ele>737.3333333333333</ele><time>2026-04-19T10:30:02.916Z</time></trkpt><trkpt lat="44.3558717" lon="10.3855217"><ele>737.6666666666666</ele><time>2026-04-19T10:30:03.928Z</time></trkpt><trkpt lat="44.3560183" lon="10.3856633"><ele>738.0</ele><time>2026-04-19T10:30:04.928Z</time></trkpt><trkpt lat="44.3561783" lon="10.3857833"><ele>738.0</ele><time>2026-04-19T10:30:05.927Z</time></trkpt><trkpt lat="44.356345" lon="10.3858833"><ele>738.0</ele><time>2026-04-19T10:30:06.911Z</time></trkpt><trkpt lat="44.3565167" lon="10.3859767"><ele>738.0</ele><time>2026-04-19T10:30:07.91Z</time></trkpt><trkpt lat="44.356685" lon="10.3860667"><ele>730.6666666666666</ele><time>2026-04-19T10:30:08.913Z</time></trkpt><trkpt lat="44.356855" lon="10.386155"><ele>723.3333333333333</ele><time>2026-04-19T10:30:09.919Z</time></trkpt><trkpt lat="44.3570167" lon="10.386245"><ele>716.0</ele><time>2026-04-19T10:30:10.936Z</time></trkpt><trkpt lat="44.3571667" lon="10.3863267"><ele>720.25</ele><time>2026-04-19T10:30:11.938Z</time></trkpt><trkpt lat="44.3573117" lon="10.3864017"><ele>724.5</ele><time>2026-04-19T10:30:12.908Z</time></trkpt><trkpt lat="44.35745" lon="10.3864767"><ele>728.75</ele><time>2026-04-19T10:30:13.909Z</time></trkpt><trkpt lat="44.357585" lon="10.38655"><ele>733.0</ele><time>2026-04-19T10:30:14.909Z</time></trkpt><trkpt lat="44.3577183" lon="10.3866167"><ele>733.0</ele><time>2026-04-19T10:30:15.91Z</time></trkpt><trkpt lat="44.3578467" lon="10.3866817"><ele>733.0</ele><time>2026-04-19T10:30:16.91Z</time></trkpt><trkpt lat="44.3579717" lon="10.3867517"><ele>733.0</ele><time>2026-04-19T10:30:17.966Z</time></trkpt><trkpt lat="44.3580883" lon="10.3868317"><ele>733.0</ele><time>2026-04-19T10:30:18.913Z</time></trkpt><trkpt lat="44.3581917" lon="10.38693"><ele>732.5</ele><time>2026-04-19T10:30:19.928Z</time></trkpt><trkpt lat="44.358275" lon="10.3870583"><ele>732.0</ele><time>2026-04-19T10:30:20.91Z</time></trkpt><trkpt lat="44.35833" lon="10.3872233"><ele>731.5</ele><time>2026-04-19T10:30:21.909Z</time></trkpt><trkpt lat="44.3583667" lon="10.3874117"><ele>731.0</ele><time>2026-04-19T10:30:22.919Z</time></trkpt><trkpt lat="44.358405" lon="10.3876033"><ele>731.0</ele><time>2026-04-19T10:30:23.944Z</time></trkpt><trkpt lat="44.358445" lon="10.3877983"><ele>731.0</ele><time>2026-04-19T10:30:24.917Z</time></trkpt><trkpt lat="44.35851" lon="10.38798"><ele>731.0</ele><time>2026-04-19T10:30:25.907Z</time></trkpt><trkpt lat="44.358605" lon="10.3881433"><ele>731.0</ele><time>2026-04-19T10:30:26.909Z</time></trkpt><trkpt lat="44.3587367" lon="10.3882767"><ele>727.6666666666666</ele><time>2026-04-19T10:30:27.915Z</time></trkpt><trkpt lat="44.35888" lon="10.3883817"><ele>724.3333333333334</ele><time>2026-04-19T10:30:28.913Z</time></trkpt><trkpt lat="44.35903" lon="10.3884667"><ele>721.0</ele><time>2026-04-19T10:30:29.961Z</time></trkpt><trkpt lat="44.3591633" lon="10.38856"><ele>721.0</ele><time>2026-04-19T10:30:30.926Z</time></trkpt><trkpt lat="44.3592817" lon="10.388675"><ele>721.0</ele><time>2026-04-19T10:30:31.934Z</time></trkpt><trkpt lat="44.3593833" lon="10.388825"><ele>721.0</ele><time>2026-04-19T10:30:32.914Z</time></trkpt><trkpt lat="44.3594567" lon="10.3890133"><ele>721.0</ele><time>2026-04-19T10:30:33.91Z</time></trkpt><trkpt lat="44.3595267" lon="10.38923"><ele>723.0</ele><time>2026-04-19T10:30:34.915Z</time></trkpt><trkpt lat="44.359595" lon="10.3894617"><ele>725.0</ele><time>2026-04-19T10:30:35.911Z</time></trkpt><trkpt lat="44.35966" lon="10.389695"><ele>727.0</ele><time>2026-04-19T10:30:36.911Z</time></trkpt><trkpt lat="44.3597233" lon="10.3899083"><ele>727.0</ele><time>2026-04-19T10:30:37.967Z</time></trkpt><trkpt lat="44.3598" lon="10.3901067"><ele>727.0</ele><time>2026-04-19T10:30:38.937Z</time></trkpt><trkpt lat="44.3599033" lon="10.3902783"><ele>727.0</ele><time>2026-04-19T10:30:39.909Z</time></trkpt><trkpt lat="44.3600333" lon="10.3904267"><ele>738.0</ele><time>2026-04-19T10:30:40.924Z</time></trkpt><trkpt lat="44.3601783" lon="10.3905567"><ele>749.0</ele><time>2026-04-19T10:30:41.966Z</time></trkpt><trkpt lat="44.360335" lon="10.39066"><ele>760.0</ele><time>2026-04-19T10:30:42.906Z</time></trkpt><trkpt lat="44.3604967" lon="10.39073"><ele>753.0</ele><time>2026-04-19T10:30:43.932Z</time></trkpt><trkpt lat="44.36068" lon="10.3907633"><ele>746.0</ele><time>2026-04-19T10:30:44.922Z</time></trkpt><trkpt lat="44.36087" lon="10.3907683"><ele>739.0</ele><time>2026-04-19T10:30:45.905Z</time></trkpt><trkpt lat="44.361045" lon="10.3907567"><ele>739.0</ele><time>2026-04-19T10:30:46.947Z</time></trkpt><trkpt lat="44.3612083" lon="10.390755"><ele>739.0</ele><time>2026-04-19T10:30:47.938Z</time></trkpt><trkpt lat="44.3613633" lon="10.3907667"><ele>739.0</ele><time>2026-04-19T10:30:48.93Z</time></trkpt><trkpt lat="44.361505" lon="10.3908083"><ele>735.6666666666667</ele><time>2026-04-19T10:30:49.911Z</time></trkpt><trkpt lat="44.3616483" lon="10.3908983"><ele>732.3333333333334</ele><time>2026-04-19T10:30:50.907Z</time></trkpt><trkpt lat="44.36178" lon="10.3910217"><ele>729.0</ele><time>2026-04-19T10:30:51.918Z</time></trkpt><trkpt lat="44.3619067" lon="10.3911433"><ele>729.0</ele><time>2026-04-19T10:30:52.906Z</time></trkpt><trkpt lat="44.3620433" lon="10.391235"><ele>729.0</ele><time>2026-04-19T10:30:53.91Z</time></trkpt><trkpt lat="44.3621783" lon="10.3912883"><ele>729.0</ele><time>2026-04-19T10:30:54.913Z</time></trkpt><trkpt lat="44.3623017" lon="10.39133"><ele>729.0</ele><time>2026-04-19T10:30:55.927Z</time></trkpt><trkpt lat="44.3624233" lon="10.3913833"><ele>732.75</ele><time>2026-04-19T10:30:56.95Z</time></trkpt><trkpt lat="44.3625267" lon="10.3914667"><ele>736.5</ele><time>2026-04-19T10:30:57.909Z</time></trkpt><trkpt lat="44.3626133" lon="10.391585"><ele>740.25</ele><time>2026-04-19T10:30:58.909Z</time></trkpt><trkpt lat="44.3626933" lon="10.3916917"><ele>744.0</ele><time>2026-04-19T10:30:59.909Z</time></trkpt><trkpt lat="44.3627817" lon="10.3917667"><ele>744.0</ele><time>2026-04-19T10:31:00.917Z</time></trkpt><trkpt lat="44.362885" lon="10.3918083"><ele>744.0</ele><time>2026-04-19T10:31:01.909Z</time></trkpt><trkpt lat="44.3630033" lon="10.3918267"><ele>744.0</ele><time>2026-04-19T10:31:02.947Z</time></trkpt><trkpt lat="44.36313" lon="10.3918617"><ele>744.0</ele><time>2026-04-19T10:31:03.912Z</time></trkpt><trkpt lat="44.3632433" lon="10.3919333"><ele>743.4000000000001</ele><time>2026-04-19T10:31:04.955Z</time></trkpt><trkpt lat="44.3633417" lon="10.3920233"><ele>742.8</ele><time>2026-04-19T10:31:05.909Z</time></trkpt><trkpt lat="44.36343" lon="10.3920967"><ele>742.2</ele><time>2026-04-19T10:31:06.91Z</time></trkpt><trkpt lat="44.3635167" lon="10.392155"><ele>741.5999999999999</ele><time>2026-04-19T10:31:07.91Z</time></trkpt><trkpt lat="44.3635933" lon="10.392205"><ele>741.0</ele><time>2026-04-19T10:31:08.928Z</time></trkpt><trkpt lat="44.3636567" lon="10.39226"><ele>741.0</ele><time>2026-04-19T10:31:09.92Z</time></trkpt><trkpt lat="44.3637067" lon="10.3923233"><ele>741.0</ele><time>2026-04-19T10:31:10.91Z</time></trkpt><trkpt lat="44.3637517" lon="10.3924417"><ele>741.0</ele><time>2026-04-19T10:31:12.936Z</time></trkpt><trkpt lat="44.363735" lon="10.3925417"><ele>741.0</ele><time>2026-04-19T10:31:15.908Z</time></trkpt><trkpt lat="44.3636883" lon="10.3924683"><ele>741.0</ele><time>2026-04-19T10:31:25.91Z</time></trkpt><trkpt lat="44.36368" lon="10.392365"><ele>741.0</ele><time>2026-04-19T10:31:27.909Z</time></trkpt><trkpt lat="44.3636033" lon="10.3922817"><ele>741.0</ele><time>2026-04-19T10:31:29.973Z</time></trkpt><trkpt lat="44.3635383" lon="10.3922517"><ele>741.0</ele><time>2026-04-19T10:31:30.907Z</time></trkpt><trkpt lat="44.3634633" lon="10.3922167"><ele>741.0</ele><time>2026-04-19T10:31:31.934Z</time></trkpt><trkpt lat="44.36338" lon="10.3921867"><ele>741.0</ele><time>2026-04-19T10:31:32.93Z</time></trkpt><trkpt lat="44.3633" lon="10.3921717"><ele>741.0</ele><time>2026-04-19T10:31:33.908Z</time></trkpt><trkpt lat="44.3632317" lon="10.3921633"><ele>741.0</ele><time>2026-04-19T10:31:34.916Z</time></trkpt><trkpt lat="44.3631217" lon="10.3921567"><ele>741.5</ele><time>2026-04-19T10:31:36.908Z</time></trkpt><trkpt lat="44.3630167" lon="10.3921433"><ele>742.0</ele><time>2026-04-19T10:31:38.924Z</time></trkpt><trkpt lat="44.3628967" lon="10.392125"><ele>742.5</ele><time>2026-04-19T10:31:40.936Z</time></trkpt><trkpt lat="44.3628333" lon="10.3921133"><ele>743.0</ele><time>2026-04-19T10:31:41.938Z</time></trkpt><trkpt lat="44.36277" lon="10.3920967"><ele>743.5</ele><time>2026-04-19T10:31:42.905Z</time></trkpt><trkpt lat="44.3627017" lon="10.3920783"><ele>744.0</ele><time>2026-04-19T10:31:43.923Z</time></trkpt><trkpt lat="44.3625833" lon="10.3920583"><ele>744.0</ele><time>2026-04-19T10:31:45.916Z</time></trkpt><trkpt lat="44.3624867" lon="10.3920567"><ele>744.0</ele><time>2026-04-19T10:31:47.967Z</time></trkpt><trkpt lat="44.362425" lon="10.3920317"><ele>744.0</ele><time>2026-04-19T10:31:48.924Z</time></trkpt><trkpt lat="44.362305" lon="10.3919883"><ele>744.0</ele><time>2026-04-19T10:31:50.909Z</time></trkpt><trkpt lat="44.36224" lon="10.391965"><ele>744.0</ele><time>2026-04-19T10:31:51.93Z</time></trkpt><trkpt lat="44.3621267" lon="10.3919067"><ele>747.0</ele><time>2026-04-19T10:31:53.93Z</time></trkpt><trkpt lat="44.3620283" lon="10.391855"><ele>750.0</ele><time>2026-04-19T10:31:55.969Z</time></trkpt><trkpt lat="44.3619283" lon="10.3918333"><ele>753.0</ele><time>2026-04-19T10:31:57.91Z</time></trkpt><trkpt lat="44.3618317" lon="10.391815"><ele>756.0</ele><time>2026-04-19T10:31:59.915Z</time></trkpt><trkpt lat="44.361735" lon="10.391795"><ele>759.0</ele><time>2026-04-19T10:32:01.934Z</time></trkpt><trkpt lat="44.3616383" lon="10.3917867"><ele>759.0</ele><time>2026-04-19T10:32:03.922Z</time></trkpt><trkpt lat="44.361555" lon="10.3917833"><ele>759.0</ele><time>2026-04-19T10:32:05.911Z</time></trkpt><trkpt lat="44.361465" lon="10.3917933"><ele>759.0</ele><time>2026-04-19T10:32:08.988Z</time></trkpt><trkpt lat="44.3613933" lon="10.3917767"><ele>759.0</ele><time>2026-04-19T10:32:10.918Z</time></trkpt><trkpt lat="44.36133" lon="10.3917117"><ele>759.0</ele><time>2026-04-19T10:32:13.972Z</time></trkpt><trkpt lat="44.3612217" lon="10.3916867"><ele>759.0</ele><time>2026-04-19T10:32:15.928Z</time></trkpt><trkpt lat="44.3611167" lon="10.3916167"><ele>761.75</ele><time>2026-04-19T10:32:17.98Z</time></trkpt><trkpt lat="44.3610283" lon="10.3915333"><ele>764.5</ele><time>2026-04-19T10:32:19.908Z</time></trkpt><trkpt lat="44.3609217" lon="10.3914783"><ele>767.25</ele><time>2026-04-19T10:32:21.963Z</time></trkpt><trkpt lat="44.3608033" lon="10.3914317"><ele>770.0</ele><time>2026-04-19T10:32:23.919Z</time></trkpt><trkpt lat="44.360685" lon="10.3914017"><ele>770.0</ele><time>2026-04-19T10:32:25.965Z</time></trkpt><trkpt lat="44.3605667" lon="10.3914167"><ele>770.0</ele><time>2026-04-19T10:32:27.907Z</time></trkpt><trkpt lat="44.360505" lon="10.3914367"><ele>770.0</ele><time>2026-04-19T10:32:28.952Z</time></trkpt><trkpt lat="44.3603817" lon="10.3914533"><ele>770.0</ele><time>2026-04-19T10:32:30.963Z</time></trkpt><trkpt lat="44.3603117" lon="10.3914367"><ele>770.0</ele><time>2026-04-19T10:32:31.907Z</time></trkpt><trkpt lat="44.3602317" lon="10.391395"><ele>770.1666666666667</ele><time>2026-04-19T10:32:32.917Z</time></trkpt><trkpt lat="44.3601533" lon="10.3913517"><ele>770.3333333333334</ele><time>2026-04-19T10:32:33.915Z</time></trkpt><trkpt lat="44.3600817" lon="10.3913167"><ele>770.5</ele><time>2026-04-19T10:32:34.914Z</time></trkpt><trkpt lat="44.3600083" lon="10.3912867"><ele>770.6666666666667</ele><time>2026-04-19T10:32:35.955Z</time></trkpt><trkpt lat="44.3599317" lon="10.3912717"><ele>770.8333333333334</ele><time>2026-04-19T10:32:36.909Z</time></trkpt><trkpt lat="44.3598567" lon="10.3912533"><ele>771.0</ele><time>2026-04-19T10:32:37.943Z</time></trkpt><trkpt lat="44.3597767" lon="10.39122"><ele>772.6666666666666</ele><time>2026-04-19T10:32:38.91Z</time></trkpt><trkpt lat="44.3596883" lon="10.39118"><ele>774.3333333333333</ele><time>2026-04-19T10:32:39.909Z</time></trkpt><trkpt lat="44.3596117" lon="10.391125"><ele>776.0</ele><time>2026-04-19T10:32:40.913Z</time></trkpt><trkpt lat="44.3595367" lon="10.3910733"><ele>777.6666666666666</ele><time>2026-04-19T10:32:41.908Z</time></trkpt><trkpt lat="44.3594633" lon="10.39102"><ele>779.3333333333333</ele><time>2026-04-19T10:32:42.916Z</time></trkpt><trkpt lat="44.3593883" lon="10.39096"><ele>781.0</ele><time>2026-04-19T10:32:43.909Z</time></trkpt><trkpt lat="44.35932" lon="10.390895"><ele>780.9999999999999</ele><time>2026-04-19T10:32:44.932Z</time></trkpt><trkpt lat="44.3592533" lon="10.3908333"><ele>781.0</ele><time>2026-04-19T10:32:45.912Z</time></trkpt><trkpt lat="44.3591833" lon="10.3907683"><ele>781.0</ele><time>2026-04-19T10:32:46.945Z</time></trkpt><trkpt lat="44.3591117" lon="10.3906983"><ele>781.0</ele><time>2026-04-19T10:32:47.92Z</time></trkpt><trkpt lat="44.3590317" lon="10.3906283"><ele>780.9999999999999</ele><time>2026-04-19T10:32:48.911Z</time></trkpt><trkpt lat="44.35895" lon="10.39056"><ele>781.0</ele><time>2026-04-19T10:32:49.911Z</time></trkpt><trkpt lat="44.3588683" lon="10.3904967"><ele>782.4</ele><time>2026-04-19T10:32:50.911Z</time></trkpt><trkpt lat="44.3587817" lon="10.3904367"><ele>783.8</ele><time>2026-04-19T10:32:51.908Z</time></trkpt><trkpt lat="44.35869" lon="10.3903767"><ele>785.1999999999999</ele><time>2026-04-19T10:32:52.979Z</time></trkpt><trkpt lat="44.3586" lon="10.39032"><ele>786.5999999999999</ele><time>2026-04-19T10:32:53.909Z</time></trkpt><trkpt lat="44.3585117" lon="10.39027"><ele>788.0</ele><time>2026-04-19T10:32:54.919Z</time></trkpt><trkpt lat="44.3584383" lon="10.3902233"><ele>788.0</ele><time>2026-04-19T10:32:55.923Z</time></trkpt><trkpt lat="44.35836" lon="10.3901767"><ele>788.0</ele><time>2026-04-19T10:32:56.947Z</time></trkpt><trkpt lat="44.358295" lon="10.3901467"><ele>788.0</ele><time>2026-04-19T10:32:57.935Z</time></trkpt><trkpt lat="44.3581817" lon="10.3901167"><ele>788.0</ele><time>2026-04-19T10:32:59.911Z</time></trkpt><trkpt lat="44.3580917" lon="10.390135"><ele>788.0</ele><time>2026-04-19T10:33:02.926Z</time></trkpt><trkpt lat="44.3579983" lon="10.39021"><ele>790.0</ele><time>2026-04-19T10:33:04.93Z</time></trkpt><trkpt lat="44.3578917" lon="10.390295"><ele>792.0</ele><time>2026-04-19T10:33:06.988Z</time></trkpt><trkpt lat="44.357835" lon="10.3903383"><ele>794.0</ele><time>2026-04-19T10:33:07.982Z</time></trkpt><trkpt lat="44.35774" lon="10.390425"><ele>796.0</ele><time>2026-04-19T10:33:09.915Z</time></trkpt><trkpt lat="44.357625" lon="10.3905033"><ele>798.0</ele><time>2026-04-19T10:33:11.919Z</time></trkpt><trkpt lat="44.357555" lon="10.3905283"><ele>798.0</ele><time>2026-04-19T10:33:12.907Z</time></trkpt><trkpt lat="44.3574817" lon="10.39055"><ele>798.0</ele><time>2026-04-19T10:33:13.94Z</time></trkpt><trkpt lat="44.3574" lon="10.3905667"><ele>798.0</ele><time>2026-04-19T10:33:14.92Z</time></trkpt><trkpt lat="44.35731" lon="10.3905767"><ele>798.0</ele><time>2026-04-19T10:33:15.911Z</time></trkpt><trkpt lat="44.3572067" lon="10.390595"><ele>798.0</ele><time>2026-04-19T10:33:16.913Z</time></trkpt><trkpt lat="44.3570983" lon="10.39062"><ele>798.25</ele><time>2026-04-19T10:33:17.983Z</time></trkpt><trkpt lat="44.35698" lon="10.39064"><ele>798.5</ele><time>2026-04-19T10:33:18.955Z</time></trkpt><trkpt lat="44.35686" lon="10.39065"><ele>798.75</ele><time>2026-04-19T10:33:19.946Z</time></trkpt><trkpt lat="44.3567333" lon="10.3906533"><ele>799.0</ele><time>2026-04-19T10:33:20.954Z</time></trkpt><trkpt lat="44.356605" lon="10.3906567"><ele>799.0</ele><time>2026-04-19T10:33:21.909Z</time></trkpt><trkpt lat="44.35648" lon="10.3906717"><ele>799.0</ele><time>2026-04-19T10:33:22.911Z</time></trkpt><trkpt lat="44.3563567" lon="10.390695"><ele>799.0</ele><time>2026-04-19T10:33:23.908Z</time></trkpt><trkpt lat="44.3562333" lon="10.3907383"><ele>799.0</ele><time>2026-04-19T10:33:24.908Z</time></trkpt><trkpt lat="44.3561167" lon="10.3907867"><ele>799.75</ele><time>2026-04-19T10:33:25.923Z</time></trkpt><trkpt lat="44.355995" lon="10.390825"><ele>800.5</ele><time>2026-04-19T10:33:26.963Z</time></trkpt><trkpt lat="44.3558767" lon="10.3908633"><ele>801.25</ele><time>2026-04-19T10:33:27.942Z</time></trkpt><trkpt lat="44.355765" lon="10.39091"><ele>802.0</ele><time>2026-04-19T10:33:28.913Z</time></trkpt><trkpt lat="44.3556683" lon="10.3909567"><ele>801.9999999999999</ele><time>2026-04-19T10:33:29.935Z</time></trkpt><trkpt lat="44.3555783" lon="10.3910083"><ele>802.0</ele><time>2026-04-19T10:33:30.911Z</time></trkpt><trkpt lat="44.355495" lon="10.3910667"><ele>802.0</ele><time>2026-04-19T10:33:31.908Z</time></trkpt><trkpt lat="44.3554317" lon="10.3911183"><ele>802.0</ele><time>2026-04-19T10:33:32.934Z</time></trkpt><trkpt lat="44.3553783" lon="10.3911683"><ele>801.9999999999999</ele><time>2026-04-19T10:33:33.915Z</time></trkpt><trkpt lat="44.355295" lon="10.3912483"><ele>802.0</ele><time>2026-04-19T10:33:35.964Z</time></trkpt><trkpt lat="44.3552117" lon="10.3912633"><ele>804.8</ele><time>2026-04-19T10:33:37.927Z</time></trkpt><trkpt lat="44.355105" lon="10.3912683"><ele>807.6</ele><time>2026-04-19T10:33:39.91Z</time></trkpt><trkpt lat="44.35497" lon="10.391285"><ele>810.4</ele><time>2026-04-19T10:33:41.919Z</time></trkpt><trkpt lat="44.35489" lon="10.3912917"><ele>813.1999999999999</ele><time>2026-04-19T10:33:42.92Z</time></trkpt><trkpt lat="44.3547983" lon="10.3913"><ele>816.0</ele><time>2026-04-19T10:33:43.975Z</time></trkpt><trkpt lat="44.3547117" lon="10.3913067"><ele>814.1999999999999</ele><time>2026-04-19T10:33:44.951Z</time></trkpt><trkpt lat="44.3546217" lon="10.3913333"><ele>812.4</ele><time>2026-04-19T10:33:45.924Z</time></trkpt><trkpt lat="44.3545317" lon="10.3913617"><ele>810.6</ele><time>2026-04-19T10:33:46.928Z</time></trkpt><trkpt lat="44.3544433" lon="10.3913917"><ele>808.8</ele><time>2026-04-19T10:33:47.938Z</time></trkpt><trkpt lat="44.3543467" lon="10.3914283"><ele>807.0</ele><time>2026-04-19T10:33:48.919Z</time></trkpt><trkpt lat="44.3542617" lon="10.3914733"><ele>807.0</ele><time>2026-04-19T10:33:49.906Z</time></trkpt><trkpt lat="44.35417" lon="10.391535"><ele>807.0</ele><time>2026-04-19T10:33:50.946Z</time></trkpt><trkpt lat="44.354085" lon="10.39158"><ele>807.0</ele><time>2026-04-19T10:33:51.911Z</time></trkpt><trkpt lat="44.354" lon="10.3916217"><ele>807.0</ele><time>2026-04-19T10:33:52.947Z</time></trkpt><trkpt lat="44.3539183" lon="10.3916467"><ele>807.0</ele><time>2026-04-19T10:33:53.92Z</time></trkpt><trkpt lat="44.3538333" lon="10.3916567"><ele>808.5</ele><time>2026-04-19T10:33:54.91Z</time></trkpt><trkpt lat="44.35375" lon="10.3916617"><ele>810.0</ele><time>2026-04-19T10:33:55.945Z</time></trkpt><trkpt lat="44.3536617" lon="10.3916733"><ele>811.5</ele><time>2026-04-19T10:33:56.937Z</time></trkpt><trkpt lat="44.3535767" lon="10.39169"><ele>813.0</ele><time>2026-04-19T10:33:57.92Z</time></trkpt><trkpt lat="44.3534867" lon="10.3917"><ele>814.5</ele><time>2026-04-19T10:33:58.928Z</time></trkpt><trkpt lat="44.3534017" lon="10.3917117"><ele>816.0</ele><time>2026-04-19T10:33:59.907Z</time></trkpt><trkpt lat="44.3533233" lon="10.3917283"><ele>816.0</ele><time>2026-04-19T10:34:00.925Z</time></trkpt><trkpt lat="44.353245" lon="10.3917383"><ele>816.0</ele><time>2026-04-19T10:34:01.909Z</time></trkpt><trkpt lat="44.353165" lon="10.39174"><ele>816.0</ele><time>2026-04-19T10:34:02.924Z</time></trkpt><trkpt lat="44.3530883" lon="10.3917333"><ele>816.0</ele><time>2026-04-19T10:34:03.938Z</time></trkpt><trkpt lat="44.353015" lon="10.3917133"><ele>816.0</ele><time>2026-04-19T10:34:04.927Z</time></trkpt><trkpt lat="44.352935" lon="10.3916717"><ele>816.0</ele><time>2026-04-19T10:34:05.907Z</time></trkpt><trkpt lat="44.3528567" lon="10.39161"><ele>816.5999999999999</ele><time>2026-04-19T10:34:06.908Z</time></trkpt><trkpt lat="44.3527783" lon="10.3915367"><ele>817.2</ele><time>2026-04-19T10:34:07.912Z</time></trkpt><trkpt lat="44.352695" lon="10.3914567"><ele>817.8</ele><time>2026-04-19T10:34:08.908Z</time></trkpt><trkpt lat="44.352605" lon="10.3913783"><ele>818.4000000000001</ele><time>2026-04-19T10:34:09.909Z</time></trkpt><trkpt lat="44.352515" lon="10.3913067"><ele>819.0</ele><time>2026-04-19T10:34:10.907Z</time></trkpt><trkpt lat="44.352425" lon="10.3912433"><ele>822.6</ele><time>2026-04-19T10:34:11.907Z</time></trkpt><trkpt lat="44.3523417" lon="10.39119"><ele>826.2</ele><time>2026-04-19T10:34:12.923Z</time></trkpt><trkpt lat="44.352265" lon="10.39113"><ele>829.8000000000001</ele><time>2026-04-19T10:34:13.91Z</time></trkpt><trkpt lat="44.3521833" lon="10.3910583"><ele>833.4000000000001</ele><time>2026-04-19T10:34:14.91Z</time></trkpt><trkpt lat="44.3521" lon="10.3909833"><ele>837.0</ele><time>2026-04-19T10:34:15.908Z</time></trkpt><trkpt lat="44.3520217" lon="10.3909033"><ele>837.1666666666666</ele><time>2026-04-19T10:34:16.916Z</time></trkpt><trkpt lat="44.3519383" lon="10.3908283"><ele>837.3333333333333</ele><time>2026-04-19T10:34:17.924Z</time></trkpt><trkpt lat="44.3518633" lon="10.3907667"><ele>837.5</ele><time>2026-04-19T10:34:18.911Z</time></trkpt><trkpt lat="44.3518033" lon="10.39071"><ele>837.6666666666666</ele><time>2026-04-19T10:34:19.911Z</time></trkpt><trkpt lat="44.35174" lon="10.39064"><ele>837.8333333333333</ele><time>2026-04-19T10:34:20.913Z</time></trkpt><trkpt lat="44.35167" lon="10.390565"><ele>838.0</ele><time>2026-04-19T10:34:21.91Z</time></trkpt><trkpt lat="44.3515967" lon="10.3905"><ele>842.3333333333333</ele><time>2026-04-19T10:34:22.967Z</time></trkpt><trkpt lat="44.35152" lon="10.39045"><ele>846.6666666666666</ele><time>2026-04-19T10:34:23.919Z</time></trkpt><trkpt lat="44.3514383" lon="10.3904267"><ele>851.0</ele><time>2026-04-19T10:34:24.908Z</time></trkpt><trkpt lat="44.351355" lon="10.390415"><ele>855.3333333333333</ele><time>2026-04-19T10:34:25.909Z</time></trkpt><trkpt lat="44.351265" lon="10.39042"><ele>859.6666666666666</ele><time>2026-04-19T10:34:26.91Z</time></trkpt><trkpt lat="44.3511767" lon="10.3904367"><ele>864.0</ele><time>2026-04-19T10:34:27.908Z</time></trkpt><trkpt lat="44.35109" lon="10.390445"><ele>864.0</ele><time>2026-04-19T10:34:28.91Z</time></trkpt><trkpt lat="44.35101" lon="10.3904467"><ele>864.0</ele><time>2026-04-19T10:34:29.907Z</time></trkpt><trkpt lat="44.3509283" lon="10.3904233"><ele>864.0</ele><time>2026-04-19T10:34:30.907Z</time></trkpt><trkpt lat="44.35084" lon="10.39039"><ele>864.0</ele><time>2026-04-19T10:34:31.907Z</time></trkpt><trkpt lat="44.35075" lon="10.39035"><ele>864.0</ele><time>2026-04-19T10:34:32.913Z</time></trkpt><trkpt lat="44.3506633" lon="10.39031"><ele>864.0</ele><time>2026-04-19T10:34:33.907Z</time></trkpt><trkpt lat="44.3505867" lon="10.3902633"><ele>864.5</ele><time>2026-04-19T10:34:34.911Z</time></trkpt><trkpt lat="44.350515" lon="10.3902083"><ele>865.0</ele><time>2026-04-19T10:34:35.908Z</time></trkpt><trkpt lat="44.3504417" lon="10.390155"><ele>865.5</ele><time>2026-04-19T10:34:36.91Z</time></trkpt><trkpt lat="44.3503617" lon="10.3901067"><ele>866.0</ele><time>2026-04-19T10:34:37.906Z</time></trkpt><trkpt lat="44.3502808" lon="10.3900644"><ele>866.5</ele><time>2026-04-19T10:34:38.91Z</time></trkpt><trkpt lat="44.3501991" lon="10.3900378"><ele>867.0</ele><time>2026-04-19T10:34:39.905Z</time></trkpt><trkpt lat="44.350118" lon="10.3900345"><ele>867.0</ele><time>2026-04-19T10:34:40.916Z</time></trkpt><trkpt lat="44.3500345" lon="10.3900504"><ele>867.0</ele><time>2026-04-19T10:34:41.91Z</time></trkpt><trkpt lat="44.3499452" lon="10.3900591"><ele>867.0</ele><time>2026-04-19T10:34:42.907Z</time></trkpt><trkpt lat="44.3498515" lon="10.3900589"><ele>867.0</ele><time>2026-04-19T10:34:43.909Z</time></trkpt><trkpt lat="44.3497547" lon="10.3900579"><ele>867.0</ele><time>2026-04-19T10:34:44.909Z</time></trkpt><trkpt lat="44.3496638" lon="10.3900619"><ele>867.1666666666666</ele><time>2026-04-19T10:34:45.91Z</time></trkpt><trkpt lat="44.3495879" lon="10.3900705"><ele>867.3333333333333</ele><time>2026-04-19T10:34:46.911Z</time></trkpt><trkpt lat="44.3494809" lon="10.3900394"><ele>867.5</ele><time>2026-04-19T10:34:48.916Z</time></trkpt><trkpt lat="44.349475" lon="10.3899143"><ele>867.6666666666666</ele><time>2026-04-19T10:34:50.934Z</time></trkpt><trkpt lat="44.3495172" lon="10.3898451"><ele>867.8333333333333</ele><time>2026-04-19T10:34:51.911Z</time></trkpt><trkpt lat="44.3495748" lon="10.3897918"><ele>868.0</ele><time>2026-04-19T10:34:52.92Z</time></trkpt><trkpt lat="44.3496367" lon="10.3897635"><ele>868.0</ele><time>2026-04-19T10:34:53.914Z</time></trkpt><trkpt lat="44.3497026" lon="10.3897588"><ele>868.0</ele><time>2026-04-19T10:34:54.907Z</time></trkpt><trkpt lat="44.3497739" lon="10.3897622"><ele>868.0</ele><time>2026-04-19T10:34:55.934Z</time></trkpt><trkpt lat="44.3498444" lon="10.3897619"><ele>868.0</ele><time>2026-04-19T10:34:56.912Z</time></trkpt><trkpt lat="44.349909" lon="10.3897507"><ele>868.0</ele><time>2026-04-19T10:34:57.909Z</time></trkpt><trkpt lat="44.349977" lon="10.3897209"><ele>868.0</ele><time>2026-04-19T10:34:58.949Z</time></trkpt><trkpt lat="44.350048" lon="10.3896602"><ele>868.0</ele><time>2026-04-19T10:34:59.909Z</time></trkpt><trkpt lat="44.3501146" lon="10.3895857"><ele>871.4999999999999</ele><time>2026-04-19T10:35:00.906Z</time></trkpt><trkpt lat="44.350191" lon="10.3895228"><ele>875.0</ele><time>2026-04-19T10:35:01.909Z</time></trkpt><trkpt lat="44.3502741" lon="10.3894735"><ele>878.5</ele><time>2026-04-19T10:35:02.923Z</time></trkpt><trkpt lat="44.3503548" lon="10.3894516"><ele>882.0</ele><time>2026-04-19T10:35:03.913Z</time></trkpt><trkpt lat="44.3504316" lon="10.3894296"><ele>885.4999999999999</ele><time>2026-04-19T10:35:04.916Z</time></trkpt><trkpt lat="44.3505082" lon="10.3893978"><ele>889.0</ele><time>2026-04-19T10:35:05.908Z</time></trkpt><trkpt lat="44.3505902" lon="10.3893477"><ele>889.0</ele><time>2026-04-19T10:35:06.911Z</time></trkpt><trkpt lat="44.3506786" lon="10.3892795"><ele>889.0000000000001</ele><time>2026-04-19T10:35:07.912Z</time></trkpt><trkpt lat="44.3507704" lon="10.3891919"><ele>889.0000000000001</ele><time>2026-04-19T10:35:08.924Z</time></trkpt><trkpt lat="44.3508701" lon="10.3890967"><ele>889.0</ele><time>2026-04-19T10:35:09.907Z</time></trkpt><trkpt lat="44.3509638" lon="10.3890069"><ele>889.0</ele><time>2026-04-19T10:35:10.923Z</time></trkpt><trkpt lat="44.3510449" lon="10.3889149"><ele>892.6666666666666</ele><time>2026-04-19T10:35:11.912Z</time></trkpt><trkpt lat="44.3511181" lon="10.3888046"><ele>896.3333333333333</ele><time>2026-04-19T10:35:12.966Z</time></trkpt><trkpt lat="44.3511835" lon="10.3887133"><ele>900.0</ele><time>2026-04-19T10:35:13.909Z</time></trkpt><trkpt lat="44.3512492" lon="10.3886454"><ele>903.6666666666667</ele><time>2026-04-19T10:35:14.911Z</time></trkpt><trkpt lat="44.3513079" lon="10.3886086"><ele>907.3333333333334</ele><time>2026-04-19T10:35:15.922Z</time></trkpt><trkpt lat="44.3513717" lon="10.388587"><ele>911.0</ele><time>2026-04-19T10:35:16.909Z</time></trkpt><trkpt lat="44.3514506" lon="10.3885916"><ele>911.0</ele><time>2026-04-19T10:35:17.913Z</time></trkpt><trkpt lat="44.351536" lon="10.3886072"><ele>910.9999999999999</ele><time>2026-04-19T10:35:18.908Z</time></trkpt><trkpt lat="44.3516323" lon="10.3886289"><ele>910.9999999999999</ele><time>2026-04-19T10:35:19.91Z</time></trkpt><trkpt lat="44.3517422" lon="10.3886431"><ele>911.0</ele><time>2026-04-19T10:35:20.933Z</time></trkpt><trkpt lat="44.3518509" lon="10.3886489"><ele>911.0</ele><time>2026-04-19T10:35:21.911Z</time></trkpt><trkpt lat="44.3519559" lon="10.3886555"><ele>911.0000000000001</ele><time>2026-04-19T10:35:22.924Z</time></trkpt><trkpt lat="44.3520358" lon="10.3886638"><ele>911.0</ele><time>2026-04-19T10:35:23.916Z</time></trkpt><trkpt lat="44.3521011" lon="10.3886645"><ele>911.0</ele><time>2026-04-19T10:35:24.916Z</time></trkpt><trkpt lat="44.3521525" lon="10.3885833"><ele>911.0</ele><time>2026-04-19T10:35:26.922Z</time></trkpt><trkpt lat="44.35211" lon="10.388444"><ele>911.0000000000001</ele><time>2026-04-19T10:35:28.92Z</time></trkpt><trkpt lat="44.3520632" lon="10.3883593"><ele>911.0</ele><time>2026-04-19T10:35:29.921Z</time></trkpt><trkpt lat="44.3520067" lon="10.3882639"><ele>911.0000000000001</ele><time>2026-04-19T10:35:30.927Z</time></trkpt><trkpt lat="44.3519486" lon="10.3881728"><ele>911.0</ele><time>2026-04-19T10:35:31.923Z</time></trkpt><trkpt lat="44.3518974" lon="10.3880809"><ele>911.0</ele><time>2026-04-19T10:35:32.923Z</time></trkpt><trkpt lat="44.3518441" lon="10.3879847"><ele>911.0</ele><time>2026-04-19T10:35:33.924Z</time></trkpt><trkpt lat="44.3517861" lon="10.3878911"><ele>911.0000000000001</ele><time>2026-04-19T10:35:34.926Z</time></trkpt><trkpt lat="44.3517156" lon="10.387804"><ele>911.0</ele><time>2026-04-19T10:35:35.926Z</time></trkpt><trkpt lat="44.3516282" lon="10.3877502"><ele>916.1999999999999</ele><time>2026-04-19T10:35:36.909Z</time></trkpt><trkpt lat="44.3515375" lon="10.3877335"><ele>921.3999999999999</ele><time>2026-04-19T10:35:37.932Z</time></trkpt><trkpt lat="44.3514445" lon="10.3877266"><ele>926.6</ele><time>2026-04-19T10:35:38.931Z</time></trkpt><trkpt lat="44.3513528" lon="10.3877131"><ele>931.8</ele><time>2026-04-19T10:35:39.909Z</time></trkpt><trkpt lat="44.3512533" lon="10.3876792"><ele>937.0</ele><time>2026-04-19T10:35:40.915Z</time></trkpt><trkpt lat="44.3511491" lon="10.3876229"><ele>937.2</ele><time>2026-04-19T10:35:41.924Z</time></trkpt><trkpt lat="44.3510448" lon="10.3875562"><ele>937.4000000000001</ele><time>2026-04-19T10:35:42.929Z</time></trkpt><trkpt lat="44.3509446" lon="10.3874894"><ele>937.5999999999999</ele><time>2026-04-19T10:35:43.932Z</time></trkpt><trkpt lat="44.3508496" lon="10.3874298"><ele>937.8</ele><time>2026-04-19T10:35:44.911Z</time></trkpt><trkpt lat="44.3507588" lon="10.3873839"><ele>938.0</ele><time>2026-04-19T10:35:45.935Z</time></trkpt><trkpt lat="44.3506845" lon="10.3873494"><ele>938.0000000000001</ele><time>2026-04-19T10:35:46.912Z</time></trkpt><trkpt lat="44.3506185" lon="10.3873188"><ele>938.0</ele><time>2026-04-19T10:35:47.937Z</time></trkpt><trkpt lat="44.3505337" lon="10.3872101"><ele>938.0</ele><time>2026-04-19T10:35:49.943Z</time></trkpt><trkpt lat="44.3505773" lon="10.3870971"><ele>938.0</ele><time>2026-04-19T10:35:51.911Z</time></trkpt><trkpt lat="44.3506377" lon="10.3870582"><ele>938.0000000000001</ele><time>2026-04-19T10:35:52.93Z</time></trkpt><trkpt lat="44.3507283" lon="10.3870333"><ele>938.0</ele><time>2026-04-19T10:35:53.939Z</time></trkpt><trkpt lat="44.3508189" lon="10.3870051"><ele>942.8</ele><time>2026-04-19T10:35:54.939Z</time></trkpt><trkpt lat="44.3509386" lon="10.3869646"><ele>947.5999999999999</ele><time>2026-04-19T10:35:55.914Z</time></trkpt><trkpt lat="44.3510519" lon="10.3869141"><ele>952.4000000000001</ele><time>2026-04-19T10:35:56.914Z</time></trkpt><trkpt lat="44.3511577" lon="10.3868758"><ele>957.2</ele><time>2026-04-19T10:35:57.944Z</time></trkpt><trkpt lat="44.3512503" lon="10.3868684"><ele>962.0</ele><time>2026-04-19T10:35:58.914Z</time></trkpt><trkpt lat="44.3513376" lon="10.3868728"><ele>959.4000000000001</ele><time>2026-04-19T10:35:59.906Z</time></trkpt><trkpt lat="44.3514125" lon="10.3868708"><ele>956.8000000000001</ele><time>2026-04-19T10:36:00.948Z</time></trkpt><trkpt lat="44.3515227" lon="10.3868119"><ele>954.2</ele><time>2026-04-19T10:36:02.912Z</time></trkpt><trkpt lat="44.3515482" lon="10.3866965"><ele>951.6</ele><time>2026-04-19T10:36:04.912Z</time></trkpt><trkpt lat="44.3514849" lon="10.3865353"><ele>949.0</ele><time>2026-04-19T10:36:06.942Z</time></trkpt><trkpt lat="44.3514214" lon="10.3864535"><ele>951.1666666666666</ele><time>2026-04-19T10:36:07.923Z</time></trkpt><trkpt lat="44.3513407" lon="10.3863796"><ele>953.3333333333333</ele><time>2026-04-19T10:36:08.947Z</time></trkpt><trkpt lat="44.3512657" lon="10.3863207"><ele>955.5</ele><time>2026-04-19T10:36:09.925Z</time></trkpt><trkpt lat="44.3511886" lon="10.3862807"><ele>957.6666666666667</ele><time>2026-04-19T10:36:10.937Z</time></trkpt><trkpt lat="44.3511139" lon="10.3862657"><ele>959.8333333333334</ele><time>2026-04-19T10:36:11.924Z</time></trkpt><trkpt lat="44.3510352" lon="10.3862771"><ele>962.0</ele><time>2026-04-19T10:36:12.911Z</time></trkpt><trkpt lat="44.3509517" lon="10.3862979"><ele>962.0</ele><time>2026-04-19T10:36:13.911Z</time></trkpt><trkpt lat="44.3508669" lon="10.3863331"><ele>962.0</ele><time>2026-04-19T10:36:14.909Z</time></trkpt><trkpt lat="44.3507776" lon="10.3863823"><ele>962.0</ele><time>2026-04-19T10:36:15.932Z</time></trkpt><trkpt lat="44.350686" lon="10.3864334"><ele>962.0</ele><time>2026-04-19T10:36:16.911Z</time></trkpt><trkpt lat="44.3505917" lon="10.3864691"><ele>962.0</ele><time>2026-04-19T10:36:17.911Z</time></trkpt><trkpt lat="44.3505019" lon="10.3864959"><ele>964.0</ele><time>2026-04-19T10:36:18.927Z</time></trkpt><trkpt lat="44.3504137" lon="10.3865178"><ele>966.0</ele><time>2026-04-19T10:36:19.911Z</time></trkpt><trkpt lat="44.3503316" lon="10.3865372"><ele>968.0</ele><time>2026-04-19T10:36:20.956Z</time></trkpt><trkpt lat="44.3502639" lon="10.3865497"><ele>970.0</ele><time>2026-04-19T10:36:21.946Z</time></trkpt><trkpt lat="44.3501839" lon="10.3865024"><ele>972.0</ele><time>2026-04-19T10:36:23.94Z</time></trkpt><trkpt lat="44.3501273" lon="10.3863319"><ele>973.6666666666666</ele><time>2026-04-19T10:36:25.918Z</time></trkpt><trkpt lat="44.3501237" lon="10.386214"><ele>975.3333333333333</ele><time>2026-04-19T10:36:26.951Z</time></trkpt><trkpt lat="44.3501377" lon="10.3860898"><ele>977.0</ele><time>2026-04-19T10:36:27.911Z</time></trkpt><trkpt lat="44.3501688" lon="10.3859506"><ele>978.6666666666666</ele><time>2026-04-19T10:36:28.96Z</time></trkpt><trkpt lat="44.3501974" lon="10.3858288"><ele>980.3333333333333</ele><time>2026-04-19T10:36:29.952Z</time></trkpt><trkpt lat="44.3502235" lon="10.3857242"><ele>982.0</ele><time>2026-04-19T10:36:30.949Z</time></trkpt><trkpt lat="44.3502173" lon="10.3855695"><ele>978.5</ele><time>2026-04-19T10:36:32.912Z</time></trkpt><trkpt lat="44.3501369" lon="10.3854585"><ele>975.0</ele><time>2026-04-19T10:36:34.939Z</time></trkpt><trkpt lat="44.3500158" lon="10.3853677"><ele>971.5</ele><time>2026-04-19T10:36:36.93Z</time></trkpt><trkpt lat="44.3499151" lon="10.3853434"><ele>968.0</ele><time>2026-04-19T10:36:37.91Z</time></trkpt><trkpt lat="44.3498069" lon="10.3853264"><ele>972.25</ele><time>2026-04-19T10:36:38.922Z</time></trkpt><trkpt lat="44.3496924" lon="10.3853086"><ele>976.5</ele><time>2026-04-19T10:36:39.91Z</time></trkpt><trkpt lat="44.3495759" lon="10.3852867"><ele>980.75</ele><time>2026-04-19T10:36:40.904Z</time></trkpt><trkpt lat="44.3494601" lon="10.3852624"><ele>985.0</ele><time>2026-04-19T10:36:41.9Z</time></trkpt><trkpt lat="44.3493044" lon="10.3851799"><ele>985.0</ele><time>2026-04-19T10:36:43.295Z</time></trkpt><trkpt lat="44.3491973" lon="10.38515"><ele>985.0</ele><time>2026-04-19T10:36:44.395Z</time></trkpt><trkpt lat="44.3490203" lon="10.3851045"><ele>985.0</ele><time>2026-04-19T10:36:45.896Z</time></trkpt><trkpt lat="44.3489304" lon="10.3851037"><ele>985.0</ele><time>2026-04-19T10:36:46.898Z</time></trkpt><trkpt lat="44.3488669" lon="10.3851102"><ele>985.0</ele><time>2026-04-19T10:36:47.897Z</time></trkpt><trkpt lat="44.3487949" lon="10.3851613"><ele>985.0</ele><time>2026-04-19T10:36:49.899Z</time></trkpt><trkpt lat="44.3487557" lon="10.3852841"><ele>985.0</ele><time>2026-04-19T10:36:51.897Z</time></trkpt><trkpt lat="44.3487696" lon="10.3853732"><ele>985.0</ele><time>2026-04-19T10:36:52.898Z</time></trkpt><trkpt lat="44.3487936" lon="10.3854739"><ele>985.0</ele><time>2026-04-19T10:36:53.898Z</time></trkpt><trkpt lat="44.3489" lon="10.3853867"><ele>985.0</ele><time>2026-04-19T10:36:54.898Z</time></trkpt><trkpt lat="44.3489233" lon="10.3856783"><ele>987.2</ele><time>2026-04-19T10:36:55.897Z</time></trkpt><trkpt lat="44.3489283" lon="10.3858733"><ele>989.4</ele><time>2026-04-19T10:36:56.897Z</time></trkpt><trkpt lat="44.3489483" lon="10.3859783"><ele>991.5999999999999</ele><time>2026-04-19T10:36:57.898Z</time></trkpt><trkpt lat="44.3489233" lon="10.3860917"><ele>993.8</ele><time>2026-04-19T10:36:58.898Z</time></trkpt><trkpt lat="44.3489233" lon="10.3862133"><ele>996.0</ele><time>2026-04-19T10:36:59.898Z</time></trkpt><trkpt lat="44.3489083" lon="10.3863067"><ele>998.0</ele><time>2026-04-19T10:37:00.898Z</time></trkpt><trkpt lat="44.3488383" lon="10.3864183"><ele>1000.0</ele><time>2026-04-19T10:37:02.911Z</time></trkpt><trkpt lat="44.3487517" lon="10.3864567"><ele>1002.0</ele><time>2026-04-19T10:37:03.91Z</time></trkpt><trkpt lat="44.348675" lon="10.3864867"><ele>1004.0</ele><time>2026-04-19T10:37:04.911Z</time></trkpt><trkpt lat="44.34859" lon="10.3864933"><ele>1006.0</ele><time>2026-04-19T10:37:05.91Z</time></trkpt><trkpt lat="44.34852" lon="10.3864783"><ele>1008.0</ele><time>2026-04-19T10:37:06.91Z</time></trkpt><trkpt lat="44.3484617" lon="10.3864317"><ele>1009.2</ele><time>2026-04-19T10:37:07.91Z</time></trkpt><trkpt lat="44.348405" lon="10.3863433"><ele>1010.4</ele><time>2026-04-19T10:37:08.95Z</time></trkpt><trkpt lat="44.3483533" lon="10.38626"><ele>1011.6000000000001</ele><time>2026-04-19T10:37:09.919Z</time></trkpt><trkpt lat="44.348295" lon="10.3861683"><ele>1012.8000000000001</ele><time>2026-04-19T10:37:10.91Z</time></trkpt><trkpt lat="44.3482267" lon="10.38609"><ele>1014.0</ele><time>2026-04-19T10:37:11.897Z</time></trkpt><trkpt lat="44.3480217" lon="10.3857933"><ele>1015.6</ele><time>2026-04-19T10:37:13.873Z</time></trkpt><trkpt lat="44.3478867" lon="10.3857867"><ele>1017.2</ele><time>2026-04-19T10:37:16.899Z</time></trkpt><trkpt lat="44.3478017" lon="10.3857917"><ele>1018.8000000000001</ele><time>2026-04-19T10:37:17.9Z</time></trkpt><trkpt lat="44.3477183" lon="10.3858067"><ele>1020.4000000000001</ele><time>2026-04-19T10:37:18.898Z</time></trkpt><trkpt lat="44.3476383" lon="10.385815"><ele>1022.0</ele><time>2026-04-19T10:37:19.9Z</time></trkpt><trkpt lat="44.3475533" lon="10.385815"><ele>1022.0000000000001</ele><time>2026-04-19T10:37:20.896Z</time></trkpt><trkpt lat="44.3474667" lon="10.3857533"><ele>1022.0</ele><time>2026-04-19T10:37:21.897Z</time></trkpt><trkpt lat="44.3473817" lon="10.3856883"><ele>1022.0</ele><time>2026-04-19T10:37:22.898Z</time></trkpt><trkpt lat="44.3473033" lon="10.3856267"><ele>1022.0</ele><time>2026-04-19T10:37:23.9Z</time></trkpt><trkpt lat="44.34723" lon="10.3855683"><ele>1022.0000000000001</ele><time>2026-04-19T10:37:24.898Z</time></trkpt><trkpt lat="44.3471633" lon="10.3855083"><ele>1022.0</ele><time>2026-04-19T10:37:25.898Z</time></trkpt><trkpt lat="44.3471133" lon="10.3854467"><ele>1023.6666666666667</ele><time>2026-04-19T10:37:26.896Z</time></trkpt><trkpt lat="44.3470367" lon="10.3853833"><ele>1025.3333333333335</ele><time>2026-04-19T10:37:28.898Z</time></trkpt><trkpt lat="44.3469633" lon="10.3853333"><ele>1027.0</ele><time>2026-04-19T10:39:36.923Z</time></trkpt><trkpt lat="44.3468633" lon="10.3852967"><ele>1028.6666666666667</ele><time>2026-04-19T10:39:38.906Z</time></trkpt><trkpt lat="44.3467967" lon="10.3852667"><ele>1030.3333333333333</ele><time>2026-04-19T10:39:39.907Z</time></trkpt><trkpt lat="44.3467017" lon="10.38521"><ele>1032.0</ele><time>2026-04-19T10:39:40.929Z</time></trkpt><trkpt lat="44.3466117" lon="10.3851517"><ele>1040.5</ele><time>2026-04-19T10:39:41.916Z</time></trkpt><trkpt lat="44.3461817" lon="10.385075"><ele>1049.0</ele><time>2026-04-19T10:39:43.708Z</time></trkpt><trkpt lat="44.3463083" lon="10.3847833"><ele>1049.0</ele><time>2026-04-19T10:39:45.246Z</time></trkpt><trkpt lat="44.34628" lon="10.3847033"><ele>1049.0</ele><time>2026-04-19T10:39:46.396Z</time></trkpt><trkpt lat="44.3462133" lon="10.3846183"><ele>1049.0</ele><time>2026-04-19T10:39:47.896Z</time></trkpt><trkpt lat="44.3461567" lon="10.3845567"><ele>1049.0</ele><time>2026-04-19T10:39:48.896Z</time></trkpt><trkpt lat="44.346075" lon="10.3845133"><ele>1049.0</ele><time>2026-04-19T10:39:49.899Z</time></trkpt><trkpt lat="44.3457067" lon="10.3845333"><ele>1046.0</ele><time>2026-04-19T10:39:51.288Z</time></trkpt><trkpt lat="44.3456017" lon="10.3845167"><ele>1043.0</ele><time>2026-04-19T10:39:52.396Z</time></trkpt><trkpt lat="44.3454683" lon="10.3845033"><ele>1040.0</ele><time>2026-04-19T10:39:53.897Z</time></trkpt><trkpt lat="44.345375" lon="10.3845167"><ele>1037.0</ele><time>2026-04-19T10:39:54.895Z</time></trkpt><trkpt lat="44.345291" lon="10.384539"><ele>1034.0</ele><time>2026-04-19T10:39:55.896Z</time></trkpt><trkpt lat="44.3452089" lon="10.3845664"><ele>1034.0</ele><time>2026-04-19T10:39:56.899Z</time></trkpt><trkpt lat="44.3451262" lon="10.384589"><ele>1034.0</ele><time>2026-04-19T10:39:57.898Z</time></trkpt><trkpt lat="44.3450429" lon="10.3846137"><ele>1034.0</ele><time>2026-04-19T10:39:58.898Z</time></trkpt><trkpt lat="44.3449598" lon="10.3846482"><ele>1034.0</ele><time>2026-04-19T10:39:59.896Z</time></trkpt><trkpt lat="44.3448934" lon="10.3846677"><ele>1034.0</ele><time>2026-04-19T10:40:00.898Z</time></trkpt><trkpt lat="44.3448262" lon="10.3846748"><ele>1034.0</ele><time>2026-04-19T10:40:01.897Z</time></trkpt><trkpt lat="44.3447029" lon="10.3846951"><ele>1037.0</ele><time>2026-04-19T10:40:03.898Z</time></trkpt><trkpt lat="44.3446289" lon="10.3846971"><ele>1040.0</ele><time>2026-04-19T10:40:04.898Z</time></trkpt><trkpt lat="44.344494" lon="10.3846943"><ele>1043.0</ele><time>2026-04-19T10:40:05.897Z</time></trkpt><trkpt lat="44.3443734" lon="10.3846755"><ele>1046.0</ele><time>2026-04-19T10:40:06.898Z</time></trkpt><trkpt lat="44.344261" lon="10.3846521"><ele>1049.0</ele><time>2026-04-19T10:40:07.897Z</time></trkpt><trkpt lat="44.344153" lon="10.384625"><ele>1049.0</ele><time>2026-04-19T10:40:08.898Z</time></trkpt><trkpt lat="44.3440542" lon="10.3845971"><ele>1049.0</ele><time>2026-04-19T10:40:09.897Z</time></trkpt><trkpt lat="44.3439592" lon="10.3845644"><ele>1049.0</ele><time>2026-04-19T10:40:10.91Z</time></trkpt><trkpt lat="44.3438703" lon="10.3845286"><ele>1049.0</ele><time>2026-04-19T10:40:11.912Z</time></trkpt><trkpt lat="44.3437886" lon="10.3844903"><ele>1049.0</ele><time>2026-04-19T10:40:12.912Z</time></trkpt><trkpt lat="44.3437053" lon="10.3844582"><ele>1053.2</ele><time>2026-04-19T10:40:13.911Z</time></trkpt><trkpt lat="44.3436195" lon="10.3844235"><ele>1057.4</ele><time>2026-04-19T10:40:14.911Z</time></trkpt><trkpt lat="44.3435281" lon="10.3843895"><ele>1061.6</ele><time>2026-04-19T10:40:15.908Z</time></trkpt><trkpt lat="44.3434361" lon="10.3843613"><ele>1065.8</ele><time>2026-04-19T10:40:16.911Z</time></trkpt><trkpt lat="44.3433445" lon="10.3843504"><ele>1070.0</ele><time>2026-04-19T10:40:17.899Z</time></trkpt><trkpt lat="44.3430974" lon="10.3841954"><ele>1071.6</ele><time>2026-04-19T10:40:19.498Z</time></trkpt><trkpt lat="44.342968" lon="10.384219"><ele>1073.2</ele><time>2026-04-19T10:40:20.897Z</time></trkpt><trkpt lat="44.3428959" lon="10.3842469"><ele>1074.8</ele><time>2026-04-19T10:40:21.899Z</time></trkpt><trkpt lat="44.342799" lon="10.3842686"><ele>1076.4</ele><time>2026-04-19T10:40:22.902Z</time></trkpt><trkpt lat="44.3426785" lon="10.3842819"><ele>1078.0</ele><time>2026-04-19T10:40:23.898Z</time></trkpt><trkpt lat="44.3425619" lon="10.3842885"><ele>1078.0</ele><time>2026-04-19T10:40:24.899Z</time></trkpt><trkpt lat="44.3424493" lon="10.3842907"><ele>1078.0</ele><time>2026-04-19T10:40:25.898Z</time></trkpt><trkpt lat="44.342342" lon="10.384311"><ele>1078.0</ele><time>2026-04-19T10:40:26.897Z</time></trkpt><trkpt lat="44.3422341" lon="10.3843493"><ele>1078.0</ele><time>2026-04-19T10:40:27.897Z</time></trkpt><trkpt lat="44.3421359" lon="10.3843879"><ele>1078.0</ele><time>2026-04-19T10:40:28.898Z</time></trkpt><trkpt lat="44.3420489" lon="10.3844177"><ele>1079.3333333333333</ele><time>2026-04-19T10:40:29.897Z</time></trkpt><trkpt lat="44.3419712" lon="10.3844334"><ele>1080.6666666666665</ele><time>2026-04-19T10:40:30.897Z</time></trkpt><trkpt lat="44.3418929" lon="10.3844422"><ele>1082.0</ele><time>2026-04-19T10:40:31.897Z</time></trkpt><trkpt lat="44.3418161" lon="10.3844422"><ele>1083.3333333333333</ele><time>2026-04-19T10:40:32.897Z</time></trkpt><trkpt lat="44.3417407" lon="10.384467"><ele>1084.6666666666667</ele><time>2026-04-19T10:40:33.896Z</time></trkpt><trkpt lat="44.3416586" lon="10.3845102"><ele>1086.0</ele><time>2026-04-19T10:40:34.896Z</time></trkpt><trkpt lat="44.3415715" lon="10.3845651"><ele>1086.0</ele><time>2026-04-19T10:40:35.895Z</time></trkpt><trkpt lat="44.341488" lon="10.38463"><ele>1086.0</ele><time>2026-04-19T10:40:36.897Z</time></trkpt><trkpt lat="44.3414118" lon="10.3846948"><ele>1086.0</ele><time>2026-04-19T10:40:37.896Z</time></trkpt><trkpt lat="44.3413395" lon="10.3847541"><ele>1086.0</ele><time>2026-04-19T10:40:38.909Z</time></trkpt><trkpt lat="44.3412633" lon="10.38481"><ele>1086.0</ele><time>2026-04-19T10:40:39.911Z</time></trkpt><trkpt lat="44.3411917" lon="10.38486"><ele>1086.0</ele><time>2026-04-19T10:40:40.91Z</time></trkpt><trkpt lat="44.3411217" lon="10.3849033"><ele>1086.8333333333333</ele><time>2026-04-19T10:40:41.911Z</time></trkpt><trkpt lat="44.3410467" lon="10.3849417"><ele>1087.6666666666667</ele><time>2026-04-19T10:40:42.908Z</time></trkpt><trkpt lat="44.3409783" lon="10.3849667"><ele>1088.5</ele><time>2026-04-19T10:40:43.91Z</time></trkpt><trkpt lat="44.34085" lon="10.3849667"><ele>1089.3333333333335</ele><time>2026-04-19T10:40:45.916Z</time></trkpt><trkpt lat="44.3407733" lon="10.3849417"><ele>1090.1666666666667</ele><time>2026-04-19T10:40:46.918Z</time></trkpt><trkpt lat="44.3406883" lon="10.38492"><ele>1091.0</ele><time>2026-04-19T10:40:47.916Z</time></trkpt><trkpt lat="44.340595" lon="10.3849117"><ele>1091.6</ele><time>2026-04-19T10:40:48.916Z</time></trkpt><trkpt lat="44.34049" lon="10.384915"><ele>1092.1999999999998</ele><time>2026-04-19T10:40:49.901Z</time></trkpt><trkpt lat="44.3403717" lon="10.3849217"><ele>1092.8000000000002</ele><time>2026-04-19T10:40:50.895Z</time></trkpt><trkpt lat="44.3402567" lon="10.384925"><ele>1093.4</ele><time>2026-04-19T10:40:51.897Z</time></trkpt><trkpt lat="44.3401683" lon="10.3849233"><ele>1094.0</ele><time>2026-04-19T10:40:52.898Z</time></trkpt><trkpt lat="44.3400917" lon="10.3849133"><ele>1094.0</ele><time>2026-04-19T10:40:53.895Z</time></trkpt><trkpt lat="44.3400167" lon="10.3849"><ele>1094.0</ele><time>2026-04-19T10:40:54.897Z</time></trkpt><trkpt lat="44.33994" lon="10.3848683"><ele>1094.0</ele><time>2026-04-19T10:40:56.899Z</time></trkpt><trkpt lat="44.340005" lon="10.3847617"><ele>1094.0</ele><time>2026-04-19T10:40:58.427Z</time></trkpt><trkpt lat="44.3399533" lon="10.3849"><ele>1094.0</ele><time>2026-04-19T10:41:14.897Z</time></trkpt><trkpt lat="44.339875" lon="10.384835"><ele>1094.0</ele><time>2026-04-19T10:41:17.914Z</time></trkpt><trkpt lat="44.3398067" lon="10.3847767"><ele>1094.0</ele><time>2026-04-19T10:41:18.912Z</time></trkpt><trkpt lat="44.3397283" lon="10.384705"><ele>1094.0</ele><time>2026-04-19T10:41:19.912Z</time></trkpt><trkpt lat="44.3396533" lon="10.38464"><ele>1094.0</ele><time>2026-04-19T10:41:20.914Z</time></trkpt><trkpt lat="44.3395733" lon="10.3845717"><ele>1094.0</ele><time>2026-04-19T10:41:21.909Z</time></trkpt><trkpt lat="44.3395" lon="10.3844983"><ele>1094.0</ele><time>2026-04-19T10:41:22.918Z</time></trkpt><trkpt lat="44.3394317" lon="10.3844217"><ele>1095.75</ele><time>2026-04-19T10:41:23.912Z</time></trkpt><trkpt lat="44.3393483" lon="10.3843533"><ele>1097.5</ele><time>2026-04-19T10:41:24.909Z</time></trkpt><trkpt lat="44.3392633" lon="10.3842917"><ele>1099.25</ele><time>2026-04-19T10:41:25.921Z</time></trkpt><trkpt lat="44.3391267" lon="10.3842467"><ele>1101.0</ele><time>2026-04-19T10:41:26.908Z</time></trkpt><trkpt lat="44.3390133" lon="10.3841933"><ele>1102.6666666666667</ele><time>2026-04-19T10:41:27.91Z</time></trkpt><trkpt lat="44.3388483" lon="10.3841333"><ele>1104.3333333333335</ele><time>2026-04-19T10:41:28.912Z</time></trkpt><trkpt lat="44.3387117" lon="10.3840667"><ele>1106.0</ele><time>2026-04-19T10:41:29.908Z</time></trkpt><trkpt lat="44.3385683" lon="10.3840033"><ele>1106.0</ele><time>2026-04-19T10:41:30.918Z</time></trkpt><trkpt lat="44.3384383" lon="10.383905"><ele>1106.0</ele><time>2026-04-19T10:41:31.913Z</time></trkpt><trkpt lat="44.3383283" lon="10.3838267"><ele>1106.0</ele><time>2026-04-19T10:41:32.913Z</time></trkpt><trkpt lat="44.3382267" lon="10.3837517"><ele>1106.0</ele><time>2026-04-19T10:41:33.911Z</time></trkpt><trkpt lat="44.33813" lon="10.3836867"><ele>1105.0</ele><time>2026-04-19T10:41:34.952Z</time></trkpt><trkpt lat="44.3380467" lon="10.38363"><ele>1104.0</ele><time>2026-04-19T10:41:35.91Z</time></trkpt><trkpt lat="44.3379633" lon="10.3835983"><ele>1103.0</ele><time>2026-04-19T10:41:36.91Z</time></trkpt><trkpt lat="44.3378817" lon="10.383585"><ele>1102.0</ele><time>2026-04-19T10:41:37.913Z</time></trkpt><trkpt lat="44.3378067" lon="10.383575"><ele>1101.0</ele><time>2026-04-19T10:41:38.956Z</time></trkpt><trkpt lat="44.33774" lon="10.383585"><ele>1100.0</ele><time>2026-04-19T10:41:39.9Z</time></trkpt><trkpt lat="44.3376767" lon="10.383605"><ele>1100.0</ele><time>2026-04-19T10:41:40.897Z</time></trkpt><trkpt lat="44.337605" lon="10.3836267"><ele>1100.0</ele><time>2026-04-19T10:41:41.896Z</time></trkpt><trkpt lat="44.337535" lon="10.3836367"><ele>1100.0</ele><time>2026-04-19T10:41:42.896Z</time></trkpt><trkpt lat="44.33743" lon="10.3836583"><ele>1100.0</ele><time>2026-04-19T10:41:44.901Z</time></trkpt><trkpt lat="44.337365" lon="10.3836433"><ele>1100.0</ele><time>2026-04-19T10:41:45.897Z</time></trkpt><trkpt lat="44.3372967" lon="10.3836333"><ele>1100.0</ele><time>2026-04-19T10:41:46.898Z</time></trkpt><trkpt lat="44.3372283" lon="10.3836217"><ele>1100.8333333333335</ele><time>2026-04-19T10:41:47.896Z</time></trkpt><trkpt lat="44.337165" lon="10.3836067"><ele>1101.6666666666667</ele><time>2026-04-19T10:41:48.897Z</time></trkpt><trkpt lat="44.3370933" lon="10.3835933"><ele>1102.5</ele><time>2026-04-19T10:41:49.897Z</time></trkpt><trkpt lat="44.3370067" lon="10.3835683"><ele>1103.3333333333333</ele><time>2026-04-19T10:41:50.897Z</time></trkpt><trkpt lat="44.3369233" lon="10.38354"><ele>1104.1666666666665</ele><time>2026-04-19T10:41:51.897Z</time></trkpt><trkpt lat="44.3368433" lon="10.383515"><ele>1105.0</ele><time>2026-04-19T10:41:52.898Z</time></trkpt><trkpt lat="44.3367733" lon="10.3835"><ele>1105.0</ele><time>2026-04-19T10:41:53.896Z</time></trkpt><trkpt lat="44.3367017" lon="10.3834867"><ele>1105.0</ele><time>2026-04-19T10:41:54.897Z</time></trkpt><trkpt lat="44.3366317" lon="10.3834667"><ele>1105.0</ele><time>2026-04-19T10:41:55.898Z</time></trkpt><trkpt lat="44.3365717" lon="10.3834333"><ele>1105.0</ele><time>2026-04-19T10:41:56.896Z</time></trkpt><trkpt lat="44.3365083" lon="10.3833917"><ele>1105.0</ele><time>2026-04-19T10:41:57.897Z</time></trkpt><trkpt lat="44.3364383" lon="10.3833383"><ele>1105.0</ele><time>2026-04-19T10:41:58.897Z</time></trkpt><trkpt lat="44.3363717" lon="10.3832883"><ele>1105.0</ele><time>2026-04-19T10:41:59.896Z</time></trkpt><trkpt lat="44.3362967" lon="10.3832283"><ele>1106.75</ele><time>2026-04-19T10:42:00.898Z</time></trkpt><trkpt lat="44.3362183" lon="10.38317"><ele>1108.5</ele><time>2026-04-19T10:42:01.901Z</time></trkpt><trkpt lat="44.3360767" lon="10.3832933"><ele>1110.25</ele><time>2026-04-19T10:42:03.025Z</time></trkpt><trkpt lat="44.3360617" lon="10.3831267"><ele>1112.0</ele><time>2026-04-19T10:42:04.351Z</time></trkpt><trkpt lat="44.3359517" lon="10.3831233"><ele>1112.0</ele><time>2026-04-19T10:42:06.897Z</time></trkpt><trkpt lat="44.33586" lon="10.3830717"><ele>1112.0</ele><time>2026-04-19T10:42:08.897Z</time></trkpt><trkpt lat="44.3357733" lon="10.3830733"><ele>1112.0</ele><time>2026-04-19T10:42:10.897Z</time></trkpt><trkpt lat="44.3357067" lon="10.3830833"><ele>1112.0</ele><time>2026-04-19T10:42:13.339Z</time></trkpt><trkpt lat="44.33564" lon="10.383105"><ele>1112.0</ele><time>2026-04-19T10:42:14.399Z</time></trkpt><trkpt lat="44.3355191" lon="10.3831192"><ele>1112.0</ele><time>2026-04-19T10:42:16.898Z</time></trkpt><trkpt lat="44.3354163" lon="10.3831481"><ele>1114.0</ele><time>2026-04-19T10:42:18.897Z</time></trkpt><trkpt lat="44.3353459" lon="10.3831725"><ele>1116.0</ele><time>2026-04-19T10:42:19.898Z</time></trkpt><trkpt lat="44.3352237" lon="10.3831888"><ele>1118.0</ele><time>2026-04-19T10:42:22.397Z</time></trkpt><trkpt lat="44.3350825" lon="10.383202"><ele>1120.0</ele><time>2026-04-19T10:42:23.895Z</time></trkpt><trkpt lat="44.3349974" lon="10.383206"><ele>1122.0</ele><time>2026-04-19T10:42:24.897Z</time></trkpt><trkpt lat="44.3349178" lon="10.3831997"><ele>1122.0</ele><time>2026-04-19T10:42:25.898Z</time></trkpt><trkpt lat="44.3348273" lon="10.3831599"><ele>1122.0</ele><time>2026-04-19T10:42:26.897Z</time></trkpt><trkpt lat="44.3347439" lon="10.3831075"><ele>1122.0</ele><time>2026-04-19T10:42:27.897Z</time></trkpt><trkpt lat="44.3346672" lon="10.3830483"><ele>1122.0</ele><time>2026-04-19T10:42:28.897Z</time></trkpt><trkpt lat="44.3345838" lon="10.3829238"><ele>1122.0</ele><time>2026-04-19T10:42:30.263Z</time></trkpt><trkpt lat="44.3343993" lon="10.3827447"><ele>1124.0</ele><time>2026-04-19T10:42:31.398Z</time></trkpt><trkpt lat="44.334289" lon="10.3826047"><ele>1126.0</ele><time>2026-04-19T10:42:32.898Z</time></trkpt><trkpt lat="44.334225" lon="10.3825197"><ele>1128.0</ele><time>2026-04-19T10:42:33.898Z</time></trkpt><trkpt lat="44.3341679" lon="10.3824371"><ele>1130.0</ele><time>2026-04-19T10:42:34.899Z</time></trkpt><trkpt lat="44.3341129" lon="10.3823589"><ele>1132.0</ele><time>2026-04-19T10:42:35.901Z</time></trkpt><trkpt lat="44.3340617" lon="10.3822819"><ele>1132.0</ele><time>2026-04-19T10:42:36.898Z</time></trkpt><trkpt lat="44.334021" lon="10.3822057"><ele>1132.0</ele><time>2026-04-19T10:42:37.899Z</time></trkpt><trkpt lat="44.3339818" lon="10.3821292"><ele>1132.0</ele><time>2026-04-19T10:42:38.896Z</time></trkpt><trkpt lat="44.333924" lon="10.381993"><ele>1132.0</ele><time>2026-04-19T10:42:40.879Z</time></trkpt><trkpt lat="44.3338938" lon="10.3817936"><ele>1132.0</ele><time>2026-04-19T10:42:42.898Z</time></trkpt><trkpt lat="44.3338999" lon="10.3816745"><ele>1133.4</ele><time>2026-04-19T10:42:43.897Z</time></trkpt><trkpt lat="44.3338878" lon="10.3815661"><ele>1134.8000000000002</ele><time>2026-04-19T10:42:44.898Z</time></trkpt><trkpt lat="44.3338531" lon="10.3814493"><ele>1136.2</ele><time>2026-04-19T10:42:45.9Z</time></trkpt><trkpt lat="44.3338065" lon="10.3813335"><ele>1137.6000000000001</ele><time>2026-04-19T10:42:46.899Z</time></trkpt><trkpt lat="44.3337534" lon="10.3812229"><ele>1139.0</ele><time>2026-04-19T10:42:47.897Z</time></trkpt><trkpt lat="44.3336995" lon="10.3811201"><ele>1139.0</ele><time>2026-04-19T10:42:48.898Z</time></trkpt><trkpt lat="44.3336442" lon="10.3809386"><ele>1139.0</ele><time>2026-04-19T10:42:50.064Z</time></trkpt><trkpt lat="44.333518" lon="10.3807737"><ele>1139.0</ele><time>2026-04-19T10:42:51.396Z</time></trkpt><trkpt lat="44.3334309" lon="10.3806477"><ele>1139.0</ele><time>2026-04-19T10:42:52.897Z</time></trkpt><trkpt lat="44.3333571" lon="10.3805997"><ele>1139.0</ele><time>2026-04-19T10:42:53.898Z</time></trkpt><trkpt lat="44.3333021" lon="10.3805424"><ele>1139.0</ele><time>2026-04-19T10:42:54.897Z</time></trkpt><trkpt lat="44.333234" lon="10.380456"><ele>1139.0</ele><time>2026-04-19T10:42:56.896Z</time></trkpt><trkpt lat="44.3331764" lon="10.3804988"><ele>1139.0</ele><time>2026-04-19T10:43:00.909Z</time></trkpt><trkpt lat="44.3331047" lon="10.3805925"><ele>1139.0</ele><time>2026-04-19T10:44:33.919Z</time></trkpt><trkpt lat="44.3331042" lon="10.3807435"><ele>1139.0</ele><time>2026-04-19T10:44:35.918Z</time></trkpt><trkpt lat="44.3331046" lon="10.3808339"><ele>1139.0</ele><time>2026-04-19T10:44:36.907Z</time></trkpt><trkpt lat="44.3330969" lon="10.3809391"><ele>1139.0</ele><time>2026-04-19T10:44:37.921Z</time></trkpt><trkpt lat="44.3330883" lon="10.3810566"><ele>1139.0</ele><time>2026-04-19T10:44:38.911Z</time></trkpt><trkpt lat="44.3330849" lon="10.3811912"><ele>1139.0</ele><time>2026-04-19T10:44:39.908Z</time></trkpt><trkpt lat="44.3330846" lon="10.3813243"><ele>1139.0</ele><time>2026-04-19T10:44:40.91Z</time></trkpt><trkpt lat="44.3330866" lon="10.3814513"><ele>1139.0</ele><time>2026-04-19T10:44:41.917Z</time></trkpt><trkpt lat="44.3330887" lon="10.3815658"><ele>1138.8</ele><time>2026-04-19T10:44:42.91Z</time></trkpt><trkpt lat="44.3330902" lon="10.3816739"><ele>1138.6000000000001</ele><time>2026-04-19T10:44:43.906Z</time></trkpt><trkpt lat="44.3330084" lon="10.3818426"><ele>1138.4</ele><time>2026-04-19T10:44:45.14Z</time></trkpt><trkpt lat="44.3329525" lon="10.3819552"><ele>1138.2</ele><time>2026-04-19T10:44:46.396Z</time></trkpt><trkpt lat="44.3328947" lon="10.3820302"><ele>1138.0</ele><time>2026-04-19T10:44:47.897Z</time></trkpt><trkpt lat="44.3328011" lon="10.3820496"><ele>1138.0</ele><time>2026-04-19T10:44:49.898Z</time></trkpt><trkpt lat="44.3326839" lon="10.3821002"><ele>1138.0</ele><time>2026-04-19T10:44:51.898Z</time></trkpt><trkpt lat="44.3326324" lon="10.3821599"><ele>1138.0</ele><time>2026-04-19T10:44:52.9Z</time></trkpt><trkpt lat="44.3325801" lon="10.3822306"><ele>1138.0</ele><time>2026-04-19T10:44:53.9Z</time></trkpt><trkpt lat="44.3325157" lon="10.3823165"><ele>1138.0</ele><time>2026-04-19T10:44:54.9Z</time></trkpt><trkpt lat="44.3324439" lon="10.3824037"><ele>1138.0</ele><time>2026-04-19T10:44:55.899Z</time></trkpt><trkpt lat="44.3323729" lon="10.3824617"><ele>1140.0</ele><time>2026-04-19T10:44:56.896Z</time></trkpt><trkpt lat="44.3323681" lon="10.3826333"><ele>1142.0</ele><time>2026-04-19T10:44:58.057Z</time></trkpt><trkpt lat="44.3321941" lon="10.3827537"><ele>1144.0</ele><time>2026-04-19T10:44:59.396Z</time></trkpt><trkpt lat="44.3320602" lon="10.3828422"><ele>1144.0</ele><time>2026-04-19T10:45:00.896Z</time></trkpt><trkpt lat="44.3319922" lon="10.3829152"><ele>1144.0</ele><time>2026-04-19T10:45:01.896Z</time></trkpt><trkpt lat="44.3319193" lon="10.3830063"><ele>1144.0</ele><time>2026-04-19T10:45:02.898Z</time></trkpt><trkpt lat="44.3318598" lon="10.3830977"><ele>1144.0</ele><time>2026-04-19T10:45:03.897Z</time></trkpt><trkpt lat="44.3318087" lon="10.3831925"><ele>1144.0</ele><time>2026-04-19T10:45:04.898Z</time></trkpt><trkpt lat="44.3317584" lon="10.3832817"><ele>1144.0</ele><time>2026-04-19T10:45:05.897Z</time></trkpt><trkpt lat="44.3316845" lon="10.3833737"><ele>1144.2</ele><time>2026-04-19T10:45:06.899Z</time></trkpt><trkpt lat="44.331593" lon="10.3834648"><ele>1144.4</ele><time>2026-04-19T10:45:07.899Z</time></trkpt><trkpt lat="44.3315066" lon="10.3835419"><ele>1144.6</ele><time>2026-04-19T10:45:08.901Z</time></trkpt><trkpt lat="44.3314307" lon="10.3836198"><ele>1144.8</ele><time>2026-04-19T10:45:10.241Z</time></trkpt><trkpt lat="44.331347" lon="10.3836984"><ele>1145.0</ele><time>2026-04-19T10:45:11.896Z</time></trkpt><trkpt lat="44.3312589" lon="10.3837757"><ele>1145.0</ele><time>2026-04-19T10:45:13.899Z</time></trkpt><trkpt lat="44.3312062" lon="10.3838241"><ele>1145.0</ele><time>2026-04-19T10:45:14.898Z</time></trkpt><trkpt lat="44.3311512" lon="10.3838975"><ele>1145.0</ele><time>2026-04-19T10:45:15.898Z</time></trkpt><trkpt lat="44.3310996" lon="10.3839865"><ele>1145.0</ele><time>2026-04-19T10:45:16.902Z</time></trkpt><trkpt lat="44.3310449" lon="10.3840757"><ele>1145.0</ele><time>2026-04-19T10:45:17.899Z</time></trkpt><trkpt lat="44.330974" lon="10.3841601"><ele>1145.0</ele><time>2026-04-19T10:45:18.898Z</time></trkpt><trkpt lat="44.330887" lon="10.3842387"><ele>1146.0</ele><time>2026-04-19T10:45:19.899Z</time></trkpt><trkpt lat="44.3307877" lon="10.3843108"><ele>1147.0</ele><time>2026-04-19T10:45:20.899Z</time></trkpt><trkpt lat="44.3306794" lon="10.3843952"><ele>1148.0</ele><time>2026-04-19T10:45:21.899Z</time></trkpt><trkpt lat="44.330571" lon="10.3844909"><ele>1149.0</ele><time>2026-04-19T10:45:22.899Z</time></trkpt><trkpt lat="44.3304615" lon="10.3845854"><ele>1149.0</ele><time>2026-04-19T10:45:23.899Z</time></trkpt><trkpt lat="44.33035" lon="10.3846733"><ele>1149.0</ele><time>2026-04-19T10:45:24.899Z</time></trkpt><trkpt lat="44.3302433" lon="10.384745"><ele>1149.0</ele><time>2026-04-19T10:45:25.899Z</time></trkpt><trkpt lat="44.3301433" lon="10.3848083"><ele>1149.0</ele><time>2026-04-19T10:45:26.899Z</time></trkpt><trkpt lat="44.3300483" lon="10.3848583"><ele>1150.1666666666667</ele><time>2026-04-19T10:45:27.899Z</time></trkpt><trkpt lat="44.3299567" lon="10.3848983"><ele>1151.3333333333333</ele><time>2026-04-19T10:45:28.899Z</time></trkpt><trkpt lat="44.329875" lon="10.3849467"><ele>1152.5</ele><time>2026-04-19T10:45:29.911Z</time></trkpt><trkpt lat="44.3298033" lon="10.3849967"><ele>1153.6666666666665</ele><time>2026-04-19T10:45:30.91Z</time></trkpt><trkpt lat="44.3297433" lon="10.3850467"><ele>1154.8333333333333</ele><time>2026-04-19T10:45:31.912Z</time></trkpt><trkpt lat="44.3296917" lon="10.3850983"><ele>1156.0</ele><time>2026-04-19T10:45:32.913Z</time></trkpt><trkpt lat="44.3296167" lon="10.3851767"><ele>1157.2</ele><time>2026-04-19T10:45:34.936Z</time></trkpt><trkpt lat="44.329535" lon="10.3852083"><ele>1158.3999999999999</ele><time>2026-04-19T10:45:53.912Z</time></trkpt><trkpt lat="44.3294267" lon="10.38521"><ele>1159.6</ele><time>2026-04-19T10:45:55.913Z</time></trkpt><trkpt lat="44.3293533" lon="10.3852"><ele>1160.8</ele><time>2026-04-19T10:45:56.911Z</time></trkpt><trkpt lat="44.3292667" lon="10.3851817"><ele>1162.0</ele><time>2026-04-19T10:45:57.912Z</time></trkpt><trkpt lat="44.3291733" lon="10.385155"><ele>1162.0</ele><time>2026-04-19T10:45:58.917Z</time></trkpt><trkpt lat="44.329075" lon="10.38513"><ele>1162.0</ele><time>2026-04-19T10:45:59.907Z</time></trkpt><trkpt lat="44.3289783" lon="10.3851167"><ele>1162.0</ele><time>2026-04-19T10:46:00.909Z</time></trkpt><trkpt lat="44.3288817" lon="10.3851333"><ele>1162.0</ele><time>2026-04-19T10:46:01.908Z</time></trkpt><trkpt lat="44.3287883" lon="10.3851917"><ele>1162.0</ele><time>2026-04-19T10:46:02.917Z</time></trkpt><trkpt lat="44.3286917" lon="10.3852833"><ele>1161.25</ele><time>2026-04-19T10:46:03.917Z</time></trkpt><trkpt lat="44.3285883" lon="10.3853833"><ele>1160.5</ele><time>2026-04-19T10:46:04.92Z</time></trkpt><trkpt lat="44.3284833" lon="10.3854883"><ele>1159.75</ele><time>2026-04-19T10:46:05.917Z</time></trkpt><trkpt lat="44.3283817" lon="10.385605"><ele>1159.0</ele><time>2026-04-19T10:46:06.956Z</time></trkpt><trkpt lat="44.328285" lon="10.3857183"><ele>1163.5</ele><time>2026-04-19T10:46:07.924Z</time></trkpt><trkpt lat="44.32819" lon="10.3858233"><ele>1168.0</ele><time>2026-04-19T10:46:08.978Z</time></trkpt><trkpt lat="44.3280833" lon="10.3859217"><ele>1172.5</ele><time>2026-04-19T10:46:09.916Z</time></trkpt><trkpt lat="44.327965" lon="10.3860067"><ele>1177.0</ele><time>2026-04-19T10:46:10.915Z</time></trkpt><trkpt lat="44.327845" lon="10.3860667"><ele>1177.2</ele><time>2026-04-19T10:46:11.917Z</time></trkpt><trkpt lat="44.32773" lon="10.3860933"><ele>1177.4</ele><time>2026-04-19T10:46:12.909Z</time></trkpt><trkpt lat="44.32762" lon="10.3860867"><ele>1177.6</ele><time>2026-04-19T10:46:13.974Z</time></trkpt><trkpt lat="44.3275183" lon="10.3860683"><ele>1177.8</ele><time>2026-04-19T10:46:14.954Z</time></trkpt><trkpt lat="44.327415" lon="10.3860783"><ele>1178.0</ele><time>2026-04-19T10:46:15.909Z</time></trkpt><trkpt lat="44.3273067" lon="10.3861333"><ele>1178.5</ele><time>2026-04-19T10:46:16.914Z</time></trkpt><trkpt lat="44.3271983" lon="10.386235"><ele>1179.0</ele><time>2026-04-19T10:46:17.908Z</time></trkpt><trkpt lat="44.3270867" lon="10.3863417"><ele>1179.5</ele><time>2026-04-19T10:46:18.911Z</time></trkpt><trkpt lat="44.3269683" lon="10.3864117"><ele>1180.0</ele><time>2026-04-19T10:46:19.918Z</time></trkpt><trkpt lat="44.3268517" lon="10.3864517"><ele>1183.0</ele><time>2026-04-19T10:46:20.931Z</time></trkpt><trkpt lat="44.32675" lon="10.38649"><ele>1186.0</ele><time>2026-04-19T10:46:21.908Z</time></trkpt><trkpt lat="44.326665" lon="10.3865467"><ele>1189.0</ele><time>2026-04-19T10:46:22.947Z</time></trkpt><trkpt lat="44.3266033" lon="10.3866183"><ele>1192.0</ele><time>2026-04-19T10:46:23.917Z</time></trkpt><trkpt lat="44.3266117" lon="10.3867733"><ele>1195.0</ele><time>2026-04-19T10:46:25.913Z</time></trkpt><trkpt lat="44.3266717" lon="10.3868283"><ele>1195.0</ele><time>2026-04-19T10:46:26.91Z</time></trkpt><trkpt lat="44.3267583" lon="10.386865"><ele>1195.0</ele><time>2026-04-19T10:46:27.97Z</time></trkpt><trkpt lat="44.326865" lon="10.3868917"><ele>1195.0</ele><time>2026-04-19T10:46:28.911Z</time></trkpt><trkpt lat="44.3269717" lon="10.3869267"><ele>1195.0</ele><time>2026-04-19T10:46:29.953Z</time></trkpt><trkpt lat="44.3270867" lon="10.3869667"><ele>1195.0</ele><time>2026-04-19T10:46:30.908Z</time></trkpt><trkpt lat="44.3272117" lon="10.3870033"><ele>1195.6</ele><time>2026-04-19T10:46:31.967Z</time></trkpt><trkpt lat="44.32733" lon="10.3870417"><ele>1196.2</ele><time>2026-04-19T10:46:32.916Z</time></trkpt><trkpt lat="44.3274333" lon="10.387075"><ele>1196.8</ele><time>2026-04-19T10:46:33.91Z</time></trkpt><trkpt lat="44.3275117" lon="10.387105"><ele>1197.4</ele><time>2026-04-19T10:46:34.938Z</time></trkpt><trkpt lat="44.3275683" lon="10.387145"><ele>1198.0</ele><time>2026-04-19T10:46:35.918Z</time></trkpt><trkpt lat="44.3276133" lon="10.3872567"><ele>1201.25</ele><time>2026-04-19T10:46:37.916Z</time></trkpt><trkpt lat="44.3275467" lon="10.3873817"><ele>1204.5</ele><time>2026-04-19T10:46:39.913Z</time></trkpt><trkpt lat="44.327435" lon="10.3874667"><ele>1207.75</ele><time>2026-04-19T10:46:40.912Z</time></trkpt><trkpt lat="44.3273167" lon="10.3875417"><ele>1211.0</ele><time>2026-04-19T10:46:41.898Z</time></trkpt><trkpt lat="44.327185" lon="10.3875167"><ele>1211.0</ele><time>2026-04-19T10:46:42.981Z</time></trkpt><trkpt lat="44.327055" lon="10.38766"><ele>1211.0</ele><time>2026-04-19T10:46:44.398Z</time></trkpt><trkpt lat="44.3269833" lon="10.3878033"><ele>1211.0</ele><time>2026-04-19T10:46:45.898Z</time></trkpt><trkpt lat="44.3269233" lon="10.3878783"><ele>1211.0</ele><time>2026-04-19T10:46:46.897Z</time></trkpt><trkpt lat="44.32686" lon="10.3879667"><ele>1214.2</ele><time>2026-04-19T10:46:47.898Z</time></trkpt><trkpt lat="44.326835" lon="10.3880867"><ele>1217.3999999999999</ele><time>2026-04-19T10:46:48.899Z</time></trkpt><trkpt lat="44.3268167" lon="10.3882333"><ele>1220.6</ele><time>2026-04-19T10:46:49.899Z</time></trkpt><trkpt lat="44.326805" lon="10.3883667"><ele>1223.8</ele><time>2026-04-19T10:46:50.899Z</time></trkpt><trkpt lat="44.3267967" lon="10.3884983"><ele>1227.0</ele><time>2026-04-19T10:46:51.898Z</time></trkpt><trkpt lat="44.3268083" lon="10.388625"><ele>1227.0</ele><time>2026-04-19T10:46:52.909Z</time></trkpt><trkpt lat="44.32683" lon="10.3887183"><ele>1227.0</ele><time>2026-04-19T10:46:53.91Z</time></trkpt><trkpt lat="44.3270417" lon="10.3891333"><ele>1227.0</ele><time>2026-04-19T10:46:55.909Z</time></trkpt><trkpt lat="44.32708" lon="10.3893467"><ele>1228.75</ele><time>2026-04-19T10:46:56.909Z</time></trkpt><trkpt lat="44.3270467" lon="10.3894367"><ele>1230.5</ele><time>2026-04-19T10:46:57.911Z</time></trkpt><trkpt lat="44.3269617" lon="10.3895283"><ele>1232.25</ele><time>2026-04-19T10:46:58.907Z</time></trkpt><trkpt lat="44.3268483" lon="10.3895917"><ele>1234.0</ele><time>2026-04-19T10:46:59.93Z</time></trkpt><trkpt lat="44.32666" lon="10.38965"><ele>1232.3333333333333</ele><time>2026-04-19T10:47:00.898Z</time></trkpt><trkpt lat="44.326505" lon="10.38969"><ele>1230.6666666666667</ele><time>2026-04-19T10:47:01.898Z</time></trkpt><trkpt lat="44.3263483" lon="10.389745"><ele>1229.0</ele><time>2026-04-19T10:47:02.898Z</time></trkpt><trkpt lat="44.326195" lon="10.3898017"><ele>1232.6666666666667</ele><time>2026-04-19T10:47:03.899Z</time></trkpt><trkpt lat="44.32602" lon="10.3898433"><ele>1236.3333333333333</ele><time>2026-04-19T10:47:04.898Z</time></trkpt><trkpt lat="44.3258583" lon="10.3898783"><ele>1240.0</ele><time>2026-04-19T10:47:05.899Z</time></trkpt><trkpt lat="44.3256733" lon="10.3899233"><ele>1243.6666666666665</ele><time>2026-04-19T10:47:06.899Z</time></trkpt><trkpt lat="44.3255133" lon="10.3899733"><ele>1247.3333333333333</ele><time>2026-04-19T10:47:07.899Z</time></trkpt><trkpt lat="44.3253383" lon="10.3900267"><ele>1251.0</ele><time>2026-04-19T10:47:08.903Z</time></trkpt><trkpt lat="44.3250033" lon="10.3900667"><ele>1251.0</ele><time>2026-04-19T10:47:10.09Z</time></trkpt><trkpt lat="44.3248667" lon="10.390165"><ele>1251.0</ele><time>2026-04-19T10:47:11.396Z</time></trkpt><trkpt lat="44.32468" lon="10.3902233"><ele>1251.0</ele><time>2026-04-19T10:47:12.897Z</time></trkpt><trkpt lat="44.3245517" lon="10.3902717"><ele>1251.75</ele><time>2026-04-19T10:47:13.898Z</time></trkpt><trkpt lat="44.324435" lon="10.39033"><ele>1252.5</ele><time>2026-04-19T10:47:14.899Z</time></trkpt><trkpt lat="44.3243133" lon="10.390375"><ele>1253.25</ele><time>2026-04-19T10:47:15.9Z</time></trkpt><trkpt lat="44.3242117" lon="10.3904283"><ele>1254.0</ele><time>2026-04-19T10:47:16.898Z</time></trkpt><trkpt lat="44.3241167" lon="10.3904883"><ele>1255.75</ele><time>2026-04-19T10:47:17.897Z</time></trkpt><trkpt lat="44.3240283" lon="10.3905567"><ele>1257.5</ele><time>2026-04-19T10:47:18.916Z</time></trkpt><trkpt lat="44.3238917" lon="10.390635"><ele>1259.25</ele><time>2026-04-19T10:47:20.221Z</time></trkpt><trkpt lat="44.3238833" lon="10.3908317"><ele>1261.0</ele><time>2026-04-19T10:47:21.898Z</time></trkpt><trkpt lat="44.3240233" lon="10.3912083"><ele>1262.5</ele><time>2026-04-19T10:47:24.149Z</time></trkpt><trkpt lat="44.3240933" lon="10.3914517"><ele>1264.0</ele><time>2026-04-19T10:47:25.896Z</time></trkpt><trkpt lat="44.32413" lon="10.3915933"><ele>1265.5</ele><time>2026-04-19T10:47:26.898Z</time></trkpt><trkpt lat="44.3241833" lon="10.39173"><ele>1267.0</ele><time>2026-04-19T10:47:27.898Z</time></trkpt><trkpt lat="44.32424" lon="10.3918367"><ele>1267.0</ele><time>2026-04-19T10:47:28.896Z</time></trkpt><trkpt lat="44.3242967" lon="10.3919367"><ele>1267.0</ele><time>2026-04-19T10:47:29.901Z</time></trkpt><trkpt lat="44.32435" lon="10.3920333"><ele>1267.0</ele><time>2026-04-19T10:47:30.9Z</time></trkpt><trkpt lat="44.3243633" lon="10.392215"><ele>1267.0</ele><time>2026-04-19T10:47:32.9Z</time></trkpt><trkpt lat="44.32437" lon="10.39231"><ele>1267.0</ele><time>2026-04-19T10:47:33.9Z</time></trkpt><trkpt lat="44.3243567" lon="10.3924333"><ele>1269.0</ele><time>2026-04-19T10:47:34.897Z</time></trkpt><trkpt lat="44.3243367" lon="10.39259"><ele>1271.0</ele><time>2026-04-19T10:47:35.901Z</time></trkpt><trkpt lat="44.324315" lon="10.3927567"><ele>1273.0</ele><time>2026-04-19T10:47:36.901Z</time></trkpt><trkpt lat="44.324285" lon="10.3929433"><ele>1275.0</ele><time>2026-04-19T10:47:37.9Z</time></trkpt><trkpt lat="44.3242583" lon="10.3931567"><ele>1276.6666666666667</ele><time>2026-04-19T10:47:38.9Z</time></trkpt><trkpt lat="44.32423" lon="10.39339"><ele>1278.3333333333335</ele><time>2026-04-19T10:47:39.9Z</time></trkpt><trkpt lat="44.3241983" lon="10.39361"><ele>1280.0</ele><time>2026-04-19T10:47:40.901Z</time></trkpt><trkpt lat="44.32417" lon="10.393795"><ele>1282.0</ele><time>2026-04-19T10:47:41.898Z</time></trkpt><trkpt lat="44.32416" lon="10.3939367"><ele>1284.0</ele><time>2026-04-19T10:47:42.907Z</time></trkpt><trkpt lat="44.3241667" lon="10.3940717"><ele>1286.0</ele><time>2026-04-19T10:47:43.91Z</time></trkpt><trkpt lat="44.3241767" lon="10.394195"><ele>1288.0</ele><time>2026-04-19T10:47:44.912Z</time></trkpt><trkpt lat="44.324225" lon="10.394305"><ele>1290.0</ele><time>2026-04-19T10:47:45.911Z</time></trkpt><trkpt lat="44.324285" lon="10.3944"><ele>1290.0</ele><time>2026-04-19T10:47:46.91Z</time></trkpt><trkpt lat="44.3243517" lon="10.3944883"><ele>1290.0</ele><time>2026-04-19T10:47:47.911Z</time></trkpt><trkpt lat="44.3244817" lon="10.3946033"><ele>1290.0</ele><time>2026-04-19T10:47:48.924Z</time></trkpt><trkpt lat="44.324555" lon="10.3946817"><ele>1290.0</ele><time>2026-04-19T10:47:49.912Z</time></trkpt><trkpt lat="44.3246233" lon="10.3947617"><ele>1290.0</ele><time>2026-04-19T10:47:50.912Z</time></trkpt><trkpt lat="44.32467" lon="10.394865"><ele>1288.25</ele><time>2026-04-19T10:47:51.916Z</time></trkpt><trkpt lat="44.3247167" lon="10.39498"><ele>1286.5</ele><time>2026-04-19T10:47:52.919Z</time></trkpt><trkpt lat="44.3247617" lon="10.3951317"><ele>1284.75</ele><time>2026-04-19T10:47:53.971Z</time></trkpt><trkpt lat="44.3247933" lon="10.3952867"><ele>1283.0</ele><time>2026-04-19T10:47:54.934Z</time></trkpt><trkpt lat="44.324825" lon="10.3954567"><ele>1284.0</ele><time>2026-04-19T10:47:55.92Z</time></trkpt><trkpt lat="44.3248417" lon="10.3955883"><ele>1285.0</ele><time>2026-04-19T10:47:57Z</time></trkpt><trkpt lat="44.3248283" lon="10.3957017"><ele>1286.0</ele><time>2026-04-19T10:47:57.937Z</time></trkpt><trkpt lat="44.32478" lon="10.3958083"><ele>1287.0</ele><time>2026-04-19T10:47:58.923Z</time></trkpt><trkpt lat="44.3247367" lon="10.3958783"><ele>1288.0</ele><time>2026-04-19T10:47:59.911Z</time></trkpt><trkpt lat="44.3246367" lon="10.3959483"><ele>1289.0</ele><time>2026-04-19T10:48:00.909Z</time></trkpt><trkpt lat="44.3245583" lon="10.3960217"><ele>1292.0</ele><time>2026-04-19T10:48:01.908Z</time></trkpt><trkpt lat="44.3244517" lon="10.3961033"><ele>1295.0</ele><time>2026-04-19T10:48:02.918Z</time></trkpt><trkpt lat="44.3243267" lon="10.3961983"><ele>1298.0</ele><time>2026-04-19T10:48:03.91Z</time></trkpt><trkpt lat="44.32422" lon="10.3963"><ele>1301.0</ele><time>2026-04-19T10:48:04.912Z</time></trkpt><trkpt lat="44.3241083" lon="10.3964033"><ele>1302.75</ele><time>2026-04-19T10:48:05.911Z</time></trkpt><trkpt lat="44.3239683" lon="10.3965067"><ele>1304.5</ele><time>2026-04-19T10:48:06.922Z</time></trkpt><trkpt lat="44.32384" lon="10.39658"><ele>1306.25</ele><time>2026-04-19T10:48:07.912Z</time></trkpt><trkpt lat="44.32371" lon="10.3966483"><ele>1308.0</ele><time>2026-04-19T10:48:08.913Z</time></trkpt><trkpt lat="44.3235883" lon="10.396695"><ele>1309.5</ele><time>2026-04-19T10:48:09.913Z</time></trkpt><trkpt lat="44.3234583" lon="10.39673"><ele>1311.0</ele><time>2026-04-19T10:48:10.921Z</time></trkpt><trkpt lat="44.3233233" lon="10.39676"><ele>1312.5</ele><time>2026-04-19T10:48:11.918Z</time></trkpt><trkpt lat="44.3231717" lon="10.3967983"><ele>1314.0</ele><time>2026-04-19T10:48:12.918Z</time></trkpt><trkpt lat="44.3230133" lon="10.3968333"><ele>1315.0</ele><time>2026-04-19T10:48:13.918Z</time></trkpt><trkpt lat="44.3228567" lon="10.3968683"><ele>1316.0</ele><time>2026-04-19T10:48:14.941Z</time></trkpt><trkpt lat="44.3227083" lon="10.3969"><ele>1317.0</ele><time>2026-04-19T10:48:15.927Z</time></trkpt><trkpt lat="44.3225583" lon="10.39692"><ele>1317.0</ele><time>2026-04-19T10:48:16.916Z</time></trkpt><trkpt lat="44.3224117" lon="10.3969483"><ele>1317.0</ele><time>2026-04-19T10:48:17.915Z</time></trkpt><trkpt lat="44.3222683" lon="10.3969917"><ele>1317.0</ele><time>2026-04-19T10:48:18.908Z</time></trkpt><trkpt lat="44.3221333" lon="10.3970467"><ele>1317.0</ele><time>2026-04-19T10:48:19.928Z</time></trkpt><trkpt lat="44.3220083" lon="10.3971083"><ele>1318.1999999999998</ele><time>2026-04-19T10:48:20.919Z</time></trkpt><trkpt lat="44.321895" lon="10.3971633"><ele>1319.4</ele><time>2026-04-19T10:48:21.909Z</time></trkpt><trkpt lat="44.3217917" lon="10.39721"><ele>1320.6</ele><time>2026-04-19T10:48:22.909Z</time></trkpt><trkpt lat="44.32169" lon="10.3972483"><ele>1321.8000000000002</ele><time>2026-04-19T10:48:23.912Z</time></trkpt><trkpt lat="44.3215933" lon="10.3972733"><ele>1323.0</ele><time>2026-04-19T10:48:24.919Z</time></trkpt><trkpt lat="44.3215" lon="10.3972767"><ele>1325.8333333333333</ele><time>2026-04-19T10:48:25.911Z</time></trkpt><trkpt lat="44.32142" lon="10.3972633"><ele>1328.6666666666667</ele><time>2026-04-19T10:48:26.977Z</time></trkpt><trkpt lat="44.3213383" lon="10.3972283"><ele>1331.5</ele><time>2026-04-19T10:48:27.94Z</time></trkpt><trkpt lat="44.32125" lon="10.3971933"><ele>1334.3333333333335</ele><time>2026-04-19T10:48:28.95Z</time></trkpt><trkpt lat="44.321165" lon="10.39715"><ele>1337.1666666666667</ele><time>2026-04-19T10:48:29.944Z</time></trkpt><trkpt lat="44.321085" lon="10.3970933"><ele>1340.0</ele><time>2026-04-19T10:48:30.912Z</time></trkpt><trkpt lat="44.3210017" lon="10.3970133"><ele>1343.3333333333335</ele><time>2026-04-19T10:48:31.909Z</time></trkpt><trkpt lat="44.3209483" lon="10.3969233"><ele>1346.6666666666667</ele><time>2026-04-19T10:48:32.924Z</time></trkpt><trkpt lat="44.3209067" lon="10.3968017"><ele>1350.0</ele><time>2026-04-19T10:48:33.896Z</time></trkpt><trkpt lat="44.3205533" lon="10.3965683"><ele>1350.0</ele><time>2026-04-19T10:48:35.326Z</time></trkpt><trkpt lat="44.3206617" lon="10.3964333"><ele>1350.0</ele><time>2026-04-19T10:48:36.396Z</time></trkpt><trkpt lat="44.3206983" lon="10.3962833"><ele>1350.0</ele><time>2026-04-19T10:48:37.896Z</time></trkpt><trkpt lat="44.3208483" lon="10.395615"><ele>1349.2</ele><time>2026-04-19T10:48:39.828Z</time></trkpt><trkpt lat="44.3208567" lon="10.3954683"><ele>1348.4</ele><time>2026-04-19T10:48:40.828Z</time></trkpt><trkpt lat="44.3208667" lon="10.3953317"><ele>1347.6</ele><time>2026-04-19T10:48:41.897Z</time></trkpt><trkpt lat="44.3208483" lon="10.39521"><ele>1346.8</ele><time>2026-04-19T10:48:42.897Z</time></trkpt><trkpt lat="44.3207848" lon="10.395096"><ele>1346.0</ele><time>2026-04-19T10:48:43.821Z</time></trkpt><trkpt lat="44.3207329" lon="10.3949968"><ele>1346.0</ele><time>2026-04-19T10:48:44.898Z</time></trkpt><trkpt lat="44.3206489" lon="10.394891"><ele>1346.0</ele><time>2026-04-19T10:48:46.897Z</time></trkpt><trkpt lat="44.3203955" lon="10.3947623"><ele>1346.0</ele><time>2026-04-19T10:48:49.051Z</time></trkpt><trkpt lat="44.3202399" lon="10.3947809"><ele>1347.857142857143</ele><time>2026-04-19T10:48:50.897Z</time></trkpt><trkpt lat="44.3201673" lon="10.3947613"><ele>1349.7142857142856</ele><time>2026-04-19T10:48:51.897Z</time></trkpt><trkpt lat="44.3200967" lon="10.3947438"><ele>1351.5714285714284</ele><time>2026-04-19T10:48:52.897Z</time></trkpt><trkpt lat="44.3200271" lon="10.3947318"><ele>1353.4285714285716</ele><time>2026-04-19T10:48:53.896Z</time></trkpt><trkpt lat="44.3199616" lon="10.394726"><ele>1355.2857142857142</ele><time>2026-04-19T10:48:54.897Z</time></trkpt><trkpt lat="44.31989" lon="10.3947277"><ele>1357.142857142857</ele><time>2026-04-19T10:48:55.898Z</time></trkpt><trkpt lat="44.3198185" lon="10.3947338"><ele>1359.0</ele><time>2026-04-19T10:48:56.895Z</time></trkpt><trkpt lat="44.3197504" lon="10.394757"><ele>1361.6</ele><time>2026-04-19T10:48:57.897Z</time></trkpt><trkpt lat="44.3196815" lon="10.3947853"><ele>1364.2</ele><time>2026-04-19T10:48:58.897Z</time></trkpt><trkpt lat="44.3196053" lon="10.3948113"><ele>1366.8</ele><time>2026-04-19T10:48:59.897Z</time></trkpt><trkpt lat="44.319537" lon="10.3948305"><ele>1369.3999999999999</ele><time>2026-04-19T10:49:00.897Z</time></trkpt><trkpt lat="44.3194248" lon="10.3948142"><ele>1372.0</ele><time>2026-04-19T10:49:02.897Z</time></trkpt><trkpt lat="44.3193192" lon="10.394744"><ele>1372.0</ele><time>2026-04-19T10:49:04.897Z</time></trkpt><trkpt lat="44.3192261" lon="10.3946526"><ele>1372.0</ele><time>2026-04-19T10:49:06.896Z</time></trkpt><trkpt lat="44.3192152" lon="10.3947786"><ele>1372.0</ele><time>2026-04-19T10:49:11.897Z</time></trkpt><trkpt lat="44.3192376" lon="10.3949444"><ele>1372.0</ele><time>2026-04-19T10:49:13.91Z</time></trkpt><trkpt lat="44.3192333" lon="10.395043"><ele>1372.0</ele><time>2026-04-19T10:49:14.898Z</time></trkpt><trkpt lat="44.3192182" lon="10.3951557"><ele>1372.0</ele><time>2026-04-19T10:49:15.898Z</time></trkpt><trkpt lat="44.3191994" lon="10.3952678"><ele>1372.0</ele><time>2026-04-19T10:49:16.896Z</time></trkpt><trkpt lat="44.3191934" lon="10.3953967"><ele>1372.0</ele><time>2026-04-19T10:49:17.896Z</time></trkpt><trkpt lat="44.3192019" lon="10.3956456"><ele>1372.0</ele><time>2026-04-19T10:49:19.349Z</time></trkpt><trkpt lat="44.3192492" lon="10.3958126"><ele>1376.0</ele><time>2026-04-19T10:49:20.35Z</time></trkpt><trkpt lat="44.3193502" lon="10.3960281"><ele>1380.0</ele><time>2026-04-19T10:49:21.897Z</time></trkpt><trkpt lat="44.3194109" lon="10.3961437"><ele>1384.0</ele><time>2026-04-19T10:49:22.896Z</time></trkpt><trkpt lat="44.3194967" lon="10.3962869"><ele>1388.0</ele><time>2026-04-19T10:49:24.239Z</time></trkpt><trkpt lat="44.3195787" lon="10.3964068"><ele>1389.6666666666667</ele><time>2026-04-19T10:49:25.897Z</time></trkpt><trkpt lat="44.3196143" lon="10.3964838"><ele>1391.3333333333335</ele><time>2026-04-19T10:49:26.898Z</time></trkpt><trkpt lat="44.3196393" lon="10.3965931"><ele>1393.0</ele><time>2026-04-19T10:49:27.898Z</time></trkpt><trkpt lat="44.3196475" lon="10.3967006"><ele>1394.6666666666667</ele><time>2026-04-19T10:49:28.898Z</time></trkpt><trkpt lat="44.3196233" lon="10.3968092"><ele>1396.3333333333333</ele><time>2026-04-19T10:49:29.9Z</time></trkpt><trkpt lat="44.31955" lon="10.3968067"><ele>1398.0</ele><time>2026-04-19T10:49:32.126Z</time></trkpt><trkpt lat="44.3193833" lon="10.397085"><ele>1398.0</ele><time>2026-04-19T10:49:33.897Z</time></trkpt><trkpt lat="44.3192817" lon="10.3970583"><ele>1398.0</ele><time>2026-04-19T10:49:35.897Z</time></trkpt><trkpt lat="44.3192033" lon="10.3970067"><ele>1398.0</ele><time>2026-04-19T10:49:37.896Z</time></trkpt><trkpt lat="44.3191783" lon="10.39692"><ele>1398.0</ele><time>2026-04-19T10:49:38.898Z</time></trkpt><trkpt lat="44.3191467" lon="10.3968367"><ele>1398.0</ele><time>2026-04-19T10:49:39.899Z</time></trkpt><trkpt lat="44.31911" lon="10.396745"><ele>1398.0</ele><time>2026-04-19T10:49:40.898Z</time></trkpt><trkpt lat="44.3190733" lon="10.3966217"><ele>1393.0</ele><time>2026-04-19T10:49:41.897Z</time></trkpt><trkpt lat="44.3189467" lon="10.3960667"><ele>1388.0</ele><time>2026-04-19T10:49:43.699Z</time></trkpt><trkpt lat="44.31879" lon="10.3958867"><ele>1391.3333333333335</ele><time>2026-04-19T10:49:45.898Z</time></trkpt><trkpt lat="44.3187217" lon="10.3958267"><ele>1394.6666666666667</ele><time>2026-04-19T10:49:46.897Z</time></trkpt><trkpt lat="44.318655" lon="10.39576"><ele>1398.0</ele><time>2026-04-19T10:49:47.897Z</time></trkpt><trkpt lat="44.3185867" lon="10.3956883"><ele>1401.3333333333333</ele><time>2026-04-19T10:49:48.897Z</time></trkpt><trkpt lat="44.3185233" lon="10.3956117"><ele>1404.6666666666665</ele><time>2026-04-19T10:49:49.897Z</time></trkpt><trkpt lat="44.3184183" lon="10.395575"><ele>1408.0</ele><time>2026-04-19T10:49:51.952Z</time></trkpt><trkpt lat="44.3183317" lon="10.3955167"><ele>1407.4</ele><time>2026-04-19T10:49:52.951Z</time></trkpt><trkpt lat="44.3181867" lon="10.3954333"><ele>1406.8000000000002</ele><time>2026-04-19T10:49:54.896Z</time></trkpt><trkpt lat="44.318105" lon="10.395385"><ele>1406.2</ele><time>2026-04-19T10:49:55.896Z</time></trkpt><trkpt lat="44.31802" lon="10.3953383"><ele>1405.6</ele><time>2026-04-19T10:49:56.9Z</time></trkpt><trkpt lat="44.3179117" lon="10.3953033"><ele>1405.0</ele><time>2026-04-19T10:49:57.897Z</time></trkpt><trkpt lat="44.317805" lon="10.3952867"><ele>1405.0</ele><time>2026-04-19T10:49:58.897Z</time></trkpt><trkpt lat="44.31769" lon="10.3952683"><ele>1405.0</ele><time>2026-04-19T10:49:59.896Z</time></trkpt><trkpt lat="44.3175717" lon="10.3952567"><ele>1405.0</ele><time>2026-04-19T10:50:00.896Z</time></trkpt><trkpt lat="44.3173033" lon="10.3950317"><ele>1407.6</ele><time>2026-04-19T10:50:02.157Z</time></trkpt><trkpt lat="44.3171883" lon="10.3950733"><ele>1410.2</ele><time>2026-04-19T10:50:03.396Z</time></trkpt><trkpt lat="44.317055" lon="10.3951033"><ele>1412.8000000000002</ele><time>2026-04-19T10:50:04.895Z</time></trkpt><trkpt lat="44.3169633" lon="10.3951267"><ele>1415.4</ele><time>2026-04-19T10:50:05.898Z</time></trkpt><trkpt lat="44.3168717" lon="10.3951417"><ele>1418.0</ele><time>2026-04-19T10:50:06.897Z</time></trkpt><trkpt lat="44.3167633" lon="10.3951633"><ele>1418.0</ele><time>2026-04-19T10:50:07.897Z</time></trkpt><trkpt lat="44.3166867" lon="10.3951717"><ele>1418.0</ele><time>2026-04-19T10:50:08.897Z</time></trkpt><trkpt lat="44.316555" lon="10.3950883"><ele>1418.0</ele><time>2026-04-19T10:50:10.792Z</time></trkpt><trkpt lat="44.3164433" lon="10.39502"><ele>1418.0</ele><time>2026-04-19T10:50:12.897Z</time></trkpt><trkpt lat="44.31642" lon="10.394935"><ele>1418.0</ele><time>2026-04-19T10:50:13.895Z</time></trkpt><trkpt lat="44.3163433" lon="10.3948583"><ele>1422.25</ele><time>2026-04-19T10:50:15.899Z</time></trkpt><trkpt lat="44.31637" lon="10.3950983"><ele>1426.5</ele><time>2026-04-19T10:50:18.749Z</time></trkpt><trkpt lat="44.31639" lon="10.395255"><ele>1430.75</ele><time>2026-04-19T10:50:20.897Z</time></trkpt><trkpt lat="44.3163867" lon="10.3954067"><ele>1435.0</ele><time>2026-04-19T10:50:22.898Z</time></trkpt><trkpt lat="44.3164433" lon="10.3958517"><ele>1435.0</ele><time>2026-04-19T10:50:25.803Z</time></trkpt><trkpt lat="44.316455" lon="10.395965"><ele>1435.0</ele><time>2026-04-19T10:50:27.897Z</time></trkpt><trkpt lat="44.316495" lon="10.3960567"><ele>1435.0</ele><time>2026-04-19T10:50:28.896Z</time></trkpt><trkpt lat="44.3165267" lon="10.3961667"><ele>1435.0</ele><time>2026-04-19T10:50:29.898Z</time></trkpt><trkpt lat="44.3165667" lon="10.3962833"><ele>1435.0</ele><time>2026-04-19T10:50:30.897Z</time></trkpt><trkpt lat="44.3165967" lon="10.3964117"><ele>1435.0</ele><time>2026-04-19T10:50:31.904Z</time></trkpt><trkpt lat="44.3166433" lon="10.3965383"><ele>1435.6666666666665</ele><time>2026-04-19T10:50:32.897Z</time></trkpt><trkpt lat="44.3166883" lon="10.396655"><ele>1436.3333333333333</ele><time>2026-04-19T10:50:33.9Z</time></trkpt><trkpt lat="44.31674" lon="10.3967533"><ele>1437.0</ele><time>2026-04-19T10:50:34.897Z</time></trkpt><trkpt lat="44.3167967" lon="10.3968367"><ele>1437.6666666666667</ele><time>2026-04-19T10:50:35.897Z</time></trkpt><trkpt lat="44.3168517" lon="10.3969083"><ele>1438.3333333333335</ele><time>2026-04-19T10:50:36.897Z</time></trkpt><trkpt lat="44.316925" lon="10.3969667"><ele>1439.0</ele><time>2026-04-19T10:50:37.896Z</time></trkpt><trkpt lat="44.3170267" lon="10.3970217"><ele>1439.0</ele><time>2026-04-19T10:50:38.898Z</time></trkpt><trkpt lat="44.3171233" lon="10.397065"><ele>1439.0</ele><time>2026-04-19T10:50:39.898Z</time></trkpt><trkpt lat="44.3174483" lon="10.39715"><ele>1439.0</ele><time>2026-04-19T10:50:42.053Z</time></trkpt><trkpt lat="44.3175467" lon="10.39729"><ele>1442.3333333333335</ele><time>2026-04-19T10:50:43.897Z</time></trkpt><trkpt lat="44.3175933" lon="10.3973883"><ele>1445.6666666666667</ele><time>2026-04-19T10:50:44.898Z</time></trkpt><trkpt lat="44.3175517" lon="10.3978833"><ele>1449.0</ele><time>2026-04-19T10:50:48.15Z</time></trkpt><trkpt lat="44.317615" lon="10.39811"><ele>1450.2</ele><time>2026-04-19T10:50:49.397Z</time></trkpt><trkpt lat="44.3176083" lon="10.398225"><ele>1451.4</ele><time>2026-04-19T10:50:50.896Z</time></trkpt><trkpt lat="44.3175717" lon="10.3983033"><ele>1452.6</ele><time>2026-04-19T10:50:51.897Z</time></trkpt><trkpt lat="44.3175133" lon="10.398365"><ele>1453.8</ele><time>2026-04-19T10:50:52.898Z</time></trkpt><trkpt lat="44.3174517" lon="10.3984133"><ele>1455.0</ele><time>2026-04-19T10:50:53.899Z</time></trkpt><trkpt lat="44.3171217" lon="10.3981667"><ele>1455.0</ele><time>2026-04-19T10:50:55.882Z</time></trkpt><trkpt lat="44.31708" lon="10.3984067"><ele>1455.0</ele><time>2026-04-19T10:50:57.262Z</time></trkpt><trkpt lat="44.3166817" lon="10.39853"><ele>1455.0</ele><time>2026-04-19T10:50:59.363Z</time></trkpt><trkpt lat="44.3165967" lon="10.3986683"><ele>1455.0</ele><time>2026-04-19T10:51:01.896Z</time></trkpt><trkpt lat="44.3165367" lon="10.3988383"><ele>1455.0</ele><time>2026-04-19T10:51:03.897Z</time></trkpt><trkpt lat="44.3164917" lon="10.3989567"><ele>1455.0</ele><time>2026-04-19T10:51:04.897Z</time></trkpt><trkpt lat="44.3164617" lon="10.3993883"><ele>1456.4</ele><time>2026-04-19T10:51:06.336Z</time></trkpt><trkpt lat="44.316505" lon="10.3994933"><ele>1457.8</ele><time>2026-04-19T10:51:07.624Z</time></trkpt><trkpt lat="44.3163933" lon="10.3995883"><ele>1459.1999999999998</ele><time>2026-04-19T10:51:08.896Z</time></trkpt><trkpt lat="44.316335" lon="10.399645"><ele>1460.6</ele><time>2026-04-19T10:51:09.896Z</time></trkpt><trkpt lat="44.3162783" lon="10.3996833"><ele>1462.0</ele><time>2026-04-19T10:51:10.896Z</time></trkpt><trkpt lat="44.3158667" lon="10.399615"><ele>1462.0</ele><time>2026-04-19T10:51:15.897Z</time></trkpt><trkpt lat="44.3157867" lon="10.399605"><ele>1462.0</ele><time>2026-04-19T10:51:16.897Z</time></trkpt><trkpt lat="44.3157217" lon="10.3995967"><ele>1462.0</ele><time>2026-04-19T10:51:17.932Z</time></trkpt><trkpt lat="44.3155817" lon="10.3996767"><ele>1462.0</ele><time>2026-04-19T10:51:20.398Z</time></trkpt><trkpt lat="44.3153683" lon="10.3997683"><ele>1468.5</ele><time>2026-04-19T10:51:22.897Z</time></trkpt><trkpt lat="44.3152983" lon="10.3997917"><ele>1475.0</ele><time>2026-04-19T10:51:23.897Z</time></trkpt><trkpt lat="44.3151883" lon="10.3997817"><ele>1481.5</ele><time>2026-04-19T10:51:25.897Z</time></trkpt><trkpt lat="44.3151283" lon="10.3997433"><ele>1488.0</ele><time>2026-04-19T10:51:26.897Z</time></trkpt><trkpt lat="44.3146817" lon="10.3991833"><ele>1488.4</ele><time>2026-04-19T10:51:31.898Z</time></trkpt><trkpt lat="44.3145983" lon="10.3990883"><ele>1488.8000000000002</ele><time>2026-04-19T10:51:33.898Z</time></trkpt><trkpt lat="44.314525" lon="10.3990933"><ele>1489.2</ele><time>2026-04-19T10:51:34.9Z</time></trkpt><trkpt lat="44.3144533" lon="10.3991217"><ele>1489.6</ele><time>2026-04-19T10:51:35.9Z</time></trkpt><trkpt lat="44.3142783" lon="10.39922"><ele>1490.0</ele><time>2026-04-19T10:51:37.336Z</time></trkpt><trkpt lat="44.3141917" lon="10.399245"><ele>1490.0</ele><time>2026-04-19T10:51:39.418Z</time></trkpt><trkpt lat="44.3140417" lon="10.3992317"><ele>1490.0</ele><time>2026-04-19T10:51:40.897Z</time></trkpt><trkpt lat="44.313935" lon="10.399135"><ele>1490.0</ele><time>2026-04-19T10:51:42.897Z</time></trkpt><trkpt lat="44.31386" lon="10.3989833"><ele>1490.0</ele><time>2026-04-19T10:51:44.897Z</time></trkpt><trkpt lat="44.3138217" lon="10.3989"><ele>1492.5</ele><time>2026-04-19T10:51:45.897Z</time></trkpt><trkpt lat="44.3138183" lon="10.3987683"><ele>1495.0</ele><time>2026-04-19T10:51:47.123Z</time></trkpt><trkpt lat="44.3136983" lon="10.3985"><ele>1497.5</ele><time>2026-04-19T10:51:48.897Z</time></trkpt><trkpt lat="44.31364" lon="10.398375"><ele>1500.0</ele><time>2026-04-19T10:51:49.897Z</time></trkpt><trkpt lat="44.3135383" lon="10.3982683"><ele>1500.0</ele><time>2026-04-19T10:51:50.897Z</time></trkpt><trkpt lat="44.3133567" lon="10.3981833"><ele>1500.0</ele><time>2026-04-19T10:51:52.012Z</time></trkpt><trkpt lat="44.3132933" lon="10.39801"><ele>1500.0</ele><time>2026-04-19T10:51:53.397Z</time></trkpt><trkpt lat="44.3132917" lon="10.3977383"><ele>1499.8</ele><time>2026-04-19T10:51:56.055Z</time></trkpt><trkpt lat="44.3132133" lon="10.3975567"><ele>1499.6</ele><time>2026-04-19T10:51:57.9Z</time></trkpt><trkpt lat="44.3131583" lon="10.397435"><ele>1499.4</ele><time>2026-04-19T10:51:58.897Z</time></trkpt><trkpt lat="44.3131217" lon="10.3973333"><ele>1499.2</ele><time>2026-04-19T10:51:59.898Z</time></trkpt><trkpt lat="44.3130983" lon="10.397225"><ele>1499.0</ele><time>2026-04-19T10:52:00.903Z</time></trkpt><trkpt lat="44.313085" lon="10.397105"><ele>1497.8000000000002</ele><time>2026-04-19T10:52:01.898Z</time></trkpt><trkpt lat="44.31308" lon="10.3969933"><ele>1496.6000000000001</ele><time>2026-04-19T10:52:02.897Z</time></trkpt><trkpt lat="44.3131067" lon="10.3968633"><ele>1495.4</ele><time>2026-04-19T10:52:04.091Z</time></trkpt><trkpt lat="44.3130467" lon="10.3969583"><ele>1494.2</ele><time>2026-04-19T10:52:08.898Z</time></trkpt><trkpt lat="44.3130217" lon="10.3970483"><ele>1493.0</ele><time>2026-04-19T10:52:09.898Z</time></trkpt><trkpt lat="44.31291" lon="10.397215"><ele>1497.0</ele><time>2026-04-19T10:52:12.901Z</time></trkpt><trkpt lat="44.312855" lon="10.3972867"><ele>1501.0</ele><time>2026-04-19T10:52:13.897Z</time></trkpt><trkpt lat="44.312805" lon="10.3973683"><ele>1505.0</ele><time>2026-04-19T10:52:14.897Z</time></trkpt><trkpt lat="44.3127483" lon="10.39745"><ele>1509.0</ele><time>2026-04-19T10:52:15.897Z</time></trkpt><trkpt lat="44.3127017" lon="10.3975333"><ele>1513.0</ele><time>2026-04-19T10:52:16.899Z</time></trkpt><trkpt lat="44.3126033" lon="10.39787"><ele>1514.5</ele><time>2026-04-19T10:52:18.17Z</time></trkpt><trkpt lat="44.3125933" lon="10.3980783"><ele>1516.0</ele><time>2026-04-19T10:52:19.896Z</time></trkpt><trkpt lat="44.3126067" lon="10.3982283"><ele>1517.5</ele><time>2026-04-19T10:52:20.897Z</time></trkpt><trkpt lat="44.3126083" lon="10.3983867"><ele>1519.0</ele><time>2026-04-19T10:52:21.897Z</time></trkpt><trkpt lat="44.3126117" lon="10.3985267"><ele>1519.0</ele><time>2026-04-19T10:52:22.897Z</time></trkpt><trkpt lat="44.3126133" lon="10.3986533"><ele>1519.0</ele><time>2026-04-19T10:52:23.897Z</time></trkpt><trkpt lat="44.31252" lon="10.3989783"><ele>1519.0</ele><time>2026-04-19T10:52:25.21Z</time></trkpt><trkpt lat="44.312505" lon="10.3991967"><ele>1520.75</ele><time>2026-04-19T10:52:26.898Z</time></trkpt><trkpt lat="44.3124633" lon="10.39928"><ele>1522.5</ele><time>2026-04-19T10:52:27.951Z</time></trkpt><trkpt lat="44.3124117" lon="10.399415"><ele>1524.25</ele><time>2026-04-19T10:52:29.398Z</time></trkpt><trkpt lat="44.3124517" lon="10.3996133"><ele>1526.0</ele><time>2026-04-19T10:52:32.397Z</time></trkpt><trkpt lat="44.3124917" lon="10.3998083"><ele>1528.6666666666667</ele><time>2026-04-19T10:52:33.9Z</time></trkpt><trkpt lat="44.3125183" lon="10.3999283"><ele>1531.3333333333333</ele><time>2026-04-19T10:52:34.897Z</time></trkpt><trkpt lat="44.3126867" lon="10.400205"><ele>1534.0</ele><time>2026-04-19T10:52:37.033Z</time></trkpt><trkpt lat="44.31275" lon="10.4004733"><ele>1534.0</ele><time>2026-04-19T10:52:38.898Z</time></trkpt><trkpt lat="44.3127683" lon="10.4005733"><ele>1534.0</ele><time>2026-04-19T10:52:39.896Z</time></trkpt><trkpt lat="44.3128267" lon="10.40069"><ele>1534.0</ele><time>2026-04-19T10:52:41.896Z</time></trkpt><trkpt lat="44.312745" lon="10.40074"><ele>1534.0</ele><time>2026-04-19T10:52:45.896Z</time></trkpt><trkpt lat="44.3126817" lon="10.4006967"><ele>1534.0</ele><time>2026-04-19T10:52:46.897Z</time></trkpt><trkpt lat="44.3126" lon="10.40033"><ele>1534.0</ele><time>2026-04-19T10:52:48.682Z</time></trkpt><trkpt lat="44.3123533" lon="10.40031"><ele>1534.0</ele><time>2026-04-19T10:52:50.898Z</time></trkpt><trkpt lat="44.31227" lon="10.40028"><ele>1534.0</ele><time>2026-04-19T10:52:51.9Z</time></trkpt><trkpt lat="44.3121883" lon="10.4002583"><ele>1534.0</ele><time>2026-04-19T10:52:52.897Z</time></trkpt><trkpt lat="44.3121033" lon="10.4002467"><ele>1536.8000000000002</ele><time>2026-04-19T10:52:53.899Z</time></trkpt><trkpt lat="44.31202" lon="10.4002333"><ele>1539.6000000000001</ele><time>2026-04-19T10:52:54.902Z</time></trkpt><trkpt lat="44.3119217" lon="10.4002233"><ele>1542.4</ele><time>2026-04-19T10:52:55.898Z</time></trkpt><trkpt lat="44.3118183" lon="10.4002117"><ele>1545.2</ele><time>2026-04-19T10:52:56.899Z</time></trkpt><trkpt lat="44.311725" lon="10.4002883"><ele>1548.0</ele><time>2026-04-19T10:52:59.096Z</time></trkpt><trkpt lat="44.3115617" lon="10.4002283"><ele>1548.0</ele><time>2026-04-19T10:53:00.897Z</time></trkpt><trkpt lat="44.3114833" lon="10.4002033"><ele>1548.0</ele><time>2026-04-19T10:53:02.898Z</time></trkpt><trkpt lat="44.3113967" lon="10.4001867"><ele>1548.0</ele><time>2026-04-19T10:53:04.898Z</time></trkpt><trkpt lat="44.3115083" lon="10.4002133"><ele>1548.0</ele><time>2026-04-19T11:07:00.937Z</time></trkpt><trkpt lat="44.3115967" lon="10.400225"><ele>1548.0</ele><time>2026-04-19T11:07:03.924Z</time></trkpt><trkpt lat="44.3116933" lon="10.4002433"><ele>1548.0</ele><time>2026-04-19T11:07:05.954Z</time></trkpt><trkpt lat="44.3118067" lon="10.40027"><ele>1548.0</ele><time>2026-04-19T11:07:07.952Z</time></trkpt><trkpt lat="44.31187" lon="10.4002833"><ele>1548.0</ele><time>2026-04-19T11:07:08.914Z</time></trkpt><trkpt lat="44.3119383" lon="10.4002967"><ele>1548.0</ele><time>2026-04-19T11:07:09.907Z</time></trkpt><trkpt lat="44.31201" lon="10.4003117"><ele>1548.0</ele><time>2026-04-19T11:07:10.959Z</time></trkpt><trkpt lat="44.3120867" lon="10.4003267"><ele>1548.0</ele><time>2026-04-19T11:07:11.939Z</time></trkpt><trkpt lat="44.3121767" lon="10.4003417"><ele>1547.6000000000001</ele><time>2026-04-19T11:07:12.918Z</time></trkpt><trkpt lat="44.3122483" lon="10.4003667"><ele>1547.2</ele><time>2026-04-19T11:07:13.928Z</time></trkpt><trkpt lat="44.31232" lon="10.4004"><ele>1546.8</ele><time>2026-04-19T11:07:14.904Z</time></trkpt><trkpt lat="44.3124533" lon="10.4005167"><ele>1546.4</ele><time>2026-04-19T11:07:17.9Z</time></trkpt><trkpt lat="44.3125333" lon="10.4005817"><ele>1546.0</ele><time>2026-04-19T11:07:18.896Z</time></trkpt><trkpt lat="44.3126267" lon="10.4005867"><ele>1546.0</ele><time>2026-04-19T11:07:19.897Z</time></trkpt><trkpt lat="44.3127317" lon="10.4006417"><ele>1546.0</ele><time>2026-04-19T11:07:21.899Z</time></trkpt><trkpt lat="44.3127367" lon="10.4005267"><ele>1546.0</ele><time>2026-04-19T11:07:25.897Z</time></trkpt><trkpt lat="44.3126867" lon="10.4004683"><ele>1546.0</ele><time>2026-04-19T11:07:26.896Z</time></trkpt><trkpt lat="44.3126333" lon="10.4003817"><ele>1546.0</ele><time>2026-04-19T11:07:27.896Z</time></trkpt><trkpt lat="44.3124533" lon="10.4000083"><ele>1542.0</ele><time>2026-04-19T11:07:30.176Z</time></trkpt><trkpt lat="44.3124" lon="10.3999067"><ele>1538.0</ele><time>2026-04-19T11:07:31.177Z</time></trkpt><trkpt lat="44.312345" lon="10.3997117"><ele>1534.0</ele><time>2026-04-19T11:07:32.896Z</time></trkpt><trkpt lat="44.3125333" lon="10.3993717"><ele>1532.4</ele><time>2026-04-19T11:07:34.229Z</time></trkpt><trkpt lat="44.3124733" lon="10.3992617"><ele>1530.8000000000002</ele><time>2026-04-19T11:07:36.897Z</time></trkpt><trkpt lat="44.31248" lon="10.3990783"><ele>1529.1999999999998</ele><time>2026-04-19T11:07:38.896Z</time></trkpt><trkpt lat="44.3124983" lon="10.3989783"><ele>1527.6</ele><time>2026-04-19T11:07:39.898Z</time></trkpt><trkpt lat="44.31252" lon="10.3988733"><ele>1526.0</ele><time>2026-04-19T11:07:40.897Z</time></trkpt><trkpt lat="44.3125433" lon="10.398755"><ele>1523.6666666666667</ele><time>2026-04-19T11:07:41.897Z</time></trkpt><trkpt lat="44.31255" lon="10.3986433"><ele>1521.3333333333333</ele><time>2026-04-19T11:07:42.897Z</time></trkpt><trkpt lat="44.31263" lon="10.3983183"><ele>1519.0</ele><time>2026-04-19T11:07:44.146Z</time></trkpt><trkpt lat="44.3124983" lon="10.39819"><ele>1519.0</ele><time>2026-04-19T11:07:45.396Z</time></trkpt><trkpt lat="44.312515" lon="10.3980317"><ele>1519.0</ele><time>2026-04-19T11:07:48.398Z</time></trkpt><trkpt lat="44.3125333" lon="10.3979117"><ele>1519.0</ele><time>2026-04-19T11:07:49.897Z</time></trkpt><trkpt lat="44.3125617" lon="10.3978117"><ele>1519.0</ele><time>2026-04-19T11:07:50.897Z</time></trkpt><trkpt lat="44.3126067" lon="10.3976883"><ele>1519.0</ele><time>2026-04-19T11:07:51.897Z</time></trkpt><trkpt lat="44.312685" lon="10.3974683"><ele>1517.5</ele><time>2026-04-19T11:07:54.398Z</time></trkpt><trkpt lat="44.312805" lon="10.3973217"><ele>1516.0</ele><time>2026-04-19T11:07:55.899Z</time></trkpt><trkpt lat="44.31284" lon="10.397245"><ele>1514.5</ele><time>2026-04-19T11:07:57.307Z</time></trkpt><trkpt lat="44.3129067" lon="10.3970867"><ele>1513.0</ele><time>2026-04-19T11:07:58.397Z</time></trkpt><trkpt lat="44.3129717" lon="10.3969567"><ele>1512.1666666666665</ele><time>2026-04-19T11:08:01.397Z</time></trkpt><trkpt lat="44.313065" lon="10.3969683"><ele>1511.3333333333333</ele><time>2026-04-19T11:08:03.898Z</time></trkpt><trkpt lat="44.313105" lon="10.3971433"><ele>1510.5</ele><time>2026-04-19T11:08:05.897Z</time></trkpt><trkpt lat="44.31311" lon="10.397245"><ele>1509.6666666666667</ele><time>2026-04-19T11:08:06.897Z</time></trkpt><trkpt lat="44.3131167" lon="10.3973467"><ele>1508.8333333333335</ele><time>2026-04-19T11:08:07.896Z</time></trkpt><trkpt lat="44.3131333" lon="10.39745"><ele>1508.0</ele><time>2026-04-19T11:08:08.896Z</time></trkpt><trkpt lat="44.313165" lon="10.3975517"><ele>1506.0</ele><time>2026-04-19T11:08:09.898Z</time></trkpt><trkpt lat="44.3132033" lon="10.3976583"><ele>1504.0</ele><time>2026-04-19T11:08:10.899Z</time></trkpt><trkpt lat="44.3133317" lon="10.3978717"><ele>1502.0</ele><time>2026-04-19T11:08:12.935Z</time></trkpt><trkpt lat="44.3134017" lon="10.39801"><ele>1500.0</ele><time>2026-04-19T11:08:14.896Z</time></trkpt><trkpt lat="44.31344" lon="10.39811"><ele>1500.0</ele><time>2026-04-19T11:08:15.897Z</time></trkpt><trkpt lat="44.313485" lon="10.3982167"><ele>1500.0</ele><time>2026-04-19T11:08:16.896Z</time></trkpt><trkpt lat="44.3136033" lon="10.3984083"><ele>1500.0</ele><time>2026-04-19T11:08:17.887Z</time></trkpt><trkpt lat="44.313655" lon="10.3986067"><ele>1500.0</ele><time>2026-04-19T11:08:18.897Z</time></trkpt><trkpt lat="44.3137583" lon="10.3986833"><ele>1500.0</ele><time>2026-04-19T11:08:19.897Z</time></trkpt><trkpt lat="44.3138317" lon="10.39877"><ele>1500.0</ele><time>2026-04-19T11:08:20.897Z</time></trkpt><trkpt lat="44.3138933" lon="10.3988417"><ele>1500.0</ele><time>2026-04-19T11:08:21.897Z</time></trkpt><trkpt lat="44.3139267" lon="10.3989917"><ele>1500.0</ele><time>2026-04-19T11:08:23.672Z</time></trkpt><trkpt lat="44.31395" lon="10.3991117"><ele>1500.0</ele><time>2026-04-19T11:08:24.673Z</time></trkpt><trkpt lat="44.3139867" lon="10.39921"><ele>1498.0</ele><time>2026-04-19T11:08:25.898Z</time></trkpt><trkpt lat="44.3140517" lon="10.39933"><ele>1496.0</ele><time>2026-04-19T11:08:27.898Z</time></trkpt><trkpt lat="44.3141383" lon="10.399355"><ele>1494.0</ele><time>2026-04-19T11:08:29.899Z</time></trkpt><trkpt lat="44.3142717" lon="10.39929"><ele>1492.0</ele><time>2026-04-19T11:08:31.899Z</time></trkpt><trkpt lat="44.3143567" lon="10.3992383"><ele>1490.0</ele><time>2026-04-19T11:08:32.896Z</time></trkpt><trkpt lat="44.31443" lon="10.3992133"><ele>1490.0</ele><time>2026-04-19T11:08:33.897Z</time></trkpt><trkpt lat="44.3145017" lon="10.3992133"><ele>1490.0</ele><time>2026-04-19T11:08:34.898Z</time></trkpt><trkpt lat="44.314575" lon="10.3992283"><ele>1490.0</ele><time>2026-04-19T11:08:35.897Z</time></trkpt><trkpt lat="44.314645" lon="10.3992617"><ele>1490.0</ele><time>2026-04-19T11:08:36.898Z</time></trkpt><trkpt lat="44.3150667" lon="10.3994583"><ele>1489.5</ele><time>2026-04-19T11:08:39.142Z</time></trkpt><trkpt lat="44.31508" lon="10.3996"><ele>1489.0</ele><time>2026-04-19T11:08:40.399Z</time></trkpt><trkpt lat="44.3151083" lon="10.39975"><ele>1488.5</ele><time>2026-04-19T11:08:41.897Z</time></trkpt><trkpt lat="44.3153067" lon="10.3996633"><ele>1488.0</ele><time>2026-04-19T11:08:43.509Z</time></trkpt><trkpt lat="44.3154283" lon="10.39974"><ele>1488.0</ele><time>2026-04-19T11:08:45.899Z</time></trkpt><trkpt lat="44.315515" lon="10.399715"><ele>1488.0</ele><time>2026-04-19T11:08:46.897Z</time></trkpt><trkpt lat="44.315695" lon="10.39962"><ele>1488.0</ele><time>2026-04-19T11:08:47.864Z</time></trkpt><trkpt lat="44.3156333" lon="10.3995917"><ele>1488.0</ele><time>2026-04-19T11:08:49.495Z</time></trkpt><trkpt lat="44.3158033" lon="10.3995233"><ele>1481.5</ele><time>2026-04-19T11:08:50.752Z</time></trkpt><trkpt lat="44.315895" lon="10.39952"><ele>1475.0</ele><time>2026-04-19T11:08:52.897Z</time></trkpt><trkpt lat="44.3160117" lon="10.3995367"><ele>1468.5</ele><time>2026-04-19T11:08:54.898Z</time></trkpt><trkpt lat="44.3161333" lon="10.3996117"><ele>1462.0</ele><time>2026-04-19T11:08:57.397Z</time></trkpt><trkpt lat="44.3162167" lon="10.3995117"><ele>1462.0</ele><time>2026-04-19T11:08:59.897Z</time></trkpt><trkpt lat="44.3163067" lon="10.3993433"><ele>1462.0</ele><time>2026-04-19T11:09:02.897Z</time></trkpt><trkpt lat="44.3163533" lon="10.3992033"><ele>1462.0</ele><time>2026-04-19T11:09:03.898Z</time></trkpt><trkpt lat="44.316415" lon="10.3990133"><ele>1462.0</ele><time>2026-04-19T11:09:04.898Z</time></trkpt><trkpt lat="44.3164933" lon="10.3988633"><ele>1460.25</ele><time>2026-04-19T11:09:05.898Z</time></trkpt><trkpt lat="44.3165517" lon="10.3987567"><ele>1458.5</ele><time>2026-04-19T11:09:06.897Z</time></trkpt><trkpt lat="44.3166267" lon="10.398645"><ele>1456.75</ele><time>2026-04-19T11:09:07.898Z</time></trkpt><trkpt lat="44.316775" lon="10.3985717"><ele>1455.0</ele><time>2026-04-19T11:09:10.398Z</time></trkpt><trkpt lat="44.316885" lon="10.3985517"><ele>1455.0</ele><time>2026-04-19T11:09:11.897Z</time></trkpt><trkpt lat="44.316985" lon="10.3985217"><ele>1455.0</ele><time>2026-04-19T11:09:12.896Z</time></trkpt><trkpt lat="44.3170833" lon="10.3984917"><ele>1455.0</ele><time>2026-04-19T11:09:13.898Z</time></trkpt><trkpt lat="44.317505" lon="10.3984083"><ele>1455.8</ele><time>2026-04-19T11:09:15.743Z</time></trkpt><trkpt lat="44.31756" lon="10.3983167"><ele>1456.6</ele><time>2026-04-19T11:09:16.742Z</time></trkpt><trkpt lat="44.3176133" lon="10.398245"><ele>1457.4</ele><time>2026-04-19T11:09:17.9Z</time></trkpt><trkpt lat="44.317635" lon="10.3981017"><ele>1458.2</ele><time>2026-04-19T11:09:19.897Z</time></trkpt><trkpt lat="44.3176167" lon="10.3980167"><ele>1459.0</ele><time>2026-04-19T11:09:20.898Z</time></trkpt><trkpt lat="44.3175467" lon="10.39786"><ele>1456.5</ele><time>2026-04-19T11:09:23.397Z</time></trkpt><trkpt lat="44.3175067" lon="10.397705"><ele>1454.0</ele><time>2026-04-19T11:09:24.896Z</time></trkpt><trkpt lat="44.317465" lon="10.3975533"><ele>1451.5</ele><time>2026-04-19T11:09:25.898Z</time></trkpt><trkpt lat="44.317425" lon="10.3974233"><ele>1449.0</ele><time>2026-04-19T11:09:26.898Z</time></trkpt><trkpt lat="44.3171367" lon="10.3971583"><ele>1445.6666666666667</ele><time>2026-04-19T11:09:28.684Z</time></trkpt><trkpt lat="44.3169933" lon="10.3969867"><ele>1442.3333333333335</ele><time>2026-04-19T11:09:30.898Z</time></trkpt><trkpt lat="44.316905" lon="10.396945"><ele>1439.0</ele><time>2026-04-19T11:09:31.897Z</time></trkpt><trkpt lat="44.31662" lon="10.396865"><ele>1439.0</ele><time>2026-04-19T11:09:34.446Z</time></trkpt><trkpt lat="44.316575" lon="10.396665"><ele>1439.0</ele><time>2026-04-19T11:09:35.897Z</time></trkpt><trkpt lat="44.3165383" lon="10.3965517"><ele>1439.0</ele><time>2026-04-19T11:09:36.897Z</time></trkpt><trkpt lat="44.3165017" lon="10.3964483"><ele>1439.0</ele><time>2026-04-19T11:09:37.898Z</time></trkpt><trkpt lat="44.316405" lon="10.3962167"><ele>1439.25</ele><time>2026-04-19T11:09:39.283Z</time></trkpt><trkpt lat="44.3164033" lon="10.3960567"><ele>1439.5</ele><time>2026-04-19T11:09:40.403Z</time></trkpt><trkpt lat="44.3163633" lon="10.3959383"><ele>1439.75</ele><time>2026-04-19T11:09:41.897Z</time></trkpt><trkpt lat="44.3163317" lon="10.3958517"><ele>1440.0</ele><time>2026-04-19T11:09:42.908Z</time></trkpt><trkpt lat="44.3162417" lon="10.39547"><ele>1439.6666666666667</ele><time>2026-04-19T11:09:44.216Z</time></trkpt><trkpt lat="44.316305" lon="10.3954767"><ele>1439.3333333333333</ele><time>2026-04-19T11:09:45.897Z</time></trkpt><trkpt lat="44.3163067" lon="10.3953283"><ele>1439.0</ele><time>2026-04-19T11:09:47.897Z</time></trkpt><trkpt lat="44.3162933" lon="10.3952283"><ele>1438.6666666666665</ele><time>2026-04-19T11:09:48.896Z</time></trkpt><trkpt lat="44.3162717" lon="10.3951333"><ele>1438.3333333333333</ele><time>2026-04-19T11:09:49.902Z</time></trkpt><trkpt lat="44.3162533" lon="10.3949833"><ele>1438.0</ele><time>2026-04-19T11:09:51.899Z</time></trkpt><trkpt lat="44.3162867" lon="10.3949017"><ele>1434.0</ele><time>2026-04-19T11:09:53.902Z</time></trkpt><trkpt lat="44.31642" lon="10.394985"><ele>1430.0</ele><time>2026-04-19T11:09:56.896Z</time></trkpt><trkpt lat="44.3165083" lon="10.3951283"><ele>1426.0</ele><time>2026-04-19T11:09:58.897Z</time></trkpt><trkpt lat="44.3165733" lon="10.39518"><ele>1422.0</ele><time>2026-04-19T11:09:59.897Z</time></trkpt><trkpt lat="44.316655" lon="10.3952383"><ele>1418.0</ele><time>2026-04-19T11:10:01.56Z</time></trkpt><trkpt lat="44.3168567" lon="10.3951667"><ele>1418.0</ele><time>2026-04-19T11:10:02.896Z</time></trkpt><trkpt lat="44.3169667" lon="10.3951467"><ele>1418.0</ele><time>2026-04-19T11:10:03.897Z</time></trkpt><trkpt lat="44.3170733" lon="10.395125"><ele>1418.0</ele><time>2026-04-19T11:10:04.896Z</time></trkpt><trkpt lat="44.31716" lon="10.3951083"><ele>1418.0</ele><time>2026-04-19T11:10:05.898Z</time></trkpt><trkpt lat="44.3172517" lon="10.395095"><ele>1418.0</ele><time>2026-04-19T11:10:06.901Z</time></trkpt><trkpt lat="44.3173367" lon="10.39509"><ele>1413.6666666666667</ele><time>2026-04-19T11:10:07.9Z</time></trkpt><trkpt lat="44.3174317" lon="10.3950983"><ele>1409.3333333333333</ele><time>2026-04-19T11:10:08.898Z</time></trkpt><trkpt lat="44.3175483" lon="10.3953317"><ele>1405.0</ele><time>2026-04-19T11:10:10.225Z</time></trkpt><trkpt lat="44.3177167" lon="10.3952467"><ele>1405.0</ele><time>2026-04-19T11:10:11.401Z</time></trkpt><trkpt lat="44.3178467" lon="10.3952667"><ele>1405.0</ele><time>2026-04-19T11:10:12.897Z</time></trkpt><trkpt lat="44.3179367" lon="10.39528"><ele>1405.0</ele><time>2026-04-19T11:10:13.897Z</time></trkpt><trkpt lat="44.3180267" lon="10.395295"><ele>1405.0</ele><time>2026-04-19T11:10:14.897Z</time></trkpt><trkpt lat="44.3182483" lon="10.3953917"><ele>1405.6</ele><time>2026-04-19T11:10:16.539Z</time></trkpt><trkpt lat="44.3183483" lon="10.3954733"><ele>1406.2</ele><time>2026-04-19T11:10:17.897Z</time></trkpt><trkpt lat="44.318425" lon="10.39554"><ele>1406.8000000000002</ele><time>2026-04-19T11:10:18.897Z</time></trkpt><trkpt lat="44.318495" lon="10.3956067"><ele>1407.4</ele><time>2026-04-19T11:10:19.897Z</time></trkpt><trkpt lat="44.318555" lon="10.3956817"><ele>1408.0</ele><time>2026-04-19T11:10:20.897Z</time></trkpt><trkpt lat="44.3186133" lon="10.39576"><ele>1408.0</ele><time>2026-04-19T11:10:21.898Z</time></trkpt><trkpt lat="44.3186783" lon="10.3958367"><ele>1408.0</ele><time>2026-04-19T11:10:22.897Z</time></trkpt><trkpt lat="44.3187433" lon="10.3959133"><ele>1408.0</ele><time>2026-04-19T11:10:23.9Z</time></trkpt><trkpt lat="44.3188167" lon="10.39599"><ele>1408.0</ele><time>2026-04-19T11:10:24.898Z</time></trkpt><trkpt lat="44.3188917" lon="10.39607"><ele>1408.0</ele><time>2026-04-19T11:10:25.898Z</time></trkpt><trkpt lat="44.3189733" lon="10.39616"><ele>1406.0</ele><time>2026-04-19T11:10:26.897Z</time></trkpt><trkpt lat="44.3190533" lon="10.3962533"><ele>1404.0</ele><time>2026-04-19T11:10:27.899Z</time></trkpt><trkpt lat="44.3191083" lon="10.3963583"><ele>1402.0</ele><time>2026-04-19T11:10:28.898Z</time></trkpt><trkpt lat="44.319155" lon="10.3964733"><ele>1400.0</ele><time>2026-04-19T11:10:29.897Z</time></trkpt><trkpt lat="44.3192017" lon="10.3966017"><ele>1398.0</ele><time>2026-04-19T11:10:30.897Z</time></trkpt><trkpt lat="44.319235" lon="10.39673"><ele>1398.0</ele><time>2026-04-19T11:10:31.898Z</time></trkpt><trkpt lat="44.3192667" lon="10.3968433"><ele>1398.0</ele><time>2026-04-19T11:10:32.898Z</time></trkpt><trkpt lat="44.319385" lon="10.3971633"><ele>1398.0</ele><time>2026-04-19T11:10:34.889Z</time></trkpt><trkpt lat="44.31947" lon="10.3971117"><ele>1398.0</ele><time>2026-04-19T11:10:37.898Z</time></trkpt><trkpt lat="44.31953" lon="10.3969883"><ele>1398.0</ele><time>2026-04-19T11:10:39.899Z</time></trkpt><trkpt lat="44.3195583" lon="10.3968967"><ele>1398.0</ele><time>2026-04-19T11:10:40.897Z</time></trkpt><trkpt lat="44.31958" lon="10.3968"><ele>1398.0</ele><time>2026-04-19T11:10:41.899Z</time></trkpt><trkpt lat="44.3195933" lon="10.396705"><ele>1398.0</ele><time>2026-04-19T11:10:42.898Z</time></trkpt><trkpt lat="44.31957" lon="10.3965383"><ele>1398.0</ele><time>2026-04-19T11:10:44.898Z</time></trkpt><trkpt lat="44.31955" lon="10.396445"><ele>1398.0</ele><time>2026-04-19T11:10:45.898Z</time></trkpt><trkpt lat="44.3195017" lon="10.39635"><ele>1395.5</ele><time>2026-04-19T11:10:46.901Z</time></trkpt><trkpt lat="44.3194433" lon="10.396245"><ele>1393.0</ele><time>2026-04-19T11:10:47.899Z</time></trkpt><trkpt lat="44.3193817" lon="10.3961367"><ele>1390.5</ele><time>2026-04-19T11:10:48.902Z</time></trkpt><trkpt lat="44.31933" lon="10.3960183"><ele>1388.0</ele><time>2026-04-19T11:10:49.898Z</time></trkpt><trkpt lat="44.3191433" lon="10.3957283"><ele>1388.0</ele><time>2026-04-19T11:10:51.635Z</time></trkpt><trkpt lat="44.3191083" lon="10.395515"><ele>1388.0</ele><time>2026-04-19T11:10:53.898Z</time></trkpt><trkpt lat="44.319125" lon="10.3953917"><ele>1388.0</ele><time>2026-04-19T11:10:54.897Z</time></trkpt><trkpt lat="44.3191467" lon="10.395255"><ele>1388.0</ele><time>2026-04-19T11:10:55.9Z</time></trkpt><trkpt lat="44.3191667" lon="10.3951283"><ele>1388.0</ele><time>2026-04-19T11:10:56.897Z</time></trkpt><trkpt lat="44.3191817" lon="10.3950033"><ele>1385.3333333333335</ele><time>2026-04-19T11:10:57.899Z</time></trkpt><trkpt lat="44.319175" lon="10.3948933"><ele>1382.6666666666667</ele><time>2026-04-19T11:10:58.898Z</time></trkpt><trkpt lat="44.31916" lon="10.3947867"><ele>1380.0</ele><time>2026-04-19T11:10:59.898Z</time></trkpt><trkpt lat="44.3191617" lon="10.3946733"><ele>1377.3333333333333</ele><time>2026-04-19T11:11:01.641Z</time></trkpt><trkpt lat="44.31913" lon="10.39452"><ele>1374.6666666666665</ele><time>2026-04-19T11:11:03.897Z</time></trkpt><trkpt lat="44.3192017" lon="10.394445"><ele>1372.0</ele><time>2026-04-19T11:11:05.896Z</time></trkpt><trkpt lat="44.31927" lon="10.3944933"><ele>1372.0</ele><time>2026-04-19T11:11:07.899Z</time></trkpt><trkpt lat="44.3193433" lon="10.3945967"><ele>1372.0</ele><time>2026-04-19T11:11:09.902Z</time></trkpt><trkpt lat="44.3193967" lon="10.394655"><ele>1372.0</ele><time>2026-04-19T11:11:12.897Z</time></trkpt><trkpt lat="44.31949" lon="10.3946767"><ele>1372.0</ele><time>2026-04-19T11:11:13.898Z</time></trkpt><trkpt lat="44.31958" lon="10.3946917"><ele>1372.0</ele><time>2026-04-19T11:11:14.897Z</time></trkpt><trkpt lat="44.3196667" lon="10.3947083"><ele>1372.0</ele><time>2026-04-19T11:11:15.897Z</time></trkpt><trkpt lat="44.319755" lon="10.3947083"><ele>1367.6666666666665</ele><time>2026-04-19T11:11:16.897Z</time></trkpt><trkpt lat="44.3198967" lon="10.39472"><ele>1363.3333333333333</ele><time>2026-04-19T11:11:17.895Z</time></trkpt><trkpt lat="44.32012" lon="10.3947033"><ele>1359.0</ele><time>2026-04-19T11:11:18.914Z</time></trkpt><trkpt lat="44.3203433" lon="10.394695"><ele>1359.0</ele><time>2026-04-19T11:11:20.397Z</time></trkpt><trkpt lat="44.3205017" lon="10.394805"><ele>1359.0</ele><time>2026-04-19T11:11:21.896Z</time></trkpt><trkpt lat="44.3205767" lon="10.394845"><ele>1359.0</ele><time>2026-04-19T11:11:22.896Z</time></trkpt><trkpt lat="44.32065" lon="10.3948883"><ele>1359.0</ele><time>2026-04-19T11:11:23.896Z</time></trkpt><trkpt lat="44.3207133" lon="10.394935"><ele>1359.0</ele><time>2026-04-19T11:11:24.897Z</time></trkpt><trkpt lat="44.32081" lon="10.3950367"><ele>1355.75</ele><time>2026-04-19T11:11:26.896Z</time></trkpt><trkpt lat="44.32086" lon="10.3951833"><ele>1352.5</ele><time>2026-04-19T11:11:28.898Z</time></trkpt><trkpt lat="44.3208783" lon="10.39527"><ele>1349.25</ele><time>2026-04-19T11:11:29.896Z</time></trkpt><trkpt lat="44.3208783" lon="10.3955817"><ele>1346.0</ele><time>2026-04-19T11:11:31.27Z</time></trkpt><trkpt lat="44.3207817" lon="10.395855"><ele>1346.0</ele><time>2026-04-19T11:11:32.269Z</time></trkpt><trkpt lat="44.3207867" lon="10.3960367"><ele>1346.0</ele><time>2026-04-19T11:11:33.897Z</time></trkpt><trkpt lat="44.320785" lon="10.3961767"><ele>1346.0</ele><time>2026-04-19T11:11:34.896Z</time></trkpt><trkpt lat="44.3207883" lon="10.396345"><ele>1346.0</ele><time>2026-04-19T11:11:35.897Z</time></trkpt><trkpt lat="44.3209167" lon="10.3968833"><ele>1347.3333333333335</ele><time>2026-04-19T11:11:39.398Z</time></trkpt><trkpt lat="44.3210183" lon="10.39705"><ele>1348.6666666666667</ele><time>2026-04-19T11:11:40.896Z</time></trkpt><trkpt lat="44.3212867" lon="10.3970867"><ele>1350.0</ele><time>2026-04-19T11:11:42.654Z</time></trkpt><trkpt lat="44.3214767" lon="10.397185"><ele>1347.5</ele><time>2026-04-19T11:11:44.896Z</time></trkpt><trkpt lat="44.321605" lon="10.3971967"><ele>1345.0</ele><time>2026-04-19T11:11:46.896Z</time></trkpt><trkpt lat="44.3216867" lon="10.3971933"><ele>1342.5</ele><time>2026-04-19T11:11:47.897Z</time></trkpt><trkpt lat="44.321835" lon="10.397255"><ele>1340.0</ele><time>2026-04-19T11:11:49.495Z</time></trkpt><trkpt lat="44.3219517" lon="10.3971083"><ele>1335.75</ele><time>2026-04-19T11:11:50.405Z</time></trkpt><trkpt lat="44.322115" lon="10.3970383"><ele>1331.5</ele><time>2026-04-19T11:11:51.896Z</time></trkpt><trkpt lat="44.3222217" lon="10.3969983"><ele>1327.25</ele><time>2026-04-19T11:11:52.896Z</time></trkpt><trkpt lat="44.32236" lon="10.3969467"><ele>1323.0</ele><time>2026-04-19T11:11:53.896Z</time></trkpt><trkpt lat="44.3230733" lon="10.3967467"><ele>1320.75</ele><time>2026-04-19T11:11:55.633Z</time></trkpt><trkpt lat="44.323165" lon="10.3967317"><ele>1318.5</ele><time>2026-04-19T11:11:57.897Z</time></trkpt><trkpt lat="44.3232783" lon="10.3967033"><ele>1316.25</ele><time>2026-04-19T11:11:58.896Z</time></trkpt><trkpt lat="44.3233617" lon="10.3966267"><ele>1314.0</ele><time>2026-04-19T11:12:00.466Z</time></trkpt><trkpt lat="44.3235167" lon="10.3965733"><ele>1314.0</ele><time>2026-04-19T11:12:01.896Z</time></trkpt><trkpt lat="44.3236267" lon="10.3965683"><ele>1314.0</ele><time>2026-04-19T11:12:02.897Z</time></trkpt><trkpt lat="44.32374" lon="10.3965433"><ele>1314.0</ele><time>2026-04-19T11:12:03.897Z</time></trkpt><trkpt lat="44.32386" lon="10.39647"><ele>1314.0</ele><time>2026-04-19T11:12:04.896Z</time></trkpt><trkpt lat="44.323955" lon="10.3964133"><ele>1312.0</ele><time>2026-04-19T11:12:05.896Z</time></trkpt><trkpt lat="44.3240183" lon="10.3963983"><ele>1310.0</ele><time>2026-04-19T11:12:06.965Z</time></trkpt><trkpt lat="44.3242" lon="10.3962367"><ele>1308.0</ele><time>2026-04-19T11:12:08.397Z</time></trkpt><trkpt lat="44.3243433" lon="10.3961"><ele>1304.5</ele><time>2026-04-19T11:12:09.896Z</time></trkpt><trkpt lat="44.324435" lon="10.396025"><ele>1301.0</ele><time>2026-04-19T11:12:10.896Z</time></trkpt><trkpt lat="44.32478" lon="10.39596"><ele>1298.6</ele><time>2026-04-19T11:12:12.318Z</time></trkpt><trkpt lat="44.3248117" lon="10.3958833"><ele>1296.1999999999998</ele><time>2026-04-19T11:12:13.398Z</time></trkpt><trkpt lat="44.3248183" lon="10.3957717"><ele>1293.8000000000002</ele><time>2026-04-19T11:12:16.397Z</time></trkpt><trkpt lat="44.3248033" lon="10.395575"><ele>1291.4</ele><time>2026-04-19T11:12:17.897Z</time></trkpt><trkpt lat="44.3248017" lon="10.3954333"><ele>1289.0</ele><time>2026-04-19T11:12:18.897Z</time></trkpt><trkpt lat="44.3247883" lon="10.3953067"><ele>1287.0</ele><time>2026-04-19T11:12:19.898Z</time></trkpt><trkpt lat="44.3247683" lon="10.39517"><ele>1285.0</ele><time>2026-04-19T11:12:20.897Z</time></trkpt><trkpt lat="44.32474" lon="10.3950417"><ele>1283.0</ele><time>2026-04-19T11:12:21.896Z</time></trkpt><trkpt lat="44.3247683" lon="10.394675"><ele>1285.3333333333335</ele><time>2026-04-19T11:12:23.406Z</time></trkpt><trkpt lat="44.3245567" lon="10.394535"><ele>1287.6666666666667</ele><time>2026-04-19T11:12:24.895Z</time></trkpt><trkpt lat="44.3244283" lon="10.3944367"><ele>1290.0</ele><time>2026-04-19T11:12:25.896Z</time></trkpt><trkpt lat="44.3243167" lon="10.39435"><ele>1290.0</ele><time>2026-04-19T11:12:26.895Z</time></trkpt><trkpt lat="44.3242333" lon="10.3942683"><ele>1290.0</ele><time>2026-04-19T11:12:27.896Z</time></trkpt><trkpt lat="44.3241667" lon="10.394185"><ele>1290.0</ele><time>2026-04-19T11:12:28.897Z</time></trkpt><trkpt lat="44.32412" lon="10.3940917"><ele>1290.0</ele><time>2026-04-19T11:12:29.896Z</time></trkpt><trkpt lat="44.3241" lon="10.39399"><ele>1290.0</ele><time>2026-04-19T11:12:30.897Z</time></trkpt><trkpt lat="44.324095" lon="10.3938917"><ele>1290.0</ele><time>2026-04-19T11:12:31.898Z</time></trkpt><trkpt lat="44.324105" lon="10.3937267"><ele>1288.0</ele><time>2026-04-19T11:12:33.897Z</time></trkpt><trkpt lat="44.324125" lon="10.3935567"><ele>1286.0</ele><time>2026-04-19T11:12:35.896Z</time></trkpt><trkpt lat="44.3241483" lon="10.39338"><ele>1284.0</ele><time>2026-04-19T11:12:37.898Z</time></trkpt><trkpt lat="44.3241817" lon="10.393265"><ele>1282.0</ele><time>2026-04-19T11:12:38.895Z</time></trkpt><trkpt lat="44.3242033" lon="10.393145"><ele>1280.0</ele><time>2026-04-19T11:12:39.896Z</time></trkpt><trkpt lat="44.3242133" lon="10.393035"><ele>1279.0</ele><time>2026-04-19T11:12:40.897Z</time></trkpt><trkpt lat="44.324225" lon="10.39292"><ele>1278.0</ele><time>2026-04-19T11:12:41.896Z</time></trkpt><trkpt lat="44.324245" lon="10.3927933"><ele>1277.0</ele><time>2026-04-19T11:12:42.907Z</time></trkpt><trkpt lat="44.3242783" lon="10.3926533"><ele>1276.0</ele><time>2026-04-19T11:12:43.912Z</time></trkpt><trkpt lat="44.324305" lon="10.39251"><ele>1275.0</ele><time>2026-04-19T11:12:44.91Z</time></trkpt><trkpt lat="44.324325" lon="10.3923717"><ele>1275.0</ele><time>2026-04-19T11:12:45.911Z</time></trkpt><trkpt lat="44.324335" lon="10.3922483"><ele>1275.0</ele><time>2026-04-19T11:12:46.903Z</time></trkpt><trkpt lat="44.32434" lon="10.3921283"><ele>1275.0</ele><time>2026-04-19T11:12:47.896Z</time></trkpt><trkpt lat="44.32433" lon="10.3920183"><ele>1275.0</ele><time>2026-04-19T11:12:48.897Z</time></trkpt><trkpt lat="44.3242883" lon="10.391915"><ele>1275.0</ele><time>2026-04-19T11:12:49.896Z</time></trkpt><trkpt lat="44.324235" lon="10.3918167"><ele>1275.0</ele><time>2026-04-19T11:12:50.9Z</time></trkpt><trkpt lat="44.3241767" lon="10.3917167"><ele>1274.0</ele><time>2026-04-19T11:12:51.897Z</time></trkpt><trkpt lat="44.3241217" lon="10.3916133"><ele>1273.0</ele><time>2026-04-19T11:12:52.899Z</time></trkpt><trkpt lat="44.3240667" lon="10.3915067"><ele>1272.0</ele><time>2026-04-19T11:12:53.896Z</time></trkpt><trkpt lat="44.32384" lon="10.391225"><ele>1269.8</ele><time>2026-04-19T11:12:55.555Z</time></trkpt><trkpt lat="44.324015" lon="10.39113"><ele>1267.6</ele><time>2026-04-19T11:12:56.897Z</time></trkpt><trkpt lat="44.323995" lon="10.3910417"><ele>1265.3999999999999</ele><time>2026-04-19T11:12:57.896Z</time></trkpt><trkpt lat="44.3239933" lon="10.3909317"><ele>1263.2</ele><time>2026-04-19T11:12:58.897Z</time></trkpt><trkpt lat="44.323995" lon="10.3908333"><ele>1261.0</ele><time>2026-04-19T11:12:59.899Z</time></trkpt><trkpt lat="44.32401" lon="10.390735"><ele>1261.0</ele><time>2026-04-19T11:13:00.899Z</time></trkpt><trkpt lat="44.324035" lon="10.3906433"><ele>1261.0</ele><time>2026-04-19T11:13:01.898Z</time></trkpt><trkpt lat="44.3240733" lon="10.3905617"><ele>1261.0</ele><time>2026-04-19T11:13:02.896Z</time></trkpt><trkpt lat="44.32413" lon="10.3904783"><ele>1261.0</ele><time>2026-04-19T11:13:03.897Z</time></trkpt><trkpt lat="44.3242017" lon="10.3904117"><ele>1261.0</ele><time>2026-04-19T11:13:04.898Z</time></trkpt><trkpt lat="44.3242767" lon="10.39036"><ele>1261.0</ele><time>2026-04-19T11:13:05.897Z</time></trkpt><trkpt lat="44.32435" lon="10.3903233"><ele>1259.8333333333333</ele><time>2026-04-19T11:13:06.897Z</time></trkpt><trkpt lat="44.3244183" lon="10.390295"><ele>1258.6666666666665</ele><time>2026-04-19T11:13:07.898Z</time></trkpt><trkpt lat="44.32449" lon="10.3903067"><ele>1257.5</ele><time>2026-04-19T11:13:08.965Z</time></trkpt><trkpt lat="44.3246467" lon="10.3902633"><ele>1256.3333333333333</ele><time>2026-04-19T11:13:10.398Z</time></trkpt><trkpt lat="44.3247167" lon="10.3902417"><ele>1255.1666666666667</ele><time>2026-04-19T11:13:11.896Z</time></trkpt><trkpt lat="44.3247833" lon="10.3902333"><ele>1254.0</ele><time>2026-04-19T11:13:13.903Z</time></trkpt><trkpt lat="44.3248217" lon="10.390325"><ele>1253.5714285714287</ele><time>2026-04-19T11:13:17.897Z</time></trkpt><trkpt lat="44.324825" lon="10.39042"><ele>1253.142857142857</ele><time>2026-04-19T11:13:20.897Z</time></trkpt><trkpt lat="44.3249067" lon="10.390435"><ele>1252.7142857142858</ele><time>2026-04-19T11:14:17.897Z</time></trkpt><trkpt lat="44.3248633" lon="10.3903683"><ele>1252.2857142857142</ele><time>2026-04-19T11:21:11.91Z</time></trkpt><trkpt lat="44.3248767" lon="10.39028"><ele>1251.857142857143</ele><time>2026-04-19T11:21:19.943Z</time></trkpt><trkpt lat="44.3249333" lon="10.3902233"><ele>1251.4285714285713</ele><time>2026-04-19T11:21:22.932Z</time></trkpt><trkpt lat="44.3250033" lon="10.3901883"><ele>1251.0</ele><time>2026-04-19T11:21:24.948Z</time></trkpt><trkpt lat="44.3251033" lon="10.3901517"><ele>1251.0</ele><time>2026-04-19T11:21:26.911Z</time></trkpt><trkpt lat="44.3251667" lon="10.390125"><ele>1251.0</ele><time>2026-04-19T11:21:27.939Z</time></trkpt><trkpt lat="44.3252467" lon="10.3901"><ele>1251.0</ele><time>2026-04-19T11:21:28.927Z</time></trkpt><trkpt lat="44.3253733" lon="10.3900533"><ele>1251.0</ele><time>2026-04-19T11:21:29.919Z</time></trkpt><trkpt lat="44.3254833" lon="10.3900233"><ele>1251.0</ele><time>2026-04-19T11:21:30.905Z</time></trkpt><trkpt lat="44.3255867" lon="10.390005"><ele>1248.25</ele><time>2026-04-19T11:21:31.896Z</time></trkpt><trkpt lat="44.3257033" lon="10.3899867"><ele>1245.5</ele><time>2026-04-19T11:21:32.897Z</time></trkpt><trkpt lat="44.32582" lon="10.389955"><ele>1242.75</ele><time>2026-04-19T11:21:33.896Z</time></trkpt><trkpt lat="44.32594" lon="10.3899133"><ele>1240.0</ele><time>2026-04-19T11:21:34.899Z</time></trkpt><trkpt lat="44.326065" lon="10.3898667"><ele>1240.0</ele><time>2026-04-19T11:21:35.896Z</time></trkpt><trkpt lat="44.326185" lon="10.3898133"><ele>1240.0</ele><time>2026-04-19T11:21:36.897Z</time></trkpt><trkpt lat="44.3262967" lon="10.3897817"><ele>1240.0</ele><time>2026-04-19T11:21:37.897Z</time></trkpt><trkpt lat="44.32641" lon="10.3897517"><ele>1240.0</ele><time>2026-04-19T11:21:38.897Z</time></trkpt><trkpt lat="44.3265117" lon="10.3897267"><ele>1239.0</ele><time>2026-04-19T11:21:39.897Z</time></trkpt><trkpt lat="44.3266033" lon="10.3896967"><ele>1238.0</ele><time>2026-04-19T11:21:40.896Z</time></trkpt><trkpt lat="44.3266967" lon="10.3896533"><ele>1237.0</ele><time>2026-04-19T11:21:41.898Z</time></trkpt><trkpt lat="44.3267733" lon="10.3895933"><ele>1236.0</ele><time>2026-04-19T11:21:42.898Z</time></trkpt><trkpt lat="44.3268333" lon="10.389535"><ele>1235.0</ele><time>2026-04-19T11:21:43.9Z</time></trkpt><trkpt lat="44.326875" lon="10.3894583"><ele>1234.0</ele><time>2026-04-19T11:21:44.9Z</time></trkpt><trkpt lat="44.3269033" lon="10.3893683"><ele>1234.0</ele><time>2026-04-19T11:21:45.9Z</time></trkpt><trkpt lat="44.3269233" lon="10.38927"><ele>1234.0</ele><time>2026-04-19T11:21:46.913Z</time></trkpt><trkpt lat="44.32692" lon="10.389165"><ele>1234.0</ele><time>2026-04-19T11:21:47.91Z</time></trkpt><trkpt lat="44.3269033" lon="10.3890517"><ele>1234.0</ele><time>2026-04-19T11:21:48.906Z</time></trkpt><trkpt lat="44.326895" lon="10.3889183"><ele>1234.0</ele><time>2026-04-19T11:21:49.909Z</time></trkpt><trkpt lat="44.3268917" lon="10.3887967"><ele>1234.0</ele><time>2026-04-19T11:21:50.963Z</time></trkpt><trkpt lat="44.3268883" lon="10.3886633"><ele>1232.8333333333333</ele><time>2026-04-19T11:21:51.955Z</time></trkpt><trkpt lat="44.3268883" lon="10.3885367"><ele>1231.6666666666665</ele><time>2026-04-19T11:21:52.971Z</time></trkpt><trkpt lat="44.3268917" lon="10.3884183"><ele>1230.5</ele><time>2026-04-19T11:21:53.936Z</time></trkpt><trkpt lat="44.32691" lon="10.3883017"><ele>1229.3333333333333</ele><time>2026-04-19T11:21:54.946Z</time></trkpt><trkpt lat="44.3269283" lon="10.388185"><ele>1228.1666666666667</ele><time>2026-04-19T11:21:55.919Z</time></trkpt><trkpt lat="44.3269483" lon="10.3880717"><ele>1227.0</ele><time>2026-04-19T11:21:56.913Z</time></trkpt><trkpt lat="44.3269767" lon="10.3879617"><ele>1224.3333333333333</ele><time>2026-04-19T11:21:57.952Z</time></trkpt><trkpt lat="44.3270183" lon="10.38786"><ele>1221.6666666666667</ele><time>2026-04-19T11:21:58.947Z</time></trkpt><trkpt lat="44.3270683" lon="10.3877717"><ele>1219.0</ele><time>2026-04-19T11:21:59.935Z</time></trkpt><trkpt lat="44.3271317" lon="10.387695"><ele>1216.3333333333335</ele><time>2026-04-19T11:22:00.921Z</time></trkpt><trkpt lat="44.3272067" lon="10.3876233"><ele>1213.6666666666667</ele><time>2026-04-19T11:22:01.916Z</time></trkpt><trkpt lat="44.327285" lon="10.3875683"><ele>1211.0</ele><time>2026-04-19T11:22:02.923Z</time></trkpt><trkpt lat="44.3273617" lon="10.38751"><ele>1211.0</ele><time>2026-04-19T11:22:03.911Z</time></trkpt><trkpt lat="44.327425" lon="10.3874467"><ele>1211.0</ele><time>2026-04-19T11:22:04.994Z</time></trkpt><trkpt lat="44.3274883" lon="10.3873783"><ele>1211.0</ele><time>2026-04-19T11:22:05.936Z</time></trkpt><trkpt lat="44.32754" lon="10.3873117"><ele>1211.0</ele><time>2026-04-19T11:22:06.909Z</time></trkpt><trkpt lat="44.3275883" lon="10.3872533"><ele>1211.0</ele><time>2026-04-19T11:22:07.923Z</time></trkpt><trkpt lat="44.3275883" lon="10.3871283"><ele>1211.0</ele><time>2026-04-19T11:22:09.947Z</time></trkpt><trkpt lat="44.327455" lon="10.3870583"><ele>1208.3999999999999</ele><time>2026-04-19T11:22:11.911Z</time></trkpt><trkpt lat="44.3273583" lon="10.3870367"><ele>1205.8</ele><time>2026-04-19T11:22:12.91Z</time></trkpt><trkpt lat="44.32726" lon="10.3870067"><ele>1203.1999999999998</ele><time>2026-04-19T11:22:13.924Z</time></trkpt><trkpt lat="44.327165" lon="10.3869733"><ele>1200.6</ele><time>2026-04-19T11:22:14.91Z</time></trkpt><trkpt lat="44.3270683" lon="10.386935"><ele>1198.0</ele><time>2026-04-19T11:22:15.91Z</time></trkpt><trkpt lat="44.3269717" lon="10.3868983"><ele>1197.5</ele><time>2026-04-19T11:22:16.911Z</time></trkpt><trkpt lat="44.3268767" lon="10.3868767"><ele>1197.0</ele><time>2026-04-19T11:22:17.966Z</time></trkpt><trkpt lat="44.3267867" lon="10.3868617"><ele>1196.5</ele><time>2026-04-19T11:22:18.952Z</time></trkpt><trkpt lat="44.3267133" lon="10.3868383"><ele>1196.0</ele><time>2026-04-19T11:22:19.91Z</time></trkpt><trkpt lat="44.326655" lon="10.3868"><ele>1195.5</ele><time>2026-04-19T11:22:20.911Z</time></trkpt><trkpt lat="44.3266067" lon="10.3866667"><ele>1195.0</ele><time>2026-04-19T11:22:22.913Z</time></trkpt><trkpt lat="44.326695" lon="10.3865367"><ele>1195.0</ele><time>2026-04-19T11:22:24.918Z</time></trkpt><trkpt lat="44.3267917" lon="10.3864933"><ele>1195.0</ele><time>2026-04-19T11:22:25.915Z</time></trkpt><trkpt lat="44.3269067" lon="10.3864583"><ele>1195.0</ele><time>2026-04-19T11:22:26.908Z</time></trkpt><trkpt lat="44.3270117" lon="10.3864117"><ele>1195.0</ele><time>2026-04-19T11:22:27.972Z</time></trkpt><trkpt lat="44.3271033" lon="10.3863383"><ele>1195.0</ele><time>2026-04-19T11:22:28.913Z</time></trkpt><trkpt lat="44.3271967" lon="10.3862433"><ele>1190.75</ele><time>2026-04-19T11:22:29.936Z</time></trkpt><trkpt lat="44.327295" lon="10.3861567"><ele>1186.5</ele><time>2026-04-19T11:22:30.91Z</time></trkpt><trkpt lat="44.3274" lon="10.3861117"><ele>1182.25</ele><time>2026-04-19T11:22:31.925Z</time></trkpt><trkpt lat="44.3275083" lon="10.3861083"><ele>1178.0</ele><time>2026-04-19T11:22:32.915Z</time></trkpt><trkpt lat="44.327625" lon="10.3861233"><ele>1178.0</ele><time>2026-04-19T11:22:33.927Z</time></trkpt><trkpt lat="44.32775" lon="10.3861217"><ele>1178.0</ele><time>2026-04-19T11:22:34.914Z</time></trkpt><trkpt lat="44.3278767" lon="10.3860867"><ele>1178.0</ele><time>2026-04-19T11:22:35.931Z</time></trkpt><trkpt lat="44.3279917" lon="10.3860117"><ele>1178.0</ele><time>2026-04-19T11:22:36.91Z</time></trkpt><trkpt lat="44.3281083" lon="10.38591"><ele>1177.75</ele><time>2026-04-19T11:22:37.914Z</time></trkpt><trkpt lat="44.3282233" lon="10.3857967"><ele>1177.5</ele><time>2026-04-19T11:22:38.922Z</time></trkpt><trkpt lat="44.328335" lon="10.3856833"><ele>1177.25</ele><time>2026-04-19T11:22:39.936Z</time></trkpt><trkpt lat="44.3284433" lon="10.3855633"><ele>1177.0</ele><time>2026-04-19T11:22:40.904Z</time></trkpt><trkpt lat="44.328545" lon="10.38545"><ele>1173.25</ele><time>2026-04-19T11:22:41.926Z</time></trkpt><trkpt lat="44.32865" lon="10.38535"><ele>1169.5</ele><time>2026-04-19T11:22:42.922Z</time></trkpt><trkpt lat="44.3287517" lon="10.3852667"><ele>1165.75</ele><time>2026-04-19T11:22:43.913Z</time></trkpt><trkpt lat="44.3288483" lon="10.3852"><ele>1162.0</ele><time>2026-04-19T11:22:44.928Z</time></trkpt><trkpt lat="44.3289467" lon="10.3851617"><ele>1162.0</ele><time>2026-04-19T11:22:45.93Z</time></trkpt><trkpt lat="44.32905" lon="10.3851667"><ele>1162.0</ele><time>2026-04-19T11:22:46.913Z</time></trkpt><trkpt lat="44.3291567" lon="10.3851967"><ele>1162.0</ele><time>2026-04-19T11:22:47.939Z</time></trkpt><trkpt lat="44.3292633" lon="10.3852283"><ele>1162.0</ele><time>2026-04-19T11:22:48.917Z</time></trkpt><trkpt lat="44.32936" lon="10.3852583"><ele>1162.0</ele><time>2026-04-19T11:22:49.938Z</time></trkpt><trkpt lat="44.3294367" lon="10.38528"><ele>1162.0</ele><time>2026-04-19T11:22:50.952Z</time></trkpt><trkpt lat="44.3295517" lon="10.3853167"><ele>1162.0</ele><time>2026-04-19T11:22:52.947Z</time></trkpt><trkpt lat="44.3296367" lon="10.3853517"><ele>1162.0</ele><time>2026-04-19T11:22:54.932Z</time></trkpt><trkpt lat="44.3297" lon="10.3853967"><ele>1162.0</ele><time>2026-04-19T11:23:17.928Z</time></trkpt><trkpt lat="44.3296933" lon="10.3855"><ele>1162.0</ele><time>2026-04-19T11:23:19.943Z</time></trkpt><trkpt lat="44.3297217" lon="10.385625"><ele>1162.0</ele><time>2026-04-19T11:23:21.911Z</time></trkpt><trkpt lat="44.3297567" lon="10.3857017"><ele>1161.8333333333333</ele><time>2026-04-19T11:23:22.926Z</time></trkpt><trkpt lat="44.3297917" lon="10.3857917"><ele>1161.6666666666665</ele><time>2026-04-19T11:23:23.911Z</time></trkpt><trkpt lat="44.329825" lon="10.38588"><ele>1161.5</ele><time>2026-04-19T11:23:24.954Z</time></trkpt><trkpt lat="44.3298567" lon="10.3859817"><ele>1161.3333333333333</ele><time>2026-04-19T11:23:25.912Z</time></trkpt><trkpt lat="44.32989" lon="10.3860967"><ele>1161.1666666666667</ele><time>2026-04-19T11:23:26.919Z</time></trkpt><trkpt lat="44.3299217" lon="10.3862033"><ele>1161.0</ele><time>2026-04-19T11:23:27.926Z</time></trkpt><trkpt lat="44.3299467" lon="10.3863033"><ele>1162.3999999999999</ele><time>2026-04-19T11:23:28.92Z</time></trkpt><trkpt lat="44.32996" lon="10.3864017"><ele>1163.8</ele><time>2026-04-19T11:23:29.96Z</time></trkpt><trkpt lat="44.3299583" lon="10.3865117"><ele>1165.1999999999998</ele><time>2026-04-19T11:23:30.91Z</time></trkpt><trkpt lat="44.3299417" lon="10.386645"><ele>1166.6</ele><time>2026-04-19T11:23:31.92Z</time></trkpt><trkpt lat="44.3299283" lon="10.3867917"><ele>1168.0</ele><time>2026-04-19T11:23:32.918Z</time></trkpt><trkpt lat="44.3299317" lon="10.3869383"><ele>1168.0</ele><time>2026-04-19T11:23:33.916Z</time></trkpt><trkpt lat="44.3299417" lon="10.3870717"><ele>1168.0</ele><time>2026-04-19T11:23:34.918Z</time></trkpt><trkpt lat="44.32996" lon="10.38718"><ele>1168.0</ele><time>2026-04-19T11:23:35.955Z</time></trkpt><trkpt lat="44.3299983" lon="10.3872683"><ele>1168.0</ele><time>2026-04-19T11:23:36.919Z</time></trkpt><trkpt lat="44.3300467" lon="10.387335"><ele>1168.0</ele><time>2026-04-19T11:23:37.91Z</time></trkpt><trkpt lat="44.3301183" lon="10.3874"><ele>1168.0</ele><time>2026-04-19T11:23:38.991Z</time></trkpt><trkpt lat="44.3301917" lon="10.387455"><ele>1169.3333333333333</ele><time>2026-04-19T11:23:39.928Z</time></trkpt><trkpt lat="44.3302617" lon="10.3875117"><ele>1170.6666666666665</ele><time>2026-04-19T11:23:40.915Z</time></trkpt><trkpt lat="44.3303167" lon="10.3875733"><ele>1172.0</ele><time>2026-04-19T11:23:41.92Z</time></trkpt><trkpt lat="44.3304267" lon="10.387665"><ele>1173.3333333333333</ele><time>2026-04-19T11:23:43.953Z</time></trkpt><trkpt lat="44.3304933" lon="10.3877117"><ele>1174.6666666666667</ele><time>2026-04-19T11:23:44.928Z</time></trkpt><trkpt lat="44.3305783" lon="10.3877533"><ele>1176.0</ele><time>2026-04-19T11:23:45.916Z</time></trkpt><trkpt lat="44.3306767" lon="10.38779"><ele>1172.8</ele><time>2026-04-19T11:23:46.912Z</time></trkpt><trkpt lat="44.3307783" lon="10.38784"><ele>1169.6</ele><time>2026-04-19T11:23:47.911Z</time></trkpt><trkpt lat="44.3308833" lon="10.387885"><ele>1166.4</ele><time>2026-04-19T11:23:48.947Z</time></trkpt><trkpt lat="44.33098" lon="10.3879233"><ele>1163.2</ele><time>2026-04-19T11:23:49.929Z</time></trkpt><trkpt lat="44.3310683" lon="10.3879617"><ele>1160.0</ele><time>2026-04-19T11:23:50.915Z</time></trkpt><trkpt lat="44.3311483" lon="10.3880033"><ele>1162.3333333333335</ele><time>2026-04-19T11:23:51.918Z</time></trkpt><trkpt lat="44.3312167" lon="10.3880533"><ele>1164.6666666666667</ele><time>2026-04-19T11:23:52.933Z</time></trkpt><trkpt lat="44.3312667" lon="10.3881167"><ele>1167.0</ele><time>2026-04-19T11:23:53.91Z</time></trkpt><trkpt lat="44.33129" lon="10.3882733"><ele>1169.3333333333333</ele><time>2026-04-19T11:23:55.91Z</time></trkpt><trkpt lat="44.3312783" lon="10.3883667"><ele>1171.6666666666665</ele><time>2026-04-19T11:23:56.911Z</time></trkpt><trkpt lat="44.33127" lon="10.388455"><ele>1174.0</ele><time>2026-04-19T11:23:57.917Z</time></trkpt><trkpt lat="44.331275" lon="10.3885483"><ele>1174.0</ele><time>2026-04-19T11:23:58.913Z</time></trkpt><trkpt lat="44.3312783" lon="10.3886433"><ele>1174.0</ele><time>2026-04-19T11:23:59.918Z</time></trkpt><trkpt lat="44.3312817" lon="10.3887333"><ele>1174.0</ele><time>2026-04-19T11:24:00.908Z</time></trkpt><trkpt lat="44.33128" lon="10.388895"><ele>1174.0</ele><time>2026-04-19T11:24:02.936Z</time></trkpt><trkpt lat="44.3313117" lon="10.3890233"><ele>1174.0</ele><time>2026-04-19T11:24:04.938Z</time></trkpt><trkpt lat="44.3313433" lon="10.389165"><ele>1174.4</ele><time>2026-04-19T11:24:06.917Z</time></trkpt><trkpt lat="44.3313467" lon="10.3893117"><ele>1174.8000000000002</ele><time>2026-04-19T11:24:08.919Z</time></trkpt><trkpt lat="44.331325" lon="10.3894533"><ele>1175.1999999999998</ele><time>2026-04-19T11:24:10.934Z</time></trkpt><trkpt lat="44.331275" lon="10.3895883"><ele>1175.6</ele><time>2026-04-19T11:24:12.945Z</time></trkpt><trkpt lat="44.33124" lon="10.3896633"><ele>1176.0</ele><time>2026-04-19T11:24:13.934Z</time></trkpt><trkpt lat="44.3312017" lon="10.3897433"><ele>1176.0</ele><time>2026-04-19T11:24:14.91Z</time></trkpt><trkpt lat="44.3311783" lon="10.3898383"><ele>1176.0</ele><time>2026-04-19T11:24:15.936Z</time></trkpt><trkpt lat="44.331165" lon="10.3899417"><ele>1176.0</ele><time>2026-04-19T11:24:16.912Z</time></trkpt><trkpt lat="44.3311567" lon="10.3900533"><ele>1176.0</ele><time>2026-04-19T11:24:17.948Z</time></trkpt><trkpt lat="44.3311517" lon="10.3901783"><ele>1176.0</ele><time>2026-04-19T11:24:18.95Z</time></trkpt><trkpt lat="44.33115" lon="10.3903"><ele>1176.0</ele><time>2026-04-19T11:24:19.943Z</time></trkpt><trkpt lat="44.331135" lon="10.3904217"><ele>1175.0</ele><time>2026-04-19T11:24:20.91Z</time></trkpt><trkpt lat="44.3311133" lon="10.390525"><ele>1174.0</ele><time>2026-04-19T11:24:21.937Z</time></trkpt><trkpt lat="44.3310867" lon="10.390615"><ele>1173.0</ele><time>2026-04-19T11:24:22.952Z</time></trkpt><trkpt lat="44.331055" lon="10.390705"><ele>1172.0</ele><time>2026-04-19T11:24:23.944Z</time></trkpt><trkpt lat="44.3310167" lon="10.3907917"><ele>1171.0</ele><time>2026-04-19T11:24:24.909Z</time></trkpt><trkpt lat="44.3309783" lon="10.3908833"><ele>1170.0</ele><time>2026-04-19T11:24:25.908Z</time></trkpt><trkpt lat="44.3309133" lon="10.39099"><ele>1170.0</ele><time>2026-04-19T11:24:26.912Z</time></trkpt><trkpt lat="44.3308417" lon="10.391095"><ele>1170.0</ele><time>2026-04-19T11:24:27.947Z</time></trkpt><trkpt lat="44.3307717" lon="10.3911883"><ele>1170.0</ele><time>2026-04-19T11:24:28.921Z</time></trkpt><trkpt lat="44.330695" lon="10.3912767"><ele>1170.0</ele><time>2026-04-19T11:24:29.908Z</time></trkpt><trkpt lat="44.3306083" lon="10.3913533"><ele>1170.0</ele><time>2026-04-19T11:24:30.934Z</time></trkpt><trkpt lat="44.33053" lon="10.3914217"><ele>1169.8</ele><time>2026-04-19T11:24:31.906Z</time></trkpt><trkpt lat="44.3304383" lon="10.3914933"><ele>1169.6</ele><time>2026-04-19T11:24:32.917Z</time></trkpt><trkpt lat="44.3303517" lon="10.3915683"><ele>1169.4</ele><time>2026-04-19T11:24:33.913Z</time></trkpt><trkpt lat="44.3302567" lon="10.39164"><ele>1169.2</ele><time>2026-04-19T11:24:34.92Z</time></trkpt><trkpt lat="44.3301833" lon="10.3917267"><ele>1169.0</ele><time>2026-04-19T11:24:35.911Z</time></trkpt><trkpt lat="44.3301067" lon="10.39182"><ele>1169.0</ele><time>2026-04-19T11:24:36.917Z</time></trkpt><trkpt lat="44.33004" lon="10.3919283"><ele>1169.0</ele><time>2026-04-19T11:24:37.91Z</time></trkpt><trkpt lat="44.3299867" lon="10.39203"><ele>1169.0</ele><time>2026-04-19T11:24:38.914Z</time></trkpt><trkpt lat="44.3299383" lon="10.392155"><ele>1169.0</ele><time>2026-04-19T11:24:39.911Z</time></trkpt><trkpt lat="44.3298983" lon="10.3922917"><ele>1169.0</ele><time>2026-04-19T11:24:40.917Z</time></trkpt><trkpt lat="44.3298667" lon="10.3924217"><ele>1167.6666666666667</ele><time>2026-04-19T11:24:41.91Z</time></trkpt><trkpt lat="44.3298433" lon="10.39254"><ele>1166.3333333333335</ele><time>2026-04-19T11:24:42.909Z</time></trkpt><trkpt lat="44.3298367" lon="10.392655"><ele>1165.0</ele><time>2026-04-19T11:24:43.909Z</time></trkpt><trkpt lat="44.3298517" lon="10.3927633"><ele>1163.6666666666667</ele><time>2026-04-19T11:24:44.932Z</time></trkpt><trkpt lat="44.3298683" lon="10.3928483"><ele>1162.3333333333333</ele><time>2026-04-19T11:24:45.924Z</time></trkpt><trkpt lat="44.3299183" lon="10.392965"><ele>1161.0</ele><time>2026-04-19T11:24:47.965Z</time></trkpt><trkpt lat="44.33002" lon="10.39305"><ele>1161.0</ele><time>2026-04-19T11:24:49.911Z</time></trkpt><trkpt lat="44.3300833" lon="10.3931"><ele>1161.0</ele><time>2026-04-19T11:24:50.919Z</time></trkpt><trkpt lat="44.3301567" lon="10.3931617"><ele>1161.0</ele><time>2026-04-19T11:24:51.912Z</time></trkpt><trkpt lat="44.3302267" lon="10.3932217"><ele>1161.0</ele><time>2026-04-19T11:24:52.958Z</time></trkpt><trkpt lat="44.33029" lon="10.3932933"><ele>1161.0</ele><time>2026-04-19T11:24:53.919Z</time></trkpt><trkpt lat="44.3303467" lon="10.3933917"><ele>1161.0</ele><time>2026-04-19T11:24:54.912Z</time></trkpt><trkpt lat="44.3303867" lon="10.3935"><ele>1161.0</ele><time>2026-04-19T11:24:55.906Z</time></trkpt><trkpt lat="44.33042" lon="10.3936283"><ele>1161.0</ele><time>2026-04-19T11:24:56.906Z</time></trkpt><trkpt lat="44.3304417" lon="10.3937433"><ele>1161.0</ele><time>2026-04-19T11:24:57.91Z</time></trkpt><trkpt lat="44.3304533" lon="10.393855"><ele>1161.0</ele><time>2026-04-19T11:24:58.913Z</time></trkpt><trkpt lat="44.330475" lon="10.3939583"><ele>1161.0</ele><time>2026-04-19T11:24:59.911Z</time></trkpt><trkpt lat="44.3305033" lon="10.3940567"><ele>1161.0</ele><time>2026-04-19T11:25:00.917Z</time></trkpt><trkpt lat="44.33054" lon="10.39414"><ele>1160.6666666666667</ele><time>2026-04-19T11:25:01.922Z</time></trkpt><trkpt lat="44.3305883" lon="10.3942217"><ele>1160.3333333333333</ele><time>2026-04-19T11:25:02.952Z</time></trkpt><trkpt lat="44.330655" lon="10.394275"><ele>1160.0</ele><time>2026-04-19T11:25:03.937Z</time></trkpt><trkpt lat="44.33074" lon="10.3943167"><ele>1159.6666666666665</ele><time>2026-04-19T11:25:04.934Z</time></trkpt><trkpt lat="44.3308233" lon="10.3943433"><ele>1159.3333333333333</ele><time>2026-04-19T11:25:05.954Z</time></trkpt><trkpt lat="44.33091" lon="10.3943683"><ele>1159.0</ele><time>2026-04-19T11:25:06.921Z</time></trkpt><trkpt lat="44.3309983" lon="10.3944017"><ele>1159.0</ele><time>2026-04-19T11:25:07.929Z</time></trkpt><trkpt lat="44.3310733" lon="10.39445"><ele>1159.0</ele><time>2026-04-19T11:25:08.907Z</time></trkpt><trkpt lat="44.3311383" lon="10.3944967"><ele>1159.0</ele><time>2026-04-19T11:25:09.911Z</time></trkpt><trkpt lat="44.3311983" lon="10.3945517"><ele>1159.0</ele><time>2026-04-19T11:25:10.992Z</time></trkpt><trkpt lat="44.3312417" lon="10.39463"><ele>1159.0</ele><time>2026-04-19T11:25:11.959Z</time></trkpt><trkpt lat="44.331265" lon="10.3947533"><ele>1159.0</ele><time>2026-04-19T11:25:12.911Z</time></trkpt><trkpt lat="44.3312917" lon="10.3948667"><ele>1158.6000000000001</ele><time>2026-04-19T11:25:13.933Z</time></trkpt><trkpt lat="44.33132" lon="10.3949667"><ele>1158.2</ele><time>2026-04-19T11:25:14.909Z</time></trkpt><trkpt lat="44.3313867" lon="10.3951033"><ele>1157.8000000000002</ele><time>2026-04-19T11:25:16.912Z</time></trkpt><trkpt lat="44.3314783" lon="10.3952"><ele>1157.4</ele><time>2026-04-19T11:25:18.98Z</time></trkpt><trkpt lat="44.3315733" lon="10.3952567"><ele>1157.0</ele><time>2026-04-19T11:25:20.922Z</time></trkpt><trkpt lat="44.3316367" lon="10.3952883"><ele>1157.0</ele><time>2026-04-19T11:25:21.92Z</time></trkpt><trkpt lat="44.3317067" lon="10.3953167"><ele>1157.0</ele><time>2026-04-19T11:25:22.927Z</time></trkpt><trkpt lat="44.331775" lon="10.395355"><ele>1157.0</ele><time>2026-04-19T11:25:23.938Z</time></trkpt><trkpt lat="44.3318433" lon="10.3953867"><ele>1157.0</ele><time>2026-04-19T11:25:24.92Z</time></trkpt><trkpt lat="44.331915" lon="10.3954133"><ele>1157.0</ele><time>2026-04-19T11:25:25.985Z</time></trkpt><trkpt lat="44.3319917" lon="10.3954433"><ele>1157.0</ele><time>2026-04-19T11:25:26.912Z</time></trkpt><trkpt lat="44.3320617" lon="10.3954633"><ele>1157.0</ele><time>2026-04-19T11:25:27.951Z</time></trkpt><trkpt lat="44.33213" lon="10.3955"><ele>1156.75</ele><time>2026-04-19T11:25:28.964Z</time></trkpt><trkpt lat="44.3322383" lon="10.3955767"><ele>1156.5</ele><time>2026-04-19T11:25:30.908Z</time></trkpt><trkpt lat="44.3323267" lon="10.395675"><ele>1156.25</ele><time>2026-04-19T11:25:32.916Z</time></trkpt><trkpt lat="44.3323867" lon="10.3957867"><ele>1156.0</ele><time>2026-04-19T11:25:34.913Z</time></trkpt><trkpt lat="44.3324367" lon="10.3959383"><ele>1156.0</ele><time>2026-04-19T11:25:36.922Z</time></trkpt><trkpt lat="44.332465" lon="10.3960883"><ele>1156.0</ele><time>2026-04-19T11:25:38.913Z</time></trkpt><trkpt lat="44.332465" lon="10.3962083"><ele>1156.0</ele><time>2026-04-19T11:25:40.918Z</time></trkpt><trkpt lat="44.3324667" lon="10.3963583"><ele>1156.0</ele><time>2026-04-19T11:25:42.911Z</time></trkpt><trkpt lat="44.3324683" lon="10.396505"><ele>1156.0</ele><time>2026-04-19T11:25:44.911Z</time></trkpt><trkpt lat="44.3325033" lon="10.396605"><ele>1157.6666666666665</ele><time>2026-04-19T11:25:46.918Z</time></trkpt><trkpt lat="44.3325683" lon="10.3966333"><ele>1159.3333333333333</ele><time>2026-04-19T11:25:48.948Z</time></trkpt><trkpt lat="44.3326533" lon="10.396665"><ele>1161.0</ele><time>2026-04-19T11:25:49.965Z</time></trkpt><trkpt lat="44.3327183" lon="10.3966583"><ele>1162.6666666666667</ele><time>2026-04-19T11:25:50.959Z</time></trkpt><trkpt lat="44.3328267" lon="10.39664"><ele>1164.3333333333335</ele><time>2026-04-19T11:25:52.938Z</time></trkpt><trkpt lat="44.332925" lon="10.3966817"><ele>1166.0</ele><time>2026-04-19T11:25:54.932Z</time></trkpt><trkpt lat="44.3329783" lon="10.3967433"><ele>1166.0</ele><time>2026-04-19T11:25:55.923Z</time></trkpt><trkpt lat="44.33304" lon="10.396825"><ele>1166.0</ele><time>2026-04-19T11:25:56.93Z</time></trkpt><trkpt lat="44.3331017" lon="10.396925"><ele>1166.0</ele><time>2026-04-19T11:25:57.96Z</time></trkpt><trkpt lat="44.3331767" lon="10.3970583"><ele>1166.0</ele><time>2026-04-19T11:25:58.955Z</time></trkpt><trkpt lat="44.3332517" lon="10.3971867"><ele>1166.0</ele><time>2026-04-19T11:25:59.921Z</time></trkpt><trkpt lat="44.333325" lon="10.3973083"><ele>1168.0</ele><time>2026-04-19T11:26:00.985Z</time></trkpt><trkpt lat="44.3333967" lon="10.3974233"><ele>1170.0</ele><time>2026-04-19T11:26:01.926Z</time></trkpt><trkpt lat="44.3334683" lon="10.3975183"><ele>1172.0</ele><time>2026-04-19T11:26:02.959Z</time></trkpt><trkpt lat="44.3335367" lon="10.3976067"><ele>1174.0</ele><time>2026-04-19T11:26:03.908Z</time></trkpt><trkpt lat="44.33361" lon="10.3976883"><ele>1176.0</ele><time>2026-04-19T11:26:04.935Z</time></trkpt><trkpt lat="44.333695" lon="10.3977567"><ele>1176.0</ele><time>2026-04-19T11:26:06Z</time></trkpt><trkpt lat="44.33379" lon="10.3978383"><ele>1176.0</ele><time>2026-04-19T11:26:06.908Z</time></trkpt><trkpt lat="44.33389" lon="10.3979233"><ele>1176.0</ele><time>2026-04-19T11:26:07.919Z</time></trkpt><trkpt lat="44.3339967" lon="10.398"><ele>1176.0</ele><time>2026-04-19T11:26:08.964Z</time></trkpt><trkpt lat="44.3341117" lon="10.398075"><ele>1177.3999999999999</ele><time>2026-04-19T11:26:09.916Z</time></trkpt><trkpt lat="44.334225" lon="10.39814"><ele>1178.8</ele><time>2026-04-19T11:26:10.912Z</time></trkpt><trkpt lat="44.3343283" lon="10.398205"><ele>1180.1999999999998</ele><time>2026-04-19T11:26:11.912Z</time></trkpt><trkpt lat="44.3344117" lon="10.3982667"><ele>1181.6</ele><time>2026-04-19T11:26:12.931Z</time></trkpt><trkpt lat="44.334495" lon="10.398325"><ele>1183.0</ele><time>2026-04-19T11:26:13.936Z</time></trkpt><trkpt lat="44.3345783" lon="10.3983767"><ele>1183.0</ele><time>2026-04-19T11:26:14.942Z</time></trkpt><trkpt lat="44.334665" lon="10.398435"><ele>1183.0</ele><time>2026-04-19T11:26:15.909Z</time></trkpt><trkpt lat="44.3347483" lon="10.3984883"><ele>1183.0</ele><time>2026-04-19T11:26:16.91Z</time></trkpt><trkpt lat="44.33483" lon="10.398555"><ele>1183.0</ele><time>2026-04-19T11:26:17.926Z</time></trkpt><trkpt lat="44.3349033" lon="10.3986283"><ele>1183.0</ele><time>2026-04-19T11:26:18.936Z</time></trkpt><trkpt lat="44.3349633" lon="10.3986917"><ele>1183.0</ele><time>2026-04-19T11:26:19.914Z</time></trkpt><trkpt lat="44.335005" lon="10.3987717"><ele>1182.3333333333333</ele><time>2026-04-19T11:26:20.907Z</time></trkpt><trkpt lat="44.3350333" lon="10.3988667"><ele>1181.6666666666665</ele><time>2026-04-19T11:26:21.913Z</time></trkpt><trkpt lat="44.3350617" lon="10.3989783"><ele>1181.0</ele><time>2026-04-19T11:26:22.913Z</time></trkpt><trkpt lat="44.3350833" lon="10.3991167"><ele>1180.3333333333333</ele><time>2026-04-19T11:26:23.951Z</time></trkpt><trkpt lat="44.3350967" lon="10.399215"><ele>1179.6666666666667</ele><time>2026-04-19T11:26:24.907Z</time></trkpt><trkpt lat="44.3351133" lon="10.3993017"><ele>1179.0</ele><time>2026-04-19T11:26:25.911Z</time></trkpt><trkpt lat="44.3351367" lon="10.3993933"><ele>1178.9999999999998</ele><time>2026-04-19T11:26:26.928Z</time></trkpt><trkpt lat="44.3351683" lon="10.3994833"><ele>1179.0</ele><time>2026-04-19T11:26:27.94Z</time></trkpt><trkpt lat="44.3352117" lon="10.399565"><ele>1179.0</ele><time>2026-04-19T11:26:28.916Z</time></trkpt><trkpt lat="44.33526" lon="10.3996483"><ele>1179.0</ele><time>2026-04-19T11:26:29.915Z</time></trkpt><trkpt lat="44.3353017" lon="10.3997333"><ele>1179.0</ele><time>2026-04-19T11:26:30.915Z</time></trkpt><trkpt lat="44.3353483" lon="10.3998217"><ele>1178.9999999999998</ele><time>2026-04-19T11:26:31.951Z</time></trkpt><trkpt lat="44.3353883" lon="10.3999"><ele>1179.0</ele><time>2026-04-19T11:26:32.943Z</time></trkpt><trkpt lat="44.33543" lon="10.39997"><ele>1179.3333333333333</ele><time>2026-04-19T11:26:33.919Z</time></trkpt><trkpt lat="44.3355283" lon="10.4000583"><ele>1179.6666666666667</ele><time>2026-04-19T11:26:35.945Z</time></trkpt><trkpt lat="44.33559" lon="10.4000783"><ele>1180.0</ele><time>2026-04-19T11:26:36.91Z</time></trkpt><trkpt lat="44.335655" lon="10.40007"><ele>1180.3333333333335</ele><time>2026-04-19T11:26:37.919Z</time></trkpt><trkpt lat="44.3357183" lon="10.4000333"><ele>1180.6666666666667</ele><time>2026-04-19T11:26:38.945Z</time></trkpt><trkpt lat="44.3358033" lon="10.3999567"><ele>1181.0</ele><time>2026-04-19T11:26:39.93Z</time></trkpt><trkpt lat="44.3358917" lon="10.3998683"><ele>1181.0</ele><time>2026-04-19T11:26:40.91Z</time></trkpt><trkpt lat="44.335975" lon="10.399775"><ele>1181.0</ele><time>2026-04-19T11:26:41.923Z</time></trkpt><trkpt lat="44.3360533" lon="10.39968"><ele>1181.0</ele><time>2026-04-19T11:26:42.975Z</time></trkpt><trkpt lat="44.336125" lon="10.3996083"><ele>1181.0</ele><time>2026-04-19T11:26:43.937Z</time></trkpt><trkpt lat="44.3361983" lon="10.3995567"><ele>1181.0</ele><time>2026-04-19T11:26:44.949Z</time></trkpt><trkpt lat="44.33629" lon="10.3995183"><ele>1178.5</ele><time>2026-04-19T11:26:45.931Z</time></trkpt><trkpt lat="44.3363883" lon="10.399475"><ele>1176.0</ele><time>2026-04-19T11:26:46.908Z</time></trkpt><trkpt lat="44.3364817" lon="10.39942"><ele>1173.5</ele><time>2026-04-19T11:26:47.917Z</time></trkpt><trkpt lat="44.3365567" lon="10.3993533"><ele>1171.0</ele><time>2026-04-19T11:26:48.947Z</time></trkpt><trkpt lat="44.33662" lon="10.3993033"><ele>1168.5</ele><time>2026-04-19T11:26:49.916Z</time></trkpt><trkpt lat="44.3366817" lon="10.3992767"><ele>1166.0</ele><time>2026-04-19T11:26:50.955Z</time></trkpt><trkpt lat="44.336745" lon="10.3992633"><ele>1166.0</ele><time>2026-04-19T11:26:51.932Z</time></trkpt><trkpt lat="44.33681" lon="10.3992567"><ele>1166.0</ele><time>2026-04-19T11:26:52.914Z</time></trkpt><trkpt lat="44.336885" lon="10.3992783"><ele>1166.0</ele><time>2026-04-19T11:26:53.985Z</time></trkpt><trkpt lat="44.3369833" lon="10.39936"><ele>1166.0</ele><time>2026-04-19T11:26:54.92Z</time></trkpt><trkpt lat="44.3370883" lon="10.3994783"><ele>1166.0</ele><time>2026-04-19T11:26:55.916Z</time></trkpt><trkpt lat="44.3371933" lon="10.39958"><ele>1170.3999999999999</ele><time>2026-04-19T11:26:56.91Z</time></trkpt><trkpt lat="44.33729" lon="10.3996733"><ele>1174.8</ele><time>2026-04-19T11:26:57.926Z</time></trkpt><trkpt lat="44.3373767" lon="10.39976"><ele>1179.1999999999998</ele><time>2026-04-19T11:26:58.922Z</time></trkpt><trkpt lat="44.3374633" lon="10.399835"><ele>1183.6</ele><time>2026-04-19T11:26:59.908Z</time></trkpt><trkpt lat="44.3375567" lon="10.3999083"><ele>1188.0</ele><time>2026-04-19T11:27:00.91Z</time></trkpt><trkpt lat="44.33765" lon="10.39998"><ele>1188.0</ele><time>2026-04-19T11:27:01.936Z</time></trkpt><trkpt lat="44.3377517" lon="10.4000533"><ele>1188.0</ele><time>2026-04-19T11:27:02.923Z</time></trkpt><trkpt lat="44.3378683" lon="10.40014"><ele>1188.0</ele><time>2026-04-19T11:27:03.914Z</time></trkpt><trkpt lat="44.3379917" lon="10.4002333"><ele>1188.0</ele><time>2026-04-19T11:27:04.97Z</time></trkpt><trkpt lat="44.3381183" lon="10.400325"><ele>1187.0</ele><time>2026-04-19T11:27:05.968Z</time></trkpt><trkpt lat="44.33824" lon="10.4004133"><ele>1186.0</ele><time>2026-04-19T11:27:06.925Z</time></trkpt><trkpt lat="44.3383467" lon="10.4004983"><ele>1185.0</ele><time>2026-04-19T11:27:07.918Z</time></trkpt><trkpt lat="44.3384483" lon="10.400595"><ele>1184.0</ele><time>2026-04-19T11:27:08.996Z</time></trkpt><trkpt lat="44.3385533" lon="10.400675"><ele>1186.5</ele><time>2026-04-19T11:27:09.926Z</time></trkpt><trkpt lat="44.3386667" lon="10.40073"><ele>1189.0</ele><time>2026-04-19T11:27:10.921Z</time></trkpt><trkpt lat="44.33877" lon="10.4007783"><ele>1191.5</ele><time>2026-04-19T11:27:11.941Z</time></trkpt><trkpt lat="44.3388683" lon="10.4008467"><ele>1194.0</ele><time>2026-04-19T11:27:12.91Z</time></trkpt><trkpt lat="44.33896" lon="10.4009383"><ele>1194.0</ele><time>2026-04-19T11:27:13.92Z</time></trkpt><trkpt lat="44.3390333" lon="10.4010333"><ele>1194.0</ele><time>2026-04-19T11:27:14.94Z</time></trkpt><trkpt lat="44.3390817" lon="10.4011183"><ele>1194.0</ele><time>2026-04-19T11:27:15.942Z</time></trkpt><trkpt lat="44.3391267" lon="10.4011983"><ele>1194.0</ele><time>2026-04-19T11:27:16.912Z</time></trkpt><trkpt lat="44.3391967" lon="10.4013433"><ele>1194.0</ele><time>2026-04-19T11:27:18.924Z</time></trkpt><trkpt lat="44.3392417" lon="10.4014233"><ele>1194.0</ele><time>2026-04-19T11:27:19.913Z</time></trkpt><trkpt lat="44.3392967" lon="10.4015133"><ele>1196.0</ele><time>2026-04-19T11:27:20.92Z</time></trkpt><trkpt lat="44.3393583" lon="10.4016067"><ele>1198.0</ele><time>2026-04-19T11:27:21.912Z</time></trkpt><trkpt lat="44.339425" lon="10.40171"><ele>1200.0</ele><time>2026-04-19T11:27:22.964Z</time></trkpt><trkpt lat="44.3395017" lon="10.4018067"><ele>1202.0</ele><time>2026-04-19T11:27:23.915Z</time></trkpt><trkpt lat="44.33957" lon="10.4019017"><ele>1204.0</ele><time>2026-04-19T11:27:24.952Z</time></trkpt><trkpt lat="44.3396533" lon="10.4020117"><ele>1204.0</ele><time>2026-04-19T11:27:25.923Z</time></trkpt><trkpt lat="44.3397467" lon="10.4021333"><ele>1204.0</ele><time>2026-04-19T11:27:26.91Z</time></trkpt><trkpt lat="44.3398467" lon="10.402245"><ele>1204.0</ele><time>2026-04-19T11:27:27.946Z</time></trkpt><trkpt lat="44.3399517" lon="10.4023467"><ele>1204.0</ele><time>2026-04-19T11:27:28.932Z</time></trkpt><trkpt lat="44.3400483" lon="10.4024367"><ele>1204.0</ele><time>2026-04-19T11:27:29.932Z</time></trkpt><trkpt lat="44.3401367" lon="10.402525"><ele>1204.0</ele><time>2026-04-19T11:27:30.935Z</time></trkpt><trkpt lat="44.3402283" lon="10.4026"><ele>1204.0</ele><time>2026-04-19T11:27:31.972Z</time></trkpt><trkpt lat="44.34031" lon="10.40266"><ele>1204.0</ele><time>2026-04-19T11:27:32.968Z</time></trkpt><trkpt lat="44.3403817" lon="10.4027117"><ele>1204.0</ele><time>2026-04-19T11:27:33.908Z</time></trkpt><trkpt lat="44.3404467" lon="10.4027583"><ele>1204.0</ele><time>2026-04-19T11:27:34.933Z</time></trkpt><trkpt lat="44.340505" lon="10.4028033"><ele>1204.0</ele><time>2026-04-19T11:27:35.984Z</time></trkpt><trkpt lat="44.3405717" lon="10.4028683"><ele>1204.0</ele><time>2026-04-19T11:27:37.911Z</time></trkpt><trkpt lat="44.3405283" lon="10.4029333"><ele>1204.0</ele><time>2026-04-19T11:31:34.928Z</time></trkpt><trkpt lat="44.3404917" lon="10.4030233"><ele>1204.0</ele><time>2026-04-19T11:31:36.908Z</time></trkpt><trkpt lat="44.3404483" lon="10.4031283"><ele>1204.0</ele><time>2026-04-19T11:31:38.935Z</time></trkpt><trkpt lat="44.3404" lon="10.403235"><ele>1205.5</ele><time>2026-04-19T11:31:40.927Z</time></trkpt><trkpt lat="44.3403617" lon="10.403325"><ele>1207.0</ele><time>2026-04-19T11:31:42.91Z</time></trkpt><trkpt lat="44.3403167" lon="10.4034"><ele>1208.5</ele><time>2026-04-19T11:31:44.923Z</time></trkpt><trkpt lat="44.3402767" lon="10.4035"><ele>1210.0</ele><time>2026-04-19T11:31:47.929Z</time></trkpt><trkpt lat="44.3402267" lon="10.403565"><ele>1211.5</ele><time>2026-04-19T11:31:51.929Z</time></trkpt><trkpt lat="44.3402583" lon="10.40369"><ele>1213.0</ele><time>2026-04-19T11:34:53.947Z</time></trkpt><trkpt lat="44.34027" lon="10.4035917"><ele>1213.0</ele><time>2026-04-19T11:36:29.924Z</time></trkpt><trkpt lat="44.340305" lon="10.4035067"><ele>1213.0</ele><time>2026-04-19T11:36:31.923Z</time></trkpt><trkpt lat="44.3403467" lon="10.40343"><ele>1213.0</ele><time>2026-04-19T11:36:33.912Z</time></trkpt><trkpt lat="44.340365" lon="10.40332"><ele>1213.0</ele><time>2026-04-19T11:36:36.908Z</time></trkpt><trkpt lat="44.3404017" lon="10.403205"><ele>1213.0</ele><time>2026-04-19T11:36:39.926Z</time></trkpt><trkpt lat="44.3404417" lon="10.403105"><ele>1213.0</ele><time>2026-04-19T11:36:43.085Z</time></trkpt><trkpt lat="44.3404967" lon="10.40296"><ele>1210.6</ele><time>2026-04-19T11:36:46.962Z</time></trkpt><trkpt lat="44.3405883" lon="10.4029367"><ele>1208.1999999999998</ele><time>2026-04-19T11:36:49.919Z</time></trkpt><trkpt lat="44.3406533" lon="10.402965"><ele>1205.8</ele><time>2026-04-19T11:36:52.912Z</time></trkpt><trkpt lat="44.34073" lon="10.4030067"><ele>1203.3999999999999</ele><time>2026-04-19T11:36:57.93Z</time></trkpt><trkpt lat="44.3408067" lon="10.4030233"><ele>1201.0</ele><time>2026-04-19T11:36:59.964Z</time></trkpt><trkpt lat="44.34093" lon="10.4030817"><ele>1200.3999999999999</ele><time>2026-04-19T11:37:01.947Z</time></trkpt><trkpt lat="44.3409967" lon="10.4031283"><ele>1199.8</ele><time>2026-04-19T11:37:02.928Z</time></trkpt><trkpt lat="44.3410617" lon="10.4032117"><ele>1199.1999999999998</ele><time>2026-04-19T11:37:03.923Z</time></trkpt><trkpt lat="44.3411483" lon="10.4033133"><ele>1198.6</ele><time>2026-04-19T11:37:04.929Z</time></trkpt><trkpt lat="44.3412433" lon="10.4033833"><ele>1198.0</ele><time>2026-04-19T11:37:05.911Z</time></trkpt><trkpt lat="44.3413333" lon="10.4034167"><ele>1196.8</ele><time>2026-04-19T11:37:06.96Z</time></trkpt><trkpt lat="44.341425" lon="10.4034417"><ele>1195.6</ele><time>2026-04-19T11:37:07.946Z</time></trkpt><trkpt lat="44.3415217" lon="10.4034483"><ele>1194.4</ele><time>2026-04-19T11:37:08.94Z</time></trkpt><trkpt lat="44.341625" lon="10.40344"><ele>1193.2</ele><time>2026-04-19T11:37:09.926Z</time></trkpt><trkpt lat="44.34172" lon="10.40343"><ele>1192.0</ele><time>2026-04-19T11:37:10.924Z</time></trkpt><trkpt lat="44.341815" lon="10.40342"><ele>1192.0</ele><time>2026-04-19T11:37:11.937Z</time></trkpt><trkpt lat="44.341895" lon="10.4034217"><ele>1192.0</ele><time>2026-04-19T11:37:12.942Z</time></trkpt><trkpt lat="44.3419733" lon="10.4034433"><ele>1192.0</ele><time>2026-04-19T11:37:13.92Z</time></trkpt><trkpt lat="44.34206" lon="10.4034717"><ele>1192.0</ele><time>2026-04-19T11:37:14.91Z</time></trkpt><trkpt lat="44.34216" lon="10.4035267"><ele>1192.0</ele><time>2026-04-19T11:37:15.948Z</time></trkpt><trkpt lat="44.3422583" lon="10.4035667"><ele>1191.5</ele><time>2026-04-19T11:37:16.912Z</time></trkpt><trkpt lat="44.342375" lon="10.403615"><ele>1191.0</ele><time>2026-04-19T11:37:17.95Z</time></trkpt><trkpt lat="44.3424883" lon="10.4036567"><ele>1190.5</ele><time>2026-04-19T11:37:18.912Z</time></trkpt><trkpt lat="44.3426067" lon="10.4037117"><ele>1190.0</ele><time>2026-04-19T11:37:19.911Z</time></trkpt><trkpt lat="44.34272" lon="10.40376"><ele>1190.0</ele><time>2026-04-19T11:37:20.911Z</time></trkpt><trkpt lat="44.3428217" lon="10.4038"><ele>1190.0</ele><time>2026-04-19T11:37:21.94Z</time></trkpt><trkpt lat="44.3429333" lon="10.4038383"><ele>1190.0</ele><time>2026-04-19T11:37:22.91Z</time></trkpt><trkpt lat="44.3430383" lon="10.4038767"><ele>1190.0</ele><time>2026-04-19T11:37:23.919Z</time></trkpt><trkpt lat="44.3431267" lon="10.4039083"><ele>1190.0</ele><time>2026-04-19T11:37:24.97Z</time></trkpt><trkpt lat="44.343205" lon="10.4039517"><ele>1187.8333333333335</ele><time>2026-04-19T11:37:25.935Z</time></trkpt><trkpt lat="44.3432817" lon="10.4039917"><ele>1185.6666666666667</ele><time>2026-04-19T11:37:26.949Z</time></trkpt><trkpt lat="44.3433567" lon="10.4040333"><ele>1183.5</ele><time>2026-04-19T11:37:27.928Z</time></trkpt><trkpt lat="44.34343" lon="10.4040783"><ele>1181.3333333333333</ele><time>2026-04-19T11:37:28.924Z</time></trkpt><trkpt lat="44.3435017" lon="10.40413"><ele>1179.1666666666665</ele><time>2026-04-19T11:37:29.913Z</time></trkpt><trkpt lat="44.34356" lon="10.4041833"><ele>1177.0</ele><time>2026-04-19T11:37:30.923Z</time></trkpt><trkpt lat="44.343615" lon="10.4042567"><ele>1177.0</ele><time>2026-04-19T11:37:31.934Z</time></trkpt><trkpt lat="44.3436683" lon="10.40434"><ele>1177.0</ele><time>2026-04-19T11:37:32.933Z</time></trkpt><trkpt lat="44.3437267" lon="10.40443"><ele>1177.0</ele><time>2026-04-19T11:37:33.971Z</time></trkpt><trkpt lat="44.3437883" lon="10.4045183"><ele>1177.0</ele><time>2026-04-19T11:37:34.95Z</time></trkpt><trkpt lat="44.3438483" lon="10.4046067"><ele>1177.0</ele><time>2026-04-19T11:37:35.93Z</time></trkpt><trkpt lat="44.3439083" lon="10.4046933"><ele>1177.0</ele><time>2026-04-19T11:37:36.924Z</time></trkpt><trkpt lat="44.34397" lon="10.4047717"><ele>1175.6666666666665</ele><time>2026-04-19T11:37:37.934Z</time></trkpt><trkpt lat="44.3440417" lon="10.4048367"><ele>1174.3333333333333</ele><time>2026-04-19T11:37:38.925Z</time></trkpt><trkpt lat="44.3441167" lon="10.4049"><ele>1173.0</ele><time>2026-04-19T11:37:39.92Z</time></trkpt><trkpt lat="44.344195" lon="10.40497"><ele>1171.6666666666667</ele><time>2026-04-19T11:37:40.911Z</time></trkpt><trkpt lat="44.3442733" lon="10.405035"><ele>1170.3333333333335</ele><time>2026-04-19T11:37:41.929Z</time></trkpt><trkpt lat="44.344345" lon="10.4051017"><ele>1169.0</ele><time>2026-04-19T11:37:42.968Z</time></trkpt><trkpt lat="44.3444183" lon="10.4051633"><ele>1169.0</ele><time>2026-04-19T11:37:43.911Z</time></trkpt><trkpt lat="44.344495" lon="10.40523"><ele>1169.0</ele><time>2026-04-19T11:37:44.971Z</time></trkpt><trkpt lat="44.344575" lon="10.4052983"><ele>1169.0</ele><time>2026-04-19T11:37:45.94Z</time></trkpt><trkpt lat="44.344665" lon="10.4053567"><ele>1169.0</ele><time>2026-04-19T11:37:46.935Z</time></trkpt><trkpt lat="44.344755" lon="10.4054017"><ele>1169.0</ele><time>2026-04-19T11:37:47.919Z</time></trkpt><trkpt lat="44.344855" lon="10.405445"><ele>1168.8</ele><time>2026-04-19T11:37:48.931Z</time></trkpt><trkpt lat="44.34495" lon="10.4054883"><ele>1168.6000000000001</ele><time>2026-04-19T11:37:49.934Z</time></trkpt><trkpt lat="44.3450417" lon="10.40553"><ele>1168.4</ele><time>2026-04-19T11:37:50.949Z</time></trkpt><trkpt lat="44.34513" lon="10.4055733"><ele>1168.2</ele><time>2026-04-19T11:37:51.94Z</time></trkpt><trkpt lat="44.3452133" lon="10.4056367"><ele>1168.0</ele><time>2026-04-19T11:37:52.928Z</time></trkpt><trkpt lat="44.3452917" lon="10.4057133"><ele>1166.0</ele><time>2026-04-19T11:37:53.916Z</time></trkpt><trkpt lat="44.3453633" lon="10.4057817"><ele>1164.0</ele><time>2026-04-19T11:37:54.946Z</time></trkpt><trkpt lat="44.34543" lon="10.4058483"><ele>1162.0</ele><time>2026-04-19T11:37:55.953Z</time></trkpt><trkpt lat="44.34549" lon="10.40593"><ele>1160.0</ele><time>2026-04-19T11:37:56.941Z</time></trkpt><trkpt lat="44.34555" lon="10.4060267"><ele>1158.0</ele><time>2026-04-19T11:37:58.094Z</time></trkpt><trkpt lat="44.345675" lon="10.4061933"><ele>1158.0</ele><time>2026-04-19T11:37:59.924Z</time></trkpt><trkpt lat="44.3457483" lon="10.4062467"><ele>1158.0</ele><time>2026-04-19T11:38:00.909Z</time></trkpt><trkpt lat="44.3458267" lon="10.4062883"><ele>1158.0</ele><time>2026-04-19T11:38:01.927Z</time></trkpt><trkpt lat="44.3459033" lon="10.4063117"><ele>1158.0</ele><time>2026-04-19T11:38:02.941Z</time></trkpt><trkpt lat="44.34598" lon="10.4063217"><ele>1158.0</ele><time>2026-04-19T11:38:03.928Z</time></trkpt><trkpt lat="44.346045" lon="10.406295"><ele>1158.0</ele><time>2026-04-19T11:38:04.934Z</time></trkpt><trkpt lat="44.34611" lon="10.4062217"><ele>1158.0</ele><time>2026-04-19T11:38:05.921Z</time></trkpt><trkpt lat="44.3461683" lon="10.406125"><ele>1158.0</ele><time>2026-04-19T11:38:06.963Z</time></trkpt><trkpt lat="44.3462283" lon="10.406055"><ele>1158.0</ele><time>2026-04-19T11:38:07.942Z</time></trkpt><trkpt lat="44.34629" lon="10.4060117"><ele>1158.0</ele><time>2026-04-19T11:38:08.91Z</time></trkpt><trkpt lat="44.3463683" lon="10.4060033"><ele>1158.0</ele><time>2026-04-19T11:38:09.911Z</time></trkpt><trkpt lat="44.3464533" lon="10.406"><ele>1158.0</ele><time>2026-04-19T11:38:10.913Z</time></trkpt><trkpt lat="44.3465567" lon="10.40602"><ele>1156.4</ele><time>2026-04-19T11:38:11.908Z</time></trkpt><trkpt lat="44.3466633" lon="10.4060367"><ele>1154.8</ele><time>2026-04-19T11:38:12.955Z</time></trkpt><trkpt lat="44.34677" lon="10.4060333"><ele>1153.2</ele><time>2026-04-19T11:38:13.934Z</time></trkpt><trkpt lat="44.3468617" lon="10.40601"><ele>1151.6</ele><time>2026-04-19T11:38:14.923Z</time></trkpt><trkpt lat="44.34694" lon="10.4059617"><ele>1150.0</ele><time>2026-04-19T11:38:15.988Z</time></trkpt><trkpt lat="44.347015" lon="10.4058933"><ele>1150.0</ele><time>2026-04-19T11:38:16.965Z</time></trkpt><trkpt lat="44.34709" lon="10.4058133"><ele>1150.0</ele><time>2026-04-19T11:38:17.917Z</time></trkpt><trkpt lat="44.3471667" lon="10.405735"><ele>1150.0</ele><time>2026-04-19T11:38:18.924Z</time></trkpt><trkpt lat="44.34724" lon="10.4056783"><ele>1150.0</ele><time>2026-04-19T11:38:19.915Z</time></trkpt><trkpt lat="44.3473367" lon="10.4056383"><ele>1150.0</ele><time>2026-04-19T11:38:20.919Z</time></trkpt><trkpt lat="44.3474467" lon="10.405615"><ele>1147.2</ele><time>2026-04-19T11:38:21.953Z</time></trkpt><trkpt lat="44.3475583" lon="10.40559"><ele>1144.4</ele><time>2026-04-19T11:38:22.939Z</time></trkpt><trkpt lat="44.34767" lon="10.4055583"><ele>1141.6</ele><time>2026-04-19T11:38:23.931Z</time></trkpt><trkpt lat="44.3477783" lon="10.4055367"><ele>1138.8</ele><time>2026-04-19T11:38:24.909Z</time></trkpt><trkpt lat="44.3478817" lon="10.40552"><ele>1136.0</ele><time>2026-04-19T11:38:25.943Z</time></trkpt><trkpt lat="44.3479867" lon="10.4055083"><ele>1134.6</ele><time>2026-04-19T11:38:26.908Z</time></trkpt><trkpt lat="44.34809" lon="10.4055083"><ele>1133.1999999999998</ele><time>2026-04-19T11:38:27.909Z</time></trkpt><trkpt lat="44.34819" lon="10.4055167"><ele>1131.8000000000002</ele><time>2026-04-19T11:38:28.912Z</time></trkpt><trkpt lat="44.3482933" lon="10.4055317"><ele>1130.4</ele><time>2026-04-19T11:38:29.91Z</time></trkpt><trkpt lat="44.3484017" lon="10.4055417"><ele>1129.0</ele><time>2026-04-19T11:38:30.91Z</time></trkpt><trkpt lat="44.3485167" lon="10.405545"><ele>1129.0</ele><time>2026-04-19T11:38:31.908Z</time></trkpt><trkpt lat="44.3486333" lon="10.405555"><ele>1129.0</ele><time>2026-04-19T11:38:32.92Z</time></trkpt><trkpt lat="44.348745" lon="10.40555"><ele>1129.0</ele><time>2026-04-19T11:38:33.911Z</time></trkpt><trkpt lat="44.3488583" lon="10.40552"><ele>1129.0</ele><time>2026-04-19T11:38:34.912Z</time></trkpt><trkpt lat="44.3489683" lon="10.405495"><ele>1126.4</ele><time>2026-04-19T11:38:35.916Z</time></trkpt><trkpt lat="44.34907" lon="10.4054717"><ele>1123.8000000000002</ele><time>2026-04-19T11:38:36.908Z</time></trkpt><trkpt lat="44.3491633" lon="10.405455"><ele>1121.1999999999998</ele><time>2026-04-19T11:38:37.917Z</time></trkpt><trkpt lat="44.3492583" lon="10.4054417"><ele>1118.6</ele><time>2026-04-19T11:38:38.906Z</time></trkpt><trkpt lat="44.3493517" lon="10.4054217"><ele>1116.0</ele><time>2026-04-19T11:38:39.954Z</time></trkpt><trkpt lat="44.3494417" lon="10.4054117"><ele>1116.0</ele><time>2026-04-19T11:38:40.93Z</time></trkpt><trkpt lat="44.3495283" lon="10.4054117"><ele>1116.0</ele><time>2026-04-19T11:38:41.916Z</time></trkpt><trkpt lat="44.3496117" lon="10.40543"><ele>1116.0</ele><time>2026-04-19T11:38:42.937Z</time></trkpt><trkpt lat="44.34969" lon="10.40548"><ele>1116.0</ele><time>2026-04-19T11:38:43.915Z</time></trkpt><trkpt lat="44.3497683" lon="10.40556"><ele>1116.0</ele><time>2026-04-19T11:38:44.91Z</time></trkpt><trkpt lat="44.34984" lon="10.40565"><ele>1116.3999999999999</ele><time>2026-04-19T11:38:45.939Z</time></trkpt><trkpt lat="44.3499017" lon="10.405745"><ele>1116.8</ele><time>2026-04-19T11:38:46.932Z</time></trkpt><trkpt lat="44.3499567" lon="10.40584"><ele>1117.1999999999998</ele><time>2026-04-19T11:38:47.907Z</time></trkpt><trkpt lat="44.350015" lon="10.4059367"><ele>1117.6</ele><time>2026-04-19T11:38:48.924Z</time></trkpt><trkpt lat="44.3500867" lon="10.4060233"><ele>1118.0</ele><time>2026-04-19T11:38:49.913Z</time></trkpt><trkpt lat="44.3501667" lon="10.406105"><ele>1118.0</ele><time>2026-04-19T11:38:50.922Z</time></trkpt><trkpt lat="44.3502483" lon="10.40618"><ele>1118.0</ele><time>2026-04-19T11:38:51.906Z</time></trkpt><trkpt lat="44.35034" lon="10.4062467"><ele>1118.0</ele><time>2026-04-19T11:38:52.914Z</time></trkpt><trkpt lat="44.3504283" lon="10.4063167"><ele>1118.0</ele><time>2026-04-19T11:38:53.907Z</time></trkpt><trkpt lat="44.3505133" lon="10.4063883"><ele>1118.0</ele><time>2026-04-19T11:38:54.909Z</time></trkpt><trkpt lat="44.350585" lon="10.406455"><ele>1115.0</ele><time>2026-04-19T11:38:55.915Z</time></trkpt><trkpt lat="44.350645" lon="10.4065217"><ele>1112.0</ele><time>2026-04-19T11:38:56.908Z</time></trkpt><trkpt lat="44.3506883" lon="10.4065967"><ele>1109.0</ele><time>2026-04-19T11:38:57.94Z</time></trkpt><trkpt lat="44.3507067" lon="10.40676"><ele>1106.0</ele><time>2026-04-19T11:38:59.909Z</time></trkpt><trkpt lat="44.35067" lon="10.4068517"><ele>1103.0</ele><time>2026-04-19T11:39:00.923Z</time></trkpt><trkpt lat="44.3506317" lon="10.40695"><ele>1100.0</ele><time>2026-04-19T11:39:01.909Z</time></trkpt><trkpt lat="44.3505783" lon="10.4070683"><ele>1102.0</ele><time>2026-04-19T11:39:02.909Z</time></trkpt><trkpt lat="44.350525" lon="10.407185"><ele>1104.0</ele><time>2026-04-19T11:39:03.908Z</time></trkpt><trkpt lat="44.350475" lon="10.4072917"><ele>1106.0</ele><time>2026-04-19T11:39:04.915Z</time></trkpt><trkpt lat="44.3504233" lon="10.4073933"><ele>1108.0</ele><time>2026-04-19T11:39:05.918Z</time></trkpt><trkpt lat="44.35037" lon="10.4074883"><ele>1110.0</ele><time>2026-04-19T11:39:06.908Z</time></trkpt><trkpt lat="44.3503233" lon="10.4075833"><ele>1112.0</ele><time>2026-04-19T11:39:07.908Z</time></trkpt><trkpt lat="44.3502783" lon="10.4076867"><ele>1112.0</ele><time>2026-04-19T11:39:08.917Z</time></trkpt><trkpt lat="44.3502267" lon="10.4077933"><ele>1112.0</ele><time>2026-04-19T11:39:09.909Z</time></trkpt><trkpt lat="44.3501733" lon="10.4078883"><ele>1112.0</ele><time>2026-04-19T11:39:10.911Z</time></trkpt><trkpt lat="44.3501133" lon="10.4079617"><ele>1112.0</ele><time>2026-04-19T11:39:11.91Z</time></trkpt><trkpt lat="44.35005" lon="10.4080267"><ele>1112.0</ele><time>2026-04-19T11:39:12.907Z</time></trkpt><trkpt lat="44.34998" lon="10.4080817"><ele>1112.0</ele><time>2026-04-19T11:39:13.922Z</time></trkpt><trkpt lat="44.3498933" lon="10.4081217"><ele>1107.8</ele><time>2026-04-19T11:39:14.946Z</time></trkpt><trkpt lat="44.349795" lon="10.4081383"><ele>1103.6</ele><time>2026-04-19T11:39:15.9Z</time></trkpt><trkpt lat="44.349685" lon="10.40814"><ele>1099.3999999999999</ele><time>2026-04-19T11:39:16.949Z</time></trkpt><trkpt lat="44.3495733" lon="10.4081433"><ele>1095.2</ele><time>2026-04-19T11:39:17.909Z</time></trkpt><trkpt lat="44.34947" lon="10.4081467"><ele>1091.0</ele><time>2026-04-19T11:39:18.911Z</time></trkpt><trkpt lat="44.3493767" lon="10.4081467"><ele>1091.0</ele><time>2026-04-19T11:39:19.907Z</time></trkpt><trkpt lat="44.3492917" lon="10.4081467"><ele>1091.0</ele><time>2026-04-19T11:39:20.91Z</time></trkpt><trkpt lat="44.3492117" lon="10.4081583"><ele>1091.0</ele><time>2026-04-19T11:39:21.909Z</time></trkpt><trkpt lat="44.3491433" lon="10.4081817"><ele>1091.0</ele><time>2026-04-19T11:39:22.922Z</time></trkpt><trkpt lat="44.3490733" lon="10.4083167"><ele>1091.0</ele><time>2026-04-19T11:39:24.913Z</time></trkpt><trkpt lat="44.349075" lon="10.4084367"><ele>1091.0</ele><time>2026-04-19T11:39:25.919Z</time></trkpt><trkpt lat="44.3490467" lon="10.408535"><ele>1091.0</ele><time>2026-04-19T11:39:26.922Z</time></trkpt><trkpt lat="44.3490117" lon="10.40862"><ele>1091.0</ele><time>2026-04-19T11:39:27.909Z</time></trkpt><trkpt lat="44.34896" lon="10.4086967"><ele>1091.0</ele><time>2026-04-19T11:39:28.916Z</time></trkpt><trkpt lat="44.3488817" lon="10.408765"><ele>1091.0</ele><time>2026-04-19T11:39:29.909Z</time></trkpt><trkpt lat="44.348795" lon="10.4088183"><ele>1091.0</ele><time>2026-04-19T11:39:30.911Z</time></trkpt><trkpt lat="44.3487083" lon="10.408855"><ele>1091.0</ele><time>2026-04-19T11:39:31.911Z</time></trkpt><trkpt lat="44.34863" lon="10.4088767"><ele>1090.5</ele><time>2026-04-19T11:39:32.943Z</time></trkpt><trkpt lat="44.3485483" lon="10.4088683"><ele>1090.0</ele><time>2026-04-19T11:39:33.921Z</time></trkpt><trkpt lat="44.3484667" lon="10.4088533"><ele>1089.5</ele><time>2026-04-19T11:39:34.923Z</time></trkpt><trkpt lat="44.3483817" lon="10.4088267"><ele>1089.0</ele><time>2026-04-19T11:39:35.963Z</time></trkpt><trkpt lat="44.348295" lon="10.4088067"><ele>1088.5</ele><time>2026-04-19T11:39:36.933Z</time></trkpt><trkpt lat="44.3482117" lon="10.408785"><ele>1088.0</ele><time>2026-04-19T11:39:37.956Z</time></trkpt><trkpt lat="44.3481417" lon="10.4087617"><ele>1085.8</ele><time>2026-04-19T11:39:39.019Z</time></trkpt><trkpt lat="44.3480183" lon="10.408685"><ele>1083.6</ele><time>2026-04-19T11:39:40.928Z</time></trkpt><trkpt lat="44.3479633" lon="10.40863"><ele>1081.4</ele><time>2026-04-19T11:39:41.91Z</time></trkpt><trkpt lat="44.3478883" lon="10.4085083"><ele>1079.2</ele><time>2026-04-19T11:39:43.988Z</time></trkpt><trkpt lat="44.3478317" lon="10.4084067"><ele>1077.0</ele><time>2026-04-19T11:39:45.939Z</time></trkpt><trkpt lat="44.3477733" lon="10.4084483"><ele>1077.0</ele><time>2026-04-19T11:39:47.966Z</time></trkpt><trkpt lat="44.3477633" lon="10.4085967"><ele>1077.0</ele><time>2026-04-19T11:39:49.925Z</time></trkpt><trkpt lat="44.3477817" lon="10.4086867"><ele>1077.0</ele><time>2026-04-19T11:39:50.925Z</time></trkpt><trkpt lat="44.34783" lon="10.4087833"><ele>1077.0</ele><time>2026-04-19T11:39:51.917Z</time></trkpt><trkpt lat="44.3478917" lon="10.408875"><ele>1077.0</ele><time>2026-04-19T11:39:52.919Z</time></trkpt><trkpt lat="44.34796" lon="10.408955"><ele>1077.0</ele><time>2026-04-19T11:39:53.94Z</time></trkpt><trkpt lat="44.3480317" lon="10.4090217"><ele>1075.2</ele><time>2026-04-19T11:39:54.948Z</time></trkpt><trkpt lat="44.3480983" lon="10.4091"><ele>1073.4</ele><time>2026-04-19T11:39:55.92Z</time></trkpt><trkpt lat="44.3481683" lon="10.4091867"><ele>1071.6</ele><time>2026-04-19T11:39:56.934Z</time></trkpt><trkpt lat="44.34823" lon="10.40929"><ele>1069.8</ele><time>2026-04-19T11:39:57.923Z</time></trkpt><trkpt lat="44.348275" lon="10.4094083"><ele>1068.0</ele><time>2026-04-19T11:39:58.915Z</time></trkpt><trkpt lat="44.3483267" lon="10.4095183"><ele>1068.0</ele><time>2026-04-19T11:39:59.914Z</time></trkpt><trkpt lat="44.3483817" lon="10.4096217"><ele>1068.0</ele><time>2026-04-19T11:40:00.91Z</time></trkpt><trkpt lat="44.3484333" lon="10.4097117"><ele>1068.0</ele><time>2026-04-19T11:40:01.992Z</time></trkpt><trkpt lat="44.3484883" lon="10.4098083"><ele>1068.0</ele><time>2026-04-19T11:40:02.923Z</time></trkpt><trkpt lat="44.348545" lon="10.4099067"><ele>1068.0</ele><time>2026-04-19T11:40:03.918Z</time></trkpt><trkpt lat="44.3486017" lon="10.4099933"><ele>1068.0</ele><time>2026-04-19T11:40:04.915Z</time></trkpt><trkpt lat="44.3486617" lon="10.4100733"><ele>1066.1666666666667</ele><time>2026-04-19T11:40:05.986Z</time></trkpt><trkpt lat="44.3487233" lon="10.4101517"><ele>1064.3333333333333</ele><time>2026-04-19T11:40:06.947Z</time></trkpt><trkpt lat="44.348785" lon="10.4102283"><ele>1062.5</ele><time>2026-04-19T11:40:07.931Z</time></trkpt><trkpt lat="44.3488517" lon="10.410305"><ele>1060.6666666666665</ele><time>2026-04-19T11:40:08.923Z</time></trkpt><trkpt lat="44.348915" lon="10.4103817"><ele>1058.8333333333333</ele><time>2026-04-19T11:40:09.908Z</time></trkpt><trkpt lat="44.3489767" lon="10.410465"><ele>1057.0</ele><time>2026-04-19T11:40:10.96Z</time></trkpt><trkpt lat="44.3490317" lon="10.4105467"><ele>1053.5</ele><time>2026-04-19T11:40:11.956Z</time></trkpt><trkpt lat="44.3490867" lon="10.4106233"><ele>1050.0</ele><time>2026-04-19T11:40:12.936Z</time></trkpt><trkpt lat="44.349145" lon="10.4106883"><ele>1046.5</ele><time>2026-04-19T11:40:13.928Z</time></trkpt><trkpt lat="44.3492083" lon="10.4107333"><ele>1043.0</ele><time>2026-04-19T11:40:14.91Z</time></trkpt><trkpt lat="44.3492783" lon="10.4107533"><ele>1039.5</ele><time>2026-04-19T11:40:15.919Z</time></trkpt><trkpt lat="44.3493533" lon="10.4107367"><ele>1036.0</ele><time>2026-04-19T11:40:16.943Z</time></trkpt><trkpt lat="44.3494317" lon="10.4107"><ele>1036.0</ele><time>2026-04-19T11:40:17.91Z</time></trkpt><trkpt lat="44.3495017" lon="10.41066"><ele>1036.0</ele><time>2026-04-19T11:40:18.935Z</time></trkpt><trkpt lat="44.3495783" lon="10.4106533"><ele>1036.0</ele><time>2026-04-19T11:40:19.92Z</time></trkpt><trkpt lat="44.3496483" lon="10.4106867"><ele>1036.0</ele><time>2026-04-19T11:40:20.912Z</time></trkpt><trkpt lat="44.349725" lon="10.4107483"><ele>1036.0</ele><time>2026-04-19T11:40:21.951Z</time></trkpt><trkpt lat="44.3497933" lon="10.4108217"><ele>1036.0</ele><time>2026-04-19T11:40:22.951Z</time></trkpt><trkpt lat="44.3498617" lon="10.410895"><ele>1036.2</ele><time>2026-04-19T11:40:23.912Z</time></trkpt><trkpt lat="44.3499183" lon="10.4109817"><ele>1036.3999999999999</ele><time>2026-04-19T11:40:24.911Z</time></trkpt><trkpt lat="44.3499767" lon="10.4110783"><ele>1036.6</ele><time>2026-04-19T11:40:25.911Z</time></trkpt><trkpt lat="44.3500467" lon="10.411165"><ele>1036.8</ele><time>2026-04-19T11:40:26.959Z</time></trkpt><trkpt lat="44.3501267" lon="10.411245"><ele>1037.0</ele><time>2026-04-19T11:40:27.936Z</time></trkpt><trkpt lat="44.3502167" lon="10.4113117"><ele>1032.0</ele><time>2026-04-19T11:40:28.913Z</time></trkpt><trkpt lat="44.3503133" lon="10.411375"><ele>1027.0</ele><time>2026-04-19T11:40:29.913Z</time></trkpt><trkpt lat="44.350415" lon="10.411425"><ele>1022.0</ele><time>2026-04-19T11:40:30.927Z</time></trkpt><trkpt lat="44.3505033" lon="10.4114583"><ele>1017.0</ele><time>2026-04-19T11:40:31.926Z</time></trkpt><trkpt lat="44.3505967" lon="10.4114783"><ele>1012.0</ele><time>2026-04-19T11:40:32.932Z</time></trkpt><trkpt lat="44.35068" lon="10.4114917"><ele>1012.0</ele><time>2026-04-19T11:40:33.93Z</time></trkpt><trkpt lat="44.3508" lon="10.4114933"><ele>1012.0</ele><time>2026-04-19T11:40:35.922Z</time></trkpt><trkpt lat="44.3508867" lon="10.4113767"><ele>1012.0</ele><time>2026-04-19T11:40:37.911Z</time></trkpt><trkpt lat="44.3509183" lon="10.4112567"><ele>1012.0</ele><time>2026-04-19T11:40:38.924Z</time></trkpt><trkpt lat="44.3509483" lon="10.411125"><ele>1012.0</ele><time>2026-04-19T11:40:39.923Z</time></trkpt><trkpt lat="44.3509833" lon="10.4110033"><ele>1013.4999999999999</ele><time>2026-04-19T11:40:40.915Z</time></trkpt><trkpt lat="44.35101" lon="10.41089"><ele>1015.0</ele><time>2026-04-19T11:40:41.944Z</time></trkpt><trkpt lat="44.3510267" lon="10.4107783"><ele>1016.5</ele><time>2026-04-19T11:40:42.92Z</time></trkpt><trkpt lat="44.3510317" lon="10.4106667"><ele>1018.0</ele><time>2026-04-19T11:40:43.923Z</time></trkpt><trkpt lat="44.351015" lon="10.41056"><ele>1019.4999999999999</ele><time>2026-04-19T11:40:44.943Z</time></trkpt><trkpt lat="44.35099" lon="10.4104483"><ele>1021.0</ele><time>2026-04-19T11:40:45.911Z</time></trkpt><trkpt lat="44.3509667" lon="10.410335"><ele>1021.5999999999999</ele><time>2026-04-19T11:40:46.93Z</time></trkpt><trkpt lat="44.3509617" lon="10.4102283"><ele>1022.1999999999999</ele><time>2026-04-19T11:40:47.911Z</time></trkpt><trkpt lat="44.350985" lon="10.4101167"><ele>1022.8000000000001</ele><time>2026-04-19T11:40:48.922Z</time></trkpt><trkpt lat="44.35103" lon="10.41"><ele>1023.4000000000001</ele><time>2026-04-19T11:40:49.935Z</time></trkpt><trkpt lat="44.3510867" lon="10.40988"><ele>1024.0</ele><time>2026-04-19T11:40:50.932Z</time></trkpt><trkpt lat="44.3511433" lon="10.4097667"><ele>1023.9999999999999</ele><time>2026-04-19T11:40:51.914Z</time></trkpt><trkpt lat="44.351205" lon="10.4096683"><ele>1024.0</ele><time>2026-04-19T11:40:52.961Z</time></trkpt><trkpt lat="44.35127" lon="10.4095817"><ele>1024.0</ele><time>2026-04-19T11:40:53.963Z</time></trkpt><trkpt lat="44.3513317" lon="10.4094983"><ele>1024.0</ele><time>2026-04-19T11:40:54.936Z</time></trkpt><trkpt lat="44.3513883" lon="10.4094033"><ele>1023.9999999999999</ele><time>2026-04-19T11:40:55.947Z</time></trkpt><trkpt lat="44.351445" lon="10.4093033"><ele>1024.0</ele><time>2026-04-19T11:40:56.956Z</time></trkpt><trkpt lat="44.3515017" lon="10.409205"><ele>1019.6</ele><time>2026-04-19T11:40:57.916Z</time></trkpt><trkpt lat="44.35156" lon="10.409115"><ele>1015.2</ele><time>2026-04-19T11:40:58.973Z</time></trkpt><trkpt lat="44.35162" lon="10.4090383"><ele>1010.8000000000001</ele><time>2026-04-19T11:40:59.912Z</time></trkpt><trkpt lat="44.3516983" lon="10.4089833"><ele>1006.4000000000001</ele><time>2026-04-19T11:41:00.913Z</time></trkpt><trkpt lat="44.35179" lon="10.4089333"><ele>1002.0</ele><time>2026-04-19T11:41:01.936Z</time></trkpt><trkpt lat="44.3518833" lon="10.4088917"><ele>1002.0</ele><time>2026-04-19T11:41:02.913Z</time></trkpt><trkpt lat="44.35197" lon="10.4088517"><ele>1002.0</ele><time>2026-04-19T11:41:03.92Z</time></trkpt><trkpt lat="44.3520583" lon="10.4088217"><ele>1002.0</ele><time>2026-04-19T11:41:04.91Z</time></trkpt><trkpt lat="44.35215" lon="10.4087967"><ele>1002.0</ele><time>2026-04-19T11:41:05.951Z</time></trkpt><trkpt lat="44.35224" lon="10.4087667"><ele>1002.0</ele><time>2026-04-19T11:41:06.903Z</time></trkpt><trkpt lat="44.3523283" lon="10.40874"><ele>1003.0</ele><time>2026-04-19T11:41:07.926Z</time></trkpt><trkpt lat="44.3524183" lon="10.4087167"><ele>1004.0</ele><time>2026-04-19T11:41:08.91Z</time></trkpt><trkpt lat="44.3525017" lon="10.408695"><ele>1005.0</ele><time>2026-04-19T11:41:09.934Z</time></trkpt><trkpt lat="44.3525867" lon="10.4086783"><ele>1006.0</ele><time>2026-04-19T11:41:10.957Z</time></trkpt><trkpt lat="44.3526717" lon="10.4086733"><ele>1007.0</ele><time>2026-04-19T11:41:11.925Z</time></trkpt><trkpt lat="44.3527533" lon="10.40867"><ele>1008.0</ele><time>2026-04-19T11:41:12.909Z</time></trkpt><trkpt lat="44.3528367" lon="10.4086683"><ele>1008.0</ele><time>2026-04-19T11:41:13.939Z</time></trkpt><trkpt lat="44.35292" lon="10.408665"><ele>1008.0</ele><time>2026-04-19T11:41:14.928Z</time></trkpt><trkpt lat="44.3530067" lon="10.40867"><ele>1008.0</ele><time>2026-04-19T11:41:15.922Z</time></trkpt><trkpt lat="44.353095" lon="10.408665"><ele>1008.0</ele><time>2026-04-19T11:41:16.972Z</time></trkpt><trkpt lat="44.3531833" lon="10.4086417"><ele>1008.0</ele><time>2026-04-19T11:41:17.91Z</time></trkpt><trkpt lat="44.3532683" lon="10.4086117"><ele>1008.0</ele><time>2026-04-19T11:41:18.911Z</time></trkpt><trkpt lat="44.3533467" lon="10.40857"><ele>1004.3333333333334</ele><time>2026-04-19T11:41:19.916Z</time></trkpt><trkpt lat="44.353425" lon="10.4085467"><ele>1000.6666666666667</ele><time>2026-04-19T11:41:20.913Z</time></trkpt><trkpt lat="44.3534983" lon="10.408555"><ele>997.0</ele><time>2026-04-19T11:41:21.911Z</time></trkpt><trkpt lat="44.353575" lon="10.408575"><ele>993.3333333333334</ele><time>2026-04-19T11:41:22.971Z</time></trkpt><trkpt lat="44.35365" lon="10.4086"><ele>989.6666666666667</ele><time>2026-04-19T11:41:23.924Z</time></trkpt><trkpt lat="44.353725" lon="10.4086383"><ele>986.0</ele><time>2026-04-19T11:41:24.911Z</time></trkpt><trkpt lat="44.353795" lon="10.4086867"><ele>986.0000000000001</ele><time>2026-04-19T11:41:25.968Z</time></trkpt><trkpt lat="44.3538583" lon="10.4087433"><ele>986.0</ele><time>2026-04-19T11:41:26.953Z</time></trkpt><trkpt lat="44.3539133" lon="10.4088017"><ele>986.0</ele><time>2026-04-19T11:41:27.909Z</time></trkpt><trkpt lat="44.354005" lon="10.4088967"><ele>986.0</ele><time>2026-04-19T11:41:29.92Z</time></trkpt><trkpt lat="44.3540667" lon="10.4089917"><ele>986.0000000000001</ele><time>2026-04-19T11:41:31.956Z</time></trkpt><trkpt lat="44.35406" lon="10.4090967"><ele>986.0</ele><time>2026-04-19T11:41:33.909Z</time></trkpt><trkpt lat="44.3539433" lon="10.409155"><ele>981.6666666666667</ele><time>2026-04-19T11:41:35.918Z</time></trkpt><trkpt lat="44.35387" lon="10.409175"><ele>977.3333333333334</ele><time>2026-04-19T11:41:36.911Z</time></trkpt><trkpt lat="44.3537933" lon="10.4091967"><ele>973.0</ele><time>2026-04-19T11:41:37.911Z</time></trkpt><trkpt lat="44.3537217" lon="10.4092067"><ele>968.6666666666667</ele><time>2026-04-19T11:41:38.936Z</time></trkpt><trkpt lat="44.3536467" lon="10.4092167"><ele>964.3333333333334</ele><time>2026-04-19T11:41:39.917Z</time></trkpt><trkpt lat="44.353565" lon="10.4092533"><ele>960.0</ele><time>2026-04-19T11:41:40.923Z</time></trkpt><trkpt lat="44.3534833" lon="10.409315"><ele>960.0</ele><time>2026-04-19T11:41:41.908Z</time></trkpt><trkpt lat="44.35342" lon="10.4093933"><ele>960.0</ele><time>2026-04-19T11:41:42.922Z</time></trkpt><trkpt lat="44.3533633" lon="10.4094767"><ele>960.0</ele><time>2026-04-19T11:41:43.92Z</time></trkpt><trkpt lat="44.35331" lon="10.40955"><ele>960.0</ele><time>2026-04-19T11:41:44.939Z</time></trkpt><trkpt lat="44.353265" lon="10.4096233"><ele>960.0</ele><time>2026-04-19T11:41:45.915Z</time></trkpt><trkpt lat="44.3532367" lon="10.409715"><ele>960.0</ele><time>2026-04-19T11:41:46.956Z</time></trkpt><trkpt lat="44.3532367" lon="10.4098283"><ele>957.8333333333334</ele><time>2026-04-19T11:41:47.926Z</time></trkpt><trkpt lat="44.3532533" lon="10.4099333"><ele>955.6666666666667</ele><time>2026-04-19T11:41:48.927Z</time></trkpt><trkpt lat="44.3533033" lon="10.41004"><ele>953.5</ele><time>2026-04-19T11:41:49.912Z</time></trkpt><trkpt lat="44.3533567" lon="10.41014"><ele>951.3333333333334</ele><time>2026-04-19T11:41:50.982Z</time></trkpt><trkpt lat="44.353415" lon="10.4102417"><ele>949.1666666666667</ele><time>2026-04-19T11:41:51.934Z</time></trkpt><trkpt lat="44.35347" lon="10.41034"><ele>947.0</ele><time>2026-04-19T11:41:52.944Z</time></trkpt><trkpt lat="44.3535167" lon="10.4104433"><ele>946.0000000000001</ele><time>2026-04-19T11:41:53.925Z</time></trkpt><trkpt lat="44.3535583" lon="10.410545"><ele>945.0</ele><time>2026-04-19T11:41:54.923Z</time></trkpt><trkpt lat="44.3535967" lon="10.4106367"><ele>944.0</ele><time>2026-04-19T11:41:55.909Z</time></trkpt><trkpt lat="44.3536283" lon="10.4107283"><ele>943.0</ele><time>2026-04-19T11:41:56.922Z</time></trkpt><trkpt lat="44.3536483" lon="10.41083"><ele>942.0000000000001</ele><time>2026-04-19T11:41:57.927Z</time></trkpt><trkpt lat="44.353655" lon="10.410935"><ele>941.0</ele><time>2026-04-19T11:41:58.922Z</time></trkpt><trkpt lat="44.35365" lon="10.4110367"><ele>941.0000000000001</ele><time>2026-04-19T11:41:59.929Z</time></trkpt><trkpt lat="44.35363" lon="10.411135"><ele>941.0</ele><time>2026-04-19T11:42:00.918Z</time></trkpt><trkpt lat="44.3536" lon="10.41124"><ele>941.0</ele><time>2026-04-19T11:42:01.912Z</time></trkpt><trkpt lat="44.3535617" lon="10.41134"><ele>941.0</ele><time>2026-04-19T11:42:02.899Z</time></trkpt><trkpt lat="44.3535183" lon="10.41144"><ele>941.0000000000001</ele><time>2026-04-19T11:42:03.91Z</time></trkpt><trkpt lat="44.3534783" lon="10.4115433"><ele>941.0</ele><time>2026-04-19T11:42:04.941Z</time></trkpt><trkpt lat="44.35344" lon="10.4116467"><ele>939.8</ele><time>2026-04-19T11:42:05.941Z</time></trkpt><trkpt lat="44.3533833" lon="10.4117517"><ele>938.5999999999999</ele><time>2026-04-19T11:42:06.907Z</time></trkpt><trkpt lat="44.3533183" lon="10.41186"><ele>937.4</ele><time>2026-04-19T11:42:07.915Z</time></trkpt><trkpt lat="44.3532467" lon="10.4119667"><ele>936.2</ele><time>2026-04-19T11:42:08.938Z</time></trkpt><trkpt lat="44.3531767" lon="10.41207"><ele>935.0</ele><time>2026-04-19T11:42:09.921Z</time></trkpt><trkpt lat="44.3531017" lon="10.41216"><ele>939.2</ele><time>2026-04-19T11:42:10.941Z</time></trkpt><trkpt lat="44.35302" lon="10.4122367"><ele>943.4</ele><time>2026-04-19T11:42:11.912Z</time></trkpt><trkpt lat="44.3529417" lon="10.4123083"><ele>947.5999999999999</ele><time>2026-04-19T11:42:12.957Z</time></trkpt><trkpt lat="44.3528783" lon="10.412395"><ele>951.8</ele><time>2026-04-19T11:42:13.93Z</time></trkpt><trkpt lat="44.3528233" lon="10.4125017"><ele>956.0</ele><time>2026-04-19T11:42:14.957Z</time></trkpt><trkpt lat="44.3527933" lon="10.4126367"><ele>956.0</ele><time>2026-04-19T11:42:15.943Z</time></trkpt><trkpt lat="44.352775" lon="10.4127767"><ele>955.9999999999999</ele><time>2026-04-19T11:42:16.924Z</time></trkpt><trkpt lat="44.35275" lon="10.412915"><ele>955.9999999999999</ele><time>2026-04-19T11:42:17.937Z</time></trkpt><trkpt lat="44.3527283" lon="10.4130417"><ele>956.0</ele><time>2026-04-19T11:42:18.907Z</time></trkpt><trkpt lat="44.3527" lon="10.4131733"><ele>956.0</ele><time>2026-04-19T11:42:19.91Z</time></trkpt><trkpt lat="44.3526717" lon="10.41331"><ele>952.4</ele><time>2026-04-19T11:42:20.923Z</time></trkpt><trkpt lat="44.3526467" lon="10.4134383"><ele>948.8</ele><time>2026-04-19T11:42:21.912Z</time></trkpt><trkpt lat="44.3526133" lon="10.41356"><ele>945.1999999999999</ele><time>2026-04-19T11:42:22.958Z</time></trkpt><trkpt lat="44.3525817" lon="10.4136683"><ele>941.5999999999999</ele><time>2026-04-19T11:42:23.927Z</time></trkpt><trkpt lat="44.3525683" lon="10.41377"><ele>938.0</ele><time>2026-04-19T11:42:24.908Z</time></trkpt><trkpt lat="44.35258" lon="10.4139217"><ele>938.0</ele><time>2026-04-19T11:42:26.927Z</time></trkpt><trkpt lat="44.352675" lon="10.413975"><ele>938.0</ele><time>2026-04-19T11:42:28.913Z</time></trkpt><trkpt lat="44.352785" lon="10.4139117"><ele>938.0</ele><time>2026-04-19T11:42:30.932Z</time></trkpt><trkpt lat="44.35283" lon="10.4137967"><ele>938.0</ele><time>2026-04-19T11:42:31.934Z</time></trkpt><trkpt lat="44.3528667" lon="10.4136733"><ele>938.0</ele><time>2026-04-19T11:42:32.93Z</time></trkpt><trkpt lat="44.352905" lon="10.4135483"><ele>938.0</ele><time>2026-04-19T11:42:33.916Z</time></trkpt><trkpt lat="44.3529533" lon="10.4134367"><ele>938.0</ele><time>2026-04-19T11:42:34.936Z</time></trkpt><trkpt lat="44.3530033" lon="10.413325"><ele>938.0</ele><time>2026-04-19T11:42:35.967Z</time></trkpt><trkpt lat="44.3530483" lon="10.413215"><ele>938.0</ele><time>2026-04-19T11:42:36.943Z</time></trkpt><trkpt lat="44.3530867" lon="10.413105"><ele>938.0</ele><time>2026-04-19T11:42:37.91Z</time></trkpt><trkpt lat="44.3531217" lon="10.4129917"><ele>934.8333333333334</ele><time>2026-04-19T11:42:38.928Z</time></trkpt><trkpt lat="44.3531533" lon="10.412885"><ele>931.6666666666667</ele><time>2026-04-19T11:42:39.91Z</time></trkpt><trkpt lat="44.3531917" lon="10.4127883"><ele>928.5</ele><time>2026-04-19T11:42:40.978Z</time></trkpt><trkpt lat="44.3532417" lon="10.4127117"><ele>925.3333333333333</ele><time>2026-04-19T11:42:41.954Z</time></trkpt><trkpt lat="44.3533133" lon="10.4126617"><ele>922.1666666666666</ele><time>2026-04-19T11:42:42.948Z</time></trkpt><trkpt lat="44.3534017" lon="10.4126383"><ele>919.0</ele><time>2026-04-19T11:42:43.921Z</time></trkpt><trkpt lat="44.3534983" lon="10.41263"><ele>919.0</ele><time>2026-04-19T11:42:44.947Z</time></trkpt><trkpt lat="44.3535917" lon="10.4126417"><ele>919.0000000000001</ele><time>2026-04-19T11:42:45.919Z</time></trkpt><trkpt lat="44.3536867" lon="10.4126617"><ele>919.0000000000001</ele><time>2026-04-19T11:42:46.973Z</time></trkpt><trkpt lat="44.3537767" lon="10.4126783"><ele>919.0</ele><time>2026-04-19T11:42:47.967Z</time></trkpt><trkpt lat="44.3538667" lon="10.4127117"><ele>919.0</ele><time>2026-04-19T11:42:48.947Z</time></trkpt><trkpt lat="44.3539533" lon="10.4127567"><ele>916.6666666666666</ele><time>2026-04-19T11:42:49.934Z</time></trkpt><trkpt lat="44.3540317" lon="10.41281"><ele>914.3333333333333</ele><time>2026-04-19T11:42:50.943Z</time></trkpt><trkpt lat="44.354105" lon="10.4128733"><ele>912.0</ele><time>2026-04-19T11:42:51.942Z</time></trkpt><trkpt lat="44.3541717" lon="10.4129417"><ele>909.6666666666667</ele><time>2026-04-19T11:42:52.969Z</time></trkpt><trkpt lat="44.35424" lon="10.413015"><ele>907.3333333333334</ele><time>2026-04-19T11:42:53.954Z</time></trkpt><trkpt lat="44.3543083" lon="10.413095"><ele>905.0</ele><time>2026-04-19T11:42:54.94Z</time></trkpt><trkpt lat="44.3543883" lon="10.41317"><ele>902.2</ele><time>2026-04-19T11:42:55.962Z</time></trkpt><trkpt lat="44.354465" lon="10.41324"><ele>899.4</ele><time>2026-04-19T11:42:56.965Z</time></trkpt><trkpt lat="44.3545417" lon="10.4133083"><ele>896.5999999999999</ele><time>2026-04-19T11:42:57.91Z</time></trkpt><trkpt lat="44.354615" lon="10.4133783"><ele>893.8</ele><time>2026-04-19T11:42:58.914Z</time></trkpt><trkpt lat="44.3546883" lon="10.4134517"><ele>891.0</ele><time>2026-04-19T11:42:59.912Z</time></trkpt><trkpt lat="44.3547667" lon="10.4135317"><ele>890.1999999999999</ele><time>2026-04-19T11:43:00.911Z</time></trkpt><trkpt lat="44.354845" lon="10.4136167"><ele>889.3999999999999</ele><time>2026-04-19T11:43:01.938Z</time></trkpt><trkpt lat="44.3549233" lon="10.4137017"><ele>888.6</ele><time>2026-04-19T11:43:02.928Z</time></trkpt><trkpt lat="44.3549967" lon="10.4137817"><ele>887.8</ele><time>2026-04-19T11:43:03.915Z</time></trkpt><trkpt lat="44.355065" lon="10.4138583"><ele>887.0</ele><time>2026-04-19T11:43:04.975Z</time></trkpt><trkpt lat="44.35513" lon="10.41394"><ele>885.0000000000001</ele><time>2026-04-19T11:43:05.964Z</time></trkpt><trkpt lat="44.3551933" lon="10.4140183"><ele>883.0</ele><time>2026-04-19T11:43:06.913Z</time></trkpt><trkpt lat="44.35525" lon="10.414095"><ele>881.0</ele><time>2026-04-19T11:43:07.911Z</time></trkpt><trkpt lat="44.3552983" lon="10.414175"><ele>879.0</ele><time>2026-04-19T11:43:08.909Z</time></trkpt><trkpt lat="44.3553333" lon="10.4142517"><ele>877.0000000000001</ele><time>2026-04-19T11:43:09.909Z</time></trkpt><trkpt lat="44.3553583" lon="10.4144217"><ele>875.0</ele><time>2026-04-19T11:43:11.915Z</time></trkpt><trkpt lat="44.3553233" lon="10.414585"><ele>873.0</ele><time>2026-04-19T11:43:13.94Z</time></trkpt><trkpt lat="44.3552233" lon="10.4146967"><ele>871.0</ele><time>2026-04-19T11:43:15.919Z</time></trkpt><trkpt lat="44.3551333" lon="10.41472"><ele>869.0</ele><time>2026-04-19T11:43:16.924Z</time></trkpt><trkpt lat="44.3550217" lon="10.4147183"><ele>867.0</ele><time>2026-04-19T11:43:17.929Z</time></trkpt><trkpt lat="44.3549083" lon="10.41472"><ele>865.0</ele><time>2026-04-19T11:43:18.925Z</time></trkpt><trkpt lat="44.3548033" lon="10.4147133"><ele>864.9999999999999</ele><time>2026-04-19T11:43:19.935Z</time></trkpt><trkpt lat="44.35471" lon="10.4147117"><ele>865.0</ele><time>2026-04-19T11:43:20.911Z</time></trkpt><trkpt lat="44.3546317" lon="10.4147167"><ele>865.0</ele><time>2026-04-19T11:43:21.94Z</time></trkpt><trkpt lat="44.354555" lon="10.41474"><ele>865.0</ele><time>2026-04-19T11:43:22.912Z</time></trkpt><trkpt lat="44.35448" lon="10.4147917"><ele>864.9999999999999</ele><time>2026-04-19T11:43:23.936Z</time></trkpt><trkpt lat="44.3544167" lon="10.4148617"><ele>865.0</ele><time>2026-04-19T11:43:24.91Z</time></trkpt><trkpt lat="44.3543617" lon="10.41494"><ele>864.9999999999999</ele><time>2026-04-19T11:43:25.917Z</time></trkpt><trkpt lat="44.3543133" lon="10.4150217"><ele>865.0</ele><time>2026-04-19T11:43:26.91Z</time></trkpt><trkpt lat="44.35427" lon="10.4150983"><ele>865.0</ele><time>2026-04-19T11:43:27.926Z</time></trkpt><trkpt lat="44.3542317" lon="10.4151717"><ele>865.0</ele><time>2026-04-19T11:43:28.915Z</time></trkpt><trkpt lat="44.354195" lon="10.4152433"><ele>864.9999999999999</ele><time>2026-04-19T11:43:29.908Z</time></trkpt><trkpt lat="44.3541617" lon="10.41532"><ele>865.0</ele><time>2026-04-19T11:43:30.908Z</time></trkpt><trkpt lat="44.3541133" lon="10.4154833"><ele>864.3333333333333</ele><time>2026-04-19T11:43:32.924Z</time></trkpt><trkpt lat="44.3541033" lon="10.4155733"><ele>863.6666666666666</ele><time>2026-04-19T11:43:33.95Z</time></trkpt><trkpt lat="44.3540983" lon="10.4156667"><ele>863.0</ele><time>2026-04-19T11:43:34.932Z</time></trkpt><trkpt lat="44.354105" lon="10.4158283"><ele>862.3333333333333</ele><time>2026-04-19T11:43:36.924Z</time></trkpt><trkpt lat="44.3541267" lon="10.4159133"><ele>861.6666666666666</ele><time>2026-04-19T11:43:38.93Z</time></trkpt><trkpt lat="44.3541933" lon="10.41597"><ele>861.0</ele><time>2026-04-19T11:43:41.909Z</time></trkpt><trkpt lat="44.3542383" lon="10.4160483"><ele>861.0</ele><time>2026-04-19T11:43:44.933Z</time></trkpt><trkpt lat="44.35427" lon="10.41614"><ele>861.0</ele><time>2026-04-19T11:43:48.92Z</time></trkpt><trkpt lat="44.354325" lon="10.4162567"><ele>861.0</ele><time>2026-04-19T11:45:09.929Z</time></trkpt><trkpt lat="44.35437" lon="10.4164"><ele>861.0</ele><time>2026-04-19T11:45:11.907Z</time></trkpt><trkpt lat="44.3543917" lon="10.4164983"><ele>861.0</ele><time>2026-04-19T11:45:12.911Z</time></trkpt><trkpt lat="44.3544117" lon="10.4166083"><ele>861.0</ele><time>2026-04-19T11:45:13.939Z</time></trkpt><trkpt lat="44.3544367" lon="10.4167383"><ele>861.0</ele><time>2026-04-19T11:45:14.93Z</time></trkpt><trkpt lat="44.3544817" lon="10.4168717"><ele>861.0</ele><time>2026-04-19T11:45:15.91Z</time></trkpt><trkpt lat="44.35454" lon="10.4170183"><ele>861.0</ele><time>2026-04-19T11:45:16.936Z</time></trkpt><trkpt lat="44.3546017" lon="10.4171767"><ele>861.0</ele><time>2026-04-19T11:45:17.937Z</time></trkpt><trkpt lat="44.3546517" lon="10.4173433"><ele>860.5</ele><time>2026-04-19T11:45:18.94Z</time></trkpt><trkpt lat="44.3546833" lon="10.4175117"><ele>860.0</ele><time>2026-04-19T11:45:19.923Z</time></trkpt><trkpt lat="44.3547033" lon="10.4176817"><ele>859.5</ele><time>2026-04-19T11:45:20.926Z</time></trkpt><trkpt lat="44.3547117" lon="10.4178517"><ele>859.0</ele><time>2026-04-19T11:45:21.908Z</time></trkpt><trkpt lat="44.3547067" lon="10.4180233"><ele>857.25</ele><time>2026-04-19T11:45:22.911Z</time></trkpt><trkpt lat="44.3546983" lon="10.4181883"><ele>855.5</ele><time>2026-04-19T11:45:23.944Z</time></trkpt><trkpt lat="44.354675" lon="10.4183467"><ele>853.75</ele><time>2026-04-19T11:45:24.936Z</time></trkpt><trkpt lat="44.3546367" lon="10.418495"><ele>852.0</ele><time>2026-04-19T11:45:25.923Z</time></trkpt><trkpt lat="44.3545933" lon="10.418635"><ele>852.0</ele><time>2026-04-19T11:45:26.946Z</time></trkpt><trkpt lat="44.354555" lon="10.4187633"><ele>852.0</ele><time>2026-04-19T11:45:27.914Z</time></trkpt><trkpt lat="44.354535" lon="10.418875"><ele>852.0</ele><time>2026-04-19T11:45:28.919Z</time></trkpt><trkpt lat="44.3545367" lon="10.4189717"><ele>852.0</ele><time>2026-04-19T11:45:29.923Z</time></trkpt><trkpt lat="44.3545683" lon="10.419055"><ele>852.0</ele><time>2026-04-19T11:45:30.949Z</time></trkpt><trkpt lat="44.3546617" lon="10.4190817"><ele>852.0</ele><time>2026-04-19T11:45:31.923Z</time></trkpt><trkpt lat="44.3547683" lon="10.4190767"><ele>846.75</ele><time>2026-04-19T11:45:32.908Z</time></trkpt><trkpt lat="44.354895" lon="10.419065"><ele>841.5</ele><time>2026-04-19T11:45:33.907Z</time></trkpt><trkpt lat="44.3550267" lon="10.4190583"><ele>836.25</ele><time>2026-04-19T11:45:34.961Z</time></trkpt><trkpt lat="44.355155" lon="10.4190533"><ele>831.0</ele><time>2026-04-19T11:45:35.934Z</time></trkpt><trkpt lat="44.3552667" lon="10.4190467"><ele>831.0</ele><time>2026-04-19T11:45:36.914Z</time></trkpt><trkpt lat="44.3553633" lon="10.41904"><ele>831.0</ele><time>2026-04-19T11:45:37.917Z</time></trkpt><trkpt lat="44.3554483" lon="10.4190367"><ele>831.0</ele><time>2026-04-19T11:45:38.915Z</time></trkpt><trkpt lat="44.3555267" lon="10.4190483"><ele>831.0</ele><time>2026-04-19T11:45:39.965Z</time></trkpt><trkpt lat="44.35559" lon="10.4190783"><ele>831.0</ele><time>2026-04-19T11:45:40.95Z</time></trkpt><trkpt lat="44.3556567" lon="10.4192283"><ele>829.5</ele><time>2026-04-19T11:45:42.91Z</time></trkpt><trkpt lat="44.355675" lon="10.41935"><ele>828.0</ele><time>2026-04-19T11:45:43.96Z</time></trkpt><trkpt lat="44.355705" lon="10.4194617"><ele>826.5</ele><time>2026-04-19T11:45:44.922Z</time></trkpt><trkpt lat="44.355725" lon="10.4195767"><ele>825.0</ele><time>2026-04-19T11:45:45.912Z</time></trkpt><trkpt lat="44.3557233" lon="10.4196917"><ele>823.5</ele><time>2026-04-19T11:45:46.937Z</time></trkpt><trkpt lat="44.3556933" lon="10.4198117"><ele>822.0</ele><time>2026-04-19T11:45:47.966Z</time></trkpt><trkpt lat="44.3556333" lon="10.41992"><ele>822.5</ele><time>2026-04-19T11:45:48.955Z</time></trkpt><trkpt lat="44.355545" lon="10.4200133"><ele>823.0</ele><time>2026-04-19T11:45:49.939Z</time></trkpt><trkpt lat="44.35543" lon="10.4201067"><ele>823.5</ele><time>2026-04-19T11:45:50.93Z</time></trkpt><trkpt lat="44.3553033" lon="10.4202117"><ele>824.0</ele><time>2026-04-19T11:45:51.939Z</time></trkpt><trkpt lat="44.3551817" lon="10.4203283"><ele>824.0</ele><time>2026-04-19T11:45:52.967Z</time></trkpt><trkpt lat="44.3550617" lon="10.4204617"><ele>824.0</ele><time>2026-04-19T11:45:53.952Z</time></trkpt><trkpt lat="44.3549567" lon="10.4206"><ele>824.0</ele><time>2026-04-19T11:45:54.931Z</time></trkpt><trkpt lat="44.3548667" lon="10.4207233"><ele>824.0</ele><time>2026-04-19T11:45:55.93Z</time></trkpt><trkpt lat="44.35479" lon="10.420815"><ele>821.2</ele><time>2026-04-19T11:45:56.97Z</time></trkpt><trkpt lat="44.3547167" lon="10.4208717"><ele>818.4000000000001</ele><time>2026-04-19T11:45:57.916Z</time></trkpt><trkpt lat="44.3546367" lon="10.4208967"><ele>815.6</ele><time>2026-04-19T11:45:58.932Z</time></trkpt><trkpt lat="44.3545417" lon="10.420875"><ele>812.8</ele><time>2026-04-19T11:45:59.91Z</time></trkpt><trkpt lat="44.354435" lon="10.42084"><ele>810.0</ele><time>2026-04-19T11:46:00.974Z</time></trkpt><trkpt lat="44.3543267" lon="10.42082"><ele>810.0</ele><time>2026-04-19T11:46:01.946Z</time></trkpt><trkpt lat="44.354225" lon="10.420845"><ele>810.0</ele><time>2026-04-19T11:46:02.911Z</time></trkpt><trkpt lat="44.3541383" lon="10.4209183"><ele>810.0</ele><time>2026-04-19T11:46:03.976Z</time></trkpt><trkpt lat="44.3540867" lon="10.4210183"><ele>810.0</ele><time>2026-04-19T11:46:04.948Z</time></trkpt><trkpt lat="44.3540567" lon="10.4211267"><ele>810.0</ele><time>2026-04-19T11:46:05.948Z</time></trkpt><trkpt lat="44.3540433" lon="10.4212283"><ele>810.0</ele><time>2026-04-19T11:46:06.933Z</time></trkpt><trkpt lat="44.35404" lon="10.4213233"><ele>810.0</ele><time>2026-04-19T11:46:07.939Z</time></trkpt><trkpt lat="44.3540367" lon="10.4214167"><ele>810.0</ele><time>2026-04-19T11:46:08.916Z</time></trkpt><trkpt lat="44.3540167" lon="10.42152"><ele>810.0</ele><time>2026-04-19T11:46:09.97Z</time></trkpt><trkpt lat="44.3539817" lon="10.4216267"><ele>810.0</ele><time>2026-04-19T11:46:10.94Z</time></trkpt><trkpt lat="44.3539117" lon="10.4217317"><ele>810.0</ele><time>2026-04-19T11:46:11.928Z</time></trkpt><trkpt lat="44.35384" lon="10.42185"><ele>810.0</ele><time>2026-04-19T11:46:12.919Z</time></trkpt><trkpt lat="44.3537783" lon="10.4220117"><ele>810.0</ele><time>2026-04-19T11:46:13.912Z</time></trkpt><trkpt lat="44.3537383" lon="10.4221983"><ele>810.0</ele><time>2026-04-19T11:46:14.975Z</time></trkpt><trkpt lat="44.3537083" lon="10.4224017"><ele>810.0</ele><time>2026-04-19T11:46:15.958Z</time></trkpt><trkpt lat="44.353685" lon="10.4226183"><ele>807.0</ele><time>2026-04-19T11:46:16.92Z</time></trkpt><trkpt lat="44.35366" lon="10.422845"><ele>804.0</ele><time>2026-04-19T11:46:17.911Z</time></trkpt><trkpt lat="44.35362" lon="10.42306"><ele>801.0</ele><time>2026-04-19T11:46:18.914Z</time></trkpt><trkpt lat="44.353575" lon="10.42326"><ele>800.25</ele><time>2026-04-19T11:46:19.937Z</time></trkpt><trkpt lat="44.3535433" lon="10.4234533"><ele>799.5</ele><time>2026-04-19T11:46:20.912Z</time></trkpt><trkpt lat="44.35354" lon="10.4236583"><ele>798.75</ele><time>2026-04-19T11:46:21.919Z</time></trkpt><trkpt lat="44.3535583" lon="10.42387"><ele>798.0</ele><time>2026-04-19T11:46:22.914Z</time></trkpt><trkpt lat="44.3535883" lon="10.42409"><ele>798.0</ele><time>2026-04-19T11:46:23.971Z</time></trkpt><trkpt lat="44.353625" lon="10.42432"><ele>798.0</ele><time>2026-04-19T11:46:24.945Z</time></trkpt><trkpt lat="44.3536617" lon="10.4245567"><ele>798.0</ele><time>2026-04-19T11:46:25.921Z</time></trkpt><trkpt lat="44.3536967" lon="10.4247967"><ele>798.0</ele><time>2026-04-19T11:46:26.926Z</time></trkpt><trkpt lat="44.3537317" lon="10.425035"><ele>798.0</ele><time>2026-04-19T11:46:27.91Z</time></trkpt><trkpt lat="44.3537517" lon="10.425275"><ele>798.0</ele><time>2026-04-19T11:46:28.913Z</time></trkpt><trkpt lat="44.35376" lon="10.425505"><ele>798.0</ele><time>2026-04-19T11:46:29.926Z</time></trkpt><trkpt lat="44.3537667" lon="10.4257183"><ele>798.0</ele><time>2026-04-19T11:46:30.912Z</time></trkpt><trkpt lat="44.3537917" lon="10.4259067"><ele>798.0</ele><time>2026-04-19T11:46:31.942Z</time></trkpt><trkpt lat="44.3538567" lon="10.426065"><ele>798.0</ele><time>2026-04-19T11:46:32.929Z</time></trkpt><trkpt lat="44.3539517" lon="10.4262017"><ele>795.25</ele><time>2026-04-19T11:46:33.91Z</time></trkpt><trkpt lat="44.3540467" lon="10.4263317"><ele>792.5</ele><time>2026-04-19T11:46:34.912Z</time></trkpt><trkpt lat="44.35412" lon="10.426485"><ele>789.75</ele><time>2026-04-19T11:46:35.914Z</time></trkpt><trkpt lat="44.354165" lon="10.4266783"><ele>787.0</ele><time>2026-04-19T11:46:36.907Z</time></trkpt><trkpt lat="44.3541867" lon="10.4269033"><ele>787.0</ele><time>2026-04-19T11:46:37.987Z</time></trkpt><trkpt lat="44.3542167" lon="10.4271433"><ele>787.0</ele><time>2026-04-19T11:46:38.931Z</time></trkpt><trkpt lat="44.354275" lon="10.4273833"><ele>787.0</ele><time>2026-04-19T11:46:39.949Z</time></trkpt><trkpt lat="44.35435" lon="10.4276117"><ele>787.3333333333333</ele><time>2026-04-19T11:46:40.923Z</time></trkpt><trkpt lat="44.3544183" lon="10.4278517"><ele>787.6666666666667</ele><time>2026-04-19T11:46:41.923Z</time></trkpt><trkpt lat="44.354475" lon="10.428095"><ele>788.0</ele><time>2026-04-19T11:46:42.912Z</time></trkpt><trkpt lat="44.3545433" lon="10.428325"><ele>787.6666666666667</ele><time>2026-04-19T11:46:43.925Z</time></trkpt><trkpt lat="44.3546433" lon="10.428535"><ele>787.3333333333333</ele><time>2026-04-19T11:46:44.915Z</time></trkpt><trkpt lat="44.35477" lon="10.4287317"><ele>787.0</ele><time>2026-04-19T11:46:45.926Z</time></trkpt><trkpt lat="44.3549" lon="10.42892"><ele>787.0</ele><time>2026-04-19T11:46:46.908Z</time></trkpt><trkpt lat="44.35503" lon="10.4291017"><ele>787.0</ele><time>2026-04-19T11:46:47.967Z</time></trkpt><trkpt lat="44.3551583" lon="10.4292783"><ele>787.0</ele><time>2026-04-19T11:46:48.908Z</time></trkpt><trkpt lat="44.3552767" lon="10.429465"><ele>791.3333333333333</ele><time>2026-04-19T11:46:49.929Z</time></trkpt><trkpt lat="44.355375" lon="10.42966"><ele>795.6666666666667</ele><time>2026-04-19T11:46:50.917Z</time></trkpt><trkpt lat="44.3554617" lon="10.4298417"><ele>800.0</ele><time>2026-04-19T11:46:51.93Z</time></trkpt><trkpt lat="44.3555367" lon="10.4300067"><ele>800.0</ele><time>2026-04-19T11:46:52.947Z</time></trkpt><trkpt lat="44.355595" lon="10.4301617"><ele>800.0</ele><time>2026-04-19T11:46:53.956Z</time></trkpt><trkpt lat="44.3556283" lon="10.430315"><ele>800.0</ele><time>2026-04-19T11:46:54.92Z</time></trkpt><trkpt lat="44.3556283" lon="10.4304567"><ele>800.0</ele><time>2026-04-19T11:46:55.915Z</time></trkpt><trkpt lat="44.3555817" lon="10.4305917"><ele>800.0</ele><time>2026-04-19T11:46:56.925Z</time></trkpt><trkpt lat="44.355505" lon="10.43071"><ele>800.0</ele><time>2026-04-19T11:46:57.913Z</time></trkpt><trkpt lat="44.3554317" lon="10.4308333"><ele>800.0</ele><time>2026-04-19T11:46:58.913Z</time></trkpt><trkpt lat="44.3553933" lon="10.4309717"><ele>800.0</ele><time>2026-04-19T11:46:59.924Z</time></trkpt><trkpt lat="44.3554033" lon="10.4311283"><ele>800.0</ele><time>2026-04-19T11:47:00.93Z</time></trkpt><trkpt lat="44.3554583" lon="10.431295"><ele>798.0</ele><time>2026-04-19T11:47:01.916Z</time></trkpt><trkpt lat="44.3555317" lon="10.4314717"><ele>796.0</ele><time>2026-04-19T11:47:02.917Z</time></trkpt><trkpt lat="44.3555983" lon="10.43164"><ele>794.0</ele><time>2026-04-19T11:47:03.906Z</time></trkpt><trkpt lat="44.3556533" lon="10.4318033"><ele>792.0</ele><time>2026-04-19T11:47:04.927Z</time></trkpt><trkpt lat="44.3557033" lon="10.431965"><ele>789.25</ele><time>2026-04-19T11:47:05.909Z</time></trkpt><trkpt lat="44.3557517" lon="10.432135"><ele>786.5</ele><time>2026-04-19T11:47:06.939Z</time></trkpt><trkpt lat="44.3558017" lon="10.4323083"><ele>783.75</ele><time>2026-04-19T11:47:07.923Z</time></trkpt><trkpt lat="44.3558533" lon="10.4324867"><ele>781.0</ele><time>2026-04-19T11:47:08.94Z</time></trkpt><trkpt lat="44.355905" lon="10.43266"><ele>781.0</ele><time>2026-04-19T11:47:09.908Z</time></trkpt><trkpt lat="44.3559583" lon="10.4328167"><ele>781.0</ele><time>2026-04-19T11:47:10.945Z</time></trkpt><trkpt lat="44.3560183" lon="10.4329533"><ele>781.0</ele><time>2026-04-19T11:47:11.908Z</time></trkpt><trkpt lat="44.3561033" lon="10.4330633"><ele>781.0</ele><time>2026-04-19T11:47:12.909Z</time></trkpt><trkpt lat="44.3562083" lon="10.4331333"><ele>781.0</ele><time>2026-04-19T11:47:13.907Z</time></trkpt><trkpt lat="44.3563267" lon="10.4331583"><ele>781.0</ele><time>2026-04-19T11:47:14.911Z</time></trkpt><trkpt lat="44.3564467" lon="10.43314"><ele>781.0</ele><time>2026-04-19T11:47:15.924Z</time></trkpt><trkpt lat="44.3565633" lon="10.4330933"><ele>781.0</ele><time>2026-04-19T11:47:16.948Z</time></trkpt><trkpt lat="44.3566717" lon="10.43305"><ele>781.0</ele><time>2026-04-19T11:47:17.908Z</time></trkpt><trkpt lat="44.3567733" lon="10.4330267"><ele>781.0</ele><time>2026-04-19T11:47:18.906Z</time></trkpt><trkpt lat="44.3568717" lon="10.4330417"><ele>781.0</ele><time>2026-04-19T11:47:19.92Z</time></trkpt><trkpt lat="44.3569583" lon="10.43309"><ele>781.0</ele><time>2026-04-19T11:47:20.91Z</time></trkpt><trkpt lat="44.3570317" lon="10.4331617"><ele>781.0</ele><time>2026-04-19T11:47:21.911Z</time></trkpt><trkpt lat="44.357085" lon="10.433275"><ele>781.0</ele><time>2026-04-19T11:47:22.913Z</time></trkpt><trkpt lat="44.3571283" lon="10.433415"><ele>781.0</ele><time>2026-04-19T11:47:23.911Z</time></trkpt><trkpt lat="44.3571933" lon="10.4335483"><ele>781.0</ele><time>2026-04-19T11:47:24.927Z</time></trkpt><trkpt lat="44.3572817" lon="10.4336733"><ele>781.0</ele><time>2026-04-19T11:47:25.912Z</time></trkpt><trkpt lat="44.35739" lon="10.43378"><ele>781.25</ele><time>2026-04-19T11:47:26.965Z</time></trkpt><trkpt lat="44.35751" lon="10.433885"><ele>781.5</ele><time>2026-04-19T11:47:27.942Z</time></trkpt><trkpt lat="44.3576333" lon="10.4339917"><ele>781.75</ele><time>2026-04-19T11:47:28.911Z</time></trkpt><trkpt lat="44.3577483" lon="10.4341017"><ele>782.0</ele><time>2026-04-19T11:47:29.914Z</time></trkpt><trkpt lat="44.3578633" lon="10.434205"><ele>782.0</ele><time>2026-04-19T11:47:30.927Z</time></trkpt><trkpt lat="44.3579733" lon="10.4343067"><ele>782.0</ele><time>2026-04-19T11:47:31.922Z</time></trkpt><trkpt lat="44.3580717" lon="10.4344067"><ele>782.0</ele><time>2026-04-19T11:47:32.938Z</time></trkpt><trkpt lat="44.358145" lon="10.4345183"><ele>782.0</ele><time>2026-04-19T11:47:33.908Z</time></trkpt><trkpt lat="44.3582017" lon="10.43464"><ele>781.0000000000001</ele><time>2026-04-19T11:47:34.974Z</time></trkpt><trkpt lat="44.358255" lon="10.43475"><ele>780.0</ele><time>2026-04-19T11:47:35.96Z</time></trkpt><trkpt lat="44.3583017" lon="10.434845"><ele>779.0</ele><time>2026-04-19T11:47:36.932Z</time></trkpt><trkpt lat="44.35835" lon="10.4349233"><ele>778.0</ele><time>2026-04-19T11:47:37.909Z</time></trkpt><trkpt lat="44.3583867" lon="10.435"><ele>777.0000000000001</ele><time>2026-04-19T11:47:38.964Z</time></trkpt><trkpt lat="44.358455" lon="10.4351217"><ele>776.0</ele><time>2026-04-19T11:47:40.938Z</time></trkpt><trkpt lat="44.3585567" lon="10.4351467"><ele>776.0000000000001</ele><time>2026-04-19T11:47:42.909Z</time></trkpt><trkpt lat="44.3586183" lon="10.4351183"><ele>776.0</ele><time>2026-04-19T11:47:43.911Z</time></trkpt><trkpt lat="44.3586867" lon="10.4350883"><ele>776.0</ele><time>2026-04-19T11:47:44.91Z</time></trkpt><trkpt lat="44.3587617" lon="10.4350667"><ele>776.0</ele><time>2026-04-19T11:47:45.924Z</time></trkpt><trkpt lat="44.3588433" lon="10.43505"><ele>776.0000000000001</ele><time>2026-04-19T11:47:46.92Z</time></trkpt><trkpt lat="44.3589367" lon="10.435035"><ele>776.0</ele><time>2026-04-19T11:47:47.91Z</time></trkpt><trkpt lat="44.359035" lon="10.43502"><ele>775.0</ele><time>2026-04-19T11:47:48.944Z</time></trkpt><trkpt lat="44.359135" lon="10.4350067"><ele>774.0</ele><time>2026-04-19T11:47:49.917Z</time></trkpt><trkpt lat="44.359245" lon="10.4349933"><ele>773.0</ele><time>2026-04-19T11:47:50.915Z</time></trkpt><trkpt lat="44.3593567" lon="10.4349833"><ele>772.0</ele><time>2026-04-19T11:47:51.91Z</time></trkpt><trkpt lat="44.3594733" lon="10.4349683"><ele>771.0</ele><time>2026-04-19T11:47:52.921Z</time></trkpt><trkpt lat="44.35959" lon="10.4349517"><ele>771.1999999999999</ele><time>2026-04-19T11:47:53.926Z</time></trkpt><trkpt lat="44.3597067" lon="10.4349317"><ele>771.4</ele><time>2026-04-19T11:47:54.93Z</time></trkpt><trkpt lat="44.359815" lon="10.43491"><ele>771.6</ele><time>2026-04-19T11:47:55.909Z</time></trkpt><trkpt lat="44.3599217" lon="10.4348933"><ele>771.8</ele><time>2026-04-19T11:47:56.922Z</time></trkpt><trkpt lat="44.36003" lon="10.43488"><ele>772.0</ele><time>2026-04-19T11:47:57.91Z</time></trkpt><trkpt lat="44.360135" lon="10.4348683"><ele>772.0</ele><time>2026-04-19T11:47:58.913Z</time></trkpt><trkpt lat="44.3602367" lon="10.4348617"><ele>772.0</ele><time>2026-04-19T11:47:59.914Z</time></trkpt><trkpt lat="44.360335" lon="10.434865"><ele>772.0</ele><time>2026-04-19T11:48:00.912Z</time></trkpt><trkpt lat="44.3604383" lon="10.4348933"><ele>772.0</ele><time>2026-04-19T11:48:01.916Z</time></trkpt><trkpt lat="44.3605483" lon="10.4349517"><ele>772.0</ele><time>2026-04-19T11:48:02.912Z</time></trkpt><trkpt lat="44.3606633" lon="10.4350283"><ele>770.25</ele><time>2026-04-19T11:48:03.908Z</time></trkpt><trkpt lat="44.3607817" lon="10.43512"><ele>768.5</ele><time>2026-04-19T11:48:04.917Z</time></trkpt><trkpt lat="44.3609017" lon="10.4352233"><ele>766.75</ele><time>2026-04-19T11:48:05.917Z</time></trkpt><trkpt lat="44.3610167" lon="10.435345"><ele>765.0</ele><time>2026-04-19T11:48:06.931Z</time></trkpt><trkpt lat="44.36112" lon="10.43549"><ele>764.0</ele><time>2026-04-19T11:48:07.911Z</time></trkpt><trkpt lat="44.361215" lon="10.4356633"><ele>763.0</ele><time>2026-04-19T11:48:08.948Z</time></trkpt><trkpt lat="44.36131" lon="10.43586"><ele>762.0</ele><time>2026-04-19T11:48:09.909Z</time></trkpt><trkpt lat="44.361405" lon="10.4360567"><ele>763.0</ele><time>2026-04-19T11:48:10.916Z</time></trkpt><trkpt lat="44.361495" lon="10.4362483"><ele>764.0</ele><time>2026-04-19T11:48:11.919Z</time></trkpt><trkpt lat="44.3615817" lon="10.43644"><ele>765.0</ele><time>2026-04-19T11:48:12.911Z</time></trkpt><trkpt lat="44.36167" lon="10.43665"><ele>765.0</ele><time>2026-04-19T11:48:13.926Z</time></trkpt><trkpt lat="44.3617583" lon="10.4368717"><ele>765.0</ele><time>2026-04-19T11:48:14.942Z</time></trkpt><trkpt lat="44.3618467" lon="10.4370917"><ele>765.0</ele><time>2026-04-19T11:48:15.917Z</time></trkpt><trkpt lat="44.3619267" lon="10.4373083"><ele>760.3333333333334</ele><time>2026-04-19T11:48:16.911Z</time></trkpt><trkpt lat="44.3620117" lon="10.43751"><ele>755.6666666666667</ele><time>2026-04-19T11:48:17.911Z</time></trkpt><trkpt lat="44.3620933" lon="10.4377017"><ele>751.0</ele><time>2026-04-19T11:48:18.932Z</time></trkpt><trkpt lat="44.3621767" lon="10.43789"><ele>752.0</ele><time>2026-04-19T11:48:19.909Z</time></trkpt><trkpt lat="44.362255" lon="10.4380783"><ele>753.0</ele><time>2026-04-19T11:48:20.911Z</time></trkpt><trkpt lat="44.36233" lon="10.438265"><ele>754.0</ele><time>2026-04-19T11:48:21.908Z</time></trkpt><trkpt lat="44.3624033" lon="10.43845"><ele>754.0</ele><time>2026-04-19T11:48:22.917Z</time></trkpt><trkpt lat="44.36248" lon="10.4386283"><ele>754.0</ele><time>2026-04-19T11:48:23.936Z</time></trkpt><trkpt lat="44.3625583" lon="10.43878"><ele>754.0</ele><time>2026-04-19T11:48:24.909Z</time></trkpt><trkpt lat="44.3626483" lon="10.438905"><ele>754.0</ele><time>2026-04-19T11:48:25.926Z</time></trkpt><trkpt lat="44.36276" lon="10.4389783"><ele>750.6666666666667</ele><time>2026-04-19T11:48:26.934Z</time></trkpt><trkpt lat="44.3629033" lon="10.4390017"><ele>747.3333333333334</ele><time>2026-04-19T11:48:27.927Z</time></trkpt><trkpt lat="44.3630667" lon="10.4390117"><ele>744.0</ele><time>2026-04-19T11:48:28.916Z</time></trkpt><trkpt lat="44.3632433" lon="10.439025"><ele>744.0</ele><time>2026-04-19T11:48:29.935Z</time></trkpt><trkpt lat="44.3634217" lon="10.439045"><ele>744.0</ele><time>2026-04-19T11:48:30.935Z</time></trkpt><trkpt lat="44.3635967" lon="10.4390667"><ele>744.0</ele><time>2026-04-19T11:48:31.913Z</time></trkpt><trkpt lat="44.3637667" lon="10.4390867"><ele>745.3333333333334</ele><time>2026-04-19T11:48:32.974Z</time></trkpt><trkpt lat="44.3639317" lon="10.439105"><ele>746.6666666666667</ele><time>2026-04-19T11:48:33.937Z</time></trkpt><trkpt lat="44.3640967" lon="10.4391233"><ele>748.0</ele><time>2026-04-19T11:48:34.924Z</time></trkpt><trkpt lat="44.3642633" lon="10.4391383"><ele>748.0</ele><time>2026-04-19T11:48:35.956Z</time></trkpt><trkpt lat="44.3644283" lon="10.4391533"><ele>748.0</ele><time>2026-04-19T11:48:36.913Z</time></trkpt><trkpt lat="44.36459" lon="10.439175"><ele>748.0</ele><time>2026-04-19T11:48:37.928Z</time></trkpt><trkpt lat="44.3647433" lon="10.4392167"><ele>747.3333333333334</ele><time>2026-04-19T11:48:38.939Z</time></trkpt><trkpt lat="44.3648883" lon="10.4392933"><ele>746.6666666666666</ele><time>2026-04-19T11:48:39.919Z</time></trkpt><trkpt lat="44.36503" lon="10.43941"><ele>746.0</ele><time>2026-04-19T11:48:40.915Z</time></trkpt><trkpt lat="44.3651683" lon="10.4395733"><ele>741.6666666666666</ele><time>2026-04-19T11:48:41.929Z</time></trkpt><trkpt lat="44.3653117" lon="10.4397567"><ele>737.3333333333334</ele><time>2026-04-19T11:48:42.921Z</time></trkpt><trkpt lat="44.36546" lon="10.439945"><ele>733.0</ele><time>2026-04-19T11:48:43.911Z</time></trkpt><trkpt lat="44.3656117" lon="10.4401417"><ele>733.0</ele><time>2026-04-19T11:48:44.911Z</time></trkpt><trkpt lat="44.3657583" lon="10.440335"><ele>733.0</ele><time>2026-04-19T11:48:45.941Z</time></trkpt><trkpt lat="44.3658983" lon="10.440515"><ele>733.0</ele><time>2026-04-19T11:48:46.924Z</time></trkpt><trkpt lat="44.36602" lon="10.440685"><ele>731.0</ele><time>2026-04-19T11:48:47.947Z</time></trkpt><trkpt lat="44.3661367" lon="10.4408367"><ele>729.0</ele><time>2026-04-19T11:48:48.924Z</time></trkpt><trkpt lat="44.3662617" lon="10.440965"><ele>727.0</ele><time>2026-04-19T11:48:49.909Z</time></trkpt><trkpt lat="44.366415" lon="10.4410617"><ele>727.0</ele><time>2026-04-19T11:48:50.931Z</time></trkpt><trkpt lat="44.3665867" lon="10.4411383"><ele>727.0</ele><time>2026-04-19T11:48:51.918Z</time></trkpt><trkpt lat="44.3667483" lon="10.4412117"><ele>727.0</ele><time>2026-04-19T11:48:52.923Z</time></trkpt><trkpt lat="44.366895" lon="10.4413017"><ele>721.6666666666667</ele><time>2026-04-19T11:48:53.909Z</time></trkpt><trkpt lat="44.367015" lon="10.4414183"><ele>716.3333333333334</ele><time>2026-04-19T11:48:54.972Z</time></trkpt><trkpt lat="44.3671217" lon="10.44157"><ele>711.0</ele><time>2026-04-19T11:48:55.928Z</time></trkpt><trkpt lat="44.3672217" lon="10.4417517"><ele>711.0</ele><time>2026-04-19T11:48:56.95Z</time></trkpt><trkpt lat="44.3673117" lon="10.4419367"><ele>711.0</ele><time>2026-04-19T11:48:57.932Z</time></trkpt><trkpt lat="44.3674067" lon="10.4421067"><ele>711.0</ele><time>2026-04-19T11:48:58.912Z</time></trkpt><trkpt lat="44.3675183" lon="10.44226"><ele>708.3333333333334</ele><time>2026-04-19T11:48:59.916Z</time></trkpt><trkpt lat="44.36766" lon="10.44239"><ele>705.6666666666667</ele><time>2026-04-19T11:49:00.92Z</time></trkpt><trkpt lat="44.3678183" lon="10.4424983"><ele>703.0</ele><time>2026-04-19T11:49:01.911Z</time></trkpt><trkpt lat="44.36798" lon="10.4426183"><ele>700.6666666666667</ele><time>2026-04-19T11:49:02.966Z</time></trkpt><trkpt lat="44.3681383" lon="10.4427533"><ele>698.3333333333334</ele><time>2026-04-19T11:49:03.902Z</time></trkpt><trkpt lat="44.368295" lon="10.4428967"><ele>696.0</ele><time>2026-04-19T11:49:04.93Z</time></trkpt><trkpt lat="44.3684533" lon="10.4430467"><ele>696.0</ele><time>2026-04-19T11:49:05.917Z</time></trkpt><trkpt lat="44.3686167" lon="10.4432083"><ele>696.0</ele><time>2026-04-19T11:49:06.966Z</time></trkpt><trkpt lat="44.36878" lon="10.4433733"><ele>696.0</ele><time>2026-04-19T11:49:07.93Z</time></trkpt><trkpt lat="44.3689467" lon="10.4435467"><ele>693.3333333333334</ele><time>2026-04-19T11:49:08.948Z</time></trkpt><trkpt lat="44.3691133" lon="10.44374"><ele>690.6666666666667</ele><time>2026-04-19T11:49:09.944Z</time></trkpt><trkpt lat="44.3692733" lon="10.44396"><ele>688.0</ele><time>2026-04-19T11:49:10.915Z</time></trkpt><trkpt lat="44.3694267" lon="10.4441967"><ele>688.6666666666667</ele><time>2026-04-19T11:49:11.983Z</time></trkpt><trkpt lat="44.3695833" lon="10.444435"><ele>689.3333333333334</ele><time>2026-04-19T11:49:12.934Z</time></trkpt><trkpt lat="44.3697333" lon="10.4446533"><ele>690.0</ele><time>2026-04-19T11:49:13.936Z</time></trkpt><trkpt lat="44.3698783" lon="10.4448417"><ele>690.0</ele><time>2026-04-19T11:49:14.939Z</time></trkpt><trkpt lat="44.3700167" lon="10.4450017"><ele>690.0</ele><time>2026-04-19T11:49:15.949Z</time></trkpt><trkpt lat="44.3701517" lon="10.4451367"><ele>690.0</ele><time>2026-04-19T11:49:16.939Z</time></trkpt><trkpt lat="44.37029" lon="10.4452467"><ele>690.0</ele><time>2026-04-19T11:49:17.908Z</time></trkpt><trkpt lat="44.3704417" lon="10.4453317"><ele>690.0</ele><time>2026-04-19T11:49:18.91Z</time></trkpt><trkpt lat="44.3706033" lon="10.4453933"><ele>690.0</ele><time>2026-04-19T11:49:19.932Z</time></trkpt><trkpt lat="44.3707667" lon="10.4454433"><ele>693.3333333333334</ele><time>2026-04-19T11:49:20.907Z</time></trkpt><trkpt lat="44.3709333" lon="10.44549"><ele>696.6666666666667</ele><time>2026-04-19T11:49:21.908Z</time></trkpt><trkpt lat="44.3710967" lon="10.44554"><ele>700.0</ele><time>2026-04-19T11:49:22.929Z</time></trkpt><trkpt lat="44.3712517" lon="10.4455983"><ele>697.3333333333334</ele><time>2026-04-19T11:49:23.91Z</time></trkpt><trkpt lat="44.3713933" lon="10.4456733"><ele>694.6666666666666</ele><time>2026-04-19T11:49:24.937Z</time></trkpt><trkpt lat="44.3715233" lon="10.4457767"><ele>692.0</ele><time>2026-04-19T11:49:25.935Z</time></trkpt><trkpt lat="44.3716467" lon="10.4459033"><ele>692.0</ele><time>2026-04-19T11:49:26.923Z</time></trkpt><trkpt lat="44.37178" lon="10.4460317"><ele>692.0</ele><time>2026-04-19T11:49:27.915Z</time></trkpt><trkpt lat="44.3719167" lon="10.4461433"><ele>692.0</ele><time>2026-04-19T11:49:28.914Z</time></trkpt><trkpt lat="44.3720533" lon="10.44626"><ele>692.6666666666666</ele><time>2026-04-19T11:49:29.922Z</time></trkpt><trkpt lat="44.3721733" lon="10.4464"><ele>693.3333333333334</ele><time>2026-04-19T11:49:30.96Z</time></trkpt><trkpt lat="44.3722833" lon="10.4465517"><ele>694.0</ele><time>2026-04-19T11:49:31.909Z</time></trkpt><trkpt lat="44.3723717" lon="10.4467083"><ele>691.0</ele><time>2026-04-19T11:49:32.91Z</time></trkpt><trkpt lat="44.3724383" lon="10.44689"><ele>688.0</ele><time>2026-04-19T11:49:33.911Z</time></trkpt><trkpt lat="44.372505" lon="10.44707"><ele>685.0</ele><time>2026-04-19T11:49:34.912Z</time></trkpt><trkpt lat="44.3726033" lon="10.447245"><ele>684.0</ele><time>2026-04-19T11:49:35.911Z</time></trkpt><trkpt lat="44.37273" lon="10.447405"><ele>683.0</ele><time>2026-04-19T11:49:36.906Z</time></trkpt><trkpt lat="44.37286" lon="10.44756"><ele>682.0</ele><time>2026-04-19T11:49:37.911Z</time></trkpt><trkpt lat="44.372985" lon="10.4477017"><ele>681.25</ele><time>2026-04-19T11:49:38.93Z</time></trkpt><trkpt lat="44.3731083" lon="10.44782"><ele>680.5</ele><time>2026-04-19T11:49:39.914Z</time></trkpt><trkpt lat="44.3732217" lon="10.4479083"><ele>679.75</ele><time>2026-04-19T11:49:40.916Z</time></trkpt><trkpt lat="44.37334" lon="10.4479583"><ele>679.0</ele><time>2026-04-19T11:49:41.907Z</time></trkpt><trkpt lat="44.3734717" lon="10.4479567"><ele>679.0</ele><time>2026-04-19T11:49:42.91Z</time></trkpt><trkpt lat="44.3736133" lon="10.4479083"><ele>679.0</ele><time>2026-04-19T11:49:43.91Z</time></trkpt><trkpt lat="44.37375" lon="10.4478567"><ele>679.0</ele><time>2026-04-19T11:49:44.91Z</time></trkpt><trkpt lat="44.3738733" lon="10.4478333"><ele>679.0</ele><time>2026-04-19T11:49:45.912Z</time></trkpt><trkpt lat="44.374" lon="10.4478533"><ele>673.6666666666667</ele><time>2026-04-19T11:49:46.913Z</time></trkpt><trkpt lat="44.3741333" lon="10.4479417"><ele>668.3333333333334</ele><time>2026-04-19T11:49:47.913Z</time></trkpt><trkpt lat="44.37426" lon="10.4481067"><ele>663.0</ele><time>2026-04-19T11:49:48.911Z</time></trkpt><trkpt lat="44.37439" lon="10.448305"><ele>661.6666666666666</ele><time>2026-04-19T11:49:49.909Z</time></trkpt><trkpt lat="44.3745167" lon="10.44851"><ele>660.3333333333333</ele><time>2026-04-19T11:49:50.909Z</time></trkpt><trkpt lat="44.3746417" lon="10.4487133"><ele>659.0</ele><time>2026-04-19T11:49:51.909Z</time></trkpt><trkpt lat="44.3747617" lon="10.4489067"><ele>656.6666666666666</ele><time>2026-04-19T11:49:52.912Z</time></trkpt><trkpt lat="44.37488" lon="10.4490933"><ele>654.3333333333334</ele><time>2026-04-19T11:49:53.919Z</time></trkpt><trkpt lat="44.3749983" lon="10.4492733"><ele>652.0</ele><time>2026-04-19T11:49:54.91Z</time></trkpt><trkpt lat="44.3751033" lon="10.4494617"><ele>651.6666666666667</ele><time>2026-04-19T11:49:55.91Z</time></trkpt><trkpt lat="44.3751933" lon="10.4496567"><ele>651.3333333333334</ele><time>2026-04-19T11:49:56.909Z</time></trkpt><trkpt lat="44.3752733" lon="10.44986"><ele>651.0</ele><time>2026-04-19T11:49:57.919Z</time></trkpt><trkpt lat="44.37534" lon="10.450065"><ele>651.0</ele><time>2026-04-19T11:49:58.913Z</time></trkpt><trkpt lat="44.375405" lon="10.4502617"><ele>651.0</ele><time>2026-04-19T11:49:59.911Z</time></trkpt><trkpt lat="44.37547" lon="10.4504567"><ele>651.0</ele><time>2026-04-19T11:50:00.923Z</time></trkpt><trkpt lat="44.375535" lon="10.450645"><ele>649.25</ele><time>2026-04-19T11:50:01.914Z</time></trkpt><trkpt lat="44.375605" lon="10.450805"><ele>647.5</ele><time>2026-04-19T11:50:02.935Z</time></trkpt><trkpt lat="44.375685" lon="10.45093"><ele>645.75</ele><time>2026-04-19T11:50:03.914Z</time></trkpt><trkpt lat="44.3757817" lon="10.4510117"><ele>644.0</ele><time>2026-04-19T11:50:04.915Z</time></trkpt><trkpt lat="44.3758967" lon="10.4510433"><ele>644.0</ele><time>2026-04-19T11:50:05.91Z</time></trkpt><trkpt lat="44.376015" lon="10.4510233"><ele>644.0</ele><time>2026-04-19T11:50:06.916Z</time></trkpt><trkpt lat="44.3761267" lon="10.450985"><ele>644.0</ele><time>2026-04-19T11:50:07.92Z</time></trkpt><trkpt lat="44.3762467" lon="10.4509783"><ele>644.0</ele><time>2026-04-19T11:50:08.909Z</time></trkpt><trkpt lat="44.3763817" lon="10.4510217"><ele>638.6666666666666</ele><time>2026-04-19T11:50:09.916Z</time></trkpt><trkpt lat="44.3765167" lon="10.451115"><ele>633.3333333333334</ele><time>2026-04-19T11:50:10.941Z</time></trkpt><trkpt lat="44.3766533" lon="10.45123"><ele>628.0</ele><time>2026-04-19T11:50:11.95Z</time></trkpt><trkpt lat="44.37678" lon="10.4513717"><ele>628.0</ele><time>2026-04-19T11:50:12.936Z</time></trkpt><trkpt lat="44.3768933" lon="10.451525"><ele>628.0</ele><time>2026-04-19T11:50:13.926Z</time></trkpt><trkpt lat="44.37698" lon="10.451655"><ele>628.0</ele><time>2026-04-19T11:50:14.909Z</time></trkpt><trkpt lat="44.3770533" lon="10.4517617"><ele>628.0</ele><time>2026-04-19T11:50:15.909Z</time></trkpt><trkpt lat="44.3771183" lon="10.4518517"><ele>628.0</ele><time>2026-04-19T11:50:16.934Z</time></trkpt><trkpt lat="44.3771717" lon="10.4519233"><ele>628.0</ele><time>2026-04-19T11:50:17.953Z</time></trkpt><trkpt lat="44.3772167" lon="10.4519867"><ele>628.0</ele><time>2026-04-19T11:50:18.955Z</time></trkpt><trkpt lat="44.3772817" lon="10.45208"><ele>628.0</ele><time>2026-04-19T11:50:20.923Z</time></trkpt><trkpt lat="44.3773033" lon="10.451975"><ele>628.0</ele><time>2026-04-19T11:50:34.959Z</time></trkpt><trkpt lat="44.3772733" lon="10.451855"><ele>628.0</ele><time>2026-04-19T11:50:35.947Z</time></trkpt><trkpt lat="44.3772283" lon="10.451715"><ele>628.0</ele><time>2026-04-19T11:50:36.954Z</time></trkpt><trkpt lat="44.377175" lon="10.4515617"><ele>628.0</ele><time>2026-04-19T11:50:37.944Z</time></trkpt><trkpt lat="44.3771317" lon="10.4514083"><ele>628.0</ele><time>2026-04-19T11:50:38.913Z</time></trkpt><trkpt lat="44.3771017" lon="10.4512433"><ele>628.0</ele><time>2026-04-19T11:50:39.979Z</time></trkpt><trkpt lat="44.3770883" lon="10.4510717"><ele>627.25</ele><time>2026-04-19T11:50:40.98Z</time></trkpt><trkpt lat="44.3770767" lon="10.450915"><ele>626.5</ele><time>2026-04-19T11:50:41.959Z</time></trkpt><trkpt lat="44.377035" lon="10.450775"><ele>625.75</ele><time>2026-04-19T11:50:42.927Z</time></trkpt><trkpt lat="44.3769617" lon="10.4506383"><ele>625.0</ele><time>2026-04-19T11:50:43.976Z</time></trkpt><trkpt lat="44.3768817" lon="10.4505067"><ele>622.5</ele><time>2026-04-19T11:50:44.934Z</time></trkpt><trkpt lat="44.3768017" lon="10.4503783"><ele>620.0</ele><time>2026-04-19T11:50:45.96Z</time></trkpt><trkpt lat="44.3767233" lon="10.4502567"><ele>617.5</ele><time>2026-04-19T11:50:46.911Z</time></trkpt><trkpt lat="44.37665" lon="10.4501367"><ele>615.0</ele><time>2026-04-19T11:50:47.91Z</time></trkpt><trkpt lat="44.37659" lon="10.450005"><ele>615.0</ele><time>2026-04-19T11:50:48.907Z</time></trkpt><trkpt lat="44.376545" lon="10.44985"><ele>615.0</ele><time>2026-04-19T11:50:49.933Z</time></trkpt><trkpt lat="44.3765183" lon="10.4496833"><ele>615.0</ele><time>2026-04-19T11:50:50.914Z</time></trkpt><trkpt lat="44.3765033" lon="10.449515"><ele>615.0</ele><time>2026-04-19T11:50:51.93Z</time></trkpt><trkpt lat="44.3764767" lon="10.44936"><ele>612.8</ele><time>2026-04-19T11:50:52.908Z</time></trkpt><trkpt lat="44.3764317" lon="10.4492183"><ele>610.6</ele><time>2026-04-19T11:50:53.969Z</time></trkpt><trkpt lat="44.376385" lon="10.4490783"><ele>608.4</ele><time>2026-04-19T11:50:54.955Z</time></trkpt><trkpt lat="44.3763717" lon="10.44893"><ele>606.2</ele><time>2026-04-19T11:50:55.911Z</time></trkpt><trkpt lat="44.3763867" lon="10.4487833"><ele>604.0</ele><time>2026-04-19T11:50:56.926Z</time></trkpt><trkpt lat="44.376405" lon="10.44863"><ele>603.6</ele><time>2026-04-19T11:50:57.933Z</time></trkpt><trkpt lat="44.3764" lon="10.4484733"><ele>603.2</ele><time>2026-04-19T11:50:58.912Z</time></trkpt><trkpt lat="44.3763883" lon="10.4483183"><ele>602.8000000000001</ele><time>2026-04-19T11:50:59.946Z</time></trkpt><trkpt lat="44.3763783" lon="10.448165"><ele>602.4</ele><time>2026-04-19T11:51:00.917Z</time></trkpt><trkpt lat="44.3763783" lon="10.4480117"><ele>602.0</ele><time>2026-04-19T11:51:01.97Z</time></trkpt><trkpt lat="44.376395" lon="10.4478517"><ele>602.0</ele><time>2026-04-19T11:51:02.974Z</time></trkpt><trkpt lat="44.3764217" lon="10.4476817"><ele>602.0</ele><time>2026-04-19T11:51:03.934Z</time></trkpt><trkpt lat="44.3764533" lon="10.4474983"><ele>602.0</ele><time>2026-04-19T11:51:04.923Z</time></trkpt><trkpt lat="44.3764817" lon="10.44732"><ele>602.0</ele><time>2026-04-19T11:51:05.934Z</time></trkpt><trkpt lat="44.3765083" lon="10.4471433"><ele>601.4</ele><time>2026-04-19T11:51:06.92Z</time></trkpt><trkpt lat="44.3765283" lon="10.4469833"><ele>600.8000000000001</ele><time>2026-04-19T11:51:07.956Z</time></trkpt><trkpt lat="44.3765233" lon="10.4468367"><ele>600.2</ele><time>2026-04-19T11:51:08.912Z</time></trkpt><trkpt lat="44.3764883" lon="10.4467017"><ele>599.6</ele><time>2026-04-19T11:51:09.972Z</time></trkpt><trkpt lat="44.3764133" lon="10.4465867"><ele>599.0</ele><time>2026-04-19T11:51:10.936Z</time></trkpt><trkpt lat="44.376315" lon="10.44649"><ele>600.6</ele><time>2026-04-19T11:51:11.952Z</time></trkpt><trkpt lat="44.3762083" lon="10.4463967"><ele>602.2</ele><time>2026-04-19T11:51:12.921Z</time></trkpt><trkpt lat="44.3761233" lon="10.4462967"><ele>603.8000000000001</ele><time>2026-04-19T11:51:13.91Z</time></trkpt><trkpt lat="44.37607" lon="10.446185"><ele>605.4</ele><time>2026-04-19T11:51:14.934Z</time></trkpt><trkpt lat="44.376045" lon="10.446045"><ele>607.0</ele><time>2026-04-19T11:51:15.921Z</time></trkpt><trkpt lat="44.37605" lon="10.44588"><ele>607.0</ele><time>2026-04-19T11:51:16.928Z</time></trkpt><trkpt lat="44.376045" lon="10.4457117"><ele>607.0</ele><time>2026-04-19T11:51:17.911Z</time></trkpt><trkpt lat="44.376015" lon="10.4455367"><ele>607.0</ele><time>2026-04-19T11:51:18.924Z</time></trkpt><trkpt lat="44.37596" lon="10.4453567"><ele>607.0</ele><time>2026-04-19T11:51:19.96Z</time></trkpt><trkpt lat="44.3759067" lon="10.44517"><ele>604.5</ele><time>2026-04-19T11:51:20.943Z</time></trkpt><trkpt lat="44.37587" lon="10.44498"><ele>602.0</ele><time>2026-04-19T11:51:21.91Z</time></trkpt><trkpt lat="44.3758467" lon="10.4447883"><ele>599.5</ele><time>2026-04-19T11:51:22.912Z</time></trkpt><trkpt lat="44.3758267" lon="10.4446033"><ele>597.0</ele><time>2026-04-19T11:51:23.942Z</time></trkpt><trkpt lat="44.3758017" lon="10.4444333"><ele>596.4</ele><time>2026-04-19T11:51:24.935Z</time></trkpt><trkpt lat="44.3757583" lon="10.444275"><ele>595.8000000000001</ele><time>2026-04-19T11:51:25.945Z</time></trkpt><trkpt lat="44.375695" lon="10.44414"><ele>595.2</ele><time>2026-04-19T11:51:26.996Z</time></trkpt><trkpt lat="44.3756283" lon="10.44403"><ele>594.6</ele><time>2026-04-19T11:51:27.927Z</time></trkpt><trkpt lat="44.3755767" lon="10.44393"><ele>594.0</ele><time>2026-04-19T11:51:28.942Z</time></trkpt><trkpt lat="44.3755433" lon="10.443825"><ele>593.0</ele><time>2026-04-19T11:51:29.912Z</time></trkpt><trkpt lat="44.3755633" lon="10.4437067"><ele>592.0</ele><time>2026-04-19T11:51:30.91Z</time></trkpt><trkpt lat="44.375605" lon="10.4435917"><ele>591.0</ele><time>2026-04-19T11:51:31.926Z</time></trkpt><trkpt lat="44.37564" lon="10.4434733"><ele>590.0</ele><time>2026-04-19T11:51:32.909Z</time></trkpt><trkpt lat="44.3756633" lon="10.4433567"><ele>589.0</ele><time>2026-04-19T11:51:33.962Z</time></trkpt><trkpt lat="44.3756483" lon="10.443235"><ele>588.0</ele><time>2026-04-19T11:51:34.966Z</time></trkpt><trkpt lat="44.3755933" lon="10.4431117"><ele>588.0</ele><time>2026-04-19T11:51:35.988Z</time></trkpt><trkpt lat="44.3755483" lon="10.4429867"><ele>588.0</ele><time>2026-04-19T11:51:36.91Z</time></trkpt><trkpt lat="44.37553" lon="10.4428517"><ele>588.0</ele><time>2026-04-19T11:51:37.925Z</time></trkpt><trkpt lat="44.3755383" lon="10.4427067"><ele>588.0</ele><time>2026-04-19T11:51:38.921Z</time></trkpt><trkpt lat="44.3756" lon="10.4425783"><ele>588.0</ele><time>2026-04-19T11:51:39.911Z</time></trkpt><trkpt lat="44.3757033" lon="10.4424733"><ele>588.0</ele><time>2026-04-19T11:51:40.919Z</time></trkpt><trkpt lat="44.375815" lon="10.442365"><ele>588.0</ele><time>2026-04-19T11:51:41.939Z</time></trkpt><trkpt lat="44.375915" lon="10.4422467"><ele>588.0</ele><time>2026-04-19T11:51:42.922Z</time></trkpt><trkpt lat="44.376" lon="10.4421233"><ele>588.0</ele><time>2026-04-19T11:51:43.979Z</time></trkpt><trkpt lat="44.3760983" lon="10.44202"><ele>588.0</ele><time>2026-04-19T11:51:44.963Z</time></trkpt><trkpt lat="44.376215" lon="10.4419617"><ele>588.0</ele><time>2026-04-19T11:51:45.938Z</time></trkpt><trkpt lat="44.3763433" lon="10.44195"><ele>588.0</ele><time>2026-04-19T11:51:46.912Z</time></trkpt><trkpt lat="44.3764583" lon="10.4419383"><ele>588.0</ele><time>2026-04-19T11:51:47.942Z</time></trkpt><trkpt lat="44.37655" lon="10.441895"><ele>584.6</ele><time>2026-04-19T11:51:48.911Z</time></trkpt><trkpt lat="44.37661" lon="10.4418"><ele>581.1999999999999</ele><time>2026-04-19T11:51:49.927Z</time></trkpt><trkpt lat="44.3766367" lon="10.4416717"><ele>577.8</ele><time>2026-04-19T11:51:50.925Z</time></trkpt><trkpt lat="44.3766333" lon="10.4415233"><ele>574.4</ele><time>2026-04-19T11:51:51.926Z</time></trkpt><trkpt lat="44.376635" lon="10.4413733"><ele>571.0</ele><time>2026-04-19T11:51:52.94Z</time></trkpt><trkpt lat="44.3766567" lon="10.4412333"><ele>570.6</ele><time>2026-04-19T11:51:53.939Z</time></trkpt><trkpt lat="44.3766933" lon="10.4411033"><ele>570.2</ele><time>2026-04-19T11:51:54.919Z</time></trkpt><trkpt lat="44.3767167" lon="10.4409733"><ele>569.8</ele><time>2026-04-19T11:51:55.919Z</time></trkpt><trkpt lat="44.3766967" lon="10.440835"><ele>569.4</ele><time>2026-04-19T11:51:56.909Z</time></trkpt><trkpt lat="44.376645" lon="10.4406817"><ele>569.0</ele><time>2026-04-19T11:51:57.927Z</time></trkpt><trkpt lat="44.3765883" lon="10.4405217"><ele>567.0</ele><time>2026-04-19T11:51:58.924Z</time></trkpt><trkpt lat="44.3765367" lon="10.4403683"><ele>565.0</ele><time>2026-04-19T11:51:59.944Z</time></trkpt><trkpt lat="44.3765017" lon="10.4402283"><ele>563.0</ele><time>2026-04-19T11:52:00.956Z</time></trkpt><trkpt lat="44.3764617" lon="10.4401167"><ele>561.0</ele><time>2026-04-19T11:52:01.953Z</time></trkpt><trkpt lat="44.3764033" lon="10.440025"><ele>559.0</ele><time>2026-04-19T11:52:02.976Z</time></trkpt><trkpt lat="44.3762933" lon="10.4399917"><ele>559.0</ele><time>2026-04-19T11:52:03.913Z</time></trkpt><trkpt lat="44.3761733" lon="10.4399817"><ele>559.0</ele><time>2026-04-19T11:52:04.939Z</time></trkpt><trkpt lat="44.3760417" lon="10.4399733"><ele>559.0</ele><time>2026-04-19T11:52:05.916Z</time></trkpt><trkpt lat="44.3759167" lon="10.4399467"><ele>559.0</ele><time>2026-04-19T11:52:06.92Z</time></trkpt><trkpt lat="44.3758017" lon="10.4398967"><ele>559.0</ele><time>2026-04-19T11:52:07.978Z</time></trkpt><trkpt lat="44.375705" lon="10.4398"><ele>559.0</ele><time>2026-04-19T11:52:08.981Z</time></trkpt><trkpt lat="44.37562" lon="10.439675"><ele>559.0</ele><time>2026-04-19T11:52:09.948Z</time></trkpt><trkpt lat="44.37554" lon="10.43954"><ele>559.0</ele><time>2026-04-19T11:52:10.954Z</time></trkpt><trkpt lat="44.3754533" lon="10.4394267"><ele>558.2</ele><time>2026-04-19T11:52:11.952Z</time></trkpt><trkpt lat="44.37537" lon="10.43933"><ele>557.4</ele><time>2026-04-19T11:52:12.917Z</time></trkpt><trkpt lat="44.3753033" lon="10.4392333"><ele>556.6</ele><time>2026-04-19T11:52:13.915Z</time></trkpt><trkpt lat="44.3752683" lon="10.43912"><ele>555.8</ele><time>2026-04-19T11:52:14.927Z</time></trkpt><trkpt lat="44.3752817" lon="10.43899"><ele>555.0</ele><time>2026-04-19T11:52:15.938Z</time></trkpt><trkpt lat="44.3753517" lon="10.438855"><ele>554.0</ele><time>2026-04-19T11:52:16.913Z</time></trkpt><trkpt lat="44.3754467" lon="10.4387267"><ele>553.0</ele><time>2026-04-19T11:52:17.936Z</time></trkpt><trkpt lat="44.37554" lon="10.4386017"><ele>552.0</ele><time>2026-04-19T11:52:18.915Z</time></trkpt><trkpt lat="44.3756083" lon="10.4384617"><ele>551.0</ele><time>2026-04-19T11:52:19.995Z</time></trkpt><trkpt lat="44.3756433" lon="10.4383"><ele>547.5</ele><time>2026-04-19T11:52:20.928Z</time></trkpt><trkpt lat="44.3756533" lon="10.4381183"><ele>544.0</ele><time>2026-04-19T11:52:21.926Z</time></trkpt><trkpt lat="44.3756717" lon="10.4379117"><ele>540.5</ele><time>2026-04-19T11:52:22.93Z</time></trkpt><trkpt lat="44.37572" lon="10.437685"><ele>537.0</ele><time>2026-04-19T11:52:23.942Z</time></trkpt><trkpt lat="44.375775" lon="10.4374517"><ele>534.6666666666666</ele><time>2026-04-19T11:52:24.948Z</time></trkpt><trkpt lat="44.3758217" lon="10.437225"><ele>532.3333333333333</ele><time>2026-04-19T11:52:25.937Z</time></trkpt><trkpt lat="44.3758667" lon="10.4370133"><ele>530.0</ele><time>2026-04-19T11:52:26.937Z</time></trkpt><trkpt lat="44.3759017" lon="10.4368217"><ele>528.0</ele><time>2026-04-19T11:52:27.918Z</time></trkpt><trkpt lat="44.37591" lon="10.4366367"><ele>526.0</ele><time>2026-04-19T11:52:28.918Z</time></trkpt><trkpt lat="44.3759117" lon="10.43645"><ele>524.0</ele><time>2026-04-19T11:52:29.912Z</time></trkpt><trkpt lat="44.3759367" lon="10.43625"><ele>522.0</ele><time>2026-04-19T11:52:30.925Z</time></trkpt><trkpt lat="44.375995" lon="10.4360383"><ele>520.3333333333334</ele><time>2026-04-19T11:52:31.909Z</time></trkpt><trkpt lat="44.3760617" lon="10.435825"><ele>518.6666666666667</ele><time>2026-04-19T11:52:32.909Z</time></trkpt><trkpt lat="44.37613" lon="10.4356117"><ele>517.0</ele><time>2026-04-19T11:52:33.964Z</time></trkpt><trkpt lat="44.3762017" lon="10.435415"><ele>515.75</ele><time>2026-04-19T11:52:34.917Z</time></trkpt><trkpt lat="44.3762733" lon="10.4352367"><ele>514.5</ele><time>2026-04-19T11:52:35.924Z</time></trkpt><trkpt lat="44.3763233" lon="10.4350667"><ele>513.25</ele><time>2026-04-19T11:52:36.924Z</time></trkpt><trkpt lat="44.3763617" lon="10.434905"><ele>512.0</ele><time>2026-04-19T11:52:37.934Z</time></trkpt><trkpt lat="44.376385" lon="10.4347633"><ele>510.0</ele><time>2026-04-19T11:52:38.908Z</time></trkpt><trkpt lat="44.3763917" lon="10.4346367"><ele>508.00000000000006</ele><time>2026-04-19T11:52:39.909Z</time></trkpt><trkpt lat="44.376375" lon="10.4345233"><ele>506.00000000000006</ele><time>2026-04-19T11:52:40.913Z</time></trkpt><trkpt lat="44.376335" lon="10.4344283"><ele>504.0</ele><time>2026-04-19T11:52:41.911Z</time></trkpt><trkpt lat="44.3762467" lon="10.4343767"><ele>502.0</ele><time>2026-04-19T11:52:42.955Z</time></trkpt><trkpt lat="44.376135" lon="10.43435"><ele>502.0</ele><time>2026-04-19T11:52:43.926Z</time></trkpt><trkpt lat="44.3760083" lon="10.4343233"><ele>502.0</ele><time>2026-04-19T11:52:44.914Z</time></trkpt><trkpt lat="44.3758917" lon="10.4342583"><ele>502.0</ele><time>2026-04-19T11:52:45.917Z</time></trkpt><trkpt lat="44.375795" lon="10.4341467"><ele>502.0</ele><time>2026-04-19T11:52:46.917Z</time></trkpt><trkpt lat="44.3757217" lon="10.4340117"><ele>502.0</ele><time>2026-04-19T11:52:47.915Z</time></trkpt><trkpt lat="44.3756717" lon="10.433875"><ele>502.00000000000006</ele><time>2026-04-19T11:52:48.908Z</time></trkpt><trkpt lat="44.37566" lon="10.4337317"><ele>502.00000000000006</ele><time>2026-04-19T11:52:49.911Z</time></trkpt><trkpt lat="44.37569" lon="10.4335917"><ele>502.0</ele><time>2026-04-19T11:52:50.963Z</time></trkpt><trkpt lat="44.3757467" lon="10.4334783"><ele>502.0</ele><time>2026-04-19T11:52:51.956Z</time></trkpt><trkpt lat="44.375835" lon="10.43341"><ele>499.6</ele><time>2026-04-19T11:52:52.975Z</time></trkpt><trkpt lat="44.3759367" lon="10.433385"><ele>497.20000000000005</ele><time>2026-04-19T11:52:53.951Z</time></trkpt><trkpt lat="44.37604" lon="10.4333917"><ele>494.8</ele><time>2026-04-19T11:52:54.916Z</time></trkpt><trkpt lat="44.3761233" lon="10.4334"><ele>492.4</ele><time>2026-04-19T11:52:55.991Z</time></trkpt><trkpt lat="44.3761933" lon="10.4333917"><ele>490.0</ele><time>2026-04-19T11:52:56.944Z</time></trkpt><trkpt lat="44.37622" lon="10.433225"><ele>490.0</ele><time>2026-04-19T11:52:58.917Z</time></trkpt><trkpt lat="44.3761867" lon="10.4331"><ele>490.0</ele><time>2026-04-19T11:52:59.972Z</time></trkpt><trkpt lat="44.3761133" lon="10.43298"><ele>490.0</ele><time>2026-04-19T11:53:00.911Z</time></trkpt><trkpt lat="44.3760217" lon="10.4328817"><ele>490.0</ele><time>2026-04-19T11:53:01.924Z</time></trkpt><trkpt lat="44.3759233" lon="10.4328067"><ele>490.0</ele><time>2026-04-19T11:53:02.999Z</time></trkpt><trkpt lat="44.3758267" lon="10.4327417"><ele>488.6</ele><time>2026-04-19T11:53:03.974Z</time></trkpt><trkpt lat="44.3757533" lon="10.432675"><ele>487.2</ele><time>2026-04-19T11:53:04.932Z</time></trkpt><trkpt lat="44.375695" lon="10.4326033"><ele>485.79999999999995</ele><time>2026-04-19T11:53:05.917Z</time></trkpt><trkpt lat="44.37568" lon="10.43249"><ele>484.4</ele><time>2026-04-19T11:53:06.933Z</time></trkpt><trkpt lat="44.3756917" lon="10.432355"><ele>483.0</ele><time>2026-04-19T11:53:07.91Z</time></trkpt><trkpt lat="44.3757567" lon="10.4322167"><ele>482.5</ele><time>2026-04-19T11:53:08.985Z</time></trkpt><trkpt lat="44.3758417" lon="10.4320767"><ele>482.0</ele><time>2026-04-19T11:53:09.911Z</time></trkpt><trkpt lat="44.3759433" lon="10.4319283"><ele>481.5</ele><time>2026-04-19T11:53:10.916Z</time></trkpt><trkpt lat="44.37605" lon="10.4317617"><ele>481.0</ele><time>2026-04-19T11:53:11.923Z</time></trkpt><trkpt lat="44.3761467" lon="10.4315733"><ele>481.0</ele><time>2026-04-19T11:53:12.948Z</time></trkpt><trkpt lat="44.3762383" lon="10.4313783"><ele>481.0</ele><time>2026-04-19T11:53:13.915Z</time></trkpt><trkpt lat="44.3763217" lon="10.4312017"><ele>481.0</ele><time>2026-04-19T11:53:14.919Z</time></trkpt><trkpt lat="44.3763967" lon="10.4310417"><ele>482.20000000000005</ele><time>2026-04-19T11:53:15.966Z</time></trkpt><trkpt lat="44.3764617" lon="10.4309083"><ele>483.40000000000003</ele><time>2026-04-19T11:53:16.954Z</time></trkpt><trkpt lat="44.376525" lon="10.4308083"><ele>484.6</ele><time>2026-04-19T11:53:17.926Z</time></trkpt><trkpt lat="44.3765967" lon="10.4307367"><ele>485.8</ele><time>2026-04-19T11:53:18.994Z</time></trkpt><trkpt lat="44.3766767" lon="10.430735"><ele>487.0</ele><time>2026-04-19T11:53:19.924Z</time></trkpt><trkpt lat="44.37676" lon="10.4308217"><ele>487.0</ele><time>2026-04-19T11:53:20.924Z</time></trkpt><trkpt lat="44.3768517" lon="10.43093"><ele>487.0</ele><time>2026-04-19T11:53:21.91Z</time></trkpt><trkpt lat="44.3769633" lon="10.43104"><ele>487.0</ele><time>2026-04-19T11:53:22.916Z</time></trkpt><trkpt lat="44.377095" lon="10.4311333"><ele>487.0</ele><time>2026-04-19T11:53:23.994Z</time></trkpt><trkpt lat="44.37723" lon="10.4312283"><ele>487.0</ele><time>2026-04-19T11:53:24.91Z</time></trkpt><trkpt lat="44.377355" lon="10.43133"><ele>487.00000000000006</ele><time>2026-04-19T11:53:25.912Z</time></trkpt><trkpt lat="44.3774483" lon="10.4314133"><ele>487.00000000000006</ele><time>2026-04-19T11:53:26.92Z</time></trkpt><trkpt lat="44.3775367" lon="10.4314633"><ele>487.0</ele><time>2026-04-19T11:53:27.908Z</time></trkpt><trkpt lat="44.3776167" lon="10.43146"><ele>487.0</ele><time>2026-04-19T11:53:28.909Z</time></trkpt><trkpt lat="44.377705" lon="10.431395"><ele>490.5</ele><time>2026-04-19T11:53:29.928Z</time></trkpt><trkpt lat="44.3777917" lon="10.4313067"><ele>494.0</ele><time>2026-04-19T11:53:30.914Z</time></trkpt><trkpt lat="44.3778917" lon="10.4312133"><ele>497.5</ele><time>2026-04-19T11:53:31.908Z</time></trkpt><trkpt lat="44.378005" lon="10.43112"><ele>501.0</ele><time>2026-04-19T11:53:32.937Z</time></trkpt><trkpt lat="44.3781367" lon="10.431025"><ele>503.6</ele><time>2026-04-19T11:53:33.915Z</time></trkpt><trkpt lat="44.3782633" lon="10.4309367"><ele>506.20000000000005</ele><time>2026-04-19T11:53:34.912Z</time></trkpt><trkpt lat="44.3783717" lon="10.43087"><ele>508.79999999999995</ele><time>2026-04-19T11:53:35.948Z</time></trkpt><trkpt lat="44.3784583" lon="10.430835"><ele>511.4</ele><time>2026-04-19T11:53:36.908Z</time></trkpt><trkpt lat="44.3785417" lon="10.430825"><ele>514.0</ele><time>2026-04-19T11:53:37.91Z</time></trkpt><trkpt lat="44.3786167" lon="10.4308633"><ele>514.0</ele><time>2026-04-19T11:53:38.914Z</time></trkpt><trkpt lat="44.37868" lon="10.4309917"><ele>514.0</ele><time>2026-04-19T11:53:39.93Z</time></trkpt><trkpt lat="44.378715" lon="10.4311517"><ele>514.0</ele><time>2026-04-19T11:53:40.912Z</time></trkpt><trkpt lat="44.378735" lon="10.4313433"><ele>514.0</ele><time>2026-04-19T11:53:41.912Z</time></trkpt><trkpt lat="44.3787633" lon="10.43156"><ele>515.25</ele><time>2026-04-19T11:53:42.938Z</time></trkpt><trkpt lat="44.3788067" lon="10.43177"><ele>516.5</ele><time>2026-04-19T11:53:43.923Z</time></trkpt><trkpt lat="44.3788517" lon="10.4319617"><ele>517.75</ele><time>2026-04-19T11:53:44.918Z</time></trkpt><trkpt lat="44.3789033" lon="10.43213"><ele>519.0</ele><time>2026-04-19T11:53:45.91Z</time></trkpt><trkpt lat="44.3789733" lon="10.4322683"><ele>519.0</ele><time>2026-04-19T11:53:46.916Z</time></trkpt><trkpt lat="44.3790817" lon="10.432385"><ele>519.0</ele><time>2026-04-19T11:53:47.91Z</time></trkpt><trkpt lat="44.37921" lon="10.432495"><ele>519.0</ele><time>2026-04-19T11:53:48.916Z</time></trkpt><trkpt lat="44.37935" lon="10.4326033"><ele>519.0</ele><time>2026-04-19T11:53:49.916Z</time></trkpt><trkpt lat="44.3794883" lon="10.4327167"><ele>519.0</ele><time>2026-04-19T11:53:50.994Z</time></trkpt><trkpt lat="44.3796333" lon="10.4328233"><ele>519.0</ele><time>2026-04-19T11:53:51.94Z</time></trkpt><trkpt lat="44.3797883" lon="10.43292"><ele>519.0</ele><time>2026-04-19T11:53:52.94Z</time></trkpt><trkpt lat="44.3799533" lon="10.43302"><ele>521.6666666666666</ele><time>2026-04-19T11:53:53.923Z</time></trkpt><trkpt lat="44.3801067" lon="10.43312"><ele>524.3333333333333</ele><time>2026-04-19T11:53:54.913Z</time></trkpt><trkpt lat="44.3802533" lon="10.43322"><ele>527.0</ele><time>2026-04-19T11:53:55.911Z</time></trkpt><trkpt lat="44.38039" lon="10.4333067"><ele>527.0</ele><time>2026-04-19T11:53:56.952Z</time></trkpt><trkpt lat="44.3805133" lon="10.433385"><ele>527.0</ele><time>2026-04-19T11:53:57.931Z</time></trkpt><trkpt lat="44.3806267" lon="10.4334567"><ele>527.0</ele><time>2026-04-19T11:53:58.925Z</time></trkpt><trkpt lat="44.38072" lon="10.4335133"><ele>527.0</ele><time>2026-04-19T11:53:59.971Z</time></trkpt><trkpt lat="44.3807933" lon="10.433555"><ele>527.0</ele><time>2026-04-19T11:54:00.913Z</time></trkpt><trkpt lat="44.380855" lon="10.4335917"><ele>528.0</ele><time>2026-04-19T11:54:01.91Z</time></trkpt><trkpt lat="44.3809183" lon="10.4336367"><ele>529.0</ele><time>2026-04-19T11:54:03.918Z</time></trkpt><trkpt lat="44.38098" lon="10.4337417"><ele>530.0</ele><time>2026-04-19T11:54:07.913Z</time></trkpt><trkpt lat="44.3810383" lon="10.4338183"><ele>531.0</ele><time>2026-04-19T11:54:09.913Z</time></trkpt><trkpt lat="44.3811" lon="10.43389"><ele>532.0</ele><time>2026-04-19T11:54:11.924Z</time></trkpt><trkpt lat="44.38116" lon="10.4339833"><ele>533.0</ele><time>2026-04-19T11:54:13.908Z</time></trkpt><trkpt lat="44.3812383" lon="10.434115"><ele>533.0</ele><time>2026-04-19T11:54:15.929Z</time></trkpt><trkpt lat="44.3812817" lon="10.4341917"><ele>533.0</ele><time>2026-04-19T11:54:16.947Z</time></trkpt><trkpt lat="44.381325" lon="10.4342717"><ele>533.0</ele><time>2026-04-19T11:54:17.925Z</time></trkpt><trkpt lat="44.3813633" lon="10.4343533"><ele>533.0</ele><time>2026-04-19T11:54:18.911Z</time></trkpt><trkpt lat="44.3813917" lon="10.43444"><ele>533.0</ele><time>2026-04-19T11:54:19.913Z</time></trkpt><trkpt lat="44.3814067" lon="10.4345683"><ele>533.0</ele><time>2026-04-19T11:54:20.93Z</time></trkpt><trkpt lat="44.3814117" lon="10.4347017"><ele>534.6</ele><time>2026-04-19T11:54:21.909Z</time></trkpt><trkpt lat="44.3814333" lon="10.43483"><ele>536.1999999999999</ele><time>2026-04-19T11:54:22.914Z</time></trkpt><trkpt lat="44.3814817" lon="10.4349517"><ele>537.8</ele><time>2026-04-19T11:54:23.914Z</time></trkpt><trkpt lat="44.38156" lon="10.4350533"><ele>539.4</ele><time>2026-04-19T11:54:24.908Z</time></trkpt><trkpt lat="44.3816517" lon="10.43515"><ele>541.0</ele><time>2026-04-19T11:54:25.923Z</time></trkpt><trkpt lat="44.3817367" lon="10.43525"><ele>541.0</ele><time>2026-04-19T11:54:26.908Z</time></trkpt><trkpt lat="44.3818067" lon="10.435355"><ele>541.0</ele><time>2026-04-19T11:54:27.912Z</time></trkpt><trkpt lat="44.381845" lon="10.435475"><ele>541.0</ele><time>2026-04-19T11:54:28.913Z</time></trkpt><trkpt lat="44.38185" lon="10.4356033"><ele>541.0</ele><time>2026-04-19T11:54:29.909Z</time></trkpt><trkpt lat="44.3818183" lon="10.4357467"><ele>541.0</ele><time>2026-04-19T11:54:30.91Z</time></trkpt><trkpt lat="44.3817717" lon="10.4359117"><ele>540.0</ele><time>2026-04-19T11:54:31.909Z</time></trkpt><trkpt lat="44.38173" lon="10.4360767"><ele>539.0</ele><time>2026-04-19T11:54:32.932Z</time></trkpt><trkpt lat="44.3817033" lon="10.43623"><ele>538.0</ele><time>2026-04-19T11:54:33.934Z</time></trkpt><trkpt lat="44.381705" lon="10.4363767"><ele>537.0</ele><time>2026-04-19T11:54:34.912Z</time></trkpt><trkpt lat="44.3817433" lon="10.436515"><ele>536.0</ele><time>2026-04-19T11:54:35.91Z</time></trkpt><trkpt lat="44.3818083" lon="10.4366183"><ele>535.25</ele><time>2026-04-19T11:54:36.91Z</time></trkpt><trkpt lat="44.38191" lon="10.4366917"><ele>534.5</ele><time>2026-04-19T11:54:37.918Z</time></trkpt><trkpt lat="44.38204" lon="10.4367433"><ele>533.75</ele><time>2026-04-19T11:54:38.941Z</time></trkpt><trkpt lat="44.3821883" lon="10.436795"><ele>533.0</ele><time>2026-04-19T11:54:39.909Z</time></trkpt><trkpt lat="44.3823417" lon="10.436865"><ele>536.0</ele><time>2026-04-19T11:54:40.978Z</time></trkpt><trkpt lat="44.382495" lon="10.4369533"><ele>539.0</ele><time>2026-04-19T11:54:41.933Z</time></trkpt><trkpt lat="44.3826367" lon="10.4370567"><ele>542.0</ele><time>2026-04-19T11:54:42.913Z</time></trkpt><trkpt lat="44.3827633" lon="10.4371933"><ele>540.0</ele><time>2026-04-19T11:54:43.923Z</time></trkpt><trkpt lat="44.382885" lon="10.4373567"><ele>538.0</ele><time>2026-04-19T11:54:44.906Z</time></trkpt><trkpt lat="44.383005" lon="10.4375383"><ele>536.0</ele><time>2026-04-19T11:54:45.907Z</time></trkpt><trkpt lat="44.3831233" lon="10.4377133"><ele>536.0</ele><time>2026-04-19T11:54:46.942Z</time></trkpt><trkpt lat="44.383235" lon="10.4378817"><ele>536.0</ele><time>2026-04-19T11:54:47.907Z</time></trkpt><trkpt lat="44.383335" lon="10.43804"><ele>536.0</ele><time>2026-04-19T11:54:48.936Z</time></trkpt><trkpt lat="44.383415" lon="10.4381883"><ele>536.0</ele><time>2026-04-19T11:54:49.91Z</time></trkpt><trkpt lat="44.3834717" lon="10.4383383"><ele>534.5</ele><time>2026-04-19T11:54:50.907Z</time></trkpt><trkpt lat="44.3835017" lon="10.438515"><ele>533.0</ele><time>2026-04-19T11:54:51.908Z</time></trkpt><trkpt lat="44.3834967" lon="10.4387133"><ele>531.5</ele><time>2026-04-19T11:54:52.942Z</time></trkpt><trkpt lat="44.3834633" lon="10.4389383"><ele>530.0</ele><time>2026-04-19T11:54:53.911Z</time></trkpt><trkpt lat="44.3834167" lon="10.4391767"><ele>530.0</ele><time>2026-04-19T11:54:54.917Z</time></trkpt><trkpt lat="44.3833633" lon="10.4394133"><ele>530.0</ele><time>2026-04-19T11:54:55.92Z</time></trkpt><trkpt lat="44.3832933" lon="10.4396433"><ele>530.0</ele><time>2026-04-19T11:54:56.916Z</time></trkpt><trkpt lat="44.3832067" lon="10.43986"><ele>532.0</ele><time>2026-04-19T11:54:57.912Z</time></trkpt><trkpt lat="44.3831267" lon="10.4400517"><ele>534.0</ele><time>2026-04-19T11:54:58.926Z</time></trkpt><trkpt lat="44.3830533" lon="10.4402117"><ele>536.0</ele><time>2026-04-19T11:54:59.915Z</time></trkpt><trkpt lat="44.3829917" lon="10.4403483"><ele>538.0</ele><time>2026-04-19T11:55:00.933Z</time></trkpt><trkpt lat="44.3829483" lon="10.4404617"><ele>538.75</ele><time>2026-04-19T11:55:01.91Z</time></trkpt><trkpt lat="44.382925" lon="10.44058"><ele>539.5</ele><time>2026-04-19T11:55:02.976Z</time></trkpt><trkpt lat="44.3829333" lon="10.4407367"><ele>540.25</ele><time>2026-04-19T11:55:03.942Z</time></trkpt><trkpt lat="44.3829633" lon="10.4409067"><ele>541.0</ele><time>2026-04-19T11:55:04.911Z</time></trkpt><trkpt lat="44.3830167" lon="10.44107"><ele>541.0</ele><time>2026-04-19T11:55:05.907Z</time></trkpt><trkpt lat="44.3830867" lon="10.441225"><ele>541.0</ele><time>2026-04-19T11:55:06.911Z</time></trkpt><trkpt lat="44.3831633" lon="10.44137"><ele>541.0</ele><time>2026-04-19T11:55:07.915Z</time></trkpt><trkpt lat="44.3832367" lon="10.4415133"><ele>541.0</ele><time>2026-04-19T11:55:08.918Z</time></trkpt><trkpt lat="44.38331" lon="10.4416517"><ele>537.8</ele><time>2026-04-19T11:55:09.939Z</time></trkpt><trkpt lat="44.3834" lon="10.4417767"><ele>534.6</ele><time>2026-04-19T11:55:10.91Z</time></trkpt><trkpt lat="44.3834917" lon="10.44189"><ele>531.4</ele><time>2026-04-19T11:55:11.906Z</time></trkpt><trkpt lat="44.3835733" lon="10.4419783"><ele>528.2</ele><time>2026-04-19T11:55:12.961Z</time></trkpt><trkpt lat="44.38364" lon="10.4420233"><ele>525.0</ele><time>2026-04-19T11:55:13.907Z</time></trkpt><trkpt lat="44.3837033" lon="10.442055"><ele>525.0</ele><time>2026-04-19T11:55:14.93Z</time></trkpt><trkpt lat="44.38378" lon="10.4419883"><ele>525.0</ele><time>2026-04-19T11:55:15.936Z</time></trkpt><trkpt lat="44.3838667" lon="10.4419083"><ele>525.0</ele><time>2026-04-19T11:55:16.91Z</time></trkpt><trkpt lat="44.3839817" lon="10.441825"><ele>525.0</ele><time>2026-04-19T11:55:17.91Z</time></trkpt><trkpt lat="44.3841117" lon="10.441765"><ele>527.5</ele><time>2026-04-19T11:55:18.911Z</time></trkpt><trkpt lat="44.3842467" lon="10.4417433"><ele>530.0</ele><time>2026-04-19T11:55:19.918Z</time></trkpt><trkpt lat="44.3843683" lon="10.4417567"><ele>532.5</ele><time>2026-04-19T11:55:20.918Z</time></trkpt><trkpt lat="44.38447" lon="10.441805"><ele>535.0</ele><time>2026-04-19T11:55:21.955Z</time></trkpt><trkpt lat="44.3845667" lon="10.44184"><ele>535.0</ele><time>2026-04-19T11:55:22.922Z</time></trkpt><trkpt lat="44.3846717" lon="10.4418367"><ele>535.0</ele><time>2026-04-19T11:55:23.91Z</time></trkpt><trkpt lat="44.384785" lon="10.4418067"><ele>535.0</ele><time>2026-04-19T11:55:24.906Z</time></trkpt><trkpt lat="44.3849" lon="10.4417917"><ele>535.0</ele><time>2026-04-19T11:55:25.949Z</time></trkpt><trkpt lat="44.3850133" lon="10.4418117"><ele>533.75</ele><time>2026-04-19T11:55:26.937Z</time></trkpt><trkpt lat="44.3851217" lon="10.4418833"><ele>532.5</ele><time>2026-04-19T11:55:27.926Z</time></trkpt><trkpt lat="44.3852067" lon="10.44199"><ele>531.25</ele><time>2026-04-19T11:55:28.923Z</time></trkpt><trkpt lat="44.3852733" lon="10.4421433"><ele>530.0</ele><time>2026-04-19T11:55:29.972Z</time></trkpt><trkpt lat="44.385325" lon="10.4423233"><ele>524.75</ele><time>2026-04-19T11:55:30.922Z</time></trkpt><trkpt lat="44.3853767" lon="10.4425217"><ele>519.5</ele><time>2026-04-19T11:55:31.916Z</time></trkpt><trkpt lat="44.3854333" lon="10.4426967"><ele>514.25</ele><time>2026-04-19T11:55:32.915Z</time></trkpt><trkpt lat="44.3854833" lon="10.4428483"><ele>509.0</ele><time>2026-04-19T11:55:33.921Z</time></trkpt><trkpt lat="44.38551" lon="10.4430083"><ele>505.5</ele><time>2026-04-19T11:55:34.984Z</time></trkpt><trkpt lat="44.38551" lon="10.44318"><ele>502.0</ele><time>2026-04-19T11:55:35.927Z</time></trkpt><trkpt lat="44.385495" lon="10.4433617"><ele>498.5</ele><time>2026-04-19T11:55:36.935Z</time></trkpt><trkpt lat="44.3854733" lon="10.4435483"><ele>495.0</ele><time>2026-04-19T11:55:37.937Z</time></trkpt><trkpt lat="44.38544" lon="10.443735"><ele>493.4</ele><time>2026-04-19T11:55:38.955Z</time></trkpt><trkpt lat="44.3854167" lon="10.4438983"><ele>491.8</ele><time>2026-04-19T11:55:39.924Z</time></trkpt><trkpt lat="44.3854167" lon="10.44403"><ele>490.20000000000005</ele><time>2026-04-19T11:55:40.924Z</time></trkpt><trkpt lat="44.3854417" lon="10.444145"><ele>488.6</ele><time>2026-04-19T11:55:41.934Z</time></trkpt><trkpt lat="44.3854833" lon="10.44424"><ele>487.0</ele><time>2026-04-19T11:55:42.946Z</time></trkpt><trkpt lat="44.3855783" lon="10.44426"><ele>491.0</ele><time>2026-04-19T11:55:43.926Z</time></trkpt><trkpt lat="44.38568" lon="10.4442233"><ele>495.0</ele><time>2026-04-19T11:55:44.919Z</time></trkpt><trkpt lat="44.3857717" lon="10.4441283"><ele>499.0</ele><time>2026-04-19T11:55:45.909Z</time></trkpt><trkpt lat="44.3858667" lon="10.44397"><ele>503.0</ele><time>2026-04-19T11:55:46.911Z</time></trkpt><trkpt lat="44.3859533" lon="10.4438"><ele>504.0</ele><time>2026-04-19T11:55:47.909Z</time></trkpt><trkpt lat="44.386045" lon="10.4436367"><ele>505.0</ele><time>2026-04-19T11:55:48.907Z</time></trkpt><trkpt lat="44.3861383" lon="10.4435083"><ele>506.0</ele><time>2026-04-19T11:55:49.931Z</time></trkpt><trkpt lat="44.38625" lon="10.4434367"><ele>507.0</ele><time>2026-04-19T11:55:50.921Z</time></trkpt><trkpt lat="44.3863767" lon="10.44342"><ele>504.75</ele><time>2026-04-19T11:55:51.915Z</time></trkpt><trkpt lat="44.3865083" lon="10.443445"><ele>502.5</ele><time>2026-04-19T11:55:52.921Z</time></trkpt><trkpt lat="44.3866467" lon="10.443525"><ele>500.25</ele><time>2026-04-19T11:55:53.943Z</time></trkpt><trkpt lat="44.3867783" lon="10.44366"><ele>498.0</ele><time>2026-04-19T11:55:54.928Z</time></trkpt><trkpt lat="44.3869083" lon="10.44382"><ele>495.0</ele><time>2026-04-19T11:55:55.909Z</time></trkpt><trkpt lat="44.387025" lon="10.4439817"><ele>492.0</ele><time>2026-04-19T11:55:56.908Z</time></trkpt><trkpt lat="44.3871183" lon="10.4441233"><ele>489.0</ele><time>2026-04-19T11:55:57.918Z</time></trkpt><trkpt lat="44.387195" lon="10.4442317"><ele>486.0</ele><time>2026-04-19T11:55:58.942Z</time></trkpt><trkpt lat="44.38727" lon="10.4442983"><ele>485.6</ele><time>2026-04-19T11:55:59.906Z</time></trkpt><trkpt lat="44.3873483" lon="10.4443283"><ele>485.20000000000005</ele><time>2026-04-19T11:56:00.986Z</time></trkpt><trkpt lat="44.387435" lon="10.4443117"><ele>484.79999999999995</ele><time>2026-04-19T11:56:01.962Z</time></trkpt><trkpt lat="44.38755" lon="10.444265"><ele>484.4</ele><time>2026-04-19T11:56:02.937Z</time></trkpt><trkpt lat="44.3876767" lon="10.4442383"><ele>484.0</ele><time>2026-04-19T11:56:03.915Z</time></trkpt><trkpt lat="44.3877917" lon="10.4442333"><ele>484.0</ele><time>2026-04-19T11:56:04.941Z</time></trkpt><trkpt lat="44.3878917" lon="10.4442417"><ele>484.0</ele><time>2026-04-19T11:56:05.91Z</time></trkpt><trkpt lat="44.38797" lon="10.444275"><ele>484.0</ele><time>2026-04-19T11:56:06.922Z</time></trkpt><trkpt lat="44.3880317" lon="10.444365"><ele>484.0</ele><time>2026-04-19T11:56:07.929Z</time></trkpt><trkpt lat="44.3880733" lon="10.4445217"><ele>484.0</ele><time>2026-04-19T11:56:08.945Z</time></trkpt><trkpt lat="44.3881183" lon="10.4447033"><ele>479.0</ele><time>2026-04-19T11:56:09.91Z</time></trkpt><trkpt lat="44.38818" lon="10.44489"><ele>474.0</ele><time>2026-04-19T11:56:10.942Z</time></trkpt><trkpt lat="44.3882617" lon="10.445065"><ele>469.0</ele><time>2026-04-19T11:56:11.909Z</time></trkpt><trkpt lat="44.3883633" lon="10.4452233"><ele>464.0</ele><time>2026-04-19T11:56:12.962Z</time></trkpt><trkpt lat="44.3884617" lon="10.4453533"><ele>462.4</ele><time>2026-04-19T11:56:13.934Z</time></trkpt><trkpt lat="44.3885367" lon="10.4454683"><ele>460.79999999999995</ele><time>2026-04-19T11:56:14.931Z</time></trkpt><trkpt lat="44.388575" lon="10.44559"><ele>459.20000000000005</ele><time>2026-04-19T11:56:15.927Z</time></trkpt><trkpt lat="44.3885783" lon="10.4457467"><ele>457.6</ele><time>2026-04-19T11:56:16.979Z</time></trkpt><trkpt lat="44.3885517" lon="10.445925"><ele>456.0</ele><time>2026-04-19T11:56:17.919Z</time></trkpt><trkpt lat="44.3885317" lon="10.4460867"><ele>456.0</ele><time>2026-04-19T11:56:18.955Z</time></trkpt><trkpt lat="44.3885333" lon="10.4462083"><ele>456.0</ele><time>2026-04-19T11:56:19.927Z</time></trkpt><trkpt lat="44.3885567" lon="10.4463133"><ele>456.0</ele><time>2026-04-19T11:56:20.908Z</time></trkpt><trkpt lat="44.3886167" lon="10.4463917"><ele>456.0</ele><time>2026-04-19T11:56:21.985Z</time></trkpt><trkpt lat="44.38873" lon="10.4463867"><ele>456.0</ele><time>2026-04-19T11:56:22.952Z</time></trkpt><trkpt lat="44.38882" lon="10.44635"><ele>454.20000000000005</ele><time>2026-04-19T11:56:23.909Z</time></trkpt><trkpt lat="44.3888883" lon="10.44626"><ele>452.40000000000003</ele><time>2026-04-19T11:56:24.944Z</time></trkpt><trkpt lat="44.3889183" lon="10.44614"><ele>450.6</ele><time>2026-04-19T11:56:25.942Z</time></trkpt><trkpt lat="44.3889033" lon="10.4459883"><ele>448.8</ele><time>2026-04-19T11:56:26.92Z</time></trkpt><trkpt lat="44.3888733" lon="10.4458383"><ele>447.0</ele><time>2026-04-19T11:56:27.94Z</time></trkpt><trkpt lat="44.3888533" lon="10.4456917"><ele>447.0</ele><time>2026-04-19T11:56:28.957Z</time></trkpt><trkpt lat="44.38886" lon="10.4455567"><ele>447.00000000000006</ele><time>2026-04-19T11:56:29.91Z</time></trkpt><trkpt lat="44.388895" lon="10.4454417"><ele>447.00000000000006</ele><time>2026-04-19T11:56:30.963Z</time></trkpt><trkpt lat="44.3889417" lon="10.4453333"><ele>447.0</ele><time>2026-04-19T11:56:31.946Z</time></trkpt><trkpt lat="44.388975" lon="10.4452117"><ele>447.0</ele><time>2026-04-19T11:56:32.91Z</time></trkpt><trkpt lat="44.3889633" lon="10.4450483"><ele>445.5</ele><time>2026-04-19T11:56:33.91Z</time></trkpt><trkpt lat="44.3889317" lon="10.4448617"><ele>444.0</ele><time>2026-04-19T11:56:34.915Z</time></trkpt><trkpt lat="44.38889" lon="10.444675"><ele>442.5</ele><time>2026-04-19T11:56:35.91Z</time></trkpt><trkpt lat="44.3888433" lon="10.444495"><ele>441.0</ele><time>2026-04-19T11:56:36.92Z</time></trkpt><trkpt lat="44.388805" lon="10.44432"><ele>440.8</ele><time>2026-04-19T11:56:37.909Z</time></trkpt><trkpt lat="44.3887767" lon="10.444145"><ele>440.6</ele><time>2026-04-19T11:56:38.909Z</time></trkpt><trkpt lat="44.38877" lon="10.4439933"><ele>440.4</ele><time>2026-04-19T11:56:39.927Z</time></trkpt><trkpt lat="44.3887983" lon="10.44389"><ele>440.2</ele><time>2026-04-19T11:56:40.914Z</time></trkpt><trkpt lat="44.3888767" lon="10.4437833"><ele>440.0</ele><time>2026-04-19T11:56:41.909Z</time></trkpt><trkpt lat="44.3889967" lon="10.4436633"><ele>440.0</ele><time>2026-04-19T11:56:42.908Z</time></trkpt><trkpt lat="44.3890983" lon="10.4435383"><ele>440.0</ele><time>2026-04-19T11:56:43.924Z</time></trkpt><trkpt lat="44.3891833" lon="10.443395"><ele>440.0</ele><time>2026-04-19T11:56:44.917Z</time></trkpt><trkpt lat="44.3892583" lon="10.4432333"><ele>440.0</ele><time>2026-04-19T11:56:45.906Z</time></trkpt><trkpt lat="44.3893317" lon="10.4430567"><ele>441.0</ele><time>2026-04-19T11:56:46.912Z</time></trkpt><trkpt lat="44.3894033" lon="10.4428833"><ele>442.0</ele><time>2026-04-19T11:56:47.912Z</time></trkpt><trkpt lat="44.3894683" lon="10.4427083"><ele>443.0</ele><time>2026-04-19T11:56:48.917Z</time></trkpt><trkpt lat="44.3895367" lon="10.4425433"><ele>444.0</ele><time>2026-04-19T11:56:49.969Z</time></trkpt><trkpt lat="44.3896167" lon="10.4423967"><ele>439.25</ele><time>2026-04-19T11:56:50.911Z</time></trkpt><trkpt lat="44.38971" lon="10.442275"><ele>434.5</ele><time>2026-04-19T11:56:51.915Z</time></trkpt><trkpt lat="44.389815" lon="10.4421833"><ele>429.75</ele><time>2026-04-19T11:56:52.946Z</time></trkpt><trkpt lat="44.389915" lon="10.4420983"><ele>425.0</ele><time>2026-04-19T11:56:53.907Z</time></trkpt><trkpt lat="44.3900067" lon="10.4420017"><ele>425.0</ele><time>2026-04-19T11:56:54.939Z</time></trkpt><trkpt lat="44.3900733" lon="10.4419"><ele>425.0</ele><time>2026-04-19T11:56:55.915Z</time></trkpt><trkpt lat="44.3901167" lon="10.441785"><ele>425.0</ele><time>2026-04-19T11:56:56.916Z</time></trkpt><trkpt lat="44.3901433" lon="10.4416483"><ele>425.0</ele><time>2026-04-19T11:56:57.917Z</time></trkpt><trkpt lat="44.3901483" lon="10.44149"><ele>425.0</ele><time>2026-04-19T11:56:58.928Z</time></trkpt><trkpt lat="44.3901333" lon="10.4413167"><ele>423.6</ele><time>2026-04-19T11:56:59.942Z</time></trkpt><trkpt lat="44.3901183" lon="10.4411467"><ele>422.2</ele><time>2026-04-19T11:57:00.954Z</time></trkpt><trkpt lat="44.3901033" lon="10.4409983"><ele>420.79999999999995</ele><time>2026-04-19T11:57:01.973Z</time></trkpt><trkpt lat="44.3900767" lon="10.4408683"><ele>419.4</ele><time>2026-04-19T11:57:02.945Z</time></trkpt><trkpt lat="44.3900233" lon="10.4407567"><ele>418.0</ele><time>2026-04-19T11:57:03.91Z</time></trkpt><trkpt lat="44.3899633" lon="10.44065"><ele>418.00000000000006</ele><time>2026-04-19T11:57:04.928Z</time></trkpt><trkpt lat="44.3898983" lon="10.4405467"><ele>418.0</ele><time>2026-04-19T11:57:05.914Z</time></trkpt><trkpt lat="44.389835" lon="10.4404467"><ele>418.0</ele><time>2026-04-19T11:57:06.944Z</time></trkpt><trkpt lat="44.3897817" lon="10.4403517"><ele>418.0</ele><time>2026-04-19T11:57:07.92Z</time></trkpt><trkpt lat="44.3897433" lon="10.4402683"><ele>418.00000000000006</ele><time>2026-04-19T11:57:08.919Z</time></trkpt><trkpt lat="44.389765" lon="10.44014"><ele>418.0</ele><time>2026-04-19T11:57:10.951Z</time></trkpt><trkpt lat="44.3898333" lon="10.4401167"><ele>418.0</ele><time>2026-04-19T11:57:11.945Z</time></trkpt><trkpt lat="44.38991" lon="10.44013"><ele>418.0</ele><time>2026-04-19T11:57:12.914Z</time></trkpt><trkpt lat="44.3899967" lon="10.440185"><ele>418.0</ele><time>2026-04-19T11:57:13.937Z</time></trkpt><trkpt lat="44.390095" lon="10.4402933"><ele>418.0</ele><time>2026-04-19T11:57:14.91Z</time></trkpt><trkpt lat="44.3902" lon="10.4404317"><ele>418.0</ele><time>2026-04-19T11:57:15.981Z</time></trkpt><trkpt lat="44.3902983" lon="10.44057"><ele>418.0</ele><time>2026-04-19T11:57:16.929Z</time></trkpt><trkpt lat="44.3903883" lon="10.4406967"><ele>418.0</ele><time>2026-04-19T11:57:17.93Z</time></trkpt><trkpt lat="44.3904617" lon="10.4408083"><ele>418.0</ele><time>2026-04-19T11:57:18.942Z</time></trkpt><trkpt lat="44.3905233" lon="10.4409067"><ele>418.0</ele><time>2026-04-19T11:57:19.906Z</time></trkpt><trkpt lat="44.39057" lon="10.44099"><ele>418.0</ele><time>2026-04-19T11:57:20.906Z</time></trkpt><trkpt lat="44.390625" lon="10.4411233"><ele>416.1666666666667</ele><time>2026-04-19T11:57:22.92Z</time></trkpt><trkpt lat="44.3906483" lon="10.4412267"><ele>414.33333333333337</ele><time>2026-04-19T11:57:24.911Z</time></trkpt><trkpt lat="44.3906533" lon="10.441335"><ele>412.5</ele><time>2026-04-19T11:57:26.968Z</time></trkpt><trkpt lat="44.3906517" lon="10.4414683"><ele>410.66666666666663</ele><time>2026-04-19T11:57:28.911Z</time></trkpt><trkpt lat="44.3906483" lon="10.4416433"><ele>408.8333333333333</ele><time>2026-04-19T11:57:30.906Z</time></trkpt><trkpt lat="44.390645" lon="10.4417433"><ele>407.0</ele><time>2026-04-19T11:57:31.92Z</time></trkpt><trkpt lat="44.3906383" lon="10.4418433"><ele>406.8333333333333</ele><time>2026-04-19T11:57:32.917Z</time></trkpt><trkpt lat="44.39063" lon="10.4419483"><ele>406.66666666666663</ele><time>2026-04-19T11:57:33.985Z</time></trkpt><trkpt lat="44.3906217" lon="10.4420583"><ele>406.5</ele><time>2026-04-19T11:57:34.913Z</time></trkpt><trkpt lat="44.3906133" lon="10.442165"><ele>406.33333333333337</ele><time>2026-04-19T11:57:35.928Z</time></trkpt><trkpt lat="44.390605" lon="10.4422583"><ele>406.1666666666667</ele><time>2026-04-19T11:57:36.945Z</time></trkpt><trkpt lat="44.3905867" lon="10.44241"><ele>406.0</ele><time>2026-04-19T11:57:38.911Z</time></trkpt><trkpt lat="44.3905633" lon="10.442575"><ele>406.2857142857143</ele><time>2026-04-19T11:57:40.925Z</time></trkpt><trkpt lat="44.39055" lon="10.4426667"><ele>406.57142857142856</ele><time>2026-04-19T11:57:41.908Z</time></trkpt><trkpt lat="44.3905383" lon="10.442755"><ele>406.8571428571429</ele><time>2026-04-19T11:57:42.94Z</time></trkpt><trkpt lat="44.3905233" lon="10.4428483"><ele>407.1428571428571</ele><time>2026-04-19T11:57:43.923Z</time></trkpt><trkpt lat="44.39051" lon="10.4429483"><ele>407.42857142857144</ele><time>2026-04-19T11:57:44.909Z</time></trkpt><trkpt lat="44.3904967" lon="10.4430433"><ele>407.7142857142857</ele><time>2026-04-19T11:57:45.909Z</time></trkpt><trkpt lat="44.3904817" lon="10.4431317"><ele>408.0</ele><time>2026-04-19T11:57:46.913Z</time></trkpt><trkpt lat="44.3904683" lon="10.4432233"><ele>409.4</ele><time>2026-04-19T11:57:47.941Z</time></trkpt><trkpt lat="44.3904517" lon="10.4433367"><ele>410.79999999999995</ele><time>2026-04-19T11:57:48.905Z</time></trkpt><trkpt lat="44.3904333" lon="10.4434717"><ele>412.2</ele><time>2026-04-19T11:57:49.908Z</time></trkpt><trkpt lat="44.3904133" lon="10.443625"><ele>413.6</ele><time>2026-04-19T11:57:50.943Z</time></trkpt><trkpt lat="44.39039" lon="10.4437933"><ele>415.0</ele><time>2026-04-19T11:57:51.949Z</time></trkpt><trkpt lat="44.3903683" lon="10.4439767"><ele>415.0</ele><time>2026-04-19T11:57:52.946Z</time></trkpt><trkpt lat="44.3903467" lon="10.444175"><ele>415.0</ele><time>2026-04-19T11:57:53.924Z</time></trkpt><trkpt lat="44.390325" lon="10.4443717"><ele>415.0</ele><time>2026-04-19T11:57:54.913Z</time></trkpt><trkpt lat="44.3902983" lon="10.4445717"><ele>415.0</ele><time>2026-04-19T11:57:55.911Z</time></trkpt><trkpt lat="44.39027" lon="10.44478"><ele>414.6666666666667</ele><time>2026-04-19T11:57:56.948Z</time></trkpt><trkpt lat="44.3902433" lon="10.444995"><ele>414.33333333333337</ele><time>2026-04-19T11:57:57.94Z</time></trkpt><trkpt lat="44.3902333" lon="10.44521"><ele>414.0</ele><time>2026-04-19T11:57:58.917Z</time></trkpt><trkpt lat="44.3902483" lon="10.4454267"><ele>416.0</ele><time>2026-04-19T11:57:59.915Z</time></trkpt><trkpt lat="44.3902833" lon="10.4456467"><ele>418.0</ele><time>2026-04-19T11:58:00.948Z</time></trkpt><trkpt lat="44.390335" lon="10.4458667"><ele>420.0</ele><time>2026-04-19T11:58:01.939Z</time></trkpt><trkpt lat="44.390395" lon="10.4460817"><ele>420.0</ele><time>2026-04-19T11:58:02.935Z</time></trkpt><trkpt lat="44.3904633" lon="10.446285"><ele>420.0</ele><time>2026-04-19T11:58:03.909Z</time></trkpt><trkpt lat="44.390535" lon="10.446485"><ele>420.0</ele><time>2026-04-19T11:58:04.918Z</time></trkpt><trkpt lat="44.39061" lon="10.4466817"><ele>414.33333333333337</ele><time>2026-04-19T11:58:05.915Z</time></trkpt><trkpt lat="44.3906833" lon="10.4468767"><ele>408.6666666666667</ele><time>2026-04-19T11:58:06.976Z</time></trkpt><trkpt lat="44.3907567" lon="10.4470667"><ele>403.0</ele><time>2026-04-19T11:58:07.953Z</time></trkpt><trkpt lat="44.3908267" lon="10.44725"><ele>403.0</ele><time>2026-04-19T11:58:08.929Z</time></trkpt><trkpt lat="44.3908967" lon="10.4474283"><ele>403.0</ele><time>2026-04-19T11:58:09.923Z</time></trkpt><trkpt lat="44.3909717" lon="10.447605"><ele>403.0</ele><time>2026-04-19T11:58:10.918Z</time></trkpt><trkpt lat="44.39105" lon="10.4477817"><ele>403.0</ele><time>2026-04-19T11:58:11.921Z</time></trkpt><trkpt lat="44.3911517" lon="10.4479467"><ele>403.33333333333337</ele><time>2026-04-19T11:58:12.937Z</time></trkpt><trkpt lat="44.3912833" lon="10.4481"><ele>403.66666666666663</ele><time>2026-04-19T11:58:13.932Z</time></trkpt><trkpt lat="44.3914317" lon="10.4482483"><ele>404.0</ele><time>2026-04-19T11:58:14.917Z</time></trkpt><trkpt lat="44.3915867" lon="10.4483983"><ele>404.0</ele><time>2026-04-19T11:58:15.924Z</time></trkpt><trkpt lat="44.3917317" lon="10.44856"><ele>404.0</ele><time>2026-04-19T11:58:16.915Z</time></trkpt><trkpt lat="44.3918683" lon="10.44874"><ele>404.0</ele><time>2026-04-19T11:58:17.906Z</time></trkpt><trkpt lat="44.391995" lon="10.448925"><ele>402.66666666666663</ele><time>2026-04-19T11:58:18.939Z</time></trkpt><trkpt lat="44.3921183" lon="10.4491117"><ele>401.33333333333337</ele><time>2026-04-19T11:58:19.915Z</time></trkpt><trkpt lat="44.3922333" lon="10.4493117"><ele>400.0</ele><time>2026-04-19T11:58:20.922Z</time></trkpt><trkpt lat="44.3923383" lon="10.4495217"><ele>402.33333333333337</ele><time>2026-04-19T11:58:21.911Z</time></trkpt><trkpt lat="44.3924233" lon="10.4497517"><ele>404.66666666666663</ele><time>2026-04-19T11:58:22.932Z</time></trkpt><trkpt lat="44.3925017" lon="10.4499917"><ele>407.0</ele><time>2026-04-19T11:58:23.928Z</time></trkpt><trkpt lat="44.392585" lon="10.4502333"><ele>412.66666666666663</ele><time>2026-04-19T11:58:24.91Z</time></trkpt><trkpt lat="44.3926833" lon="10.4504733"><ele>418.33333333333337</ele><time>2026-04-19T11:58:25.931Z</time></trkpt><trkpt lat="44.3927867" lon="10.4507183"><ele>424.0</ele><time>2026-04-19T11:58:26.913Z</time></trkpt><trkpt lat="44.3928883" lon="10.4509833"><ele>424.0</ele><time>2026-04-19T11:58:27.923Z</time></trkpt><trkpt lat="44.3929817" lon="10.4512767"><ele>424.0</ele><time>2026-04-19T11:58:28.912Z</time></trkpt><trkpt lat="44.393065" lon="10.4515883"><ele>414.0</ele><time>2026-04-19T11:58:29.907Z</time></trkpt><trkpt lat="44.3931433" lon="10.4519133"><ele>404.0</ele><time>2026-04-19T11:58:31.092Z</time></trkpt><trkpt lat="44.3933" lon="10.4525733"><ele>404.0</ele><time>2026-04-19T11:58:32.931Z</time></trkpt><trkpt lat="44.393395" lon="10.4529083"><ele>404.0</ele><time>2026-04-19T11:58:33.978Z</time></trkpt><trkpt lat="44.393505" lon="10.45324"><ele>407.0</ele><time>2026-04-19T11:58:34.936Z</time></trkpt><trkpt lat="44.3936283" lon="10.4535683"><ele>410.0</ele><time>2026-04-19T11:58:35.921Z</time></trkpt><trkpt lat="44.393765" lon="10.4538917"><ele>403.0</ele><time>2026-04-19T11:58:36.912Z</time></trkpt><trkpt lat="44.3939083" lon="10.4542117"><ele>396.0</ele><time>2026-04-19T11:58:37.914Z</time></trkpt><trkpt lat="44.3940517" lon="10.4545217"><ele>398.5</ele><time>2026-04-19T11:58:38.907Z</time></trkpt><trkpt lat="44.3941917" lon="10.4548283"><ele>401.0</ele><time>2026-04-19T11:58:39.939Z</time></trkpt><trkpt lat="44.3943267" lon="10.4551283"><ele>401.0</ele><time>2026-04-19T11:58:40.938Z</time></trkpt><trkpt lat="44.3944533" lon="10.45543"><ele>401.0</ele><time>2026-04-19T11:58:41.91Z</time></trkpt><trkpt lat="44.3945717" lon="10.4557333"><ele>399.0</ele><time>2026-04-19T11:58:42.975Z</time></trkpt><trkpt lat="44.39468" lon="10.456045"><ele>397.0</ele><time>2026-04-19T11:58:43.924Z</time></trkpt><trkpt lat="44.394785" lon="10.4563583"><ele>397.0</ele><time>2026-04-19T11:58:44.942Z</time></trkpt><trkpt lat="44.394895" lon="10.456675"><ele>397.0</ele><time>2026-04-19T11:58:45.92Z</time></trkpt><trkpt lat="44.3950067" lon="10.456995"><ele>401.5</ele><time>2026-04-19T11:58:46.932Z</time></trkpt><trkpt lat="44.3951167" lon="10.4573067"><ele>406.0</ele><time>2026-04-19T11:58:47.917Z</time></trkpt><trkpt lat="44.3952233" lon="10.4575967"><ele>406.0</ele><time>2026-04-19T11:58:48.988Z</time></trkpt><trkpt lat="44.3953233" lon="10.457875"><ele>406.0</ele><time>2026-04-19T11:58:49.925Z</time></trkpt><trkpt lat="44.39542" lon="10.4581417"><ele>406.0</ele><time>2026-04-19T11:58:50.95Z</time></trkpt><trkpt lat="44.3955183" lon="10.4584"><ele>404.0</ele><time>2026-04-19T11:58:51.976Z</time></trkpt><trkpt lat="44.39562" lon="10.4586533"><ele>402.0</ele><time>2026-04-19T11:58:52.95Z</time></trkpt><trkpt lat="44.3957267" lon="10.4588983"><ele>400.0</ele><time>2026-04-19T11:58:53.954Z</time></trkpt><trkpt lat="44.3958433" lon="10.4591383"><ele>400.0</ele><time>2026-04-19T11:58:54.908Z</time></trkpt><trkpt lat="44.3959683" lon="10.4593717"><ele>400.0</ele><time>2026-04-19T11:58:55.947Z</time></trkpt><trkpt lat="44.396095" lon="10.459605"><ele>400.0</ele><time>2026-04-19T11:58:56.947Z</time></trkpt><trkpt lat="44.3962233" lon="10.459835"><ele>401.0</ele><time>2026-04-19T11:58:57.934Z</time></trkpt><trkpt lat="44.3963567" lon="10.4600617"><ele>402.0</ele><time>2026-04-19T11:58:58.919Z</time></trkpt><trkpt lat="44.3964917" lon="10.4602867"><ele>403.0</ele><time>2026-04-19T11:58:59.938Z</time></trkpt><trkpt lat="44.3966267" lon="10.460515"><ele>403.0</ele><time>2026-04-19T11:59:00.948Z</time></trkpt><trkpt lat="44.3967667" lon="10.4607367"><ele>403.0</ele><time>2026-04-19T11:59:01.931Z</time></trkpt><trkpt lat="44.3969067" lon="10.460955"><ele>403.0</ele><time>2026-04-19T11:59:02.936Z</time></trkpt><trkpt lat="44.39705" lon="10.4611667"><ele>399.6666666666667</ele><time>2026-04-19T11:59:03.914Z</time></trkpt><trkpt lat="44.397205" lon="10.46136"><ele>396.33333333333337</ele><time>2026-04-19T11:59:04.908Z</time></trkpt><trkpt lat="44.3973683" lon="10.4615383"><ele>393.0</ele><time>2026-04-19T11:59:05.951Z</time></trkpt><trkpt lat="44.3975367" lon="10.461705"><ele>393.0</ele><time>2026-04-19T11:59:06.929Z</time></trkpt><trkpt lat="44.39771" lon="10.4618633"><ele>393.0</ele><time>2026-04-19T11:59:07.912Z</time></trkpt><trkpt lat="44.39789" lon="10.462015"><ele>393.0</ele><time>2026-04-19T11:59:08.909Z</time></trkpt><trkpt lat="44.3980717" lon="10.46216"><ele>393.33333333333337</ele><time>2026-04-19T11:59:09.909Z</time></trkpt><trkpt lat="44.398265" lon="10.4622967"><ele>393.6666666666667</ele><time>2026-04-19T11:59:10.911Z</time></trkpt><trkpt lat="44.3984617" lon="10.46244"><ele>394.0</ele><time>2026-04-19T11:59:11.914Z</time></trkpt><trkpt lat="44.3986517" lon="10.4626"><ele>394.0</ele><time>2026-04-19T11:59:12.918Z</time></trkpt><trkpt lat="44.3988317" lon="10.4627783"><ele>394.0</ele><time>2026-04-19T11:59:13.91Z</time></trkpt><trkpt lat="44.399005" lon="10.4629683"><ele>394.0</ele><time>2026-04-19T11:59:14.921Z</time></trkpt><trkpt lat="44.399175" lon="10.4631567"><ele>394.0</ele><time>2026-04-19T11:59:15.911Z</time></trkpt><trkpt lat="44.3993417" lon="10.46335"><ele>394.0</ele><time>2026-04-19T11:59:16.912Z</time></trkpt><trkpt lat="44.3995033" lon="10.46354"><ele>394.0</ele><time>2026-04-19T11:59:17.909Z</time></trkpt><trkpt lat="44.3996683" lon="10.4637117"><ele>393.0</ele><time>2026-04-19T11:59:18.91Z</time></trkpt><trkpt lat="44.3998383" lon="10.463865"><ele>392.0</ele><time>2026-04-19T11:59:19.908Z</time></trkpt><trkpt lat="44.4000167" lon="10.464005"><ele>391.0</ele><time>2026-04-19T11:59:20.909Z</time></trkpt><trkpt lat="44.4001967" lon="10.4641283"><ele>391.0</ele><time>2026-04-19T11:59:21.923Z</time></trkpt><trkpt lat="44.4003767" lon="10.4642417"><ele>391.0</ele><time>2026-04-19T11:59:22.934Z</time></trkpt><trkpt lat="44.4005517" lon="10.464355"><ele>391.0</ele><time>2026-04-19T11:59:23.925Z</time></trkpt><trkpt lat="44.40072" lon="10.46447"><ele>392.6666666666667</ele><time>2026-04-19T11:59:24.915Z</time></trkpt><trkpt lat="44.4008817" lon="10.4645883"><ele>394.33333333333337</ele><time>2026-04-19T11:59:25.929Z</time></trkpt><trkpt lat="44.4010383" lon="10.4647083"><ele>396.0</ele><time>2026-04-19T11:59:26.913Z</time></trkpt><trkpt lat="44.401175" lon="10.4648267"><ele>396.0</ele><time>2026-04-19T11:59:27.915Z</time></trkpt><trkpt lat="44.4012917" lon="10.4649467"><ele>396.0</ele><time>2026-04-19T11:59:28.913Z</time></trkpt><trkpt lat="44.401385" lon="10.46507"><ele>396.0</ele><time>2026-04-19T11:59:29.909Z</time></trkpt><trkpt lat="44.4014533" lon="10.4651883"><ele>396.0</ele><time>2026-04-19T11:59:30.915Z</time></trkpt><trkpt lat="44.4014967" lon="10.465305"><ele>394.8</ele><time>2026-04-19T11:59:31.906Z</time></trkpt><trkpt lat="44.40152" lon="10.4654167"><ele>393.6</ele><time>2026-04-19T11:59:32.913Z</time></trkpt><trkpt lat="44.4015167" lon="10.4655283"><ele>392.4</ele><time>2026-04-19T11:59:33.908Z</time></trkpt><trkpt lat="44.4014933" lon="10.4656433"><ele>391.2</ele><time>2026-04-19T11:59:34.908Z</time></trkpt><trkpt lat="44.4014383" lon="10.4657517"><ele>390.0</ele><time>2026-04-19T11:59:35.91Z</time></trkpt><trkpt lat="44.40136" lon="10.465865"><ele>394.25</ele><time>2026-04-19T11:59:36.916Z</time></trkpt><trkpt lat="44.40129" lon="10.465995"><ele>398.5</ele><time>2026-04-19T11:59:37.911Z</time></trkpt><trkpt lat="44.4012333" lon="10.46614"><ele>402.75</ele><time>2026-04-19T11:59:38.948Z</time></trkpt><trkpt lat="44.4011967" lon="10.46629"><ele>407.0</ele><time>2026-04-19T11:59:39.942Z</time></trkpt><trkpt lat="44.401195" lon="10.4664517"><ele>408.5</ele><time>2026-04-19T11:59:40.926Z</time></trkpt><trkpt lat="44.4012383" lon="10.466635"><ele>410.0</ele><time>2026-04-19T11:59:41.911Z</time></trkpt><trkpt lat="44.4013117" lon="10.466805"><ele>411.5</ele><time>2026-04-19T11:59:42.931Z</time></trkpt><trkpt lat="44.401385" lon="10.46695"><ele>413.0</ele><time>2026-04-19T11:59:43.923Z</time></trkpt><trkpt lat="44.40145" lon="10.4670833"><ele>410.66666666666663</ele><time>2026-04-19T11:59:44.911Z</time></trkpt><trkpt lat="44.40151" lon="10.4672"><ele>408.3333333333333</ele><time>2026-04-19T11:59:45.945Z</time></trkpt><trkpt lat="44.401555" lon="10.46729"><ele>406.0</ele><time>2026-04-19T11:59:46.96Z</time></trkpt><trkpt lat="44.4016167" lon="10.4674"><ele>403.66666666666663</ele><time>2026-04-19T11:59:48.948Z</time></trkpt><trkpt lat="44.4016883" lon="10.4674267"><ele>401.3333333333333</ele><time>2026-04-19T11:59:51.918Z</time></trkpt><trkpt lat="44.4017433" lon="10.4673583"><ele>399.0</ele><time>2026-04-19T11:59:52.944Z</time></trkpt><trkpt lat="44.401805" lon="10.4672617"><ele>399.0</ele><time>2026-04-19T11:59:53.919Z</time></trkpt><trkpt lat="44.401885" lon="10.4671367"><ele>399.0</ele><time>2026-04-19T11:59:54.918Z</time></trkpt><trkpt lat="44.4019917" lon="10.46701"><ele>399.0</ele><time>2026-04-19T11:59:55.959Z</time></trkpt><trkpt lat="44.4021167" lon="10.466885"><ele>399.0</ele><time>2026-04-19T11:59:56.923Z</time></trkpt><trkpt lat="44.40226" lon="10.4667583"><ele>394.0</ele><time>2026-04-19T11:59:57.911Z</time></trkpt><trkpt lat="44.40241" lon="10.4666267"><ele>389.0</ele><time>2026-04-19T11:59:58.925Z</time></trkpt><trkpt lat="44.402555" lon="10.4664967"><ele>384.0</ele><time>2026-04-19T11:59:59.909Z</time></trkpt><trkpt lat="44.40268" lon="10.4663783"><ele>384.0</ele><time>2026-04-19T12:00:00.916Z</time></trkpt><trkpt lat="44.402795" lon="10.4662683"><ele>384.0</ele><time>2026-04-19T12:00:01.969Z</time></trkpt><trkpt lat="44.4029033" lon="10.4661683"><ele>384.0</ele><time>2026-04-19T12:00:02.965Z</time></trkpt><trkpt lat="44.4030033" lon="10.466075"><ele>384.0</ele><time>2026-04-19T12:00:03.928Z</time></trkpt><trkpt lat="44.4030983" lon="10.46599"><ele>384.0</ele><time>2026-04-19T12:00:04.923Z</time></trkpt><trkpt lat="44.4031817" lon="10.465915"><ele>384.0</ele><time>2026-04-19T12:00:05.938Z</time></trkpt><trkpt lat="44.4032567" lon="10.4658483"><ele>384.0</ele><time>2026-04-19T12:00:06.911Z</time></trkpt><trkpt lat="44.40332" lon="10.46579"><ele>384.0</ele><time>2026-04-19T12:00:07.934Z</time></trkpt><trkpt lat="44.4034183" lon="10.4657083"><ele>384.0</ele><time>2026-04-19T12:00:09.908Z</time></trkpt><trkpt lat="44.4034867" lon="10.4656467"><ele>384.0</ele><time>2026-04-19T12:00:11.913Z</time></trkpt><trkpt lat="44.4034733" lon="10.4655217"><ele>384.0</ele><time>2026-04-19T12:00:14.906Z</time></trkpt><trkpt lat="44.40339" lon="10.465405"><ele>384.0</ele><time>2026-04-19T12:00:16.919Z</time></trkpt><trkpt lat="44.4033433" lon="10.4653267"><ele>384.0</ele><time>2026-04-19T12:00:17.916Z</time></trkpt><trkpt lat="44.4033017" lon="10.4652483"><ele>384.0</ele><time>2026-04-19T12:00:18.91Z</time></trkpt><trkpt lat="44.40326" lon="10.4651683"><ele>384.0</ele><time>2026-04-19T12:00:19.963Z</time></trkpt><trkpt lat="44.4032183" lon="10.4650883"><ele>384.79999999999995</ele><time>2026-04-19T12:00:20.908Z</time></trkpt><trkpt lat="44.4031783" lon="10.465015"><ele>385.59999999999997</ele><time>2026-04-19T12:00:21.908Z</time></trkpt><trkpt lat="44.4031383" lon="10.464945"><ele>386.4</ele><time>2026-04-19T12:00:22.944Z</time></trkpt><trkpt lat="44.40307" lon="10.4648283"><ele>387.2</ele><time>2026-04-19T12:00:24.939Z</time></trkpt><trkpt lat="44.4030017" lon="10.4647283"><ele>388.0</ele><time>2026-04-19T12:00:26.926Z</time></trkpt><trkpt lat="44.4029317" lon="10.4645883"><ele>388.00000000000006</ele><time>2026-04-19T12:00:28.952Z</time></trkpt><trkpt lat="44.40289" lon="10.4645117"><ele>388.0</ele><time>2026-04-19T12:00:29.91Z</time></trkpt><trkpt lat="44.402835" lon="10.4644267"><ele>388.0</ele><time>2026-04-19T12:00:30.914Z</time></trkpt><trkpt lat="44.4027783" lon="10.4643517"><ele>388.0</ele><time>2026-04-19T12:00:31.94Z</time></trkpt><trkpt lat="44.4027233" lon="10.4642783"><ele>388.00000000000006</ele><time>2026-04-19T12:00:32.947Z</time></trkpt><trkpt lat="44.4026667" lon="10.4642033"><ele>388.0</ele><time>2026-04-19T12:00:33.912Z</time></trkpt><trkpt lat="44.402625" lon="10.464125"><ele>388.00000000000006</ele><time>2026-04-19T12:00:34.914Z</time></trkpt><trkpt lat="44.4026083" lon="10.4640283"><ele>388.0</ele><time>2026-04-19T12:00:35.956Z</time></trkpt><trkpt lat="44.4026083" lon="10.46391"><ele>388.0</ele><time>2026-04-19T12:00:36.972Z</time></trkpt><trkpt lat="44.4026183" lon="10.4637867"><ele>388.0</ele><time>2026-04-19T12:00:37.956Z</time></trkpt><trkpt lat="44.4026283" lon="10.4636567"><ele>388.00000000000006</ele><time>2026-04-19T12:00:38.924Z</time></trkpt><trkpt lat="44.40263" lon="10.46353"><ele>388.0</ele><time>2026-04-19T12:00:39.912Z</time></trkpt><trkpt lat="44.4026183" lon="10.4634083"><ele>389.2</ele><time>2026-04-19T12:00:40.945Z</time></trkpt><trkpt lat="44.4025983" lon="10.4632867"><ele>390.4</ele><time>2026-04-19T12:00:41.932Z</time></trkpt><trkpt lat="44.4025917" lon="10.4631483"><ele>391.59999999999997</ele><time>2026-04-19T12:00:42.93Z</time></trkpt><trkpt lat="44.4025967" lon="10.4630083"><ele>392.79999999999995</ele><time>2026-04-19T12:00:43.986Z</time></trkpt><trkpt lat="44.40261" lon="10.462865"><ele>394.0</ele><time>2026-04-19T12:00:44.983Z</time></trkpt><trkpt lat="44.402605" lon="10.46272"><ele>396.2</ele><time>2026-04-19T12:00:45.94Z</time></trkpt><trkpt lat="44.4025817" lon="10.4625817"><ele>398.4</ele><time>2026-04-19T12:00:46.932Z</time></trkpt><trkpt lat="44.402555" lon="10.46245"><ele>400.6</ele><time>2026-04-19T12:00:47.923Z</time></trkpt><trkpt lat="44.402525" lon="10.462325"><ele>402.8</ele><time>2026-04-19T12:00:48.914Z</time></trkpt><trkpt lat="44.4024967" lon="10.4621967"><ele>405.0</ele><time>2026-04-19T12:00:49.918Z</time></trkpt><trkpt lat="44.4024583" lon="10.4620683"><ele>405.0</ele><time>2026-04-19T12:00:50.946Z</time></trkpt><trkpt lat="44.4024083" lon="10.4619433"><ele>405.0</ele><time>2026-04-19T12:00:51.937Z</time></trkpt><trkpt lat="44.40234" lon="10.46183"><ele>405.0</ele><time>2026-04-19T12:00:52.961Z</time></trkpt><trkpt lat="44.4022533" lon="10.4617283"><ele>405.0</ele><time>2026-04-19T12:00:53.94Z</time></trkpt><trkpt lat="44.4021583" lon="10.461645"><ele>405.0</ele><time>2026-04-19T12:00:54.947Z</time></trkpt><trkpt lat="44.40206" lon="10.4615733"><ele>405.0</ele><time>2026-04-19T12:00:55.913Z</time></trkpt><trkpt lat="44.401965" lon="10.4615167"><ele>405.0</ele><time>2026-04-19T12:00:56.928Z</time></trkpt><trkpt lat="44.401875" lon="10.46145"><ele>405.0</ele><time>2026-04-19T12:00:57.909Z</time></trkpt><trkpt lat="44.4018" lon="10.461385"><ele>405.0</ele><time>2026-04-19T12:00:58.922Z</time></trkpt><trkpt lat="44.40174" lon="10.4613"><ele>405.0</ele><time>2026-04-19T12:00:59.91Z</time></trkpt><trkpt lat="44.40169" lon="10.461195"><ele>408.0</ele><time>2026-04-19T12:01:01.084Z</time></trkpt><trkpt lat="44.4016517" lon="10.4608917"><ele>411.0</ele><time>2026-04-19T12:01:02.919Z</time></trkpt><trkpt lat="44.401635" lon="10.4607183"><ele>414.0</ele><time>2026-04-19T12:01:03.909Z</time></trkpt><trkpt lat="44.4016117" lon="10.4605433"><ele>415.0</ele><time>2026-04-19T12:01:04.918Z</time></trkpt><trkpt lat="44.4015867" lon="10.4603783"><ele>416.0</ele><time>2026-04-19T12:01:05.929Z</time></trkpt><trkpt lat="44.4015733" lon="10.4602283"><ele>417.0</ele><time>2026-04-19T12:01:06.914Z</time></trkpt><trkpt lat="44.4015867" lon="10.4600867"><ele>418.0</ele><time>2026-04-19T12:01:07.923Z</time></trkpt><trkpt lat="44.40162" lon="10.4599583"><ele>419.0</ele><time>2026-04-19T12:01:08.95Z</time></trkpt><trkpt lat="44.4016617" lon="10.45985"><ele>418.99999999999994</ele><time>2026-04-19T12:01:09.923Z</time></trkpt><trkpt lat="44.4016983" lon="10.45974"><ele>419.0</ele><time>2026-04-19T12:01:10.966Z</time></trkpt><trkpt lat="44.4017167" lon="10.4596317"><ele>419.0</ele><time>2026-04-19T12:01:11.908Z</time></trkpt><trkpt lat="44.4017133" lon="10.45952"><ele>419.0</ele><time>2026-04-19T12:01:12.916Z</time></trkpt><trkpt lat="44.4016717" lon="10.4594233"><ele>418.99999999999994</ele><time>2026-04-19T12:01:13.912Z</time></trkpt><trkpt lat="44.4016283" lon="10.4593317"><ele>419.0</ele><time>2026-04-19T12:01:14.918Z</time></trkpt><trkpt lat="44.4014983" lon="10.459325"><ele>422.5</ele><time>2026-04-19T12:01:15.91Z</time></trkpt><trkpt lat="44.40139" lon="10.4593233"><ele>426.0</ele><time>2026-04-19T12:01:16.916Z</time></trkpt><trkpt lat="44.4012617" lon="10.4593517"><ele>429.5</ele><time>2026-04-19T12:01:17.93Z</time></trkpt><trkpt lat="44.4011333" lon="10.459395"><ele>433.0</ele><time>2026-04-19T12:01:18.932Z</time></trkpt><trkpt lat="44.40102" lon="10.459445"><ele>433.2</ele><time>2026-04-19T12:01:19.93Z</time></trkpt><trkpt lat="44.4009217" lon="10.4594867"><ele>433.4</ele><time>2026-04-19T12:01:20.935Z</time></trkpt><trkpt lat="44.4008317" lon="10.459505"><ele>433.59999999999997</ele><time>2026-04-19T12:01:21.927Z</time></trkpt><trkpt lat="44.400745" lon="10.4594817"><ele>433.79999999999995</ele><time>2026-04-19T12:01:22.914Z</time></trkpt><trkpt lat="44.40066" lon="10.4594067"><ele>434.0</ele><time>2026-04-19T12:01:23.921Z</time></trkpt><trkpt lat="44.4005817" lon="10.4592983"><ele>433.0</ele><time>2026-04-19T12:01:24.913Z</time></trkpt><trkpt lat="44.40049" lon="10.4591817"><ele>432.0</ele><time>2026-04-19T12:01:25.966Z</time></trkpt><trkpt lat="44.4004" lon="10.459075"><ele>431.0</ele><time>2026-04-19T12:01:26.93Z</time></trkpt><trkpt lat="44.4003217" lon="10.4589783"><ele>430.0</ele><time>2026-04-19T12:01:27.907Z</time></trkpt><trkpt lat="44.4002583" lon="10.45888"><ele>429.0</ele><time>2026-04-19T12:01:28.926Z</time></trkpt><trkpt lat="44.4002183" lon="10.45878"><ele>429.0</ele><time>2026-04-19T12:01:29.923Z</time></trkpt><trkpt lat="44.4002017" lon="10.4586767"><ele>429.0</ele><time>2026-04-19T12:01:30.908Z</time></trkpt><trkpt lat="44.40021" lon="10.4585867"><ele>429.0</ele><time>2026-04-19T12:01:31.913Z</time></trkpt><trkpt lat="44.40024" lon="10.4585033"><ele>429.0</ele><time>2026-04-19T12:01:32.914Z</time></trkpt><trkpt lat="44.400305" lon="10.4584233"><ele>429.0</ele><time>2026-04-19T12:01:33.943Z</time></trkpt><trkpt lat="44.400385" lon="10.4583417"><ele>429.0</ele><time>2026-04-19T12:01:34.921Z</time></trkpt><trkpt lat="44.4004633" lon="10.4582433"><ele>433.25</ele><time>2026-04-19T12:01:35.913Z</time></trkpt><trkpt lat="44.4005367" lon="10.45812"><ele>437.5</ele><time>2026-04-19T12:01:36.919Z</time></trkpt><trkpt lat="44.4006133" lon="10.4579833"><ele>441.75</ele><time>2026-04-19T12:01:37.925Z</time></trkpt><trkpt lat="44.4006833" lon="10.4578467"><ele>446.0</ele><time>2026-04-19T12:01:38.926Z</time></trkpt><trkpt lat="44.4007383" lon="10.4577117"><ele>447.6</ele><time>2026-04-19T12:01:39.929Z</time></trkpt><trkpt lat="44.40078" lon="10.4575767"><ele>449.20000000000005</ele><time>2026-04-19T12:01:40.929Z</time></trkpt><trkpt lat="44.4007967" lon="10.4574383"><ele>450.79999999999995</ele><time>2026-04-19T12:01:41.914Z</time></trkpt><trkpt lat="44.4007883" lon="10.4573083"><ele>452.4</ele><time>2026-04-19T12:01:42.931Z</time></trkpt><trkpt lat="44.4007467" lon="10.4571867"><ele>454.0</ele><time>2026-04-19T12:01:43.921Z</time></trkpt><trkpt lat="44.40067" lon="10.4570817"><ele>452.2</ele><time>2026-04-19T12:01:44.932Z</time></trkpt><trkpt lat="44.4005817" lon="10.4569917"><ele>450.4</ele><time>2026-04-19T12:01:45.914Z</time></trkpt><trkpt lat="44.4005033" lon="10.456905"><ele>448.6</ele><time>2026-04-19T12:01:46.912Z</time></trkpt><trkpt lat="44.400445" lon="10.4568017"><ele>446.8</ele><time>2026-04-19T12:01:47.924Z</time></trkpt><trkpt lat="44.4004033" lon="10.4566767"><ele>445.0</ele><time>2026-04-19T12:01:48.91Z</time></trkpt><trkpt lat="44.400375" lon="10.4565417"><ele>445.00000000000006</ele><time>2026-04-19T12:01:49.928Z</time></trkpt><trkpt lat="44.4003567" lon="10.456415"><ele>445.0</ele><time>2026-04-19T12:01:50.909Z</time></trkpt><trkpt lat="44.4003483" lon="10.456295"><ele>445.0</ele><time>2026-04-19T12:01:51.93Z</time></trkpt><trkpt lat="44.4003517" lon="10.4561717"><ele>445.0</ele><time>2026-04-19T12:01:52.932Z</time></trkpt><trkpt lat="44.40036" lon="10.4560433"><ele>445.00000000000006</ele><time>2026-04-19T12:01:53.931Z</time></trkpt><trkpt lat="44.4003633" lon="10.4559217"><ele>445.0</ele><time>2026-04-19T12:01:54.943Z</time></trkpt><trkpt lat="44.4003567" lon="10.4557967"><ele>448.0</ele><time>2026-04-19T12:01:55.924Z</time></trkpt><trkpt lat="44.400335" lon="10.4556733"><ele>451.0</ele><time>2026-04-19T12:01:56.916Z</time></trkpt><trkpt lat="44.400295" lon="10.4555517"><ele>454.0</ele><time>2026-04-19T12:01:57.955Z</time></trkpt><trkpt lat="44.4002467" lon="10.4554383"><ele>457.0</ele><time>2026-04-19T12:01:58.946Z</time></trkpt><trkpt lat="44.4001983" lon="10.455335"><ele>460.0</ele><time>2026-04-19T12:01:59.94Z</time></trkpt><trkpt lat="44.4001533" lon="10.4552317"><ele>461.8</ele><time>2026-04-19T12:02:00.944Z</time></trkpt><trkpt lat="44.4001133" lon="10.4551183"><ele>463.6</ele><time>2026-04-19T12:02:01.954Z</time></trkpt><trkpt lat="44.4000833" lon="10.4549933"><ele>465.4</ele><time>2026-04-19T12:02:02.927Z</time></trkpt><trkpt lat="44.400045" lon="10.454865"><ele>467.2</ele><time>2026-04-19T12:02:03.935Z</time></trkpt><trkpt lat="44.4000083" lon="10.454735"><ele>469.0</ele><time>2026-04-19T12:02:04.918Z</time></trkpt><trkpt lat="44.3999683" lon="10.4546017"><ele>470.83333333333337</ele><time>2026-04-19T12:02:05.916Z</time></trkpt><trkpt lat="44.399925" lon="10.4544733"><ele>472.6666666666667</ele><time>2026-04-19T12:02:06.909Z</time></trkpt><trkpt lat="44.3998833" lon="10.454355"><ele>474.5</ele><time>2026-04-19T12:02:07.991Z</time></trkpt><trkpt lat="44.3998467" lon="10.4542483"><ele>476.33333333333337</ele><time>2026-04-19T12:02:08.965Z</time></trkpt><trkpt lat="44.3998183" lon="10.4541517"><ele>478.1666666666667</ele><time>2026-04-19T12:02:09.947Z</time></trkpt><trkpt lat="44.3998033" lon="10.4540517"><ele>480.0</ele><time>2026-04-19T12:02:10.928Z</time></trkpt><trkpt lat="44.3998" lon="10.4539433"><ele>480.0</ele><time>2026-04-19T12:02:11.915Z</time></trkpt><trkpt lat="44.3997917" lon="10.453835"><ele>480.0</ele><time>2026-04-19T12:02:12.939Z</time></trkpt><trkpt lat="44.3997783" lon="10.453725"><ele>480.0</ele><time>2026-04-19T12:02:13.911Z</time></trkpt><trkpt lat="44.3997633" lon="10.4536133"><ele>480.0</ele><time>2026-04-19T12:02:14.943Z</time></trkpt><trkpt lat="44.3997467" lon="10.4535"><ele>480.0</ele><time>2026-04-19T12:02:15.928Z</time></trkpt><trkpt lat="44.3997283" lon="10.4533833"><ele>480.0</ele><time>2026-04-19T12:02:16.912Z</time></trkpt><trkpt lat="44.3997067" lon="10.4532617"><ele>479.4</ele><time>2026-04-19T12:02:17.952Z</time></trkpt><trkpt lat="44.399685" lon="10.4531333"><ele>478.8</ele><time>2026-04-19T12:02:18.943Z</time></trkpt><trkpt lat="44.3996633" lon="10.453005"><ele>478.20000000000005</ele><time>2026-04-19T12:02:19.909Z</time></trkpt><trkpt lat="44.3996367" lon="10.4528767"><ele>477.6</ele><time>2026-04-19T12:02:20.923Z</time></trkpt><trkpt lat="44.3995983" lon="10.4527517"><ele>477.0</ele><time>2026-04-19T12:02:21.923Z</time></trkpt><trkpt lat="44.399555" lon="10.452625"><ele>477.0</ele><time>2026-04-19T12:02:22.913Z</time></trkpt><trkpt lat="44.3995083" lon="10.4525067"><ele>477.0</ele><time>2026-04-19T12:02:23.917Z</time></trkpt><trkpt lat="44.3994617" lon="10.45239"><ele>477.0</ele><time>2026-04-19T12:02:24.909Z</time></trkpt><trkpt lat="44.3994217" lon="10.4522733"><ele>477.0</ele><time>2026-04-19T12:02:25.974Z</time></trkpt><trkpt lat="44.3993867" lon="10.452165"><ele>477.0</ele><time>2026-04-19T12:02:26.945Z</time></trkpt><trkpt lat="44.39935" lon="10.4520667"><ele>477.0</ele><time>2026-04-19T12:02:27.955Z</time></trkpt><trkpt lat="44.3993117" lon="10.4519833"><ele>477.8333333333333</ele><time>2026-04-19T12:02:28.922Z</time></trkpt><trkpt lat="44.399275" lon="10.4519067"><ele>478.66666666666663</ele><time>2026-04-19T12:02:29.911Z</time></trkpt><trkpt lat="44.3992417" lon="10.45179"><ele>479.5</ele><time>2026-04-19T12:02:31.924Z</time></trkpt><trkpt lat="44.3992817" lon="10.4516717"><ele>480.3333333333333</ele><time>2026-04-19T12:02:34.955Z</time></trkpt><trkpt lat="44.3993467" lon="10.4516183"><ele>481.16666666666663</ele><time>2026-04-19T12:02:36.912Z</time></trkpt><trkpt lat="44.39942" lon="10.451605"><ele>482.0</ele><time>2026-04-19T12:02:38.909Z</time></trkpt><trkpt lat="44.3995033" lon="10.4516333"><ele>481.99999999999994</ele><time>2026-04-19T12:02:40.915Z</time></trkpt><trkpt lat="44.39959" lon="10.4516233"><ele>482.0</ele><time>2026-04-19T12:02:42.952Z</time></trkpt><trkpt lat="44.3996783" lon="10.4515483"><ele>482.0</ele><time>2026-04-19T12:02:44.923Z</time></trkpt><trkpt lat="44.399735" lon="10.4514783"><ele>482.0</ele><time>2026-04-19T12:02:45.908Z</time></trkpt><trkpt lat="44.3997917" lon="10.4514083"><ele>481.99999999999994</ele><time>2026-04-19T12:02:46.922Z</time></trkpt><trkpt lat="44.399845" lon="10.4513367"><ele>482.0</ele><time>2026-04-19T12:02:47.929Z</time></trkpt><trkpt lat="44.3998933" lon="10.4512667"><ele>486.6</ele><time>2026-04-19T12:02:48.907Z</time></trkpt><trkpt lat="44.39994" lon="10.4512067"><ele>491.20000000000005</ele><time>2026-04-19T12:02:49.975Z</time></trkpt><trkpt lat="44.4000333" lon="10.4511033"><ele>495.8</ele><time>2026-04-19T12:02:51.948Z</time></trkpt><trkpt lat="44.40012" lon="10.4510083"><ele>500.4</ele><time>2026-04-19T12:02:53.909Z</time></trkpt><trkpt lat="44.400195" lon="10.45091"><ele>505.0</ele><time>2026-04-19T12:02:55.926Z</time></trkpt><trkpt lat="44.4002483" lon="10.4508083"><ele>505.00000000000006</ele><time>2026-04-19T12:02:57.907Z</time></trkpt><trkpt lat="44.4002733" lon="10.4506967"><ele>505.0</ele><time>2026-04-19T12:03:00.964Z</time></trkpt><trkpt lat="44.400315" lon="10.4506017"><ele>505.0</ele><time>2026-04-19T12:03:19.933Z</time></trkpt><trkpt lat="44.4003917" lon="10.4506017"><ele>505.0</ele><time>2026-04-19T12:03:23.923Z</time></trkpt><trkpt lat="44.40046" lon="10.4507183"><ele>505.00000000000006</ele><time>2026-04-19T12:03:26.93Z</time></trkpt><trkpt lat="44.400484" lon="10.4508368"><ele>505.0</ele><time>2026-04-19T12:03:28.949Z</time></trkpt><trkpt lat="44.4005119" lon="10.4509477"><ele>505.0</ele><time>2026-04-19T12:03:30.91Z</time></trkpt><trkpt lat="44.4005349" lon="10.4510431"><ele>505.0</ele><time>2026-04-19T12:03:32.918Z</time></trkpt><trkpt lat="44.400525" lon="10.4511708"><ele>505.0</ele><time>2026-04-19T12:03:36.011Z</time></trkpt><trkpt lat="44.4004643" lon="10.4512691"><ele>505.0</ele><time>2026-04-19T12:03:37.914Z</time></trkpt><trkpt lat="44.4003856" lon="10.4513911"><ele>505.0</ele><time>2026-04-19T12:03:39.924Z</time></trkpt><trkpt lat="44.4003381" lon="10.451513"><ele>505.8</ele><time>2026-04-19T12:03:41.912Z</time></trkpt><trkpt lat="44.4003178" lon="10.4516156"><ele>506.6</ele><time>2026-04-19T12:03:43.931Z</time></trkpt><trkpt lat="44.400346" lon="10.4517105"><ele>507.4</ele><time>2026-04-19T12:04:14.921Z</time></trkpt><trkpt lat="44.4004507" lon="10.4517441"><ele>508.2</ele><time>2026-04-19T12:10:42.932Z</time></trkpt><trkpt lat="44.4005424" lon="10.4517963"><ele>509.0</ele><time>2026-04-19T12:10:44.909Z</time></trkpt><trkpt lat="44.4006346" lon="10.4518552"><ele>514.0</ele><time>2026-04-19T12:10:46.912Z</time></trkpt><trkpt lat="44.4007255" lon="10.4519241"><ele>519.0</ele><time>2026-04-19T12:10:48.975Z</time></trkpt><trkpt lat="44.4008105" lon="10.4519721"><ele>524.0</ele><time>2026-04-19T12:10:50.924Z</time></trkpt><trkpt lat="44.4008738" lon="10.4519503"><ele>529.0</ele><time>2026-04-19T12:10:52.947Z</time></trkpt><trkpt lat="44.400891" lon="10.4518287"><ele>534.0</ele><time>2026-04-19T12:10:54.922Z</time></trkpt><trkpt lat="44.4008907" lon="10.4516971"><ele>539.0</ele><time>2026-04-19T12:10:56.911Z</time></trkpt><trkpt lat="44.4009142" lon="10.4515819"><ele>539.0</ele><time>2026-04-19T12:10:58.948Z</time></trkpt><trkpt lat="44.4009746" lon="10.4515174"><ele>539.0</ele><time>2026-04-19T12:11:00.937Z</time></trkpt><trkpt lat="44.4010471" lon="10.4514687"><ele>539.0</ele><time>2026-04-19T12:11:02.935Z</time></trkpt><trkpt lat="44.4011163" lon="10.4514464"><ele>539.0</ele><time>2026-04-19T12:11:04.931Z</time></trkpt><trkpt lat="44.4011832" lon="10.451434"><ele>539.0</ele><time>2026-04-19T12:11:06.936Z</time></trkpt><trkpt lat="44.4012548" lon="10.4514159"><ele>539.0</ele><time>2026-04-19T12:11:08.91Z</time></trkpt><trkpt lat="44.4013382" lon="10.4513637"><ele>544.2</ele><time>2026-04-19T12:11:10.92Z</time></trkpt><trkpt lat="44.4014183" lon="10.4512821"><ele>549.4</ele><time>2026-04-19T12:11:12.911Z</time></trkpt><trkpt lat="44.4014599" lon="10.4511843"><ele>554.6</ele><time>2026-04-19T12:11:14.932Z</time></trkpt><trkpt lat="44.4014689" lon="10.4510637"><ele>559.8</ele><time>2026-04-19T12:11:16.912Z</time></trkpt><trkpt lat="44.4015275" lon="10.4509705"><ele>565.0</ele><time>2026-04-19T12:11:18.942Z</time></trkpt><trkpt lat="44.4016223" lon="10.4509173"><ele>565.0</ele><time>2026-04-19T12:11:20.934Z</time></trkpt><trkpt lat="44.4017275" lon="10.4508727"><ele>565.0</ele><time>2026-04-19T12:11:22.913Z</time></trkpt><trkpt lat="44.4018023" lon="10.450837"><ele>565.0</ele><time>2026-04-19T12:11:24.933Z</time></trkpt><trkpt lat="44.4018712" lon="10.4507909"><ele>565.0</ele><time>2026-04-19T12:11:26.931Z</time></trkpt><trkpt lat="44.401946" lon="10.4507311"><ele>565.0</ele><time>2026-04-19T12:11:28.914Z</time></trkpt><trkpt lat="44.4020238" lon="10.4506913"><ele>565.0</ele><time>2026-04-19T12:11:30.909Z</time></trkpt><trkpt lat="44.402085" lon="10.4506439"><ele>565.0</ele><time>2026-04-19T12:11:32.924Z</time></trkpt><trkpt lat="44.402146" lon="10.4505987"><ele>565.0</ele><time>2026-04-19T12:11:34.916Z</time></trkpt><trkpt lat="44.4022157" lon="10.4505037"><ele>565.0</ele><time>2026-04-19T12:11:36.908Z</time></trkpt><trkpt lat="44.4022746" lon="10.4504171"><ele>565.0</ele><time>2026-04-19T12:11:38.94Z</time></trkpt><trkpt lat="44.4023388" lon="10.4503576"><ele>565.0</ele><time>2026-04-19T12:15:46.936Z</time></trkpt><trkpt lat="44.4023923" lon="10.4503074"><ele>565.0</ele><time>2026-04-19T12:15:49.958Z</time></trkpt><trkpt lat="44.4024774" lon="10.4502455"><ele>569.2</ele><time>2026-04-19T12:15:51.931Z</time></trkpt><trkpt lat="44.4025342" lon="10.4502051"><ele>573.4</ele><time>2026-04-19T12:15:52.927Z</time></trkpt><trkpt lat="44.4026483" lon="10.4501367"><ele>577.6</ele><time>2026-04-19T12:15:55.085Z</time></trkpt><trkpt lat="44.402756" lon="10.4500873"><ele>581.8</ele><time>2026-04-19T12:15:56.969Z</time></trkpt><trkpt lat="44.402864" lon="10.4500405"><ele>586.0</ele><time>2026-04-19T12:15:58.924Z</time></trkpt><trkpt lat="44.4029659" lon="10.4499892"><ele>590.2</ele><time>2026-04-19T12:16:00.908Z</time></trkpt><trkpt lat="44.40306" lon="10.4499632"><ele>594.4000000000001</ele><time>2026-04-19T12:16:02.914Z</time></trkpt><trkpt lat="44.4031558" lon="10.4499662"><ele>598.6</ele><time>2026-04-19T12:16:04.948Z</time></trkpt><trkpt lat="44.4032368" lon="10.450003"><ele>602.8000000000001</ele><time>2026-04-19T12:16:06.933Z</time></trkpt><trkpt lat="44.4033293" lon="10.4500077"><ele>607.0</ele><time>2026-04-19T12:16:08.916Z</time></trkpt><trkpt lat="44.4034145" lon="10.4499618"><ele>607.0</ele><time>2026-04-19T12:16:10.964Z</time></trkpt><trkpt lat="44.4035005" lon="10.4499231"><ele>607.0</ele><time>2026-04-19T12:16:12.972Z</time></trkpt><trkpt lat="44.4035894" lon="10.4499285"><ele>607.0</ele><time>2026-04-19T12:16:14.93Z</time></trkpt><trkpt lat="44.4036632" lon="10.4499389"><ele>607.0</ele><time>2026-04-19T12:16:16.919Z</time></trkpt><trkpt lat="44.4037399" lon="10.4499228"><ele>607.0</ele><time>2026-04-19T12:17:23.932Z</time></trkpt><trkpt lat="44.4038046" lon="10.4499099"><ele>607.0</ele><time>2026-04-19T12:17:25.971Z</time></trkpt><trkpt lat="44.4038759" lon="10.4498722"><ele>610.6</ele><time>2026-04-19T12:17:28.916Z</time></trkpt><trkpt lat="44.4039416" lon="10.4498095"><ele>614.2</ele><time>2026-04-19T12:17:30.915Z</time></trkpt><trkpt lat="44.4040258" lon="10.449729"><ele>617.8</ele><time>2026-04-19T12:17:32.924Z</time></trkpt><trkpt lat="44.4041149" lon="10.4496429"><ele>621.4</ele><time>2026-04-19T12:17:34.917Z</time></trkpt><trkpt lat="44.4041994" lon="10.4495624"><ele>625.0</ele><time>2026-04-19T12:17:36.911Z</time></trkpt><trkpt lat="44.4042812" lon="10.4494941"><ele>625.0</ele><time>2026-04-19T12:17:38.962Z</time></trkpt><trkpt lat="44.4043644" lon="10.4494449"><ele>625.0</ele><time>2026-04-19T12:17:40.933Z</time></trkpt><trkpt lat="44.4044832" lon="10.4494092"><ele>625.0</ele><time>2026-04-19T12:17:42.988Z</time></trkpt><trkpt lat="44.4045936" lon="10.449356"><ele>625.0</ele><time>2026-04-19T12:17:44.936Z</time></trkpt><trkpt lat="44.4046954" lon="10.4492535"><ele>627.3333333333334</ele><time>2026-04-19T12:17:46.967Z</time></trkpt><trkpt lat="44.4047473" lon="10.4491954"><ele>629.6666666666667</ele><time>2026-04-19T12:17:47.911Z</time></trkpt><trkpt lat="44.4048383" lon="10.4490829"><ele>632.0</ele><time>2026-04-19T12:17:49.912Z</time></trkpt><trkpt lat="44.4048826" lon="10.4490193"><ele>634.3333333333334</ele><time>2026-04-19T12:17:50.972Z</time></trkpt><trkpt lat="44.4049515" lon="10.4489139"><ele>636.6666666666666</ele><time>2026-04-19T12:17:52.913Z</time></trkpt><trkpt lat="44.4050097" lon="10.4488515"><ele>639.0</ele><time>2026-04-19T12:17:54.913Z</time></trkpt><trkpt lat="44.4050758" lon="10.4487916"><ele>639.0</ele><time>2026-04-19T12:17:56.95Z</time></trkpt><trkpt lat="44.4051484" lon="10.4487369"><ele>639.0</ele><time>2026-04-19T12:17:59.001Z</time></trkpt><trkpt lat="44.4052043" lon="10.4486826"><ele>639.0</ele><time>2026-04-19T12:18:00.911Z</time></trkpt><trkpt lat="44.4052714" lon="10.4486353"><ele>639.0</ele><time>2026-04-19T12:18:02.939Z</time></trkpt><trkpt lat="44.4053456" lon="10.4486121"><ele>639.0</ele><time>2026-04-19T12:18:04.908Z</time></trkpt><trkpt lat="44.4054377" lon="10.4485916"><ele>639.0</ele><time>2026-04-19T12:18:06.919Z</time></trkpt><trkpt lat="44.4055403" lon="10.4485615"><ele>644.4</ele><time>2026-04-19T12:18:08.936Z</time></trkpt><trkpt lat="44.405634" lon="10.4485108"><ele>649.8</ele><time>2026-04-19T12:18:10.909Z</time></trkpt><trkpt lat="44.4057211" lon="10.4484551"><ele>655.1999999999999</ele><time>2026-04-19T12:18:12.911Z</time></trkpt><trkpt lat="44.4058033" lon="10.4483917"><ele>660.5999999999999</ele><time>2026-04-19T12:18:14.915Z</time></trkpt><trkpt lat="44.4058733" lon="10.4483133"><ele>666.0</ele><time>2026-04-19T12:18:16.976Z</time></trkpt><trkpt lat="44.4059367" lon="10.4482183"><ele>666.0</ele><time>2026-04-19T12:18:18.935Z</time></trkpt><trkpt lat="44.4060017" lon="10.44813"><ele>666.0</ele><time>2026-04-19T12:18:20.949Z</time></trkpt><trkpt lat="44.4060717" lon="10.448045"><ele>666.0</ele><time>2026-04-19T12:18:22.913Z</time></trkpt><trkpt lat="44.406165" lon="10.44795"><ele>666.0</ele><time>2026-04-19T12:18:24.93Z</time></trkpt><trkpt lat="44.4062667" lon="10.44785"><ele>666.0</ele><time>2026-04-19T12:18:26.961Z</time></trkpt><trkpt lat="44.4063133" lon="10.44779"><ele>668.1999999999999</ele><time>2026-04-19T12:18:27.947Z</time></trkpt><trkpt lat="44.4063633" lon="10.4477283"><ele>670.4</ele><time>2026-04-19T12:18:28.939Z</time></trkpt><trkpt lat="44.4064167" lon="10.4476717"><ele>672.6</ele><time>2026-04-19T12:18:29.924Z</time></trkpt><trkpt lat="44.4065183" lon="10.44757"><ele>674.8</ele><time>2026-04-19T12:18:31.908Z</time></trkpt><trkpt lat="44.40662" lon="10.4474967"><ele>677.0</ele><time>2026-04-19T12:18:33.94Z</time></trkpt><trkpt lat="44.4067183" lon="10.4474633"><ele>677.0</ele><time>2026-04-19T12:18:35.957Z</time></trkpt><trkpt lat="44.4068067" lon="10.447455"><ele>677.0</ele><time>2026-04-19T12:18:37.91Z</time></trkpt><trkpt lat="44.4068983" lon="10.447425"><ele>677.0</ele><time>2026-04-19T12:18:39.923Z</time></trkpt><trkpt lat="44.406965" lon="10.4473583"><ele>677.0</ele><time>2026-04-19T12:18:41.972Z</time></trkpt><trkpt lat="44.40704" lon="10.4472433"><ele>677.0</ele><time>2026-04-19T12:18:50.933Z</time></trkpt><trkpt lat="44.4070867" lon="10.4471467"><ele>679.8</ele><time>2026-04-19T12:18:52.937Z</time></trkpt><trkpt lat="44.4071617" lon="10.4470033"><ele>682.6</ele><time>2026-04-19T12:18:54.928Z</time></trkpt><trkpt lat="44.4072017" lon="10.446925"><ele>685.4</ele><time>2026-04-19T12:18:55.971Z</time></trkpt><trkpt lat="44.40725" lon="10.44683"><ele>688.1999999999999</ele><time>2026-04-19T12:18:56.947Z</time></trkpt><trkpt lat="44.4073117" lon="10.44672"><ele>691.0</ele><time>2026-04-19T12:18:57.98Z</time></trkpt><trkpt lat="44.407375" lon="10.44661"><ele>691.0</ele><time>2026-04-19T12:18:58.971Z</time></trkpt><trkpt lat="44.4074267" lon="10.4465167"><ele>691.0</ele><time>2026-04-19T12:18:59.912Z</time></trkpt><trkpt lat="44.4074717" lon="10.4464317"><ele>691.0</ele><time>2026-04-19T12:19:00.918Z</time></trkpt><trkpt lat="44.4075083" lon="10.446345"><ele>691.0</ele><time>2026-04-19T12:19:01.911Z</time></trkpt><trkpt lat="44.4075433" lon="10.446255"><ele>691.0</ele><time>2026-04-19T12:19:02.908Z</time></trkpt><trkpt lat="44.4075767" lon="10.4461633"><ele>691.0</ele><time>2026-04-19T12:19:03.918Z</time></trkpt><trkpt lat="44.4076083" lon="10.4460733"><ele>691.0</ele><time>2026-04-19T12:19:04.922Z</time></trkpt><trkpt lat="44.40764" lon="10.4459867"><ele>691.0</ele><time>2026-04-19T12:19:05.913Z</time></trkpt><trkpt lat="44.407675" lon="10.4458917"><ele>691.0</ele><time>2026-04-19T12:19:06.92Z</time></trkpt><trkpt lat="44.40771" lon="10.4457867"><ele>691.0</ele><time>2026-04-19T12:19:07.913Z</time></trkpt><trkpt lat="44.4077383" lon="10.445675"><ele>691.0</ele><time>2026-04-19T12:19:08.913Z</time></trkpt><trkpt lat="44.407755" lon="10.4455567"><ele>691.0</ele><time>2026-04-19T12:19:09.908Z</time></trkpt><trkpt lat="44.40775" lon="10.4454367"><ele>691.8333333333334</ele><time>2026-04-19T12:19:10.916Z</time></trkpt><trkpt lat="44.4077383" lon="10.4453167"><ele>692.6666666666667</ele><time>2026-04-19T12:19:11.899Z</time></trkpt><trkpt lat="44.407725" lon="10.4452"><ele>693.5</ele><time>2026-04-19T12:19:12.922Z</time></trkpt><trkpt lat="44.4077083" lon="10.44509"><ele>694.3333333333334</ele><time>2026-04-19T12:19:13.911Z</time></trkpt><trkpt lat="44.4076867" lon="10.4449767"><ele>695.1666666666666</ele><time>2026-04-19T12:19:14.911Z</time></trkpt><trkpt lat="44.4076667" lon="10.4448667"><ele>696.0</ele><time>2026-04-19T12:19:15.915Z</time></trkpt><trkpt lat="44.4076483" lon="10.44476"><ele>696.0</ele><time>2026-04-19T12:19:16.911Z</time></trkpt><trkpt lat="44.40763" lon="10.4446417"><ele>696.0</ele><time>2026-04-19T12:19:17.921Z</time></trkpt><trkpt lat="44.4076067" lon="10.4445283"><ele>696.0</ele><time>2026-04-19T12:19:18.912Z</time></trkpt><trkpt lat="44.407575" lon="10.44441"><ele>696.0</ele><time>2026-04-19T12:19:19.912Z</time></trkpt><trkpt lat="44.407535" lon="10.444285"><ele>696.0</ele><time>2026-04-19T12:19:20.925Z</time></trkpt><trkpt lat="44.4074967" lon="10.4441483"><ele>697.1999999999999</ele><time>2026-04-19T12:19:21.922Z</time></trkpt><trkpt lat="44.40747" lon="10.4440033"><ele>698.4</ele><time>2026-04-19T12:19:22.917Z</time></trkpt><trkpt lat="44.40745" lon="10.4438567"><ele>699.6</ele><time>2026-04-19T12:19:23.91Z</time></trkpt><trkpt lat="44.4074383" lon="10.4437017"><ele>700.8</ele><time>2026-04-19T12:19:24.911Z</time></trkpt><trkpt lat="44.4074283" lon="10.4435467"><ele>702.0</ele><time>2026-04-19T12:19:25.911Z</time></trkpt><trkpt lat="44.4074217" lon="10.4433917"><ele>703.2</ele><time>2026-04-19T12:19:26.914Z</time></trkpt><trkpt lat="44.4074283" lon="10.4432333"><ele>704.4000000000001</ele><time>2026-04-19T12:19:27.91Z</time></trkpt><trkpt lat="44.4074383" lon="10.4430767"><ele>705.5999999999999</ele><time>2026-04-19T12:19:28.913Z</time></trkpt><trkpt lat="44.407465" lon="10.4429267"><ele>706.8</ele><time>2026-04-19T12:19:29.932Z</time></trkpt><trkpt lat="44.4074933" lon="10.442785"><ele>708.0</ele><time>2026-04-19T12:19:30.909Z</time></trkpt><trkpt lat="44.4075167" lon="10.442635"><ele>709.75</ele><time>2026-04-19T12:19:31.91Z</time></trkpt><trkpt lat="44.4075267" lon="10.4424817"><ele>711.5</ele><time>2026-04-19T12:19:32.913Z</time></trkpt><trkpt lat="44.4075217" lon="10.4423333"><ele>713.25</ele><time>2026-04-19T12:19:33.916Z</time></trkpt><trkpt lat="44.4074917" lon="10.44218"><ele>715.0</ele><time>2026-04-19T12:19:34.915Z</time></trkpt><trkpt lat="44.4074383" lon="10.4420217"><ele>716.75</ele><time>2026-04-19T12:19:35.912Z</time></trkpt><trkpt lat="44.40738" lon="10.4418733"><ele>718.5</ele><time>2026-04-19T12:19:36.901Z</time></trkpt><trkpt lat="44.4073167" lon="10.44174"><ele>720.25</ele><time>2026-04-19T12:19:37.909Z</time></trkpt><trkpt lat="44.4072567" lon="10.44161"><ele>722.0</ele><time>2026-04-19T12:19:38.933Z</time></trkpt><trkpt lat="44.4072" lon="10.4414833"><ele>722.5</ele><time>2026-04-19T12:19:39.905Z</time></trkpt><trkpt lat="44.40715" lon="10.4413483"><ele>723.0</ele><time>2026-04-19T12:19:40.913Z</time></trkpt><trkpt lat="44.407115" lon="10.4412167"><ele>723.5</ele><time>2026-04-19T12:19:41.911Z</time></trkpt><trkpt lat="44.40709" lon="10.4411017"><ele>724.0</ele><time>2026-04-19T12:19:42.924Z</time></trkpt><trkpt lat="44.4070733" lon="10.441005"><ele>724.5</ele><time>2026-04-19T12:19:43.909Z</time></trkpt><trkpt lat="44.407065" lon="10.4409167"><ele>725.0</ele><time>2026-04-19T12:19:44.912Z</time></trkpt><trkpt lat="44.4070567" lon="10.440775"><ele>725.0</ele><time>2026-04-19T12:19:46.917Z</time></trkpt><trkpt lat="44.407125" lon="10.4406967"><ele>725.0</ele><time>2026-04-19T12:19:48.945Z</time></trkpt><trkpt lat="44.4072583" lon="10.4406317"><ele>725.0</ele><time>2026-04-19T12:19:50.921Z</time></trkpt><trkpt lat="44.4073433" lon="10.4405883"><ele>725.0</ele><time>2026-04-19T12:19:51.927Z</time></trkpt><trkpt lat="44.407415" lon="10.440505"><ele>725.0</ele><time>2026-04-19T12:19:52.93Z</time></trkpt><trkpt lat="44.40748" lon="10.440385"><ele>728.25</ele><time>2026-04-19T12:19:53.922Z</time></trkpt><trkpt lat="44.4075383" lon="10.440235"><ele>731.5</ele><time>2026-04-19T12:19:54.911Z</time></trkpt><trkpt lat="44.4076" lon="10.440075"><ele>734.75</ele><time>2026-04-19T12:19:55.916Z</time></trkpt><trkpt lat="44.4076533" lon="10.4399117"><ele>738.0</ele><time>2026-04-19T12:19:56.916Z</time></trkpt><trkpt lat="44.4076983" lon="10.4397517"><ele>738.75</ele><time>2026-04-19T12:19:57.951Z</time></trkpt><trkpt lat="44.4077133" lon="10.4395917"><ele>739.5</ele><time>2026-04-19T12:19:58.921Z</time></trkpt><trkpt lat="44.407705" lon="10.4394383"><ele>740.25</ele><time>2026-04-19T12:19:59.906Z</time></trkpt><trkpt lat="44.40766" lon="10.4393"><ele>741.0</ele><time>2026-04-19T12:20:00.943Z</time></trkpt><trkpt lat="44.40759" lon="10.43916"><ele>741.0</ele><time>2026-04-19T12:20:01.917Z</time></trkpt><trkpt lat="44.40752" lon="10.4390267"><ele>741.0</ele><time>2026-04-19T12:20:02.91Z</time></trkpt><trkpt lat="44.4074633" lon="10.4388867"><ele>741.0</ele><time>2026-04-19T12:20:03.946Z</time></trkpt><trkpt lat="44.4074217" lon="10.4387383"><ele>741.0</ele><time>2026-04-19T12:20:04.916Z</time></trkpt><trkpt lat="44.40741" lon="10.438585"><ele>741.75</ele><time>2026-04-19T12:20:05.951Z</time></trkpt><trkpt lat="44.40743" lon="10.4384233"><ele>742.5</ele><time>2026-04-19T12:20:06.922Z</time></trkpt><trkpt lat="44.4074583" lon="10.43825"><ele>743.25</ele><time>2026-04-19T12:20:07.924Z</time></trkpt><trkpt lat="44.407485" lon="10.43807"><ele>744.0</ele><time>2026-04-19T12:20:08.947Z</time></trkpt><trkpt lat="44.4075133" lon="10.4378833"><ele>746.5</ele><time>2026-04-19T12:20:09.946Z</time></trkpt><trkpt lat="44.4075467" lon="10.4376933"><ele>749.0</ele><time>2026-04-19T12:20:10.938Z</time></trkpt><trkpt lat="44.4075917" lon="10.4375083"><ele>751.5</ele><time>2026-04-19T12:20:11.914Z</time></trkpt><trkpt lat="44.4076517" lon="10.4373217"><ele>754.0</ele><time>2026-04-19T12:20:12.906Z</time></trkpt><trkpt lat="44.4077217" lon="10.4371283"><ele>755.6666666666667</ele><time>2026-04-19T12:20:13.911Z</time></trkpt><trkpt lat="44.407795" lon="10.43693"><ele>757.3333333333334</ele><time>2026-04-19T12:20:14.932Z</time></trkpt><trkpt lat="44.4078717" lon="10.43673"><ele>759.0</ele><time>2026-04-19T12:20:15.91Z</time></trkpt><trkpt lat="44.4079517" lon="10.4365383"><ele>758.25</ele><time>2026-04-19T12:20:16.971Z</time></trkpt><trkpt lat="44.4080317" lon="10.4363567"><ele>757.5</ele><time>2026-04-19T12:20:17.969Z</time></trkpt><trkpt lat="44.408115" lon="10.436185"><ele>756.75</ele><time>2026-04-19T12:20:18.91Z</time></trkpt><trkpt lat="44.408195" lon="10.4360233"><ele>756.0</ele><time>2026-04-19T12:20:19.898Z</time></trkpt><trkpt lat="44.4082667" lon="10.43588"><ele>756.0</ele><time>2026-04-19T12:20:20.936Z</time></trkpt><trkpt lat="44.4083433" lon="10.43575"><ele>756.0</ele><time>2026-04-19T12:20:21.921Z</time></trkpt><trkpt lat="44.4084367" lon="10.43563"><ele>756.0</ele><time>2026-04-19T12:20:22.948Z</time></trkpt><trkpt lat="44.4085467" lon="10.4355283"><ele>756.0</ele><time>2026-04-19T12:20:23.908Z</time></trkpt><trkpt lat="44.4086783" lon="10.43545"><ele>758.25</ele><time>2026-04-19T12:20:24.914Z</time></trkpt><trkpt lat="44.4088117" lon="10.4353883"><ele>760.5</ele><time>2026-04-19T12:20:25.912Z</time></trkpt><trkpt lat="44.4089383" lon="10.4353533"><ele>762.75</ele><time>2026-04-19T12:20:26.91Z</time></trkpt><trkpt lat="44.4090717" lon="10.4353483"><ele>765.0</ele><time>2026-04-19T12:20:27.968Z</time></trkpt><trkpt lat="44.4092033" lon="10.4353717"><ele>766.25</ele><time>2026-04-19T12:20:28.912Z</time></trkpt><trkpt lat="44.4093283" lon="10.4353967"><ele>767.5</ele><time>2026-04-19T12:20:29.938Z</time></trkpt><trkpt lat="44.4094467" lon="10.4354067"><ele>768.75</ele><time>2026-04-19T12:20:30.907Z</time></trkpt><trkpt lat="44.4095567" lon="10.4353967"><ele>770.0</ele><time>2026-04-19T12:20:31.925Z</time></trkpt><trkpt lat="44.4096583" lon="10.4353467"><ele>766.75</ele><time>2026-04-19T12:20:32.908Z</time></trkpt><trkpt lat="44.409755" lon="10.4352533"><ele>763.5</ele><time>2026-04-19T12:20:33.911Z</time></trkpt><trkpt lat="44.4098317" lon="10.4351167"><ele>760.25</ele><time>2026-04-19T12:20:34.993Z</time></trkpt><trkpt lat="44.409895" lon="10.43495"><ele>757.0</ele><time>2026-04-19T12:20:35.959Z</time></trkpt><trkpt lat="44.4099467" lon="10.4347583"><ele>757.0</ele><time>2026-04-19T12:20:36.954Z</time></trkpt><trkpt lat="44.4099917" lon="10.4345567"><ele>757.0</ele><time>2026-04-19T12:20:37.935Z</time></trkpt><trkpt lat="44.4100267" lon="10.4343583"><ele>757.0</ele><time>2026-04-19T12:20:38.96Z</time></trkpt><trkpt lat="44.410045" lon="10.4341533"><ele>757.0</ele><time>2026-04-19T12:20:39.92Z</time></trkpt><trkpt lat="44.410045" lon="10.43394"><ele>756.0</ele><time>2026-04-19T12:20:40.917Z</time></trkpt><trkpt lat="44.4100317" lon="10.4337233"><ele>755.0</ele><time>2026-04-19T12:20:41.908Z</time></trkpt><trkpt lat="44.4100183" lon="10.4335133"><ele>754.0</ele><time>2026-04-19T12:20:42.949Z</time></trkpt><trkpt lat="44.410005" lon="10.4333217"><ele>753.0</ele><time>2026-04-19T12:20:43.94Z</time></trkpt><trkpt lat="44.409995" lon="10.4331517"><ele>753.0</ele><time>2026-04-19T12:20:44.932Z</time></trkpt><trkpt lat="44.41" lon="10.4329983"><ele>753.0</ele><time>2026-04-19T12:20:45.919Z</time></trkpt><trkpt lat="44.4100283" lon="10.4328567"><ele>753.0</ele><time>2026-04-19T12:20:46.92Z</time></trkpt><trkpt lat="44.4101017" lon="10.432735"><ele>753.0</ele><time>2026-04-19T12:20:47.931Z</time></trkpt><trkpt lat="44.4101983" lon="10.4326433"><ele>753.0</ele><time>2026-04-19T12:20:48.964Z</time></trkpt><trkpt lat="44.410315" lon="10.432575"><ele>751.0</ele><time>2026-04-19T12:20:49.969Z</time></trkpt><trkpt lat="44.41044" lon="10.4325067"><ele>749.0</ele><time>2026-04-19T12:20:50.91Z</time></trkpt><trkpt lat="44.4105617" lon="10.4324217"><ele>747.0</ele><time>2026-04-19T12:20:51.906Z</time></trkpt><trkpt lat="44.4106883" lon="10.4323333"><ele>745.0</ele><time>2026-04-19T12:20:52.944Z</time></trkpt><trkpt lat="44.410815" lon="10.4322533"><ele>745.0</ele><time>2026-04-19T12:20:53.912Z</time></trkpt><trkpt lat="44.410925" lon="10.43218"><ele>745.0</ele><time>2026-04-19T12:20:54.916Z</time></trkpt><trkpt lat="44.4110083" lon="10.4320983"><ele>745.0</ele><time>2026-04-19T12:20:55.997Z</time></trkpt><trkpt lat="44.4110683" lon="10.4319783"><ele>745.0</ele><time>2026-04-19T12:20:56.908Z</time></trkpt><trkpt lat="44.411115" lon="10.431815"><ele>749.0</ele><time>2026-04-19T12:20:57.922Z</time></trkpt><trkpt lat="44.41116" lon="10.431645"><ele>753.0</ele><time>2026-04-19T12:20:58.924Z</time></trkpt><trkpt lat="44.4112017" lon="10.43148"><ele>757.0</ele><time>2026-04-19T12:20:59.926Z</time></trkpt><trkpt lat="44.4112483" lon="10.4313233"><ele>761.0</ele><time>2026-04-19T12:21:00.919Z</time></trkpt><trkpt lat="44.41131" lon="10.431185"><ele>755.0</ele><time>2026-04-19T12:21:01.911Z</time></trkpt><trkpt lat="44.41139" lon="10.4310733"><ele>749.0</ele><time>2026-04-19T12:21:02.923Z</time></trkpt><trkpt lat="44.4114783" lon="10.4309767"><ele>743.0</ele><time>2026-04-19T12:21:03.935Z</time></trkpt><trkpt lat="44.4115517" lon="10.4308717"><ele>737.0</ele><time>2026-04-19T12:21:04.938Z</time></trkpt><trkpt lat="44.411605" lon="10.430745"><ele>731.0</ele><time>2026-04-19T12:21:05.916Z</time></trkpt><trkpt lat="44.4116317" lon="10.4305883"><ele>730.75</ele><time>2026-04-19T12:21:06.927Z</time></trkpt><trkpt lat="44.4116283" lon="10.4304067"><ele>730.5</ele><time>2026-04-19T12:21:07.916Z</time></trkpt><trkpt lat="44.41161" lon="10.4302217"><ele>730.25</ele><time>2026-04-19T12:21:08.972Z</time></trkpt><trkpt lat="44.4115783" lon="10.4300417"><ele>730.0</ele><time>2026-04-19T12:21:09.951Z</time></trkpt><trkpt lat="44.4115317" lon="10.42986"><ele>730.0</ele><time>2026-04-19T12:21:10.922Z</time></trkpt><trkpt lat="44.4114833" lon="10.429665"><ele>730.0</ele><time>2026-04-19T12:21:11.909Z</time></trkpt><trkpt lat="44.41146" lon="10.4294567"><ele>730.0</ele><time>2026-04-19T12:21:12.916Z</time></trkpt><trkpt lat="44.4114767" lon="10.42926"><ele>730.0</ele><time>2026-04-19T12:21:13.932Z</time></trkpt><trkpt lat="44.4115117" lon="10.42908"><ele>729.75</ele><time>2026-04-19T12:21:14.924Z</time></trkpt><trkpt lat="44.41154" lon="10.42891"><ele>729.5</ele><time>2026-04-19T12:21:15.939Z</time></trkpt><trkpt lat="44.4115533" lon="10.4287417"><ele>729.25</ele><time>2026-04-19T12:21:16.914Z</time></trkpt><trkpt lat="44.4115567" lon="10.4285717"><ele>729.0</ele><time>2026-04-19T12:21:17.922Z</time></trkpt><trkpt lat="44.411555" lon="10.4283883"><ele>729.0</ele><time>2026-04-19T12:21:18.973Z</time></trkpt><trkpt lat="44.4115367" lon="10.4281983"><ele>729.0</ele><time>2026-04-19T12:21:19.946Z</time></trkpt><trkpt lat="44.41151" lon="10.42801"><ele>729.0</ele><time>2026-04-19T12:21:20.921Z</time></trkpt><trkpt lat="44.41148" lon="10.427825"><ele>729.0</ele><time>2026-04-19T12:21:21.911Z</time></trkpt><trkpt lat="44.4114317" lon="10.4276467"><ele>728.5</ele><time>2026-04-19T12:21:22.914Z</time></trkpt><trkpt lat="44.4113683" lon="10.4274833"><ele>728.0</ele><time>2026-04-19T12:21:23.908Z</time></trkpt><trkpt lat="44.4113067" lon="10.427335"><ele>727.5</ele><time>2026-04-19T12:21:24.92Z</time></trkpt><trkpt lat="44.4112517" lon="10.427205"><ele>727.0</ele><time>2026-04-19T12:21:25.911Z</time></trkpt><trkpt lat="44.411215" lon="10.42708"><ele>727.0</ele><time>2026-04-19T12:21:26.912Z</time></trkpt><trkpt lat="44.41121" lon="10.4269517"><ele>727.0</ele><time>2026-04-19T12:21:27.974Z</time></trkpt><trkpt lat="44.4112417" lon="10.4268283"><ele>727.0</ele><time>2026-04-19T12:21:28.922Z</time></trkpt><trkpt lat="44.4113067" lon="10.42672"><ele>727.0</ele><time>2026-04-19T12:21:29.912Z</time></trkpt><trkpt lat="44.411395" lon="10.4266267"><ele>727.0</ele><time>2026-04-19T12:21:30.919Z</time></trkpt><trkpt lat="44.41147" lon="10.426525"><ele>727.0</ele><time>2026-04-19T12:21:31.91Z</time></trkpt><trkpt lat="44.4115267" lon="10.4263933"><ele>727.0</ele><time>2026-04-19T12:21:32.951Z</time></trkpt><trkpt lat="44.4115467" lon="10.42624"><ele>727.0</ele><time>2026-04-19T12:21:33.947Z</time></trkpt><trkpt lat="44.4115417" lon="10.4260683"><ele>727.0</ele><time>2026-04-19T12:21:34.946Z</time></trkpt><trkpt lat="44.4115267" lon="10.425895"><ele>727.8</ele><time>2026-04-19T12:21:35.927Z</time></trkpt><trkpt lat="44.4115083" lon="10.425735"><ele>728.6</ele><time>2026-04-19T12:21:36.918Z</time></trkpt><trkpt lat="44.4115067" lon="10.4255833"><ele>729.4</ele><time>2026-04-19T12:21:37.919Z</time></trkpt><trkpt lat="44.4115283" lon="10.4254533"><ele>730.1999999999999</ele><time>2026-04-19T12:21:38.917Z</time></trkpt><trkpt lat="44.4115833" lon="10.4253583"><ele>731.0</ele><time>2026-04-19T12:21:39.923Z</time></trkpt><trkpt lat="44.4116567" lon="10.4253017"><ele>731.5</ele><time>2026-04-19T12:21:40.961Z</time></trkpt><trkpt lat="44.41177" lon="10.4252867"><ele>732.0</ele><time>2026-04-19T12:21:41.943Z</time></trkpt><trkpt lat="44.4119083" lon="10.425305"><ele>732.5</ele><time>2026-04-19T12:21:42.914Z</time></trkpt><trkpt lat="44.4120583" lon="10.42533"><ele>733.0</ele><time>2026-04-19T12:21:43.933Z</time></trkpt><trkpt lat="44.4122067" lon="10.42535"><ele>733.0</ele><time>2026-04-19T12:21:44.922Z</time></trkpt><trkpt lat="44.4123467" lon="10.425365"><ele>733.0</ele><time>2026-04-19T12:21:45.938Z</time></trkpt><trkpt lat="44.4124783" lon="10.4253767"><ele>733.0</ele><time>2026-04-19T12:21:46.921Z</time></trkpt><trkpt lat="44.412605" lon="10.4253867"><ele>733.0</ele><time>2026-04-19T12:21:47.908Z</time></trkpt><trkpt lat="44.4127333" lon="10.425405"><ele>733.0</ele><time>2026-04-19T12:21:48.985Z</time></trkpt><trkpt lat="44.4128583" lon="10.4254317"><ele>733.0</ele><time>2026-04-19T12:21:49.956Z</time></trkpt><trkpt lat="44.41299" lon="10.4254667"><ele>733.0</ele><time>2026-04-19T12:21:50.927Z</time></trkpt><trkpt lat="44.4131283" lon="10.42551"><ele>733.0</ele><time>2026-04-19T12:21:51.919Z</time></trkpt><trkpt lat="44.4132767" lon="10.4255617"><ele>728.3333333333334</ele><time>2026-04-19T12:21:52.934Z</time></trkpt><trkpt lat="44.4134283" lon="10.4256217"><ele>723.6666666666666</ele><time>2026-04-19T12:21:53.916Z</time></trkpt><trkpt lat="44.413585" lon="10.4256917"><ele>719.0</ele><time>2026-04-19T12:21:54.917Z</time></trkpt><trkpt lat="44.4137417" lon="10.4257667"><ele>719.75</ele><time>2026-04-19T12:21:55.949Z</time></trkpt><trkpt lat="44.4138883" lon="10.4258433"><ele>720.5</ele><time>2026-04-19T12:21:56.982Z</time></trkpt><trkpt lat="44.4140217" lon="10.42591"><ele>721.25</ele><time>2026-04-19T12:21:58.003Z</time></trkpt><trkpt lat="44.414145" lon="10.425955"><ele>722.0</ele><time>2026-04-19T12:21:58.992Z</time></trkpt><trkpt lat="44.414275" lon="10.4259667"><ele>722.0</ele><time>2026-04-19T12:21:59.907Z</time></trkpt><trkpt lat="44.4144133" lon="10.42594"><ele>722.0</ele><time>2026-04-19T12:22:00.921Z</time></trkpt><trkpt lat="44.4145633" lon="10.42588"><ele>722.0</ele><time>2026-04-19T12:22:01.912Z</time></trkpt><trkpt lat="44.4147183" lon="10.4258167"><ele>721.0</ele><time>2026-04-19T12:22:02.922Z</time></trkpt><trkpt lat="44.4148683" lon="10.4257583"><ele>720.0</ele><time>2026-04-19T12:22:03.916Z</time></trkpt><trkpt lat="44.41501" lon="10.4257083"><ele>719.0</ele><time>2026-04-19T12:22:04.915Z</time></trkpt><trkpt lat="44.415145" lon="10.4256833"><ele>718.0</ele><time>2026-04-19T12:22:05.939Z</time></trkpt><trkpt lat="44.415275" lon="10.4256917"><ele>718.0</ele><time>2026-04-19T12:22:06.931Z</time></trkpt><trkpt lat="44.4153983" lon="10.4257367"><ele>718.0</ele><time>2026-04-19T12:22:07.907Z</time></trkpt><trkpt lat="44.4155167" lon="10.4258183"><ele>718.0</ele><time>2026-04-19T12:22:08.944Z</time></trkpt><trkpt lat="44.4156383" lon="10.4259267"><ele>718.0</ele><time>2026-04-19T12:22:09.917Z</time></trkpt><trkpt lat="44.4157633" lon="10.4260567"><ele>719.6666666666667</ele><time>2026-04-19T12:22:10.928Z</time></trkpt><trkpt lat="44.4158917" lon="10.4261967"><ele>721.3333333333334</ele><time>2026-04-19T12:22:11.926Z</time></trkpt><trkpt lat="44.4160217" lon="10.4263383"><ele>723.0</ele><time>2026-04-19T12:22:12.907Z</time></trkpt><trkpt lat="44.4161533" lon="10.426475"><ele>721.75</ele><time>2026-04-19T12:22:13.914Z</time></trkpt><trkpt lat="44.4162767" lon="10.4266017"><ele>720.5</ele><time>2026-04-19T12:22:14.984Z</time></trkpt><trkpt lat="44.41639" lon="10.42672"><ele>719.25</ele><time>2026-04-19T12:22:15.963Z</time></trkpt><trkpt lat="44.4165" lon="10.4268233"><ele>718.0</ele><time>2026-04-19T12:22:16.921Z</time></trkpt><trkpt lat="44.4166083" lon="10.4269033"><ele>718.0</ele><time>2026-04-19T12:22:17.91Z</time></trkpt><trkpt lat="44.4167317" lon="10.42694"><ele>718.0</ele><time>2026-04-19T12:22:18.913Z</time></trkpt><trkpt lat="44.41686" lon="10.42693"><ele>718.0</ele><time>2026-04-19T12:22:19.914Z</time></trkpt><trkpt lat="44.4169817" lon="10.4268767"><ele>718.0</ele><time>2026-04-19T12:22:20.936Z</time></trkpt><trkpt lat="44.4170817" lon="10.4267933"><ele>718.0</ele><time>2026-04-19T12:22:21.911Z</time></trkpt><trkpt lat="44.4171567" lon="10.4266767"><ele>718.0</ele><time>2026-04-19T12:22:22.991Z</time></trkpt><trkpt lat="44.41721" lon="10.4265367"><ele>718.0</ele><time>2026-04-19T12:22:23.961Z</time></trkpt><trkpt lat="44.41725" lon="10.4263967"><ele>718.0</ele><time>2026-04-19T12:22:24.913Z</time></trkpt><trkpt lat="44.4173017" lon="10.4262683"><ele>718.0</ele><time>2026-04-19T12:22:25.91Z</time></trkpt><trkpt lat="44.4173717" lon="10.4261633"><ele>718.0</ele><time>2026-04-19T12:22:26.988Z</time></trkpt><trkpt lat="44.417465" lon="10.4260983"><ele>718.0</ele><time>2026-04-19T12:22:27.96Z</time></trkpt><trkpt lat="44.4175783" lon="10.4260733"><ele>718.0</ele><time>2026-04-19T12:22:28.947Z</time></trkpt><trkpt lat="44.4177083" lon="10.4260783"><ele>718.0</ele><time>2026-04-19T12:22:29.908Z</time></trkpt><trkpt lat="44.4178517" lon="10.4261"><ele>717.0</ele><time>2026-04-19T12:22:30.91Z</time></trkpt><trkpt lat="44.418" lon="10.426125"><ele>716.0</ele><time>2026-04-19T12:22:31.975Z</time></trkpt><trkpt lat="44.4181583" lon="10.4261467"><ele>715.0</ele><time>2026-04-19T12:22:32.928Z</time></trkpt><trkpt lat="44.4183183" lon="10.4261633"><ele>715.0</ele><time>2026-04-19T12:22:33.938Z</time></trkpt><trkpt lat="44.4184817" lon="10.42618"><ele>715.0</ele><time>2026-04-19T12:22:34.92Z</time></trkpt><trkpt lat="44.41864" lon="10.4261983"><ele>715.0</ele><time>2026-04-19T12:22:35.944Z</time></trkpt><trkpt lat="44.4187933" lon="10.426215"><ele>715.5</ele><time>2026-04-19T12:22:36.927Z</time></trkpt><trkpt lat="44.41894" lon="10.4262267"><ele>716.0</ele><time>2026-04-19T12:22:37.951Z</time></trkpt><trkpt lat="44.4190767" lon="10.4262367"><ele>716.5</ele><time>2026-04-19T12:22:38.937Z</time></trkpt><trkpt lat="44.419215" lon="10.42625"><ele>717.0</ele><time>2026-04-19T12:22:39.956Z</time></trkpt><trkpt lat="44.4193583" lon="10.42627"><ele>717.0</ele><time>2026-04-19T12:22:40.979Z</time></trkpt><trkpt lat="44.4195" lon="10.4262917"><ele>717.0</ele><time>2026-04-19T12:22:41.952Z</time></trkpt><trkpt lat="44.4196383" lon="10.4263133"><ele>717.0</ele><time>2026-04-19T12:22:42.933Z</time></trkpt><trkpt lat="44.4197667" lon="10.4263383"><ele>717.0</ele><time>2026-04-19T12:22:43.924Z</time></trkpt><trkpt lat="44.4198883" lon="10.426385"><ele>715.5</ele><time>2026-04-19T12:22:44.935Z</time></trkpt><trkpt lat="44.4199967" lon="10.4264683"><ele>714.0</ele><time>2026-04-19T12:22:45.91Z</time></trkpt><trkpt lat="44.4200917" lon="10.4265883"><ele>712.5</ele><time>2026-04-19T12:22:46.94Z</time></trkpt><trkpt lat="44.420175" lon="10.4267317"><ele>711.0</ele><time>2026-04-19T12:22:47.91Z</time></trkpt><trkpt lat="44.420245" lon="10.426895"><ele>711.0</ele><time>2026-04-19T12:22:48.967Z</time></trkpt><trkpt lat="44.4203067" lon="10.4270633"><ele>711.0</ele><time>2026-04-19T12:22:49.967Z</time></trkpt><trkpt lat="44.42036" lon="10.4272333"><ele>711.0</ele><time>2026-04-19T12:22:50.922Z</time></trkpt><trkpt lat="44.4204217" lon="10.4273883"><ele>711.0</ele><time>2026-04-19T12:22:51.92Z</time></trkpt><trkpt lat="44.4205" lon="10.4275183"><ele>711.0</ele><time>2026-04-19T12:22:52.936Z</time></trkpt><trkpt lat="44.4206033" lon="10.42762"><ele>711.0</ele><time>2026-04-19T12:22:53.928Z</time></trkpt><trkpt lat="44.4207283" lon="10.4276917"><ele>711.0</ele><time>2026-04-19T12:22:55.085Z</time></trkpt><trkpt lat="44.4210367" lon="10.4277767"><ele>711.0</ele><time>2026-04-19T12:22:56.957Z</time></trkpt><trkpt lat="44.4212" lon="10.42782"><ele>711.0</ele><time>2026-04-19T12:22:57.95Z</time></trkpt><trkpt lat="44.4213717" lon="10.4278667"><ele>711.0</ele><time>2026-04-19T12:22:58.942Z</time></trkpt><trkpt lat="44.4215467" lon="10.4279117"><ele>710.6666666666666</ele><time>2026-04-19T12:22:59.931Z</time></trkpt><trkpt lat="44.4217233" lon="10.4279583"><ele>710.3333333333333</ele><time>2026-04-19T12:23:00.931Z</time></trkpt><trkpt lat="44.421905" lon="10.428005"><ele>710.0</ele><time>2026-04-19T12:23:01.93Z</time></trkpt><trkpt lat="44.4220867" lon="10.4280517"><ele>708.6666666666666</ele><time>2026-04-19T12:23:02.912Z</time></trkpt><trkpt lat="44.4222683" lon="10.4281017"><ele>707.3333333333334</ele><time>2026-04-19T12:23:03.939Z</time></trkpt><trkpt lat="44.422445" lon="10.42815"><ele>706.0</ele><time>2026-04-19T12:23:04.966Z</time></trkpt><trkpt lat="44.4226217" lon="10.4282167"><ele>706.0</ele><time>2026-04-19T12:23:05.911Z</time></trkpt><trkpt lat="44.4227917" lon="10.4283083"><ele>706.0</ele><time>2026-04-19T12:23:06.91Z</time></trkpt><trkpt lat="44.4229567" lon="10.4284233"><ele>706.0</ele><time>2026-04-19T12:23:07.955Z</time></trkpt><trkpt lat="44.4231117" lon="10.4285533"><ele>707.6666666666667</ele><time>2026-04-19T12:23:08.921Z</time></trkpt><trkpt lat="44.423265" lon="10.4286833"><ele>709.3333333333334</ele><time>2026-04-19T12:23:09.907Z</time></trkpt><trkpt lat="44.423415" lon="10.428815"><ele>711.0</ele><time>2026-04-19T12:23:10.915Z</time></trkpt><trkpt lat="44.4235717" lon="10.4289483"><ele>710.3333333333334</ele><time>2026-04-19T12:23:11.955Z</time></trkpt><trkpt lat="44.42373" lon="10.4290817"><ele>709.6666666666667</ele><time>2026-04-19T12:23:12.939Z</time></trkpt><trkpt lat="44.42389" lon="10.4292067"><ele>709.0</ele><time>2026-04-19T12:23:13.935Z</time></trkpt><trkpt lat="44.424055" lon="10.4293183"><ele>709.0</ele><time>2026-04-19T12:23:14.928Z</time></trkpt><trkpt lat="44.424225" lon="10.429415"><ele>709.0</ele><time>2026-04-19T12:23:15.912Z</time></trkpt><trkpt lat="44.4243933" lon="10.4294967"><ele>709.0</ele><time>2026-04-19T12:23:16.942Z</time></trkpt><trkpt lat="44.4245533" lon="10.42957"><ele>708.6666666666667</ele><time>2026-04-19T12:23:17.911Z</time></trkpt><trkpt lat="44.4247083" lon="10.4296633"><ele>708.3333333333334</ele><time>2026-04-19T12:23:18.979Z</time></trkpt><trkpt lat="44.4248533" lon="10.4297967"><ele>708.0</ele><time>2026-04-19T12:23:19.927Z</time></trkpt><trkpt lat="44.4249883" lon="10.4299533"><ele>708.0</ele><time>2026-04-19T12:23:20.948Z</time></trkpt><trkpt lat="44.425115" lon="10.4301117"><ele>708.0</ele><time>2026-04-19T12:23:21.949Z</time></trkpt><trkpt lat="44.425245" lon="10.43026"><ele>708.0</ele><time>2026-04-19T12:23:22.97Z</time></trkpt><trkpt lat="44.4253867" lon="10.4303883"><ele>708.3333333333334</ele><time>2026-04-19T12:23:23.984Z</time></trkpt><trkpt lat="44.4255383" lon="10.4304867"><ele>708.6666666666667</ele><time>2026-04-19T12:23:24.934Z</time></trkpt><trkpt lat="44.4256867" lon="10.4305583"><ele>709.0</ele><time>2026-04-19T12:23:25.913Z</time></trkpt><trkpt lat="44.42582" lon="10.43061"><ele>709.0</ele><time>2026-04-19T12:23:27.002Z</time></trkpt><trkpt lat="44.4259417" lon="10.430655"><ele>709.0</ele><time>2026-04-19T12:23:27.995Z</time></trkpt><trkpt lat="44.4260567" lon="10.4306967"><ele>709.0</ele><time>2026-04-19T12:23:28.912Z</time></trkpt><trkpt lat="44.42618" lon="10.4307383"><ele>709.0</ele><time>2026-04-19T12:23:29.912Z</time></trkpt><trkpt lat="44.4263217" lon="10.430785"><ele>710.25</ele><time>2026-04-19T12:23:30.91Z</time></trkpt><trkpt lat="44.4264633" lon="10.4308217"><ele>711.5</ele><time>2026-04-19T12:23:31.923Z</time></trkpt><trkpt lat="44.4266017" lon="10.4308367"><ele>712.75</ele><time>2026-04-19T12:23:32.946Z</time></trkpt><trkpt lat="44.4267417" lon="10.4308217"><ele>714.0</ele><time>2026-04-19T12:23:33.943Z</time></trkpt><trkpt lat="44.4268783" lon="10.43077"><ele>714.0</ele><time>2026-04-19T12:23:34.947Z</time></trkpt><trkpt lat="44.427015" lon="10.4306967"><ele>714.0</ele><time>2026-04-19T12:23:35.912Z</time></trkpt><trkpt lat="44.42715" lon="10.430625"><ele>714.0</ele><time>2026-04-19T12:23:36.954Z</time></trkpt><trkpt lat="44.4272817" lon="10.4305567"><ele>714.0</ele><time>2026-04-19T12:23:37.943Z</time></trkpt><trkpt lat="44.42741" lon="10.430495"><ele>716.25</ele><time>2026-04-19T12:23:38.941Z</time></trkpt><trkpt lat="44.4275317" lon="10.4304333"><ele>718.5</ele><time>2026-04-19T12:23:39.937Z</time></trkpt><trkpt lat="44.4276533" lon="10.4303717"><ele>720.75</ele><time>2026-04-19T12:23:40.915Z</time></trkpt><trkpt lat="44.4277733" lon="10.4303067"><ele>723.0</ele><time>2026-04-19T12:23:41.914Z</time></trkpt><trkpt lat="44.4279033" lon="10.43024"><ele>722.0</ele><time>2026-04-19T12:23:42.909Z</time></trkpt><trkpt lat="44.4280367" lon="10.4301633"><ele>721.0</ele><time>2026-04-19T12:23:43.924Z</time></trkpt><trkpt lat="44.42817" lon="10.430085"><ele>720.0</ele><time>2026-04-19T12:23:44.92Z</time></trkpt><trkpt lat="44.42831" lon="10.4300117"><ele>719.0</ele><time>2026-04-19T12:23:45.911Z</time></trkpt><trkpt lat="44.4284517" lon="10.4299383"><ele>719.0</ele><time>2026-04-19T12:23:46.924Z</time></trkpt><trkpt lat="44.4285883" lon="10.42986"><ele>719.0</ele><time>2026-04-19T12:23:47.936Z</time></trkpt><trkpt lat="44.42871" lon="10.42977"><ele>719.0</ele><time>2026-04-19T12:23:48.91Z</time></trkpt><trkpt lat="44.4288167" lon="10.4296667"><ele>719.0</ele><time>2026-04-19T12:23:49.911Z</time></trkpt><trkpt lat="44.4289" lon="10.4295367"><ele>719.5</ele><time>2026-04-19T12:23:50.91Z</time></trkpt><trkpt lat="44.4289617" lon="10.4293917"><ele>720.0</ele><time>2026-04-19T12:23:51.916Z</time></trkpt><trkpt lat="44.4290033" lon="10.4292383"><ele>720.5</ele><time>2026-04-19T12:23:52.922Z</time></trkpt><trkpt lat="44.42903" lon="10.429085"><ele>721.0</ele><time>2026-04-19T12:23:53.931Z</time></trkpt><trkpt lat="44.4290583" lon="10.428925"><ele>722.5</ele><time>2026-04-19T12:23:54.922Z</time></trkpt><trkpt lat="44.4290917" lon="10.4287617"><ele>724.0</ele><time>2026-04-19T12:23:55.911Z</time></trkpt><trkpt lat="44.42913" lon="10.4286033"><ele>725.5</ele><time>2026-04-19T12:23:56.927Z</time></trkpt><trkpt lat="44.429175" lon="10.428455"><ele>727.0</ele><time>2026-04-19T12:23:57.913Z</time></trkpt><trkpt lat="44.4292467" lon="10.4283317"><ele>727.0</ele><time>2026-04-19T12:23:58.916Z</time></trkpt><trkpt lat="44.42935" lon="10.4282467"><ele>727.0</ele><time>2026-04-19T12:23:59.91Z</time></trkpt><trkpt lat="44.4294767" lon="10.4282133"><ele>727.0</ele><time>2026-04-19T12:24:00.906Z</time></trkpt><trkpt lat="44.429605" lon="10.42824"><ele>727.0</ele><time>2026-04-19T12:24:01.908Z</time></trkpt><trkpt lat="44.4297317" lon="10.4283283"><ele>726.5</ele><time>2026-04-19T12:24:02.918Z</time></trkpt><trkpt lat="44.4298417" lon="10.4284483"><ele>726.0</ele><time>2026-04-19T12:24:03.955Z</time></trkpt><trkpt lat="44.4299483" lon="10.4285717"><ele>725.5</ele><time>2026-04-19T12:24:04.973Z</time></trkpt><trkpt lat="44.4300683" lon="10.4286533"><ele>725.0</ele><time>2026-04-19T12:24:05.912Z</time></trkpt><trkpt lat="44.4302117" lon="10.428685"><ele>725.0</ele><time>2026-04-19T12:24:06.978Z</time></trkpt><trkpt lat="44.430375" lon="10.4286667"><ele>725.0</ele><time>2026-04-19T12:24:07.926Z</time></trkpt><trkpt lat="44.430555" lon="10.4286233"><ele>725.0</ele><time>2026-04-19T12:24:08.932Z</time></trkpt><trkpt lat="44.4307417" lon="10.4285633"><ele>725.6666666666666</ele><time>2026-04-19T12:24:09.928Z</time></trkpt><trkpt lat="44.4309317" lon="10.4284817"><ele>726.3333333333334</ele><time>2026-04-19T12:24:10.913Z</time></trkpt><trkpt lat="44.43112" lon="10.4283917"><ele>727.0</ele><time>2026-04-19T12:24:11.964Z</time></trkpt><trkpt lat="44.4313017" lon="10.4283083"><ele>725.0</ele><time>2026-04-19T12:24:12.918Z</time></trkpt><trkpt lat="44.4314683" lon="10.4282417"><ele>723.0</ele><time>2026-04-19T12:24:13.911Z</time></trkpt><trkpt lat="44.4316183" lon="10.428185"><ele>721.0</ele><time>2026-04-19T12:24:14.931Z</time></trkpt><trkpt lat="44.4317433" lon="10.428115"><ele>721.0</ele><time>2026-04-19T12:24:15.91Z</time></trkpt><trkpt lat="44.431845" lon="10.4280117"><ele>721.0</ele><time>2026-04-19T12:24:16.992Z</time></trkpt><trkpt lat="44.4319167" lon="10.427865"><ele>721.0</ele><time>2026-04-19T12:24:17.939Z</time></trkpt><trkpt lat="44.4319533" lon="10.427675"><ele>721.0</ele><time>2026-04-19T12:24:18.932Z</time></trkpt><trkpt lat="44.4319667" lon="10.427455"><ele>724.3333333333334</ele><time>2026-04-19T12:24:19.943Z</time></trkpt><trkpt lat="44.431975" lon="10.42722"><ele>727.6666666666666</ele><time>2026-04-19T12:24:20.92Z</time></trkpt><trkpt lat="44.4319883" lon="10.4269733"><ele>731.0</ele><time>2026-04-19T12:24:21.921Z</time></trkpt><trkpt lat="44.4320017" lon="10.4267133"><ele>733.3333333333333</ele><time>2026-04-19T12:24:22.933Z</time></trkpt><trkpt lat="44.4320133" lon="10.4264633"><ele>735.6666666666666</ele><time>2026-04-19T12:24:23.923Z</time></trkpt><trkpt lat="44.43203" lon="10.4262333"><ele>738.0</ele><time>2026-04-19T12:24:24.964Z</time></trkpt><trkpt lat="44.4320467" lon="10.42602"><ele>738.6666666666666</ele><time>2026-04-19T12:24:25.924Z</time></trkpt><trkpt lat="44.4320533" lon="10.425815"><ele>739.3333333333333</ele><time>2026-04-19T12:24:26.908Z</time></trkpt><trkpt lat="44.43203" lon="10.4256083"><ele>740.0</ele><time>2026-04-19T12:24:27.923Z</time></trkpt><trkpt lat="44.4319633" lon="10.4254017"><ele>738.0</ele><time>2026-04-19T12:24:28.944Z</time></trkpt><trkpt lat="44.4318667" lon="10.42521"><ele>736.0</ele><time>2026-04-19T12:24:29.908Z</time></trkpt><trkpt lat="44.4317683" lon="10.4250333"><ele>734.0</ele><time>2026-04-19T12:24:30.91Z</time></trkpt><trkpt lat="44.4316867" lon="10.4248533"><ele>734.0</ele><time>2026-04-19T12:24:31.908Z</time></trkpt><trkpt lat="44.4316267" lon="10.42466"><ele>734.0</ele><time>2026-04-19T12:24:32.912Z</time></trkpt><trkpt lat="44.4316" lon="10.424445"><ele>734.0</ele><time>2026-04-19T12:24:33.921Z</time></trkpt><trkpt lat="44.4316033" lon="10.4242133"><ele>732.6666666666666</ele><time>2026-04-19T12:24:34.913Z</time></trkpt><trkpt lat="44.431625" lon="10.4239783"><ele>731.3333333333334</ele><time>2026-04-19T12:24:35.911Z</time></trkpt><trkpt lat="44.4316417" lon="10.423755"><ele>730.0</ele><time>2026-04-19T12:24:36.92Z</time></trkpt><trkpt lat="44.4316433" lon="10.4235433"><ele>729.5</ele><time>2026-04-19T12:24:37.911Z</time></trkpt><trkpt lat="44.431625" lon="10.42335"><ele>729.0</ele><time>2026-04-19T12:24:38.909Z</time></trkpt><trkpt lat="44.43158" lon="10.4231733"><ele>728.5</ele><time>2026-04-19T12:24:39.919Z</time></trkpt><trkpt lat="44.4315" lon="10.4230117"><ele>728.0</ele><time>2026-04-19T12:24:40.916Z</time></trkpt><trkpt lat="44.4313967" lon="10.4228683"><ele>728.5</ele><time>2026-04-19T12:24:41.918Z</time></trkpt><trkpt lat="44.4312933" lon="10.422735"><ele>729.0</ele><time>2026-04-19T12:24:42.911Z</time></trkpt><trkpt lat="44.4311967" lon="10.422605"><ele>729.5</ele><time>2026-04-19T12:24:43.969Z</time></trkpt><trkpt lat="44.4311067" lon="10.422475"><ele>730.0</ele><time>2026-04-19T12:24:44.909Z</time></trkpt><trkpt lat="44.431025" lon="10.422335"><ele>730.0</ele><time>2026-04-19T12:24:45.913Z</time></trkpt><trkpt lat="44.4309633" lon="10.422175"><ele>730.0</ele><time>2026-04-19T12:24:46.958Z</time></trkpt><trkpt lat="44.4309317" lon="10.4219983"><ele>730.0</ele><time>2026-04-19T12:24:47.911Z</time></trkpt><trkpt lat="44.4309367" lon="10.4218233"><ele>730.0</ele><time>2026-04-19T12:24:48.942Z</time></trkpt><trkpt lat="44.43096" lon="10.4216483"><ele>729.75</ele><time>2026-04-19T12:24:49.921Z</time></trkpt><trkpt lat="44.4309967" lon="10.4214733"><ele>729.5</ele><time>2026-04-19T12:24:50.909Z</time></trkpt><trkpt lat="44.4310417" lon="10.4212983"><ele>729.25</ele><time>2026-04-19T12:24:51.91Z</time></trkpt><trkpt lat="44.4310833" lon="10.4211267"><ele>729.0</ele><time>2026-04-19T12:24:52.916Z</time></trkpt><trkpt lat="44.4311267" lon="10.4209633"><ele>728.5</ele><time>2026-04-19T12:24:53.927Z</time></trkpt><trkpt lat="44.43117" lon="10.4208033"><ele>728.0</ele><time>2026-04-19T12:24:54.909Z</time></trkpt><trkpt lat="44.4312217" lon="10.4206467"><ele>727.5</ele><time>2026-04-19T12:24:55.917Z</time></trkpt><trkpt lat="44.43128" lon="10.420505"><ele>727.0</ele><time>2026-04-19T12:24:56.905Z</time></trkpt><trkpt lat="44.431345" lon="10.42038"><ele>727.0</ele><time>2026-04-19T12:24:57.911Z</time></trkpt><trkpt lat="44.43141" lon="10.4202617"><ele>727.0</ele><time>2026-04-19T12:24:58.928Z</time></trkpt><trkpt lat="44.4314767" lon="10.4201417"><ele>727.0</ele><time>2026-04-19T12:24:59.911Z</time></trkpt><trkpt lat="44.431545" lon="10.42002"><ele>727.0</ele><time>2026-04-19T12:25:00.941Z</time></trkpt><trkpt lat="44.4316083" lon="10.4199"><ele>727.0</ele><time>2026-04-19T12:25:01.912Z</time></trkpt><trkpt lat="44.43167" lon="10.419765"><ele>727.6666666666667</ele><time>2026-04-19T12:25:02.914Z</time></trkpt><trkpt lat="44.4317267" lon="10.4196183"><ele>728.3333333333334</ele><time>2026-04-19T12:25:03.922Z</time></trkpt><trkpt lat="44.431775" lon="10.4194683"><ele>729.0</ele><time>2026-04-19T12:25:05.027Z</time></trkpt><trkpt lat="44.4318667" lon="10.4191683"><ele>729.0</ele><time>2026-04-19T12:25:06.998Z</time></trkpt><trkpt lat="44.43191" lon="10.41902"><ele>729.0</ele><time>2026-04-19T12:25:07.967Z</time></trkpt><trkpt lat="44.4319517" lon="10.4188733"><ele>729.0</ele><time>2026-04-19T12:25:08.939Z</time></trkpt><trkpt lat="44.4319867" lon="10.4187283"><ele>729.0</ele><time>2026-04-19T12:25:09.912Z</time></trkpt><trkpt lat="44.43201" lon="10.41858"><ele>729.0</ele><time>2026-04-19T12:25:10.958Z</time></trkpt><trkpt lat="44.4320167" lon="10.4184283"><ele>729.0</ele><time>2026-04-19T12:25:11.964Z</time></trkpt><trkpt lat="44.4320117" lon="10.4182817"><ele>729.0</ele><time>2026-04-19T12:25:12.911Z</time></trkpt><trkpt lat="44.4320033" lon="10.4181433"><ele>729.0</ele><time>2026-04-19T12:25:13.93Z</time></trkpt><trkpt lat="44.43199" lon="10.41802"><ele>729.0</ele><time>2026-04-19T12:25:14.999Z</time></trkpt><trkpt lat="44.43198" lon="10.41791"><ele>729.0</ele><time>2026-04-19T12:25:15.949Z</time></trkpt><trkpt lat="44.43197" lon="10.4178167"><ele>729.0</ele><time>2026-04-19T12:25:16.929Z</time></trkpt><trkpt lat="44.4319567" lon="10.417695"><ele>728.8333333333334</ele><time>2026-04-19T12:25:18.919Z</time></trkpt><trkpt lat="44.431945" lon="10.4176"><ele>728.6666666666666</ele><time>2026-04-19T12:25:20.935Z</time></trkpt><trkpt lat="44.43193" lon="10.4175033"><ele>728.5</ele><time>2026-04-19T12:25:22.937Z</time></trkpt><trkpt lat="44.4319233" lon="10.4174"><ele>728.3333333333333</ele><time>2026-04-19T12:25:24.912Z</time></trkpt><trkpt lat="44.4319233" lon="10.4172933"><ele>728.1666666666666</ele><time>2026-04-19T12:25:26.95Z</time></trkpt><trkpt lat="44.431905" lon="10.4171683"><ele>728.0</ele><time>2026-04-19T12:25:28.933Z</time></trkpt><trkpt lat="44.4318533" lon="10.4169917"><ele>728.0</ele><time>2026-04-19T12:25:30.922Z</time></trkpt><trkpt lat="44.4318233" lon="10.4168567"><ele>728.0</ele><time>2026-04-19T12:25:31.912Z</time></trkpt><trkpt lat="44.4318083" lon="10.41668"><ele>728.0</ele><time>2026-04-19T12:25:32.916Z</time></trkpt><trkpt lat="44.431805" lon="10.416495"><ele>728.0</ele><time>2026-04-19T12:25:33.924Z</time></trkpt><trkpt lat="44.43181" lon="10.4162933"><ele>728.5</ele><time>2026-04-19T12:25:34.92Z</time></trkpt><trkpt lat="44.4318183" lon="10.41609"><ele>729.0</ele><time>2026-04-19T12:25:35.919Z</time></trkpt><trkpt lat="44.4318233" lon="10.4158967"><ele>729.5</ele><time>2026-04-19T12:25:36.926Z</time></trkpt><trkpt lat="44.4318283" lon="10.4157167"><ele>730.0</ele><time>2026-04-19T12:25:37.909Z</time></trkpt><trkpt lat="44.431825" lon="10.4155433"><ele>730.25</ele><time>2026-04-19T12:25:38.908Z</time></trkpt><trkpt lat="44.4318167" lon="10.41536"><ele>730.5</ele><time>2026-04-19T12:25:39.909Z</time></trkpt><trkpt lat="44.4318067" lon="10.415155"><ele>730.75</ele><time>2026-04-19T12:25:40.948Z</time></trkpt><trkpt lat="44.4318" lon="10.4149333"><ele>731.0</ele><time>2026-04-19T12:25:41.933Z</time></trkpt><trkpt lat="44.4317983" lon="10.4147017"><ele>731.0</ele><time>2026-04-19T12:25:42.929Z</time></trkpt><trkpt lat="44.4318033" lon="10.4144683"><ele>731.0</ele><time>2026-04-19T12:25:43.91Z</time></trkpt><trkpt lat="44.4318117" lon="10.4142317"><ele>731.0</ele><time>2026-04-19T12:25:44.991Z</time></trkpt><trkpt lat="44.43182" lon="10.41399"><ele>730.3333333333333</ele><time>2026-04-19T12:25:45.933Z</time></trkpt><trkpt lat="44.4318217" lon="10.4137417"><ele>729.6666666666666</ele><time>2026-04-19T12:25:46.932Z</time></trkpt><trkpt lat="44.431825" lon="10.4134917"><ele>729.0</ele><time>2026-04-19T12:25:47.922Z</time></trkpt><trkpt lat="44.4318317" lon="10.4132467"><ele>729.0</ele><time>2026-04-19T12:25:48.923Z</time></trkpt><trkpt lat="44.4318367" lon="10.4130167"><ele>729.0</ele><time>2026-04-19T12:25:49.935Z</time></trkpt><trkpt lat="44.4318483" lon="10.4127967"><ele>729.0</ele><time>2026-04-19T12:25:50.937Z</time></trkpt><trkpt lat="44.4318633" lon="10.4125767"><ele>728.6666666666666</ele><time>2026-04-19T12:25:51.931Z</time></trkpt><trkpt lat="44.4318883" lon="10.412365"><ele>728.3333333333333</ele><time>2026-04-19T12:25:52.946Z</time></trkpt><trkpt lat="44.4319217" lon="10.4121617"><ele>728.0</ele><time>2026-04-19T12:25:53.922Z</time></trkpt><trkpt lat="44.4319633" lon="10.4119633"><ele>728.0</ele><time>2026-04-19T12:25:54.909Z</time></trkpt><trkpt lat="44.4320083" lon="10.411775"><ele>728.0</ele><time>2026-04-19T12:25:55.927Z</time></trkpt><trkpt lat="44.4320483" lon="10.411595"><ele>728.0</ele><time>2026-04-19T12:25:56.932Z</time></trkpt><trkpt lat="44.43209" lon="10.4114233"><ele>728.0</ele><time>2026-04-19T12:25:57.909Z</time></trkpt><trkpt lat="44.432135" lon="10.41127"><ele>726.2</ele><time>2026-04-19T12:25:58.912Z</time></trkpt><trkpt lat="44.4321733" lon="10.4111417"><ele>724.4</ele><time>2026-04-19T12:25:59.914Z</time></trkpt><trkpt lat="44.4322067" lon="10.4110533"><ele>722.6</ele><time>2026-04-19T12:26:00.911Z</time></trkpt><trkpt lat="44.4322533" lon="10.4109633"><ele>720.8000000000001</ele><time>2026-04-19T12:26:02.917Z</time></trkpt><trkpt lat="44.4323567" lon="10.4108283"><ele>719.0</ele><time>2026-04-19T12:26:21.909Z</time></trkpt><trkpt lat="44.432435" lon="10.4107083"><ele>719.0</ele><time>2026-04-19T12:26:23.94Z</time></trkpt><trkpt lat="44.432425" lon="10.4105767"><ele>719.0</ele><time>2026-04-19T12:26:25.911Z</time></trkpt><trkpt lat="44.4323167" lon="10.4105"><ele>719.0</ele><time>2026-04-19T12:26:27.952Z</time></trkpt><trkpt lat="44.4322633" lon="10.4104383"><ele>719.0</ele><time>2026-04-19T12:26:28.954Z</time></trkpt><trkpt lat="44.4322267" lon="10.4103567"><ele>719.0</ele><time>2026-04-19T12:26:29.912Z</time></trkpt><trkpt lat="44.4322017" lon="10.410235"><ele>719.0</ele><time>2026-04-19T12:26:30.941Z</time></trkpt><trkpt lat="44.43216" lon="10.4101333"><ele>721.0</ele><time>2026-04-19T12:26:31.957Z</time></trkpt><trkpt lat="44.432095" lon="10.4100517"><ele>723.0</ele><time>2026-04-19T12:26:32.947Z</time></trkpt><trkpt lat="44.431995" lon="10.4100183"><ele>725.0</ele><time>2026-04-19T12:26:33.913Z</time></trkpt><trkpt lat="44.4318983" lon="10.4099917"><ele>727.0</ele><time>2026-04-19T12:26:34.912Z</time></trkpt><trkpt lat="44.431815" lon="10.4099717"><ele>729.0</ele><time>2026-04-19T12:26:35.924Z</time></trkpt><trkpt lat="44.431745" lon="10.409935"><ele>731.0</ele><time>2026-04-19T12:26:36.905Z</time></trkpt><trkpt lat="44.4316817" lon="10.409875"><ele>731.0</ele><time>2026-04-19T12:26:37.917Z</time></trkpt><trkpt lat="44.4316183" lon="10.40979"><ele>731.0</ele><time>2026-04-19T12:26:38.96Z</time></trkpt><trkpt lat="44.431565" lon="10.40966"><ele>731.0</ele><time>2026-04-19T12:26:39.942Z</time></trkpt><trkpt lat="44.4315" lon="10.4095333"><ele>731.0</ele><time>2026-04-19T12:26:40.936Z</time></trkpt><trkpt lat="44.431415" lon="10.409425"><ele>731.0</ele><time>2026-04-19T12:26:41.912Z</time></trkpt><trkpt lat="44.431315" lon="10.40935"><ele>731.8</ele><time>2026-04-19T12:26:42.937Z</time></trkpt><trkpt lat="44.43122" lon="10.40929"><ele>732.5999999999999</ele><time>2026-04-19T12:26:43.923Z</time></trkpt><trkpt lat="44.4311283" lon="10.409225"><ele>733.4</ele><time>2026-04-19T12:26:44.922Z</time></trkpt><trkpt lat="44.43104" lon="10.4091383"><ele>734.2</ele><time>2026-04-19T12:26:45.935Z</time></trkpt><trkpt lat="44.430945" lon="10.40905"><ele>735.0</ele><time>2026-04-19T12:26:46.916Z</time></trkpt><trkpt lat="44.4308517" lon="10.4089617"><ele>735.0</ele><time>2026-04-19T12:26:47.966Z</time></trkpt><trkpt lat="44.430765" lon="10.4088783"><ele>735.0</ele><time>2026-04-19T12:26:48.916Z</time></trkpt><trkpt lat="44.4306783" lon="10.4088"><ele>735.0</ele><time>2026-04-19T12:26:49.947Z</time></trkpt><trkpt lat="44.430595" lon="10.40872"><ele>735.0</ele><time>2026-04-19T12:26:50.911Z</time></trkpt><trkpt lat="44.43052" lon="10.4086417"><ele>735.0</ele><time>2026-04-19T12:26:51.911Z</time></trkpt><trkpt lat="44.4304517" lon="10.4085633"><ele>734.5</ele><time>2026-04-19T12:26:52.922Z</time></trkpt><trkpt lat="44.4304033" lon="10.4084733"><ele>734.0</ele><time>2026-04-19T12:26:53.915Z</time></trkpt><trkpt lat="44.4303817" lon="10.4083717"><ele>733.5</ele><time>2026-04-19T12:26:54.929Z</time></trkpt><trkpt lat="44.4304183" lon="10.4082717"><ele>733.0</ele><time>2026-04-19T12:26:55.908Z</time></trkpt><trkpt lat="44.430475" lon="10.4081683"><ele>732.5</ele><time>2026-04-19T12:26:56.955Z</time></trkpt><trkpt lat="44.4305233" lon="10.408065"><ele>732.0</ele><time>2026-04-19T12:26:57.939Z</time></trkpt><trkpt lat="44.4305667" lon="10.407965"><ele>732.0</ele><time>2026-04-19T12:26:58.921Z</time></trkpt><trkpt lat="44.430605" lon="10.4078767"><ele>732.0</ele><time>2026-04-19T12:26:59.938Z</time></trkpt><trkpt lat="44.43067" lon="10.4077567"><ele>732.0</ele><time>2026-04-19T12:27:01.917Z</time></trkpt><trkpt lat="44.43072" lon="10.40767"><ele>732.0</ele><time>2026-04-19T12:27:04.914Z</time></trkpt><trkpt lat="44.4306633" lon="10.4075683"><ele>732.0</ele><time>2026-04-19T12:27:07.923Z</time></trkpt><trkpt lat="44.4305333" lon="10.4075367"><ele>732.4000000000001</ele><time>2026-04-19T12:27:09.926Z</time></trkpt><trkpt lat="44.4304417" lon="10.4075117"><ele>732.8000000000001</ele><time>2026-04-19T12:27:10.916Z</time></trkpt><trkpt lat="44.4303417" lon="10.4074833"><ele>733.2</ele><time>2026-04-19T12:27:11.913Z</time></trkpt><trkpt lat="44.4302417" lon="10.40745"><ele>733.6</ele><time>2026-04-19T12:27:12.915Z</time></trkpt><trkpt lat="44.4301483" lon="10.4074267"><ele>734.0</ele><time>2026-04-19T12:27:13.913Z</time></trkpt><trkpt lat="44.430055" lon="10.40744"><ele>734.0</ele><time>2026-04-19T12:27:14.918Z</time></trkpt><trkpt lat="44.42997" lon="10.4075033"><ele>734.0</ele><time>2026-04-19T12:27:15.924Z</time></trkpt><trkpt lat="44.4298933" lon="10.407635"><ele>734.0</ele><time>2026-04-19T12:27:16.923Z</time></trkpt><trkpt lat="44.42982" lon="10.407805"><ele>734.0</ele><time>2026-04-19T12:27:17.94Z</time></trkpt><trkpt lat="44.4297483" lon="10.4079717"><ele>734.5</ele><time>2026-04-19T12:27:18.926Z</time></trkpt><trkpt lat="44.4296717" lon="10.4081417"><ele>735.0</ele><time>2026-04-19T12:27:19.931Z</time></trkpt><trkpt lat="44.4295933" lon="10.40831"><ele>735.5</ele><time>2026-04-19T12:27:20.919Z</time></trkpt><trkpt lat="44.429515" lon="10.4084767"><ele>736.0</ele><time>2026-04-19T12:27:21.912Z</time></trkpt><trkpt lat="44.4294417" lon="10.40864"><ele>736.0</ele><time>2026-04-19T12:27:22.928Z</time></trkpt><trkpt lat="44.4293733" lon="10.4088033"><ele>736.0</ele><time>2026-04-19T12:27:23.91Z</time></trkpt><trkpt lat="44.429305" lon="10.40896"><ele>736.0</ele><time>2026-04-19T12:27:24.934Z</time></trkpt><trkpt lat="44.4292367" lon="10.4091083"><ele>736.0</ele><time>2026-04-19T12:27:25.913Z</time></trkpt><trkpt lat="44.429165" lon="10.4092467"><ele>738.25</ele><time>2026-04-19T12:27:26.923Z</time></trkpt><trkpt lat="44.4290833" lon="10.4093617"><ele>740.5</ele><time>2026-04-19T12:27:27.952Z</time></trkpt><trkpt lat="44.4289883" lon="10.4094433"><ele>742.75</ele><time>2026-04-19T12:27:28.937Z</time></trkpt><trkpt lat="44.42888" lon="10.4094817"><ele>745.0</ele><time>2026-04-19T12:27:29.936Z</time></trkpt><trkpt lat="44.4287683" lon="10.409465"><ele>747.0</ele><time>2026-04-19T12:27:30.912Z</time></trkpt><trkpt lat="44.4286533" lon="10.4094117"><ele>749.0</ele><time>2026-04-19T12:27:31.911Z</time></trkpt><trkpt lat="44.428535" lon="10.409325"><ele>751.0</ele><time>2026-04-19T12:27:32.91Z</time></trkpt><trkpt lat="44.4284133" lon="10.4092183"><ele>753.0</ele><time>2026-04-19T12:27:33.907Z</time></trkpt><trkpt lat="44.4282833" lon="10.40911"><ele>753.0</ele><time>2026-04-19T12:27:34.936Z</time></trkpt><trkpt lat="44.4281417" lon="10.4090333"><ele>753.0</ele><time>2026-04-19T12:27:35.912Z</time></trkpt><trkpt lat="44.428" lon="10.4090083"><ele>753.0</ele><time>2026-04-19T12:27:36.919Z</time></trkpt><trkpt lat="44.42788" lon="10.4090117"><ele>753.0</ele><time>2026-04-19T12:27:37.92Z</time></trkpt><trkpt lat="44.427775" lon="10.4090267"><ele>754.0</ele><time>2026-04-19T12:27:38.942Z</time></trkpt><trkpt lat="44.4276767" lon="10.40906"><ele>755.0</ele><time>2026-04-19T12:27:39.949Z</time></trkpt><trkpt lat="44.427585" lon="10.4091283"><ele>756.0</ele><time>2026-04-19T12:27:40.922Z</time></trkpt><trkpt lat="44.4275" lon="10.4092033"><ele>757.0</ele><time>2026-04-19T12:27:41.915Z</time></trkpt><trkpt lat="44.4274283" lon="10.4092583"><ele>758.0</ele><time>2026-04-19T12:27:42.917Z</time></trkpt><trkpt lat="44.42736" lon="10.4092983"><ele>758.0</ele><time>2026-04-19T12:27:43.925Z</time></trkpt><trkpt lat="44.4272917" lon="10.4093367"><ele>758.0</ele><time>2026-04-19T12:27:44.923Z</time></trkpt><trkpt lat="44.4272133" lon="10.40938"><ele>758.0</ele><time>2026-04-19T12:27:45.909Z</time></trkpt><trkpt lat="44.4271233" lon="10.40942"><ele>758.0</ele><time>2026-04-19T12:27:46.927Z</time></trkpt><trkpt lat="44.42702" lon="10.4094483"><ele>758.0</ele><time>2026-04-19T12:27:47.924Z</time></trkpt><trkpt lat="44.426905" lon="10.4094567"><ele>760.75</ele><time>2026-04-19T12:27:48.931Z</time></trkpt><trkpt lat="44.4267933" lon="10.4094533"><ele>763.5</ele><time>2026-04-19T12:27:49.934Z</time></trkpt><trkpt lat="44.426675" lon="10.4094467"><ele>766.25</ele><time>2026-04-19T12:27:50.915Z</time></trkpt><trkpt lat="44.4265533" lon="10.40944"><ele>769.0</ele><time>2026-04-19T12:27:51.91Z</time></trkpt><trkpt lat="44.4264317" lon="10.40943"><ele>769.0</ele><time>2026-04-19T12:27:52.922Z</time></trkpt><trkpt lat="44.426315" lon="10.4094017"><ele>769.0</ele><time>2026-04-19T12:27:53.954Z</time></trkpt><trkpt lat="44.4261983" lon="10.4093367"><ele>769.0</ele><time>2026-04-19T12:27:54.931Z</time></trkpt><trkpt lat="44.4260883" lon="10.4092283"><ele>769.0</ele><time>2026-04-19T12:27:55.91Z</time></trkpt><trkpt lat="44.4259733" lon="10.4091067"><ele>772.75</ele><time>2026-04-19T12:27:56.991Z</time></trkpt><trkpt lat="44.42584" lon="10.4090117"><ele>776.5</ele><time>2026-04-19T12:27:57.94Z</time></trkpt><trkpt lat="44.4257033" lon="10.4089267"><ele>780.25</ele><time>2026-04-19T12:27:58.926Z</time></trkpt><trkpt lat="44.4255733" lon="10.4088533"><ele>784.0</ele><time>2026-04-19T12:27:59.926Z</time></trkpt><trkpt lat="44.4254517" lon="10.408795"><ele>785.75</ele><time>2026-04-19T12:28:00.958Z</time></trkpt><trkpt lat="44.42533" lon="10.4087633"><ele>787.5</ele><time>2026-04-19T12:28:01.959Z</time></trkpt><trkpt lat="44.4251967" lon="10.4087567"><ele>789.25</ele><time>2026-04-19T12:28:02.916Z</time></trkpt><trkpt lat="44.4250683" lon="10.4087683"><ele>791.0</ele><time>2026-04-19T12:28:03.91Z</time></trkpt><trkpt lat="44.42495" lon="10.4087767"><ele>791.0</ele><time>2026-04-19T12:28:04.961Z</time></trkpt><trkpt lat="44.4248517" lon="10.4087567"><ele>791.0</ele><time>2026-04-19T12:28:05.909Z</time></trkpt><trkpt lat="44.4247683" lon="10.4086883"><ele>791.0</ele><time>2026-04-19T12:28:06.909Z</time></trkpt><trkpt lat="44.4247" lon="10.40858"><ele>791.0</ele><time>2026-04-19T12:28:07.91Z</time></trkpt><trkpt lat="44.424655" lon="10.4084467"><ele>791.0</ele><time>2026-04-19T12:28:08.915Z</time></trkpt><trkpt lat="44.4246033" lon="10.4083183"><ele>796.25</ele><time>2026-04-19T12:28:09.908Z</time></trkpt><trkpt lat="44.4245167" lon="10.4082217"><ele>801.5</ele><time>2026-04-19T12:28:10.943Z</time></trkpt><trkpt lat="44.4244067" lon="10.4081517"><ele>806.75</ele><time>2026-04-19T12:28:11.947Z</time></trkpt><trkpt lat="44.4242767" lon="10.4080783"><ele>812.0</ele><time>2026-04-19T12:28:12.947Z</time></trkpt><trkpt lat="44.42415" lon="10.4080083"><ele>812.6</ele><time>2026-04-19T12:28:13.908Z</time></trkpt><trkpt lat="44.424025" lon="10.40795"><ele>813.2</ele><time>2026-04-19T12:28:14.918Z</time></trkpt><trkpt lat="44.4239117" lon="10.40791"><ele>813.8</ele><time>2026-04-19T12:28:15.932Z</time></trkpt><trkpt lat="44.423815" lon="10.4078983"><ele>814.4</ele><time>2026-04-19T12:28:16.928Z</time></trkpt><trkpt lat="44.4237383" lon="10.4079267"><ele>815.0</ele><time>2026-04-19T12:28:17.91Z</time></trkpt><trkpt lat="44.4236733" lon="10.4079917"><ele>814.5000000000001</ele><time>2026-04-19T12:28:18.908Z</time></trkpt><trkpt lat="44.4236517" lon="10.408095"><ele>814.0</ele><time>2026-04-19T12:28:19.928Z</time></trkpt><trkpt lat="44.4236517" lon="10.4082017"><ele>813.5</ele><time>2026-04-19T12:28:20.911Z</time></trkpt><trkpt lat="44.4236833" lon="10.4083083"><ele>813.0</ele><time>2026-04-19T12:28:21.923Z</time></trkpt><trkpt lat="44.42376" lon="10.408415"><ele>812.5000000000001</ele><time>2026-04-19T12:28:22.915Z</time></trkpt><trkpt lat="44.4238283" lon="10.4085083"><ele>812.0</ele><time>2026-04-19T12:28:23.914Z</time></trkpt><trkpt lat="44.4238817" lon="10.4085933"><ele>812.0</ele><time>2026-04-19T12:28:24.912Z</time></trkpt><trkpt lat="44.423915" lon="10.4086833"><ele>812.0</ele><time>2026-04-19T12:28:25.908Z</time></trkpt><trkpt lat="44.423905" lon="10.4088467"><ele>812.0</ele><time>2026-04-19T12:28:27.911Z</time></trkpt><trkpt lat="44.423785" lon="10.4088483"><ele>812.0</ele><time>2026-04-19T12:28:29.912Z</time></trkpt><trkpt lat="44.423675" lon="10.4087517"><ele>812.0</ele><time>2026-04-19T12:28:30.909Z</time></trkpt><trkpt lat="44.4235533" lon="10.4086433"><ele>817.3333333333334</ele><time>2026-04-19T12:28:31.918Z</time></trkpt><trkpt lat="44.42342" lon="10.4085167"><ele>822.6666666666667</ele><time>2026-04-19T12:28:32.916Z</time></trkpt><trkpt lat="44.4232883" lon="10.4084017"><ele>828.0</ele><time>2026-04-19T12:28:33.923Z</time></trkpt><trkpt lat="44.4231533" lon="10.408295"><ele>828.0</ele><time>2026-04-19T12:28:34.92Z</time></trkpt><trkpt lat="44.423025" lon="10.4082017"><ele>828.0</ele><time>2026-04-19T12:28:35.946Z</time></trkpt><trkpt lat="44.42289" lon="10.4081"><ele>828.0</ele><time>2026-04-19T12:28:36.926Z</time></trkpt><trkpt lat="44.4227517" lon="10.4080017"><ele>833.0</ele><time>2026-04-19T12:28:37.911Z</time></trkpt><trkpt lat="44.4226117" lon="10.4078833"><ele>838.0</ele><time>2026-04-19T12:28:38.924Z</time></trkpt><trkpt lat="44.42249" lon="10.4077617"><ele>843.0</ele><time>2026-04-19T12:28:39.909Z</time></trkpt><trkpt lat="44.422395" lon="10.4076133"><ele>843.0</ele><time>2026-04-19T12:28:40.929Z</time></trkpt><trkpt lat="44.42232" lon="10.40743"><ele>843.0</ele><time>2026-04-19T12:28:41.91Z</time></trkpt><trkpt lat="44.4222567" lon="10.407235"><ele>843.0</ele><time>2026-04-19T12:28:42.907Z</time></trkpt><trkpt lat="44.4221867" lon="10.40705"><ele>846.5</ele><time>2026-04-19T12:28:43.924Z</time></trkpt><trkpt lat="44.4220917" lon="10.40689"><ele>850.0</ele><time>2026-04-19T12:28:44.918Z</time></trkpt><trkpt lat="44.4219833" lon="10.40675"><ele>853.5</ele><time>2026-04-19T12:28:45.914Z</time></trkpt><trkpt lat="44.4218733" lon="10.4066333"><ele>857.0</ele><time>2026-04-19T12:28:46.96Z</time></trkpt><trkpt lat="44.4217733" lon="10.4065383"><ele>857.0</ele><time>2026-04-19T12:28:47.935Z</time></trkpt><trkpt lat="44.4216817" lon="10.406465"><ele>857.0</ele><time>2026-04-19T12:28:48.92Z</time></trkpt><trkpt lat="44.421585" lon="10.406425"><ele>857.0</ele><time>2026-04-19T12:28:49.91Z</time></trkpt><trkpt lat="44.4214833" lon="10.4064267"><ele>857.0</ele><time>2026-04-19T12:28:50.929Z</time></trkpt><trkpt lat="44.4213717" lon="10.4064767"><ele>857.0</ele><time>2026-04-19T12:28:51.912Z</time></trkpt><trkpt lat="44.4212483" lon="10.40655"><ele>857.25</ele><time>2026-04-19T12:28:52.934Z</time></trkpt><trkpt lat="44.4211183" lon="10.4066333"><ele>857.5</ele><time>2026-04-19T12:28:53.975Z</time></trkpt><trkpt lat="44.4209817" lon="10.4067217"><ele>857.75</ele><time>2026-04-19T12:28:54.941Z</time></trkpt><trkpt lat="44.42085" lon="10.4068"><ele>858.0</ele><time>2026-04-19T12:28:55.911Z</time></trkpt><trkpt lat="44.4207267" lon="10.40685"><ele>858.0</ele><time>2026-04-19T12:28:56.948Z</time></trkpt><trkpt lat="44.420615" lon="10.40687"><ele>858.0</ele><time>2026-04-19T12:28:57.931Z</time></trkpt><trkpt lat="44.4205133" lon="10.406865"><ele>858.0</ele><time>2026-04-19T12:28:58.926Z</time></trkpt><trkpt lat="44.4204267" lon="10.406835"><ele>858.0</ele><time>2026-04-19T12:28:59.94Z</time></trkpt><trkpt lat="44.4203383" lon="10.4067967"><ele>858.0</ele><time>2026-04-19T12:29:00.928Z</time></trkpt><trkpt lat="44.420245" lon="10.4067683"><ele>858.8571428571429</ele><time>2026-04-19T12:29:01.956Z</time></trkpt><trkpt lat="44.4201617" lon="10.406745"><ele>859.7142857142858</ele><time>2026-04-19T12:29:02.955Z</time></trkpt><trkpt lat="44.4200783" lon="10.40673"><ele>860.5714285714286</ele><time>2026-04-19T12:29:03.928Z</time></trkpt><trkpt lat="44.420005" lon="10.4067267"><ele>861.4285714285714</ele><time>2026-04-19T12:29:04.935Z</time></trkpt><trkpt lat="44.419935" lon="10.4067183"><ele>862.2857142857142</ele><time>2026-04-19T12:29:05.909Z</time></trkpt><trkpt lat="44.41987" lon="10.4067083"><ele>863.1428571428571</ele><time>2026-04-19T12:29:06.909Z</time></trkpt><trkpt lat="44.419805" lon="10.4067067"><ele>864.0</ele><time>2026-04-19T12:29:07.908Z</time></trkpt><trkpt lat="44.4197417" lon="10.4067067"><ele>863.6</ele><time>2026-04-19T12:29:08.917Z</time></trkpt><trkpt lat="44.4196217" lon="10.406725"><ele>863.2</ele><time>2026-04-19T12:29:10.916Z</time></trkpt><trkpt lat="44.4195583" lon="10.4067417"><ele>862.8000000000001</ele><time>2026-04-19T12:29:11.918Z</time></trkpt><trkpt lat="44.4194933" lon="10.406765"><ele>862.4000000000001</ele><time>2026-04-19T12:29:12.915Z</time></trkpt><trkpt lat="44.4193817" lon="10.4067983"><ele>862.0</ele><time>2026-04-19T12:29:14.911Z</time></trkpt><trkpt lat="44.41928" lon="10.4067917"><ele>862.0</ele><time>2026-04-19T12:29:16.912Z</time></trkpt><trkpt lat="44.4191817" lon="10.4067583"><ele>862.0</ele><time>2026-04-19T12:29:18.912Z</time></trkpt><trkpt lat="44.41907" lon="10.406735"><ele>862.0</ele><time>2026-04-19T12:29:20.952Z</time></trkpt><trkpt lat="44.4190067" lon="10.40673"><ele>862.0</ele><time>2026-04-19T12:29:21.979Z</time></trkpt><trkpt lat="44.4189433" lon="10.4067267"><ele>862.0</ele><time>2026-04-19T12:29:22.928Z</time></trkpt><trkpt lat="44.418825" lon="10.406765"><ele>858.8</ele><time>2026-04-19T12:29:24.934Z</time></trkpt><trkpt lat="44.4187033" lon="10.40686"><ele>855.6</ele><time>2026-04-19T12:29:26.927Z</time></trkpt><trkpt lat="44.4186283" lon="10.4069183"><ele>852.4</ele><time>2026-04-19T12:29:27.912Z</time></trkpt><trkpt lat="44.4185367" lon="10.4069733"><ele>849.1999999999999</ele><time>2026-04-19T12:29:28.921Z</time></trkpt><trkpt lat="44.41843" lon="10.4070267"><ele>846.0</ele><time>2026-04-19T12:29:29.925Z</time></trkpt><trkpt lat="44.4183233" lon="10.4070733"><ele>846.0</ele><time>2026-04-19T12:29:30.921Z</time></trkpt><trkpt lat="44.41822" lon="10.40713"><ele>846.0</ele><time>2026-04-19T12:29:31.912Z</time></trkpt><trkpt lat="44.4181233" lon="10.40721"><ele>846.0</ele><time>2026-04-19T12:29:32.914Z</time></trkpt><trkpt lat="44.4180517" lon="10.4073117"><ele>846.0</ele><time>2026-04-19T12:29:33.916Z</time></trkpt><trkpt lat="44.418" lon="10.4074317"><ele>846.0</ele><time>2026-04-19T12:29:34.917Z</time></trkpt><trkpt lat="44.41797" lon="10.4075733"><ele>846.0</ele><time>2026-04-19T12:29:35.919Z</time></trkpt><trkpt lat="44.41795" lon="10.4077233"><ele>846.0</ele><time>2026-04-19T12:29:37.084Z</time></trkpt><trkpt lat="44.4179117" lon="10.4080067"><ele>846.0</ele><time>2026-04-19T12:29:38.96Z</time></trkpt><trkpt lat="44.4178983" lon="10.40814"><ele>846.0</ele><time>2026-04-19T12:29:39.924Z</time></trkpt><trkpt lat="44.4178933" lon="10.4082733"><ele>846.5999999999999</ele><time>2026-04-19T12:29:40.966Z</time></trkpt><trkpt lat="44.417895" lon="10.4084117"><ele>847.2</ele><time>2026-04-19T12:29:41.909Z</time></trkpt><trkpt lat="44.4178967" lon="10.4085533"><ele>847.8</ele><time>2026-04-19T12:29:42.943Z</time></trkpt><trkpt lat="44.4178933" lon="10.4087"><ele>848.4000000000001</ele><time>2026-04-19T12:29:43.909Z</time></trkpt><trkpt lat="44.4178933" lon="10.408845"><ele>849.0</ele><time>2026-04-19T12:29:44.953Z</time></trkpt><trkpt lat="44.417895" lon="10.4089917"><ele>849.0</ele><time>2026-04-19T12:29:45.924Z</time></trkpt><trkpt lat="44.4179033" lon="10.4091367"><ele>849.0</ele><time>2026-04-19T12:29:46.92Z</time></trkpt><trkpt lat="44.4179233" lon="10.4092717"><ele>849.0</ele><time>2026-04-19T12:29:47.913Z</time></trkpt><trkpt lat="44.4179433" lon="10.4093983"><ele>849.0</ele><time>2026-04-19T12:29:48.909Z</time></trkpt><trkpt lat="44.4179567" lon="10.4095283"><ele>849.0</ele><time>2026-04-19T12:29:49.916Z</time></trkpt><trkpt lat="44.417955" lon="10.40965"><ele>850.6666666666666</ele><time>2026-04-19T12:29:50.91Z</time></trkpt><trkpt lat="44.4179417" lon="10.409755"><ele>852.3333333333333</ele><time>2026-04-19T12:29:51.918Z</time></trkpt><trkpt lat="44.41791" lon="10.4098333"><ele>854.0</ele><time>2026-04-19T12:29:52.913Z</time></trkpt><trkpt lat="44.4178233" lon="10.409945"><ele>855.6666666666666</ele><time>2026-04-19T12:29:54.91Z</time></trkpt><trkpt lat="44.4177683" lon="10.4099883"><ele>857.3333333333333</ele><time>2026-04-19T12:29:55.978Z</time></trkpt><trkpt lat="44.4177" lon="10.4100233"><ele>859.0</ele><time>2026-04-19T12:29:56.95Z</time></trkpt><trkpt lat="44.4176183" lon="10.4100517"><ele>858.9999999999999</ele><time>2026-04-19T12:29:57.963Z</time></trkpt><trkpt lat="44.417535" lon="10.4100767"><ele>859.0</ele><time>2026-04-19T12:29:58.913Z</time></trkpt><trkpt lat="44.41745" lon="10.4101"><ele>859.0</ele><time>2026-04-19T12:29:59.923Z</time></trkpt><trkpt lat="44.417365" lon="10.4101217"><ele>859.0</ele><time>2026-04-19T12:30:00.913Z</time></trkpt><trkpt lat="44.4172867" lon="10.4101717"><ele>858.9999999999999</ele><time>2026-04-19T12:30:01.911Z</time></trkpt><trkpt lat="44.41722" lon="10.4102433"><ele>859.0</ele><time>2026-04-19T12:30:02.956Z</time></trkpt><trkpt lat="44.4171567" lon="10.410335"><ele>857.0</ele><time>2026-04-19T12:30:03.928Z</time></trkpt><trkpt lat="44.4171033" lon="10.4104533"><ele>855.0</ele><time>2026-04-19T12:30:04.913Z</time></trkpt><trkpt lat="44.4170567" lon="10.4105983"><ele>853.0</ele><time>2026-04-19T12:30:05.996Z</time></trkpt><trkpt lat="44.4170283" lon="10.4107583"><ele>851.0</ele><time>2026-04-19T12:30:06.915Z</time></trkpt><trkpt lat="44.4170167" lon="10.4109333"><ele>851.0</ele><time>2026-04-19T12:30:07.941Z</time></trkpt><trkpt lat="44.41701" lon="10.411115"><ele>851.0</ele><time>2026-04-19T12:30:08.931Z</time></trkpt><trkpt lat="44.41701" lon="10.4113033"><ele>851.0</ele><time>2026-04-19T12:30:09.91Z</time></trkpt><trkpt lat="44.4170117" lon="10.41149"><ele>851.0</ele><time>2026-04-19T12:30:10.947Z</time></trkpt><trkpt lat="44.4170083" lon="10.4116567"><ele>852.1999999999999</ele><time>2026-04-19T12:30:11.971Z</time></trkpt><trkpt lat="44.41701" lon="10.4118067"><ele>853.4</ele><time>2026-04-19T12:30:12.919Z</time></trkpt><trkpt lat="44.4170083" lon="10.4119433"><ele>854.6</ele><time>2026-04-19T12:30:13.917Z</time></trkpt><trkpt lat="44.4170117" lon="10.41206"><ele>855.8</ele><time>2026-04-19T12:30:14.954Z</time></trkpt><trkpt lat="44.417015" lon="10.41216"><ele>857.0</ele><time>2026-04-19T12:30:15.952Z</time></trkpt><trkpt lat="44.417035" lon="10.4123033"><ele>857.5000000000001</ele><time>2026-04-19T12:30:17.94Z</time></trkpt><trkpt lat="44.4170633" lon="10.41239"><ele>858.0</ele><time>2026-04-19T12:30:19.936Z</time></trkpt><trkpt lat="44.4171233" lon="10.4124867"><ele>858.5</ele><time>2026-04-19T12:30:22.932Z</time></trkpt><trkpt lat="44.4171867" lon="10.4125583"><ele>859.0</ele><time>2026-04-19T12:30:25.906Z</time></trkpt><trkpt lat="44.4172617" lon="10.4126017"><ele>859.5000000000001</ele><time>2026-04-19T12:30:29.912Z</time></trkpt><trkpt lat="44.417335" lon="10.41262"><ele>860.0</ele><time>2026-04-19T12:30:33.923Z</time></trkpt><trkpt lat="44.4174033" lon="10.4126233"><ele>872.0</ele><time>2026-04-19T12:30:38.989Z</time></trkpt><trkpt lat="44.417465" lon="10.4126033"><ele>872.0</ele><time>2026-04-19T12:30:40.914Z</time></trkpt><trkpt lat="44.4175317" lon="10.412575"><ele>872.0</ele><time>2026-04-19T12:30:43.925Z</time></trkpt><trkpt lat="44.417625" lon="10.4125633"><ele>872.0</ele><time>2026-04-19T12:30:59.923Z</time></trkpt></trkseg><trkseg><trkpt lat="44.417607" lon="10.4125682"><ele>872.0000000000001</ele><time>2026-04-19T13:59:41.935Z</time></trkpt><trkpt lat="44.4175368" lon="10.4125718"><ele>872.0</ele><time>2026-04-19T13:59:47.918Z</time></trkpt><trkpt lat="44.4174526" lon="10.4126098"><ele>872.0</ele><time>2026-04-19T14:01:10.91Z</time></trkpt><trkpt lat="44.417375" lon="10.4126117"><ele>872.0</ele><time>2026-04-19T14:01:17.997Z</time></trkpt><trkpt lat="44.4173117" lon="10.412605"><ele>872.0000000000001</ele><time>2026-04-19T14:01:19.944Z</time></trkpt><trkpt lat="44.4172183" lon="10.4125617"><ele>872.0</ele><time>2026-04-19T14:01:22.946Z</time></trkpt><trkpt lat="44.41715" lon="10.412495"><ele>870.0000000000001</ele><time>2026-04-19T14:01:24.897Z</time></trkpt><trkpt lat="44.4170883" lon="10.4124383"><ele>868.0</ele><time>2026-04-19T14:01:26.896Z</time></trkpt><trkpt lat="44.4170467" lon="10.41237"><ele>866.0</ele><time>2026-04-19T14:01:28.896Z</time></trkpt><trkpt lat="44.4170133" lon="10.4122733"><ele>864.0</ele><time>2026-04-19T14:01:31.902Z</time></trkpt><trkpt lat="44.417035" lon="10.4121567"><ele>862.0000000000001</ele><time>2026-04-19T14:01:34.906Z</time></trkpt><trkpt lat="44.417025" lon="10.412055"><ele>860.0</ele><time>2026-04-19T14:01:36.909Z</time></trkpt><trkpt lat="44.4170283" lon="10.4119117"><ele>859.5000000000001</ele><time>2026-04-19T14:01:54.906Z</time></trkpt><trkpt lat="44.4170333" lon="10.411795"><ele>859.0</ele><time>2026-04-19T14:01:56.912Z</time></trkpt><trkpt lat="44.417035" lon="10.4116467"><ele>858.5</ele><time>2026-04-19T14:01:58.91Z</time></trkpt><trkpt lat="44.417035" lon="10.4115467"><ele>858.0</ele><time>2026-04-19T14:01:59.906Z</time></trkpt><trkpt lat="44.417035" lon="10.4114267"><ele>857.5000000000001</ele><time>2026-04-19T14:02:00.907Z</time></trkpt><trkpt lat="44.4170383" lon="10.411295"><ele>857.0</ele><time>2026-04-19T14:02:01.911Z</time></trkpt><trkpt lat="44.4170367" lon="10.411155"><ele>855.8</ele><time>2026-04-19T14:02:02.911Z</time></trkpt><trkpt lat="44.4170367" lon="10.4110133"><ele>854.6</ele><time>2026-04-19T14:02:03.91Z</time></trkpt><trkpt lat="44.4170383" lon="10.4108633"><ele>853.4</ele><time>2026-04-19T14:02:04.908Z</time></trkpt><trkpt lat="44.4170517" lon="10.410715"><ele>852.1999999999999</ele><time>2026-04-19T14:02:05.914Z</time></trkpt><trkpt lat="44.41707" lon="10.4105817"><ele>851.0</ele><time>2026-04-19T14:02:06.907Z</time></trkpt><trkpt lat="44.4170967" lon="10.4104767"><ele>852.1428571428571</ele><time>2026-04-19T14:02:07.932Z</time></trkpt><trkpt lat="44.4171233" lon="10.4103867"><ele>853.2857142857143</ele><time>2026-04-19T14:02:08.908Z</time></trkpt><trkpt lat="44.417165" lon="10.4103117"><ele>854.4285714285713</ele><time>2026-04-19T14:02:09.95Z</time></trkpt><trkpt lat="44.41722" lon="10.4102383"><ele>855.5714285714286</ele><time>2026-04-19T14:02:10.911Z</time></trkpt><trkpt lat="44.4172817" lon="10.4101717"><ele>856.7142857142857</ele><time>2026-04-19T14:02:11.916Z</time></trkpt><trkpt lat="44.4173483" lon="10.4101233"><ele>857.8571428571428</ele><time>2026-04-19T14:02:12.907Z</time></trkpt><trkpt lat="44.4174217" lon="10.4100967"><ele>859.0</ele><time>2026-04-19T14:02:13.911Z</time></trkpt><trkpt lat="44.4175017" lon="10.41008"><ele>859.0</ele><time>2026-04-19T14:02:14.909Z</time></trkpt><trkpt lat="44.4175917" lon="10.4100683"><ele>859.0000000000001</ele><time>2026-04-19T14:02:15.911Z</time></trkpt><trkpt lat="44.4176783" lon="10.4100417"><ele>859.0000000000001</ele><time>2026-04-19T14:02:16.91Z</time></trkpt><trkpt lat="44.417765" lon="10.4100017"><ele>859.0</ele><time>2026-04-19T14:02:17.909Z</time></trkpt><trkpt lat="44.4178467" lon="10.4099433"><ele>859.0</ele><time>2026-04-19T14:02:18.909Z</time></trkpt><trkpt lat="44.4179117" lon="10.40986"><ele>859.0</ele><time>2026-04-19T14:02:19.916Z</time></trkpt><trkpt lat="44.4179567" lon="10.4097633"><ele>859.0000000000001</ele><time>2026-04-19T14:02:20.911Z</time></trkpt><trkpt lat="44.4179767" lon="10.4096333"><ele>859.0000000000001</ele><time>2026-04-19T14:02:21.917Z</time></trkpt><trkpt lat="44.4179633" lon="10.4094783"><ele>859.0</ele><time>2026-04-19T14:02:22.913Z</time></trkpt><trkpt lat="44.4179417" lon="10.4093083"><ele>859.0</ele><time>2026-04-19T14:02:23.913Z</time></trkpt><trkpt lat="44.4179267" lon="10.4091283"><ele>857.0</ele><time>2026-04-19T14:02:24.911Z</time></trkpt><trkpt lat="44.4179167" lon="10.4089417"><ele>855.0</ele><time>2026-04-19T14:02:25.92Z</time></trkpt><trkpt lat="44.4179117" lon="10.40876"><ele>853.0</ele><time>2026-04-19T14:02:26.911Z</time></trkpt><trkpt lat="44.41791" lon="10.40859"><ele>851.0</ele><time>2026-04-19T14:02:27.931Z</time></trkpt><trkpt lat="44.41791" lon="10.4084233"><ele>851.0</ele><time>2026-04-19T14:02:28.911Z</time></trkpt><trkpt lat="44.41792" lon="10.4082533"><ele>851.0</ele><time>2026-04-19T14:02:29.921Z</time></trkpt><trkpt lat="44.4179383" lon="10.408075"><ele>851.0</ele><time>2026-04-19T14:02:30.911Z</time></trkpt><trkpt lat="44.417965" lon="10.4079017"><ele>851.0</ele><time>2026-04-19T14:02:31.913Z</time></trkpt><trkpt lat="44.4179917" lon="10.40774"><ele>850.0</ele><time>2026-04-19T14:02:32.922Z</time></trkpt><trkpt lat="44.4180133" lon="10.4075917"><ele>849.0</ele><time>2026-04-19T14:02:33.919Z</time></trkpt><trkpt lat="44.41804" lon="10.4074633"><ele>848.0</ele><time>2026-04-19T14:02:34.92Z</time></trkpt><trkpt lat="44.4180833" lon="10.407345"><ele>847.0</ele><time>2026-04-19T14:02:35.948Z</time></trkpt><trkpt lat="44.418155" lon="10.40724"><ele>846.0</ele><time>2026-04-19T14:02:36.909Z</time></trkpt><trkpt lat="44.4182567" lon="10.4071517"><ele>846.0</ele><time>2026-04-19T14:02:37.909Z</time></trkpt><trkpt lat="44.4183717" lon="10.4070817"><ele>846.0</ele><time>2026-04-19T14:02:38.919Z</time></trkpt><trkpt lat="44.4184817" lon="10.4070267"><ele>846.0</ele><time>2026-04-19T14:02:39.907Z</time></trkpt><trkpt lat="44.4185783" lon="10.4069767"><ele>846.0</ele><time>2026-04-19T14:02:40.919Z</time></trkpt><trkpt lat="44.418665" lon="10.4069283"><ele>846.0</ele><time>2026-04-19T14:02:41.915Z</time></trkpt><trkpt lat="44.4187367" lon="10.4068817"><ele>846.0</ele><time>2026-04-19T14:02:42.91Z</time></trkpt><trkpt lat="44.4188017" lon="10.40684"><ele>846.0</ele><time>2026-04-19T14:02:43.964Z</time></trkpt><trkpt lat="44.4189" lon="10.4067867"><ele>846.0</ele><time>2026-04-19T14:02:45.922Z</time></trkpt><trkpt lat="44.4189683" lon="10.4067683"><ele>846.0</ele><time>2026-04-19T14:02:47.912Z</time></trkpt><trkpt lat="44.4190483" lon="10.40677"><ele>846.0</ele><time>2026-04-19T14:02:49.963Z</time></trkpt><trkpt lat="44.4191817" lon="10.406805"><ele>848.6666666666666</ele><time>2026-04-19T14:02:51.94Z</time></trkpt><trkpt lat="44.419265" lon="10.40682"><ele>851.3333333333333</ele><time>2026-04-19T14:02:52.931Z</time></trkpt><trkpt lat="44.4193483" lon="10.406825"><ele>854.0</ele><time>2026-04-19T14:02:53.928Z</time></trkpt><trkpt lat="44.419435" lon="10.40682"><ele>856.6666666666666</ele><time>2026-04-19T14:02:54.911Z</time></trkpt><trkpt lat="44.4195267" lon="10.4067867"><ele>859.3333333333333</ele><time>2026-04-19T14:02:55.931Z</time></trkpt><trkpt lat="44.4196217" lon="10.4067433"><ele>862.0</ele><time>2026-04-19T14:02:56.911Z</time></trkpt><trkpt lat="44.4197217" lon="10.4067217"><ele>862.4000000000001</ele><time>2026-04-19T14:02:57.912Z</time></trkpt><trkpt lat="44.4198267" lon="10.4067217"><ele>862.8000000000001</ele><time>2026-04-19T14:02:58.911Z</time></trkpt><trkpt lat="44.41993" lon="10.4067233"><ele>863.2</ele><time>2026-04-19T14:02:59.971Z</time></trkpt><trkpt lat="44.4200283" lon="10.4067267"><ele>863.6</ele><time>2026-04-19T14:03:00.935Z</time></trkpt><trkpt lat="44.4201183" lon="10.4067283"><ele>864.0</ele><time>2026-04-19T14:03:01.915Z</time></trkpt><trkpt lat="44.42021" lon="10.4067417"><ele>864.0</ele><time>2026-04-19T14:03:02.971Z</time></trkpt><trkpt lat="44.4203033" lon="10.406765"><ele>864.0000000000001</ele><time>2026-04-19T14:03:03.933Z</time></trkpt><trkpt lat="44.4204067" lon="10.40681"><ele>864.0000000000001</ele><time>2026-04-19T14:03:04.911Z</time></trkpt><trkpt lat="44.420515" lon="10.4068533"><ele>864.0</ele><time>2026-04-19T14:03:05.927Z</time></trkpt><trkpt lat="44.420625" lon="10.4068783"><ele>864.0</ele><time>2026-04-19T14:03:06.909Z</time></trkpt><trkpt lat="44.4207367" lon="10.4068683"><ele>862.5</ele><time>2026-04-19T14:03:07.928Z</time></trkpt><trkpt lat="44.4208467" lon="10.4068267"><ele>861.0</ele><time>2026-04-19T14:03:08.92Z</time></trkpt><trkpt lat="44.4209533" lon="10.4067683"><ele>859.5</ele><time>2026-04-19T14:03:09.917Z</time></trkpt><trkpt lat="44.421055" lon="10.4066983"><ele>858.0</ele><time>2026-04-19T14:03:10.912Z</time></trkpt><trkpt lat="44.4211567" lon="10.4066283"><ele>858.0</ele><time>2026-04-19T14:03:11.911Z</time></trkpt><trkpt lat="44.42126" lon="10.4065683"><ele>858.0</ele><time>2026-04-19T14:03:12.919Z</time></trkpt><trkpt lat="44.42136" lon="10.40651"><ele>858.0</ele><time>2026-04-19T14:03:13.934Z</time></trkpt><trkpt lat="44.4214583" lon="10.406465"><ele>858.0</ele><time>2026-04-19T14:03:14.918Z</time></trkpt><trkpt lat="44.4215533" lon="10.4064383"><ele>858.0</ele><time>2026-04-19T14:03:15.921Z</time></trkpt><trkpt lat="44.42165" lon="10.4064517"><ele>857.8</ele><time>2026-04-19T14:03:16.912Z</time></trkpt><trkpt lat="44.42174" lon="10.4065033"><ele>857.5999999999999</ele><time>2026-04-19T14:03:17.907Z</time></trkpt><trkpt lat="44.421825" lon="10.40658"><ele>857.4000000000001</ele><time>2026-04-19T14:03:18.908Z</time></trkpt><trkpt lat="44.4219117" lon="10.406665"><ele>857.2</ele><time>2026-04-19T14:03:19.938Z</time></trkpt><trkpt lat="44.422" lon="10.4067533"><ele>857.0</ele><time>2026-04-19T14:03:20.913Z</time></trkpt><trkpt lat="44.4220833" lon="10.4068467"><ele>853.5</ele><time>2026-04-19T14:03:21.952Z</time></trkpt><trkpt lat="44.4221567" lon="10.4069567"><ele>850.0</ele><time>2026-04-19T14:03:22.928Z</time></trkpt><trkpt lat="44.4222267" lon="10.4070783"><ele>846.5</ele><time>2026-04-19T14:03:23.898Z</time></trkpt><trkpt lat="44.422315" lon="10.407325"><ele>843.0</ele><time>2026-04-19T14:03:25.623Z</time></trkpt><trkpt lat="44.42232" lon="10.40754"><ele>843.0</ele><time>2026-04-19T14:03:26.898Z</time></trkpt><trkpt lat="44.4223633" lon="10.4076367"><ele>843.0</ele><time>2026-04-19T14:03:27.896Z</time></trkpt><trkpt lat="44.4224083" lon="10.4077383"><ele>843.0</ele><time>2026-04-19T14:03:28.896Z</time></trkpt><trkpt lat="44.4224567" lon="10.4078433"><ele>843.0</ele><time>2026-04-19T14:03:29.899Z</time></trkpt><trkpt lat="44.4225083" lon="10.4079633"><ele>843.0</ele><time>2026-04-19T14:03:30.9Z</time></trkpt><trkpt lat="44.4225633" lon="10.4080583"><ele>843.0</ele><time>2026-04-19T14:03:31.902Z</time></trkpt><trkpt lat="44.422625" lon="10.408145"><ele>847.6666666666667</ele><time>2026-04-19T14:03:32.899Z</time></trkpt><trkpt lat="44.4227633" lon="10.4082567"><ele>852.3333333333334</ele><time>2026-04-19T14:03:33.902Z</time></trkpt><trkpt lat="44.4230183" lon="10.4084167"><ele>857.0</ele><time>2026-04-19T14:03:35.4Z</time></trkpt><trkpt lat="44.4233" lon="10.4083383"><ele>849.75</ele><time>2026-04-19T14:03:36.398Z</time></trkpt><trkpt lat="44.4234367" lon="10.4084533"><ele>842.5</ele><time>2026-04-19T14:03:37.897Z</time></trkpt><trkpt lat="44.4235433" lon="10.4085717"><ele>835.25</ele><time>2026-04-19T14:03:38.898Z</time></trkpt><trkpt lat="44.42366" lon="10.4086767"><ele>828.0</ele><time>2026-04-19T14:03:39.899Z</time></trkpt><trkpt lat="44.4237517" lon="10.4087483"><ele>824.8</ele><time>2026-04-19T14:03:40.899Z</time></trkpt><trkpt lat="44.4238483" lon="10.408805"><ele>821.5999999999999</ele><time>2026-04-19T14:03:41.9Z</time></trkpt><trkpt lat="44.4239267" lon="10.4087983"><ele>818.4000000000001</ele><time>2026-04-19T14:03:42.897Z</time></trkpt><trkpt lat="44.4239817" lon="10.4087533"><ele>815.2</ele><time>2026-04-19T14:03:43.9Z</time></trkpt><trkpt lat="44.4240167" lon="10.408615"><ele>812.0</ele><time>2026-04-19T14:03:45.899Z</time></trkpt><trkpt lat="44.423945" lon="10.4084517"><ele>812.0000000000001</ele><time>2026-04-19T14:03:47.899Z</time></trkpt><trkpt lat="44.4238767" lon="10.40835"><ele>812.0</ele><time>2026-04-19T14:03:48.899Z</time></trkpt><trkpt lat="44.4238183" lon="10.408235"><ele>812.0</ele><time>2026-04-19T14:03:49.899Z</time></trkpt><trkpt lat="44.4237667" lon="10.4081117"><ele>812.0</ele><time>2026-04-19T14:03:50.899Z</time></trkpt><trkpt lat="44.4237483" lon="10.408005"><ele>812.0000000000001</ele><time>2026-04-19T14:03:51.897Z</time></trkpt><trkpt lat="44.4237583" lon="10.407915"><ele>812.0</ele><time>2026-04-19T14:03:52.898Z</time></trkpt><trkpt lat="44.4238667" lon="10.4078417"><ele>812.0</ele><time>2026-04-19T14:03:54.906Z</time></trkpt><trkpt lat="44.4240033" lon="10.407935"><ele>812.0</ele><time>2026-04-19T14:03:55.912Z</time></trkpt><trkpt lat="44.4241367" lon="10.4080283"><ele>812.0</ele><time>2026-04-19T14:03:56.918Z</time></trkpt><trkpt lat="44.4242633" lon="10.4081117"><ele>812.0</ele><time>2026-04-19T14:03:57.909Z</time></trkpt><trkpt lat="44.4243767" lon="10.4081767"><ele>812.0</ele><time>2026-04-19T14:03:58.912Z</time></trkpt><trkpt lat="44.4244733" lon="10.4082383"><ele>812.0</ele><time>2026-04-19T14:03:59.911Z</time></trkpt><trkpt lat="44.4245617" lon="10.4083167"><ele>812.0</ele><time>2026-04-19T14:04:00.918Z</time></trkpt><trkpt lat="44.4246267" lon="10.40842"><ele>812.0</ele><time>2026-04-19T14:04:01.908Z</time></trkpt><trkpt lat="44.4246817" lon="10.408545"><ele>812.0</ele><time>2026-04-19T14:04:02.921Z</time></trkpt><trkpt lat="44.4247367" lon="10.4086617"><ele>807.8</ele><time>2026-04-19T14:04:03.924Z</time></trkpt><trkpt lat="44.4248133" lon="10.4087533"><ele>803.6</ele><time>2026-04-19T14:04:04.943Z</time></trkpt><trkpt lat="44.4249133" lon="10.4087883"><ele>799.4</ele><time>2026-04-19T14:04:05.947Z</time></trkpt><trkpt lat="44.42502" lon="10.408785"><ele>795.1999999999999</ele><time>2026-04-19T14:04:06.933Z</time></trkpt><trkpt lat="44.42513" lon="10.4087733"><ele>791.0</ele><time>2026-04-19T14:04:07.92Z</time></trkpt><trkpt lat="44.4252367" lon="10.4087633"><ele>791.0</ele><time>2026-04-19T14:04:08.925Z</time></trkpt><trkpt lat="44.4253433" lon="10.4087733"><ele>791.0</ele><time>2026-04-19T14:04:09.91Z</time></trkpt><trkpt lat="44.4254467" lon="10.40881"><ele>791.0</ele><time>2026-04-19T14:04:10.93Z</time></trkpt><trkpt lat="44.42555" lon="10.40886"><ele>791.0</ele><time>2026-04-19T14:04:11.911Z</time></trkpt><trkpt lat="44.42565" lon="10.4089167"><ele>791.0</ele><time>2026-04-19T14:04:12.909Z</time></trkpt><trkpt lat="44.4257533" lon="10.4089717"><ele>789.5999999999999</ele><time>2026-04-19T14:04:13.936Z</time></trkpt><trkpt lat="44.425855" lon="10.40903"><ele>788.2</ele><time>2026-04-19T14:04:14.908Z</time></trkpt><trkpt lat="44.42595" lon="10.4091017"><ele>786.8</ele><time>2026-04-19T14:04:15.904Z</time></trkpt><trkpt lat="44.42604" lon="10.4091867"><ele>785.4000000000001</ele><time>2026-04-19T14:04:16.909Z</time></trkpt><trkpt lat="44.426125" lon="10.40928"><ele>784.0</ele><time>2026-04-19T14:04:17.91Z</time></trkpt><trkpt lat="44.4262167" lon="10.4093617"><ele>780.25</ele><time>2026-04-19T14:04:18.908Z</time></trkpt><trkpt lat="44.4263183" lon="10.4094217"><ele>776.5</ele><time>2026-04-19T14:04:19.912Z</time></trkpt><trkpt lat="44.4264283" lon="10.4094533"><ele>772.75</ele><time>2026-04-19T14:04:20.919Z</time></trkpt><trkpt lat="44.4265417" lon="10.40946"><ele>769.0</ele><time>2026-04-19T14:04:21.915Z</time></trkpt><trkpt lat="44.4266567" lon="10.40946"><ele>769.0</ele><time>2026-04-19T14:04:22.93Z</time></trkpt><trkpt lat="44.4267733" lon="10.4094633"><ele>769.0</ele><time>2026-04-19T14:04:23.909Z</time></trkpt><trkpt lat="44.4268917" lon="10.4094617"><ele>769.0</ele><time>2026-04-19T14:04:24.91Z</time></trkpt><trkpt lat="44.4270083" lon="10.4094533"><ele>769.0</ele><time>2026-04-19T14:04:25.915Z</time></trkpt><trkpt lat="44.4271267" lon="10.4094267"><ele>766.8000000000001</ele><time>2026-04-19T14:04:26.908Z</time></trkpt><trkpt lat="44.427235" lon="10.40938"><ele>764.6</ele><time>2026-04-19T14:04:27.931Z</time></trkpt><trkpt lat="44.42734" lon="10.4093233"><ele>762.4</ele><time>2026-04-19T14:04:28.912Z</time></trkpt><trkpt lat="44.4274417" lon="10.4092633"><ele>760.2</ele><time>2026-04-19T14:04:29.917Z</time></trkpt><trkpt lat="44.4275367" lon="10.4092067"><ele>758.0</ele><time>2026-04-19T14:04:30.912Z</time></trkpt><trkpt lat="44.4276333" lon="10.409145"><ele>758.0</ele><time>2026-04-19T14:04:31.912Z</time></trkpt><trkpt lat="44.4277317" lon="10.4090867"><ele>758.0</ele><time>2026-04-19T14:04:32.918Z</time></trkpt><trkpt lat="44.4278283" lon="10.4090467"><ele>758.0</ele><time>2026-04-19T14:04:33.912Z</time></trkpt><trkpt lat="44.427925" lon="10.4090267"><ele>758.0</ele><time>2026-04-19T14:04:34.911Z</time></trkpt><trkpt lat="44.42802" lon="10.4090267"><ele>758.0</ele><time>2026-04-19T14:04:35.911Z</time></trkpt><trkpt lat="44.42812" lon="10.4090417"><ele>756.75</ele><time>2026-04-19T14:04:36.921Z</time></trkpt><trkpt lat="44.42822" lon="10.4090833"><ele>755.5</ele><time>2026-04-19T14:04:37.912Z</time></trkpt><trkpt lat="44.4283183" lon="10.4091533"><ele>754.25</ele><time>2026-04-19T14:04:38.91Z</time></trkpt><trkpt lat="44.4284183" lon="10.4092367"><ele>753.0</ele><time>2026-04-19T14:04:39.913Z</time></trkpt><trkpt lat="44.42852" lon="10.409325"><ele>753.0</ele><time>2026-04-19T14:04:40.915Z</time></trkpt><trkpt lat="44.428625" lon="10.40941"><ele>753.0</ele><time>2026-04-19T14:04:41.924Z</time></trkpt><trkpt lat="44.42873" lon="10.40948"><ele>753.0</ele><time>2026-04-19T14:04:42.918Z</time></trkpt><trkpt lat="44.4288417" lon="10.4095233"><ele>753.0</ele><time>2026-04-19T14:04:43.93Z</time></trkpt><trkpt lat="44.4289517" lon="10.4095167"><ele>751.0</ele><time>2026-04-19T14:04:44.912Z</time></trkpt><trkpt lat="44.42905" lon="10.409465"><ele>749.0</ele><time>2026-04-19T14:04:45.934Z</time></trkpt><trkpt lat="44.4291417" lon="10.409365"><ele>747.0</ele><time>2026-04-19T14:04:46.912Z</time></trkpt><trkpt lat="44.4292217" lon="10.4092333"><ele>745.0</ele><time>2026-04-19T14:04:47.948Z</time></trkpt><trkpt lat="44.4292967" lon="10.4090767"><ele>745.0</ele><time>2026-04-19T14:04:48.92Z</time></trkpt><trkpt lat="44.42937" lon="10.4089117"><ele>745.0</ele><time>2026-04-19T14:04:49.913Z</time></trkpt><trkpt lat="44.4294467" lon="10.4087417"><ele>745.0</ele><time>2026-04-19T14:04:50.931Z</time></trkpt><trkpt lat="44.4295233" lon="10.4085717"><ele>745.0</ele><time>2026-04-19T14:04:51.927Z</time></trkpt><trkpt lat="44.4296" lon="10.4084033"><ele>743.5</ele><time>2026-04-19T14:04:52.932Z</time></trkpt><trkpt lat="44.429675" lon="10.4082367"><ele>742.0</ele><time>2026-04-19T14:04:53.948Z</time></trkpt><trkpt lat="44.4297433" lon="10.4080717"><ele>740.5</ele><time>2026-04-19T14:04:54.923Z</time></trkpt><trkpt lat="44.4298117" lon="10.4079133"><ele>739.0</ele><time>2026-04-19T14:04:55.918Z</time></trkpt><trkpt lat="44.4298767" lon="10.407765"><ele>738.0</ele><time>2026-04-19T14:04:56.943Z</time></trkpt><trkpt lat="44.4299383" lon="10.4076383"><ele>737.0</ele><time>2026-04-19T14:04:57.914Z</time></trkpt><trkpt lat="44.4300033" lon="10.4075367"><ele>736.0</ele><time>2026-04-19T14:04:58.923Z</time></trkpt><trkpt lat="44.43008" lon="10.4074717"><ele>735.0</ele><time>2026-04-19T14:04:59.921Z</time></trkpt><trkpt lat="44.4301667" lon="10.407455"><ele>734.0</ele><time>2026-04-19T14:05:00.908Z</time></trkpt><trkpt lat="44.4302583" lon="10.407475"><ele>734.0</ele><time>2026-04-19T14:05:01.951Z</time></trkpt><trkpt lat="44.430355" lon="10.4075067"><ele>734.0</ele><time>2026-04-19T14:05:02.911Z</time></trkpt><trkpt lat="44.4304533" lon="10.40753"><ele>734.0</ele><time>2026-04-19T14:05:03.957Z</time></trkpt><trkpt lat="44.43055" lon="10.40755"><ele>734.0</ele><time>2026-04-19T14:05:04.93Z</time></trkpt><trkpt lat="44.4306567" lon="10.4075733"><ele>734.0</ele><time>2026-04-19T14:05:05.916Z</time></trkpt><trkpt lat="44.4307617" lon="10.4075983"><ele>733.5</ele><time>2026-04-19T14:05:06.924Z</time></trkpt><trkpt lat="44.43087" lon="10.4076217"><ele>733.0</ele><time>2026-04-19T14:05:07.941Z</time></trkpt><trkpt lat="44.4309783" lon="10.40764"><ele>732.5</ele><time>2026-04-19T14:05:08.913Z</time></trkpt><trkpt lat="44.4310883" lon="10.4076517"><ele>732.0</ele><time>2026-04-19T14:05:10.099Z</time></trkpt><trkpt lat="44.4313083" lon="10.407655"><ele>730.6</ele><time>2026-04-19T14:05:11.998Z</time></trkpt><trkpt lat="44.4314167" lon="10.4076533"><ele>729.2</ele><time>2026-04-19T14:05:12.972Z</time></trkpt><trkpt lat="44.4315283" lon="10.407655"><ele>727.8</ele><time>2026-04-19T14:05:13.907Z</time></trkpt><trkpt lat="44.43164" lon="10.407655"><ele>726.4</ele><time>2026-04-19T14:05:14.911Z</time></trkpt><trkpt lat="44.4317517" lon="10.4076567"><ele>725.0</ele><time>2026-04-19T14:05:15.907Z</time></trkpt><trkpt lat="44.4318633" lon="10.4076567"><ele>725.0</ele><time>2026-04-19T14:05:16.909Z</time></trkpt><trkpt lat="44.4319783" lon="10.4076633"><ele>725.0</ele><time>2026-04-19T14:05:17.985Z</time></trkpt><trkpt lat="44.4320967" lon="10.4076783"><ele>725.0</ele><time>2026-04-19T14:05:18.914Z</time></trkpt><trkpt lat="44.4322117" lon="10.40771"><ele>725.0</ele><time>2026-04-19T14:05:19.911Z</time></trkpt><trkpt lat="44.4323283" lon="10.4077567"><ele>722.75</ele><time>2026-04-19T14:05:20.951Z</time></trkpt><trkpt lat="44.4324417" lon="10.4078117"><ele>720.5</ele><time>2026-04-19T14:05:21.911Z</time></trkpt><trkpt lat="44.4325517" lon="10.4078683"><ele>718.25</ele><time>2026-04-19T14:05:22.918Z</time></trkpt><trkpt lat="44.4326617" lon="10.4079217"><ele>716.0</ele><time>2026-04-19T14:05:23.912Z</time></trkpt><trkpt lat="44.4327583" lon="10.4079717"><ele>715.6666666666666</ele><time>2026-04-19T14:05:24.91Z</time></trkpt><trkpt lat="44.4328467" lon="10.4080167"><ele>715.3333333333333</ele><time>2026-04-19T14:05:25.942Z</time></trkpt><trkpt lat="44.43292" lon="10.4080583"><ele>715.0</ele><time>2026-04-19T14:05:26.913Z</time></trkpt><trkpt lat="44.43298" lon="10.4081033"><ele>714.6666666666666</ele><time>2026-04-19T14:05:27.935Z</time></trkpt><trkpt lat="44.43305" lon="10.408195"><ele>714.3333333333334</ele><time>2026-04-19T14:05:29.938Z</time></trkpt><trkpt lat="44.433065" lon="10.4082983"><ele>714.0</ele><time>2026-04-19T14:05:33.914Z</time></trkpt><trkpt lat="44.433015" lon="10.4084233"><ele>714.0</ele><time>2026-04-19T14:05:35.911Z</time></trkpt><trkpt lat="44.43297" lon="10.4085"><ele>714.0</ele><time>2026-04-19T14:05:36.932Z</time></trkpt><trkpt lat="44.4329183" lon="10.408595"><ele>714.0</ele><time>2026-04-19T14:05:37.958Z</time></trkpt><trkpt lat="44.4328683" lon="10.4087083"><ele>714.0</ele><time>2026-04-19T14:05:38.925Z</time></trkpt><trkpt lat="44.4328217" lon="10.40883"><ele>714.0</ele><time>2026-04-19T14:05:39.913Z</time></trkpt><trkpt lat="44.4327783" lon="10.4089583"><ele>715.0</ele><time>2026-04-19T14:05:40.917Z</time></trkpt><trkpt lat="44.432735" lon="10.4090967"><ele>716.0</ele><time>2026-04-19T14:05:41.915Z</time></trkpt><trkpt lat="44.43269" lon="10.40924"><ele>717.0</ele><time>2026-04-19T14:05:42.911Z</time></trkpt><trkpt lat="44.4326483" lon="10.4093917"><ele>718.0</ele><time>2026-04-19T14:05:43.972Z</time></trkpt><trkpt lat="44.4326067" lon="10.4095467"><ele>718.4</ele><time>2026-04-19T14:05:44.911Z</time></trkpt><trkpt lat="44.4325683" lon="10.4097017"><ele>718.8</ele><time>2026-04-19T14:05:45.915Z</time></trkpt><trkpt lat="44.4325333" lon="10.4098583"><ele>719.2</ele><time>2026-04-19T14:05:46.908Z</time></trkpt><trkpt lat="44.4325017" lon="10.4100033"><ele>719.6</ele><time>2026-04-19T14:05:47.964Z</time></trkpt><trkpt lat="44.4324767" lon="10.4101367"><ele>720.0</ele><time>2026-04-19T14:05:48.941Z</time></trkpt><trkpt lat="44.432455" lon="10.410255"><ele>720.0</ele><time>2026-04-19T14:05:49.912Z</time></trkpt><trkpt lat="44.43243" lon="10.4103533"><ele>720.0</ele><time>2026-04-19T14:05:50.926Z</time></trkpt><trkpt lat="44.4323967" lon="10.41044"><ele>720.0</ele><time>2026-04-19T14:05:51.958Z</time></trkpt><trkpt lat="44.4323483" lon="10.4105183"><ele>720.0</ele><time>2026-04-19T14:05:52.924Z</time></trkpt><trkpt lat="44.4323" lon="10.4106017"><ele>720.0</ele><time>2026-04-19T14:05:53.911Z</time></trkpt><trkpt lat="44.43226" lon="10.41071"><ele>720.0</ele><time>2026-04-19T14:05:54.909Z</time></trkpt><trkpt lat="44.4322267" lon="10.4108383"><ele>719.8333333333334</ele><time>2026-04-19T14:05:55.912Z</time></trkpt><trkpt lat="44.432195" lon="10.4109733"><ele>719.6666666666666</ele><time>2026-04-19T14:05:56.924Z</time></trkpt><trkpt lat="44.4321633" lon="10.4111083"><ele>719.5</ele><time>2026-04-19T14:05:57.94Z</time></trkpt><trkpt lat="44.4321417" lon="10.4112333"><ele>719.3333333333333</ele><time>2026-04-19T14:05:58.926Z</time></trkpt><trkpt lat="44.432135" lon="10.41134"><ele>719.1666666666666</ele><time>2026-04-19T14:05:59.913Z</time></trkpt><trkpt lat="44.4321417" lon="10.41143"><ele>719.0</ele><time>2026-04-19T14:06:00.924Z</time></trkpt><trkpt lat="44.4321733" lon="10.4115817"><ele>718.3333333333333</ele><time>2026-04-19T14:06:02.972Z</time></trkpt><trkpt lat="44.43218" lon="10.41173"><ele>717.6666666666666</ele><time>2026-04-19T14:06:04.939Z</time></trkpt><trkpt lat="44.4321717" lon="10.4118617"><ele>717.0</ele><time>2026-04-19T14:06:06.911Z</time></trkpt><trkpt lat="44.4321067" lon="10.4119267"><ele>716.3333333333334</ele><time>2026-04-19T14:06:09.92Z</time></trkpt><trkpt lat="44.4320917" lon="10.4118217"><ele>715.6666666666667</ele><time>2026-04-19T14:06:14.92Z</time></trkpt><trkpt lat="44.432105" lon="10.41172"><ele>715.0</ele><time>2026-04-19T14:06:18.911Z</time></trkpt><trkpt lat="44.4321317" lon="10.41162"><ele>715.0</ele><time>2026-04-19T14:09:37.912Z</time></trkpt><trkpt lat="44.4321433" lon="10.4115317"><ele>715.0</ele><time>2026-04-19T14:09:40.912Z</time></trkpt><trkpt lat="44.4321467" lon="10.41144"><ele>715.0</ele><time>2026-04-19T14:09:42.908Z</time></trkpt><trkpt lat="44.43216" lon="10.41131"><ele>715.0</ele><time>2026-04-19T14:09:44.912Z</time></trkpt><trkpt lat="44.43219" lon="10.4111667"><ele>715.0</ele><time>2026-04-19T14:09:46.915Z</time></trkpt><trkpt lat="44.432225" lon="10.4110333"><ele>715.0</ele><time>2026-04-19T14:09:48.906Z</time></trkpt><trkpt lat="44.4322833" lon="10.4109417"><ele>715.6666666666667</ele><time>2026-04-19T14:09:50.937Z</time></trkpt><trkpt lat="44.4323783" lon="10.4108583"><ele>716.3333333333334</ele><time>2026-04-19T14:09:52.911Z</time></trkpt><trkpt lat="44.43243" lon="10.410805"><ele>717.0</ele><time>2026-04-19T14:09:53.908Z</time></trkpt><trkpt lat="44.432475" lon="10.410735"><ele>717.6666666666666</ele><time>2026-04-19T14:09:54.91Z</time></trkpt><trkpt lat="44.4325017" lon="10.4106467"><ele>718.3333333333333</ele><time>2026-04-19T14:09:55.973Z</time></trkpt><trkpt lat="44.432505" lon="10.4105467"><ele>719.0</ele><time>2026-04-19T14:09:56.907Z</time></trkpt><trkpt lat="44.432505" lon="10.4104417"><ele>719.2</ele><time>2026-04-19T14:09:57.953Z</time></trkpt><trkpt lat="44.4325133" lon="10.4103283"><ele>719.4000000000001</ele><time>2026-04-19T14:09:58.924Z</time></trkpt><trkpt lat="44.432525" lon="10.4102067"><ele>719.6</ele><time>2026-04-19T14:09:59.923Z</time></trkpt><trkpt lat="44.4325433" lon="10.41008"><ele>719.8</ele><time>2026-04-19T14:10:00.92Z</time></trkpt><trkpt lat="44.4325633" lon="10.4099467"><ele>720.0</ele><time>2026-04-19T14:10:01.928Z</time></trkpt><trkpt lat="44.4325917" lon="10.4098067"><ele>720.0</ele><time>2026-04-19T14:10:02.915Z</time></trkpt><trkpt lat="44.4326267" lon="10.409665"><ele>720.0</ele><time>2026-04-19T14:10:03.926Z</time></trkpt><trkpt lat="44.432665" lon="10.40952"><ele>720.0</ele><time>2026-04-19T14:10:04.926Z</time></trkpt><trkpt lat="44.4327083" lon="10.4093683"><ele>720.0</ele><time>2026-04-19T14:10:05.935Z</time></trkpt><trkpt lat="44.43275" lon="10.4092167"><ele>719.6</ele><time>2026-04-19T14:10:06.912Z</time></trkpt><trkpt lat="44.4327917" lon="10.40907"><ele>719.2</ele><time>2026-04-19T14:10:07.932Z</time></trkpt><trkpt lat="44.4328317" lon="10.408925"><ele>718.8</ele><time>2026-04-19T14:10:08.915Z</time></trkpt><trkpt lat="44.432875" lon="10.408785"><ele>718.4</ele><time>2026-04-19T14:10:09.938Z</time></trkpt><trkpt lat="44.4329283" lon="10.4086567"><ele>718.0</ele><time>2026-04-19T14:10:10.911Z</time></trkpt><trkpt lat="44.4329933" lon="10.4085383"><ele>715.4</ele><time>2026-04-19T14:10:11.909Z</time></trkpt><trkpt lat="44.4330733" lon="10.4084367"><ele>712.8</ele><time>2026-04-19T14:10:12.912Z</time></trkpt><trkpt lat="44.4331617" lon="10.40835"><ele>710.2</ele><time>2026-04-19T14:10:13.909Z</time></trkpt><trkpt lat="44.4332517" lon="10.4082767"><ele>707.6</ele><time>2026-04-19T14:10:14.911Z</time></trkpt><trkpt lat="44.4333433" lon="10.4082117"><ele>705.0</ele><time>2026-04-19T14:10:15.913Z</time></trkpt><trkpt lat="44.4334333" lon="10.40815"><ele>705.0</ele><time>2026-04-19T14:10:16.914Z</time></trkpt><trkpt lat="44.4335117" lon="10.4081017"><ele>705.0</ele><time>2026-04-19T14:10:17.911Z</time></trkpt><trkpt lat="44.433575" lon="10.4080767"><ele>705.0</ele><time>2026-04-19T14:10:18.91Z</time></trkpt><trkpt lat="44.43368" lon="10.4080517"><ele>705.0</ele><time>2026-04-19T14:10:20.919Z</time></trkpt><trkpt lat="44.4337933" lon="10.4080167"><ele>705.0</ele><time>2026-04-19T14:10:22.914Z</time></trkpt><trkpt lat="44.4338567" lon="10.407975"><ele>705.0</ele><time>2026-04-19T14:10:23.919Z</time></trkpt><trkpt lat="44.4339233" lon="10.4079233"><ele>704.3333333333334</ele><time>2026-04-19T14:10:24.911Z</time></trkpt><trkpt lat="44.4339983" lon="10.4078683"><ele>703.6666666666666</ele><time>2026-04-19T14:10:25.937Z</time></trkpt><trkpt lat="44.4340783" lon="10.40782"><ele>703.0</ele><time>2026-04-19T14:10:26.912Z</time></trkpt><trkpt lat="44.4341483" lon="10.4077717"><ele>702.3333333333333</ele><time>2026-04-19T14:10:27.959Z</time></trkpt><trkpt lat="44.434215" lon="10.407715"><ele>701.6666666666666</ele><time>2026-04-19T14:10:28.912Z</time></trkpt><trkpt lat="44.434275" lon="10.4076317"><ele>701.0</ele><time>2026-04-19T14:10:29.927Z</time></trkpt><trkpt lat="44.4343333" lon="10.4075233"><ele>701.0</ele><time>2026-04-19T14:10:30.908Z</time></trkpt><trkpt lat="44.434395" lon="10.4074033"><ele>701.0</ele><time>2026-04-19T14:10:31.94Z</time></trkpt><trkpt lat="44.434455" lon="10.4072783"><ele>701.0</ele><time>2026-04-19T14:10:32.936Z</time></trkpt><trkpt lat="44.4345233" lon="10.4071533"><ele>701.0</ele><time>2026-04-19T14:10:33.938Z</time></trkpt><trkpt lat="44.4345883" lon="10.4070233"><ele>701.0</ele><time>2026-04-19T14:10:34.914Z</time></trkpt><trkpt lat="44.4346517" lon="10.4068933"><ele>700.5999999999999</ele><time>2026-04-19T14:10:35.914Z</time></trkpt><trkpt lat="44.4347183" lon="10.406765"><ele>700.2</ele><time>2026-04-19T14:10:36.911Z</time></trkpt><trkpt lat="44.43478" lon="10.4066383"><ele>699.8</ele><time>2026-04-19T14:10:37.944Z</time></trkpt><trkpt lat="44.4348383" lon="10.4065167"><ele>699.4000000000001</ele><time>2026-04-19T14:10:38.926Z</time></trkpt><trkpt lat="44.4349" lon="10.4063917"><ele>699.0</ele><time>2026-04-19T14:10:39.914Z</time></trkpt><trkpt lat="44.4349633" lon="10.40627"><ele>699.0</ele><time>2026-04-19T14:10:40.94Z</time></trkpt><trkpt lat="44.4350333" lon="10.4061517"><ele>699.0</ele><time>2026-04-19T14:10:41.941Z</time></trkpt><trkpt lat="44.4351033" lon="10.4060367"><ele>699.0</ele><time>2026-04-19T14:10:42.927Z</time></trkpt><trkpt lat="44.4351783" lon="10.405925"><ele>699.0</ele><time>2026-04-19T14:10:43.932Z</time></trkpt><trkpt lat="44.435255" lon="10.4058217"><ele>699.0</ele><time>2026-04-19T14:10:44.913Z</time></trkpt><trkpt lat="44.4353283" lon="10.4057283"><ele>699.0</ele><time>2026-04-19T14:10:45.933Z</time></trkpt><trkpt lat="44.4354" lon="10.4056433"><ele>699.0</ele><time>2026-04-19T14:10:46.928Z</time></trkpt><trkpt lat="44.4354667" lon="10.4055567"><ele>699.0</ele><time>2026-04-19T14:10:47.959Z</time></trkpt><trkpt lat="44.4355333" lon="10.4054567"><ele>699.0</ele><time>2026-04-19T14:10:48.914Z</time></trkpt><trkpt lat="44.4355983" lon="10.4053433"><ele>699.0</ele><time>2026-04-19T14:10:49.924Z</time></trkpt><trkpt lat="44.4356683" lon="10.4052183"><ele>699.0</ele><time>2026-04-19T14:10:50.932Z</time></trkpt><trkpt lat="44.435745" lon="10.4050917"><ele>699.0</ele><time>2026-04-19T14:10:52.086Z</time></trkpt><trkpt lat="44.4359" lon="10.404815"><ele>699.0</ele><time>2026-04-19T14:10:53.919Z</time></trkpt><trkpt lat="44.4359783" lon="10.4046717"><ele>701.0</ele><time>2026-04-19T14:10:54.93Z</time></trkpt><trkpt lat="44.436055" lon="10.40453"><ele>703.0</ele><time>2026-04-19T14:10:55.909Z</time></trkpt><trkpt lat="44.4361283" lon="10.404395"><ele>705.0</ele><time>2026-04-19T14:10:56.924Z</time></trkpt><trkpt lat="44.4361933" lon="10.4042617"><ele>707.0</ele><time>2026-04-19T14:10:57.961Z</time></trkpt><trkpt lat="44.436255" lon="10.404125"><ele>707.0</ele><time>2026-04-19T14:10:58.913Z</time></trkpt><trkpt lat="44.4363017" lon="10.40398"><ele>707.0</ele><time>2026-04-19T14:10:59.927Z</time></trkpt><trkpt lat="44.4363283" lon="10.40383"><ele>707.0</ele><time>2026-04-19T14:11:00.923Z</time></trkpt><trkpt lat="44.436345" lon="10.403685"><ele>707.0</ele><time>2026-04-19T14:11:01.911Z</time></trkpt><trkpt lat="44.4363583" lon="10.4035433"><ele>707.0</ele><time>2026-04-19T14:11:02.916Z</time></trkpt><trkpt lat="44.43637" lon="10.4034083"><ele>705.7142857142857</ele><time>2026-04-19T14:11:03.909Z</time></trkpt><trkpt lat="44.43638" lon="10.4032917"><ele>704.4285714285714</ele><time>2026-04-19T14:11:04.911Z</time></trkpt><trkpt lat="44.43639" lon="10.403195"><ele>703.1428571428571</ele><time>2026-04-19T14:11:05.919Z</time></trkpt><trkpt lat="44.4364117" lon="10.40311"><ele>701.8571428571429</ele><time>2026-04-19T14:11:06.942Z</time></trkpt><trkpt lat="44.4364483" lon="10.4030283"><ele>700.5714285714286</ele><time>2026-04-19T14:11:07.913Z</time></trkpt><trkpt lat="44.43649" lon="10.4029417"><ele>699.2857142857142</ele><time>2026-04-19T14:11:08.924Z</time></trkpt><trkpt lat="44.4365367" lon="10.4028483"><ele>698.0</ele><time>2026-04-19T14:11:09.945Z</time></trkpt><trkpt lat="44.4365767" lon="10.4027483"><ele>697.8333333333333</ele><time>2026-04-19T14:11:10.909Z</time></trkpt><trkpt lat="44.4366133" lon="10.4026483"><ele>697.6666666666666</ele><time>2026-04-19T14:11:11.914Z</time></trkpt><trkpt lat="44.4366417" lon="10.4025383"><ele>697.5</ele><time>2026-04-19T14:11:12.925Z</time></trkpt><trkpt lat="44.4366733" lon="10.4024183"><ele>697.3333333333334</ele><time>2026-04-19T14:11:13.912Z</time></trkpt><trkpt lat="44.4367033" lon="10.4022983"><ele>697.1666666666667</ele><time>2026-04-19T14:11:14.935Z</time></trkpt><trkpt lat="44.43673" lon="10.40219"><ele>697.0</ele><time>2026-04-19T14:11:15.913Z</time></trkpt><trkpt lat="44.4367483" lon="10.402095"><ele>697.0</ele><time>2026-04-19T14:11:16.923Z</time></trkpt><trkpt lat="44.43681" lon="10.4019683"><ele>697.0</ele><time>2026-04-19T14:11:18.911Z</time></trkpt><trkpt lat="44.436905" lon="10.4019883"><ele>697.0</ele><time>2026-04-19T14:11:20.913Z</time></trkpt><trkpt lat="44.436955" lon="10.4020517"><ele>697.0</ele><time>2026-04-19T14:11:22.08Z</time></trkpt><trkpt lat="44.4370783" lon="10.40224"><ele>697.4000000000001</ele><time>2026-04-19T14:11:23.944Z</time></trkpt><trkpt lat="44.437145" lon="10.4023483"><ele>697.8000000000001</ele><time>2026-04-19T14:11:24.934Z</time></trkpt><trkpt lat="44.4372167" lon="10.402465"><ele>698.2</ele><time>2026-04-19T14:11:25.938Z</time></trkpt><trkpt lat="44.4372917" lon="10.4025833"><ele>698.6</ele><time>2026-04-19T14:11:26.911Z</time></trkpt><trkpt lat="44.4373717" lon="10.4027133"><ele>699.0</ele><time>2026-04-19T14:11:27.915Z</time></trkpt><trkpt lat="44.4374517" lon="10.4028417"><ele>699.0</ele><time>2026-04-19T14:11:28.912Z</time></trkpt><trkpt lat="44.4375467" lon="10.4029583"><ele>699.0</ele><time>2026-04-19T14:11:29.946Z</time></trkpt><trkpt lat="44.4376617" lon="10.4030683"><ele>699.0</ele><time>2026-04-19T14:11:30.911Z</time></trkpt><trkpt lat="44.4377883" lon="10.403175"><ele>699.0</ele><time>2026-04-19T14:11:31.947Z</time></trkpt><trkpt lat="44.4379267" lon="10.40327"><ele>699.0</ele><time>2026-04-19T14:11:32.919Z</time></trkpt><trkpt lat="44.438075" lon="10.4033533"><ele>699.0</ele><time>2026-04-19T14:11:33.911Z</time></trkpt><trkpt lat="44.438225" lon="10.403435"><ele>699.0</ele><time>2026-04-19T14:11:34.914Z</time></trkpt><trkpt lat="44.4383717" lon="10.4035183"><ele>699.0</ele><time>2026-04-19T14:11:35.911Z</time></trkpt><trkpt lat="44.438515" lon="10.4036"><ele>699.0</ele><time>2026-04-19T14:11:36.906Z</time></trkpt><trkpt lat="44.4386533" lon="10.4036833"><ele>699.0</ele><time>2026-04-19T14:11:37.898Z</time></trkpt><trkpt lat="44.43879" lon="10.4037667"><ele>694.25</ele><time>2026-04-19T14:11:38.899Z</time></trkpt><trkpt lat="44.438925" lon="10.4038533"><ele>689.5</ele><time>2026-04-19T14:11:39.899Z</time></trkpt><trkpt lat="44.4390533" lon="10.4039433"><ele>684.75</ele><time>2026-04-19T14:11:40.922Z</time></trkpt><trkpt lat="44.4391817" lon="10.4040317"><ele>680.0</ele><time>2026-04-19T14:11:41.911Z</time></trkpt><trkpt lat="44.43931" lon="10.4041133"><ele>680.0</ele><time>2026-04-19T14:11:42.906Z</time></trkpt><trkpt lat="44.4394383" lon="10.4041783"><ele>680.0</ele><time>2026-04-19T14:11:43.922Z</time></trkpt><trkpt lat="44.439575" lon="10.4042183"><ele>680.0</ele><time>2026-04-19T14:11:44.938Z</time></trkpt><trkpt lat="44.4397217" lon="10.404225"><ele>680.0</ele><time>2026-04-19T14:11:45.906Z</time></trkpt><trkpt lat="44.4398667" lon="10.404215"><ele>679.25</ele><time>2026-04-19T14:11:46.951Z</time></trkpt><trkpt lat="44.4400067" lon="10.4042033"><ele>678.5</ele><time>2026-04-19T14:11:47.907Z</time></trkpt><trkpt lat="44.4401467" lon="10.4041967"><ele>677.75</ele><time>2026-04-19T14:11:48.911Z</time></trkpt><trkpt lat="44.4402817" lon="10.4041983"><ele>677.0</ele><time>2026-04-19T14:11:49.911Z</time></trkpt><trkpt lat="44.4404117" lon="10.40422"><ele>677.75</ele><time>2026-04-19T14:11:50.923Z</time></trkpt><trkpt lat="44.4405367" lon="10.4042567"><ele>678.5</ele><time>2026-04-19T14:11:51.919Z</time></trkpt><trkpt lat="44.4406583" lon="10.40431"><ele>679.25</ele><time>2026-04-19T14:11:52.911Z</time></trkpt><trkpt lat="44.440775" lon="10.4043783"><ele>680.0</ele><time>2026-04-19T14:11:53.925Z</time></trkpt><trkpt lat="44.44089" lon="10.4044483"><ele>680.0</ele><time>2026-04-19T14:11:54.906Z</time></trkpt><trkpt lat="44.441005" lon="10.4045033"><ele>680.0</ele><time>2026-04-19T14:11:55.91Z</time></trkpt><trkpt lat="44.4411267" lon="10.40454"><ele>680.0</ele><time>2026-04-19T14:11:56.916Z</time></trkpt><trkpt lat="44.4412567" lon="10.40456"><ele>680.0</ele><time>2026-04-19T14:11:57.91Z</time></trkpt><trkpt lat="44.4413983" lon="10.404555"><ele>677.0</ele><time>2026-04-19T14:11:58.911Z</time></trkpt><trkpt lat="44.4415467" lon="10.404535"><ele>674.0</ele><time>2026-04-19T14:11:59.919Z</time></trkpt><trkpt lat="44.4417" lon="10.404505"><ele>671.0</ele><time>2026-04-19T14:12:00.906Z</time></trkpt><trkpt lat="44.4418533" lon="10.4044733"><ele>671.0</ele><time>2026-04-19T14:12:01.975Z</time></trkpt><trkpt lat="44.4420033" lon="10.4044417"><ele>671.0</ele><time>2026-04-19T14:12:02.93Z</time></trkpt><trkpt lat="44.4421483" lon="10.4044133"><ele>671.0</ele><time>2026-04-19T14:12:03.907Z</time></trkpt><trkpt lat="44.44229" lon="10.4043867"><ele>671.0</ele><time>2026-04-19T14:12:04.944Z</time></trkpt><trkpt lat="44.4424267" lon="10.4043683"><ele>670.25</ele><time>2026-04-19T14:12:05.907Z</time></trkpt><trkpt lat="44.44256" lon="10.40436"><ele>669.5</ele><time>2026-04-19T14:12:06.91Z</time></trkpt><trkpt lat="44.442695" lon="10.4043717"><ele>668.75</ele><time>2026-04-19T14:12:07.947Z</time></trkpt><trkpt lat="44.442835" lon="10.4044117"><ele>668.0</ele><time>2026-04-19T14:12:08.93Z</time></trkpt><trkpt lat="44.4429767" lon="10.4044817"><ele>673.6666666666666</ele><time>2026-04-19T14:12:09.908Z</time></trkpt><trkpt lat="44.44312" lon="10.4045783"><ele>679.3333333333334</ele><time>2026-04-19T14:12:10.91Z</time></trkpt><trkpt lat="44.4432633" lon="10.4046817"><ele>685.0</ele><time>2026-04-19T14:12:11.935Z</time></trkpt><trkpt lat="44.443405" lon="10.4047833"><ele>679.6666666666667</ele><time>2026-04-19T14:12:12.908Z</time></trkpt><trkpt lat="44.4435483" lon="10.4048833"><ele>674.3333333333334</ele><time>2026-04-19T14:12:13.909Z</time></trkpt><trkpt lat="44.4436867" lon="10.40498"><ele>669.0</ele><time>2026-04-19T14:12:14.938Z</time></trkpt><trkpt lat="44.4438217" lon="10.4050683"><ele>669.0</ele><time>2026-04-19T14:12:15.928Z</time></trkpt><trkpt lat="44.4439433" lon="10.4051767"><ele>669.0</ele><time>2026-04-19T14:12:16.956Z</time></trkpt><trkpt lat="44.4440483" lon="10.4053217"><ele>669.0</ele><time>2026-04-19T14:12:17.906Z</time></trkpt><trkpt lat="44.44414" lon="10.4054983"><ele>669.0</ele><time>2026-04-19T14:12:18.908Z</time></trkpt><trkpt lat="44.4442217" lon="10.4056883"><ele>659.0</ele><time>2026-04-19T14:12:19.912Z</time></trkpt><trkpt lat="44.4442983" lon="10.40588"><ele>649.0</ele><time>2026-04-19T14:12:20.962Z</time></trkpt><trkpt lat="44.4443717" lon="10.40607"><ele>639.0</ele><time>2026-04-19T14:12:21.906Z</time></trkpt><trkpt lat="44.444445" lon="10.40626"><ele>643.0</ele><time>2026-04-19T14:12:22.967Z</time></trkpt><trkpt lat="44.4445217" lon="10.4064517"><ele>647.0</ele><time>2026-04-19T14:12:23.939Z</time></trkpt><trkpt lat="44.4446017" lon="10.40664"><ele>651.0</ele><time>2026-04-19T14:12:24.917Z</time></trkpt><trkpt lat="44.4446867" lon="10.4068233"><ele>651.0</ele><time>2026-04-19T14:12:25.919Z</time></trkpt><trkpt lat="44.4447767" lon="10.407005"><ele>651.0</ele><time>2026-04-19T14:12:26.906Z</time></trkpt><trkpt lat="44.4448817" lon="10.407175"><ele>651.0</ele><time>2026-04-19T14:12:27.909Z</time></trkpt><trkpt lat="44.445005" lon="10.4073283"><ele>641.6666666666666</ele><time>2026-04-19T14:12:28.922Z</time></trkpt><trkpt lat="44.4451417" lon="10.4074767"><ele>632.3333333333333</ele><time>2026-04-19T14:12:29.909Z</time></trkpt><trkpt lat="44.4452817" lon="10.4076283"><ele>623.0</ele><time>2026-04-19T14:12:30.921Z</time></trkpt><trkpt lat="44.4454233" lon="10.407785"><ele>622.0</ele><time>2026-04-19T14:12:31.931Z</time></trkpt><trkpt lat="44.4455617" lon="10.4079433"><ele>621.0</ele><time>2026-04-19T14:12:32.948Z</time></trkpt><trkpt lat="44.4456967" lon="10.4081017"><ele>620.0</ele><time>2026-04-19T14:12:33.931Z</time></trkpt><trkpt lat="44.4458283" lon="10.40827"><ele>620.0</ele><time>2026-04-19T14:12:34.932Z</time></trkpt><trkpt lat="44.4459567" lon="10.4084467"><ele>620.0</ele><time>2026-04-19T14:12:35.929Z</time></trkpt><trkpt lat="44.4460717" lon="10.408635"><ele>620.0</ele><time>2026-04-19T14:12:36.911Z</time></trkpt><trkpt lat="44.4461833" lon="10.4088183"><ele>620.0</ele><time>2026-04-19T14:12:37.928Z</time></trkpt><trkpt lat="44.4463017" lon="10.4089833"><ele>620.0</ele><time>2026-04-19T14:12:38.931Z</time></trkpt><trkpt lat="44.4464333" lon="10.409115"><ele>620.0</ele><time>2026-04-19T14:12:39.928Z</time></trkpt><trkpt lat="44.4465783" lon="10.4092183"><ele>620.0</ele><time>2026-04-19T14:12:40.909Z</time></trkpt><trkpt lat="44.4467283" lon="10.4093067"><ele>620.0</ele><time>2026-04-19T14:12:41.915Z</time></trkpt><trkpt lat="44.4468733" lon="10.4094133"><ele>620.0</ele><time>2026-04-19T14:12:42.946Z</time></trkpt><trkpt lat="44.447005" lon="10.4095533"><ele>617.6666666666666</ele><time>2026-04-19T14:12:43.913Z</time></trkpt><trkpt lat="44.4471217" lon="10.4097217"><ele>615.3333333333334</ele><time>2026-04-19T14:12:44.91Z</time></trkpt><trkpt lat="44.44723" lon="10.4099017"><ele>613.0</ele><time>2026-04-19T14:12:45.906Z</time></trkpt><trkpt lat="44.447335" lon="10.4100917"><ele>613.0</ele><time>2026-04-19T14:12:46.923Z</time></trkpt><trkpt lat="44.4474367" lon="10.4102783"><ele>613.0</ele><time>2026-04-19T14:12:47.964Z</time></trkpt><trkpt lat="44.4475367" lon="10.4104567"><ele>613.0</ele><time>2026-04-19T14:12:48.935Z</time></trkpt><trkpt lat="44.4476367" lon="10.4106333"><ele>610.75</ele><time>2026-04-19T14:12:49.907Z</time></trkpt><trkpt lat="44.4477333" lon="10.4108067"><ele>608.5</ele><time>2026-04-19T14:12:50.925Z</time></trkpt><trkpt lat="44.447825" lon="10.4109633"><ele>606.25</ele><time>2026-04-19T14:12:51.944Z</time></trkpt><trkpt lat="44.447915" lon="10.4110933"><ele>604.0</ele><time>2026-04-19T14:12:52.913Z</time></trkpt><trkpt lat="44.4480183" lon="10.4111833"><ele>604.0</ele><time>2026-04-19T14:12:53.938Z</time></trkpt><trkpt lat="44.44815" lon="10.4112333"><ele>604.0</ele><time>2026-04-19T14:12:54.932Z</time></trkpt><trkpt lat="44.448305" lon="10.4112433"><ele>604.0</ele><time>2026-04-19T14:12:55.936Z</time></trkpt><trkpt lat="44.448475" lon="10.41124"><ele>604.0</ele><time>2026-04-19T14:12:56.948Z</time></trkpt><trkpt lat="44.4486583" lon="10.4112367"><ele>604.0</ele><time>2026-04-19T14:12:57.914Z</time></trkpt><trkpt lat="44.4488467" lon="10.411235"><ele>604.0</ele><time>2026-04-19T14:12:58.942Z</time></trkpt><trkpt lat="44.4490383" lon="10.41124"><ele>605.0</ele><time>2026-04-19T14:12:59.935Z</time></trkpt><trkpt lat="44.449225" lon="10.4112483"><ele>606.0</ele><time>2026-04-19T14:13:00.918Z</time></trkpt><trkpt lat="44.449405" lon="10.4112683"><ele>607.0</ele><time>2026-04-19T14:13:01.909Z</time></trkpt><trkpt lat="44.44958" lon="10.4113183"><ele>597.3333333333334</ele><time>2026-04-19T14:13:02.908Z</time></trkpt><trkpt lat="44.4497533" lon="10.4113917"><ele>587.6666666666666</ele><time>2026-04-19T14:13:03.909Z</time></trkpt><trkpt lat="44.449925" lon="10.4114733"><ele>578.0</ele><time>2026-04-19T14:13:04.91Z</time></trkpt><trkpt lat="44.4500933" lon="10.4115467"><ele>578.0</ele><time>2026-04-19T14:13:05.979Z</time></trkpt><trkpt lat="44.450265" lon="10.4115933"><ele>578.0</ele><time>2026-04-19T14:13:06.91Z</time></trkpt><trkpt lat="44.45043" lon="10.4115967"><ele>578.0</ele><time>2026-04-19T14:13:07.931Z</time></trkpt><trkpt lat="44.450585" lon="10.41157"><ele>578.0</ele><time>2026-04-19T14:13:08.909Z</time></trkpt><trkpt lat="44.450715" lon="10.41154"><ele>578.0</ele><time>2026-04-19T14:13:09.916Z</time></trkpt><trkpt lat="44.4508183" lon="10.41153"><ele>578.0</ele><time>2026-04-19T14:13:10.912Z</time></trkpt><trkpt lat="44.4508983" lon="10.4115517"><ele>578.0</ele><time>2026-04-19T14:13:11.923Z</time></trkpt><trkpt lat="44.450955" lon="10.411615"><ele>578.0</ele><time>2026-04-19T14:13:12.922Z</time></trkpt><trkpt lat="44.4509733" lon="10.41173"><ele>578.0</ele><time>2026-04-19T14:13:13.918Z</time></trkpt><trkpt lat="44.450945" lon="10.4118533"><ele>578.0</ele><time>2026-04-19T14:13:14.943Z</time></trkpt><trkpt lat="44.4508567" lon="10.4119567"><ele>578.0</ele><time>2026-04-19T14:13:15.928Z</time></trkpt><trkpt lat="44.4507233" lon="10.4120333"><ele>578.0</ele><time>2026-04-19T14:13:16.919Z</time></trkpt><trkpt lat="44.4505617" lon="10.4120817"><ele>578.0</ele><time>2026-04-19T14:13:17.908Z</time></trkpt><trkpt lat="44.4503917" lon="10.41213"><ele>578.0</ele><time>2026-04-19T14:13:18.912Z</time></trkpt><trkpt lat="44.4502133" lon="10.4121933"><ele>578.0</ele><time>2026-04-19T14:13:19.914Z</time></trkpt><trkpt lat="44.4500317" lon="10.412265"><ele>571.3333333333333</ele><time>2026-04-19T14:13:20.908Z</time></trkpt><trkpt lat="44.4498517" lon="10.4123317"><ele>564.6666666666666</ele><time>2026-04-19T14:13:21.921Z</time></trkpt><trkpt lat="44.4496767" lon="10.4123983"><ele>558.0</ele><time>2026-04-19T14:13:22.908Z</time></trkpt><trkpt lat="44.44951" lon="10.4124633"><ele>558.0</ele><time>2026-04-19T14:13:23.928Z</time></trkpt><trkpt lat="44.449345" lon="10.4125233"><ele>558.0</ele><time>2026-04-19T14:13:24.908Z</time></trkpt><trkpt lat="44.4491817" lon="10.4125733"><ele>558.0</ele><time>2026-04-19T14:13:25.941Z</time></trkpt><trkpt lat="44.4490233" lon="10.4126033"><ele>558.0</ele><time>2026-04-19T14:13:26.943Z</time></trkpt><trkpt lat="44.448865" lon="10.4126183"><ele>558.0</ele><time>2026-04-19T14:13:27.906Z</time></trkpt><trkpt lat="44.44871" lon="10.4126233"><ele>558.0</ele><time>2026-04-19T14:13:28.912Z</time></trkpt><trkpt lat="44.4485517" lon="10.4126267"><ele>556.3333333333334</ele><time>2026-04-19T14:13:29.907Z</time></trkpt><trkpt lat="44.4483933" lon="10.4126283"><ele>554.6666666666667</ele><time>2026-04-19T14:13:30.923Z</time></trkpt><trkpt lat="44.4482367" lon="10.4126333"><ele>553.0</ele><time>2026-04-19T14:13:31.908Z</time></trkpt><trkpt lat="44.4480783" lon="10.4126383"><ele>552.3333333333334</ele><time>2026-04-19T14:13:32.911Z</time></trkpt><trkpt lat="44.4479183" lon="10.4126483"><ele>551.6666666666666</ele><time>2026-04-19T14:13:33.927Z</time></trkpt><trkpt lat="44.4477567" lon="10.4126583"><ele>551.0</ele><time>2026-04-19T14:13:34.912Z</time></trkpt><trkpt lat="44.4475983" lon="10.4126717"><ele>551.0</ele><time>2026-04-19T14:13:35.965Z</time></trkpt><trkpt lat="44.4474417" lon="10.4126783"><ele>551.0</ele><time>2026-04-19T14:13:36.91Z</time></trkpt><trkpt lat="44.4472883" lon="10.412685"><ele>551.0</ele><time>2026-04-19T14:13:37.914Z</time></trkpt><trkpt lat="44.4471367" lon="10.4126917"><ele>549.75</ele><time>2026-04-19T14:13:38.924Z</time></trkpt><trkpt lat="44.4469933" lon="10.4126933"><ele>548.5</ele><time>2026-04-19T14:13:39.919Z</time></trkpt><trkpt lat="44.446855" lon="10.4126967"><ele>547.25</ele><time>2026-04-19T14:13:40.91Z</time></trkpt><trkpt lat="44.446735" lon="10.4126967"><ele>546.0</ele><time>2026-04-19T14:13:41.906Z</time></trkpt><trkpt lat="44.4466333" lon="10.412705"><ele>546.0</ele><time>2026-04-19T14:13:42.911Z</time></trkpt><trkpt lat="44.446555" lon="10.412745"><ele>546.0</ele><time>2026-04-19T14:13:43.946Z</time></trkpt><trkpt lat="44.446495" lon="10.41281"><ele>546.0</ele><time>2026-04-19T14:13:44.91Z</time></trkpt><trkpt lat="44.4464583" lon="10.4129033"><ele>546.0</ele><time>2026-04-19T14:13:45.916Z</time></trkpt><trkpt lat="44.446455" lon="10.4130117"><ele>546.0</ele><time>2026-04-19T14:13:46.897Z</time></trkpt><trkpt lat="44.4464967" lon="10.4131217"><ele>546.0</ele><time>2026-04-19T14:13:47.896Z</time></trkpt><trkpt lat="44.4466" lon="10.4132083"><ele>542.5</ele><time>2026-04-19T14:13:48.896Z</time></trkpt><trkpt lat="44.446725" lon="10.4132567"><ele>539.0</ele><time>2026-04-19T14:13:49.896Z</time></trkpt><trkpt lat="44.446865" lon="10.4132983"><ele>535.5</ele><time>2026-04-19T14:13:50.898Z</time></trkpt><trkpt lat="44.447005" lon="10.4133333"><ele>532.0</ele><time>2026-04-19T14:13:51.898Z</time></trkpt><trkpt lat="44.4471383" lon="10.4133767"><ele>532.0</ele><time>2026-04-19T14:13:52.898Z</time></trkpt><trkpt lat="44.4472567" lon="10.4134317"><ele>532.0</ele><time>2026-04-19T14:13:53.898Z</time></trkpt><trkpt lat="44.4473667" lon="10.4134817"><ele>532.0</ele><time>2026-04-19T14:13:54.896Z</time></trkpt><trkpt lat="44.4474833" lon="10.4135217"><ele>532.0</ele><time>2026-04-19T14:13:55.897Z</time></trkpt><trkpt lat="44.4476" lon="10.41356"><ele>532.0</ele><time>2026-04-19T14:13:56.896Z</time></trkpt><trkpt lat="44.4477183" lon="10.4136017"><ele>532.0</ele><time>2026-04-19T14:13:57.91Z</time></trkpt><trkpt lat="44.447835" lon="10.4136433"><ele>532.0</ele><time>2026-04-19T14:13:58.91Z</time></trkpt><trkpt lat="44.4479533" lon="10.41369"><ele>532.0</ele><time>2026-04-19T14:13:59.919Z</time></trkpt><trkpt lat="44.44807" lon="10.4137417"><ele>533.5</ele><time>2026-04-19T14:14:00.91Z</time></trkpt><trkpt lat="44.4481917" lon="10.4138033"><ele>535.0</ele><time>2026-04-19T14:14:01.909Z</time></trkpt><trkpt lat="44.4483117" lon="10.413875"><ele>536.5</ele><time>2026-04-19T14:14:02.918Z</time></trkpt><trkpt lat="44.4484233" lon="10.4139567"><ele>538.0</ele><time>2026-04-19T14:14:03.91Z</time></trkpt><trkpt lat="44.4485317" lon="10.4140367"><ele>535.5</ele><time>2026-04-19T14:14:04.911Z</time></trkpt><trkpt lat="44.4486383" lon="10.414115"><ele>533.0</ele><time>2026-04-19T14:14:05.908Z</time></trkpt><trkpt lat="44.4487467" lon="10.414185"><ele>530.5</ele><time>2026-04-19T14:14:06.908Z</time></trkpt><trkpt lat="44.44886" lon="10.4142417"><ele>528.0</ele><time>2026-04-19T14:14:07.917Z</time></trkpt><trkpt lat="44.4489733" lon="10.414285"><ele>528.0</ele><time>2026-04-19T14:14:08.908Z</time></trkpt><trkpt lat="44.4490933" lon="10.4143133"><ele>528.0</ele><time>2026-04-19T14:14:09.916Z</time></trkpt><trkpt lat="44.44922" lon="10.4143367"><ele>528.0</ele><time>2026-04-19T14:14:10.912Z</time></trkpt><trkpt lat="44.4493433" lon="10.41434"><ele>528.0</ele><time>2026-04-19T14:14:11.907Z</time></trkpt><trkpt lat="44.4494667" lon="10.4143133"><ele>528.0</ele><time>2026-04-19T14:14:12.92Z</time></trkpt><trkpt lat="44.4495983" lon="10.4142617"><ele>528.0</ele><time>2026-04-19T14:14:13.91Z</time></trkpt><trkpt lat="44.4497367" lon="10.4141983"><ele>528.0</ele><time>2026-04-19T14:14:14.91Z</time></trkpt><trkpt lat="44.4498833" lon="10.414135"><ele>528.0</ele><time>2026-04-19T14:14:15.919Z</time></trkpt><trkpt lat="44.450035" lon="10.414085"><ele>524.3333333333334</ele><time>2026-04-19T14:14:16.916Z</time></trkpt><trkpt lat="44.4501883" lon="10.41405"><ele>520.6666666666667</ele><time>2026-04-19T14:14:17.916Z</time></trkpt><trkpt lat="44.4503383" lon="10.4140233"><ele>517.0</ele><time>2026-04-19T14:14:18.919Z</time></trkpt><trkpt lat="44.4504833" lon="10.4140017"><ele>515.25</ele><time>2026-04-19T14:14:19.927Z</time></trkpt><trkpt lat="44.4506233" lon="10.4139733"><ele>513.5</ele><time>2026-04-19T14:14:20.918Z</time></trkpt><trkpt lat="44.4507633" lon="10.41394"><ele>511.75</ele><time>2026-04-19T14:14:21.907Z</time></trkpt><trkpt lat="44.4508983" lon="10.4138967"><ele>510.0</ele><time>2026-04-19T14:14:22.909Z</time></trkpt><trkpt lat="44.4510317" lon="10.4138467"><ele>512.75</ele><time>2026-04-19T14:14:23.907Z</time></trkpt><trkpt lat="44.4511667" lon="10.4138033"><ele>515.5</ele><time>2026-04-19T14:14:24.908Z</time></trkpt><trkpt lat="44.4513017" lon="10.4137717"><ele>518.25</ele><time>2026-04-19T14:14:25.909Z</time></trkpt><trkpt lat="44.4514367" lon="10.4137567"><ele>521.0</ele><time>2026-04-19T14:14:26.909Z</time></trkpt><trkpt lat="44.4515683" lon="10.41377"><ele>521.0</ele><time>2026-04-19T14:14:27.907Z</time></trkpt><trkpt lat="44.4516967" lon="10.4138117"><ele>521.0</ele><time>2026-04-19T14:14:28.911Z</time></trkpt><trkpt lat="44.4518183" lon="10.4138767"><ele>521.0</ele><time>2026-04-19T14:14:29.906Z</time></trkpt><trkpt lat="44.45194" lon="10.4139533"><ele>521.0</ele><time>2026-04-19T14:14:30.918Z</time></trkpt><trkpt lat="44.452065" lon="10.4140333"><ele>517.75</ele><time>2026-04-19T14:14:31.909Z</time></trkpt><trkpt lat="44.4521967" lon="10.4141083"><ele>514.5</ele><time>2026-04-19T14:14:32.91Z</time></trkpt><trkpt lat="44.4523333" lon="10.41417"><ele>511.25</ele><time>2026-04-19T14:14:33.911Z</time></trkpt><trkpt lat="44.4524733" lon="10.4142133"><ele>508.0</ele><time>2026-04-19T14:14:34.912Z</time></trkpt><trkpt lat="44.4526117" lon="10.41424"><ele>508.0</ele><time>2026-04-19T14:14:35.918Z</time></trkpt><trkpt lat="44.452745" lon="10.4142567"><ele>508.0</ele><time>2026-04-19T14:14:36.917Z</time></trkpt><trkpt lat="44.4528783" lon="10.4142733"><ele>508.0</ele><time>2026-04-19T14:14:37.914Z</time></trkpt><trkpt lat="44.4530117" lon="10.4142667"><ele>508.0</ele><time>2026-04-19T14:14:38.906Z</time></trkpt><trkpt lat="44.4531417" lon="10.41423"><ele>507.0</ele><time>2026-04-19T14:14:39.914Z</time></trkpt><trkpt lat="44.4532717" lon="10.4141667"><ele>506.0</ele><time>2026-04-19T14:14:40.917Z</time></trkpt><trkpt lat="44.4534083" lon="10.4140833"><ele>505.0</ele><time>2026-04-19T14:14:41.912Z</time></trkpt><trkpt lat="44.45355" lon="10.4139867"><ele>504.0</ele><time>2026-04-19T14:14:42.916Z</time></trkpt><trkpt lat="44.4537" lon="10.41388"><ele>502.33333333333337</ele><time>2026-04-19T14:14:43.913Z</time></trkpt><trkpt lat="44.4538533" lon="10.4137617"><ele>500.6666666666667</ele><time>2026-04-19T14:14:44.925Z</time></trkpt><trkpt lat="44.4540033" lon="10.4136317"><ele>499.0</ele><time>2026-04-19T14:14:45.907Z</time></trkpt><trkpt lat="44.4541517" lon="10.4134933"><ele>499.0</ele><time>2026-04-19T14:14:46.911Z</time></trkpt><trkpt lat="44.4542983" lon="10.4133417"><ele>499.0</ele><time>2026-04-19T14:14:47.921Z</time></trkpt><trkpt lat="44.4544483" lon="10.4131883"><ele>499.0</ele><time>2026-04-19T14:14:48.907Z</time></trkpt><trkpt lat="44.4546033" lon="10.4130417"><ele>497.6666666666667</ele><time>2026-04-19T14:14:49.919Z</time></trkpt><trkpt lat="44.4547683" lon="10.4129017"><ele>496.33333333333337</ele><time>2026-04-19T14:14:50.912Z</time></trkpt><trkpt lat="44.4549267" lon="10.4127617"><ele>495.0</ele><time>2026-04-19T14:14:51.908Z</time></trkpt><trkpt lat="44.4550833" lon="10.41262"><ele>495.0</ele><time>2026-04-19T14:14:52.909Z</time></trkpt><trkpt lat="44.4552367" lon="10.4124767"><ele>495.0</ele><time>2026-04-19T14:14:53.912Z</time></trkpt><trkpt lat="44.4553867" lon="10.412335"><ele>495.0</ele><time>2026-04-19T14:14:54.913Z</time></trkpt><trkpt lat="44.4555333" lon="10.4121917"><ele>493.33333333333337</ele><time>2026-04-19T14:14:55.909Z</time></trkpt><trkpt lat="44.4556783" lon="10.41205"><ele>491.6666666666667</ele><time>2026-04-19T14:14:56.922Z</time></trkpt><trkpt lat="44.4558233" lon="10.4119167"><ele>490.0</ele><time>2026-04-19T14:14:57.91Z</time></trkpt><trkpt lat="44.45597" lon="10.4117833"><ele>490.0</ele><time>2026-04-19T14:14:58.918Z</time></trkpt><trkpt lat="44.4561183" lon="10.4116533"><ele>490.0</ele><time>2026-04-19T14:14:59.912Z</time></trkpt><trkpt lat="44.4562733" lon="10.41153"><ele>490.0</ele><time>2026-04-19T14:15:01.08Z</time></trkpt><trkpt lat="44.456595" lon="10.4113217"><ele>489.0</ele><time>2026-04-19T14:15:02.915Z</time></trkpt><trkpt lat="44.4567533" lon="10.4112433"><ele>488.0</ele><time>2026-04-19T14:15:03.906Z</time></trkpt><trkpt lat="44.456905" lon="10.411175"><ele>487.0</ele><time>2026-04-19T14:15:04.911Z</time></trkpt><trkpt lat="44.4570517" lon="10.4111083"><ele>486.25</ele><time>2026-04-19T14:15:05.911Z</time></trkpt><trkpt lat="44.4571917" lon="10.4110467"><ele>485.5</ele><time>2026-04-19T14:15:06.908Z</time></trkpt><trkpt lat="44.4573317" lon="10.4109867"><ele>484.75</ele><time>2026-04-19T14:15:07.91Z</time></trkpt><trkpt lat="44.4574767" lon="10.410925"><ele>484.0</ele><time>2026-04-19T14:15:08.922Z</time></trkpt><trkpt lat="44.4576267" lon="10.4108633"><ele>484.0</ele><time>2026-04-19T14:15:09.914Z</time></trkpt><trkpt lat="44.4577817" lon="10.4108"><ele>484.0</ele><time>2026-04-19T14:15:10.919Z</time></trkpt><trkpt lat="44.457935" lon="10.410735"><ele>484.0</ele><time>2026-04-19T14:15:11.917Z</time></trkpt><trkpt lat="44.4580917" lon="10.41068"><ele>485.0</ele><time>2026-04-19T14:15:12.913Z</time></trkpt><trkpt lat="44.4582533" lon="10.41063"><ele>486.0</ele><time>2026-04-19T14:15:13.918Z</time></trkpt><trkpt lat="44.4584133" lon="10.4105783"><ele>487.0</ele><time>2026-04-19T14:15:14.911Z</time></trkpt><trkpt lat="44.458575" lon="10.4105217"><ele>487.6666666666667</ele><time>2026-04-19T14:15:15.927Z</time></trkpt><trkpt lat="44.458735" lon="10.4104617"><ele>488.33333333333337</ele><time>2026-04-19T14:15:16.908Z</time></trkpt><trkpt lat="44.4588967" lon="10.4104033"><ele>489.0</ele><time>2026-04-19T14:15:17.939Z</time></trkpt><trkpt lat="44.45906" lon="10.4103417"><ele>491.0</ele><time>2026-04-19T14:15:18.91Z</time></trkpt><trkpt lat="44.459225" lon="10.4102783"><ele>493.0</ele><time>2026-04-19T14:15:19.922Z</time></trkpt><trkpt lat="44.4593917" lon="10.4102167"><ele>495.0</ele><time>2026-04-19T14:15:20.906Z</time></trkpt><trkpt lat="44.4595617" lon="10.4101583"><ele>493.66666666666663</ele><time>2026-04-19T14:15:21.911Z</time></trkpt><trkpt lat="44.4597317" lon="10.41011"><ele>492.3333333333333</ele><time>2026-04-19T14:15:22.964Z</time></trkpt><trkpt lat="44.4598983" lon="10.4100683"><ele>491.0</ele><time>2026-04-19T14:15:23.953Z</time></trkpt><trkpt lat="44.46006" lon="10.4100383"><ele>491.0</ele><time>2026-04-19T14:15:24.927Z</time></trkpt><trkpt lat="44.4602167" lon="10.4100167"><ele>491.0</ele><time>2026-04-19T14:15:25.918Z</time></trkpt><trkpt lat="44.4603717" lon="10.4100033"><ele>491.0</ele><time>2026-04-19T14:15:26.916Z</time></trkpt><trkpt lat="44.4605267" lon="10.4100033"><ele>490.0</ele><time>2026-04-19T14:15:27.932Z</time></trkpt><trkpt lat="44.4606817" lon="10.4100083"><ele>489.0</ele><time>2026-04-19T14:15:28.915Z</time></trkpt><trkpt lat="44.46084" lon="10.4100183"><ele>488.0</ele><time>2026-04-19T14:15:29.912Z</time></trkpt><trkpt lat="44.4609983" lon="10.410025"><ele>488.0</ele><time>2026-04-19T14:15:30.91Z</time></trkpt><trkpt lat="44.4611567" lon="10.410035"><ele>488.0</ele><time>2026-04-19T14:15:31.938Z</time></trkpt><trkpt lat="44.4613167" lon="10.410055"><ele>488.0</ele><time>2026-04-19T14:15:32.915Z</time></trkpt><trkpt lat="44.46147" lon="10.410075"><ele>488.0</ele><time>2026-04-19T14:15:33.913Z</time></trkpt><trkpt lat="44.4616217" lon="10.4100967"><ele>488.0</ele><time>2026-04-19T14:15:34.957Z</time></trkpt><trkpt lat="44.461775" lon="10.4101317"><ele>488.0</ele><time>2026-04-19T14:15:35.907Z</time></trkpt><trkpt lat="44.4619267" lon="10.4101967"><ele>488.0</ele><time>2026-04-19T14:15:36.941Z</time></trkpt><trkpt lat="44.46208" lon="10.4102783"><ele>488.0</ele><time>2026-04-19T14:15:37.962Z</time></trkpt><trkpt lat="44.462235" lon="10.4103617"><ele>488.0</ele><time>2026-04-19T14:15:38.924Z</time></trkpt><trkpt lat="44.4623867" lon="10.4104467"><ele>483.3333333333333</ele><time>2026-04-19T14:15:39.921Z</time></trkpt><trkpt lat="44.46253" lon="10.41054"><ele>478.66666666666663</ele><time>2026-04-19T14:15:40.923Z</time></trkpt><trkpt lat="44.4626667" lon="10.4106533"><ele>474.0</ele><time>2026-04-19T14:15:41.94Z</time></trkpt><trkpt lat="44.4627983" lon="10.4107783"><ele>474.0</ele><time>2026-04-19T14:15:42.911Z</time></trkpt><trkpt lat="44.4629283" lon="10.4109167"><ele>474.0</ele><time>2026-04-19T14:15:43.931Z</time></trkpt><trkpt lat="44.46306" lon="10.4110533"><ele>474.0</ele><time>2026-04-19T14:15:44.93Z</time></trkpt><trkpt lat="44.4631933" lon="10.4111717"><ele>476.33333333333337</ele><time>2026-04-19T14:15:45.943Z</time></trkpt><trkpt lat="44.4633367" lon="10.4112717"><ele>478.6666666666667</ele><time>2026-04-19T14:15:46.93Z</time></trkpt><trkpt lat="44.46349" lon="10.41135"><ele>481.0</ele><time>2026-04-19T14:15:47.909Z</time></trkpt><trkpt lat="44.4636483" lon="10.4114033"><ele>481.0</ele><time>2026-04-19T14:15:48.913Z</time></trkpt><trkpt lat="44.4638083" lon="10.4114117"><ele>481.0</ele><time>2026-04-19T14:15:49.94Z</time></trkpt><trkpt lat="44.463965" lon="10.4114067"><ele>481.0</ele><time>2026-04-19T14:15:50.924Z</time></trkpt><trkpt lat="44.4641133" lon="10.4114167"><ele>481.0</ele><time>2026-04-19T14:15:51.924Z</time></trkpt><trkpt lat="44.4642517" lon="10.4114833"><ele>481.0</ele><time>2026-04-19T14:15:52.919Z</time></trkpt><trkpt lat="44.4643767" lon="10.411605"><ele>481.0</ele><time>2026-04-19T14:15:53.91Z</time></trkpt><trkpt lat="44.4644983" lon="10.41176"><ele>483.33333333333337</ele><time>2026-04-19T14:15:54.928Z</time></trkpt><trkpt lat="44.464625" lon="10.4119283"><ele>485.66666666666663</ele><time>2026-04-19T14:15:55.916Z</time></trkpt><trkpt lat="44.464755" lon="10.4120983"><ele>488.0</ele><time>2026-04-19T14:15:56.96Z</time></trkpt><trkpt lat="44.4648833" lon="10.41226"><ele>483.3333333333333</ele><time>2026-04-19T14:15:57.934Z</time></trkpt><trkpt lat="44.465005" lon="10.41241"><ele>478.66666666666663</ele><time>2026-04-19T14:15:58.929Z</time></trkpt><trkpt lat="44.46512" lon="10.4125517"><ele>474.0</ele><time>2026-04-19T14:15:59.911Z</time></trkpt><trkpt lat="44.4652383" lon="10.4126867"><ele>474.0</ele><time>2026-04-19T14:16:00.932Z</time></trkpt><trkpt lat="44.4653633" lon="10.4128117"><ele>474.0</ele><time>2026-04-19T14:16:01.912Z</time></trkpt><trkpt lat="44.4654983" lon="10.41292"><ele>474.0</ele><time>2026-04-19T14:16:02.918Z</time></trkpt><trkpt lat="44.4656367" lon="10.413"><ele>470.75</ele><time>2026-04-19T14:16:03.993Z</time></trkpt><trkpt lat="44.4657767" lon="10.4130717"><ele>467.5</ele><time>2026-04-19T14:16:04.924Z</time></trkpt><trkpt lat="44.4659083" lon="10.4131433"><ele>464.25</ele><time>2026-04-19T14:16:05.908Z</time></trkpt><trkpt lat="44.4660317" lon="10.4132233"><ele>461.0</ele><time>2026-04-19T14:16:06.912Z</time></trkpt><trkpt lat="44.4661417" lon="10.41332"><ele>461.0</ele><time>2026-04-19T14:16:07.97Z</time></trkpt><trkpt lat="44.4662383" lon="10.4134567"><ele>461.0</ele><time>2026-04-19T14:16:08.908Z</time></trkpt><trkpt lat="44.4663133" lon="10.4136367"><ele>461.0</ele><time>2026-04-19T14:16:09.918Z</time></trkpt><trkpt lat="44.4663667" lon="10.4138417"><ele>461.0</ele><time>2026-04-19T14:16:10.91Z</time></trkpt><trkpt lat="44.4664133" lon="10.41405"><ele>459.75</ele><time>2026-04-19T14:16:11.909Z</time></trkpt><trkpt lat="44.466455" lon="10.4142483"><ele>458.5</ele><time>2026-04-19T14:16:12.909Z</time></trkpt><trkpt lat="44.466505" lon="10.4144233"><ele>457.25</ele><time>2026-04-19T14:16:13.909Z</time></trkpt><trkpt lat="44.4665733" lon="10.4145583"><ele>456.0</ele><time>2026-04-19T14:16:14.91Z</time></trkpt><trkpt lat="44.4666633" lon="10.4146533"><ele>455.75</ele><time>2026-04-19T14:16:15.911Z</time></trkpt><trkpt lat="44.4667683" lon="10.414715"><ele>455.5</ele><time>2026-04-19T14:16:16.946Z</time></trkpt><trkpt lat="44.4668883" lon="10.4147333"><ele>455.25</ele><time>2026-04-19T14:16:17.911Z</time></trkpt><trkpt lat="44.4670167" lon="10.4147083"><ele>455.0</ele><time>2026-04-19T14:16:18.907Z</time></trkpt><trkpt lat="44.46715" lon="10.414655"><ele>456.25</ele><time>2026-04-19T14:16:19.909Z</time></trkpt><trkpt lat="44.467285" lon="10.4145967"><ele>457.5</ele><time>2026-04-19T14:16:20.919Z</time></trkpt><trkpt lat="44.4674183" lon="10.4145433"><ele>458.75</ele><time>2026-04-19T14:16:21.91Z</time></trkpt><trkpt lat="44.467555" lon="10.4145017"><ele>460.0</ele><time>2026-04-19T14:16:22.924Z</time></trkpt><trkpt lat="44.4676867" lon="10.41448"><ele>460.0</ele><time>2026-04-19T14:16:23.912Z</time></trkpt><trkpt lat="44.4678133" lon="10.41447"><ele>460.0</ele><time>2026-04-19T14:16:24.923Z</time></trkpt><trkpt lat="44.4679317" lon="10.41447"><ele>460.0</ele><time>2026-04-19T14:16:25.908Z</time></trkpt><trkpt lat="44.4680433" lon="10.4144733"><ele>460.0</ele><time>2026-04-19T14:16:26.909Z</time></trkpt><trkpt lat="44.4681567" lon="10.4144917"><ele>458.5</ele><time>2026-04-19T14:16:27.94Z</time></trkpt><trkpt lat="44.4682717" lon="10.414535"><ele>457.0</ele><time>2026-04-19T14:16:28.917Z</time></trkpt><trkpt lat="44.4683867" lon="10.4145933"><ele>455.5</ele><time>2026-04-19T14:16:29.938Z</time></trkpt><trkpt lat="44.4685" lon="10.414655"><ele>454.0</ele><time>2026-04-19T14:16:30.91Z</time></trkpt><trkpt lat="44.4686117" lon="10.414715"><ele>453.0</ele><time>2026-04-19T14:16:31.932Z</time></trkpt><trkpt lat="44.46872" lon="10.4147733"><ele>452.0</ele><time>2026-04-19T14:16:32.91Z</time></trkpt><trkpt lat="44.46883" lon="10.41483"><ele>451.0</ele><time>2026-04-19T14:16:33.927Z</time></trkpt><trkpt lat="44.4689433" lon="10.41488"><ele>450.0</ele><time>2026-04-19T14:16:34.925Z</time></trkpt><trkpt lat="44.46906" lon="10.414915"><ele>449.25</ele><time>2026-04-19T14:16:35.91Z</time></trkpt><trkpt lat="44.469185" lon="10.4149333"><ele>448.5</ele><time>2026-04-19T14:16:36.937Z</time></trkpt><trkpt lat="44.4693167" lon="10.4149417"><ele>447.75</ele><time>2026-04-19T14:16:37.936Z</time></trkpt><trkpt lat="44.4694567" lon="10.4149483"><ele>447.0</ele><time>2026-04-19T14:16:38.911Z</time></trkpt><trkpt lat="44.4696017" lon="10.414955"><ele>446.66666666666663</ele><time>2026-04-19T14:16:39.917Z</time></trkpt><trkpt lat="44.46975" lon="10.41497"><ele>446.3333333333333</ele><time>2026-04-19T14:16:40.924Z</time></trkpt><trkpt lat="44.469905" lon="10.414985"><ele>446.0</ele><time>2026-04-19T14:16:41.944Z</time></trkpt><trkpt lat="44.470055" lon="10.4149983"><ele>446.0</ele><time>2026-04-19T14:16:42.92Z</time></trkpt><trkpt lat="44.4702067" lon="10.4150133"><ele>446.0</ele><time>2026-04-19T14:16:43.945Z</time></trkpt><trkpt lat="44.4703583" lon="10.4150267"><ele>446.0</ele><time>2026-04-19T14:16:44.965Z</time></trkpt><trkpt lat="44.47051" lon="10.4150367"><ele>447.0</ele><time>2026-04-19T14:16:45.949Z</time></trkpt><trkpt lat="44.4706633" lon="10.41505"><ele>448.0</ele><time>2026-04-19T14:16:46.922Z</time></trkpt><trkpt lat="44.4708133" lon="10.4150633"><ele>449.0</ele><time>2026-04-19T14:16:47.923Z</time></trkpt><trkpt lat="44.47096" lon="10.41508"><ele>449.0</ele><time>2026-04-19T14:16:48.909Z</time></trkpt><trkpt lat="44.4711067" lon="10.4151017"><ele>449.0</ele><time>2026-04-19T14:16:49.952Z</time></trkpt><trkpt lat="44.4712517" lon="10.4151317"><ele>449.0</ele><time>2026-04-19T14:16:50.928Z</time></trkpt><trkpt lat="44.4713917" lon="10.4151817"><ele>449.0</ele><time>2026-04-19T14:16:52.078Z</time></trkpt><trkpt lat="44.4716433" lon="10.4153133"><ele>451.0</ele><time>2026-04-19T14:16:53.97Z</time></trkpt><trkpt lat="44.4717817" lon="10.4153483"><ele>453.0</ele><time>2026-04-19T14:16:54.927Z</time></trkpt><trkpt lat="44.4719333" lon="10.4153467"><ele>455.0</ele><time>2026-04-19T14:16:55.932Z</time></trkpt><trkpt lat="44.4720933" lon="10.4153283"><ele>454.66666666666663</ele><time>2026-04-19T14:16:56.988Z</time></trkpt><trkpt lat="44.4722567" lon="10.4153067"><ele>454.33333333333337</ele><time>2026-04-19T14:16:57.91Z</time></trkpt><trkpt lat="44.4724233" lon="10.4152917"><ele>454.0</ele><time>2026-04-19T14:16:58.932Z</time></trkpt><trkpt lat="44.472585" lon="10.4152767"><ele>454.0</ele><time>2026-04-19T14:16:59.912Z</time></trkpt><trkpt lat="44.4727417" lon="10.4152717"><ele>454.0</ele><time>2026-04-19T14:17:00.929Z</time></trkpt><trkpt lat="44.4728867" lon="10.4152667"><ele>454.0</ele><time>2026-04-19T14:17:01.917Z</time></trkpt><trkpt lat="44.4730283" lon="10.4152767"><ele>454.0</ele><time>2026-04-19T14:17:02.928Z</time></trkpt><trkpt lat="44.4731667" lon="10.4153067"><ele>454.5</ele><time>2026-04-19T14:17:03.914Z</time></trkpt><trkpt lat="44.4733083" lon="10.41536"><ele>455.0</ele><time>2026-04-19T14:17:04.914Z</time></trkpt><trkpt lat="44.473445" lon="10.4154367"><ele>455.5</ele><time>2026-04-19T14:17:05.975Z</time></trkpt><trkpt lat="44.47358" lon="10.4155383"><ele>456.0</ele><time>2026-04-19T14:17:06.905Z</time></trkpt><trkpt lat="44.4737167" lon="10.4156533"><ele>451.33333333333337</ele><time>2026-04-19T14:17:07.912Z</time></trkpt><trkpt lat="44.4738483" lon="10.4157617"><ele>446.6666666666667</ele><time>2026-04-19T14:17:08.922Z</time></trkpt><trkpt lat="44.4739817" lon="10.41587"><ele>442.0</ele><time>2026-04-19T14:17:09.914Z</time></trkpt><trkpt lat="44.4741083" lon="10.415975"><ele>442.0</ele><time>2026-04-19T14:17:10.93Z</time></trkpt><trkpt lat="44.474225" lon="10.41607"><ele>442.00000000000006</ele><time>2026-04-19T14:17:11.916Z</time></trkpt><trkpt lat="44.4743317" lon="10.4161367"><ele>442.00000000000006</ele><time>2026-04-19T14:17:12.952Z</time></trkpt><trkpt lat="44.47442" lon="10.4161683"><ele>442.0</ele><time>2026-04-19T14:17:13.912Z</time></trkpt><trkpt lat="44.4744917" lon="10.416185"><ele>442.0</ele><time>2026-04-19T14:17:14.938Z</time></trkpt><trkpt lat="44.4745917" lon="10.416255"><ele>440.40000000000003</ele><time>2026-04-19T14:17:16.913Z</time></trkpt><trkpt lat="44.474625" lon="10.41634"><ele>438.80000000000007</ele><time>2026-04-19T14:17:17.912Z</time></trkpt><trkpt lat="44.4746433" lon="10.416465"><ele>437.2</ele><time>2026-04-19T14:17:18.91Z</time></trkpt><trkpt lat="44.4746483" lon="10.416625"><ele>435.6</ele><time>2026-04-19T14:17:19.911Z</time></trkpt><trkpt lat="44.4746517" lon="10.4167983"><ele>434.0</ele><time>2026-04-19T14:17:20.929Z</time></trkpt><trkpt lat="44.4746567" lon="10.4169683"><ele>434.0</ele><time>2026-04-19T14:17:21.95Z</time></trkpt><trkpt lat="44.4746533" lon="10.4171233"><ele>434.0</ele><time>2026-04-19T14:17:22.911Z</time></trkpt><trkpt lat="44.4746317" lon="10.41726"><ele>434.0</ele><time>2026-04-19T14:17:23.924Z</time></trkpt><trkpt lat="44.474605" lon="10.417385"><ele>434.0</ele><time>2026-04-19T14:17:24.919Z</time></trkpt><trkpt lat="44.4746" lon="10.4174983"><ele>434.0</ele><time>2026-04-19T14:17:25.922Z</time></trkpt><trkpt lat="44.4746183" lon="10.4175983"><ele>435.66666666666663</ele><time>2026-04-19T14:17:26.918Z</time></trkpt><trkpt lat="44.47467" lon="10.4176817"><ele>437.3333333333333</ele><time>2026-04-19T14:17:27.924Z</time></trkpt><trkpt lat="44.4747167" lon="10.41777"><ele>439.0</ele><time>2026-04-19T14:17:28.909Z</time></trkpt><trkpt lat="44.474755" lon="10.4178733"><ele>440.66666666666663</ele><time>2026-04-19T14:17:29.911Z</time></trkpt><trkpt lat="44.4747717" lon="10.4179883"><ele>442.3333333333333</ele><time>2026-04-19T14:17:30.91Z</time></trkpt><trkpt lat="44.47473" lon="10.4180817"><ele>444.0</ele><time>2026-04-19T14:17:31.91Z</time></trkpt><trkpt lat="44.4746517" lon="10.4181417"><ele>444.25</ele><time>2026-04-19T14:17:32.911Z</time></trkpt><trkpt lat="44.474545" lon="10.4181767"><ele>444.5</ele><time>2026-04-19T14:17:33.922Z</time></trkpt><trkpt lat="44.4744283" lon="10.4182233"><ele>444.75</ele><time>2026-04-19T14:17:34.925Z</time></trkpt><trkpt lat="44.4742983" lon="10.4182767"><ele>445.0</ele><time>2026-04-19T14:17:35.924Z</time></trkpt><trkpt lat="44.4741567" lon="10.4183333"><ele>445.0</ele><time>2026-04-19T14:17:36.908Z</time></trkpt><trkpt lat="44.47401" lon="10.4183917"><ele>445.0</ele><time>2026-04-19T14:17:37.906Z</time></trkpt><trkpt lat="44.4738767" lon="10.4184517"><ele>445.0</ele><time>2026-04-19T14:17:38.936Z</time></trkpt><trkpt lat="44.473755" lon="10.4185183"><ele>445.0</ele><time>2026-04-19T14:17:39.908Z</time></trkpt><trkpt lat="44.4736517" lon="10.418595"><ele>446.4</ele><time>2026-04-19T14:17:40.909Z</time></trkpt><trkpt lat="44.47356" lon="10.4186817"><ele>447.8</ele><time>2026-04-19T14:17:41.937Z</time></trkpt><trkpt lat="44.4735033" lon="10.4187967"><ele>449.20000000000005</ele><time>2026-04-19T14:17:42.92Z</time></trkpt><trkpt lat="44.4734867" lon="10.4189333"><ele>450.6</ele><time>2026-04-19T14:17:43.906Z</time></trkpt><trkpt lat="44.47351" lon="10.4191"><ele>452.0</ele><time>2026-04-19T14:17:44.936Z</time></trkpt><trkpt lat="44.473555" lon="10.4192783"><ele>452.0</ele><time>2026-04-19T14:17:45.908Z</time></trkpt><trkpt lat="44.473605" lon="10.4194583"><ele>452.0</ele><time>2026-04-19T14:17:46.912Z</time></trkpt><trkpt lat="44.4736367" lon="10.4196317"><ele>452.0</ele><time>2026-04-19T14:17:47.948Z</time></trkpt><trkpt lat="44.4736467" lon="10.4197867"><ele>452.0</ele><time>2026-04-19T14:17:48.935Z</time></trkpt><trkpt lat="44.47362" lon="10.419945"><ele>451.25</ele><time>2026-04-19T14:17:49.911Z</time></trkpt><trkpt lat="44.473565" lon="10.4200967"><ele>450.5</ele><time>2026-04-19T14:17:50.927Z</time></trkpt><trkpt lat="44.4734867" lon="10.420225"><ele>449.75</ele><time>2026-04-19T14:17:51.912Z</time></trkpt><trkpt lat="44.4733917" lon="10.4203383"><ele>449.0</ele><time>2026-04-19T14:17:52.941Z</time></trkpt><trkpt lat="44.4732967" lon="10.420465"><ele>448.25</ele><time>2026-04-19T14:17:53.963Z</time></trkpt><trkpt lat="44.4732183" lon="10.4206133"><ele>447.5</ele><time>2026-04-19T14:17:54.943Z</time></trkpt><trkpt lat="44.4731617" lon="10.4207733"><ele>446.75</ele><time>2026-04-19T14:17:55.945Z</time></trkpt><trkpt lat="44.47313" lon="10.4209367"><ele>446.0</ele><time>2026-04-19T14:17:56.909Z</time></trkpt><trkpt lat="44.47311" lon="10.4210833"><ele>446.0</ele><time>2026-04-19T14:17:57.911Z</time></trkpt><trkpt lat="44.4731067" lon="10.421225"><ele>446.0</ele><time>2026-04-19T14:17:58.924Z</time></trkpt><trkpt lat="44.4731267" lon="10.4213633"><ele>446.0</ele><time>2026-04-19T14:17:59.916Z</time></trkpt><trkpt lat="44.47318" lon="10.421475"><ele>446.0</ele><time>2026-04-19T14:18:00.921Z</time></trkpt><trkpt lat="44.4732633" lon="10.4215567"><ele>446.0</ele><time>2026-04-19T14:18:01.913Z</time></trkpt><trkpt lat="44.4733567" lon="10.4216367"><ele>445.8</ele><time>2026-04-19T14:18:02.912Z</time></trkpt><trkpt lat="44.4734467" lon="10.4217333"><ele>445.6</ele><time>2026-04-19T14:18:03.932Z</time></trkpt><trkpt lat="44.4735217" lon="10.42185"><ele>445.4</ele><time>2026-04-19T14:18:04.921Z</time></trkpt><trkpt lat="44.4735717" lon="10.4219767"><ele>445.2</ele><time>2026-04-19T14:18:05.951Z</time></trkpt><trkpt lat="44.4735933" lon="10.4221183"><ele>445.0</ele><time>2026-04-19T14:18:06.906Z</time></trkpt><trkpt lat="44.4736033" lon="10.42228"><ele>446.0</ele><time>2026-04-19T14:18:07.907Z</time></trkpt><trkpt lat="44.4736083" lon="10.4224517"><ele>447.0</ele><time>2026-04-19T14:18:08.935Z</time></trkpt><trkpt lat="44.4736167" lon="10.422625"><ele>448.0</ele><time>2026-04-19T14:18:09.914Z</time></trkpt><trkpt lat="44.4736283" lon="10.42279"><ele>449.0</ele><time>2026-04-19T14:18:10.919Z</time></trkpt><trkpt lat="44.4736367" lon="10.42294"><ele>450.49999999999994</ele><time>2026-04-19T14:18:11.911Z</time></trkpt><trkpt lat="44.4736367" lon="10.42307"><ele>452.0</ele><time>2026-04-19T14:18:12.98Z</time></trkpt><trkpt lat="44.4736233" lon="10.4231767"><ele>453.5</ele><time>2026-04-19T14:18:13.947Z</time></trkpt><trkpt lat="44.4735767" lon="10.42326"><ele>455.0</ele><time>2026-04-19T14:18:14.933Z</time></trkpt><trkpt lat="44.4735033" lon="10.42332"><ele>456.49999999999994</ele><time>2026-04-19T14:18:15.92Z</time></trkpt><trkpt lat="44.4734067" lon="10.4233383"><ele>458.0</ele><time>2026-04-19T14:18:16.911Z</time></trkpt><trkpt lat="44.4733" lon="10.4233367"><ele>457.99999999999994</ele><time>2026-04-19T14:18:17.934Z</time></trkpt><trkpt lat="44.4732017" lon="10.4233383"><ele>458.0</ele><time>2026-04-19T14:18:18.91Z</time></trkpt><trkpt lat="44.47312" lon="10.4233583"><ele>458.0</ele><time>2026-04-19T14:18:19.908Z</time></trkpt><trkpt lat="44.4730633" lon="10.4234033"><ele>458.0</ele><time>2026-04-19T14:18:20.944Z</time></trkpt><trkpt lat="44.473065" lon="10.4235517"><ele>457.99999999999994</ele><time>2026-04-19T14:18:22.925Z</time></trkpt><trkpt lat="44.4731367" lon="10.42363"><ele>458.0</ele><time>2026-04-19T14:18:23.912Z</time></trkpt><trkpt lat="44.47324" lon="10.4236833"><ele>457.99999999999994</ele><time>2026-04-19T14:18:24.923Z</time></trkpt><trkpt lat="44.4733317" lon="10.423745"><ele>458.0</ele><time>2026-04-19T14:18:25.906Z</time></trkpt><trkpt lat="44.4734033" lon="10.4238183"><ele>458.0</ele><time>2026-04-19T14:18:26.937Z</time></trkpt><trkpt lat="44.4734233" lon="10.423905"><ele>458.0</ele><time>2026-04-19T14:18:27.91Z</time></trkpt><trkpt lat="44.47333" lon="10.4240167"><ele>457.99999999999994</ele><time>2026-04-19T14:18:29.909Z</time></trkpt><trkpt lat="44.4732617" lon="10.4240383"><ele>458.0</ele><time>2026-04-19T14:18:30.929Z</time></trkpt><trkpt lat="44.4731567" lon="10.4239967"><ele>460.3333333333333</ele><time>2026-04-19T14:18:31.91Z</time></trkpt><trkpt lat="44.4730683" lon="10.42397"><ele>462.66666666666663</ele><time>2026-04-19T14:18:32.914Z</time></trkpt><trkpt lat="44.4729833" lon="10.4239517"><ele>465.0</ele><time>2026-04-19T14:18:33.914Z</time></trkpt><trkpt lat="44.4729217" lon="10.423985"><ele>467.33333333333337</ele><time>2026-04-19T14:18:34.915Z</time></trkpt><trkpt lat="44.4729017" lon="10.4241117"><ele>469.6666666666667</ele><time>2026-04-19T14:18:36.923Z</time></trkpt><trkpt lat="44.472975" lon="10.4241967"><ele>472.0</ele><time>2026-04-19T14:18:37.923Z</time></trkpt><trkpt lat="44.473115" lon="10.4242617"><ele>472.0</ele><time>2026-04-19T14:18:38.911Z</time></trkpt><trkpt lat="44.473245" lon="10.4243383"><ele>472.0</ele><time>2026-04-19T14:18:39.956Z</time></trkpt><trkpt lat="44.4733583" lon="10.4244317"><ele>472.0</ele><time>2026-04-19T14:18:40.907Z</time></trkpt><trkpt lat="44.4734583" lon="10.4245683"><ele>472.0</ele><time>2026-04-19T14:18:41.909Z</time></trkpt><trkpt lat="44.4735567" lon="10.4247267"><ele>474.6666666666667</ele><time>2026-04-19T14:18:42.911Z</time></trkpt><trkpt lat="44.473685" lon="10.424885"><ele>477.33333333333337</ele><time>2026-04-19T14:18:43.908Z</time></trkpt><trkpt lat="44.47382" lon="10.425035"><ele>480.0</ele><time>2026-04-19T14:18:44.907Z</time></trkpt><trkpt lat="44.4739383" lon="10.4251667"><ele>480.0</ele><time>2026-04-19T14:18:45.915Z</time></trkpt><trkpt lat="44.4740333" lon="10.4253017"><ele>480.0</ele><time>2026-04-19T14:18:46.912Z</time></trkpt><trkpt lat="44.4741067" lon="10.425425"><ele>480.0</ele><time>2026-04-19T14:18:47.932Z</time></trkpt><trkpt lat="44.4741833" lon="10.425515"><ele>480.0</ele><time>2026-04-19T14:18:48.909Z</time></trkpt><trkpt lat="44.4742717" lon="10.4255467"><ele>480.0</ele><time>2026-04-19T14:18:49.909Z</time></trkpt><trkpt lat="44.4743567" lon="10.4255533"><ele>483.6</ele><time>2026-04-19T14:18:50.912Z</time></trkpt><trkpt lat="44.474435" lon="10.4255767"><ele>487.2</ele><time>2026-04-19T14:18:51.909Z</time></trkpt><trkpt lat="44.474495" lon="10.4256717"><ele>490.79999999999995</ele><time>2026-04-19T14:18:52.91Z</time></trkpt><trkpt lat="44.4745217" lon="10.4258133"><ele>494.4</ele><time>2026-04-19T14:18:53.941Z</time></trkpt><trkpt lat="44.474515" lon="10.4259767"><ele>498.0</ele><time>2026-04-19T14:18:54.919Z</time></trkpt><trkpt lat="44.4744933" lon="10.4261433"><ele>498.0</ele><time>2026-04-19T14:18:55.921Z</time></trkpt><trkpt lat="44.4744783" lon="10.4263067"><ele>498.0</ele><time>2026-04-19T14:18:56.896Z</time></trkpt><trkpt lat="44.47448" lon="10.4264617"><ele>498.0</ele><time>2026-04-19T14:18:57.904Z</time></trkpt><trkpt lat="44.4745317" lon="10.4265983"><ele>498.0</ele><time>2026-04-19T14:18:58.896Z</time></trkpt><trkpt lat="44.4746283" lon="10.42669"><ele>498.79999999999995</ele><time>2026-04-19T14:18:59.896Z</time></trkpt><trkpt lat="44.47473" lon="10.4267383"><ele>499.59999999999997</ele><time>2026-04-19T14:19:00.902Z</time></trkpt><trkpt lat="44.474795" lon="10.42678"><ele>500.40000000000003</ele><time>2026-04-19T14:19:01.896Z</time></trkpt><trkpt lat="44.4747817" lon="10.4269367"><ele>501.20000000000005</ele><time>2026-04-19T14:19:03.896Z</time></trkpt><trkpt lat="44.4747183" lon="10.42701"><ele>502.0</ele><time>2026-04-19T14:19:04.905Z</time></trkpt><trkpt lat="44.47463" lon="10.42704"><ele>502.40000000000003</ele><time>2026-04-19T14:19:05.899Z</time></trkpt><trkpt lat="44.47453" lon="10.4270533"><ele>502.80000000000007</ele><time>2026-04-19T14:19:06.897Z</time></trkpt><trkpt lat="44.47444" lon="10.4271217"><ele>503.2</ele><time>2026-04-19T14:19:07.897Z</time></trkpt><trkpt lat="44.4743617" lon="10.4272183"><ele>503.6</ele><time>2026-04-19T14:19:08.895Z</time></trkpt><trkpt lat="44.474295" lon="10.4273317"><ele>504.0</ele><time>2026-04-19T14:19:09.897Z</time></trkpt><trkpt lat="44.47424" lon="10.4274417"><ele>504.6</ele><time>2026-04-19T14:19:10.899Z</time></trkpt><trkpt lat="44.4741967" lon="10.4275583"><ele>505.2</ele><time>2026-04-19T14:19:11.899Z</time></trkpt><trkpt lat="44.4741667" lon="10.4277"><ele>505.80000000000007</ele><time>2026-04-19T14:19:12.9Z</time></trkpt><trkpt lat="44.4741433" lon="10.4278583"><ele>506.40000000000003</ele><time>2026-04-19T14:19:13.898Z</time></trkpt><trkpt lat="44.4741233" lon="10.4280333"><ele>507.0</ele><time>2026-04-19T14:19:14.896Z</time></trkpt><trkpt lat="44.4741033" lon="10.4282217"><ele>508.25</ele><time>2026-04-19T14:19:15.897Z</time></trkpt><trkpt lat="44.4740917" lon="10.4284"><ele>509.5</ele><time>2026-04-19T14:19:16.896Z</time></trkpt><trkpt lat="44.4741" lon="10.428565"><ele>510.75</ele><time>2026-04-19T14:19:17.911Z</time></trkpt><trkpt lat="44.4741333" lon="10.4287267"><ele>512.0</ele><time>2026-04-19T14:19:18.955Z</time></trkpt><trkpt lat="44.4741767" lon="10.42889"><ele>513.5</ele><time>2026-04-19T14:19:19.91Z</time></trkpt><trkpt lat="44.4742117" lon="10.4290517"><ele>515.0</ele><time>2026-04-19T14:19:20.913Z</time></trkpt><trkpt lat="44.4742183" lon="10.42922"><ele>516.5</ele><time>2026-04-19T14:19:21.91Z</time></trkpt><trkpt lat="44.47419" lon="10.42939"><ele>518.0</ele><time>2026-04-19T14:19:22.94Z</time></trkpt><trkpt lat="44.4741333" lon="10.4295583"><ele>521.3333333333333</ele><time>2026-04-19T14:19:23.915Z</time></trkpt><trkpt lat="44.4740667" lon="10.4297383"><ele>524.6666666666666</ele><time>2026-04-19T14:19:24.91Z</time></trkpt><trkpt lat="44.474" lon="10.4299383"><ele>528.0</ele><time>2026-04-19T14:19:25.91Z</time></trkpt><trkpt lat="44.47394" lon="10.4301333"><ele>528.0</ele><time>2026-04-19T14:19:26.911Z</time></trkpt><trkpt lat="44.4738883" lon="10.430305"><ele>528.0</ele><time>2026-04-19T14:19:27.91Z</time></trkpt><trkpt lat="44.4738433" lon="10.4304467"><ele>528.0</ele><time>2026-04-19T14:19:28.921Z</time></trkpt><trkpt lat="44.4738117" lon="10.4305583"><ele>528.0</ele><time>2026-04-19T14:19:29.912Z</time></trkpt><trkpt lat="44.4738033" lon="10.4306533"><ele>528.0</ele><time>2026-04-19T14:19:30.921Z</time></trkpt><trkpt lat="44.47388" lon="10.430755"><ele>528.0</ele><time>2026-04-19T14:19:32.91Z</time></trkpt><trkpt lat="44.4739633" lon="10.43073"><ele>528.0</ele><time>2026-04-19T14:19:33.927Z</time></trkpt><trkpt lat="44.4740583" lon="10.43062"><ele>528.0</ele><time>2026-04-19T14:19:34.914Z</time></trkpt><trkpt lat="44.4741533" lon="10.43049"><ele>528.0</ele><time>2026-04-19T14:19:35.942Z</time></trkpt><trkpt lat="44.4742467" lon="10.4303533"><ele>528.0</ele><time>2026-04-19T14:19:36.91Z</time></trkpt><trkpt lat="44.474335" lon="10.4302217"><ele>528.0</ele><time>2026-04-19T14:19:37.918Z</time></trkpt><trkpt lat="44.4744217" lon="10.430115"><ele>528.0</ele><time>2026-04-19T14:19:38.939Z</time></trkpt><trkpt lat="44.4745233" lon="10.4300367"><ele>528.0</ele><time>2026-04-19T14:19:39.909Z</time></trkpt><trkpt lat="44.4746533" lon="10.4300067"><ele>533.0</ele><time>2026-04-19T14:19:40.911Z</time></trkpt><trkpt lat="44.474795" lon="10.4300183"><ele>538.0</ele><time>2026-04-19T14:19:41.911Z</time></trkpt><trkpt lat="44.4749417" lon="10.4300517"><ele>543.0</ele><time>2026-04-19T14:19:42.91Z</time></trkpt><trkpt lat="44.4750983" lon="10.4301"><ele>543.0</ele><time>2026-04-19T14:19:43.909Z</time></trkpt><trkpt lat="44.4752533" lon="10.43018"><ele>543.0</ele><time>2026-04-19T14:19:44.934Z</time></trkpt><trkpt lat="44.4754017" lon="10.4302567"><ele>543.0</ele><time>2026-04-19T14:19:45.912Z</time></trkpt><trkpt lat="44.4755433" lon="10.4302983"><ele>544.0</ele><time>2026-04-19T14:19:46.926Z</time></trkpt><trkpt lat="44.4756683" lon="10.4303167"><ele>545.0</ele><time>2026-04-19T14:19:47.911Z</time></trkpt><trkpt lat="44.47577" lon="10.4303333"><ele>546.0</ele><time>2026-04-19T14:19:48.916Z</time></trkpt><trkpt lat="44.4758517" lon="10.4303683"><ele>547.0</ele><time>2026-04-19T14:19:49.909Z</time></trkpt><trkpt lat="44.4759183" lon="10.4304383"><ele>548.0</ele><time>2026-04-19T14:19:50.946Z</time></trkpt><trkpt lat="44.475955" lon="10.4305633"><ele>550.0</ele><time>2026-04-19T14:19:51.91Z</time></trkpt><trkpt lat="44.4759733" lon="10.430725"><ele>552.0</ele><time>2026-04-19T14:19:52.911Z</time></trkpt><trkpt lat="44.4759967" lon="10.430905"><ele>554.0</ele><time>2026-04-19T14:19:53.923Z</time></trkpt><trkpt lat="44.4760383" lon="10.4310883"><ele>556.0</ele><time>2026-04-19T14:19:54.924Z</time></trkpt><trkpt lat="44.4760817" lon="10.43127"><ele>557.0</ele><time>2026-04-19T14:19:55.907Z</time></trkpt><trkpt lat="44.47612" lon="10.431425"><ele>558.0</ele><time>2026-04-19T14:19:56.907Z</time></trkpt><trkpt lat="44.4761517" lon="10.4315483"><ele>559.0</ele><time>2026-04-19T14:19:57.91Z</time></trkpt><trkpt lat="44.476175" lon="10.43164"><ele>560.0</ele><time>2026-04-19T14:19:58.912Z</time></trkpt><trkpt lat="44.4761767" lon="10.431785"><ele>561.0</ele><time>2026-04-19T14:20:00.927Z</time></trkpt><trkpt lat="44.4760933" lon="10.431935"><ele>561.0</ele><time>2026-04-19T14:20:02.947Z</time></trkpt><trkpt lat="44.4760233" lon="10.43203"><ele>561.0</ele><time>2026-04-19T14:20:03.935Z</time></trkpt><trkpt lat="44.4759483" lon="10.432135"><ele>561.0</ele><time>2026-04-19T14:20:04.911Z</time></trkpt><trkpt lat="44.47586" lon="10.43223"><ele>561.0</ele><time>2026-04-19T14:20:05.907Z</time></trkpt><trkpt lat="44.4757483" lon="10.4322983"><ele>561.0</ele><time>2026-04-19T14:20:06.91Z</time></trkpt><trkpt lat="44.4756167" lon="10.432325"><ele>563.25</ele><time>2026-04-19T14:20:07.91Z</time></trkpt><trkpt lat="44.47549" lon="10.4323217"><ele>565.5</ele><time>2026-04-19T14:20:08.948Z</time></trkpt><trkpt lat="44.4753783" lon="10.4323217"><ele>567.75</ele><time>2026-04-19T14:20:10.084Z</time></trkpt><trkpt lat="44.4752167" lon="10.432395"><ele>570.0</ele><time>2026-04-19T14:20:11.91Z</time></trkpt><trkpt lat="44.4751733" lon="10.4324683"><ele>570.0</ele><time>2026-04-19T14:20:12.921Z</time></trkpt><trkpt lat="44.4751933" lon="10.43257"><ele>570.0</ele><time>2026-04-19T14:20:13.911Z</time></trkpt><trkpt lat="44.4752483" lon="10.4326617"><ele>570.0</ele><time>2026-04-19T14:20:14.912Z</time></trkpt><trkpt lat="44.47534" lon="10.4327433"><ele>570.0</ele><time>2026-04-19T14:20:15.91Z</time></trkpt><trkpt lat="44.4754467" lon="10.4328217"><ele>570.0</ele><time>2026-04-19T14:20:16.942Z</time></trkpt><trkpt lat="44.4755583" lon="10.4329"><ele>573.0</ele><time>2026-04-19T14:20:17.909Z</time></trkpt><trkpt lat="44.475675" lon="10.432995"><ele>576.0</ele><time>2026-04-19T14:20:18.908Z</time></trkpt><trkpt lat="44.4757933" lon="10.4330917"><ele>579.0</ele><time>2026-04-19T14:20:19.972Z</time></trkpt><trkpt lat="44.47591" lon="10.4331717"><ele>582.0</ele><time>2026-04-19T14:20:20.912Z</time></trkpt><trkpt lat="44.4760267" lon="10.433235"><ele>582.0</ele><time>2026-04-19T14:20:21.924Z</time></trkpt><trkpt lat="44.4761417" lon="10.4332933"><ele>582.0</ele><time>2026-04-19T14:20:22.919Z</time></trkpt><trkpt lat="44.4762517" lon="10.4333483"><ele>582.0</ele><time>2026-04-19T14:20:23.916Z</time></trkpt><trkpt lat="44.476355" lon="10.43341"><ele>582.0</ele><time>2026-04-19T14:20:24.944Z</time></trkpt><trkpt lat="44.4764533" lon="10.4334967"><ele>583.5</ele><time>2026-04-19T14:20:25.908Z</time></trkpt><trkpt lat="44.476535" lon="10.433615"><ele>585.0</ele><time>2026-04-19T14:20:26.928Z</time></trkpt><trkpt lat="44.4766" lon="10.433765"><ele>586.5</ele><time>2026-04-19T14:20:27.908Z</time></trkpt><trkpt lat="44.4766517" lon="10.4339383"><ele>588.0</ele><time>2026-04-19T14:20:28.91Z</time></trkpt><trkpt lat="44.476695" lon="10.4341183"><ele>588.5</ele><time>2026-04-19T14:20:29.941Z</time></trkpt><trkpt lat="44.47673" lon="10.4343"><ele>589.0</ele><time>2026-04-19T14:20:30.909Z</time></trkpt><trkpt lat="44.47676" lon="10.4344983"><ele>589.5</ele><time>2026-04-19T14:20:31.91Z</time></trkpt><trkpt lat="44.476795" lon="10.434705"><ele>590.0</ele><time>2026-04-19T14:20:32.924Z</time></trkpt><trkpt lat="44.4768333" lon="10.43492"><ele>590.0</ele><time>2026-04-19T14:20:33.909Z</time></trkpt><trkpt lat="44.476875" lon="10.43514"><ele>590.0</ele><time>2026-04-19T14:20:34.94Z</time></trkpt><trkpt lat="44.476915" lon="10.4353633"><ele>590.0</ele><time>2026-04-19T14:20:35.909Z</time></trkpt><trkpt lat="44.4769467" lon="10.435585"><ele>589.0</ele><time>2026-04-19T14:20:36.941Z</time></trkpt><trkpt lat="44.4769683" lon="10.435805"><ele>588.0</ele><time>2026-04-19T14:20:37.916Z</time></trkpt><trkpt lat="44.4769717" lon="10.43603"><ele>587.0</ele><time>2026-04-19T14:20:38.91Z</time></trkpt><trkpt lat="44.4769583" lon="10.4362617"><ele>587.3333333333333</ele><time>2026-04-19T14:20:39.908Z</time></trkpt><trkpt lat="44.47693" lon="10.4364967"><ele>587.6666666666666</ele><time>2026-04-19T14:20:40.914Z</time></trkpt><trkpt lat="44.4768867" lon="10.436735"><ele>588.0</ele><time>2026-04-19T14:20:41.916Z</time></trkpt><trkpt lat="44.4768283" lon="10.4369667"><ele>589.0</ele><time>2026-04-19T14:20:42.935Z</time></trkpt><trkpt lat="44.47676" lon="10.4371867"><ele>590.0</ele><time>2026-04-19T14:20:43.927Z</time></trkpt><trkpt lat="44.476695" lon="10.4373933"><ele>591.0</ele><time>2026-04-19T14:20:44.912Z</time></trkpt><trkpt lat="44.4766333" lon="10.4375867"><ele>591.0</ele><time>2026-04-19T14:20:45.917Z</time></trkpt><trkpt lat="44.4765783" lon="10.437765"><ele>591.0</ele><time>2026-04-19T14:20:46.91Z</time></trkpt><trkpt lat="44.4765267" lon="10.4379317"><ele>591.0</ele><time>2026-04-19T14:20:47.909Z</time></trkpt><trkpt lat="44.4764817" lon="10.4380883"><ele>591.0</ele><time>2026-04-19T14:20:48.908Z</time></trkpt><trkpt lat="44.4764367" lon="10.43824"><ele>591.75</ele><time>2026-04-19T14:20:49.93Z</time></trkpt><trkpt lat="44.47639" lon="10.43839"><ele>592.5</ele><time>2026-04-19T14:20:50.935Z</time></trkpt><trkpt lat="44.4763433" lon="10.4385333"><ele>593.25</ele><time>2026-04-19T14:20:51.9Z</time></trkpt><trkpt lat="44.4762967" lon="10.4386733"><ele>594.0</ele><time>2026-04-19T14:20:52.936Z</time></trkpt><trkpt lat="44.4762533" lon="10.4388167"><ele>589.5</ele><time>2026-04-19T14:20:53.911Z</time></trkpt><trkpt lat="44.4762167" lon="10.43896"><ele>585.0</ele><time>2026-04-19T14:20:54.938Z</time></trkpt><trkpt lat="44.4761917" lon="10.43911"><ele>580.5</ele><time>2026-04-19T14:20:55.91Z</time></trkpt><trkpt lat="44.476185" lon="10.4392767"><ele>576.0</ele><time>2026-04-19T14:20:56.912Z</time></trkpt><trkpt lat="44.476195" lon="10.439465"><ele>576.0</ele><time>2026-04-19T14:20:57.913Z</time></trkpt><trkpt lat="44.4762083" lon="10.43967"><ele>576.0</ele><time>2026-04-19T14:20:58.971Z</time></trkpt><trkpt lat="44.4762233" lon="10.4398833"><ele>576.0</ele><time>2026-04-19T14:20:59.912Z</time></trkpt><trkpt lat="44.4762383" lon="10.4401133"><ele>576.0</ele><time>2026-04-19T14:21:00.948Z</time></trkpt><trkpt lat="44.4762517" lon="10.44035"><ele>576.0</ele><time>2026-04-19T14:21:01.925Z</time></trkpt><trkpt lat="44.4762533" lon="10.44059"><ele>576.0</ele><time>2026-04-19T14:21:02.91Z</time></trkpt><trkpt lat="44.4762417" lon="10.44083"><ele>577.3333333333334</ele><time>2026-04-19T14:21:03.949Z</time></trkpt><trkpt lat="44.4762233" lon="10.4410683"><ele>578.6666666666667</ele><time>2026-04-19T14:21:04.933Z</time></trkpt><trkpt lat="44.476195" lon="10.4412933"><ele>580.0</ele><time>2026-04-19T14:21:05.922Z</time></trkpt><trkpt lat="44.4761567" lon="10.4415017"><ele>581.0</ele><time>2026-04-19T14:21:06.952Z</time></trkpt><trkpt lat="44.476105" lon="10.4417033"><ele>582.0</ele><time>2026-04-19T14:21:07.919Z</time></trkpt><trkpt lat="44.476045" lon="10.4418983"><ele>583.0</ele><time>2026-04-19T14:21:08.924Z</time></trkpt><trkpt lat="44.475985" lon="10.4420817"><ele>584.0</ele><time>2026-04-19T14:21:09.911Z</time></trkpt><trkpt lat="44.4759317" lon="10.4422567"><ele>584.25</ele><time>2026-04-19T14:21:10.918Z</time></trkpt><trkpt lat="44.4758867" lon="10.44243"><ele>584.5</ele><time>2026-04-19T14:21:11.911Z</time></trkpt><trkpt lat="44.4758517" lon="10.442605"><ele>584.75</ele><time>2026-04-19T14:21:12.908Z</time></trkpt><trkpt lat="44.47583" lon="10.4427717"><ele>585.0</ele><time>2026-04-19T14:21:13.989Z</time></trkpt><trkpt lat="44.4758267" lon="10.4429333"><ele>586.2</ele><time>2026-04-19T14:21:14.922Z</time></trkpt><trkpt lat="44.4758533" lon="10.4430883"><ele>587.4</ele><time>2026-04-19T14:21:15.909Z</time></trkpt><trkpt lat="44.4759067" lon="10.4432133"><ele>588.6</ele><time>2026-04-19T14:21:16.912Z</time></trkpt><trkpt lat="44.47597" lon="10.4433117"><ele>589.8</ele><time>2026-04-19T14:21:17.963Z</time></trkpt><trkpt lat="44.476045" lon="10.443395"><ele>591.0</ele><time>2026-04-19T14:21:18.912Z</time></trkpt><trkpt lat="44.4761267" lon="10.4434667"><ele>591.0</ele><time>2026-04-19T14:21:19.912Z</time></trkpt><trkpt lat="44.4762167" lon="10.4435267"><ele>591.0</ele><time>2026-04-19T14:21:20.923Z</time></trkpt><trkpt lat="44.4763083" lon="10.443585"><ele>591.0</ele><time>2026-04-19T14:21:21.943Z</time></trkpt><trkpt lat="44.4764017" lon="10.4436433"><ele>591.0</ele><time>2026-04-19T14:21:22.923Z</time></trkpt><trkpt lat="44.4765" lon="10.4437117"><ele>591.0</ele><time>2026-04-19T14:21:23.914Z</time></trkpt><trkpt lat="44.476605" lon="10.443795"><ele>594.25</ele><time>2026-04-19T14:21:24.91Z</time></trkpt><trkpt lat="44.4767167" lon="10.4438817"><ele>597.5</ele><time>2026-04-19T14:21:25.931Z</time></trkpt><trkpt lat="44.4768333" lon="10.44397"><ele>600.75</ele><time>2026-04-19T14:21:26.932Z</time></trkpt><trkpt lat="44.4769533" lon="10.4440633"><ele>604.0</ele><time>2026-04-19T14:21:27.907Z</time></trkpt><trkpt lat="44.477075" lon="10.4441617"><ele>604.5</ele><time>2026-04-19T14:21:28.911Z</time></trkpt><trkpt lat="44.4771917" lon="10.4442733"><ele>605.0</ele><time>2026-04-19T14:21:29.911Z</time></trkpt><trkpt lat="44.4773083" lon="10.4444017"><ele>605.5</ele><time>2026-04-19T14:21:30.91Z</time></trkpt><trkpt lat="44.477425" lon="10.4445467"><ele>606.0</ele><time>2026-04-19T14:21:31.909Z</time></trkpt><trkpt lat="44.4775417" lon="10.4447067"><ele>606.0</ele><time>2026-04-19T14:21:32.939Z</time></trkpt><trkpt lat="44.47766" lon="10.4448783"><ele>606.0</ele><time>2026-04-19T14:21:33.91Z</time></trkpt><trkpt lat="44.477775" lon="10.4450483"><ele>606.0</ele><time>2026-04-19T14:21:34.91Z</time></trkpt><trkpt lat="44.4778867" lon="10.4452067"><ele>608.25</ele><time>2026-04-19T14:21:35.981Z</time></trkpt><trkpt lat="44.4779933" lon="10.44534"><ele>610.5</ele><time>2026-04-19T14:21:36.91Z</time></trkpt><trkpt lat="44.4781" lon="10.4454433"><ele>612.75</ele><time>2026-04-19T14:21:37.907Z</time></trkpt><trkpt lat="44.4782067" lon="10.4455217"><ele>615.0</ele><time>2026-04-19T14:21:38.91Z</time></trkpt><trkpt lat="44.4783083" lon="10.4455917"><ele>615.0</ele><time>2026-04-19T14:21:39.928Z</time></trkpt><trkpt lat="44.4783917" lon="10.44568"><ele>615.0</ele><time>2026-04-19T14:21:40.927Z</time></trkpt><trkpt lat="44.47844" lon="10.4458017"><ele>615.0</ele><time>2026-04-19T14:21:41.91Z</time></trkpt><trkpt lat="44.4784483" lon="10.44596"><ele>615.0</ele><time>2026-04-19T14:21:42.909Z</time></trkpt><trkpt lat="44.47843" lon="10.4461417"><ele>615.0</ele><time>2026-04-19T14:21:43.911Z</time></trkpt><trkpt lat="44.478415" lon="10.4463367"><ele>616.75</ele><time>2026-04-19T14:21:44.944Z</time></trkpt><trkpt lat="44.47841" lon="10.446535"><ele>618.5</ele><time>2026-04-19T14:21:45.907Z</time></trkpt><trkpt lat="44.4784033" lon="10.4467367"><ele>620.25</ele><time>2026-04-19T14:21:46.911Z</time></trkpt><trkpt lat="44.4783933" lon="10.4469333"><ele>622.0</ele><time>2026-04-19T14:21:47.92Z</time></trkpt><trkpt lat="44.4783817" lon="10.447125"><ele>623.5</ele><time>2026-04-19T14:21:48.907Z</time></trkpt><trkpt lat="44.4783683" lon="10.447315"><ele>625.0</ele><time>2026-04-19T14:21:49.906Z</time></trkpt><trkpt lat="44.4783733" lon="10.4475033"><ele>626.5</ele><time>2026-04-19T14:21:50.909Z</time></trkpt><trkpt lat="44.4784" lon="10.4476933"><ele>628.0</ele><time>2026-04-19T14:21:51.907Z</time></trkpt><trkpt lat="44.4784367" lon="10.4478817"><ele>627.75</ele><time>2026-04-19T14:21:52.911Z</time></trkpt><trkpt lat="44.4784817" lon="10.4480617"><ele>627.5</ele><time>2026-04-19T14:21:53.91Z</time></trkpt><trkpt lat="44.4785233" lon="10.44824"><ele>627.25</ele><time>2026-04-19T14:21:54.908Z</time></trkpt><trkpt lat="44.4785617" lon="10.448405"><ele>627.0</ele><time>2026-04-19T14:21:55.907Z</time></trkpt><trkpt lat="44.478575" lon="10.4485667"><ele>627.0</ele><time>2026-04-19T14:21:56.909Z</time></trkpt><trkpt lat="44.47855" lon="10.4487383"><ele>627.0</ele><time>2026-04-19T14:21:57.91Z</time></trkpt><trkpt lat="44.4784817" lon="10.4489117"><ele>627.0</ele><time>2026-04-19T14:21:58.912Z</time></trkpt><trkpt lat="44.4783817" lon="10.4490833"><ele>627.0</ele><time>2026-04-19T14:21:59.909Z</time></trkpt><trkpt lat="44.4782983" lon="10.4492583"><ele>626.75</ele><time>2026-04-19T14:22:00.928Z</time></trkpt><trkpt lat="44.4782433" lon="10.4494217"><ele>626.5</ele><time>2026-04-19T14:22:01.908Z</time></trkpt><trkpt lat="44.4781983" lon="10.449565"><ele>626.25</ele><time>2026-04-19T14:22:02.919Z</time></trkpt><trkpt lat="44.47813" lon="10.44969"><ele>626.0</ele><time>2026-04-19T14:22:03.92Z</time></trkpt><trkpt lat="44.47803" lon="10.4497733"><ele>628.5</ele><time>2026-04-19T14:22:04.912Z</time></trkpt><trkpt lat="44.477905" lon="10.44982"><ele>631.0</ele><time>2026-04-19T14:22:05.913Z</time></trkpt><trkpt lat="44.47776" lon="10.4498583"><ele>633.5</ele><time>2026-04-19T14:22:06.911Z</time></trkpt><trkpt lat="44.4776083" lon="10.449895"><ele>636.0</ele><time>2026-04-19T14:22:07.932Z</time></trkpt><trkpt lat="44.4774617" lon="10.4499417"><ele>636.0</ele><time>2026-04-19T14:22:08.923Z</time></trkpt><trkpt lat="44.477315" lon="10.4499817"><ele>636.0</ele><time>2026-04-19T14:22:09.911Z</time></trkpt><trkpt lat="44.4771767" lon="10.4500133"><ele>636.0</ele><time>2026-04-19T14:22:10.952Z</time></trkpt><trkpt lat="44.4770483" lon="10.450025"><ele>636.0</ele><time>2026-04-19T14:22:11.926Z</time></trkpt><trkpt lat="44.4769383" lon="10.45004"><ele>636.0</ele><time>2026-04-19T14:22:12.945Z</time></trkpt><trkpt lat="44.4768483" lon="10.450095"><ele>636.0</ele><time>2026-04-19T14:22:13.911Z</time></trkpt><trkpt lat="44.4767733" lon="10.4502083"><ele>636.0</ele><time>2026-04-19T14:22:14.927Z</time></trkpt><trkpt lat="44.476705" lon="10.4503533"><ele>636.0</ele><time>2026-04-19T14:22:15.927Z</time></trkpt><trkpt lat="44.4766333" lon="10.4505117"><ele>640.0</ele><time>2026-04-19T14:22:16.929Z</time></trkpt><trkpt lat="44.476555" lon="10.45068"><ele>644.0</ele><time>2026-04-19T14:22:17.934Z</time></trkpt><trkpt lat="44.4764717" lon="10.45084"><ele>648.0</ele><time>2026-04-19T14:22:18.932Z</time></trkpt><trkpt lat="44.4763983" lon="10.450985"><ele>652.0</ele><time>2026-04-19T14:22:19.931Z</time></trkpt><trkpt lat="44.47635" lon="10.4511217"><ele>652.0</ele><time>2026-04-19T14:22:20.91Z</time></trkpt><trkpt lat="44.4763367" lon="10.45125"><ele>652.0</ele><time>2026-04-19T14:22:21.907Z</time></trkpt><trkpt lat="44.4763617" lon="10.4513583"><ele>652.0</ele><time>2026-04-19T14:22:22.908Z</time></trkpt><trkpt lat="44.4764367" lon="10.4514217"><ele>652.0</ele><time>2026-04-19T14:22:23.906Z</time></trkpt><trkpt lat="44.4765367" lon="10.4514283"><ele>652.0</ele><time>2026-04-19T14:22:24.936Z</time></trkpt><trkpt lat="44.4766467" lon="10.4513933"><ele>652.75</ele><time>2026-04-19T14:22:25.925Z</time></trkpt><trkpt lat="44.4767667" lon="10.4513483"><ele>653.5</ele><time>2026-04-19T14:22:26.91Z</time></trkpt><trkpt lat="44.4768867" lon="10.4513267"><ele>654.25</ele><time>2026-04-19T14:22:27.918Z</time></trkpt><trkpt lat="44.4770133" lon="10.451345"><ele>655.0</ele><time>2026-04-19T14:22:28.912Z</time></trkpt><trkpt lat="44.4771417" lon="10.4514183"><ele>658.3333333333334</ele><time>2026-04-19T14:22:29.932Z</time></trkpt><trkpt lat="44.4772733" lon="10.451535"><ele>661.6666666666666</ele><time>2026-04-19T14:22:30.911Z</time></trkpt><trkpt lat="44.4774033" lon="10.45166"><ele>665.0</ele><time>2026-04-19T14:22:31.91Z</time></trkpt><trkpt lat="44.477535" lon="10.4517733"><ele>665.0</ele><time>2026-04-19T14:22:32.93Z</time></trkpt><trkpt lat="44.4776667" lon="10.4518817"><ele>665.0</ele><time>2026-04-19T14:22:33.932Z</time></trkpt><trkpt lat="44.4777917" lon="10.4519867"><ele>665.0</ele><time>2026-04-19T14:22:34.937Z</time></trkpt><trkpt lat="44.4779033" lon="10.4521017"><ele>665.0</ele><time>2026-04-19T14:22:35.911Z</time></trkpt><trkpt lat="44.478" lon="10.4522333"><ele>668.75</ele><time>2026-04-19T14:22:36.924Z</time></trkpt><trkpt lat="44.478075" lon="10.4523833"><ele>672.5</ele><time>2026-04-19T14:22:37.937Z</time></trkpt><trkpt lat="44.4781233" lon="10.4525333"><ele>676.25</ele><time>2026-04-19T14:22:38.908Z</time></trkpt><trkpt lat="44.4781617" lon="10.45268"><ele>680.0</ele><time>2026-04-19T14:22:39.91Z</time></trkpt><trkpt lat="44.4781933" lon="10.4528317"><ele>681.5</ele><time>2026-04-19T14:22:40.906Z</time></trkpt><trkpt lat="44.4782233" lon="10.4529867"><ele>683.0</ele><time>2026-04-19T14:22:41.928Z</time></trkpt><trkpt lat="44.4782533" lon="10.4531417"><ele>684.5</ele><time>2026-04-19T14:22:42.91Z</time></trkpt><trkpt lat="44.4782867" lon="10.453295"><ele>686.0</ele><time>2026-04-19T14:22:43.907Z</time></trkpt><trkpt lat="44.47832" lon="10.4534417"><ele>686.0</ele><time>2026-04-19T14:22:44.931Z</time></trkpt><trkpt lat="44.47835" lon="10.45358"><ele>686.0</ele><time>2026-04-19T14:22:45.918Z</time></trkpt><trkpt lat="44.478375" lon="10.453705"><ele>686.0</ele><time>2026-04-19T14:22:46.912Z</time></trkpt><trkpt lat="44.4784017" lon="10.4538217"><ele>686.0</ele><time>2026-04-19T14:22:47.91Z</time></trkpt><trkpt lat="44.4784267" lon="10.4539217"><ele>686.0</ele><time>2026-04-19T14:22:48.92Z</time></trkpt><trkpt lat="44.47846" lon="10.45405"><ele>686.0</ele><time>2026-04-19T14:22:50.942Z</time></trkpt><trkpt lat="44.4785233" lon="10.4541083"><ele>686.0</ele><time>2026-04-19T14:22:53.912Z</time></trkpt><trkpt lat="44.478625" lon="10.454075"><ele>686.0</ele><time>2026-04-19T14:22:55.934Z</time></trkpt><trkpt lat="44.4786683" lon="10.45401"><ele>686.0</ele><time>2026-04-19T14:22:56.913Z</time></trkpt><trkpt lat="44.4786983" lon="10.4539133"><ele>686.0</ele><time>2026-04-19T14:22:57.936Z</time></trkpt><trkpt lat="44.478715" lon="10.4537983"><ele>686.0</ele><time>2026-04-19T14:22:58.912Z</time></trkpt><trkpt lat="44.4787317" lon="10.453675"><ele>686.0</ele><time>2026-04-19T14:22:59.928Z</time></trkpt><trkpt lat="44.478755" lon="10.4535583"><ele>686.0</ele><time>2026-04-19T14:23:00.917Z</time></trkpt><trkpt lat="44.4787933" lon="10.4534483"><ele>686.0</ele><time>2026-04-19T14:23:01.948Z</time></trkpt><trkpt lat="44.4788417" lon="10.45334"><ele>686.0</ele><time>2026-04-19T14:23:02.908Z</time></trkpt><trkpt lat="44.4789" lon="10.4532317"><ele>686.0</ele><time>2026-04-19T14:23:03.948Z</time></trkpt><trkpt lat="44.4789667" lon="10.4531233"><ele>686.4</ele><time>2026-04-19T14:23:04.939Z</time></trkpt><trkpt lat="44.47903" lon="10.453015"><ele>686.8</ele><time>2026-04-19T14:23:05.936Z</time></trkpt><trkpt lat="44.4790883" lon="10.4529133"><ele>687.1999999999999</ele><time>2026-04-19T14:23:06.914Z</time></trkpt><trkpt lat="44.4791483" lon="10.4528117"><ele>687.5999999999999</ele><time>2026-04-19T14:23:07.911Z</time></trkpt><trkpt lat="44.479215" lon="10.4527217"><ele>688.0</ele><time>2026-04-19T14:23:08.943Z</time></trkpt><trkpt lat="44.4792917" lon="10.4526433"><ele>688.0</ele><time>2026-04-19T14:23:09.91Z</time></trkpt><trkpt lat="44.4793867" lon="10.4525867"><ele>688.0</ele><time>2026-04-19T14:23:10.929Z</time></trkpt><trkpt lat="44.4794967" lon="10.45254"><ele>688.0</ele><time>2026-04-19T14:23:11.913Z</time></trkpt><trkpt lat="44.47961" lon="10.452485"><ele>688.0</ele><time>2026-04-19T14:23:12.907Z</time></trkpt><trkpt lat="44.47971" lon="10.4523967"><ele>687.5</ele><time>2026-04-19T14:23:13.926Z</time></trkpt><trkpt lat="44.4797917" lon="10.4522717"><ele>687.0</ele><time>2026-04-19T14:23:14.91Z</time></trkpt><trkpt lat="44.479865" lon="10.4521333"><ele>686.5</ele><time>2026-04-19T14:23:15.958Z</time></trkpt><trkpt lat="44.4799533" lon="10.452005"><ele>686.0</ele><time>2026-04-19T14:23:16.96Z</time></trkpt><trkpt lat="44.4800583" lon="10.4519017"><ele>686.0</ele><time>2026-04-19T14:23:17.943Z</time></trkpt><trkpt lat="44.4801733" lon="10.451825"><ele>686.0</ele><time>2026-04-19T14:23:18.924Z</time></trkpt><trkpt lat="44.480305" lon="10.451775"><ele>686.0</ele><time>2026-04-19T14:23:19.928Z</time></trkpt><trkpt lat="44.480445" lon="10.45173"><ele>686.0</ele><time>2026-04-19T14:23:20.922Z</time></trkpt><trkpt lat="44.480585" lon="10.4516583"><ele>694.3333333333333</ele><time>2026-04-19T14:23:21.909Z</time></trkpt><trkpt lat="44.4807333" lon="10.4515733"><ele>702.6666666666666</ele><time>2026-04-19T14:23:22.912Z</time></trkpt><trkpt lat="44.4808833" lon="10.4514867"><ele>711.0</ele><time>2026-04-19T14:23:23.912Z</time></trkpt><trkpt lat="44.48103" lon="10.4513967"><ele>711.0</ele><time>2026-04-19T14:23:24.965Z</time></trkpt><trkpt lat="44.4811817" lon="10.4513367"><ele>711.0</ele><time>2026-04-19T14:23:25.945Z</time></trkpt><trkpt lat="44.4813267" lon="10.4512883"><ele>711.0</ele><time>2026-04-19T14:23:26.94Z</time></trkpt><trkpt lat="44.4814617" lon="10.45125"><ele>711.0</ele><time>2026-04-19T14:23:27.912Z</time></trkpt><trkpt lat="44.4815833" lon="10.4512267"><ele>712.4</ele><time>2026-04-19T14:23:28.927Z</time></trkpt><trkpt lat="44.48169" lon="10.4512267"><ele>713.8</ele><time>2026-04-19T14:23:29.91Z</time></trkpt><trkpt lat="44.4817933" lon="10.4512533"><ele>715.1999999999999</ele><time>2026-04-19T14:23:30.919Z</time></trkpt><trkpt lat="44.4818967" lon="10.4512833"><ele>716.5999999999999</ele><time>2026-04-19T14:23:31.928Z</time></trkpt><trkpt lat="44.482" lon="10.4512917"><ele>718.0</ele><time>2026-04-19T14:23:32.957Z</time></trkpt><trkpt lat="44.4821017" lon="10.4512383"><ele>718.0</ele><time>2026-04-19T14:23:33.949Z</time></trkpt><trkpt lat="44.482195" lon="10.4511533"><ele>718.0</ele><time>2026-04-19T14:23:34.945Z</time></trkpt><trkpt lat="44.4822917" lon="10.4510733"><ele>718.0</ele><time>2026-04-19T14:23:35.921Z</time></trkpt><trkpt lat="44.4824" lon="10.4510417"><ele>718.0</ele><time>2026-04-19T14:23:36.923Z</time></trkpt><trkpt lat="44.4825133" lon="10.4510483"><ele>718.0</ele><time>2026-04-19T14:23:37.917Z</time></trkpt><trkpt lat="44.482625" lon="10.4510783"><ele>718.0</ele><time>2026-04-19T14:23:38.91Z</time></trkpt><trkpt lat="44.4827217" lon="10.4511167"><ele>718.0</ele><time>2026-04-19T14:23:39.925Z</time></trkpt><trkpt lat="44.4828" lon="10.4511383"><ele>718.0</ele><time>2026-04-19T14:23:40.913Z</time></trkpt><trkpt lat="44.482875" lon="10.4511333"><ele>718.0</ele><time>2026-04-19T14:23:41.923Z</time></trkpt><trkpt lat="44.4829267" lon="10.451005"><ele>718.0</ele><time>2026-04-19T14:23:43.911Z</time></trkpt><trkpt lat="44.4828567" lon="10.4508983"><ele>718.0</ele><time>2026-04-19T14:23:45.91Z</time></trkpt><trkpt lat="44.4827667" lon="10.450885"><ele>718.0</ele><time>2026-04-19T14:23:46.91Z</time></trkpt><trkpt lat="44.482655" lon="10.4508717"><ele>718.0</ele><time>2026-04-19T14:23:47.918Z</time></trkpt><trkpt lat="44.482555" lon="10.4508217"><ele>718.0</ele><time>2026-04-19T14:23:48.91Z</time></trkpt><trkpt lat="44.482485" lon="10.4507333"><ele>718.0</ele><time>2026-04-19T14:23:49.952Z</time></trkpt><trkpt lat="44.4824467" lon="10.4506233"><ele>718.0</ele><time>2026-04-19T14:23:50.909Z</time></trkpt><trkpt lat="44.48246" lon="10.4504733"><ele>718.0</ele><time>2026-04-19T14:23:51.906Z</time></trkpt><trkpt lat="44.4825167" lon="10.45033"><ele>718.0</ele><time>2026-04-19T14:23:52.951Z</time></trkpt><trkpt lat="44.4826083" lon="10.4502"><ele>718.0</ele><time>2026-04-19T14:23:53.91Z</time></trkpt><trkpt lat="44.4827067" lon="10.450065"><ele>717.5</ele><time>2026-04-19T14:23:54.912Z</time></trkpt><trkpt lat="44.4827917" lon="10.4499033"><ele>717.0</ele><time>2026-04-19T14:23:55.922Z</time></trkpt><trkpt lat="44.4828483" lon="10.4497267"><ele>716.5</ele><time>2026-04-19T14:23:56.906Z</time></trkpt><trkpt lat="44.4828917" lon="10.449555"><ele>716.0</ele><time>2026-04-19T14:23:57.907Z</time></trkpt><trkpt lat="44.48294" lon="10.4494033"><ele>718.5</ele><time>2026-04-19T14:23:59.031Z</time></trkpt><trkpt lat="44.4830767" lon="10.4492083"><ele>721.0</ele><time>2026-04-19T14:24:00.907Z</time></trkpt><trkpt lat="44.4831617" lon="10.4491817"><ele>723.5</ele><time>2026-04-19T14:24:01.909Z</time></trkpt><trkpt lat="44.4832667" lon="10.4491717"><ele>726.0</ele><time>2026-04-19T14:24:02.971Z</time></trkpt><trkpt lat="44.4833833" lon="10.4491267"><ele>726.0</ele><time>2026-04-19T14:24:03.91Z</time></trkpt><trkpt lat="44.4835" lon="10.449025"><ele>726.0</ele><time>2026-04-19T14:24:04.943Z</time></trkpt><trkpt lat="44.4836033" lon="10.4488833"><ele>726.0</ele><time>2026-04-19T14:24:05.928Z</time></trkpt><trkpt lat="44.48369" lon="10.448725"><ele>726.0</ele><time>2026-04-19T14:24:06.914Z</time></trkpt><trkpt lat="44.483765" lon="10.4485733"><ele>729.25</ele><time>2026-04-19T14:24:07.91Z</time></trkpt><trkpt lat="44.4838367" lon="10.44844"><ele>732.5</ele><time>2026-04-19T14:24:08.908Z</time></trkpt><trkpt lat="44.4839267" lon="10.4483333"><ele>735.75</ele><time>2026-04-19T14:24:09.943Z</time></trkpt><trkpt lat="44.4840367" lon="10.4482517"><ele>739.0</ele><time>2026-04-19T14:24:10.916Z</time></trkpt><trkpt lat="44.4841567" lon="10.4481867"><ele>739.0</ele><time>2026-04-19T14:24:11.919Z</time></trkpt><trkpt lat="44.4842717" lon="10.44812"><ele>739.0</ele><time>2026-04-19T14:24:12.956Z</time></trkpt><trkpt lat="44.4843833" lon="10.4480533"><ele>739.0</ele><time>2026-04-19T14:24:13.934Z</time></trkpt><trkpt lat="44.4844883" lon="10.44799"><ele>739.0</ele><time>2026-04-19T14:24:14.914Z</time></trkpt><trkpt lat="44.4845867" lon="10.447915"><ele>737.25</ele><time>2026-04-19T14:24:15.932Z</time></trkpt><trkpt lat="44.4846717" lon="10.447805"><ele>735.5</ele><time>2026-04-19T14:24:16.951Z</time></trkpt><trkpt lat="44.4847433" lon="10.4476533"><ele>733.75</ele><time>2026-04-19T14:24:17.943Z</time></trkpt><trkpt lat="44.4848133" lon="10.447475"><ele>732.0</ele><time>2026-04-19T14:24:18.91Z</time></trkpt><trkpt lat="44.48489" lon="10.4472767"><ele>733.6666666666666</ele><time>2026-04-19T14:24:19.922Z</time></trkpt><trkpt lat="44.48497" lon="10.4470583"><ele>735.3333333333333</ele><time>2026-04-19T14:24:20.913Z</time></trkpt><trkpt lat="44.4850483" lon="10.446815"><ele>737.0</ele><time>2026-04-19T14:24:21.932Z</time></trkpt><trkpt lat="44.4851117" lon="10.4465583"><ele>737.0</ele><time>2026-04-19T14:24:22.911Z</time></trkpt><trkpt lat="44.4851667" lon="10.4463133"><ele>737.0</ele><time>2026-04-19T14:24:23.908Z</time></trkpt><trkpt lat="44.4852183" lon="10.4460783"><ele>737.0</ele><time>2026-04-19T14:24:25.081Z</time></trkpt><trkpt lat="44.4853267" lon="10.44565"><ele>740.0</ele><time>2026-04-19T14:24:26.913Z</time></trkpt><trkpt lat="44.485395" lon="10.4454533"><ele>743.0</ele><time>2026-04-19T14:24:27.911Z</time></trkpt><trkpt lat="44.485485" lon="10.4452683"><ele>746.0</ele><time>2026-04-19T14:24:28.918Z</time></trkpt><trkpt lat="44.4855967" lon="10.4451017"><ele>739.0</ele><time>2026-04-19T14:24:29.914Z</time></trkpt><trkpt lat="44.4857333" lon="10.4449533"><ele>732.0</ele><time>2026-04-19T14:24:30.898Z</time></trkpt><trkpt lat="44.4858833" lon="10.4448183"><ele>725.0</ele><time>2026-04-19T14:24:31.933Z</time></trkpt><trkpt lat="44.4860417" lon="10.4447117"><ele>725.0</ele><time>2026-04-19T14:24:32.91Z</time></trkpt><trkpt lat="44.486195" lon="10.4446383"><ele>725.0</ele><time>2026-04-19T14:24:33.984Z</time></trkpt><trkpt lat="44.4863367" lon="10.44458"><ele>725.0</ele><time>2026-04-19T14:24:34.912Z</time></trkpt><trkpt lat="44.4864567" lon="10.4445117"><ele>725.0</ele><time>2026-04-19T14:24:35.91Z</time></trkpt><trkpt lat="44.48655" lon="10.44441"><ele>725.3333333333333</ele><time>2026-04-19T14:24:36.929Z</time></trkpt><trkpt lat="44.4866267" lon="10.44426"><ele>725.6666666666666</ele><time>2026-04-19T14:24:37.916Z</time></trkpt><trkpt lat="44.4866983" lon="10.4440717"><ele>726.0</ele><time>2026-04-19T14:24:38.922Z</time></trkpt><trkpt lat="44.4867817" lon="10.44387"><ele>729.6666666666666</ele><time>2026-04-19T14:24:39.921Z</time></trkpt><trkpt lat="44.4868783" lon="10.4436733"><ele>733.3333333333333</ele><time>2026-04-19T14:24:40.944Z</time></trkpt><trkpt lat="44.486985" lon="10.44348"><ele>737.0</ele><time>2026-04-19T14:24:41.924Z</time></trkpt><trkpt lat="44.4870917" lon="10.443275"><ele>727.6666666666666</ele><time>2026-04-19T14:24:42.912Z</time></trkpt><trkpt lat="44.487195" lon="10.4430633"><ele>718.3333333333334</ele><time>2026-04-19T14:24:43.915Z</time></trkpt><trkpt lat="44.4872917" lon="10.4428567"><ele>709.0</ele><time>2026-04-19T14:24:44.909Z</time></trkpt><trkpt lat="44.48738" lon="10.4426533"><ele>709.0</ele><time>2026-04-19T14:24:45.912Z</time></trkpt><trkpt lat="44.487465" lon="10.4424567"><ele>709.0</ele><time>2026-04-19T14:24:46.918Z</time></trkpt><trkpt lat="44.4875433" lon="10.442265"><ele>709.0</ele><time>2026-04-19T14:24:47.899Z</time></trkpt><trkpt lat="44.48761" lon="10.4420717"><ele>710.5</ele><time>2026-04-19T14:24:48.899Z</time></trkpt><trkpt lat="44.48767" lon="10.44188"><ele>712.0</ele><time>2026-04-19T14:24:49.898Z</time></trkpt><trkpt lat="44.487735" lon="10.4416967"><ele>713.5</ele><time>2026-04-19T14:24:50.911Z</time></trkpt><trkpt lat="44.4878133" lon="10.4415333"><ele>715.0</ele><time>2026-04-19T14:24:51.931Z</time></trkpt><trkpt lat="44.4879183" lon="10.4414067"><ele>712.5</ele><time>2026-04-19T14:24:52.923Z</time></trkpt><trkpt lat="44.4880367" lon="10.4413033"><ele>710.0</ele><time>2026-04-19T14:24:53.909Z</time></trkpt><trkpt lat="44.4881467" lon="10.4411983"><ele>707.5</ele><time>2026-04-19T14:24:54.953Z</time></trkpt><trkpt lat="44.488235" lon="10.44107"><ele>705.0</ele><time>2026-04-19T14:24:55.918Z</time></trkpt><trkpt lat="44.488305" lon="10.4409283"><ele>705.0</ele><time>2026-04-19T14:24:56.912Z</time></trkpt><trkpt lat="44.4883717" lon="10.440795"><ele>705.0</ele><time>2026-04-19T14:24:57.924Z</time></trkpt><trkpt lat="44.4884467" lon="10.4406883"><ele>705.0</ele><time>2026-04-19T14:24:58.911Z</time></trkpt><trkpt lat="44.4885417" lon="10.4406183"><ele>705.0</ele><time>2026-04-19T14:24:59.958Z</time></trkpt><trkpt lat="44.488665" lon="10.44061"><ele>702.6666666666666</ele><time>2026-04-19T14:25:00.932Z</time></trkpt><trkpt lat="44.4888017" lon="10.4406633"><ele>700.3333333333333</ele><time>2026-04-19T14:25:01.908Z</time></trkpt><trkpt lat="44.4889383" lon="10.44077"><ele>698.0</ele><time>2026-04-19T14:25:02.935Z</time></trkpt><trkpt lat="44.4890683" lon="10.4408833"><ele>698.0</ele><time>2026-04-19T14:25:03.931Z</time></trkpt><trkpt lat="44.4891917" lon="10.4409717"><ele>698.0</ele><time>2026-04-19T14:25:04.91Z</time></trkpt><trkpt lat="44.4893117" lon="10.441035"><ele>698.0</ele><time>2026-04-19T14:25:05.916Z</time></trkpt><trkpt lat="44.4894117" lon="10.4410833"><ele>698.0</ele><time>2026-04-19T14:25:06.91Z</time></trkpt><trkpt lat="44.4894867" lon="10.441125"><ele>698.0</ele><time>2026-04-19T14:25:07.914Z</time></trkpt><trkpt lat="44.4895417" lon="10.44118"><ele>698.0</ele><time>2026-04-19T14:25:08.909Z</time></trkpt><trkpt lat="44.4895833" lon="10.4412533"><ele>698.0</ele><time>2026-04-19T14:25:09.909Z</time></trkpt><trkpt lat="44.4895333" lon="10.441405"><ele>698.0</ele><time>2026-04-19T14:25:11.934Z</time></trkpt><trkpt lat="44.4894517" lon="10.4414367"><ele>698.0</ele><time>2026-04-19T14:25:12.91Z</time></trkpt><trkpt lat="44.4893433" lon="10.4414233"><ele>698.0</ele><time>2026-04-19T14:25:13.91Z</time></trkpt><trkpt lat="44.4892267" lon="10.4413883"><ele>694.2</ele><time>2026-04-19T14:25:14.908Z</time></trkpt><trkpt lat="44.4891117" lon="10.4413583"><ele>690.4</ele><time>2026-04-19T14:25:15.967Z</time></trkpt><trkpt lat="44.4890017" lon="10.44135"><ele>686.6</ele><time>2026-04-19T14:25:16.919Z</time></trkpt><trkpt lat="44.4889033" lon="10.441385"><ele>682.8000000000001</ele><time>2026-04-19T14:25:17.916Z</time></trkpt><trkpt lat="44.4888217" lon="10.44148"><ele>679.0</ele><time>2026-04-19T14:25:18.908Z</time></trkpt><trkpt lat="44.48878" lon="10.4416433"><ele>681.6666666666667</ele><time>2026-04-19T14:25:19.93Z</time></trkpt><trkpt lat="44.4887583" lon="10.4418467"><ele>684.3333333333334</ele><time>2026-04-19T14:25:20.924Z</time></trkpt><trkpt lat="44.488735" lon="10.4420733"><ele>687.0</ele><time>2026-04-19T14:25:21.979Z</time></trkpt><trkpt lat="44.4887117" lon="10.4423183"><ele>687.0</ele><time>2026-04-19T14:25:22.931Z</time></trkpt><trkpt lat="44.4886983" lon="10.4425683"><ele>687.0</ele><time>2026-04-19T14:25:23.913Z</time></trkpt><trkpt lat="44.4886933" lon="10.4428117"><ele>687.0</ele><time>2026-04-19T14:25:24.907Z</time></trkpt><trkpt lat="44.4886917" lon="10.44305"><ele>683.3333333333334</ele><time>2026-04-19T14:25:25.909Z</time></trkpt><trkpt lat="44.4886867" lon="10.44327"><ele>679.6666666666667</ele><time>2026-04-19T14:25:26.909Z</time></trkpt><trkpt lat="44.4886617" lon="10.4434683"><ele>676.0</ele><time>2026-04-19T14:25:27.915Z</time></trkpt><trkpt lat="44.488605" lon="10.4436633"><ele>673.25</ele><time>2026-04-19T14:25:28.949Z</time></trkpt><trkpt lat="44.4885317" lon="10.443855"><ele>670.5</ele><time>2026-04-19T14:25:29.916Z</time></trkpt><trkpt lat="44.4884667" lon="10.4440317"><ele>667.75</ele><time>2026-04-19T14:25:30.91Z</time></trkpt><trkpt lat="44.48842" lon="10.4441817"><ele>665.0</ele><time>2026-04-19T14:25:31.946Z</time></trkpt><trkpt lat="44.4884017" lon="10.44431"><ele>665.0</ele><time>2026-04-19T14:25:32.986Z</time></trkpt><trkpt lat="44.4884133" lon="10.4444267"><ele>665.0</ele><time>2026-04-19T14:25:33.908Z</time></trkpt><trkpt lat="44.48849" lon="10.4445117"><ele>665.0</ele><time>2026-04-19T14:25:34.911Z</time></trkpt><trkpt lat="44.488595" lon="10.4445583"><ele>665.0</ele><time>2026-04-19T14:25:35.909Z</time></trkpt><trkpt lat="44.4887483" lon="10.4445683"><ele>665.0</ele><time>2026-04-19T14:25:36.91Z</time></trkpt><trkpt lat="44.4889167" lon="10.4445733"><ele>661.6666666666666</ele><time>2026-04-19T14:25:37.955Z</time></trkpt><trkpt lat="44.4890883" lon="10.44458"><ele>658.3333333333334</ele><time>2026-04-19T14:25:38.943Z</time></trkpt><trkpt lat="44.4892617" lon="10.4445867"><ele>655.0</ele><time>2026-04-19T14:25:39.91Z</time></trkpt><trkpt lat="44.4894283" lon="10.4445917"><ele>655.0</ele><time>2026-04-19T14:25:40.912Z</time></trkpt><trkpt lat="44.48959" lon="10.444585"><ele>655.0</ele><time>2026-04-19T14:25:41.931Z</time></trkpt><trkpt lat="44.48974" lon="10.4445667"><ele>655.0</ele><time>2026-04-19T14:25:42.93Z</time></trkpt><trkpt lat="44.4898867" lon="10.4445217"><ele>654.6666666666667</ele><time>2026-04-19T14:25:43.93Z</time></trkpt><trkpt lat="44.49004" lon="10.4444333"><ele>654.3333333333334</ele><time>2026-04-19T14:25:44.904Z</time></trkpt><trkpt lat="44.4901983" lon="10.4443133"><ele>654.0</ele><time>2026-04-19T14:25:45.911Z</time></trkpt><trkpt lat="44.4903633" lon="10.4441767"><ele>654.3333333333334</ele><time>2026-04-19T14:25:46.932Z</time></trkpt><trkpt lat="44.49053" lon="10.444035"><ele>654.6666666666667</ele><time>2026-04-19T14:25:47.919Z</time></trkpt><trkpt lat="44.490695" lon="10.4439"><ele>655.0</ele><time>2026-04-19T14:25:48.909Z</time></trkpt><trkpt lat="44.4908583" lon="10.4437717"><ele>654.3333333333334</ele><time>2026-04-19T14:25:49.949Z</time></trkpt><trkpt lat="44.4910233" lon="10.4436467"><ele>653.6666666666666</ele><time>2026-04-19T14:25:50.92Z</time></trkpt><trkpt lat="44.4911833" lon="10.4435183"><ele>653.0</ele><time>2026-04-19T14:25:51.923Z</time></trkpt><trkpt lat="44.4913383" lon="10.443375"><ele>654.0</ele><time>2026-04-19T14:25:52.95Z</time></trkpt><trkpt lat="44.491485" lon="10.44321"><ele>655.0</ele><time>2026-04-19T14:25:53.91Z</time></trkpt><trkpt lat="44.4916117" lon="10.4430383"><ele>656.0</ele><time>2026-04-19T14:25:54.916Z</time></trkpt><trkpt lat="44.4917117" lon="10.442885"><ele>656.0</ele><time>2026-04-19T14:25:55.908Z</time></trkpt><trkpt lat="44.49179" lon="10.4427583"><ele>656.0</ele><time>2026-04-19T14:25:56.909Z</time></trkpt><trkpt lat="44.4918583" lon="10.4426683"><ele>656.0</ele><time>2026-04-19T14:25:57.917Z</time></trkpt><trkpt lat="44.4919317" lon="10.4426167"><ele>656.0</ele><time>2026-04-19T14:25:58.912Z</time></trkpt><trkpt lat="44.4920167" lon="10.4426467"><ele>656.0</ele><time>2026-04-19T14:25:59.961Z</time></trkpt><trkpt lat="44.4921167" lon="10.4427183"><ele>659.25</ele><time>2026-04-19T14:26:00.91Z</time></trkpt><trkpt lat="44.4922367" lon="10.4427967"><ele>662.5</ele><time>2026-04-19T14:26:01.915Z</time></trkpt><trkpt lat="44.4923633" lon="10.4428617"><ele>665.75</ele><time>2026-04-19T14:26:02.936Z</time></trkpt><trkpt lat="44.492495" lon="10.4428883"><ele>669.0</ele><time>2026-04-19T14:26:03.931Z</time></trkpt><trkpt lat="44.4926133" lon="10.4428533"><ele>669.0</ele><time>2026-04-19T14:26:04.919Z</time></trkpt><trkpt lat="44.4927067" lon="10.442765"><ele>669.0</ele><time>2026-04-19T14:26:05.91Z</time></trkpt><trkpt lat="44.4927783" lon="10.4426333"><ele>669.0</ele><time>2026-04-19T14:26:06.91Z</time></trkpt><trkpt lat="44.4928133" lon="10.4424733"><ele>669.0</ele><time>2026-04-19T14:26:07.92Z</time></trkpt><trkpt lat="44.4927967" lon="10.4422867"><ele>669.0</ele><time>2026-04-19T14:26:08.909Z</time></trkpt><trkpt lat="44.4927383" lon="10.4420833"><ele>669.0</ele><time>2026-04-19T14:26:09.907Z</time></trkpt><trkpt lat="44.49266" lon="10.4418967"><ele>669.0</ele><time>2026-04-19T14:26:10.924Z</time></trkpt><trkpt lat="44.4925667" lon="10.4417533"><ele>669.0</ele><time>2026-04-19T14:26:11.941Z</time></trkpt><trkpt lat="44.4924767" lon="10.4416633"><ele>669.0</ele><time>2026-04-19T14:26:12.909Z</time></trkpt><trkpt lat="44.4923967" lon="10.4416183"><ele>669.0</ele><time>2026-04-19T14:26:13.907Z</time></trkpt><trkpt lat="44.4923433" lon="10.4415617"><ele>669.0</ele><time>2026-04-19T14:26:14.911Z</time></trkpt><trkpt lat="44.4923783" lon="10.4413717"><ele>669.0</ele><time>2026-04-19T14:26:16.913Z</time></trkpt><trkpt lat="44.4924417" lon="10.441235"><ele>669.0</ele><time>2026-04-19T14:26:17.909Z</time></trkpt><trkpt lat="44.492525" lon="10.44107"><ele>668.6</ele><time>2026-04-19T14:26:18.929Z</time></trkpt><trkpt lat="44.4926083" lon="10.4409383"><ele>668.2</ele><time>2026-04-19T14:26:19.916Z</time></trkpt><trkpt lat="44.4926917" lon="10.4408417"><ele>667.8000000000001</ele><time>2026-04-19T14:26:20.907Z</time></trkpt><trkpt lat="44.4927883" lon="10.4407933"><ele>667.4000000000001</ele><time>2026-04-19T14:26:21.908Z</time></trkpt><trkpt lat="44.4928967" lon="10.440785"><ele>667.0</ele><time>2026-04-19T14:26:22.909Z</time></trkpt><trkpt lat="44.4930133" lon="10.4408083"><ele>667.0</ele><time>2026-04-19T14:26:23.911Z</time></trkpt><trkpt lat="44.4931267" lon="10.44083"><ele>667.0</ele><time>2026-04-19T14:26:24.91Z</time></trkpt><trkpt lat="44.4932267" lon="10.440825"><ele>667.0</ele><time>2026-04-19T14:26:25.911Z</time></trkpt><trkpt lat="44.4933117" lon="10.4407717"><ele>667.0</ele><time>2026-04-19T14:26:26.914Z</time></trkpt><trkpt lat="44.4933833" lon="10.440675"><ele>667.0</ele><time>2026-04-19T14:26:27.911Z</time></trkpt><trkpt lat="44.4934567" lon="10.44059"><ele>667.0</ele><time>2026-04-19T14:26:28.963Z</time></trkpt><trkpt lat="44.4935317" lon="10.4405533"><ele>667.0</ele><time>2026-04-19T14:26:29.918Z</time></trkpt><trkpt lat="44.493615" lon="10.4405583"><ele>667.0</ele><time>2026-04-19T14:26:30.924Z</time></trkpt><trkpt lat="44.4937083" lon="10.4405767"><ele>667.0</ele><time>2026-04-19T14:26:31.921Z</time></trkpt><trkpt lat="44.4937967" lon="10.4405717"><ele>667.0</ele><time>2026-04-19T14:26:32.956Z</time></trkpt><trkpt lat="44.4938683" lon="10.4405267"><ele>667.0</ele><time>2026-04-19T14:26:33.919Z</time></trkpt><trkpt lat="44.49392" lon="10.440455"><ele>669.5</ele><time>2026-04-19T14:26:34.935Z</time></trkpt><trkpt lat="44.4939367" lon="10.440365"><ele>672.0</ele><time>2026-04-19T14:26:35.923Z</time></trkpt><trkpt lat="44.4938933" lon="10.4402283"><ele>674.5</ele><time>2026-04-19T14:26:36.919Z</time></trkpt><trkpt lat="44.493825" lon="10.4400483"><ele>677.0</ele><time>2026-04-19T14:26:37.918Z</time></trkpt><trkpt lat="44.493775" lon="10.4398433"><ele>671.5</ele><time>2026-04-19T14:26:38.94Z</time></trkpt><trkpt lat="44.4937367" lon="10.4396417"><ele>666.0</ele><time>2026-04-19T14:26:39.908Z</time></trkpt><trkpt lat="44.49372" lon="10.4394567"><ele>660.5</ele><time>2026-04-19T14:26:40.932Z</time></trkpt><trkpt lat="44.4937183" lon="10.43929"><ele>655.0</ele><time>2026-04-19T14:26:41.934Z</time></trkpt><trkpt lat="44.493735" lon="10.4391317"><ele>657.75</ele><time>2026-04-19T14:26:42.953Z</time></trkpt><trkpt lat="44.49378" lon="10.43897"><ele>660.5</ele><time>2026-04-19T14:26:43.933Z</time></trkpt><trkpt lat="44.49384" lon="10.4388083"><ele>663.25</ele><time>2026-04-19T14:26:44.923Z</time></trkpt><trkpt lat="44.4939083" lon="10.4386467"><ele>666.0</ele><time>2026-04-19T14:26:45.933Z</time></trkpt><trkpt lat="44.493965" lon="10.438495"><ele>666.0</ele><time>2026-04-19T14:26:46.95Z</time></trkpt><trkpt lat="44.4939967" lon="10.4383367"><ele>666.0</ele><time>2026-04-19T14:26:47.925Z</time></trkpt><trkpt lat="44.4940167" lon="10.4381833"><ele>666.0</ele><time>2026-04-19T14:26:48.918Z</time></trkpt><trkpt lat="44.4940333" lon="10.438035"><ele>666.0</ele><time>2026-04-19T14:26:49.936Z</time></trkpt><trkpt lat="44.4940633" lon="10.4378883"><ele>666.0</ele><time>2026-04-19T14:26:50.913Z</time></trkpt><trkpt lat="44.4941117" lon="10.437765"><ele>663.25</ele><time>2026-04-19T14:26:51.911Z</time></trkpt><trkpt lat="44.4942033" lon="10.43765"><ele>660.5</ele><time>2026-04-19T14:26:52.912Z</time></trkpt><trkpt lat="44.4942983" lon="10.4375117"><ele>657.75</ele><time>2026-04-19T14:26:53.908Z</time></trkpt><trkpt lat="44.494395" lon="10.4373433"><ele>655.0</ele><time>2026-04-19T14:26:54.907Z</time></trkpt><trkpt lat="44.49448" lon="10.43717"><ele>653.75</ele><time>2026-04-19T14:26:55.906Z</time></trkpt><trkpt lat="44.49455" lon="10.4370067"><ele>652.5</ele><time>2026-04-19T14:26:56.909Z</time></trkpt><trkpt lat="44.49462" lon="10.4368683"><ele>651.25</ele><time>2026-04-19T14:26:57.934Z</time></trkpt><trkpt lat="44.4947133" lon="10.4367667"><ele>650.0</ele><time>2026-04-19T14:26:58.927Z</time></trkpt><trkpt lat="44.4948233" lon="10.4366717"><ele>652.5</ele><time>2026-04-19T14:26:59.934Z</time></trkpt><trkpt lat="44.4949483" lon="10.43658"><ele>655.0</ele><time>2026-04-19T14:27:00.908Z</time></trkpt><trkpt lat="44.4950783" lon="10.43649"><ele>657.5</ele><time>2026-04-19T14:27:01.911Z</time></trkpt><trkpt lat="44.4952067" lon="10.436405"><ele>660.0</ele><time>2026-04-19T14:27:02.943Z</time></trkpt><trkpt lat="44.4953217" lon="10.436315"><ele>659.2</ele><time>2026-04-19T14:27:03.921Z</time></trkpt><trkpt lat="44.495425" lon="10.4362117"><ele>658.4</ele><time>2026-04-19T14:27:04.916Z</time></trkpt><trkpt lat="44.4955117" lon="10.4361083"><ele>657.5999999999999</ele><time>2026-04-19T14:27:05.91Z</time></trkpt><trkpt lat="44.495595" lon="10.436025"><ele>656.8</ele><time>2026-04-19T14:27:06.923Z</time></trkpt><trkpt lat="44.4956833" lon="10.43596"><ele>656.0</ele><time>2026-04-19T14:27:07.913Z</time></trkpt><trkpt lat="44.49579" lon="10.4359333"><ele>656.0</ele><time>2026-04-19T14:27:08.912Z</time></trkpt><trkpt lat="44.49593" lon="10.4359383"><ele>656.0</ele><time>2026-04-19T14:27:09.912Z</time></trkpt><trkpt lat="44.49608" lon="10.43595"><ele>656.0</ele><time>2026-04-19T14:27:10.914Z</time></trkpt><trkpt lat="44.4962333" lon="10.435965"><ele>656.0</ele><time>2026-04-19T14:27:11.905Z</time></trkpt><trkpt lat="44.4963833" lon="10.4359717"><ele>652.0</ele><time>2026-04-19T14:27:12.911Z</time></trkpt><trkpt lat="44.4965383" lon="10.43596"><ele>648.0</ele><time>2026-04-19T14:27:13.908Z</time></trkpt><trkpt lat="44.496675" lon="10.4359267"><ele>644.0</ele><time>2026-04-19T14:27:14.916Z</time></trkpt><trkpt lat="44.496815" lon="10.4358717"><ele>640.0</ele><time>2026-04-19T14:27:15.927Z</time></trkpt><trkpt lat="44.4969483" lon="10.43582"><ele>640.0</ele><time>2026-04-19T14:27:16.913Z</time></trkpt><trkpt lat="44.497085" lon="10.4357983"><ele>640.0</ele><time>2026-04-19T14:27:17.923Z</time></trkpt><trkpt lat="44.49721" lon="10.4357917"><ele>640.0</ele><time>2026-04-19T14:27:18.913Z</time></trkpt><trkpt lat="44.4973233" lon="10.4357833"><ele>640.0</ele><time>2026-04-19T14:27:19.911Z</time></trkpt><trkpt lat="44.49743" lon="10.4357467"><ele>640.2</ele><time>2026-04-19T14:27:20.912Z</time></trkpt><trkpt lat="44.4975233" lon="10.435675"><ele>640.4</ele><time>2026-04-19T14:27:21.935Z</time></trkpt><trkpt lat="44.4975883" lon="10.4355667"><ele>640.5999999999999</ele><time>2026-04-19T14:27:22.934Z</time></trkpt><trkpt lat="44.49764" lon="10.4354433"><ele>640.8</ele><time>2026-04-19T14:27:23.935Z</time></trkpt><trkpt lat="44.4977017" lon="10.435335"><ele>641.0</ele><time>2026-04-19T14:27:24.91Z</time></trkpt><trkpt lat="44.4977783" lon="10.4352583"><ele>638.5999999999999</ele><time>2026-04-19T14:27:25.946Z</time></trkpt><trkpt lat="44.49786" lon="10.4352283"><ele>636.1999999999999</ele><time>2026-04-19T14:27:26.915Z</time></trkpt><trkpt lat="44.4979317" lon="10.435245"><ele>633.8</ele><time>2026-04-19T14:27:27.925Z</time></trkpt><trkpt lat="44.4980017" lon="10.4353317"><ele>631.4</ele><time>2026-04-19T14:27:28.911Z</time></trkpt><trkpt lat="44.498075" lon="10.435455"><ele>629.0</ele><time>2026-04-19T14:27:29.925Z</time></trkpt><trkpt lat="44.4981517" lon="10.4356283"><ele>628.25</ele><time>2026-04-19T14:27:30.916Z</time></trkpt><trkpt lat="44.498225" lon="10.43581"><ele>627.5</ele><time>2026-04-19T14:27:31.951Z</time></trkpt><trkpt lat="44.4982833" lon="10.4359933"><ele>626.75</ele><time>2026-04-19T14:27:32.928Z</time></trkpt><trkpt lat="44.4983217" lon="10.4361767"><ele>626.0</ele><time>2026-04-19T14:27:33.908Z</time></trkpt><trkpt lat="44.4983467" lon="10.436365"><ele>627.0</ele><time>2026-04-19T14:27:34.912Z</time></trkpt><trkpt lat="44.4983667" lon="10.436555"><ele>628.0</ele><time>2026-04-19T14:27:35.905Z</time></trkpt><trkpt lat="44.4983783" lon="10.436755"><ele>629.0</ele><time>2026-04-19T14:27:36.912Z</time></trkpt><trkpt lat="44.4983867" lon="10.43696"><ele>630.0</ele><time>2026-04-19T14:27:37.915Z</time></trkpt><trkpt lat="44.4983967" lon="10.4371667"><ele>630.0</ele><time>2026-04-19T14:27:38.923Z</time></trkpt><trkpt lat="44.49841" lon="10.4373717"><ele>630.0</ele><time>2026-04-19T14:27:39.91Z</time></trkpt><trkpt lat="44.4984117" lon="10.4375733"><ele>630.0</ele><time>2026-04-19T14:27:40.955Z</time></trkpt><trkpt lat="44.4984167" lon="10.43777"><ele>630.0</ele><time>2026-04-19T14:27:41.927Z</time></trkpt><trkpt lat="44.4984033" lon="10.4379583"><ele>627.75</ele><time>2026-04-19T14:27:42.908Z</time></trkpt><trkpt lat="44.4983917" lon="10.4381467"><ele>625.5</ele><time>2026-04-19T14:27:43.908Z</time></trkpt><trkpt lat="44.49837" lon="10.4383167"><ele>623.25</ele><time>2026-04-19T14:27:44.907Z</time></trkpt><trkpt lat="44.4983367" lon="10.4384717"><ele>621.0</ele><time>2026-04-19T14:27:45.914Z</time></trkpt><trkpt lat="44.4982967" lon="10.4386033"><ele>621.0</ele><time>2026-04-19T14:27:46.912Z</time></trkpt><trkpt lat="44.4982617" lon="10.4387217"><ele>621.0</ele><time>2026-04-19T14:27:47.934Z</time></trkpt><trkpt lat="44.4982483" lon="10.4388317"><ele>621.0</ele><time>2026-04-19T14:27:48.93Z</time></trkpt><trkpt lat="44.4982633" lon="10.438935"><ele>621.0</ele><time>2026-04-19T14:27:49.902Z</time></trkpt><trkpt lat="44.498305" lon="10.4390183"><ele>621.0</ele><time>2026-04-19T14:27:50.933Z</time></trkpt><trkpt lat="44.4983883" lon="10.4390683"><ele>621.0</ele><time>2026-04-19T14:27:51.911Z</time></trkpt><trkpt lat="44.4985083" lon="10.4390817"><ele>619.5</ele><time>2026-04-19T14:27:52.916Z</time></trkpt><trkpt lat="44.4986433" lon="10.43907"><ele>618.0</ele><time>2026-04-19T14:27:53.905Z</time></trkpt><trkpt lat="44.4987883" lon="10.4390467"><ele>616.5</ele><time>2026-04-19T14:27:54.933Z</time></trkpt><trkpt lat="44.4989333" lon="10.43902"><ele>615.0</ele><time>2026-04-19T14:27:55.941Z</time></trkpt><trkpt lat="44.4990683" lon="10.4389867"><ele>611.75</ele><time>2026-04-19T14:27:56.911Z</time></trkpt><trkpt lat="44.4992" lon="10.4389417"><ele>608.5</ele><time>2026-04-19T14:27:57.934Z</time></trkpt><trkpt lat="44.4993217" lon="10.4388667"><ele>605.25</ele><time>2026-04-19T14:27:58.976Z</time></trkpt><trkpt lat="44.4994233" lon="10.4387533"><ele>602.0</ele><time>2026-04-19T14:27:59.941Z</time></trkpt><trkpt lat="44.499505" lon="10.4385933"><ele>602.0</ele><time>2026-04-19T14:28:00.923Z</time></trkpt><trkpt lat="44.4995583" lon="10.4384"><ele>602.0</ele><time>2026-04-19T14:28:01.932Z</time></trkpt><trkpt lat="44.4996033" lon="10.4381833"><ele>602.0</ele><time>2026-04-19T14:28:02.925Z</time></trkpt><trkpt lat="44.4996517" lon="10.43796"><ele>596.3333333333333</ele><time>2026-04-19T14:28:03.912Z</time></trkpt><trkpt lat="44.49972" lon="10.4377467"><ele>590.6666666666666</ele><time>2026-04-19T14:28:04.915Z</time></trkpt><trkpt lat="44.4998017" lon="10.4375383"><ele>585.0</ele><time>2026-04-19T14:28:05.92Z</time></trkpt><trkpt lat="44.49989" lon="10.4373433"><ele>585.0</ele><time>2026-04-19T14:28:06.911Z</time></trkpt><trkpt lat="44.4999867" lon="10.43716"><ele>585.0</ele><time>2026-04-19T14:28:07.979Z</time></trkpt><trkpt lat="44.5000817" lon="10.4369817"><ele>585.0</ele><time>2026-04-19T14:28:08.941Z</time></trkpt><trkpt lat="44.50017" lon="10.43681"><ele>585.75</ele><time>2026-04-19T14:28:09.911Z</time></trkpt><trkpt lat="44.5002483" lon="10.436655"><ele>586.5</ele><time>2026-04-19T14:28:10.921Z</time></trkpt><trkpt lat="44.5003217" lon="10.4365133"><ele>587.25</ele><time>2026-04-19T14:28:11.931Z</time></trkpt><trkpt lat="44.5003933" lon="10.43638"><ele>588.0</ele><time>2026-04-19T14:28:12.91Z</time></trkpt><trkpt lat="44.5004667" lon="10.436255"><ele>585.5</ele><time>2026-04-19T14:28:13.947Z</time></trkpt><trkpt lat="44.5005533" lon="10.4361367"><ele>583.0</ele><time>2026-04-19T14:28:14.92Z</time></trkpt><trkpt lat="44.5006583" lon="10.4360217"><ele>580.5</ele><time>2026-04-19T14:28:15.917Z</time></trkpt><trkpt lat="44.500775" lon="10.4359067"><ele>578.0</ele><time>2026-04-19T14:28:16.951Z</time></trkpt><trkpt lat="44.5008933" lon="10.4357917"><ele>578.0</ele><time>2026-04-19T14:28:17.933Z</time></trkpt><trkpt lat="44.5010133" lon="10.4356783"><ele>578.0</ele><time>2026-04-19T14:28:18.907Z</time></trkpt><trkpt lat="44.5011283" lon="10.4355667"><ele>578.0</ele><time>2026-04-19T14:28:19.911Z</time></trkpt><trkpt lat="44.5012383" lon="10.435455"><ele>578.0</ele><time>2026-04-19T14:28:20.923Z</time></trkpt><trkpt lat="44.501345" lon="10.43534"><ele>575.25</ele><time>2026-04-19T14:28:21.913Z</time></trkpt><trkpt lat="44.501455" lon="10.43523"><ele>572.5</ele><time>2026-04-19T14:28:22.985Z</time></trkpt><trkpt lat="44.5015733" lon="10.4351283"><ele>569.75</ele><time>2026-04-19T14:28:23.968Z</time></trkpt><trkpt lat="44.5016967" lon="10.4350467"><ele>567.0</ele><time>2026-04-19T14:28:24.922Z</time></trkpt><trkpt lat="44.5018233" lon="10.4349833"><ele>567.0</ele><time>2026-04-19T14:28:25.934Z</time></trkpt><trkpt lat="44.5019583" lon="10.4349333"><ele>567.0</ele><time>2026-04-19T14:28:26.915Z</time></trkpt><trkpt lat="44.5021" lon="10.4348933"><ele>567.0</ele><time>2026-04-19T14:28:27.94Z</time></trkpt><trkpt lat="44.502245" lon="10.4348567"><ele>567.0</ele><time>2026-04-19T14:28:28.913Z</time></trkpt><trkpt lat="44.5023833" lon="10.4348183"><ele>565.25</ele><time>2026-04-19T14:28:29.912Z</time></trkpt><trkpt lat="44.5025183" lon="10.4347683"><ele>563.5</ele><time>2026-04-19T14:28:30.91Z</time></trkpt><trkpt lat="44.5026483" lon="10.4346967"><ele>561.75</ele><time>2026-04-19T14:28:31.924Z</time></trkpt><trkpt lat="44.5027767" lon="10.434605"><ele>560.0</ele><time>2026-04-19T14:28:32.91Z</time></trkpt><trkpt lat="44.5029033" lon="10.434515"><ele>559.75</ele><time>2026-04-19T14:28:33.983Z</time></trkpt><trkpt lat="44.5030283" lon="10.4344233"><ele>559.5</ele><time>2026-04-19T14:28:34.928Z</time></trkpt><trkpt lat="44.5031467" lon="10.43432"><ele>559.25</ele><time>2026-04-19T14:28:35.912Z</time></trkpt><trkpt lat="44.5032517" lon="10.434195"><ele>559.0</ele><time>2026-04-19T14:28:36.91Z</time></trkpt><trkpt lat="44.50334" lon="10.4340467"><ele>559.0</ele><time>2026-04-19T14:28:37.914Z</time></trkpt><trkpt lat="44.5034117" lon="10.4338833"><ele>559.0</ele><time>2026-04-19T14:28:38.945Z</time></trkpt><trkpt lat="44.5034633" lon="10.4337217"><ele>559.0</ele><time>2026-04-19T14:28:39.91Z</time></trkpt><trkpt lat="44.5034983" lon="10.4335817"><ele>559.0</ele><time>2026-04-19T14:28:40.938Z</time></trkpt><trkpt lat="44.5035333" lon="10.4334733"><ele>556.4</ele><time>2026-04-19T14:28:41.907Z</time></trkpt><trkpt lat="44.5035817" lon="10.4334"><ele>553.8</ele><time>2026-04-19T14:28:42.968Z</time></trkpt><trkpt lat="44.5036483" lon="10.4333533"><ele>551.2</ele><time>2026-04-19T14:28:43.913Z</time></trkpt><trkpt lat="44.5037317" lon="10.433355"><ele>548.6</ele><time>2026-04-19T14:28:44.919Z</time></trkpt><trkpt lat="44.5038333" lon="10.4334117"><ele>546.0</ele><time>2026-04-19T14:28:45.91Z</time></trkpt><trkpt lat="44.5039383" lon="10.4334917"><ele>546.0</ele><time>2026-04-19T14:28:46.939Z</time></trkpt><trkpt lat="44.504045" lon="10.4335633"><ele>546.0</ele><time>2026-04-19T14:28:47.929Z</time></trkpt><trkpt lat="44.5041467" lon="10.4336167"><ele>546.0</ele><time>2026-04-19T14:28:48.909Z</time></trkpt><trkpt lat="44.5042483" lon="10.4336517"><ele>546.0</ele><time>2026-04-19T14:28:49.98Z</time></trkpt><trkpt lat="44.5043467" lon="10.4336683"><ele>546.0</ele><time>2026-04-19T14:28:51.004Z</time></trkpt><trkpt lat="44.50444" lon="10.4336817"><ele>546.0</ele><time>2026-04-19T14:28:51.966Z</time></trkpt><trkpt lat="44.504525" lon="10.4337"><ele>546.0</ele><time>2026-04-19T14:28:52.923Z</time></trkpt><trkpt lat="44.5046033" lon="10.433725"><ele>546.0</ele><time>2026-04-19T14:28:53.946Z</time></trkpt><trkpt lat="44.504675" lon="10.4337683"><ele>546.0</ele><time>2026-04-19T14:28:54.971Z</time></trkpt><trkpt lat="44.50474" lon="10.4338333"><ele>546.0</ele><time>2026-04-19T14:28:55.927Z</time></trkpt><trkpt lat="44.504795" lon="10.433915"><ele>546.0</ele><time>2026-04-19T14:28:56.935Z</time></trkpt><trkpt lat="44.5048467" lon="10.4340033"><ele>545.5</ele><time>2026-04-19T14:28:57.95Z</time></trkpt><trkpt lat="44.504895" lon="10.4341"><ele>545.0</ele><time>2026-04-19T14:28:58.934Z</time></trkpt><trkpt lat="44.50494" lon="10.4341967"><ele>544.5</ele><time>2026-04-19T14:28:59.917Z</time></trkpt><trkpt lat="44.50498" lon="10.434295"><ele>544.0</ele><time>2026-04-19T14:29:00.924Z</time></trkpt><trkpt lat="44.5050233" lon="10.43439"><ele>543.5</ele><time>2026-04-19T14:29:01.909Z</time></trkpt><trkpt lat="44.50507" lon="10.434485"><ele>543.0</ele><time>2026-04-19T14:29:02.912Z</time></trkpt><trkpt lat="44.5051267" lon="10.4345783"><ele>543.25</ele><time>2026-04-19T14:29:03.932Z</time></trkpt><trkpt lat="44.5052" lon="10.434665"><ele>543.5</ele><time>2026-04-19T14:29:04.956Z</time></trkpt><trkpt lat="44.5052983" lon="10.4347417"><ele>543.75</ele><time>2026-04-19T14:29:05.912Z</time></trkpt><trkpt lat="44.5054133" lon="10.4348117"><ele>544.0</ele><time>2026-04-19T14:29:06.93Z</time></trkpt><trkpt lat="44.5055317" lon="10.43487"><ele>540.5</ele><time>2026-04-19T14:29:07.911Z</time></trkpt><trkpt lat="44.5056517" lon="10.4349233"><ele>537.0</ele><time>2026-04-19T14:29:08.922Z</time></trkpt><trkpt lat="44.5057767" lon="10.4349967"><ele>533.5</ele><time>2026-04-19T14:29:09.915Z</time></trkpt><trkpt lat="44.505905" lon="10.4350917"><ele>530.0</ele><time>2026-04-19T14:29:10.93Z</time></trkpt><trkpt lat="44.50604" lon="10.4351933"><ele>530.0</ele><time>2026-04-19T14:29:11.924Z</time></trkpt><trkpt lat="44.5061733" lon="10.435285"><ele>530.0</ele><time>2026-04-19T14:29:12.913Z</time></trkpt><trkpt lat="44.5063" lon="10.43537"><ele>530.0</ele><time>2026-04-19T14:29:13.915Z</time></trkpt><trkpt lat="44.50642" lon="10.4354567"><ele>530.0</ele><time>2026-04-19T14:29:14.918Z</time></trkpt><trkpt lat="44.5065233" lon="10.4355567"><ele>529.0</ele><time>2026-04-19T14:29:15.921Z</time></trkpt><trkpt lat="44.5065983" lon="10.4356733"><ele>528.0</ele><time>2026-04-19T14:29:16.911Z</time></trkpt><trkpt lat="44.5066367" lon="10.435805"><ele>527.0</ele><time>2026-04-19T14:29:17.91Z</time></trkpt><trkpt lat="44.5066583" lon="10.43594"><ele>526.0</ele><time>2026-04-19T14:29:18.917Z</time></trkpt><trkpt lat="44.5066833" lon="10.4360767"><ele>525.0</ele><time>2026-04-19T14:29:19.919Z</time></trkpt><trkpt lat="44.5067267" lon="10.4362017"><ele>524.0</ele><time>2026-04-19T14:29:20.914Z</time></trkpt><trkpt lat="44.506795" lon="10.4363083"><ele>523.0</ele><time>2026-04-19T14:29:21.911Z</time></trkpt><trkpt lat="44.5068917" lon="10.4363967"><ele>522.0</ele><time>2026-04-19T14:29:22.931Z</time></trkpt><trkpt lat="44.5070067" lon="10.4364733"><ele>521.0</ele><time>2026-04-19T14:29:23.943Z</time></trkpt><trkpt lat="44.5071317" lon="10.4365483"><ele>521.0</ele><time>2026-04-19T14:29:24.913Z</time></trkpt><trkpt lat="44.5072583" lon="10.4366217"><ele>521.0</ele><time>2026-04-19T14:29:25.915Z</time></trkpt><trkpt lat="44.5073817" lon="10.4366933"><ele>521.0</ele><time>2026-04-19T14:29:26.924Z</time></trkpt><trkpt lat="44.5075033" lon="10.4367617"><ele>521.0</ele><time>2026-04-19T14:29:27.949Z</time></trkpt><trkpt lat="44.50762" lon="10.43683"><ele>521.0</ele><time>2026-04-19T14:29:28.926Z</time></trkpt><trkpt lat="44.50773" lon="10.4369133"><ele>521.0</ele><time>2026-04-19T14:29:29.911Z</time></trkpt><trkpt lat="44.5078333" lon="10.4369933"><ele>521.0</ele><time>2026-04-19T14:29:30.935Z</time></trkpt><trkpt lat="44.507935" lon="10.43704"><ele>521.0</ele><time>2026-04-19T14:29:31.909Z</time></trkpt><trkpt lat="44.5080383" lon="10.4370417"><ele>519.25</ele><time>2026-04-19T14:29:32.919Z</time></trkpt><trkpt lat="44.5081367" lon="10.4370067"><ele>517.5</ele><time>2026-04-19T14:29:33.909Z</time></trkpt><trkpt lat="44.50823" lon="10.43693"><ele>515.75</ele><time>2026-04-19T14:29:34.909Z</time></trkpt><trkpt lat="44.5083133" lon="10.43681"><ele>514.0</ele><time>2026-04-19T14:29:35.924Z</time></trkpt><trkpt lat="44.508395" lon="10.4366767"><ele>514.0</ele><time>2026-04-19T14:29:36.914Z</time></trkpt><trkpt lat="44.508485" lon="10.4365517"><ele>514.0</ele><time>2026-04-19T14:29:37.931Z</time></trkpt><trkpt lat="44.5085867" lon="10.4364517"><ele>514.0</ele><time>2026-04-19T14:29:38.976Z</time></trkpt><trkpt lat="44.508705" lon="10.43637"><ele>514.0</ele><time>2026-04-19T14:29:39.911Z</time></trkpt><trkpt lat="44.50883" lon="10.4363"><ele>510.5</ele><time>2026-04-19T14:29:40.964Z</time></trkpt><trkpt lat="44.508955" lon="10.4362383"><ele>507.0</ele><time>2026-04-19T14:29:41.925Z</time></trkpt><trkpt lat="44.5090817" lon="10.43618"><ele>503.5</ele><time>2026-04-19T14:29:42.911Z</time></trkpt><trkpt lat="44.509205" lon="10.43613"><ele>500.0</ele><time>2026-04-19T14:29:43.91Z</time></trkpt><trkpt lat="44.5093267" lon="10.4360967"><ele>500.0</ele><time>2026-04-19T14:29:44.92Z</time></trkpt><trkpt lat="44.5094467" lon="10.4360883"><ele>500.0</ele><time>2026-04-19T14:29:45.944Z</time></trkpt><trkpt lat="44.5095617" lon="10.4361133"><ele>500.0</ele><time>2026-04-19T14:29:46.912Z</time></trkpt><trkpt lat="44.509665" lon="10.4361533"><ele>500.0</ele><time>2026-04-19T14:29:47.925Z</time></trkpt><trkpt lat="44.50976" lon="10.4361833"><ele>500.0</ele><time>2026-04-19T14:29:48.965Z</time></trkpt><trkpt lat="44.5098467" lon="10.4361717"><ele>499.0</ele><time>2026-04-19T14:29:49.932Z</time></trkpt><trkpt lat="44.5099283" lon="10.4361133"><ele>498.0</ele><time>2026-04-19T14:29:50.932Z</time></trkpt><trkpt lat="44.5099883" lon="10.4360017"><ele>497.0</ele><time>2026-04-19T14:29:51.913Z</time></trkpt><trkpt lat="44.5100467" lon="10.4358867"><ele>496.0</ele><time>2026-04-19T14:29:52.983Z</time></trkpt><trkpt lat="44.5101233" lon="10.4357783"><ele>495.0</ele><time>2026-04-19T14:29:53.914Z</time></trkpt><trkpt lat="44.51022" lon="10.4357"><ele>495.0</ele><time>2026-04-19T14:29:54.939Z</time></trkpt><trkpt lat="44.510325" lon="10.4356533"><ele>495.0</ele><time>2026-04-19T14:29:55.912Z</time></trkpt><trkpt lat="44.51043" lon="10.43563"><ele>495.0</ele><time>2026-04-19T14:29:56.912Z</time></trkpt><trkpt lat="44.5105317" lon="10.43562"><ele>495.0</ele><time>2026-04-19T14:29:57.953Z</time></trkpt><trkpt lat="44.51062" lon="10.435645"><ele>495.0</ele><time>2026-04-19T14:29:58.96Z</time></trkpt><trkpt lat="44.5106967" lon="10.43569"><ele>493.8</ele><time>2026-04-19T14:29:59.914Z</time></trkpt><trkpt lat="44.510775" lon="10.4356917"><ele>492.6</ele><time>2026-04-19T14:30:00.93Z</time></trkpt><trkpt lat="44.5108583" lon="10.43562"><ele>491.4</ele><time>2026-04-19T14:30:01.929Z</time></trkpt><trkpt lat="44.5109383" lon="10.4355067"><ele>490.2</ele><time>2026-04-19T14:30:02.915Z</time></trkpt><trkpt lat="44.51102" lon="10.4353883"><ele>489.0</ele><time>2026-04-19T14:30:03.93Z</time></trkpt><trkpt lat="44.5111083" lon="10.43529"><ele>487.4</ele><time>2026-04-19T14:30:04.923Z</time></trkpt><trkpt lat="44.511205" lon="10.4352167"><ele>485.79999999999995</ele><time>2026-04-19T14:30:05.912Z</time></trkpt><trkpt lat="44.5113083" lon="10.4351833"><ele>484.20000000000005</ele><time>2026-04-19T14:30:06.92Z</time></trkpt><trkpt lat="44.5114117" lon="10.4351983"><ele>482.6</ele><time>2026-04-19T14:30:07.915Z</time></trkpt><trkpt lat="44.511515" lon="10.4352533"><ele>481.0</ele><time>2026-04-19T14:30:08.915Z</time></trkpt><trkpt lat="44.5116217" lon="10.435315"><ele>480.4</ele><time>2026-04-19T14:30:09.98Z</time></trkpt><trkpt lat="44.5117267" lon="10.43535"><ele>479.8</ele><time>2026-04-19T14:30:10.911Z</time></trkpt><trkpt lat="44.5118233" lon="10.4353283"><ele>479.19999999999993</ele><time>2026-04-19T14:30:11.978Z</time></trkpt><trkpt lat="44.5119183" lon="10.4352583"><ele>478.59999999999997</ele><time>2026-04-19T14:30:12.91Z</time></trkpt><trkpt lat="44.51201" lon="10.4351733"><ele>478.0</ele><time>2026-04-19T14:30:13.925Z</time></trkpt><trkpt lat="44.5121067" lon="10.435105"><ele>477.0</ele><time>2026-04-19T14:30:14.912Z</time></trkpt><trkpt lat="44.5122083" lon="10.43507"><ele>476.0</ele><time>2026-04-19T14:30:15.905Z</time></trkpt><trkpt lat="44.5123183" lon="10.43508"><ele>475.0</ele><time>2026-04-19T14:30:16.924Z</time></trkpt><trkpt lat="44.51244" lon="10.4351283"><ele>474.0</ele><time>2026-04-19T14:30:17.943Z</time></trkpt><trkpt lat="44.5125683" lon="10.435185"><ele>474.0</ele><time>2026-04-19T14:30:18.912Z</time></trkpt><trkpt lat="44.5126967" lon="10.4352333"><ele>474.0</ele><time>2026-04-19T14:30:19.911Z</time></trkpt><trkpt lat="44.51282" lon="10.435265"><ele>474.0</ele><time>2026-04-19T14:30:20.908Z</time></trkpt><trkpt lat="44.5129417" lon="10.4352833"><ele>474.0</ele><time>2026-04-19T14:30:21.918Z</time></trkpt><trkpt lat="44.51305" lon="10.435295"><ele>473.1666666666667</ele><time>2026-04-19T14:30:22.92Z</time></trkpt><trkpt lat="44.51314" lon="10.435295"><ele>472.33333333333337</ele><time>2026-04-19T14:30:23.907Z</time></trkpt><trkpt lat="44.5132133" lon="10.4352733"><ele>471.5</ele><time>2026-04-19T14:30:24.915Z</time></trkpt><trkpt lat="44.5132717" lon="10.4352233"><ele>470.6666666666667</ele><time>2026-04-19T14:30:25.978Z</time></trkpt><trkpt lat="44.51329" lon="10.435125"><ele>469.83333333333337</ele><time>2026-04-19T14:30:26.909Z</time></trkpt><trkpt lat="44.5132767" lon="10.435015"><ele>469.0</ele><time>2026-04-19T14:30:27.911Z</time></trkpt><trkpt lat="44.5132417" lon="10.4349133"><ele>469.00000000000006</ele><time>2026-04-19T14:30:28.999Z</time></trkpt><trkpt lat="44.5131783" lon="10.4348083"><ele>469.0</ele><time>2026-04-19T14:30:29.922Z</time></trkpt><trkpt lat="44.5131117" lon="10.434715"><ele>469.0</ele><time>2026-04-19T14:30:30.911Z</time></trkpt><trkpt lat="44.5130483" lon="10.4346317"><ele>469.0</ele><time>2026-04-19T14:30:31.912Z</time></trkpt><trkpt lat="44.5129917" lon="10.4345467"><ele>469.00000000000006</ele><time>2026-04-19T14:30:32.992Z</time></trkpt><trkpt lat="44.5129483" lon="10.4344567"><ele>469.0</ele><time>2026-04-19T14:30:34.08Z</time></trkpt><trkpt lat="44.5129467" lon="10.4342867"><ele>466.75</ele><time>2026-04-19T14:30:35.922Z</time></trkpt><trkpt lat="44.513035" lon="10.4342417"><ele>464.5</ele><time>2026-04-19T14:30:37.931Z</time></trkpt><trkpt lat="44.513115" lon="10.434365"><ele>462.25</ele><time>2026-04-19T14:30:38.921Z</time></trkpt><trkpt lat="44.5132033" lon="10.43448"><ele>460.0</ele><time>2026-04-19T14:30:39.91Z</time></trkpt><trkpt lat="44.5133083" lon="10.4345783"><ele>458.5</ele><time>2026-04-19T14:30:40.913Z</time></trkpt><trkpt lat="44.5134283" lon="10.43465"><ele>457.0</ele><time>2026-04-19T14:30:41.912Z</time></trkpt><trkpt lat="44.5135567" lon="10.4347033"><ele>455.5</ele><time>2026-04-19T14:30:43.082Z</time></trkpt><trkpt lat="44.51368" lon="10.43475"><ele>454.0</ele><time>2026-04-19T14:30:43.953Z</time></trkpt><trkpt lat="44.5137967" lon="10.43477"><ele>454.0</ele><time>2026-04-19T14:30:44.927Z</time></trkpt><trkpt lat="44.5139067" lon="10.43475"><ele>454.0</ele><time>2026-04-19T14:30:45.943Z</time></trkpt><trkpt lat="44.5140083" lon="10.434705"><ele>454.0</ele><time>2026-04-19T14:30:46.914Z</time></trkpt><trkpt lat="44.514105" lon="10.434675"><ele>454.0</ele><time>2026-04-19T14:30:47.908Z</time></trkpt><trkpt lat="44.5141983" lon="10.4346933"><ele>454.0</ele><time>2026-04-19T14:30:48.907Z</time></trkpt><trkpt lat="44.5142883" lon="10.4347533"><ele>454.0</ele><time>2026-04-19T14:30:49.909Z</time></trkpt><trkpt lat="44.5143783" lon="10.4348433"><ele>454.0</ele><time>2026-04-19T14:30:50.909Z</time></trkpt><trkpt lat="44.5144633" lon="10.4349283"><ele>454.0</ele><time>2026-04-19T14:30:51.915Z</time></trkpt><trkpt lat="44.5145533" lon="10.43498"><ele>454.0</ele><time>2026-04-19T14:30:52.928Z</time></trkpt><trkpt lat="44.5146483" lon="10.434995"><ele>454.0</ele><time>2026-04-19T14:30:53.906Z</time></trkpt><trkpt lat="44.5147483" lon="10.4349883"><ele>452.00000000000006</ele><time>2026-04-19T14:30:54.949Z</time></trkpt><trkpt lat="44.51485" lon="10.4349933"><ele>450.0</ele><time>2026-04-19T14:30:55.963Z</time></trkpt><trkpt lat="44.5149433" lon="10.435025"><ele>448.0</ele><time>2026-04-19T14:30:56.905Z</time></trkpt><trkpt lat="44.515015" lon="10.4350883"><ele>446.0</ele><time>2026-04-19T14:30:57.939Z</time></trkpt><trkpt lat="44.5150617" lon="10.4351767"><ele>444.00000000000006</ele><time>2026-04-19T14:30:58.908Z</time></trkpt><trkpt lat="44.515085" lon="10.43527"><ele>442.0</ele><time>2026-04-19T14:30:59.962Z</time></trkpt><trkpt lat="44.5151" lon="10.435365"><ele>442.0</ele><time>2026-04-19T14:31:00.91Z</time></trkpt><trkpt lat="44.5151733" lon="10.4354783"><ele>442.00000000000006</ele><time>2026-04-19T14:31:02.924Z</time></trkpt><trkpt lat="44.515255" lon="10.435475"><ele>442.00000000000006</ele><time>2026-04-19T14:31:03.927Z</time></trkpt><trkpt lat="44.515355" lon="10.4354367"><ele>442.0</ele><time>2026-04-19T14:31:04.971Z</time></trkpt><trkpt lat="44.515465" lon="10.435385"><ele>442.0</ele><time>2026-04-19T14:31:05.908Z</time></trkpt><trkpt lat="44.515575" lon="10.4353267"><ele>439.25</ele><time>2026-04-19T14:31:06.915Z</time></trkpt><trkpt lat="44.5156867" lon="10.4352667"><ele>436.5</ele><time>2026-04-19T14:31:07.912Z</time></trkpt><trkpt lat="44.5158" lon="10.4351967"><ele>433.75</ele><time>2026-04-19T14:31:08.955Z</time></trkpt><trkpt lat="44.515915" lon="10.4351067"><ele>431.0</ele><time>2026-04-19T14:31:09.934Z</time></trkpt><trkpt lat="44.5160333" lon="10.4350033"><ele>431.0</ele><time>2026-04-19T14:31:10.914Z</time></trkpt><trkpt lat="44.516145" lon="10.43489"><ele>431.0</ele><time>2026-04-19T14:31:11.932Z</time></trkpt><trkpt lat="44.51625" lon="10.4347783"><ele>431.0</ele><time>2026-04-19T14:31:12.934Z</time></trkpt><trkpt lat="44.516355" lon="10.4346767"><ele>431.0</ele><time>2026-04-19T14:31:13.919Z</time></trkpt><trkpt lat="44.5164617" lon="10.4345983"><ele>430.20000000000005</ele><time>2026-04-19T14:31:14.94Z</time></trkpt><trkpt lat="44.5165667" lon="10.4345333"><ele>429.40000000000003</ele><time>2026-04-19T14:31:15.911Z</time></trkpt><trkpt lat="44.5166583" lon="10.43446"><ele>428.6</ele><time>2026-04-19T14:31:16.912Z</time></trkpt><trkpt lat="44.5167333" lon="10.434355"><ele>427.8</ele><time>2026-04-19T14:31:17.911Z</time></trkpt><trkpt lat="44.5167933" lon="10.4342317"><ele>427.0</ele><time>2026-04-19T14:31:18.91Z</time></trkpt><trkpt lat="44.51684" lon="10.4340967"><ele>427.0</ele><time>2026-04-19T14:31:19.919Z</time></trkpt><trkpt lat="44.5168867" lon="10.433975"><ele>427.00000000000006</ele><time>2026-04-19T14:31:20.909Z</time></trkpt><trkpt lat="44.5169417" lon="10.4338933"><ele>427.00000000000006</ele><time>2026-04-19T14:31:21.912Z</time></trkpt><trkpt lat="44.5170067" lon="10.4338517"><ele>427.0</ele><time>2026-04-19T14:31:22.991Z</time></trkpt><trkpt lat="44.5171" lon="10.4338717"><ele>427.0</ele><time>2026-04-19T14:31:23.915Z</time></trkpt><trkpt lat="44.517215" lon="10.4339183"><ele>427.5</ele><time>2026-04-19T14:31:24.939Z</time></trkpt><trkpt lat="44.5173383" lon="10.4339417"><ele>428.0</ele><time>2026-04-19T14:31:25.919Z</time></trkpt><trkpt lat="44.5174733" lon="10.43393"><ele>428.5</ele><time>2026-04-19T14:31:26.912Z</time></trkpt><trkpt lat="44.5176067" lon="10.4339117"><ele>429.0</ele><time>2026-04-19T14:31:27.92Z</time></trkpt><trkpt lat="44.51773" lon="10.433885"><ele>429.0</ele><time>2026-04-19T14:31:28.909Z</time></trkpt><trkpt lat="44.5178467" lon="10.4338367"><ele>429.0</ele><time>2026-04-19T14:31:29.916Z</time></trkpt><trkpt lat="44.5179533" lon="10.4337883"><ele>429.0</ele><time>2026-04-19T14:31:30.912Z</time></trkpt><trkpt lat="44.51804" lon="10.4337533"><ele>429.0</ele><time>2026-04-19T14:31:31.91Z</time></trkpt><trkpt lat="44.5181117" lon="10.4337383"><ele>429.0</ele><time>2026-04-19T14:31:32.912Z</time></trkpt><trkpt lat="44.518175" lon="10.433755"><ele>428.3333333333333</ele><time>2026-04-19T14:31:33.927Z</time></trkpt><trkpt lat="44.518215" lon="10.4338317"><ele>427.66666666666663</ele><time>2026-04-19T14:31:34.912Z</time></trkpt><trkpt lat="44.5182517" lon="10.4339367"><ele>427.0</ele><time>2026-04-19T14:31:35.933Z</time></trkpt><trkpt lat="44.5183" lon="10.4340417"><ele>426.3333333333333</ele><time>2026-04-19T14:31:36.909Z</time></trkpt><trkpt lat="44.5183733" lon="10.43412"><ele>425.66666666666663</ele><time>2026-04-19T14:31:37.925Z</time></trkpt><trkpt lat="44.5184767" lon="10.4341367"><ele>425.0</ele><time>2026-04-19T14:31:38.921Z</time></trkpt><trkpt lat="44.51859" lon="10.43414"><ele>425.0</ele><time>2026-04-19T14:31:39.908Z</time></trkpt><trkpt lat="44.5187083" lon="10.4341683"><ele>425.0</ele><time>2026-04-19T14:31:40.923Z</time></trkpt><trkpt lat="44.51883" lon="10.4342283"><ele>425.0</ele><time>2026-04-19T14:31:41.911Z</time></trkpt><trkpt lat="44.5189517" lon="10.434305"><ele>425.0</ele><time>2026-04-19T14:31:42.91Z</time></trkpt><trkpt lat="44.5190617" lon="10.4343933"><ele>424.75</ele><time>2026-04-19T14:31:43.912Z</time></trkpt><trkpt lat="44.51916" lon="10.434495"><ele>424.5</ele><time>2026-04-19T14:31:44.906Z</time></trkpt><trkpt lat="44.5192433" lon="10.434615"><ele>424.25</ele><time>2026-04-19T14:31:45.908Z</time></trkpt><trkpt lat="44.5193083" lon="10.4347517"><ele>424.0</ele><time>2026-04-19T14:31:46.911Z</time></trkpt><trkpt lat="44.5193717" lon="10.4348817"><ele>424.0</ele><time>2026-04-19T14:31:47.915Z</time></trkpt><trkpt lat="44.51945" lon="10.4349817"><ele>424.0</ele><time>2026-04-19T14:31:48.947Z</time></trkpt><trkpt lat="44.5195417" lon="10.435055"><ele>424.0</ele><time>2026-04-19T14:31:49.923Z</time></trkpt><trkpt lat="44.5196317" lon="10.43508"><ele>424.0</ele><time>2026-04-19T14:31:50.92Z</time></trkpt><trkpt lat="44.5197217" lon="10.435035"><ele>424.0</ele><time>2026-04-19T14:31:51.919Z</time></trkpt><trkpt lat="44.5198033" lon="10.4349433"><ele>421.5</ele><time>2026-04-19T14:31:52.914Z</time></trkpt><trkpt lat="44.5198867" lon="10.4348467"><ele>419.0</ele><time>2026-04-19T14:31:53.911Z</time></trkpt><trkpt lat="44.519985" lon="10.43479"><ele>416.5</ele><time>2026-04-19T14:31:54.91Z</time></trkpt><trkpt lat="44.5201083" lon="10.4347733"><ele>414.0</ele><time>2026-04-19T14:31:55.909Z</time></trkpt><trkpt lat="44.5202483" lon="10.4347667"><ele>412.66666666666663</ele><time>2026-04-19T14:31:56.94Z</time></trkpt><trkpt lat="44.520405" lon="10.4347433"><ele>411.3333333333333</ele><time>2026-04-19T14:31:57.907Z</time></trkpt><trkpt lat="44.5205633" lon="10.434715"><ele>410.0</ele><time>2026-04-19T14:31:58.929Z</time></trkpt><trkpt lat="44.5207183" lon="10.4346983"><ele>410.0</ele><time>2026-04-19T14:31:59.931Z</time></trkpt><trkpt lat="44.5208683" lon="10.4346783"><ele>410.0</ele><time>2026-04-19T14:32:00.918Z</time></trkpt><trkpt lat="44.5210167" lon="10.43467"><ele>410.0</ele><time>2026-04-19T14:32:01.923Z</time></trkpt><trkpt lat="44.5211567" lon="10.4346817"><ele>410.0</ele><time>2026-04-19T14:32:02.915Z</time></trkpt><trkpt lat="44.5212817" lon="10.4347067"><ele>407.66666666666663</ele><time>2026-04-19T14:32:03.914Z</time></trkpt><trkpt lat="44.5213917" lon="10.4347517"><ele>405.3333333333333</ele><time>2026-04-19T14:32:04.928Z</time></trkpt><trkpt lat="44.5214767" lon="10.4348033"><ele>403.0</ele><time>2026-04-19T14:32:05.925Z</time></trkpt><trkpt lat="44.521545" lon="10.4348617"><ele>400.66666666666663</ele><time>2026-04-19T14:32:06.918Z</time></trkpt><trkpt lat="44.5216083" lon="10.4349133"><ele>398.3333333333333</ele><time>2026-04-19T14:32:07.909Z</time></trkpt><trkpt lat="44.52167" lon="10.4349333"><ele>396.0</ele><time>2026-04-19T14:32:08.907Z</time></trkpt><trkpt lat="44.52173" lon="10.4348833"><ele>396.0</ele><time>2026-04-19T14:32:09.911Z</time></trkpt><trkpt lat="44.5217817" lon="10.4347983"><ele>396.0</ele><time>2026-04-19T14:32:10.92Z</time></trkpt><trkpt lat="44.5218233" lon="10.4346767"><ele>396.0</ele><time>2026-04-19T14:32:11.909Z</time></trkpt><trkpt lat="44.5218383" lon="10.4345333"><ele>396.0</ele><time>2026-04-19T14:32:12.91Z</time></trkpt><trkpt lat="44.52185" lon="10.4343883"><ele>396.0</ele><time>2026-04-19T14:32:13.947Z</time></trkpt><trkpt lat="44.5218567" lon="10.4342417"><ele>395.0</ele><time>2026-04-19T14:32:14.91Z</time></trkpt><trkpt lat="44.5218633" lon="10.4341033"><ele>394.0</ele><time>2026-04-19T14:32:15.932Z</time></trkpt><trkpt lat="44.5218717" lon="10.433975"><ele>393.0</ele><time>2026-04-19T14:32:16.938Z</time></trkpt><trkpt lat="44.5218783" lon="10.4338567"><ele>392.0</ele><time>2026-04-19T14:32:17.911Z</time></trkpt><trkpt lat="44.5218883" lon="10.43375"><ele>391.0</ele><time>2026-04-19T14:32:18.909Z</time></trkpt><trkpt lat="44.521895" lon="10.433655"><ele>390.0</ele><time>2026-04-19T14:32:19.911Z</time></trkpt><trkpt lat="44.5218983" lon="10.4335017"><ele>389.5</ele><time>2026-04-19T14:32:21.908Z</time></trkpt><trkpt lat="44.5219033" lon="10.433385"><ele>389.0</ele><time>2026-04-19T14:32:23.928Z</time></trkpt><trkpt lat="44.5219467" lon="10.4333083"><ele>388.5</ele><time>2026-04-19T14:32:26.912Z</time></trkpt><trkpt lat="44.5220033" lon="10.4333567"><ele>388.0</ele><time>2026-04-19T14:32:28.916Z</time></trkpt><trkpt lat="44.5220633" lon="10.4334617"><ele>387.5</ele><time>2026-04-19T14:32:30.956Z</time></trkpt><trkpt lat="44.5221517" lon="10.433585"><ele>387.0</ele><time>2026-04-19T14:32:32.942Z</time></trkpt><trkpt lat="44.5222017" lon="10.4336467"><ele>387.42857142857144</ele><time>2026-04-19T14:32:33.935Z</time></trkpt><trkpt lat="44.52225" lon="10.4337117"><ele>387.8571428571429</ele><time>2026-04-19T14:32:34.923Z</time></trkpt><trkpt lat="44.5222983" lon="10.4337817"><ele>388.2857142857143</ele><time>2026-04-19T14:32:35.91Z</time></trkpt><trkpt lat="44.52234" lon="10.4338617"><ele>388.7142857142857</ele><time>2026-04-19T14:32:36.928Z</time></trkpt><trkpt lat="44.5223783" lon="10.43395"><ele>389.1428571428571</ele><time>2026-04-19T14:32:37.91Z</time></trkpt><trkpt lat="44.522415" lon="10.4340383"><ele>389.57142857142856</ele><time>2026-04-19T14:32:38.912Z</time></trkpt><trkpt lat="44.522455" lon="10.434115"><ele>390.0</ele><time>2026-04-19T14:32:39.91Z</time></trkpt><trkpt lat="44.5225" lon="10.4341817"><ele>390.0</ele><time>2026-04-19T14:32:40.944Z</time></trkpt><trkpt lat="44.5226067" lon="10.4342683"><ele>390.0</ele><time>2026-04-19T14:32:42.922Z</time></trkpt><trkpt lat="44.52272" lon="10.4343267"><ele>390.0</ele><time>2026-04-19T14:32:44.936Z</time></trkpt><trkpt lat="44.522835" lon="10.4343567"><ele>390.0</ele><time>2026-04-19T14:32:46.912Z</time></trkpt><trkpt lat="44.5229333" lon="10.43441"><ele>389.8</ele><time>2026-04-19T14:32:48.955Z</time></trkpt><trkpt lat="44.5230317" lon="10.4344667"><ele>389.6</ele><time>2026-04-19T14:32:50.908Z</time></trkpt><trkpt lat="44.52311" lon="10.4345083"><ele>389.4</ele><time>2026-04-19T14:32:52.908Z</time></trkpt><trkpt lat="44.5231917" lon="10.434555"><ele>389.2</ele><time>2026-04-19T14:32:54.911Z</time></trkpt><trkpt lat="44.5232783" lon="10.4346333"><ele>389.0</ele><time>2026-04-19T14:32:56.91Z</time></trkpt><trkpt lat="44.523375" lon="10.43475"><ele>388.99999999999994</ele><time>2026-04-19T14:32:58.911Z</time></trkpt><trkpt lat="44.5234383" lon="10.43482"><ele>389.0</ele><time>2026-04-19T14:32:59.951Z</time></trkpt><trkpt lat="44.5235083" lon="10.434885"><ele>389.0</ele><time>2026-04-19T14:33:00.939Z</time></trkpt><trkpt lat="44.5235767" lon="10.434945"><ele>389.0</ele><time>2026-04-19T14:33:01.917Z</time></trkpt><trkpt lat="44.52364" lon="10.435005"><ele>388.99999999999994</ele><time>2026-04-19T14:33:02.923Z</time></trkpt><trkpt lat="44.5236967" lon="10.4350633"><ele>389.0</ele><time>2026-04-19T14:33:03.91Z</time></trkpt><trkpt lat="44.5237483" lon="10.4351217"><ele>390.16666666666663</ele><time>2026-04-19T14:33:04.911Z</time></trkpt><trkpt lat="44.5238233" lon="10.4352017"><ele>391.3333333333333</ele><time>2026-04-19T14:33:06.948Z</time></trkpt><trkpt lat="44.523875" lon="10.4352533"><ele>392.5</ele><time>2026-04-19T14:33:29.909Z</time></trkpt><trkpt lat="44.5239517" lon="10.4353017"><ele>393.66666666666663</ele><time>2026-04-19T14:33:38.918Z</time></trkpt><trkpt lat="44.524035" lon="10.43538"><ele>394.8333333333333</ele><time>2026-04-19T14:33:41.908Z</time></trkpt><trkpt lat="44.524095" lon="10.4354367"><ele>396.0</ele><time>2026-04-19T14:33:43.937Z</time></trkpt><trkpt lat="44.5241783" lon="10.43547"><ele>396.0</ele><time>2026-04-19T14:33:47.909Z</time></trkpt><trkpt lat="44.5242383" lon="10.4355067"><ele>396.0</ele><time>2026-04-19T14:33:49.914Z</time></trkpt><trkpt lat="44.5242983" lon="10.43556"><ele>396.0</ele><time>2026-04-19T14:33:51.909Z</time></trkpt><trkpt lat="44.5243517" lon="10.4356333"><ele>396.0</ele><time>2026-04-19T14:36:13.92Z</time></trkpt><trkpt lat="44.52442" lon="10.435675"><ele>396.0</ele><time>2026-04-19T14:36:21.946Z</time></trkpt><trkpt lat="44.5244967" lon="10.4357267"><ele>396.0</ele><time>2026-04-19T14:36:23.914Z</time></trkpt><trkpt lat="44.524595" lon="10.435785"><ele>396.0</ele><time>2026-04-19T14:36:25.907Z</time></trkpt><trkpt lat="44.5246967" lon="10.4358467"><ele>396.0</ele><time>2026-04-19T14:36:27.916Z</time></trkpt><trkpt lat="44.52481" lon="10.4359083"><ele>396.0</ele><time>2026-04-19T14:36:29.915Z</time></trkpt><trkpt lat="44.52493" lon="10.4359217"><ele>396.0</ele><time>2026-04-19T14:36:31.908Z</time></trkpt><trkpt lat="44.52504" lon="10.43591"><ele>396.0</ele><time>2026-04-19T14:36:33.921Z</time></trkpt><trkpt lat="44.5251367" lon="10.435955"><ele>396.0</ele><time>2026-04-19T14:36:35.909Z</time></trkpt><trkpt lat="44.5251917" lon="10.4360067"><ele>396.0</ele><time>2026-04-19T14:36:36.919Z</time></trkpt><trkpt lat="44.525255" lon="10.4360767"><ele>396.0</ele><time>2026-04-19T14:36:37.912Z</time></trkpt><trkpt lat="44.525325" lon="10.436145"><ele>396.0</ele><time>2026-04-19T14:36:38.91Z</time></trkpt><trkpt lat="44.5254017" lon="10.436205"><ele>396.0</ele><time>2026-04-19T14:36:39.92Z</time></trkpt><trkpt lat="44.5254767" lon="10.436265"><ele>396.1666666666667</ele><time>2026-04-19T14:36:40.917Z</time></trkpt><trkpt lat="44.5255467" lon="10.436325"><ele>396.33333333333337</ele><time>2026-04-19T14:36:41.914Z</time></trkpt><trkpt lat="44.525615" lon="10.4363867"><ele>396.5</ele><time>2026-04-19T14:36:42.91Z</time></trkpt><trkpt lat="44.5256833" lon="10.43645"><ele>396.6666666666667</ele><time>2026-04-19T14:36:43.908Z</time></trkpt><trkpt lat="44.525745" lon="10.4365117"><ele>396.83333333333337</ele><time>2026-04-19T14:36:44.933Z</time></trkpt><trkpt lat="44.5257967" lon="10.43657"><ele>397.0</ele><time>2026-04-19T14:36:45.919Z</time></trkpt><trkpt lat="44.52587" lon="10.4366567"><ele>397.00000000000006</ele><time>2026-04-19T14:36:47.909Z</time></trkpt><trkpt lat="44.5259317" lon="10.4367233"><ele>397.0</ele><time>2026-04-19T14:36:50.972Z</time></trkpt><trkpt lat="44.5259983" lon="10.4367817"><ele>397.0</ele><time>2026-04-19T14:36:56.912Z</time></trkpt><trkpt lat="44.5260867" lon="10.4368117"><ele>397.0</ele><time>2026-04-19T14:36:59.909Z</time></trkpt><trkpt lat="44.5261567" lon="10.436865"><ele>397.00000000000006</ele><time>2026-04-19T14:37:01.943Z</time></trkpt><trkpt lat="44.526225" lon="10.43692"><ele>397.0</ele><time>2026-04-19T14:37:03.927Z</time></trkpt><trkpt lat="44.5262917" lon="10.43695"><ele>397.50000000000006</ele><time>2026-04-19T14:37:05.913Z</time></trkpt><trkpt lat="44.5263533" lon="10.437"><ele>398.0</ele><time>2026-04-19T14:37:07.962Z</time></trkpt><trkpt lat="44.5264033" lon="10.437075"><ele>398.5</ele><time>2026-04-19T14:37:10.915Z</time></trkpt><trkpt lat="44.5264517" lon="10.43719"><ele>399.0</ele><time>2026-04-19T14:37:52.948Z</time></trkpt><trkpt lat="44.52649" lon="10.4373117"><ele>399.50000000000006</ele><time>2026-04-19T14:37:54.939Z</time></trkpt><trkpt lat="44.5265233" lon="10.4374383"><ele>400.0</ele><time>2026-04-19T14:37:56.914Z</time></trkpt><trkpt lat="44.52655" lon="10.437585"><ele>400.00000000000006</ele><time>2026-04-19T14:37:58.914Z</time></trkpt><trkpt lat="44.5265733" lon="10.4377167"><ele>400.0</ele><time>2026-04-19T14:38:00.924Z</time></trkpt><trkpt lat="44.526605" lon="10.4378217"><ele>400.0</ele><time>2026-04-19T14:38:02.958Z</time></trkpt><trkpt lat="44.5266483" lon="10.437905"><ele>400.0</ele><time>2026-04-19T14:38:04.918Z</time></trkpt><trkpt lat="44.5267133" lon="10.4379717"><ele>400.00000000000006</ele><time>2026-04-19T14:38:06.911Z</time></trkpt><trkpt lat="44.5268033" lon="10.4379883"><ele>400.0</ele><time>2026-04-19T14:38:08.927Z</time></trkpt><trkpt lat="44.5269167" lon="10.4379717"><ele>400.0</ele><time>2026-04-19T14:38:10.957Z</time></trkpt><trkpt lat="44.5270283" lon="10.43796"><ele>400.0</ele><time>2026-04-19T14:38:12.909Z</time></trkpt><trkpt lat="44.52712" lon="10.4380067"><ele>400.0</ele><time>2026-04-19T14:38:14.905Z</time></trkpt><trkpt lat="44.5271833" lon="10.4381083"><ele>400.0</ele><time>2026-04-19T14:38:16.936Z</time></trkpt><trkpt lat="44.5272383" lon="10.43826"><ele>400.0</ele><time>2026-04-19T14:38:18.918Z</time></trkpt><trkpt lat="44.5272617" lon="10.438355"><ele>400.1666666666667</ele><time>2026-04-19T14:38:19.911Z</time></trkpt><trkpt lat="44.52728" lon="10.4384483"><ele>400.33333333333337</ele><time>2026-04-19T14:38:20.957Z</time></trkpt><trkpt lat="44.5272983" lon="10.438535"><ele>400.5</ele><time>2026-04-19T14:38:21.92Z</time></trkpt><trkpt lat="44.5273333" lon="10.4386317"><ele>400.66666666666663</ele><time>2026-04-19T14:38:23.913Z</time></trkpt><trkpt lat="44.52738" lon="10.4386967"><ele>400.8333333333333</ele><time>2026-04-19T14:38:25.912Z</time></trkpt><trkpt lat="44.5274567" lon="10.43874"><ele>401.0</ele><time>2026-04-19T14:38:27.932Z</time></trkpt><trkpt lat="44.5275717" lon="10.4387867"><ele>400.8333333333333</ele><time>2026-04-19T14:38:29.909Z</time></trkpt><trkpt lat="44.5276367" lon="10.43883"><ele>400.66666666666663</ele><time>2026-04-19T14:38:30.909Z</time></trkpt><trkpt lat="44.5277017" lon="10.4388767"><ele>400.5</ele><time>2026-04-19T14:38:31.91Z</time></trkpt><trkpt lat="44.5277583" lon="10.4389183"><ele>400.33333333333337</ele><time>2026-04-19T14:38:32.937Z</time></trkpt><trkpt lat="44.52784" lon="10.438985"><ele>400.1666666666667</ele><time>2026-04-19T14:38:34.909Z</time></trkpt><trkpt lat="44.5278383" lon="10.439135"><ele>400.0</ele><time>2026-04-19T14:38:37.952Z</time></trkpt><trkpt lat="44.5278083" lon="10.4392833"><ele>400.0</ele><time>2026-04-19T14:38:39.914Z</time></trkpt><trkpt lat="44.5277967" lon="10.4394133"><ele>400.0</ele><time>2026-04-19T14:38:41.914Z</time></trkpt><trkpt lat="44.5277617" lon="10.439515"><ele>400.0</ele><time>2026-04-19T14:38:43.917Z</time></trkpt><trkpt lat="44.5276533" lon="10.4396367"><ele>400.0</ele><time>2026-04-19T14:38:45.98Z</time></trkpt><trkpt lat="44.527575" lon="10.4397217"><ele>400.0</ele><time>2026-04-19T14:38:46.928Z</time></trkpt><trkpt lat="44.52749" lon="10.4398267"><ele>400.0</ele><time>2026-04-19T14:38:47.92Z</time></trkpt><trkpt lat="44.527395" lon="10.4399483"><ele>400.0</ele><time>2026-04-19T14:38:48.91Z</time></trkpt><trkpt lat="44.527295" lon="10.4400667"><ele>400.0</ele><time>2026-04-19T14:38:49.911Z</time></trkpt><trkpt lat="44.5272017" lon="10.4401767"><ele>400.0</ele><time>2026-04-19T14:38:50.907Z</time></trkpt><trkpt lat="44.5271183" lon="10.4402767"><ele>400.6666666666667</ele><time>2026-04-19T14:38:51.943Z</time></trkpt><trkpt lat="44.5270417" lon="10.4403617"><ele>401.33333333333337</ele><time>2026-04-19T14:38:52.92Z</time></trkpt><trkpt lat="44.5269717" lon="10.4404383"><ele>402.0</ele><time>2026-04-19T14:38:53.911Z</time></trkpt><trkpt lat="44.526915" lon="10.4405"><ele>402.66666666666663</ele><time>2026-04-19T14:38:54.928Z</time></trkpt><trkpt lat="44.5268417" lon="10.4405883"><ele>403.3333333333333</ele><time>2026-04-19T14:38:56.91Z</time></trkpt><trkpt lat="44.526825" lon="10.4407067"><ele>404.0</ele><time>2026-04-19T14:38:59.917Z</time></trkpt><trkpt lat="44.5269133" lon="10.4408233"><ele>403.99999999999994</ele><time>2026-04-19T14:39:01.913Z</time></trkpt><trkpt lat="44.526975" lon="10.4408883"><ele>404.0</ele><time>2026-04-19T14:39:02.916Z</time></trkpt><trkpt lat="44.5270333" lon="10.44095"><ele>404.0</ele><time>2026-04-19T14:39:03.911Z</time></trkpt><trkpt lat="44.5270867" lon="10.4410033"><ele>404.0</ele><time>2026-04-19T14:39:04.911Z</time></trkpt><trkpt lat="44.52714" lon="10.4410533"><ele>403.99999999999994</ele><time>2026-04-19T14:39:05.909Z</time></trkpt><trkpt lat="44.5271883" lon="10.44111"><ele>404.0</ele><time>2026-04-19T14:39:06.934Z</time></trkpt><trkpt lat="44.52728" lon="10.4412333"><ele>404.16666666666663</ele><time>2026-04-19T14:39:08.912Z</time></trkpt><trkpt lat="44.5273217" lon="10.4413017"><ele>404.3333333333333</ele><time>2026-04-19T14:39:09.974Z</time></trkpt><trkpt lat="44.5273633" lon="10.4413717"><ele>404.5</ele><time>2026-04-19T14:39:10.912Z</time></trkpt><trkpt lat="44.527425" lon="10.4415267"><ele>404.66666666666663</ele><time>2026-04-19T14:39:12.93Z</time></trkpt><trkpt lat="44.52745" lon="10.44161"><ele>404.8333333333333</ele><time>2026-04-19T14:39:13.913Z</time></trkpt><trkpt lat="44.52747" lon="10.4416967"><ele>405.0</ele><time>2026-04-19T14:39:14.915Z</time></trkpt><trkpt lat="44.5274933" lon="10.441785"><ele>404.99999999999994</ele><time>2026-04-19T14:39:15.942Z</time></trkpt><trkpt lat="44.5275267" lon="10.4418767"><ele>405.0</ele><time>2026-04-19T14:39:16.912Z</time></trkpt><trkpt lat="44.5275583" lon="10.4419567"><ele>405.0</ele><time>2026-04-19T14:39:17.947Z</time></trkpt><trkpt lat="44.5276" lon="10.442035"><ele>405.0</ele><time>2026-04-19T14:39:18.92Z</time></trkpt><trkpt lat="44.5276483" lon="10.4421067"><ele>405.0</ele><time>2026-04-19T14:39:19.915Z</time></trkpt><trkpt lat="44.5277" lon="10.4421667"><ele>404.99999999999994</ele><time>2026-04-19T14:39:21.004Z</time></trkpt><trkpt lat="44.5277517" lon="10.4422183"><ele>405.0</ele><time>2026-04-19T14:39:21.937Z</time></trkpt><trkpt lat="44.527865" lon="10.4423167"><ele>405.1666666666667</ele><time>2026-04-19T14:39:23.911Z</time></trkpt><trkpt lat="44.5279183" lon="10.4423683"><ele>405.33333333333337</ele><time>2026-04-19T14:39:24.907Z</time></trkpt><trkpt lat="44.5280167" lon="10.4424767"><ele>405.5</ele><time>2026-04-19T14:39:26.934Z</time></trkpt><trkpt lat="44.5280667" lon="10.442545"><ele>405.6666666666667</ele><time>2026-04-19T14:39:27.92Z</time></trkpt><trkpt lat="44.5281117" lon="10.44262"><ele>405.83333333333337</ele><time>2026-04-19T14:39:28.988Z</time></trkpt><trkpt lat="44.5281483" lon="10.4426983"><ele>406.0</ele><time>2026-04-19T14:39:29.916Z</time></trkpt><trkpt lat="44.5281783" lon="10.442785"><ele>406.0</ele><time>2026-04-19T14:39:30.908Z</time></trkpt><trkpt lat="44.5281967" lon="10.4428783"><ele>406.0</ele><time>2026-04-19T14:39:31.908Z</time></trkpt><trkpt lat="44.5282083" lon="10.4429767"><ele>406.0</ele><time>2026-04-19T14:39:32.925Z</time></trkpt><trkpt lat="44.5282133" lon="10.443075"><ele>406.0</ele><time>2026-04-19T14:39:33.911Z</time></trkpt><trkpt lat="44.5282183" lon="10.4431783"><ele>406.0</ele><time>2026-04-19T14:39:34.972Z</time></trkpt><trkpt lat="44.528225" lon="10.44328"><ele>406.0</ele><time>2026-04-19T14:39:35.974Z</time></trkpt><trkpt lat="44.5282217" lon="10.4433767"><ele>406.0</ele><time>2026-04-19T14:39:36.97Z</time></trkpt><trkpt lat="44.5282117" lon="10.4434767"><ele>406.00000000000006</ele><time>2026-04-19T14:39:37.944Z</time></trkpt><trkpt lat="44.5282" lon="10.443575"><ele>406.0</ele><time>2026-04-19T14:39:38.911Z</time></trkpt><trkpt lat="44.5281983" lon="10.4436767"><ele>406.0</ele><time>2026-04-19T14:39:39.931Z</time></trkpt><trkpt lat="44.528205" lon="10.443775"><ele>406.0</ele><time>2026-04-19T14:39:40.918Z</time></trkpt><trkpt lat="44.528215" lon="10.44387"><ele>406.00000000000006</ele><time>2026-04-19T14:39:41.913Z</time></trkpt><trkpt lat="44.5282233" lon="10.444015"><ele>406.0</ele><time>2026-04-19T14:39:43.907Z</time></trkpt><trkpt lat="44.528265" lon="10.44417"><ele>406.7142857142857</ele><time>2026-04-19T14:39:46.897Z</time></trkpt><trkpt lat="44.5283533" lon="10.444185"><ele>407.42857142857144</ele><time>2026-04-19T14:39:48.899Z</time></trkpt><trkpt lat="44.528415" lon="10.4441567"><ele>408.1428571428571</ele><time>2026-04-19T14:39:49.897Z</time></trkpt><trkpt lat="44.52848" lon="10.444135"><ele>408.8571428571429</ele><time>2026-04-19T14:39:50.897Z</time></trkpt><trkpt lat="44.5285467" lon="10.4441267"><ele>409.57142857142856</ele><time>2026-04-19T14:39:51.897Z</time></trkpt><trkpt lat="44.52861" lon="10.4441333"><ele>410.2857142857143</ele><time>2026-04-19T14:39:52.898Z</time></trkpt><trkpt lat="44.528685" lon="10.444165"><ele>411.0</ele><time>2026-04-19T14:39:53.898Z</time></trkpt><trkpt lat="44.5287583" lon="10.4442133"><ele>411.5</ele><time>2026-04-19T14:39:54.898Z</time></trkpt><trkpt lat="44.5288183" lon="10.4442683"><ele>412.0</ele><time>2026-04-19T14:39:55.905Z</time></trkpt><trkpt lat="44.5288667" lon="10.4443333"><ele>412.5</ele><time>2026-04-19T14:39:56.897Z</time></trkpt><trkpt lat="44.5289183" lon="10.4444833"><ele>413.0</ele><time>2026-04-19T14:39:58.902Z</time></trkpt><trkpt lat="44.528935" lon="10.44466"><ele>413.5</ele><time>2026-04-19T14:40:00.898Z</time></trkpt><trkpt lat="44.5289333" lon="10.44475"><ele>414.0</ele><time>2026-04-19T14:40:01.896Z</time></trkpt><trkpt lat="44.5289317" lon="10.444845"><ele>414.0</ele><time>2026-04-19T14:40:02.897Z</time></trkpt><trkpt lat="44.5289267" lon="10.4449467"><ele>414.0</ele><time>2026-04-19T14:40:03.898Z</time></trkpt><trkpt lat="44.5289233" lon="10.4450467"><ele>414.0</ele><time>2026-04-19T14:40:04.901Z</time></trkpt><trkpt lat="44.5289167" lon="10.445145"><ele>414.0</ele><time>2026-04-19T14:40:05.896Z</time></trkpt><trkpt lat="44.5289017" lon="10.445315"><ele>414.0</ele><time>2026-04-19T14:40:07.898Z</time></trkpt><trkpt lat="44.528895" lon="10.4454633"><ele>414.0</ele><time>2026-04-19T14:40:09.897Z</time></trkpt><trkpt lat="44.5288967" lon="10.4455517"><ele>414.5</ele><time>2026-04-19T14:40:11.896Z</time></trkpt><trkpt lat="44.5289033" lon="10.4456717"><ele>415.0</ele><time>2026-04-19T14:40:14.897Z</time></trkpt><trkpt lat="44.5289167" lon="10.4458067"><ele>415.5</ele><time>2026-04-19T14:40:16.906Z</time></trkpt><trkpt lat="44.528925" lon="10.4459283"><ele>416.0</ele><time>2026-04-19T14:40:18.909Z</time></trkpt><trkpt lat="44.52895" lon="10.4460183"><ele>416.5</ele><time>2026-04-19T14:40:21.908Z</time></trkpt><trkpt lat="44.5289967" lon="10.446105"><ele>417.0</ele><time>2026-04-19T14:40:39.923Z</time></trkpt><trkpt lat="44.5290383" lon="10.446185"><ele>417.20000000000005</ele><time>2026-04-19T14:40:41.911Z</time></trkpt><trkpt lat="44.529065" lon="10.4462983"><ele>417.4</ele><time>2026-04-19T14:40:43.911Z</time></trkpt><trkpt lat="44.5291" lon="10.4464167"><ele>417.6</ele><time>2026-04-19T14:40:45.915Z</time></trkpt><trkpt lat="44.5291583" lon="10.4465233"><ele>417.79999999999995</ele><time>2026-04-19T14:40:48.909Z</time></trkpt><trkpt lat="44.52922" lon="10.44666"><ele>418.0</ele><time>2026-04-19T14:41:21.943Z</time></trkpt><trkpt lat="44.529255" lon="10.4467483"><ele>418.00000000000006</ele><time>2026-04-19T14:41:24.911Z</time></trkpt><trkpt lat="44.5292767" lon="10.4468567"><ele>418.0</ele><time>2026-04-19T14:41:28.092Z</time></trkpt><trkpt lat="44.5292817" lon="10.4469633"><ele>418.0</ele><time>2026-04-19T14:41:29.928Z</time></trkpt><trkpt lat="44.529275" lon="10.4470533"><ele>418.0</ele><time>2026-04-19T14:41:30.912Z</time></trkpt><trkpt lat="44.5292683" lon="10.4471683"><ele>418.00000000000006</ele><time>2026-04-19T14:41:31.917Z</time></trkpt><trkpt lat="44.52926" lon="10.4472967"><ele>418.0</ele><time>2026-04-19T14:41:32.946Z</time></trkpt><trkpt lat="44.52925" lon="10.4474183"><ele>418.00000000000006</ele><time>2026-04-19T14:41:33.911Z</time></trkpt><trkpt lat="44.5292317" lon="10.447525"><ele>418.0</ele><time>2026-04-19T14:41:34.981Z</time></trkpt><trkpt lat="44.5292183" lon="10.4476267"><ele>418.0</ele><time>2026-04-19T14:41:35.975Z</time></trkpt><trkpt lat="44.5292083" lon="10.4477183"><ele>418.0</ele><time>2026-04-19T14:41:36.913Z</time></trkpt><trkpt lat="44.529215" lon="10.4478783"><ele>418.00000000000006</ele><time>2026-04-19T14:41:38.912Z</time></trkpt><trkpt lat="44.529245" lon="10.44799"><ele>418.0</ele><time>2026-04-19T14:41:40.913Z</time></trkpt><trkpt lat="44.5292917" lon="10.4480817"><ele>418.6666666666667</ele><time>2026-04-19T14:41:43.941Z</time></trkpt><trkpt lat="44.5293317" lon="10.44817"><ele>419.33333333333337</ele><time>2026-04-19T14:41:47.931Z</time></trkpt><trkpt lat="44.5293783" lon="10.44826"><ele>420.0</ele><time>2026-04-19T14:41:50.908Z</time></trkpt><trkpt lat="44.5294117" lon="10.4483483"><ele>420.66666666666663</ele><time>2026-04-19T14:41:52.902Z</time></trkpt><trkpt lat="44.5294383" lon="10.448435"><ele>421.3333333333333</ele><time>2026-04-19T14:41:54.9Z</time></trkpt><trkpt lat="44.5295083" lon="10.448535"><ele>422.0</ele><time>2026-04-19T14:41:57.899Z</time></trkpt><trkpt lat="44.5295367" lon="10.4486383"><ele>422.0</ele><time>2026-04-19T14:42:00.897Z</time></trkpt><trkpt lat="44.5294983" lon="10.448725"><ele>422.0</ele><time>2026-04-19T14:42:04.898Z</time></trkpt><trkpt lat="44.5294533" lon="10.4488233"><ele>422.0</ele><time>2026-04-19T14:42:08.896Z</time></trkpt><trkpt lat="44.5294017" lon="10.4489467"><ele>422.0</ele><time>2026-04-19T14:42:20.913Z</time></trkpt><trkpt lat="44.52935" lon="10.4490567"><ele>422.0</ele><time>2026-04-19T14:42:22.911Z</time></trkpt><trkpt lat="44.529295" lon="10.4491817"><ele>422.16666666666663</ele><time>2026-04-19T14:42:24.91Z</time></trkpt><trkpt lat="44.5292417" lon="10.4493"><ele>422.3333333333333</ele><time>2026-04-19T14:42:26.913Z</time></trkpt><trkpt lat="44.529205" lon="10.449415"><ele>422.5</ele><time>2026-04-19T14:42:28.912Z</time></trkpt><trkpt lat="44.5292117" lon="10.4495267"><ele>422.66666666666663</ele><time>2026-04-19T14:42:31.922Z</time></trkpt><trkpt lat="44.5292417" lon="10.449605"><ele>422.8333333333333</ele><time>2026-04-19T14:42:35.911Z</time></trkpt><trkpt lat="44.5292817" lon="10.4497217"><ele>423.0</ele><time>2026-04-19T14:42:38.913Z</time></trkpt><trkpt lat="44.5292967" lon="10.4498283"><ele>423.0</ele><time>2026-04-19T14:42:40.922Z</time></trkpt><trkpt lat="44.52925" lon="10.4499483"><ele>423.0</ele><time>2026-04-19T14:42:43.91Z</time></trkpt><trkpt lat="44.52921" lon="10.450055"><ele>423.0</ele><time>2026-04-19T14:42:45.945Z</time></trkpt><trkpt lat="44.5292317" lon="10.4501783"><ele>423.0</ele><time>2026-04-19T14:42:47.924Z</time></trkpt><trkpt lat="44.5293117" lon="10.45028"><ele>423.0</ele><time>2026-04-19T14:42:49.913Z</time></trkpt><trkpt lat="44.5293617" lon="10.4504483"><ele>423.1666666666667</ele><time>2026-04-19T14:42:51.91Z</time></trkpt><trkpt lat="44.5293533" lon="10.450555"><ele>423.33333333333337</ele><time>2026-04-19T14:42:52.91Z</time></trkpt><trkpt lat="44.5293333" lon="10.450655"><ele>423.5</ele><time>2026-04-19T14:42:53.91Z</time></trkpt><trkpt lat="44.5293233" lon="10.4508233"><ele>423.6666666666667</ele><time>2026-04-19T14:42:55.911Z</time></trkpt><trkpt lat="44.52933" lon="10.450965"><ele>423.83333333333337</ele><time>2026-04-19T14:42:57.934Z</time></trkpt><trkpt lat="44.52935" lon="10.4510533"><ele>424.0</ele><time>2026-04-19T14:42:58.912Z</time></trkpt><trkpt lat="44.5293667" lon="10.4511433"><ele>424.00000000000006</ele><time>2026-04-19T14:42:59.947Z</time></trkpt><trkpt lat="44.52939" lon="10.451315"><ele>424.0</ele><time>2026-04-19T14:43:01.896Z</time></trkpt><trkpt lat="44.529395" lon="10.45141"><ele>424.0</ele><time>2026-04-19T14:43:02.897Z</time></trkpt><trkpt lat="44.5293983" lon="10.4515083"><ele>424.0</ele><time>2026-04-19T14:43:03.899Z</time></trkpt><trkpt lat="44.5293833" lon="10.451615"><ele>424.00000000000006</ele><time>2026-04-19T14:43:04.897Z</time></trkpt><trkpt lat="44.529355" lon="10.4517383"><ele>424.0</ele><time>2026-04-19T14:43:05.896Z</time></trkpt><trkpt lat="44.5293367" lon="10.45187"><ele>424.00000000000006</ele><time>2026-04-19T14:43:06.897Z</time></trkpt><trkpt lat="44.5293117" lon="10.4519967"><ele>424.0</ele><time>2026-04-19T14:43:07.897Z</time></trkpt><trkpt lat="44.5292917" lon="10.4521217"><ele>424.0</ele><time>2026-04-19T14:43:08.896Z</time></trkpt><trkpt lat="44.5292783" lon="10.452235"><ele>424.0</ele><time>2026-04-19T14:43:09.898Z</time></trkpt><trkpt lat="44.5292667" lon="10.4523383"><ele>424.00000000000006</ele><time>2026-04-19T14:43:10.9Z</time></trkpt><trkpt lat="44.5292517" lon="10.452425"><ele>424.0</ele><time>2026-04-19T14:43:11.897Z</time></trkpt><trkpt lat="44.52923" lon="10.452545"><ele>424.33333333333337</ele><time>2026-04-19T14:43:13.9Z</time></trkpt><trkpt lat="44.5292367" lon="10.4526433"><ele>424.6666666666667</ele><time>2026-04-19T14:43:16.898Z</time></trkpt><trkpt lat="44.5292467" lon="10.45276"><ele>425.0</ele><time>2026-04-19T14:43:34.082Z</time></trkpt><trkpt lat="44.5292583" lon="10.4528983"><ele>425.33333333333337</ele><time>2026-04-19T14:43:35.928Z</time></trkpt><trkpt lat="44.5292817" lon="10.453065"><ele>425.6666666666667</ele><time>2026-04-19T14:43:37.91Z</time></trkpt><trkpt lat="44.5292967" lon="10.4531517"><ele>426.0</ele><time>2026-04-19T14:43:38.912Z</time></trkpt><trkpt lat="44.529295" lon="10.4532483"><ele>425.99999999999994</ele><time>2026-04-19T14:43:39.914Z</time></trkpt><trkpt lat="44.5292883" lon="10.45334"><ele>426.0</ele><time>2026-04-19T14:43:40.915Z</time></trkpt><trkpt lat="44.5292867" lon="10.4534283"><ele>426.0</ele><time>2026-04-19T14:43:41.913Z</time></trkpt><trkpt lat="44.5292883" lon="10.45352"><ele>426.0</ele><time>2026-04-19T14:43:42.924Z</time></trkpt><trkpt lat="44.529295" lon="10.4536233"><ele>426.0</ele><time>2026-04-19T14:43:43.94Z</time></trkpt><trkpt lat="44.5293083" lon="10.4537317"><ele>425.99999999999994</ele><time>2026-04-19T14:43:44.929Z</time></trkpt><trkpt lat="44.529335" lon="10.4538383"><ele>426.0</ele><time>2026-04-19T14:43:45.911Z</time></trkpt><trkpt lat="44.529365" lon="10.4539467"><ele>426.6666666666667</ele><time>2026-04-19T14:43:46.912Z</time></trkpt><trkpt lat="44.5294033" lon="10.454045"><ele>427.33333333333337</ele><time>2026-04-19T14:43:47.908Z</time></trkpt><trkpt lat="44.5294367" lon="10.4541283"><ele>428.0</ele><time>2026-04-19T14:43:48.91Z</time></trkpt><trkpt lat="44.529475" lon="10.4542133"><ele>428.6666666666667</ele><time>2026-04-19T14:43:49.912Z</time></trkpt><trkpt lat="44.5295133" lon="10.4542983"><ele>429.33333333333337</ele><time>2026-04-19T14:43:50.91Z</time></trkpt><trkpt lat="44.52959" lon="10.4544267"><ele>430.0</ele><time>2026-04-19T14:43:52.914Z</time></trkpt><trkpt lat="44.5296833" lon="10.4545333"><ele>430.1666666666667</ele><time>2026-04-19T14:43:54.91Z</time></trkpt><trkpt lat="44.5297433" lon="10.454595"><ele>430.33333333333337</ele><time>2026-04-19T14:43:55.909Z</time></trkpt><trkpt lat="44.52981" lon="10.4546483"><ele>430.5</ele><time>2026-04-19T14:43:56.912Z</time></trkpt><trkpt lat="44.5298967" lon="10.4547083"><ele>430.66666666666663</ele><time>2026-04-19T14:43:57.911Z</time></trkpt><trkpt lat="44.52999" lon="10.4547633"><ele>430.8333333333333</ele><time>2026-04-19T14:43:58.913Z</time></trkpt><trkpt lat="44.5300667" lon="10.4548117"><ele>431.0</ele><time>2026-04-19T14:43:59.912Z</time></trkpt><trkpt lat="44.5301417" lon="10.454855"><ele>431.0</ele><time>2026-04-19T14:44:00.908Z</time></trkpt><trkpt lat="44.5302133" lon="10.4548933"><ele>431.0</ele><time>2026-04-19T14:44:01.908Z</time></trkpt><trkpt lat="44.530285" lon="10.4549233"><ele>431.0</ele><time>2026-04-19T14:44:02.898Z</time></trkpt><trkpt lat="44.5303883" lon="10.4550333"><ele>431.0</ele><time>2026-04-19T14:44:04.263Z</time></trkpt><trkpt lat="44.53047" lon="10.4551233"><ele>431.0</ele><time>2026-04-19T14:44:05.897Z</time></trkpt><trkpt lat="44.530545" lon="10.4552517"><ele>432.20000000000005</ele><time>2026-04-19T14:44:07.899Z</time></trkpt><trkpt lat="44.5305733" lon="10.45541"><ele>433.40000000000003</ele><time>2026-04-19T14:44:10.516Z</time></trkpt><trkpt lat="44.530545" lon="10.45553"><ele>434.6</ele><time>2026-04-19T14:44:11.897Z</time></trkpt><trkpt lat="44.530535" lon="10.4557233"><ele>435.8</ele><time>2026-04-19T14:44:13.898Z</time></trkpt><trkpt lat="44.5305367" lon="10.4558133"><ele>437.0</ele><time>2026-04-19T14:44:14.905Z</time></trkpt><trkpt lat="44.5305517" lon="10.4559467"><ele>437.6</ele><time>2026-04-19T14:44:15.899Z</time></trkpt><trkpt lat="44.5305717" lon="10.45609"><ele>438.20000000000005</ele><time>2026-04-19T14:44:16.898Z</time></trkpt><trkpt lat="44.5305933" lon="10.4562267"><ele>438.8</ele><time>2026-04-19T14:44:17.897Z</time></trkpt><trkpt lat="44.53062" lon="10.4563617"><ele>439.4</ele><time>2026-04-19T14:44:18.897Z</time></trkpt><trkpt lat="44.5306367" lon="10.4564783"><ele>440.0</ele><time>2026-04-19T14:44:19.898Z</time></trkpt><trkpt lat="44.5306483" lon="10.4565717"><ele>440.2</ele><time>2026-04-19T14:44:20.896Z</time></trkpt><trkpt lat="44.53066" lon="10.4567333"><ele>440.4</ele><time>2026-04-19T14:44:22.898Z</time></trkpt><trkpt lat="44.5306517" lon="10.4568883"><ele>440.6</ele><time>2026-04-19T14:44:24.897Z</time></trkpt><trkpt lat="44.530615" lon="10.4570517"><ele>440.8</ele><time>2026-04-19T14:44:26.898Z</time></trkpt><trkpt lat="44.53058" lon="10.4571383"><ele>441.0</ele><time>2026-04-19T14:44:27.898Z</time></trkpt><trkpt lat="44.5305417" lon="10.4572233"><ele>440.3333333333333</ele><time>2026-04-19T14:44:28.899Z</time></trkpt><trkpt lat="44.5305067" lon="10.457315"><ele>439.66666666666663</ele><time>2026-04-19T14:44:29.906Z</time></trkpt><trkpt lat="44.5304867" lon="10.4574167"><ele>439.0</ele><time>2026-04-19T14:44:30.911Z</time></trkpt><trkpt lat="44.53049" lon="10.4575333"><ele>438.3333333333333</ele><time>2026-04-19T14:44:31.916Z</time></trkpt><trkpt lat="44.53049" lon="10.45767"><ele>437.66666666666663</ele><time>2026-04-19T14:44:32.912Z</time></trkpt><trkpt lat="44.5304933" lon="10.457805"><ele>437.0</ele><time>2026-04-19T14:44:33.911Z</time></trkpt><trkpt lat="44.5305" lon="10.45793"><ele>436.49999999999994</ele><time>2026-04-19T14:44:34.913Z</time></trkpt><trkpt lat="44.5305017" lon="10.458055"><ele>436.0</ele><time>2026-04-19T14:44:35.91Z</time></trkpt><trkpt lat="44.5305" lon="10.458175"><ele>435.5</ele><time>2026-04-19T14:44:36.912Z</time></trkpt><trkpt lat="44.530495" lon="10.458285"><ele>435.0</ele><time>2026-04-19T14:44:37.916Z</time></trkpt><trkpt lat="44.5304867" lon="10.4583933"><ele>434.49999999999994</ele><time>2026-04-19T14:44:38.912Z</time></trkpt><trkpt lat="44.5304767" lon="10.4585"><ele>434.0</ele><time>2026-04-19T14:44:39.91Z</time></trkpt><trkpt lat="44.53047" lon="10.45861"><ele>434.0</ele><time>2026-04-19T14:44:40.911Z</time></trkpt><trkpt lat="44.530465" lon="10.4587067"><ele>434.0</ele><time>2026-04-19T14:44:41.933Z</time></trkpt><trkpt lat="44.5304617" lon="10.4588033"><ele>434.0</ele><time>2026-04-19T14:44:42.912Z</time></trkpt><trkpt lat="44.5304617" lon="10.4588917"><ele>434.0</ele><time>2026-04-19T14:44:43.928Z</time></trkpt><trkpt lat="44.530465" lon="10.45898"><ele>434.0</ele><time>2026-04-19T14:44:44.939Z</time></trkpt><trkpt lat="44.53048" lon="10.459075"><ele>434.0</ele><time>2026-04-19T14:44:45.915Z</time></trkpt><trkpt lat="44.5305033" lon="10.45918"><ele>434.0</ele><time>2026-04-19T14:44:46.914Z</time></trkpt><trkpt lat="44.5305467" lon="10.4592867"><ele>434.0</ele><time>2026-04-19T14:44:47.913Z</time></trkpt><trkpt lat="44.5306" lon="10.45939"><ele>434.0</ele><time>2026-04-19T14:44:48.91Z</time></trkpt><trkpt lat="44.5306617" lon="10.459495"><ele>434.0</ele><time>2026-04-19T14:44:49.913Z</time></trkpt><trkpt lat="44.53072" lon="10.4596017"><ele>434.0</ele><time>2026-04-19T14:44:50.912Z</time></trkpt><trkpt lat="44.53077" lon="10.4597167"><ele>434.0</ele><time>2026-04-19T14:44:51.913Z</time></trkpt><trkpt lat="44.5308183" lon="10.4598417"><ele>434.0</ele><time>2026-04-19T14:44:52.914Z</time></trkpt><trkpt lat="44.5308833" lon="10.4599683"><ele>434.0</ele><time>2026-04-19T14:44:53.912Z</time></trkpt><trkpt lat="44.5309583" lon="10.4600983"><ele>434.0</ele><time>2026-04-19T14:44:54.911Z</time></trkpt><trkpt lat="44.53103" lon="10.4602217"><ele>434.0</ele><time>2026-04-19T14:44:55.913Z</time></trkpt><trkpt lat="44.5310983" lon="10.46033"><ele>434.0</ele><time>2026-04-19T14:44:56.914Z</time></trkpt><trkpt lat="44.5311567" lon="10.460415"><ele>434.42857142857144</ele><time>2026-04-19T14:44:57.914Z</time></trkpt><trkpt lat="44.5312083" lon="10.4604883"><ele>434.8571428571429</ele><time>2026-04-19T14:44:58.91Z</time></trkpt><trkpt lat="44.5312517" lon="10.4605583"><ele>435.2857142857143</ele><time>2026-04-19T14:44:59.917Z</time></trkpt><trkpt lat="44.5312917" lon="10.46063"><ele>435.7142857142857</ele><time>2026-04-19T14:45:00.923Z</time></trkpt><trkpt lat="44.5313283" lon="10.4607033"><ele>436.14285714285717</ele><time>2026-04-19T14:45:01.912Z</time></trkpt><trkpt lat="44.5313517" lon="10.4607983"><ele>436.57142857142856</ele><time>2026-04-19T14:45:02.912Z</time></trkpt><trkpt lat="44.53137" lon="10.4609083"><ele>437.0</ele><time>2026-04-19T14:45:03.912Z</time></trkpt><trkpt lat="44.5313783" lon="10.46103"><ele>437.3333333333333</ele><time>2026-04-19T14:45:04.916Z</time></trkpt><trkpt lat="44.5313767" lon="10.4611433"><ele>437.66666666666663</ele><time>2026-04-19T14:45:05.911Z</time></trkpt><trkpt lat="44.5313483" lon="10.4612583"><ele>438.0</ele><time>2026-04-19T14:45:06.918Z</time></trkpt><trkpt lat="44.5313033" lon="10.4613833"><ele>438.33333333333337</ele><time>2026-04-19T14:45:07.91Z</time></trkpt><trkpt lat="44.5312517" lon="10.4614967"><ele>438.6666666666667</ele><time>2026-04-19T14:45:08.911Z</time></trkpt><trkpt lat="44.5312017" lon="10.4615867"><ele>439.0</ele><time>2026-04-19T14:45:09.91Z</time></trkpt><trkpt lat="44.5311567" lon="10.4616583"><ele>439.00000000000006</ele><time>2026-04-19T14:45:10.925Z</time></trkpt><trkpt lat="44.5311133" lon="10.4617317"><ele>439.0</ele><time>2026-04-19T14:45:11.913Z</time></trkpt><trkpt lat="44.5310617" lon="10.4618133"><ele>439.0</ele><time>2026-04-19T14:45:12.912Z</time></trkpt><trkpt lat="44.5309967" lon="10.4619"><ele>439.0</ele><time>2026-04-19T14:45:13.912Z</time></trkpt><trkpt lat="44.5309283" lon="10.46198"><ele>439.00000000000006</ele><time>2026-04-19T14:45:14.909Z</time></trkpt><trkpt lat="44.5308683" lon="10.4620533"><ele>439.0</ele><time>2026-04-19T14:45:15.897Z</time></trkpt><trkpt lat="44.5308183" lon="10.4621233"><ele>439.00000000000006</ele><time>2026-04-19T14:45:16.897Z</time></trkpt><trkpt lat="44.530765" lon="10.4621967"><ele>439.0</ele><time>2026-04-19T14:45:17.899Z</time></trkpt><trkpt lat="44.5307183" lon="10.4622733"><ele>439.0</ele><time>2026-04-19T14:45:18.9Z</time></trkpt><trkpt lat="44.53067" lon="10.4623633"><ele>439.0</ele><time>2026-04-19T14:45:19.898Z</time></trkpt><trkpt lat="44.5306167" lon="10.4624567"><ele>439.00000000000006</ele><time>2026-04-19T14:45:20.895Z</time></trkpt><trkpt lat="44.5305767" lon="10.4625533"><ele>439.0</ele><time>2026-04-19T14:45:21.91Z</time></trkpt><trkpt lat="44.5305533" lon="10.46265"><ele>439.0</ele><time>2026-04-19T14:45:22.898Z</time></trkpt><trkpt lat="44.5305383" lon="10.4627517"><ele>439.0</ele><time>2026-04-19T14:45:23.898Z</time></trkpt><trkpt lat="44.53054" lon="10.46285"><ele>439.0</ele><time>2026-04-19T14:45:24.896Z</time></trkpt><trkpt lat="44.5305417" lon="10.4629517"><ele>439.0</ele><time>2026-04-19T14:45:25.897Z</time></trkpt><trkpt lat="44.53054" lon="10.4630567"><ele>439.0</ele><time>2026-04-19T14:45:26.896Z</time></trkpt><trkpt lat="44.5305367" lon="10.4631633"><ele>439.0</ele><time>2026-04-19T14:45:27.898Z</time></trkpt><trkpt lat="44.5305333" lon="10.4632717"><ele>439.0</ele><time>2026-04-19T14:45:28.897Z</time></trkpt><trkpt lat="44.5305333" lon="10.46338"><ele>439.33333333333337</ele><time>2026-04-19T14:45:29.897Z</time></trkpt><trkpt lat="44.530525" lon="10.4634933"><ele>439.6666666666667</ele><time>2026-04-19T14:45:30.897Z</time></trkpt><trkpt lat="44.5305133" lon="10.4636067"><ele>440.0</ele><time>2026-04-19T14:45:31.897Z</time></trkpt><trkpt lat="44.5305067" lon="10.4637083"><ele>440.33333333333337</ele><time>2026-04-19T14:45:32.897Z</time></trkpt><trkpt lat="44.5305033" lon="10.4637967"><ele>440.6666666666667</ele><time>2026-04-19T14:45:33.897Z</time></trkpt><trkpt lat="44.5305067" lon="10.463935"><ele>441.0</ele><time>2026-04-19T14:45:35.909Z</time></trkpt><trkpt lat="44.5305133" lon="10.4640383"><ele>441.4</ele><time>2026-04-19T14:45:37.907Z</time></trkpt><trkpt lat="44.5305367" lon="10.46413"><ele>441.8</ele><time>2026-04-19T14:45:40.909Z</time></trkpt><trkpt lat="44.5305717" lon="10.4642533"><ele>442.19999999999993</ele><time>2026-04-19T14:45:56.909Z</time></trkpt><trkpt lat="44.5306617" lon="10.464395"><ele>442.59999999999997</ele><time>2026-04-19T14:45:58.911Z</time></trkpt><trkpt lat="44.5307067" lon="10.4644767"><ele>443.0</ele><time>2026-04-19T14:45:59.913Z</time></trkpt><trkpt lat="44.5307533" lon="10.46457"><ele>442.8333333333333</ele><time>2026-04-19T14:46:00.909Z</time></trkpt><trkpt lat="44.530805" lon="10.4646667"><ele>442.66666666666663</ele><time>2026-04-19T14:46:01.909Z</time></trkpt><trkpt lat="44.5308567" lon="10.4647633"><ele>442.5</ele><time>2026-04-19T14:46:02.906Z</time></trkpt><trkpt lat="44.5309067" lon="10.4648633"><ele>442.33333333333337</ele><time>2026-04-19T14:46:03.91Z</time></trkpt><trkpt lat="44.53095" lon="10.464965"><ele>442.1666666666667</ele><time>2026-04-19T14:46:04.912Z</time></trkpt><trkpt lat="44.530985" lon="10.46507"><ele>442.0</ele><time>2026-04-19T14:46:05.906Z</time></trkpt><trkpt lat="44.531015" lon="10.4651783"><ele>442.0</ele><time>2026-04-19T14:46:06.94Z</time></trkpt><trkpt lat="44.5310383" lon="10.465295"><ele>442.00000000000006</ele><time>2026-04-19T14:46:07.928Z</time></trkpt><trkpt lat="44.53106" lon="10.465415"><ele>442.00000000000006</ele><time>2026-04-19T14:46:08.911Z</time></trkpt><trkpt lat="44.5310767" lon="10.4655383"><ele>442.0</ele><time>2026-04-19T14:46:09.911Z</time></trkpt><trkpt lat="44.5310933" lon="10.4656667"><ele>442.0</ele><time>2026-04-19T14:46:10.948Z</time></trkpt><trkpt lat="44.5311033" lon="10.4657983"><ele>442.20000000000005</ele><time>2026-04-19T14:46:11.924Z</time></trkpt><trkpt lat="44.53111" lon="10.4659333"><ele>442.40000000000003</ele><time>2026-04-19T14:46:12.907Z</time></trkpt><trkpt lat="44.53111" lon="10.46607"><ele>442.59999999999997</ele><time>2026-04-19T14:46:13.908Z</time></trkpt><trkpt lat="44.5311033" lon="10.46621"><ele>442.79999999999995</ele><time>2026-04-19T14:46:14.91Z</time></trkpt><trkpt lat="44.5310883" lon="10.4663533"><ele>443.0</ele><time>2026-04-19T14:46:15.91Z</time></trkpt><trkpt lat="44.5310683" lon="10.4665"><ele>443.49999999999994</ele><time>2026-04-19T14:46:16.93Z</time></trkpt><trkpt lat="44.5310467" lon="10.46664"><ele>444.0</ele><time>2026-04-19T14:46:17.91Z</time></trkpt><trkpt lat="44.53102" lon="10.4667667"><ele>444.5</ele><time>2026-04-19T14:46:18.909Z</time></trkpt><trkpt lat="44.5310017" lon="10.46688"><ele>445.0</ele><time>2026-04-19T14:46:19.918Z</time></trkpt><trkpt lat="44.5309983" lon="10.4669833"><ele>445.49999999999994</ele><time>2026-04-19T14:46:20.908Z</time></trkpt><trkpt lat="44.5310083" lon="10.4670817"><ele>446.0</ele><time>2026-04-19T14:46:21.911Z</time></trkpt><trkpt lat="44.5310417" lon="10.4671883"><ele>446.4</ele><time>2026-04-19T14:46:22.907Z</time></trkpt><trkpt lat="44.5310917" lon="10.46729"><ele>446.8</ele><time>2026-04-19T14:46:23.91Z</time></trkpt><trkpt lat="44.531155" lon="10.467385"><ele>447.19999999999993</ele><time>2026-04-19T14:46:24.908Z</time></trkpt><trkpt lat="44.5312233" lon="10.46748"><ele>447.59999999999997</ele><time>2026-04-19T14:46:25.914Z</time></trkpt><trkpt lat="44.5312967" lon="10.4675767"><ele>448.0</ele><time>2026-04-19T14:46:26.915Z</time></trkpt><trkpt lat="44.5313733" lon="10.46766"><ele>449.79999999999995</ele><time>2026-04-19T14:46:27.91Z</time></trkpt><trkpt lat="44.5314533" lon="10.4677233"><ele>451.59999999999997</ele><time>2026-04-19T14:46:28.911Z</time></trkpt><trkpt lat="44.5315233" lon="10.4677617"><ele>453.40000000000003</ele><time>2026-04-19T14:46:29.909Z</time></trkpt><trkpt lat="44.5315867" lon="10.4677833"><ele>455.20000000000005</ele><time>2026-04-19T14:46:30.908Z</time></trkpt><trkpt lat="44.53172" lon="10.4677567"><ele>457.0</ele><time>2026-04-19T14:46:32.955Z</time></trkpt><trkpt lat="44.5318017" lon="10.4677117"><ele>457.00000000000006</ele><time>2026-04-19T14:46:33.91Z</time></trkpt><trkpt lat="44.5318883" lon="10.4676583"><ele>457.0</ele><time>2026-04-19T14:46:34.927Z</time></trkpt><trkpt lat="44.5319733" lon="10.4676233"><ele>457.0</ele><time>2026-04-19T14:46:35.907Z</time></trkpt><trkpt lat="44.5320567" lon="10.4676067"><ele>457.0</ele><time>2026-04-19T14:46:36.913Z</time></trkpt><trkpt lat="44.5321267" lon="10.4676583"><ele>457.00000000000006</ele><time>2026-04-19T14:46:37.906Z</time></trkpt><trkpt lat="44.5321817" lon="10.4677367"><ele>457.0</ele><time>2026-04-19T14:46:38.906Z</time></trkpt><trkpt lat="44.532195" lon="10.467835"><ele>457.20000000000005</ele><time>2026-04-19T14:46:39.908Z</time></trkpt><trkpt lat="44.5321667" lon="10.4679467"><ele>457.40000000000003</ele><time>2026-04-19T14:46:40.913Z</time></trkpt><trkpt lat="44.5320983" lon="10.4680533"><ele>457.59999999999997</ele><time>2026-04-19T14:46:41.913Z</time></trkpt><trkpt lat="44.5320167" lon="10.4681667"><ele>457.79999999999995</ele><time>2026-04-19T14:46:42.909Z</time></trkpt><trkpt lat="44.5319383" lon="10.468305"><ele>458.0</ele><time>2026-04-19T14:46:43.905Z</time></trkpt><trkpt lat="44.5318667" lon="10.4684533"><ele>458.0</ele><time>2026-04-19T14:46:44.906Z</time></trkpt><trkpt lat="44.5318" lon="10.4685967"><ele>458.0</ele><time>2026-04-19T14:46:45.908Z</time></trkpt><trkpt lat="44.5317633" lon="10.4687517"><ele>458.0</ele><time>2026-04-19T14:46:46.911Z</time></trkpt><trkpt lat="44.5317517" lon="10.4689183"><ele>458.0</ele><time>2026-04-19T14:46:47.922Z</time></trkpt><trkpt lat="44.5317667" lon="10.46909"><ele>459.5</ele><time>2026-04-19T14:46:48.91Z</time></trkpt><trkpt lat="44.53181" lon="10.4692767"><ele>461.0</ele><time>2026-04-19T14:46:49.909Z</time></trkpt><trkpt lat="44.5318667" lon="10.4694617"><ele>462.5</ele><time>2026-04-19T14:46:50.909Z</time></trkpt><trkpt lat="44.5319217" lon="10.46963"><ele>464.0</ele><time>2026-04-19T14:46:51.908Z</time></trkpt><trkpt lat="44.5319583" lon="10.4697867"><ele>464.4</ele><time>2026-04-19T14:46:52.909Z</time></trkpt><trkpt lat="44.5319667" lon="10.4699433"><ele>464.79999999999995</ele><time>2026-04-19T14:46:53.907Z</time></trkpt><trkpt lat="44.5319567" lon="10.4700917"><ele>465.20000000000005</ele><time>2026-04-19T14:46:54.908Z</time></trkpt><trkpt lat="44.531955" lon="10.4702267"><ele>465.6</ele><time>2026-04-19T14:46:55.914Z</time></trkpt><trkpt lat="44.53198" lon="10.4703617"><ele>466.0</ele><time>2026-04-19T14:46:56.911Z</time></trkpt><trkpt lat="44.532005" lon="10.4704783"><ele>466.6666666666667</ele><time>2026-04-19T14:46:57.909Z</time></trkpt><trkpt lat="44.5320183" lon="10.4706033"><ele>467.33333333333337</ele><time>2026-04-19T14:46:58.911Z</time></trkpt><trkpt lat="44.5319867" lon="10.47073"><ele>468.0</ele><time>2026-04-19T14:46:59.91Z</time></trkpt><trkpt lat="44.5319383" lon="10.4708433"><ele>468.66666666666663</ele><time>2026-04-19T14:47:00.91Z</time></trkpt><trkpt lat="44.5319083" lon="10.4709483"><ele>469.3333333333333</ele><time>2026-04-19T14:47:01.91Z</time></trkpt><trkpt lat="44.5318983" lon="10.471045"><ele>470.0</ele><time>2026-04-19T14:47:02.911Z</time></trkpt><trkpt lat="44.5319483" lon="10.47111"><ele>470.0</ele><time>2026-04-19T14:47:03.909Z</time></trkpt><trkpt lat="44.5320267" lon="10.47115"><ele>470.0</ele><time>2026-04-19T14:47:04.908Z</time></trkpt><trkpt lat="44.5321333" lon="10.4711783"><ele>470.0</ele><time>2026-04-19T14:47:05.908Z</time></trkpt><trkpt lat="44.5322517" lon="10.4712267"><ele>470.0</ele><time>2026-04-19T14:47:06.91Z</time></trkpt><trkpt lat="44.5323717" lon="10.4712783"><ele>470.0</ele><time>2026-04-19T14:47:07.915Z</time></trkpt><trkpt lat="44.5324967" lon="10.4713333"><ele>475.8</ele><time>2026-04-19T14:47:08.913Z</time></trkpt><trkpt lat="44.5326183" lon="10.4713817"><ele>481.6</ele><time>2026-04-19T14:47:09.911Z</time></trkpt><trkpt lat="44.5327233" lon="10.47142"><ele>487.4</ele><time>2026-04-19T14:47:10.912Z</time></trkpt><trkpt lat="44.532825" lon="10.4714317"><ele>493.2</ele><time>2026-04-19T14:47:11.909Z</time></trkpt><trkpt lat="44.532935" lon="10.4714"><ele>499.0</ele><time>2026-04-19T14:47:12.909Z</time></trkpt><trkpt lat="44.53304" lon="10.4713333"><ele>501.79999999999995</ele><time>2026-04-19T14:47:13.912Z</time></trkpt><trkpt lat="44.533135" lon="10.4712733"><ele>504.59999999999997</ele><time>2026-04-19T14:47:14.913Z</time></trkpt><trkpt lat="44.53322" lon="10.4712367"><ele>507.4</ele><time>2026-04-19T14:47:15.907Z</time></trkpt><trkpt lat="44.5332983" lon="10.4712267"><ele>510.2</ele><time>2026-04-19T14:47:16.91Z</time></trkpt><trkpt lat="44.5333733" lon="10.4712817"><ele>513.0</ele><time>2026-04-19T14:47:17.909Z</time></trkpt><trkpt lat="44.53344" lon="10.4713933"><ele>513.0</ele><time>2026-04-19T14:47:18.906Z</time></trkpt><trkpt lat="44.5335017" lon="10.4715383"><ele>513.0</ele><time>2026-04-19T14:47:19.925Z</time></trkpt><trkpt lat="44.5335567" lon="10.471705"><ele>513.0</ele><time>2026-04-19T14:47:20.912Z</time></trkpt><trkpt lat="44.53359" lon="10.471885"><ele>513.0</ele><time>2026-04-19T14:47:21.91Z</time></trkpt><trkpt lat="44.5335883" lon="10.4720617"><ele>514.5</ele><time>2026-04-19T14:47:22.912Z</time></trkpt><trkpt lat="44.5335617" lon="10.47223"><ele>516.0</ele><time>2026-04-19T14:47:23.91Z</time></trkpt><trkpt lat="44.53351" lon="10.4723833"><ele>517.5</ele><time>2026-04-19T14:47:24.92Z</time></trkpt><trkpt lat="44.533445" lon="10.4725267"><ele>519.0</ele><time>2026-04-19T14:47:25.911Z</time></trkpt><trkpt lat="44.53339" lon="10.472665"><ele>519.0</ele><time>2026-04-19T14:47:26.911Z</time></trkpt><trkpt lat="44.533355" lon="10.4727933"><ele>519.0</ele><time>2026-04-19T14:47:27.906Z</time></trkpt><trkpt lat="44.5333467" lon="10.4729233"><ele>519.0</ele><time>2026-04-19T14:47:28.91Z</time></trkpt><trkpt lat="44.5333717" lon="10.4730633"><ele>519.0</ele><time>2026-04-19T14:47:29.909Z</time></trkpt><trkpt lat="44.5334167" lon="10.4732067"><ele>519.0</ele><time>2026-04-19T14:47:30.91Z</time></trkpt><trkpt lat="44.53349" lon="10.4733683"><ele>520.75</ele><time>2026-04-19T14:47:31.909Z</time></trkpt><trkpt lat="44.5335567" lon="10.4735333"><ele>522.5</ele><time>2026-04-19T14:47:32.915Z</time></trkpt><trkpt lat="44.5336183" lon="10.4736767"><ele>524.25</ele><time>2026-04-19T14:47:33.908Z</time></trkpt><trkpt lat="44.53368" lon="10.4738"><ele>526.0</ele><time>2026-04-19T14:47:34.911Z</time></trkpt><trkpt lat="44.5337433" lon="10.473895"><ele>529.1666666666667</ele><time>2026-04-19T14:47:35.909Z</time></trkpt><trkpt lat="44.533795" lon="10.4739633"><ele>532.3333333333334</ele><time>2026-04-19T14:47:36.908Z</time></trkpt><trkpt lat="44.533845" lon="10.4740233"><ele>535.5</ele><time>2026-04-19T14:47:38.906Z</time></trkpt><trkpt lat="44.53392" lon="10.4740617"><ele>538.6666666666666</ele><time>2026-04-19T14:47:41.907Z</time></trkpt><trkpt lat="44.53402" lon="10.4740017"><ele>541.8333333333333</ele><time>2026-04-19T14:47:43.904Z</time></trkpt><trkpt lat="44.5341183" lon="10.4739117"><ele>545.0</ele><time>2026-04-19T14:47:45.909Z</time></trkpt><trkpt lat="44.5341633" lon="10.4737683"><ele>545.1428571428571</ele><time>2026-04-19T14:47:47.911Z</time></trkpt><trkpt lat="44.5341683" lon="10.4736767"><ele>545.2857142857143</ele><time>2026-04-19T14:47:48.907Z</time></trkpt><trkpt lat="44.5341617" lon="10.4735833"><ele>545.4285714285714</ele><time>2026-04-19T14:47:49.911Z</time></trkpt><trkpt lat="44.534155" lon="10.4734867"><ele>545.5714285714286</ele><time>2026-04-19T14:47:50.906Z</time></trkpt><trkpt lat="44.53416" lon="10.4733783"><ele>545.7142857142858</ele><time>2026-04-19T14:47:51.911Z</time></trkpt><trkpt lat="44.534175" lon="10.473275"><ele>545.8571428571429</ele><time>2026-04-19T14:47:52.912Z</time></trkpt><trkpt lat="44.5342083" lon="10.4731833"><ele>546.0</ele><time>2026-04-19T14:47:53.912Z</time></trkpt><trkpt lat="44.5342667" lon="10.4731083"><ele>546.0</ele><time>2026-04-19T14:47:54.911Z</time></trkpt><trkpt lat="44.53435" lon="10.4730567"><ele>546.0</ele><time>2026-04-19T14:47:55.917Z</time></trkpt><trkpt lat="44.5344467" lon="10.4730233"><ele>546.0</ele><time>2026-04-19T14:47:56.911Z</time></trkpt><trkpt lat="44.5345383" lon="10.472975"><ele>546.0</ele><time>2026-04-19T14:47:57.914Z</time></trkpt><trkpt lat="44.53462" lon="10.472895"><ele>546.0</ele><time>2026-04-19T14:47:58.912Z</time></trkpt><trkpt lat="44.5346767" lon="10.4727683"><ele>551.0</ele><time>2026-04-19T14:47:59.909Z</time></trkpt><trkpt lat="44.5347" lon="10.4726017"><ele>556.0</ele><time>2026-04-19T14:48:00.914Z</time></trkpt><trkpt lat="44.534705" lon="10.4724067"><ele>561.0</ele><time>2026-04-19T14:48:01.905Z</time></trkpt><trkpt lat="44.5347067" lon="10.4722067"><ele>566.0</ele><time>2026-04-19T14:48:02.919Z</time></trkpt><trkpt lat="44.5347167" lon="10.472005"><ele>566.75</ele><time>2026-04-19T14:48:03.905Z</time></trkpt><trkpt lat="44.53475" lon="10.4718017"><ele>567.5</ele><time>2026-04-19T14:48:04.908Z</time></trkpt><trkpt lat="44.5348083" lon="10.471605"><ele>568.25</ele><time>2026-04-19T14:48:05.911Z</time></trkpt><trkpt lat="44.5348883" lon="10.4714317"><ele>569.0</ele><time>2026-04-19T14:48:06.907Z</time></trkpt><trkpt lat="44.5349717" lon="10.4712767"><ele>567.2</ele><time>2026-04-19T14:48:07.917Z</time></trkpt><trkpt lat="44.5350483" lon="10.471135"><ele>565.4</ele><time>2026-04-19T14:48:08.908Z</time></trkpt><trkpt lat="44.53511" lon="10.471015"><ele>563.6</ele><time>2026-04-19T14:48:09.912Z</time></trkpt><trkpt lat="44.5351667" lon="10.4709083"><ele>561.8</ele><time>2026-04-19T14:48:10.909Z</time></trkpt><trkpt lat="44.5352417" lon="10.470825"><ele>560.0</ele><time>2026-04-19T14:48:11.907Z</time></trkpt><trkpt lat="44.5353467" lon="10.4707683"><ele>565.0</ele><time>2026-04-19T14:48:12.916Z</time></trkpt><trkpt lat="44.535465" lon="10.4707383"><ele>570.0</ele><time>2026-04-19T14:48:13.918Z</time></trkpt><trkpt lat="44.5355917" lon="10.470745"><ele>575.0</ele><time>2026-04-19T14:48:14.939Z</time></trkpt><trkpt lat="44.5357183" lon="10.470785"><ele>580.0</ele><time>2026-04-19T14:48:15.91Z</time></trkpt><trkpt lat="44.5358433" lon="10.4708367"><ele>580.0</ele><time>2026-04-19T14:48:16.907Z</time></trkpt><trkpt lat="44.5359567" lon="10.4708617"><ele>580.0</ele><time>2026-04-19T14:48:17.916Z</time></trkpt><trkpt lat="44.53606" lon="10.47086"><ele>580.0</ele><time>2026-04-19T14:48:18.909Z</time></trkpt><trkpt lat="44.5361583" lon="10.4708183"><ele>580.0</ele><time>2026-04-19T14:48:19.907Z</time></trkpt><trkpt lat="44.53625" lon="10.4707367"><ele>580.0</ele><time>2026-04-19T14:48:20.91Z</time></trkpt><trkpt lat="44.536305" lon="10.4706017"><ele>580.2</ele><time>2026-04-19T14:48:21.912Z</time></trkpt><trkpt lat="44.536345" lon="10.4704383"><ele>580.4</ele><time>2026-04-19T14:48:22.911Z</time></trkpt><trkpt lat="44.536365" lon="10.470265"><ele>580.6</ele><time>2026-04-19T14:48:23.917Z</time></trkpt><trkpt lat="44.5363717" lon="10.4701117"><ele>580.8</ele><time>2026-04-19T14:48:24.909Z</time></trkpt><trkpt lat="44.53637" lon="10.46999"><ele>581.0</ele><time>2026-04-19T14:48:25.911Z</time></trkpt><trkpt lat="44.5363883" lon="10.4698967"><ele>581.0</ele><time>2026-04-19T14:48:26.913Z</time></trkpt><trkpt lat="44.5364717" lon="10.4698067"><ele>581.0</ele><time>2026-04-19T14:48:28.907Z</time></trkpt><trkpt lat="44.5365367" lon="10.46993"><ele>581.0</ele><time>2026-04-19T14:48:30.911Z</time></trkpt><trkpt lat="44.5365417" lon="10.4700183"><ele>581.0</ele><time>2026-04-19T14:48:31.91Z</time></trkpt><trkpt lat="44.5365333" lon="10.470175"><ele>581.0</ele><time>2026-04-19T14:48:33.909Z</time></trkpt><trkpt lat="44.5365167" lon="10.470305"><ele>581.0</ele><time>2026-04-19T14:48:35.923Z</time></trkpt><trkpt lat="44.5365017" lon="10.4704383"><ele>581.0</ele><time>2026-04-19T14:48:37.916Z</time></trkpt><trkpt lat="44.5364733" lon="10.4706083"><ele>581.0</ele><time>2026-04-19T14:48:39.916Z</time></trkpt><trkpt lat="44.5364583" lon="10.4707"><ele>581.0</ele><time>2026-04-19T14:48:40.913Z</time></trkpt><trkpt lat="44.5364383" lon="10.47079"><ele>581.0</ele><time>2026-04-19T14:48:41.91Z</time></trkpt><trkpt lat="44.536415" lon="10.4708867"><ele>581.0</ele><time>2026-04-19T14:48:42.907Z</time></trkpt><trkpt lat="44.5363833" lon="10.4709833"><ele>584.1666666666666</ele><time>2026-04-19T14:48:43.911Z</time></trkpt><trkpt lat="44.536345" lon="10.47108"><ele>587.3333333333333</ele><time>2026-04-19T14:48:44.915Z</time></trkpt><trkpt lat="44.53629" lon="10.4711667"><ele>590.5</ele><time>2026-04-19T14:48:45.909Z</time></trkpt><trkpt lat="44.536225" lon="10.4712417"><ele>593.6666666666666</ele><time>2026-04-19T14:48:46.919Z</time></trkpt><trkpt lat="44.5361467" lon="10.4712917"><ele>596.8333333333334</ele><time>2026-04-19T14:48:47.919Z</time></trkpt><trkpt lat="44.5360483" lon="10.4713067"><ele>600.0</ele><time>2026-04-19T14:48:48.913Z</time></trkpt><trkpt lat="44.53594" lon="10.47129"><ele>600.4</ele><time>2026-04-19T14:48:49.908Z</time></trkpt><trkpt lat="44.5358333" lon="10.47127"><ele>600.8</ele><time>2026-04-19T14:48:50.91Z</time></trkpt><trkpt lat="44.535735" lon="10.4712767"><ele>601.2</ele><time>2026-04-19T14:48:51.911Z</time></trkpt><trkpt lat="44.5356483" lon="10.47132"><ele>601.6</ele><time>2026-04-19T14:48:52.923Z</time></trkpt><trkpt lat="44.5355867" lon="10.4714117"><ele>602.0</ele><time>2026-04-19T14:48:53.924Z</time></trkpt><trkpt lat="44.5355417" lon="10.4715417"><ele>602.0</ele><time>2026-04-19T14:48:54.94Z</time></trkpt><trkpt lat="44.53551" lon="10.4716833"><ele>602.0</ele><time>2026-04-19T14:48:55.931Z</time></trkpt><trkpt lat="44.5355" lon="10.471815"><ele>602.0</ele><time>2026-04-19T14:48:56.924Z</time></trkpt><trkpt lat="44.5355217" lon="10.4719433"><ele>602.0</ele><time>2026-04-19T14:48:57.911Z</time></trkpt><trkpt lat="44.5355633" lon="10.4720667"><ele>602.0</ele><time>2026-04-19T14:48:58.914Z</time></trkpt><trkpt lat="44.5356533" lon="10.4721583"><ele>601.0</ele><time>2026-04-19T14:48:59.907Z</time></trkpt><trkpt lat="44.535765" lon="10.4722317"><ele>600.0</ele><time>2026-04-19T14:49:00.91Z</time></trkpt><trkpt lat="44.5358767" lon="10.4723133"><ele>599.0</ele><time>2026-04-19T14:49:01.911Z</time></trkpt><trkpt lat="44.535985" lon="10.472395"><ele>598.0</ele><time>2026-04-19T14:49:02.91Z</time></trkpt><trkpt lat="44.5360783" lon="10.4724967"><ele>598.0</ele><time>2026-04-19T14:49:03.91Z</time></trkpt><trkpt lat="44.536155" lon="10.472625"><ele>598.0</ele><time>2026-04-19T14:49:04.908Z</time></trkpt><trkpt lat="44.536215" lon="10.4727883"><ele>598.0</ele><time>2026-04-19T14:49:05.916Z</time></trkpt><trkpt lat="44.53627" lon="10.4729733"><ele>598.0</ele><time>2026-04-19T14:49:06.907Z</time></trkpt><trkpt lat="44.5363283" lon="10.473155"><ele>605.5</ele><time>2026-04-19T14:49:07.906Z</time></trkpt><trkpt lat="44.5363617" lon="10.4733383"><ele>613.0</ele><time>2026-04-19T14:49:08.907Z</time></trkpt><trkpt lat="44.5363667" lon="10.4735233"><ele>620.5</ele><time>2026-04-19T14:49:09.91Z</time></trkpt><trkpt lat="44.5363617" lon="10.47371"><ele>628.0</ele><time>2026-04-19T14:49:10.911Z</time></trkpt><trkpt lat="44.536385" lon="10.4738967"><ele>628.0</ele><time>2026-04-19T14:49:11.909Z</time></trkpt><trkpt lat="44.5364433" lon="10.4740917"><ele>628.0</ele><time>2026-04-19T14:49:12.907Z</time></trkpt><trkpt lat="44.5365267" lon="10.4743"><ele>628.0</ele><time>2026-04-19T14:49:13.918Z</time></trkpt><trkpt lat="44.5366083" lon="10.474515"><ele>627.25</ele><time>2026-04-19T14:49:14.906Z</time></trkpt><trkpt lat="44.536675" lon="10.474715"><ele>626.5</ele><time>2026-04-19T14:49:15.908Z</time></trkpt><trkpt lat="44.5367233" lon="10.4748933"><ele>625.75</ele><time>2026-04-19T14:49:16.916Z</time></trkpt><trkpt lat="44.5367483" lon="10.4750783"><ele>625.0</ele><time>2026-04-19T14:49:17.911Z</time></trkpt><trkpt lat="44.53674" lon="10.475275"><ele>628.0</ele><time>2026-04-19T14:49:18.91Z</time></trkpt><trkpt lat="44.5366917" lon="10.4754867"><ele>631.0</ele><time>2026-04-19T14:49:19.912Z</time></trkpt><trkpt lat="44.5366217" lon="10.4756933"><ele>634.0</ele><time>2026-04-19T14:49:20.914Z</time></trkpt><trkpt lat="44.536545" lon="10.4758967"><ele>634.0</ele><time>2026-04-19T14:49:21.912Z</time></trkpt><trkpt lat="44.53646" lon="10.476085"><ele>634.0</ele><time>2026-04-19T14:49:22.913Z</time></trkpt><trkpt lat="44.53637" lon="10.4762467"><ele>634.0</ele><time>2026-04-19T14:49:23.913Z</time></trkpt><trkpt lat="44.536265" lon="10.476365"><ele>634.0</ele><time>2026-04-19T14:49:24.907Z</time></trkpt><trkpt lat="44.5361567" lon="10.4764483"><ele>631.4</ele><time>2026-04-19T14:49:25.908Z</time></trkpt><trkpt lat="44.5360533" lon="10.4765033"><ele>628.8</ele><time>2026-04-19T14:49:26.911Z</time></trkpt><trkpt lat="44.5359533" lon="10.4765483"><ele>626.2</ele><time>2026-04-19T14:49:27.907Z</time></trkpt><trkpt lat="44.5358717" lon="10.4766133"><ele>623.6</ele><time>2026-04-19T14:49:28.91Z</time></trkpt><trkpt lat="44.535815" lon="10.4766933"><ele>621.0</ele><time>2026-04-19T14:49:29.965Z</time></trkpt><trkpt lat="44.5358133" lon="10.47682"><ele>621.0</ele><time>2026-04-19T14:49:30.909Z</time></trkpt><trkpt lat="44.5358583" lon="10.4769533"><ele>621.0</ele><time>2026-04-19T14:49:31.907Z</time></trkpt><trkpt lat="44.5359517" lon="10.4770733"><ele>621.0</ele><time>2026-04-19T14:49:32.908Z</time></trkpt><trkpt lat="44.536065" lon="10.4771867"><ele>621.0</ele><time>2026-04-19T14:49:33.911Z</time></trkpt><trkpt lat="44.5361817" lon="10.4772933"><ele>625.75</ele><time>2026-04-19T14:49:34.91Z</time></trkpt><trkpt lat="44.5363033" lon="10.4773983"><ele>630.5</ele><time>2026-04-19T14:49:35.915Z</time></trkpt><trkpt lat="44.536415" lon="10.4774917"><ele>635.25</ele><time>2026-04-19T14:49:36.907Z</time></trkpt><trkpt lat="44.5365283" lon="10.4775783"><ele>640.0</ele><time>2026-04-19T14:49:37.907Z</time></trkpt><trkpt lat="44.5366383" lon="10.4776433"><ele>640.0</ele><time>2026-04-19T14:49:38.91Z</time></trkpt><trkpt lat="44.5367467" lon="10.4776817"><ele>640.0</ele><time>2026-04-19T14:49:39.907Z</time></trkpt><trkpt lat="44.5368517" lon="10.4776983"><ele>640.0</ele><time>2026-04-19T14:49:40.908Z</time></trkpt><trkpt lat="44.5369417" lon="10.4776967"><ele>640.0</ele><time>2026-04-19T14:49:41.91Z</time></trkpt><trkpt lat="44.53702" lon="10.4776967"><ele>640.0</ele><time>2026-04-19T14:49:42.907Z</time></trkpt><trkpt lat="44.5370867" lon="10.4776967"><ele>639.8</ele><time>2026-04-19T14:49:43.914Z</time></trkpt><trkpt lat="44.5372033" lon="10.4776967"><ele>639.6</ele><time>2026-04-19T14:49:45.908Z</time></trkpt><trkpt lat="44.53732" lon="10.4776333"><ele>639.4</ele><time>2026-04-19T14:49:47.918Z</time></trkpt><trkpt lat="44.5373967" lon="10.4775883"><ele>639.2</ele><time>2026-04-19T14:49:48.912Z</time></trkpt><trkpt lat="44.5374867" lon="10.4775467"><ele>639.0</ele><time>2026-04-19T14:49:49.916Z</time></trkpt><trkpt lat="44.5375917" lon="10.477515"><ele>639.0</ele><time>2026-04-19T14:49:50.911Z</time></trkpt><trkpt lat="44.5377033" lon="10.47749"><ele>639.0</ele><time>2026-04-19T14:49:51.918Z</time></trkpt><trkpt lat="44.537815" lon="10.47746"><ele>639.0</ele><time>2026-04-19T14:49:52.909Z</time></trkpt><trkpt lat="44.5379267" lon="10.4774167"><ele>639.0</ele><time>2026-04-19T14:49:53.909Z</time></trkpt><trkpt lat="44.5380367" lon="10.477365"><ele>636.0</ele><time>2026-04-19T14:49:54.927Z</time></trkpt><trkpt lat="44.5381433" lon="10.47731"><ele>633.0</ele><time>2026-04-19T14:49:55.91Z</time></trkpt><trkpt lat="44.5382517" lon="10.4772583"><ele>630.0</ele><time>2026-04-19T14:49:56.911Z</time></trkpt><trkpt lat="44.5383567" lon="10.4772067"><ele>627.0</ele><time>2026-04-19T14:49:57.932Z</time></trkpt><trkpt lat="44.5384617" lon="10.477155"><ele>628.2</ele><time>2026-04-19T14:49:58.912Z</time></trkpt><trkpt lat="44.538565" lon="10.4771017"><ele>629.4000000000001</ele><time>2026-04-19T14:49:59.909Z</time></trkpt><trkpt lat="44.53867" lon="10.4770467"><ele>630.5999999999999</ele><time>2026-04-19T14:50:00.924Z</time></trkpt><trkpt lat="44.5387683" lon="10.4769783"><ele>631.8</ele><time>2026-04-19T14:50:01.952Z</time></trkpt><trkpt lat="44.538855" lon="10.4768967"><ele>633.0</ele><time>2026-04-19T14:50:02.898Z</time></trkpt><trkpt lat="44.538935" lon="10.4768033"><ele>630.0</ele><time>2026-04-19T14:50:03.899Z</time></trkpt><trkpt lat="44.5390067" lon="10.4767033"><ele>627.0</ele><time>2026-04-19T14:50:04.899Z</time></trkpt><trkpt lat="44.5390733" lon="10.4766067"><ele>624.0</ele><time>2026-04-19T14:50:05.907Z</time></trkpt><trkpt lat="44.5391383" lon="10.4765133"><ele>621.0</ele><time>2026-04-19T14:50:06.911Z</time></trkpt><trkpt lat="44.539205" lon="10.4764317"><ele>618.0</ele><time>2026-04-19T14:50:07.93Z</time></trkpt><trkpt lat="44.5392717" lon="10.4763667"><ele>618.0</ele><time>2026-04-19T14:50:08.912Z</time></trkpt><trkpt lat="44.5393467" lon="10.4763267"><ele>618.0</ele><time>2026-04-19T14:50:09.908Z</time></trkpt><trkpt lat="44.539425" lon="10.476325"><ele>618.0</ele><time>2026-04-19T14:50:10.922Z</time></trkpt><trkpt lat="44.53951" lon="10.476375"><ele>618.0</ele><time>2026-04-19T14:50:11.907Z</time></trkpt><trkpt lat="44.539605" lon="10.4764633"><ele>618.0</ele><time>2026-04-19T14:50:12.921Z</time></trkpt><trkpt lat="44.5397117" lon="10.476565"><ele>616.25</ele><time>2026-04-19T14:50:13.91Z</time></trkpt><trkpt lat="44.5398267" lon="10.4766667"><ele>614.5</ele><time>2026-04-19T14:50:14.921Z</time></trkpt><trkpt lat="44.53994" lon="10.476765"><ele>612.75</ele><time>2026-04-19T14:50:15.928Z</time></trkpt><trkpt lat="44.5400467" lon="10.4768633"><ele>611.0</ele><time>2026-04-19T14:50:16.909Z</time></trkpt><trkpt lat="44.5401383" lon="10.4769817"><ele>609.0</ele><time>2026-04-19T14:50:17.926Z</time></trkpt><trkpt lat="44.5402067" lon="10.4771183"><ele>607.0</ele><time>2026-04-19T14:50:18.912Z</time></trkpt><trkpt lat="44.5402817" lon="10.477265"><ele>605.0</ele><time>2026-04-19T14:50:19.909Z</time></trkpt><trkpt lat="44.5403567" lon="10.477405"><ele>603.0</ele><time>2026-04-19T14:50:20.928Z</time></trkpt><trkpt lat="44.5404367" lon="10.4775367"><ele>602.25</ele><time>2026-04-19T14:50:21.912Z</time></trkpt><trkpt lat="44.5405267" lon="10.4776567"><ele>601.5</ele><time>2026-04-19T14:50:22.911Z</time></trkpt><trkpt lat="44.5406233" lon="10.4777483"><ele>600.75</ele><time>2026-04-19T14:50:23.931Z</time></trkpt><trkpt lat="44.5407317" lon="10.4778183"><ele>600.0</ele><time>2026-04-19T14:50:24.92Z</time></trkpt><trkpt lat="44.54084" lon="10.477885"><ele>600.0</ele><time>2026-04-19T14:50:25.908Z</time></trkpt><trkpt lat="44.5409433" lon="10.4779633"><ele>600.0</ele><time>2026-04-19T14:50:26.915Z</time></trkpt><trkpt lat="44.5410383" lon="10.478045"><ele>600.0</ele><time>2026-04-19T14:50:27.905Z</time></trkpt><trkpt lat="44.5411183" lon="10.47813"><ele>600.0</ele><time>2026-04-19T14:50:28.915Z</time></trkpt><trkpt lat="44.54119" lon="10.4782367"><ele>600.0</ele><time>2026-04-19T14:50:29.916Z</time></trkpt><trkpt lat="44.54124" lon="10.4783683"><ele>597.1666666666666</ele><time>2026-04-19T14:50:30.903Z</time></trkpt><trkpt lat="44.5412717" lon="10.478505"><ele>594.3333333333334</ele><time>2026-04-19T14:50:31.907Z</time></trkpt><trkpt lat="44.5413067" lon="10.4786217"><ele>591.5</ele><time>2026-04-19T14:50:32.925Z</time></trkpt><trkpt lat="44.541345" lon="10.4787117"><ele>588.6666666666667</ele><time>2026-04-19T14:50:33.909Z</time></trkpt><trkpt lat="44.5413967" lon="10.4787733"><ele>585.8333333333334</ele><time>2026-04-19T14:50:34.94Z</time></trkpt><trkpt lat="44.5414617" lon="10.4787583"><ele>583.0</ele><time>2026-04-19T14:50:35.917Z</time></trkpt><trkpt lat="44.5415233" lon="10.478715"><ele>583.0</ele><time>2026-04-19T14:50:36.925Z</time></trkpt><trkpt lat="44.5415717" lon="10.4786283"><ele>583.0</ele><time>2026-04-19T14:50:37.915Z</time></trkpt><trkpt lat="44.5415983" lon="10.478505"><ele>583.0</ele><time>2026-04-19T14:50:38.913Z</time></trkpt><trkpt lat="44.5416367" lon="10.4783917"><ele>583.0</ele><time>2026-04-19T14:50:39.925Z</time></trkpt><trkpt lat="44.5416833" lon="10.47828"><ele>583.0</ele><time>2026-04-19T14:50:40.91Z</time></trkpt><trkpt lat="44.5417533" lon="10.4782083"><ele>583.0</ele><time>2026-04-19T14:50:41.909Z</time></trkpt><trkpt lat="44.54186" lon="10.4782133"><ele>583.0</ele><time>2026-04-19T14:50:42.928Z</time></trkpt><trkpt lat="44.5419767" lon="10.4782433"><ele>583.0</ele><time>2026-04-19T14:50:43.911Z</time></trkpt><trkpt lat="44.5420933" lon="10.4782967"><ele>583.0</ele><time>2026-04-19T14:50:44.911Z</time></trkpt><trkpt lat="44.5422017" lon="10.4783833"><ele>583.0</ele><time>2026-04-19T14:50:45.919Z</time></trkpt><trkpt lat="44.5423017" lon="10.4784833"><ele>580.6</ele><time>2026-04-19T14:50:46.911Z</time></trkpt><trkpt lat="44.542395" lon="10.4785817"><ele>578.1999999999999</ele><time>2026-04-19T14:50:47.935Z</time></trkpt><trkpt lat="44.5424833" lon="10.4786783"><ele>575.8</ele><time>2026-04-19T14:50:48.913Z</time></trkpt><trkpt lat="44.54257" lon="10.478775"><ele>573.4</ele><time>2026-04-19T14:50:49.906Z</time></trkpt><trkpt lat="44.5426533" lon="10.478875"><ele>571.0</ele><time>2026-04-19T14:50:50.926Z</time></trkpt><trkpt lat="44.54274" lon="10.4789783"><ele>569.4</ele><time>2026-04-19T14:50:51.91Z</time></trkpt><trkpt lat="44.54282" lon="10.4790833"><ele>567.8</ele><time>2026-04-19T14:50:52.935Z</time></trkpt><trkpt lat="44.5428917" lon="10.4791817"><ele>566.1999999999999</ele><time>2026-04-19T14:50:53.909Z</time></trkpt><trkpt lat="44.5429567" lon="10.479275"><ele>564.6</ele><time>2026-04-19T14:50:54.909Z</time></trkpt><trkpt lat="44.5430133" lon="10.47937"><ele>563.0</ele><time>2026-04-19T14:50:55.944Z</time></trkpt><trkpt lat="44.5430483" lon="10.4794583"><ele>563.0</ele><time>2026-04-19T14:50:56.93Z</time></trkpt><trkpt lat="44.543025" lon="10.4795933"><ele>563.0</ele><time>2026-04-19T14:50:58.912Z</time></trkpt><trkpt lat="44.5429183" lon="10.4796133"><ele>563.0</ele><time>2026-04-19T14:51:00.953Z</time></trkpt><trkpt lat="44.54284" lon="10.4795633"><ele>563.0</ele><time>2026-04-19T14:51:01.941Z</time></trkpt><trkpt lat="44.54276" lon="10.4795117"><ele>563.0</ele><time>2026-04-19T14:51:02.93Z</time></trkpt><trkpt lat="44.5426817" lon="10.4794733"><ele>563.0</ele><time>2026-04-19T14:51:03.91Z</time></trkpt><trkpt lat="44.5426033" lon="10.479445"><ele>563.0</ele><time>2026-04-19T14:51:04.927Z</time></trkpt><trkpt lat="44.5425317" lon="10.4794217"><ele>563.0</ele><time>2026-04-19T14:51:05.908Z</time></trkpt><trkpt lat="44.5424683" lon="10.4794017"><ele>563.0</ele><time>2026-04-19T14:51:06.915Z</time></trkpt><trkpt lat="44.54237" lon="10.4794017"><ele>563.0</ele><time>2026-04-19T14:51:08.905Z</time></trkpt><trkpt lat="44.5423467" lon="10.4795567"><ele>563.0</ele><time>2026-04-19T14:51:11.955Z</time></trkpt><trkpt lat="44.54243" lon="10.4796333"><ele>561.1999999999999</ele><time>2026-04-19T14:51:12.911Z</time></trkpt><trkpt lat="44.5425117" lon="10.47971"><ele>559.4</ele><time>2026-04-19T14:51:13.95Z</time></trkpt><trkpt lat="44.5425933" lon="10.47978"><ele>557.5999999999999</ele><time>2026-04-19T14:51:14.91Z</time></trkpt><trkpt lat="44.54268" lon="10.479855"><ele>555.8</ele><time>2026-04-19T14:51:15.91Z</time></trkpt><trkpt lat="44.5427583" lon="10.4799233"><ele>554.0</ele><time>2026-04-19T14:51:16.921Z</time></trkpt><trkpt lat="44.5428267" lon="10.4799717"><ele>553.5714285714286</ele><time>2026-04-19T14:51:17.927Z</time></trkpt><trkpt lat="44.5428883" lon="10.4800017"><ele>553.1428571428571</ele><time>2026-04-19T14:51:18.909Z</time></trkpt><trkpt lat="44.5429567" lon="10.4800233"><ele>552.7142857142857</ele><time>2026-04-19T14:51:19.94Z</time></trkpt><trkpt lat="44.5430283" lon="10.4800317"><ele>552.2857142857142</ele><time>2026-04-19T14:51:20.935Z</time></trkpt><trkpt lat="44.5431033" lon="10.4800317"><ele>551.8571428571429</ele><time>2026-04-19T14:51:21.95Z</time></trkpt><trkpt lat="44.5431767" lon="10.4800383"><ele>551.4285714285713</ele><time>2026-04-19T14:51:22.912Z</time></trkpt><trkpt lat="44.5432483" lon="10.4800633"><ele>551.0</ele><time>2026-04-19T14:51:23.913Z</time></trkpt><trkpt lat="44.543315" lon="10.4801017"><ele>551.0</ele><time>2026-04-19T14:51:24.91Z</time></trkpt><trkpt lat="44.5433833" lon="10.4801583"><ele>551.0</ele><time>2026-04-19T14:51:25.913Z</time></trkpt><trkpt lat="44.54345" lon="10.4802267"><ele>551.0</ele><time>2026-04-19T14:51:26.912Z</time></trkpt><trkpt lat="44.543525" lon="10.4802983"><ele>551.0</ele><time>2026-04-19T14:51:27.91Z</time></trkpt><trkpt lat="44.5435967" lon="10.4803617"><ele>551.0</ele><time>2026-04-19T14:51:28.91Z</time></trkpt><trkpt lat="44.5436683" lon="10.4804183"><ele>551.0</ele><time>2026-04-19T14:51:29.91Z</time></trkpt><trkpt lat="44.543745" lon="10.4804667"><ele>548.8333333333333</ele><time>2026-04-19T14:51:30.909Z</time></trkpt><trkpt lat="44.5438183" lon="10.4805067"><ele>546.6666666666666</ele><time>2026-04-19T14:51:31.908Z</time></trkpt><trkpt lat="44.5439" lon="10.4805333"><ele>544.5</ele><time>2026-04-19T14:51:32.909Z</time></trkpt><trkpt lat="44.5439817" lon="10.4805317"><ele>542.3333333333334</ele><time>2026-04-19T14:51:33.909Z</time></trkpt><trkpt lat="44.5440633" lon="10.48051"><ele>540.1666666666667</ele><time>2026-04-19T14:51:34.925Z</time></trkpt><trkpt lat="44.5441433" lon="10.4804783"><ele>538.0</ele><time>2026-04-19T14:51:35.913Z</time></trkpt><trkpt lat="44.5442217" lon="10.4804267"><ele>538.0</ele><time>2026-04-19T14:51:36.905Z</time></trkpt><trkpt lat="44.5442867" lon="10.4803617"><ele>538.0</ele><time>2026-04-19T14:51:37.907Z</time></trkpt><trkpt lat="44.5443367" lon="10.4802967"><ele>538.0</ele><time>2026-04-19T14:51:38.909Z</time></trkpt><trkpt lat="44.5443983" lon="10.480165"><ele>538.0</ele><time>2026-04-19T14:51:40.911Z</time></trkpt><trkpt lat="44.5444517" lon="10.48001"><ele>538.0</ele><time>2026-04-19T14:51:42.91Z</time></trkpt><trkpt lat="44.54452" lon="10.4799"><ele>534.6</ele><time>2026-04-19T14:51:44.91Z</time></trkpt><trkpt lat="44.5446067" lon="10.4798867"><ele>531.1999999999999</ele><time>2026-04-19T14:51:46.913Z</time></trkpt><trkpt lat="44.5446933" lon="10.4800367"><ele>527.8</ele><time>2026-04-19T14:51:48.914Z</time></trkpt><trkpt lat="44.5447383" lon="10.4801517"><ele>524.4</ele><time>2026-04-19T14:51:49.912Z</time></trkpt><trkpt lat="44.54479" lon="10.480285"><ele>521.0</ele><time>2026-04-19T14:51:50.913Z</time></trkpt><trkpt lat="44.544845" lon="10.4804183"><ele>522.4</ele><time>2026-04-19T14:51:51.918Z</time></trkpt><trkpt lat="44.544895" lon="10.480545"><ele>523.8</ele><time>2026-04-19T14:51:52.924Z</time></trkpt><trkpt lat="44.54493" lon="10.4806733"><ele>525.1999999999999</ele><time>2026-04-19T14:51:53.92Z</time></trkpt><trkpt lat="44.544945" lon="10.4808117"><ele>526.6</ele><time>2026-04-19T14:51:54.911Z</time></trkpt><trkpt lat="44.54493" lon="10.4809567"><ele>528.0</ele><time>2026-04-19T14:51:55.929Z</time></trkpt><trkpt lat="44.5448767" lon="10.4811033"><ele>528.0</ele><time>2026-04-19T14:51:56.914Z</time></trkpt><trkpt lat="44.5448217" lon="10.4812383"><ele>528.0</ele><time>2026-04-19T14:51:57.908Z</time></trkpt><trkpt lat="44.5447767" lon="10.4813567"><ele>528.0</ele><time>2026-04-19T14:51:58.911Z</time></trkpt><trkpt lat="44.54474" lon="10.481485"><ele>528.0</ele><time>2026-04-19T14:51:59.908Z</time></trkpt><trkpt lat="44.5447167" lon="10.481635"><ele>528.0</ele><time>2026-04-19T14:52:00.909Z</time></trkpt><trkpt lat="44.5447067" lon="10.4817833"><ele>528.8333333333334</ele><time>2026-04-19T14:52:01.93Z</time></trkpt><trkpt lat="44.5447" lon="10.481925"><ele>529.6666666666666</ele><time>2026-04-19T14:52:02.912Z</time></trkpt><trkpt lat="44.5446967" lon="10.4820633"><ele>530.5</ele><time>2026-04-19T14:52:03.919Z</time></trkpt><trkpt lat="44.5446933" lon="10.4821833"><ele>531.3333333333333</ele><time>2026-04-19T14:52:04.907Z</time></trkpt><trkpt lat="44.5446933" lon="10.4822933"><ele>532.1666666666666</ele><time>2026-04-19T14:52:05.911Z</time></trkpt><trkpt lat="44.5446933" lon="10.4823833"><ele>533.0</ele><time>2026-04-19T14:52:06.911Z</time></trkpt><trkpt lat="44.5446983" lon="10.4824733"><ele>533.8333333333333</ele><time>2026-04-19T14:52:07.907Z</time></trkpt><trkpt lat="44.5447233" lon="10.4826067"><ele>534.6666666666666</ele><time>2026-04-19T14:52:09.906Z</time></trkpt><trkpt lat="44.54479" lon="10.482655"><ele>535.5</ele><time>2026-04-19T14:52:11.911Z</time></trkpt><trkpt lat="44.5448683" lon="10.48257"><ele>536.3333333333334</ele><time>2026-04-19T14:52:13.908Z</time></trkpt><trkpt lat="44.5449033" lon="10.4824717"><ele>537.1666666666667</ele><time>2026-04-19T14:52:14.914Z</time></trkpt><trkpt lat="44.544945" lon="10.4823467"><ele>538.0</ele><time>2026-04-19T14:52:15.91Z</time></trkpt><trkpt lat="44.5450183" lon="10.4821717"><ele>536.75</ele><time>2026-04-19T14:52:16.91Z</time></trkpt><trkpt lat="44.5450867" lon="10.4819983"><ele>535.5</ele><time>2026-04-19T14:52:17.907Z</time></trkpt><trkpt lat="44.5451517" lon="10.4818267"><ele>534.25</ele><time>2026-04-19T14:52:18.909Z</time></trkpt><trkpt lat="44.5452117" lon="10.4816667"><ele>533.0</ele><time>2026-04-19T14:52:19.938Z</time></trkpt><trkpt lat="44.54526" lon="10.48153"><ele>533.0</ele><time>2026-04-19T14:52:20.955Z</time></trkpt><trkpt lat="44.545285" lon="10.4814117"><ele>533.0</ele><time>2026-04-19T14:52:21.932Z</time></trkpt><trkpt lat="44.5453033" lon="10.48131"><ele>533.0</ele><time>2026-04-19T14:52:22.909Z</time></trkpt><trkpt lat="44.545325" lon="10.48122"><ele>533.0</ele><time>2026-04-19T14:52:23.935Z</time></trkpt><trkpt lat="44.5453533" lon="10.4811333"><ele>533.0</ele><time>2026-04-19T14:52:24.912Z</time></trkpt><trkpt lat="44.5454017" lon="10.4810633"><ele>533.0</ele><time>2026-04-19T14:52:25.91Z</time></trkpt><trkpt lat="44.5454617" lon="10.4810033"><ele>533.0</ele><time>2026-04-19T14:52:26.917Z</time></trkpt><trkpt lat="44.5455317" lon="10.480955"><ele>533.1666666666666</ele><time>2026-04-19T14:52:27.911Z</time></trkpt><trkpt lat="44.5455833" lon="10.4808967"><ele>533.3333333333333</ele><time>2026-04-19T14:52:28.912Z</time></trkpt><trkpt lat="44.545635" lon="10.48084"><ele>533.5</ele><time>2026-04-19T14:52:29.91Z</time></trkpt><trkpt lat="44.5456917" lon="10.480715"><ele>533.6666666666666</ele><time>2026-04-19T14:52:31.92Z</time></trkpt><trkpt lat="44.5456817" lon="10.480625"><ele>533.8333333333334</ele><time>2026-04-19T14:52:32.919Z</time></trkpt><trkpt lat="44.54567" lon="10.4804733"><ele>534.0</ele><time>2026-04-19T14:52:34.913Z</time></trkpt><trkpt lat="44.545725" lon="10.4803767"><ele>534.0</ele><time>2026-04-19T14:52:36.912Z</time></trkpt><trkpt lat="44.5458533" lon="10.4803217"><ele>534.0</ele><time>2026-04-19T14:52:38.91Z</time></trkpt><trkpt lat="44.5459483" lon="10.480325"><ele>534.0</ele><time>2026-04-19T14:52:39.91Z</time></trkpt><trkpt lat="44.5460567" lon="10.48034"><ele>534.0</ele><time>2026-04-19T14:52:40.91Z</time></trkpt><trkpt lat="44.546165" lon="10.48035"><ele>534.0</ele><time>2026-04-19T14:52:41.907Z</time></trkpt><trkpt lat="44.546255" lon="10.4803533"><ele>538.1666666666666</ele><time>2026-04-19T14:52:42.906Z</time></trkpt><trkpt lat="44.5463367" lon="10.480355"><ele>542.3333333333334</ele><time>2026-04-19T14:52:43.906Z</time></trkpt><trkpt lat="44.5464083" lon="10.4803417"><ele>546.5</ele><time>2026-04-19T14:52:44.908Z</time></trkpt><trkpt lat="44.54651" lon="10.4802383"><ele>550.6666666666667</ele><time>2026-04-19T14:52:46.907Z</time></trkpt><trkpt lat="44.5465367" lon="10.4801383"><ele>554.8333333333334</ele><time>2026-04-19T14:52:47.922Z</time></trkpt><trkpt lat="44.54654" lon="10.48003"><ele>559.0</ele><time>2026-04-19T14:52:48.911Z</time></trkpt><trkpt lat="44.5465383" lon="10.4799367"><ele>559.0</ele><time>2026-04-19T14:52:49.91Z</time></trkpt><trkpt lat="44.5465533" lon="10.47985"><ele>559.0</ele><time>2026-04-19T14:52:50.91Z</time></trkpt><trkpt lat="44.5465883" lon="10.47976"><ele>559.0</ele><time>2026-04-19T14:52:51.911Z</time></trkpt><trkpt lat="44.54664" lon="10.4796683"><ele>559.0</ele><time>2026-04-19T14:52:52.912Z</time></trkpt><trkpt lat="44.5466917" lon="10.479585"><ele>559.0</ele><time>2026-04-19T14:52:53.91Z</time></trkpt><trkpt lat="44.546735" lon="10.479505"><ele>559.0</ele><time>2026-04-19T14:52:54.91Z</time></trkpt><trkpt lat="44.546775" lon="10.4794367"><ele>559.0</ele><time>2026-04-19T14:52:55.912Z</time></trkpt><trkpt lat="44.5468633" lon="10.4793667"><ele>559.0</ele><time>2026-04-19T14:52:57.911Z</time></trkpt><trkpt lat="44.546945" lon="10.4793983"><ele>559.0</ele><time>2026-04-19T14:52:59.91Z</time></trkpt><trkpt lat="44.54698" lon="10.4795367"><ele>559.0</ele><time>2026-04-19T14:53:01.911Z</time></trkpt><trkpt lat="44.54693" lon="10.4797083"><ele>559.0</ele><time>2026-04-19T14:53:03.919Z</time></trkpt><trkpt lat="44.5468983" lon="10.4798"><ele>559.0</ele><time>2026-04-19T14:53:04.908Z</time></trkpt><trkpt lat="44.54691" lon="10.4799617"><ele>559.0</ele><time>2026-04-19T14:53:06.91Z</time></trkpt><trkpt lat="44.5470067" lon="10.4800533"><ele>559.0</ele><time>2026-04-19T14:53:08.91Z</time></trkpt><trkpt lat="44.5470783" lon="10.4800717"><ele>559.0</ele><time>2026-04-19T14:53:09.91Z</time></trkpt><trkpt lat="44.54716" lon="10.480075"><ele>559.0</ele><time>2026-04-19T14:53:10.913Z</time></trkpt><trkpt lat="44.547225" lon="10.4800867"><ele>559.0</ele><time>2026-04-19T14:53:11.906Z</time></trkpt><trkpt lat="44.5473467" lon="10.4801483"><ele>561.5</ele><time>2026-04-19T14:53:13.48Z</time></trkpt><trkpt lat="44.54743" lon="10.48014"><ele>564.0</ele><time>2026-04-19T14:53:15.907Z</time></trkpt><trkpt lat="44.547495" lon="10.4801333"><ele>566.5</ele><time>2026-04-19T14:53:46.913Z</time></trkpt><trkpt lat="44.5475783" lon="10.4801717"><ele>569.0</ele><time>2026-04-19T14:53:49.912Z</time></trkpt><trkpt lat="44.5476567" lon="10.4802583"><ele>571.5</ele><time>2026-04-19T14:53:52.946Z</time></trkpt><trkpt lat="44.5476883" lon="10.48039"><ele>574.0</ele><time>2026-04-19T14:53:54.91Z</time></trkpt><trkpt lat="44.54769" lon="10.4804833"><ele>574.0</ele><time>2026-04-19T14:53:55.91Z</time></trkpt><trkpt lat="44.5476867" lon="10.4805733"><ele>574.0</ele><time>2026-04-19T14:53:56.917Z</time></trkpt><trkpt lat="44.5477383" lon="10.4806667"><ele>574.0</ele><time>2026-04-19T14:53:58.921Z</time></trkpt><trkpt lat="44.547865" lon="10.4806167"><ele>574.0</ele><time>2026-04-19T14:54:00.911Z</time></trkpt><trkpt lat="44.5479317" lon="10.4805583"><ele>574.0</ele><time>2026-04-19T14:54:01.927Z</time></trkpt><trkpt lat="44.5480017" lon="10.48049"><ele>574.0</ele><time>2026-04-19T14:54:02.918Z</time></trkpt><trkpt lat="44.5480733" lon="10.480425"><ele>573.6</ele><time>2026-04-19T14:54:03.909Z</time></trkpt><trkpt lat="44.5481517" lon="10.4803617"><ele>573.2</ele><time>2026-04-19T14:54:04.923Z</time></trkpt><trkpt lat="44.5482333" lon="10.480295"><ele>572.8000000000001</ele><time>2026-04-19T14:54:05.911Z</time></trkpt><trkpt lat="44.54831" lon="10.4802267"><ele>572.4</ele><time>2026-04-19T14:54:06.912Z</time></trkpt><trkpt lat="44.5483833" lon="10.480145"><ele>572.0</ele><time>2026-04-19T14:54:07.923Z</time></trkpt><trkpt lat="44.548455" lon="10.4800583"><ele>572.0</ele><time>2026-04-19T14:54:08.921Z</time></trkpt><trkpt lat="44.54853" lon="10.479975"><ele>572.0</ele><time>2026-04-19T14:54:09.91Z</time></trkpt><trkpt lat="44.5486083" lon="10.4799217"><ele>572.0</ele><time>2026-04-19T14:54:10.909Z</time></trkpt><trkpt lat="44.548695" lon="10.4798617"><ele>572.0</ele><time>2026-04-19T14:54:11.91Z</time></trkpt><trkpt lat="44.5487933" lon="10.479795"><ele>572.0</ele><time>2026-04-19T14:54:12.916Z</time></trkpt><trkpt lat="44.5488967" lon="10.47973"><ele>572.8000000000001</ele><time>2026-04-19T14:54:13.913Z</time></trkpt><trkpt lat="44.5489883" lon="10.4796583"><ele>573.6</ele><time>2026-04-19T14:54:14.912Z</time></trkpt><trkpt lat="44.5490817" lon="10.4795733"><ele>574.4000000000001</ele><time>2026-04-19T14:54:15.931Z</time></trkpt><trkpt lat="44.5491733" lon="10.4795"><ele>575.2</ele><time>2026-04-19T14:54:16.916Z</time></trkpt><trkpt lat="44.5492567" lon="10.479445"><ele>576.0</ele><time>2026-04-19T14:54:17.908Z</time></trkpt><trkpt lat="44.54934" lon="10.4794"><ele>573.8</ele><time>2026-04-19T14:54:18.923Z</time></trkpt><trkpt lat="44.549445" lon="10.47937"><ele>571.6</ele><time>2026-04-19T14:54:19.908Z</time></trkpt><trkpt lat="44.54955" lon="10.4793383"><ele>569.4</ele><time>2026-04-19T14:54:20.91Z</time></trkpt><trkpt lat="44.549645" lon="10.4793"><ele>567.2</ele><time>2026-04-19T14:54:21.907Z</time></trkpt><trkpt lat="44.54974" lon="10.4792767"><ele>565.0</ele><time>2026-04-19T14:54:22.911Z</time></trkpt><trkpt lat="44.5498433" lon="10.4792583"><ele>563.8</ele><time>2026-04-19T14:54:23.935Z</time></trkpt><trkpt lat="44.5499433" lon="10.47923"><ele>562.6</ele><time>2026-04-19T14:54:24.908Z</time></trkpt><trkpt lat="44.5500317" lon="10.479195"><ele>561.4</ele><time>2026-04-19T14:54:25.909Z</time></trkpt><trkpt lat="44.550125" lon="10.4791617"><ele>560.2</ele><time>2026-04-19T14:54:26.93Z</time></trkpt><trkpt lat="44.5502067" lon="10.47913"><ele>559.0</ele><time>2026-04-19T14:54:27.909Z</time></trkpt><trkpt lat="44.55029" lon="10.47911"><ele>558.0</ele><time>2026-04-19T14:54:28.912Z</time></trkpt><trkpt lat="44.5503767" lon="10.479095"><ele>557.0</ele><time>2026-04-19T14:54:29.908Z</time></trkpt><trkpt lat="44.55047" lon="10.4791"><ele>556.0</ele><time>2026-04-19T14:54:30.91Z</time></trkpt><trkpt lat="44.5505683" lon="10.4791017"><ele>555.0</ele><time>2026-04-19T14:54:31.91Z</time></trkpt><trkpt lat="44.5506583" lon="10.47909"><ele>554.0</ele><time>2026-04-19T14:54:32.916Z</time></trkpt><trkpt lat="44.550755" lon="10.4790817"><ele>554.0</ele><time>2026-04-19T14:54:33.91Z</time></trkpt><trkpt lat="44.5508517" lon="10.47907"><ele>554.0</ele><time>2026-04-19T14:54:34.932Z</time></trkpt><trkpt lat="44.5509517" lon="10.4790617"><ele>554.0</ele><time>2026-04-19T14:54:35.917Z</time></trkpt><trkpt lat="44.5510533" lon="10.47904"><ele>554.0</ele><time>2026-04-19T14:54:36.908Z</time></trkpt><trkpt lat="44.5511583" lon="10.4790033"><ele>554.0</ele><time>2026-04-19T14:54:37.907Z</time></trkpt><trkpt lat="44.55127" lon="10.4789567"><ele>552.6666666666666</ele><time>2026-04-19T14:54:38.913Z</time></trkpt><trkpt lat="44.5513733" lon="10.4789067"><ele>551.3333333333333</ele><time>2026-04-19T14:54:39.939Z</time></trkpt><trkpt lat="44.551455" lon="10.47887"><ele>550.0</ele><time>2026-04-19T14:54:40.911Z</time></trkpt><trkpt lat="44.5515183" lon="10.4788417"><ele>548.6666666666666</ele><time>2026-04-19T14:54:41.907Z</time></trkpt><trkpt lat="44.5516233" lon="10.4788367"><ele>547.3333333333334</ele><time>2026-04-19T14:54:43.912Z</time></trkpt><trkpt lat="44.55167" lon="10.4789167"><ele>546.0</ele><time>2026-04-19T14:54:45.908Z</time></trkpt><trkpt lat="44.5516517" lon="10.4790683"><ele>546.0</ele><time>2026-04-19T14:54:47.909Z</time></trkpt><trkpt lat="44.5516117" lon="10.4792267"><ele>546.0</ele><time>2026-04-19T14:54:49.911Z</time></trkpt><trkpt lat="44.5515767" lon="10.4793217"><ele>546.0</ele><time>2026-04-19T14:54:50.909Z</time></trkpt><trkpt lat="44.5515317" lon="10.4794283"><ele>546.0</ele><time>2026-04-19T14:54:51.917Z</time></trkpt><trkpt lat="44.5514833" lon="10.479565"><ele>546.0</ele><time>2026-04-19T14:54:52.94Z</time></trkpt><trkpt lat="44.5514383" lon="10.4797267"><ele>545.0</ele><time>2026-04-19T14:54:53.911Z</time></trkpt><trkpt lat="44.5513967" lon="10.4799067"><ele>544.0</ele><time>2026-04-19T14:54:54.911Z</time></trkpt><trkpt lat="44.5513583" lon="10.4800967"><ele>543.0</ele><time>2026-04-19T14:54:55.912Z</time></trkpt><trkpt lat="44.5513233" lon="10.48028"><ele>542.0</ele><time>2026-04-19T14:54:56.91Z</time></trkpt><trkpt lat="44.5512883" lon="10.4804433"><ele>540.5</ele><time>2026-04-19T14:54:57.909Z</time></trkpt><trkpt lat="44.551255" lon="10.4806"><ele>539.0</ele><time>2026-04-19T14:54:58.913Z</time></trkpt><trkpt lat="44.5512467" lon="10.4807567"><ele>537.5</ele><time>2026-04-19T14:54:59.912Z</time></trkpt><trkpt lat="44.5512683" lon="10.4809217"><ele>536.0</ele><time>2026-04-19T14:55:00.966Z</time></trkpt><trkpt lat="44.5513117" lon="10.48108"><ele>536.0</ele><time>2026-04-19T14:55:01.91Z</time></trkpt><trkpt lat="44.5513467" lon="10.4812433"><ele>536.0</ele><time>2026-04-19T14:55:02.908Z</time></trkpt><trkpt lat="44.5513367" lon="10.4814383"><ele>536.0</ele><time>2026-04-19T14:55:03.91Z</time></trkpt><trkpt lat="44.5513117" lon="10.4816633"><ele>536.0</ele><time>2026-04-19T14:55:04.911Z</time></trkpt><trkpt lat="44.55128" lon="10.4818867"><ele>536.5</ele><time>2026-04-19T14:55:05.947Z</time></trkpt><trkpt lat="44.5512683" lon="10.4820967"><ele>537.0</ele><time>2026-04-19T14:55:06.91Z</time></trkpt><trkpt lat="44.5512917" lon="10.4822983"><ele>537.5</ele><time>2026-04-19T14:55:07.905Z</time></trkpt><trkpt lat="44.5513317" lon="10.4824983"><ele>538.0</ele><time>2026-04-19T14:55:08.91Z</time></trkpt><trkpt lat="44.5513717" lon="10.482715"><ele>543.0</ele><time>2026-04-19T14:55:09.91Z</time></trkpt><trkpt lat="44.5513867" lon="10.4829317"><ele>548.0</ele><time>2026-04-19T14:55:10.927Z</time></trkpt><trkpt lat="44.55139" lon="10.48314"><ele>553.0</ele><time>2026-04-19T14:55:11.91Z</time></trkpt><trkpt lat="44.5513833" lon="10.4833467"><ele>553.0</ele><time>2026-04-19T14:55:12.908Z</time></trkpt><trkpt lat="44.5513617" lon="10.4835567"><ele>553.0</ele><time>2026-04-19T14:55:13.909Z</time></trkpt><trkpt lat="44.55133" lon="10.4837767"><ele>553.0</ele><time>2026-04-19T14:55:14.909Z</time></trkpt><trkpt lat="44.55129" lon="10.4840167"><ele>552.3333333333334</ele><time>2026-04-19T14:55:15.911Z</time></trkpt><trkpt lat="44.5512467" lon="10.4842617"><ele>551.6666666666666</ele><time>2026-04-19T14:55:16.915Z</time></trkpt><trkpt lat="44.5512083" lon="10.4845133"><ele>551.0</ele><time>2026-04-19T14:55:17.908Z</time></trkpt><trkpt lat="44.55117" lon="10.4847683"><ele>565.0</ele><time>2026-04-19T14:55:18.91Z</time></trkpt><trkpt lat="44.5511417" lon="10.48502"><ele>579.0</ele><time>2026-04-19T14:55:19.92Z</time></trkpt><trkpt lat="44.5511217" lon="10.48525"><ele>593.0</ele><time>2026-04-19T14:55:20.91Z</time></trkpt><trkpt lat="44.5511033" lon="10.4854517"><ele>593.0</ele><time>2026-04-19T14:55:21.916Z</time></trkpt><trkpt lat="44.5510783" lon="10.485645"><ele>593.0</ele><time>2026-04-19T14:55:22.911Z</time></trkpt><trkpt lat="44.5510417" lon="10.485845"><ele>593.0</ele><time>2026-04-19T14:55:23.909Z</time></trkpt><trkpt lat="44.551" lon="10.4860383"><ele>593.0</ele><time>2026-04-19T14:55:24.906Z</time></trkpt><trkpt lat="44.5509517" lon="10.48623"><ele>592.0</ele><time>2026-04-19T14:55:25.91Z</time></trkpt><trkpt lat="44.5509017" lon="10.4864233"><ele>591.0</ele><time>2026-04-19T14:55:26.907Z</time></trkpt><trkpt lat="44.5508483" lon="10.4866133"><ele>590.0</ele><time>2026-04-19T14:55:27.91Z</time></trkpt><trkpt lat="44.550785" lon="10.4868017"><ele>589.0</ele><time>2026-04-19T14:55:28.914Z</time></trkpt><trkpt lat="44.55072" lon="10.487"><ele>587.0</ele><time>2026-04-19T14:55:29.917Z</time></trkpt><trkpt lat="44.5506567" lon="10.4872083"><ele>585.0</ele><time>2026-04-19T14:55:30.906Z</time></trkpt><trkpt lat="44.5506017" lon="10.487425"><ele>583.0</ele><time>2026-04-19T14:55:31.912Z</time></trkpt><trkpt lat="44.55055" lon="10.4876417"><ele>583.0</ele><time>2026-04-19T14:55:32.924Z</time></trkpt><trkpt lat="44.5504983" lon="10.4878467"><ele>583.0</ele><time>2026-04-19T14:55:33.91Z</time></trkpt><trkpt lat="44.5504517" lon="10.4880433"><ele>583.0</ele><time>2026-04-19T14:55:34.923Z</time></trkpt><trkpt lat="44.5504117" lon="10.4882333"><ele>583.0</ele><time>2026-04-19T14:55:35.908Z</time></trkpt><trkpt lat="44.5503733" lon="10.4884167"><ele>588.0</ele><time>2026-04-19T14:55:36.909Z</time></trkpt><trkpt lat="44.5503467" lon="10.4885967"><ele>593.0</ele><time>2026-04-19T14:55:37.908Z</time></trkpt><trkpt lat="44.55032" lon="10.4887683"><ele>598.0</ele><time>2026-04-19T14:55:38.91Z</time></trkpt><trkpt lat="44.5502933" lon="10.4889183"><ele>603.0</ele><time>2026-04-19T14:55:39.911Z</time></trkpt><trkpt lat="44.5502733" lon="10.4890533"><ele>603.0</ele><time>2026-04-19T14:55:40.911Z</time></trkpt><trkpt lat="44.5502583" lon="10.4891583"><ele>603.0</ele><time>2026-04-19T14:55:41.909Z</time></trkpt><trkpt lat="44.5502317" lon="10.489305"><ele>603.0</ele><time>2026-04-19T14:55:43.908Z</time></trkpt><trkpt lat="44.55022" lon="10.4894083"><ele>603.0</ele><time>2026-04-19T14:55:45.906Z</time></trkpt><trkpt lat="44.5502117" lon="10.4895233"><ele>603.0</ele><time>2026-04-19T14:55:48.91Z</time></trkpt><trkpt lat="44.55022" lon="10.4896483"><ele>603.0</ele><time>2026-04-19T14:55:51.907Z</time></trkpt><trkpt lat="44.550205" lon="10.48983"><ele>602.0</ele><time>2026-04-19T14:55:53.909Z</time></trkpt><trkpt lat="44.550185" lon="10.489945"><ele>601.0</ele><time>2026-04-19T14:55:54.939Z</time></trkpt><trkpt lat="44.5501583" lon="10.49008"><ele>600.0</ele><time>2026-04-19T14:55:55.906Z</time></trkpt><trkpt lat="44.5501333" lon="10.490235"><ele>599.0</ele><time>2026-04-19T14:55:56.906Z</time></trkpt><trkpt lat="44.5501117" lon="10.4904017"><ele>598.0</ele><time>2026-04-19T14:55:57.908Z</time></trkpt><trkpt lat="44.5500883" lon="10.4905717"><ele>597.75</ele><time>2026-04-19T14:55:58.911Z</time></trkpt><trkpt lat="44.5500633" lon="10.490745"><ele>597.5</ele><time>2026-04-19T14:55:59.909Z</time></trkpt><trkpt lat="44.5500467" lon="10.4909167"><ele>597.25</ele><time>2026-04-19T14:56:00.92Z</time></trkpt><trkpt lat="44.5500333" lon="10.4910867"><ele>597.0</ele><time>2026-04-19T14:56:01.906Z</time></trkpt><trkpt lat="44.55003" lon="10.491265"><ele>597.0</ele><time>2026-04-19T14:56:02.91Z</time></trkpt><trkpt lat="44.5500483" lon="10.4914383"><ele>597.0</ele><time>2026-04-19T14:56:03.932Z</time></trkpt><trkpt lat="44.550095" lon="10.4916"><ele>597.0</ele><time>2026-04-19T14:56:04.911Z</time></trkpt><trkpt lat="44.5501767" lon="10.49173"><ele>597.0</ele><time>2026-04-19T14:56:05.909Z</time></trkpt><trkpt lat="44.5502783" lon="10.4918267"><ele>595.5</ele><time>2026-04-19T14:56:06.91Z</time></trkpt><trkpt lat="44.550375" lon="10.4919033"><ele>594.0</ele><time>2026-04-19T14:56:07.91Z</time></trkpt><trkpt lat="44.5504583" lon="10.4919717"><ele>592.5</ele><time>2026-04-19T14:56:08.91Z</time></trkpt><trkpt lat="44.5505133" lon="10.4920533"><ele>591.0</ele><time>2026-04-19T14:56:09.951Z</time></trkpt><trkpt lat="44.5505467" lon="10.49215"><ele>589.5</ele><time>2026-04-19T14:56:10.913Z</time></trkpt><trkpt lat="44.5505267" lon="10.4922633"><ele>588.0</ele><time>2026-04-19T14:56:11.919Z</time></trkpt><trkpt lat="44.55047" lon="10.4923733"><ele>588.0</ele><time>2026-04-19T14:56:12.907Z</time></trkpt><trkpt lat="44.5503817" lon="10.49248"><ele>588.0</ele><time>2026-04-19T14:56:13.915Z</time></trkpt><trkpt lat="44.550285" lon="10.4925817"><ele>588.0</ele><time>2026-04-19T14:56:14.91Z</time></trkpt><trkpt lat="44.5501933" lon="10.4926833"><ele>588.0</ele><time>2026-04-19T14:56:15.906Z</time></trkpt><trkpt lat="44.5501067" lon="10.49278"><ele>591.0</ele><time>2026-04-19T14:56:16.91Z</time></trkpt><trkpt lat="44.550025" lon="10.492865"><ele>594.0</ele><time>2026-04-19T14:56:17.917Z</time></trkpt><trkpt lat="44.5499583" lon="10.4929367"><ele>597.0</ele><time>2026-04-19T14:56:18.923Z</time></trkpt><trkpt lat="44.549895" lon="10.492995"><ele>600.0</ele><time>2026-04-19T14:56:19.93Z</time></trkpt><trkpt lat="44.549815" lon="10.4931017"><ele>603.0</ele><time>2026-04-19T14:56:21.914Z</time></trkpt><trkpt lat="44.5498033" lon="10.49327"><ele>603.4</ele><time>2026-04-19T14:56:23.916Z</time></trkpt><trkpt lat="44.5497917" lon="10.4933833"><ele>603.8</ele><time>2026-04-19T14:56:24.91Z</time></trkpt><trkpt lat="44.5497683" lon="10.4935067"><ele>604.2</ele><time>2026-04-19T14:56:25.92Z</time></trkpt><trkpt lat="44.5497267" lon="10.4936517"><ele>604.6</ele><time>2026-04-19T14:56:26.911Z</time></trkpt><trkpt lat="44.5496717" lon="10.4938033"><ele>605.0</ele><time>2026-04-19T14:56:27.908Z</time></trkpt><trkpt lat="44.5496117" lon="10.49398"><ele>603.6666666666666</ele><time>2026-04-19T14:56:28.912Z</time></trkpt><trkpt lat="44.5495533" lon="10.4941767"><ele>602.3333333333334</ele><time>2026-04-19T14:56:29.912Z</time></trkpt><trkpt lat="44.5495" lon="10.4943933"><ele>601.0</ele><time>2026-04-19T14:56:30.909Z</time></trkpt><trkpt lat="44.549445" lon="10.494625"><ele>599.6666666666667</ele><time>2026-04-19T14:56:31.914Z</time></trkpt><trkpt lat="44.5493933" lon="10.4948667"><ele>598.3333333333334</ele><time>2026-04-19T14:56:32.907Z</time></trkpt><trkpt lat="44.5493467" lon="10.4951183"><ele>597.0</ele><time>2026-04-19T14:56:33.908Z</time></trkpt><trkpt lat="44.5493017" lon="10.495375"><ele>594.0</ele><time>2026-04-19T14:56:34.925Z</time></trkpt><trkpt lat="44.5492417" lon="10.4956333"><ele>591.0</ele><time>2026-04-19T14:56:35.906Z</time></trkpt><trkpt lat="44.54917" lon="10.4959"><ele>588.0</ele><time>2026-04-19T14:56:36.935Z</time></trkpt><trkpt lat="44.549095" lon="10.496165"><ele>586.3333333333334</ele><time>2026-04-19T14:56:37.91Z</time></trkpt><trkpt lat="44.5490267" lon="10.4964433"><ele>584.6666666666667</ele><time>2026-04-19T14:56:38.926Z</time></trkpt><trkpt lat="44.54897" lon="10.496735"><ele>583.0</ele><time>2026-04-19T14:56:39.907Z</time></trkpt><trkpt lat="44.5489217" lon="10.4970317"><ele>581.3333333333334</ele><time>2026-04-19T14:56:40.911Z</time></trkpt><trkpt lat="44.5488717" lon="10.49733"><ele>579.6666666666666</ele><time>2026-04-19T14:56:41.919Z</time></trkpt><trkpt lat="44.5488233" lon="10.4976167"><ele>578.0</ele><time>2026-04-19T14:56:42.909Z</time></trkpt><trkpt lat="44.54877" lon="10.497885"><ele>575.3333333333333</ele><time>2026-04-19T14:56:43.909Z</time></trkpt><trkpt lat="44.5487167" lon="10.4981367"><ele>572.6666666666666</ele><time>2026-04-19T14:56:44.909Z</time></trkpt><trkpt lat="44.548665" lon="10.498375"><ele>570.0</ele><time>2026-04-19T14:56:45.907Z</time></trkpt><trkpt lat="44.5486133" lon="10.4986"><ele>573.0</ele><time>2026-04-19T14:56:46.911Z</time></trkpt><trkpt lat="44.5485567" lon="10.4988167"><ele>576.0</ele><time>2026-04-19T14:56:47.91Z</time></trkpt><trkpt lat="44.5485017" lon="10.499015"><ele>579.0</ele><time>2026-04-19T14:56:48.909Z</time></trkpt><trkpt lat="44.5484467" lon="10.499185"><ele>582.0</ele><time>2026-04-19T14:56:49.909Z</time></trkpt><trkpt lat="44.5484117" lon="10.4993483"><ele>582.0</ele><time>2026-04-19T14:56:50.916Z</time></trkpt><trkpt lat="44.5484033" lon="10.4995167"><ele>582.0</ele><time>2026-04-19T14:56:51.911Z</time></trkpt><trkpt lat="44.5484333" lon="10.499705"><ele>582.0</ele><time>2026-04-19T14:56:52.916Z</time></trkpt><trkpt lat="44.5485017" lon="10.49991"><ele>582.0</ele><time>2026-04-19T14:56:53.909Z</time></trkpt><trkpt lat="44.5485933" lon="10.5001217"><ele>577.3333333333334</ele><time>2026-04-19T14:56:54.908Z</time></trkpt><trkpt lat="44.5486867" lon="10.500335"><ele>572.6666666666667</ele><time>2026-04-19T14:56:55.907Z</time></trkpt><trkpt lat="44.5487817" lon="10.5005483"><ele>568.0</ele><time>2026-04-19T14:56:56.909Z</time></trkpt><trkpt lat="44.5488733" lon="10.5007483"><ele>567.25</ele><time>2026-04-19T14:56:57.91Z</time></trkpt><trkpt lat="44.548955" lon="10.5009333"><ele>566.5</ele><time>2026-04-19T14:56:58.916Z</time></trkpt><trkpt lat="44.5490183" lon="10.5011017"><ele>565.75</ele><time>2026-04-19T14:56:59.911Z</time></trkpt><trkpt lat="44.54906" lon="10.50128"><ele>565.0</ele><time>2026-04-19T14:57:00.911Z</time></trkpt><trkpt lat="44.54907" lon="10.5014833"><ele>567.0</ele><time>2026-04-19T14:57:01.931Z</time></trkpt><trkpt lat="44.5490533" lon="10.5016983"><ele>569.0</ele><time>2026-04-19T14:57:02.912Z</time></trkpt><trkpt lat="44.5490217" lon="10.5019267"><ele>571.0</ele><time>2026-04-19T14:57:03.931Z</time></trkpt><trkpt lat="44.5489817" lon="10.5021633"><ele>573.3333333333334</ele><time>2026-04-19T14:57:04.911Z</time></trkpt><trkpt lat="44.5489417" lon="10.5023867"><ele>575.6666666666666</ele><time>2026-04-19T14:57:05.91Z</time></trkpt><trkpt lat="44.548905" lon="10.502595"><ele>578.0</ele><time>2026-04-19T14:57:06.909Z</time></trkpt><trkpt lat="44.54887" lon="10.5027867"><ele>577.75</ele><time>2026-04-19T14:57:07.91Z</time></trkpt><trkpt lat="44.54883" lon="10.5029733"><ele>577.5</ele><time>2026-04-19T14:57:08.918Z</time></trkpt><trkpt lat="44.54877" lon="10.5031517"><ele>577.25</ele><time>2026-04-19T14:57:09.909Z</time></trkpt><trkpt lat="44.5486883" lon="10.50333"><ele>577.0</ele><time>2026-04-19T14:57:10.911Z</time></trkpt><trkpt lat="44.548595" lon="10.50351"><ele>577.0</ele><time>2026-04-19T14:57:11.906Z</time></trkpt><trkpt lat="44.5485033" lon="10.5036933"><ele>577.0</ele><time>2026-04-19T14:57:12.907Z</time></trkpt><trkpt lat="44.5484133" lon="10.5038683"><ele>577.0</ele><time>2026-04-19T14:57:13.91Z</time></trkpt><trkpt lat="44.548335" lon="10.5040383"><ele>578.0</ele><time>2026-04-19T14:57:14.915Z</time></trkpt><trkpt lat="44.5482683" lon="10.5042083"><ele>579.0</ele><time>2026-04-19T14:57:15.909Z</time></trkpt><trkpt lat="44.5482117" lon="10.5043883"><ele>580.0</ele><time>2026-04-19T14:57:16.913Z</time></trkpt><trkpt lat="44.54817" lon="10.5045867"><ele>581.0</ele><time>2026-04-19T14:57:17.91Z</time></trkpt><trkpt lat="44.54814" lon="10.5048"><ele>581.3333333333333</ele><time>2026-04-19T14:57:18.91Z</time></trkpt><trkpt lat="44.548125" lon="10.505015"><ele>581.6666666666666</ele><time>2026-04-19T14:57:19.908Z</time></trkpt><trkpt lat="44.54813" lon="10.5052383"><ele>582.0</ele><time>2026-04-19T14:57:20.935Z</time></trkpt><trkpt lat="44.548155" lon="10.5054733"><ele>579.6666666666666</ele><time>2026-04-19T14:57:21.907Z</time></trkpt><trkpt lat="44.5481867" lon="10.5057083"><ele>577.3333333333333</ele><time>2026-04-19T14:57:22.912Z</time></trkpt><trkpt lat="44.5482217" lon="10.5059317"><ele>575.0</ele><time>2026-04-19T14:57:23.908Z</time></trkpt><trkpt lat="44.548265" lon="10.5061383"><ele>571.25</ele><time>2026-04-19T14:57:24.91Z</time></trkpt><trkpt lat="44.5483317" lon="10.5063183"><ele>567.5</ele><time>2026-04-19T14:57:25.91Z</time></trkpt><trkpt lat="44.54841" lon="10.50649"><ele>563.75</ele><time>2026-04-19T14:57:26.908Z</time></trkpt><trkpt lat="44.5484767" lon="10.5066733"><ele>560.0</ele><time>2026-04-19T14:57:27.91Z</time></trkpt><trkpt lat="44.5485467" lon="10.506855"><ele>560.0</ele><time>2026-04-19T14:57:28.913Z</time></trkpt><trkpt lat="44.5486267" lon="10.507025"><ele>560.0</ele><time>2026-04-19T14:57:29.911Z</time></trkpt><trkpt lat="44.54869" lon="10.5071933"><ele>560.0</ele><time>2026-04-19T14:57:30.912Z</time></trkpt><trkpt lat="44.5487233" lon="10.5073933"><ele>560.0</ele><time>2026-04-19T14:57:31.915Z</time></trkpt><trkpt lat="44.5487367" lon="10.507605"><ele>560.0</ele><time>2026-04-19T14:57:32.912Z</time></trkpt><trkpt lat="44.548735" lon="10.5078033"><ele>560.0</ele><time>2026-04-19T14:57:33.908Z</time></trkpt><trkpt lat="44.54872" lon="10.5079833"><ele>560.0</ele><time>2026-04-19T14:57:34.911Z</time></trkpt><trkpt lat="44.5487083" lon="10.5081417"><ele>560.0</ele><time>2026-04-19T14:57:35.912Z</time></trkpt><trkpt lat="44.5487183" lon="10.5083033"><ele>560.0</ele><time>2026-04-19T14:57:36.909Z</time></trkpt><trkpt lat="44.548765" lon="10.5084817"><ele>560.0</ele><time>2026-04-19T14:57:37.911Z</time></trkpt><trkpt lat="44.5488417" lon="10.508665"><ele>560.0</ele><time>2026-04-19T14:57:38.915Z</time></trkpt><trkpt lat="44.5489317" lon="10.5088483"><ele>560.0</ele><time>2026-04-19T14:57:39.938Z</time></trkpt><trkpt lat="44.549015" lon="10.5090267"><ele>555.0</ele><time>2026-04-19T14:57:40.935Z</time></trkpt><trkpt lat="44.549085" lon="10.5092033"><ele>550.0</ele><time>2026-04-19T14:57:41.91Z</time></trkpt><trkpt lat="44.549135" lon="10.50938"><ele>545.0</ele><time>2026-04-19T14:57:42.91Z</time></trkpt><trkpt lat="44.5491583" lon="10.50957"><ele>540.0</ele><time>2026-04-19T14:57:43.926Z</time></trkpt><trkpt lat="44.54915" lon="10.5097883"><ele>535.3333333333334</ele><time>2026-04-19T14:57:44.91Z</time></trkpt><trkpt lat="44.5491183" lon="10.5100133"><ele>530.6666666666667</ele><time>2026-04-19T14:57:45.912Z</time></trkpt><trkpt lat="44.54908" lon="10.510235"><ele>526.0</ele><time>2026-04-19T14:57:46.912Z</time></trkpt><trkpt lat="44.5490433" lon="10.510445"><ele>524.25</ele><time>2026-04-19T14:57:47.911Z</time></trkpt><trkpt lat="44.5490017" lon="10.510635"><ele>522.5</ele><time>2026-04-19T14:57:48.909Z</time></trkpt><trkpt lat="44.5489433" lon="10.510795"><ele>520.75</ele><time>2026-04-19T14:57:49.913Z</time></trkpt><trkpt lat="44.548855" lon="10.510945"><ele>519.0</ele><time>2026-04-19T14:57:50.911Z</time></trkpt><trkpt lat="44.5487417" lon="10.5110767"><ele>517.25</ele><time>2026-04-19T14:57:51.919Z</time></trkpt><trkpt lat="44.548635" lon="10.5112083"><ele>515.5</ele><time>2026-04-19T14:57:52.914Z</time></trkpt><trkpt lat="44.548545" lon="10.5113667"><ele>513.75</ele><time>2026-04-19T14:57:53.91Z</time></trkpt><trkpt lat="44.548475" lon="10.5115517"><ele>512.0</ele><time>2026-04-19T14:57:54.914Z</time></trkpt><trkpt lat="44.5484117" lon="10.5117417"><ele>512.0</ele><time>2026-04-19T14:57:55.91Z</time></trkpt><trkpt lat="44.5483367" lon="10.5119083"><ele>512.0</ele><time>2026-04-19T14:57:56.91Z</time></trkpt><trkpt lat="44.5482483" lon="10.5120533"><ele>512.0</ele><time>2026-04-19T14:57:57.9Z</time></trkpt><trkpt lat="44.5481417" lon="10.5121667"><ele>512.0</ele><time>2026-04-19T14:57:58.913Z</time></trkpt><trkpt lat="44.5480333" lon="10.5122483"><ele>512.0</ele><time>2026-04-19T14:57:59.912Z</time></trkpt><trkpt lat="44.5479317" lon="10.5123267"><ele>512.0</ele><time>2026-04-19T14:58:00.934Z</time></trkpt><trkpt lat="44.5478383" lon="10.5124267"><ele>512.0</ele><time>2026-04-19T14:58:01.933Z</time></trkpt><trkpt lat="44.5477617" lon="10.5125767"><ele>512.0</ele><time>2026-04-19T14:58:02.908Z</time></trkpt><trkpt lat="44.5476817" lon="10.5127567"><ele>509.75</ele><time>2026-04-19T14:58:03.91Z</time></trkpt><trkpt lat="44.547585" lon="10.5129317"><ele>507.5</ele><time>2026-04-19T14:58:04.909Z</time></trkpt><trkpt lat="44.5474833" lon="10.51309"><ele>505.25</ele><time>2026-04-19T14:58:05.906Z</time></trkpt><trkpt lat="44.5473833" lon="10.51322"><ele>503.0</ele><time>2026-04-19T14:58:06.91Z</time></trkpt><trkpt lat="44.5472917" lon="10.5133217"><ele>503.0</ele><time>2026-04-19T14:58:07.91Z</time></trkpt><trkpt lat="44.5472133" lon="10.513405"><ele>502.99999999999994</ele><time>2026-04-19T14:58:08.912Z</time></trkpt><trkpt lat="44.5471633" lon="10.5134967"><ele>502.99999999999994</ele><time>2026-04-19T14:58:09.906Z</time></trkpt><trkpt lat="44.5471367" lon="10.5136067"><ele>503.0</ele><time>2026-04-19T14:58:10.911Z</time></trkpt><trkpt lat="44.5471483" lon="10.513735"><ele>503.0</ele><time>2026-04-19T14:58:11.908Z</time></trkpt><trkpt lat="44.5471817" lon="10.5138883"><ele>501.0</ele><time>2026-04-19T14:58:12.914Z</time></trkpt><trkpt lat="44.5472333" lon="10.51407"><ele>499.0</ele><time>2026-04-19T14:58:13.906Z</time></trkpt><trkpt lat="44.5472767" lon="10.5142517"><ele>497.0</ele><time>2026-04-19T14:58:14.91Z</time></trkpt><trkpt lat="44.5473017" lon="10.5144317"><ele>495.0</ele><time>2026-04-19T14:58:15.907Z</time></trkpt><trkpt lat="44.5472867" lon="10.514605"><ele>495.0</ele><time>2026-04-19T14:58:16.913Z</time></trkpt><trkpt lat="44.5472383" lon="10.514765"><ele>495.0</ele><time>2026-04-19T14:58:17.907Z</time></trkpt><trkpt lat="44.5471767" lon="10.51492"><ele>495.0</ele><time>2026-04-19T14:58:18.907Z</time></trkpt><trkpt lat="44.54711" lon="10.5150683"><ele>495.0</ele><time>2026-04-19T14:58:19.911Z</time></trkpt><trkpt lat="44.5470567" lon="10.515215"><ele>493.2</ele><time>2026-04-19T14:58:20.91Z</time></trkpt><trkpt lat="44.5470117" lon="10.5153567"><ele>491.4</ele><time>2026-04-19T14:58:21.926Z</time></trkpt><trkpt lat="44.54698" lon="10.5154833"><ele>489.6</ele><time>2026-04-19T14:58:22.911Z</time></trkpt><trkpt lat="44.5469617" lon="10.5156017"><ele>487.8</ele><time>2026-04-19T14:58:23.915Z</time></trkpt><trkpt lat="44.546965" lon="10.515715"><ele>486.0</ele><time>2026-04-19T14:58:24.917Z</time></trkpt><trkpt lat="44.5470017" lon="10.515825"><ele>487.0</ele><time>2026-04-19T14:58:25.921Z</time></trkpt><trkpt lat="44.5470983" lon="10.5159467"><ele>488.0</ele><time>2026-04-19T14:58:26.91Z</time></trkpt><trkpt lat="44.5472" lon="10.5160867"><ele>489.0</ele><time>2026-04-19T14:58:27.912Z</time></trkpt><trkpt lat="44.5472967" lon="10.5162517"><ele>490.0</ele><time>2026-04-19T14:58:28.912Z</time></trkpt><trkpt lat="44.5473867" lon="10.5164267"><ele>485.0</ele><time>2026-04-19T14:58:29.911Z</time></trkpt><trkpt lat="44.5474767" lon="10.5165983"><ele>480.0</ele><time>2026-04-19T14:58:30.906Z</time></trkpt><trkpt lat="44.5475767" lon="10.5167583"><ele>475.0</ele><time>2026-04-19T14:58:31.909Z</time></trkpt><trkpt lat="44.5476917" lon="10.5169033"><ele>475.0</ele><time>2026-04-19T14:58:32.912Z</time></trkpt><trkpt lat="44.547805" lon="10.51703"><ele>475.0</ele><time>2026-04-19T14:58:33.907Z</time></trkpt><trkpt lat="44.5479217" lon="10.517155"><ele>475.0</ele><time>2026-04-19T14:58:34.913Z</time></trkpt><trkpt lat="44.5480283" lon="10.5172633"><ele>475.0</ele><time>2026-04-19T14:58:35.908Z</time></trkpt><trkpt lat="44.54814" lon="10.5173417"><ele>471.25</ele><time>2026-04-19T14:58:36.908Z</time></trkpt><trkpt lat="44.5482683" lon="10.5173833"><ele>467.5</ele><time>2026-04-19T14:58:37.921Z</time></trkpt><trkpt lat="44.5484083" lon="10.5173933"><ele>463.75</ele><time>2026-04-19T14:58:38.909Z</time></trkpt><trkpt lat="44.54854" lon="10.51738"><ele>460.0</ele><time>2026-04-19T14:58:39.91Z</time></trkpt><trkpt lat="44.54866" lon="10.5173567"><ele>458.0</ele><time>2026-04-19T14:58:40.911Z</time></trkpt><trkpt lat="44.54876" lon="10.517325"><ele>456.0</ele><time>2026-04-19T14:58:41.916Z</time></trkpt><trkpt lat="44.5488383" lon="10.5173017"><ele>454.0</ele><time>2026-04-19T14:58:42.911Z</time></trkpt><trkpt lat="44.5489433" lon="10.5173033"><ele>452.0</ele><time>2026-04-19T14:58:44.923Z</time></trkpt><trkpt lat="44.5488967" lon="10.5174367"><ele>450.0</ele><time>2026-04-19T14:58:46.916Z</time></trkpt><trkpt lat="44.5488117" lon="10.5175067"><ele>452.5</ele><time>2026-04-19T14:58:47.909Z</time></trkpt><trkpt lat="44.5486833" lon="10.5175633"><ele>455.0</ele><time>2026-04-19T14:58:48.906Z</time></trkpt><trkpt lat="44.5485467" lon="10.517625"><ele>457.5</ele><time>2026-04-19T14:58:49.91Z</time></trkpt><trkpt lat="44.54841" lon="10.51769"><ele>460.0</ele><time>2026-04-19T14:58:50.916Z</time></trkpt><trkpt lat="44.5482783" lon="10.51775"><ele>460.0</ele><time>2026-04-19T14:58:51.91Z</time></trkpt><trkpt lat="44.54815" lon="10.5178117"><ele>460.0</ele><time>2026-04-19T14:58:52.911Z</time></trkpt><trkpt lat="44.5480383" lon="10.517885"><ele>460.0</ele><time>2026-04-19T14:58:53.909Z</time></trkpt><trkpt lat="44.5479367" lon="10.5179933"><ele>460.0</ele><time>2026-04-19T14:58:54.909Z</time></trkpt><trkpt lat="44.547845" lon="10.5181367"><ele>455.0</ele><time>2026-04-19T14:58:55.913Z</time></trkpt><trkpt lat="44.54775" lon="10.5182967"><ele>450.0</ele><time>2026-04-19T14:58:56.907Z</time></trkpt><trkpt lat="44.5476467" lon="10.5184683"><ele>445.0</ele><time>2026-04-19T14:58:57.911Z</time></trkpt><trkpt lat="44.5475417" lon="10.5186567"><ele>442.0</ele><time>2026-04-19T14:58:58.908Z</time></trkpt><trkpt lat="44.5474383" lon="10.518855"><ele>439.0</ele><time>2026-04-19T14:58:59.911Z</time></trkpt><trkpt lat="44.5473517" lon="10.51906"><ele>436.0</ele><time>2026-04-19T14:59:00.907Z</time></trkpt><trkpt lat="44.5472783" lon="10.5192583"><ele>436.0</ele><time>2026-04-19T14:59:01.914Z</time></trkpt><trkpt lat="44.54721" lon="10.5194433"><ele>436.0</ele><time>2026-04-19T14:59:02.908Z</time></trkpt><trkpt lat="44.5471583" lon="10.5196067"><ele>436.0</ele><time>2026-04-19T14:59:03.911Z</time></trkpt><trkpt lat="44.5471217" lon="10.51976"><ele>436.0</ele><time>2026-04-19T14:59:04.916Z</time></trkpt><trkpt lat="44.54711" lon="10.51989"><ele>434.0</ele><time>2026-04-19T14:59:05.919Z</time></trkpt><trkpt lat="44.5471317" lon="10.5200167"><ele>432.0</ele><time>2026-04-19T14:59:06.922Z</time></trkpt><trkpt lat="44.5471733" lon="10.5201217"><ele>430.0</ele><time>2026-04-19T14:59:07.918Z</time></trkpt><trkpt lat="44.5472633" lon="10.5201783"><ele>428.0</ele><time>2026-04-19T14:59:08.908Z</time></trkpt><trkpt lat="44.5473733" lon="10.520215"><ele>426.0</ele><time>2026-04-19T14:59:09.907Z</time></trkpt><trkpt lat="44.5474867" lon="10.5202467"><ele>426.0</ele><time>2026-04-19T14:59:10.916Z</time></trkpt><trkpt lat="44.5475817" lon="10.5203033"><ele>426.0</ele><time>2026-04-19T14:59:11.908Z</time></trkpt><trkpt lat="44.5476433" lon="10.5203883"><ele>426.0</ele><time>2026-04-19T14:59:12.91Z</time></trkpt><trkpt lat="44.54766" lon="10.52051"><ele>426.0</ele><time>2026-04-19T14:59:13.916Z</time></trkpt><trkpt lat="44.5476333" lon="10.5206517"><ele>426.0</ele><time>2026-04-19T14:59:14.91Z</time></trkpt><trkpt lat="44.54757" lon="10.520785"><ele>423.75</ele><time>2026-04-19T14:59:15.913Z</time></trkpt><trkpt lat="44.5474833" lon="10.5209017"><ele>421.5</ele><time>2026-04-19T14:59:16.956Z</time></trkpt><trkpt lat="44.5473817" lon="10.5209967"><ele>419.25</ele><time>2026-04-19T14:59:17.91Z</time></trkpt><trkpt lat="44.547285" lon="10.5210883"><ele>417.0</ele><time>2026-04-19T14:59:18.912Z</time></trkpt><trkpt lat="44.5472133" lon="10.5212033"><ele>414.75</ele><time>2026-04-19T14:59:19.908Z</time></trkpt><trkpt lat="44.5471817" lon="10.521365"><ele>412.5</ele><time>2026-04-19T14:59:20.912Z</time></trkpt><trkpt lat="44.5471833" lon="10.5215583"><ele>410.25</ele><time>2026-04-19T14:59:21.928Z</time></trkpt><trkpt lat="44.5472017" lon="10.52177"><ele>408.0</ele><time>2026-04-19T14:59:22.915Z</time></trkpt><trkpt lat="44.547215" lon="10.5219817"><ele>405.5</ele><time>2026-04-19T14:59:23.936Z</time></trkpt><trkpt lat="44.5472183" lon="10.5221917"><ele>403.0</ele><time>2026-04-19T14:59:24.908Z</time></trkpt><trkpt lat="44.5472183" lon="10.52239"><ele>400.5</ele><time>2026-04-19T14:59:25.925Z</time></trkpt><trkpt lat="44.5472167" lon="10.5225783"><ele>398.0</ele><time>2026-04-19T14:59:26.907Z</time></trkpt><trkpt lat="44.5472167" lon="10.52276"><ele>396.25</ele><time>2026-04-19T14:59:27.901Z</time></trkpt><trkpt lat="44.5472183" lon="10.52294"><ele>394.5</ele><time>2026-04-19T14:59:28.912Z</time></trkpt><trkpt lat="44.54722" lon="10.5231033"><ele>392.75</ele><time>2026-04-19T14:59:29.933Z</time></trkpt><trkpt lat="44.5472283" lon="10.5232667"><ele>391.0</ele><time>2026-04-19T14:59:30.912Z</time></trkpt><trkpt lat="44.5472433" lon="10.5234283"><ele>391.0</ele><time>2026-04-19T14:59:31.909Z</time></trkpt><trkpt lat="44.547255" lon="10.52359"><ele>391.0</ele><time>2026-04-19T14:59:32.91Z</time></trkpt><trkpt lat="44.5472683" lon="10.5237533"><ele>391.0</ele><time>2026-04-19T14:59:33.911Z</time></trkpt><trkpt lat="44.54728" lon="10.5239167"><ele>391.0</ele><time>2026-04-19T14:59:34.912Z</time></trkpt><trkpt lat="44.5472983" lon="10.5240783"><ele>389.83333333333337</ele><time>2026-04-19T14:59:35.912Z</time></trkpt><trkpt lat="44.547305" lon="10.5242317"><ele>388.6666666666667</ele><time>2026-04-19T14:59:36.959Z</time></trkpt><trkpt lat="44.5473067" lon="10.524375"><ele>387.5</ele><time>2026-04-19T14:59:37.922Z</time></trkpt><trkpt lat="44.5473033" lon="10.5244967"><ele>386.33333333333337</ele><time>2026-04-19T14:59:38.935Z</time></trkpt><trkpt lat="44.5472883" lon="10.5245917"><ele>385.1666666666667</ele><time>2026-04-19T14:59:39.943Z</time></trkpt><trkpt lat="44.5472467" lon="10.5246583"><ele>384.0</ele><time>2026-04-19T14:59:40.922Z</time></trkpt><trkpt lat="44.5471667" lon="10.5246783"><ele>380.5</ele><time>2026-04-19T14:59:41.916Z</time></trkpt><trkpt lat="44.5470667" lon="10.524685"><ele>377.0</ele><time>2026-04-19T14:59:42.912Z</time></trkpt><trkpt lat="44.54695" lon="10.524715"><ele>373.5</ele><time>2026-04-19T14:59:43.942Z</time></trkpt><trkpt lat="44.5468283" lon="10.524765"><ele>370.0</ele><time>2026-04-19T14:59:44.92Z</time></trkpt><trkpt lat="44.5467017" lon="10.5248217"><ele>370.0</ele><time>2026-04-19T14:59:45.927Z</time></trkpt><trkpt lat="44.54657" lon="10.5248733"><ele>370.0</ele><time>2026-04-19T14:59:46.913Z</time></trkpt><trkpt lat="44.5464417" lon="10.52491"><ele>370.0</ele><time>2026-04-19T14:59:47.95Z</time></trkpt><trkpt lat="44.5463217" lon="10.5249333"><ele>370.0</ele><time>2026-04-19T14:59:48.923Z</time></trkpt><trkpt lat="44.546205" lon="10.5249117"><ele>366.5</ele><time>2026-04-19T14:59:49.909Z</time></trkpt><trkpt lat="44.546075" lon="10.5248633"><ele>363.0</ele><time>2026-04-19T14:59:50.913Z</time></trkpt><trkpt lat="44.5459417" lon="10.5248033"><ele>359.5</ele><time>2026-04-19T14:59:51.912Z</time></trkpt><trkpt lat="44.5458133" lon="10.5247317"><ele>356.0</ele><time>2026-04-19T14:59:52.913Z</time></trkpt><trkpt lat="44.5456783" lon="10.5246717"><ele>356.0</ele><time>2026-04-19T14:59:53.916Z</time></trkpt><trkpt lat="44.54554" lon="10.5246167"><ele>356.0</ele><time>2026-04-19T14:59:54.911Z</time></trkpt><trkpt lat="44.545395" lon="10.5246033"><ele>356.0</ele><time>2026-04-19T14:59:55.959Z</time></trkpt><trkpt lat="44.545255" lon="10.5245883"><ele>356.0</ele><time>2026-04-19T14:59:56.92Z</time></trkpt><trkpt lat="44.5451217" lon="10.52455"><ele>358.75</ele><time>2026-04-19T14:59:57.909Z</time></trkpt><trkpt lat="44.5449867" lon="10.52448"><ele>361.5</ele><time>2026-04-19T14:59:58.919Z</time></trkpt><trkpt lat="44.5448533" lon="10.5244017"><ele>364.25</ele><time>2026-04-19T14:59:59.924Z</time></trkpt><trkpt lat="44.544715" lon="10.5243317"><ele>367.0</ele><time>2026-04-19T15:00:00.91Z</time></trkpt><trkpt lat="44.5445767" lon="10.52425"><ele>359.75</ele><time>2026-04-19T15:00:01.944Z</time></trkpt><trkpt lat="44.5444433" lon="10.5241567"><ele>352.5</ele><time>2026-04-19T15:00:02.91Z</time></trkpt><trkpt lat="44.54431" lon="10.52406"><ele>345.25</ele><time>2026-04-19T15:00:03.913Z</time></trkpt><trkpt lat="44.544175" lon="10.5239683"><ele>338.0</ele><time>2026-04-19T15:00:04.916Z</time></trkpt><trkpt lat="44.5440383" lon="10.5238983"><ele>338.0</ele><time>2026-04-19T15:00:05.948Z</time></trkpt><trkpt lat="44.5439133" lon="10.5238483"><ele>338.0</ele><time>2026-04-19T15:00:06.91Z</time></trkpt><trkpt lat="44.5438067" lon="10.523805"><ele>338.0</ele><time>2026-04-19T15:00:07.939Z</time></trkpt><trkpt lat="44.5437167" lon="10.5237533"><ele>338.0</ele><time>2026-04-19T15:00:08.926Z</time></trkpt><trkpt lat="44.5436533" lon="10.5236717"><ele>338.0</ele><time>2026-04-19T15:00:09.914Z</time></trkpt><trkpt lat="44.5436067" lon="10.52358"><ele>336.83333333333337</ele><time>2026-04-19T15:00:10.94Z</time></trkpt><trkpt lat="44.54357" lon="10.523495"><ele>335.6666666666667</ele><time>2026-04-19T15:00:11.913Z</time></trkpt><trkpt lat="44.543495" lon="10.5233817"><ele>334.5</ele><time>2026-04-19T15:00:13.967Z</time></trkpt><trkpt lat="44.5434333" lon="10.5234267"><ele>333.3333333333333</ele><time>2026-04-19T15:00:17.931Z</time></trkpt><trkpt lat="44.54344" lon="10.523565"><ele>332.16666666666663</ele><time>2026-04-19T15:00:19.936Z</time></trkpt><trkpt lat="44.5434817" lon="10.5236683"><ele>331.0</ele><time>2026-04-19T15:00:20.91Z</time></trkpt><trkpt lat="44.5435517" lon="10.52379"><ele>332.75</ele><time>2026-04-19T15:00:21.913Z</time></trkpt><trkpt lat="44.54364" lon="10.5239383"><ele>334.5</ele><time>2026-04-19T15:00:22.919Z</time></trkpt><trkpt lat="44.5437367" lon="10.5241033"><ele>336.25</ele><time>2026-04-19T15:00:23.923Z</time></trkpt><trkpt lat="44.5438267" lon="10.5242617"><ele>338.0</ele><time>2026-04-19T15:00:24.924Z</time></trkpt><trkpt lat="44.543935" lon="10.524415"><ele>338.0</ele><time>2026-04-19T15:00:25.918Z</time></trkpt><trkpt lat="44.544045" lon="10.52455"><ele>338.0</ele><time>2026-04-19T15:00:26.912Z</time></trkpt><trkpt lat="44.544165" lon="10.5246583"><ele>338.0</ele><time>2026-04-19T15:00:27.911Z</time></trkpt><trkpt lat="44.5442733" lon="10.5247633"><ele>338.0</ele><time>2026-04-19T15:00:28.936Z</time></trkpt><trkpt lat="44.544355" lon="10.5248967"><ele>338.0</ele><time>2026-04-19T15:00:29.908Z</time></trkpt><trkpt lat="44.54441" lon="10.52506"><ele>338.0</ele><time>2026-04-19T15:00:30.912Z</time></trkpt><trkpt lat="44.54447" lon="10.5252283"><ele>338.0</ele><time>2026-04-19T15:00:31.927Z</time></trkpt><trkpt lat="44.54455" lon="10.5253717"><ele>338.0</ele><time>2026-04-19T15:00:32.912Z</time></trkpt><trkpt lat="44.54466" lon="10.5254733"><ele>331.33333333333337</ele><time>2026-04-19T15:00:33.92Z</time></trkpt><trkpt lat="44.5448017" lon="10.5255383"><ele>324.6666666666667</ele><time>2026-04-19T15:00:34.908Z</time></trkpt><trkpt lat="44.5449633" lon="10.5255567"><ele>318.0</ele><time>2026-04-19T15:00:35.911Z</time></trkpt><trkpt lat="44.54513" lon="10.5255417"><ele>318.0</ele><time>2026-04-19T15:00:36.909Z</time></trkpt><trkpt lat="44.5452917" lon="10.52553"><ele>318.0</ele><time>2026-04-19T15:00:37.91Z</time></trkpt><trkpt lat="44.5454517" lon="10.5255367"><ele>318.0</ele><time>2026-04-19T15:00:38.912Z</time></trkpt><trkpt lat="44.5456083" lon="10.5255717"><ele>318.25</ele><time>2026-04-19T15:00:39.91Z</time></trkpt><trkpt lat="44.5457533" lon="10.5256367"><ele>318.5</ele><time>2026-04-19T15:00:40.911Z</time></trkpt><trkpt lat="44.545875" lon="10.5257283"><ele>318.75</ele><time>2026-04-19T15:00:41.91Z</time></trkpt><trkpt lat="44.5459767" lon="10.525845"><ele>319.0</ele><time>2026-04-19T15:00:42.915Z</time></trkpt><trkpt lat="44.5460517" lon="10.5259867"><ele>319.0</ele><time>2026-04-19T15:00:43.911Z</time></trkpt><trkpt lat="44.54612" lon="10.5261383"><ele>319.0</ele><time>2026-04-19T15:00:44.908Z</time></trkpt><trkpt lat="44.5462067" lon="10.5262617"><ele>319.0</ele><time>2026-04-19T15:00:45.91Z</time></trkpt><trkpt lat="44.54631" lon="10.52635"><ele>319.0</ele><time>2026-04-19T15:00:46.913Z</time></trkpt><trkpt lat="44.5464233" lon="10.5264233"><ele>316.25</ele><time>2026-04-19T15:00:47.911Z</time></trkpt><trkpt lat="44.5465333" lon="10.526515"><ele>313.5</ele><time>2026-04-19T15:00:48.911Z</time></trkpt><trkpt lat="44.5466283" lon="10.5266433"><ele>310.75</ele><time>2026-04-19T15:00:49.913Z</time></trkpt><trkpt lat="44.5467033" lon="10.5268083"><ele>308.0</ele><time>2026-04-19T15:00:50.912Z</time></trkpt><trkpt lat="44.546765" lon="10.5269983"><ele>307.75</ele><time>2026-04-19T15:00:51.91Z</time></trkpt><trkpt lat="44.54681" lon="10.5271933"><ele>307.5</ele><time>2026-04-19T15:00:52.917Z</time></trkpt><trkpt lat="44.5468367" lon="10.5273883"><ele>307.25</ele><time>2026-04-19T15:00:53.912Z</time></trkpt><trkpt lat="44.5468367" lon="10.52759"><ele>307.0</ele><time>2026-04-19T15:00:54.91Z</time></trkpt><trkpt lat="44.546825" lon="10.5277867"><ele>307.2</ele><time>2026-04-19T15:00:55.917Z</time></trkpt><trkpt lat="44.54681" lon="10.527955"><ele>307.4</ele><time>2026-04-19T15:00:56.912Z</time></trkpt><trkpt lat="44.5468267" lon="10.52811"><ele>307.6</ele><time>2026-04-19T15:00:57.915Z</time></trkpt><trkpt lat="44.54686" lon="10.5282283"><ele>307.8</ele><time>2026-04-19T15:00:58.919Z</time></trkpt><trkpt lat="44.546925" lon="10.5283067"><ele>308.0</ele><time>2026-04-19T15:00:59.912Z</time></trkpt><trkpt lat="44.5470333" lon="10.5283333"><ele>306.0</ele><time>2026-04-19T15:01:00.912Z</time></trkpt><trkpt lat="44.5471533" lon="10.52834"><ele>304.0</ele><time>2026-04-19T15:01:01.912Z</time></trkpt><trkpt lat="44.5472717" lon="10.5283617"><ele>302.0</ele><time>2026-04-19T15:01:02.908Z</time></trkpt><trkpt lat="44.547385" lon="10.5284283"><ele>300.0</ele><time>2026-04-19T15:01:03.918Z</time></trkpt><trkpt lat="44.547485" lon="10.52855"><ele>300.0</ele><time>2026-04-19T15:01:04.914Z</time></trkpt><trkpt lat="44.547575" lon="10.528705"><ele>300.0</ele><time>2026-04-19T15:01:05.921Z</time></trkpt><trkpt lat="44.5476583" lon="10.528865"><ele>300.0</ele><time>2026-04-19T15:01:06.911Z</time></trkpt><trkpt lat="44.5477367" lon="10.52901"><ele>300.0</ele><time>2026-04-19T15:01:07.911Z</time></trkpt><trkpt lat="44.54782" lon="10.52912"><ele>299.0</ele><time>2026-04-19T15:01:08.915Z</time></trkpt><trkpt lat="44.547915" lon="10.529175"><ele>298.0</ele><time>2026-04-19T15:01:09.916Z</time></trkpt><trkpt lat="44.5480217" lon="10.5291783"><ele>297.0</ele><time>2026-04-19T15:01:10.913Z</time></trkpt><trkpt lat="44.5481383" lon="10.5291083"><ele>296.0</ele><time>2026-04-19T15:01:11.929Z</time></trkpt><trkpt lat="44.5482667" lon="10.5289883"><ele>296.0</ele><time>2026-04-19T15:01:12.911Z</time></trkpt><trkpt lat="44.5483917" lon="10.5288733"><ele>296.0</ele><time>2026-04-19T15:01:13.911Z</time></trkpt><trkpt lat="44.5485117" lon="10.5287933"><ele>296.0</ele><time>2026-04-19T15:01:14.919Z</time></trkpt><trkpt lat="44.54863" lon="10.5287617"><ele>296.0</ele><time>2026-04-19T15:01:15.908Z</time></trkpt><trkpt lat="44.5487467" lon="10.5287983"><ele>298.0</ele><time>2026-04-19T15:01:16.912Z</time></trkpt><trkpt lat="44.54884" lon="10.5288933"><ele>300.0</ele><time>2026-04-19T15:01:17.911Z</time></trkpt><trkpt lat="44.5489033" lon="10.529045"><ele>302.0</ele><time>2026-04-19T15:01:18.924Z</time></trkpt><trkpt lat="44.54893" lon="10.5292217"><ele>304.0</ele><time>2026-04-19T15:01:19.91Z</time></trkpt><trkpt lat="44.5489317" lon="10.5293817"><ele>304.0</ele><time>2026-04-19T15:01:20.913Z</time></trkpt><trkpt lat="44.5489133" lon="10.5295267"><ele>304.0</ele><time>2026-04-19T15:01:21.907Z</time></trkpt><trkpt lat="44.5489" lon="10.5296733"><ele>304.0</ele><time>2026-04-19T15:01:22.916Z</time></trkpt><trkpt lat="44.5489183" lon="10.529795"><ele>304.0</ele><time>2026-04-19T15:01:23.914Z</time></trkpt><trkpt lat="44.548965" lon="10.5298933"><ele>304.0</ele><time>2026-04-19T15:01:24.915Z</time></trkpt><trkpt lat="44.54903" lon="10.5299517"><ele>301.8</ele><time>2026-04-19T15:01:25.912Z</time></trkpt><trkpt lat="44.5491183" lon="10.5299633"><ele>299.59999999999997</ele><time>2026-04-19T15:01:26.911Z</time></trkpt><trkpt lat="44.5492133" lon="10.5299683"><ele>297.4</ele><time>2026-04-19T15:01:27.909Z</time></trkpt><trkpt lat="44.5493067" lon="10.5299833"><ele>295.2</ele><time>2026-04-19T15:01:28.914Z</time></trkpt><trkpt lat="44.5494" lon="10.5300133"><ele>293.0</ele><time>2026-04-19T15:01:29.907Z</time></trkpt><trkpt lat="44.5494967" lon="10.5300583"><ele>292.6</ele><time>2026-04-19T15:01:30.911Z</time></trkpt><trkpt lat="44.54959" lon="10.53012"><ele>292.20000000000005</ele><time>2026-04-19T15:01:31.911Z</time></trkpt><trkpt lat="44.549675" lon="10.5302017"><ele>291.8</ele><time>2026-04-19T15:01:32.917Z</time></trkpt><trkpt lat="44.54975" lon="10.5302917"><ele>291.40000000000003</ele><time>2026-04-19T15:01:33.911Z</time></trkpt><trkpt lat="44.5498183" lon="10.5303967"><ele>291.0</ele><time>2026-04-19T15:01:34.912Z</time></trkpt><trkpt lat="44.5498833" lon="10.5304983"><ele>290.0</ele><time>2026-04-19T15:01:35.914Z</time></trkpt><trkpt lat="44.5499517" lon="10.53057"><ele>289.0</ele><time>2026-04-19T15:01:36.912Z</time></trkpt><trkpt lat="44.5500283" lon="10.530615"><ele>288.0</ele><time>2026-04-19T15:01:37.912Z</time></trkpt><trkpt lat="44.5501183" lon="10.5305967"><ele>287.0</ele><time>2026-04-19T15:01:38.912Z</time></trkpt><trkpt lat="44.550195" lon="10.53055"><ele>286.0</ele><time>2026-04-19T15:01:39.913Z</time></trkpt><trkpt lat="44.550285" lon="10.5305067"><ele>285.0</ele><time>2026-04-19T15:01:40.913Z</time></trkpt><trkpt lat="44.5503717" lon="10.5304883"><ele>284.8</ele><time>2026-04-19T15:01:41.917Z</time></trkpt><trkpt lat="44.55046" lon="10.5305"><ele>284.6</ele><time>2026-04-19T15:01:42.909Z</time></trkpt><trkpt lat="44.5505467" lon="10.5305583"><ele>284.4</ele><time>2026-04-19T15:01:43.908Z</time></trkpt><trkpt lat="44.550645" lon="10.5306367"><ele>284.2</ele><time>2026-04-19T15:01:44.908Z</time></trkpt><trkpt lat="44.550755" lon="10.5307183"><ele>284.0</ele><time>2026-04-19T15:01:45.911Z</time></trkpt><trkpt lat="44.5508733" lon="10.5307633"><ele>284.0</ele><time>2026-04-19T15:01:46.912Z</time></trkpt><trkpt lat="44.5509883" lon="10.5307667"><ele>284.0</ele><time>2026-04-19T15:01:47.913Z</time></trkpt><trkpt lat="44.5511067" lon="10.5307567"><ele>284.0</ele><time>2026-04-19T15:01:48.911Z</time></trkpt><trkpt lat="44.5512333" lon="10.5307467"><ele>284.0</ele><time>2026-04-19T15:01:49.907Z</time></trkpt><trkpt lat="44.5513633" lon="10.53074"><ele>284.75</ele><time>2026-04-19T15:01:50.92Z</time></trkpt><trkpt lat="44.5514867" lon="10.5307317"><ele>285.5</ele><time>2026-04-19T15:01:51.914Z</time></trkpt><trkpt lat="44.5516033" lon="10.5307183"><ele>286.25</ele><time>2026-04-19T15:01:52.912Z</time></trkpt><trkpt lat="44.5517167" lon="10.53069"><ele>287.0</ele><time>2026-04-19T15:01:53.912Z</time></trkpt><trkpt lat="44.551825" lon="10.5306233"><ele>287.0</ele><time>2026-04-19T15:01:54.916Z</time></trkpt><trkpt lat="44.55192" lon="10.530515"><ele>287.0</ele><time>2026-04-19T15:01:55.913Z</time></trkpt><trkpt lat="44.5520017" lon="10.5303783"><ele>287.0</ele><time>2026-04-19T15:01:56.924Z</time></trkpt><trkpt lat="44.5520833" lon="10.5302333"><ele>287.0</ele><time>2026-04-19T15:01:57.91Z</time></trkpt><trkpt lat="44.5521717" lon="10.5301067"><ele>285.25</ele><time>2026-04-19T15:01:58.911Z</time></trkpt><trkpt lat="44.55227" lon="10.5300117"><ele>283.5</ele><time>2026-04-19T15:01:59.908Z</time></trkpt><trkpt lat="44.55238" lon="10.52995"><ele>281.75</ele><time>2026-04-19T15:02:00.91Z</time></trkpt><trkpt lat="44.552495" lon="10.5299133"><ele>280.0</ele><time>2026-04-19T15:02:01.909Z</time></trkpt><trkpt lat="44.5526217" lon="10.5298933"><ele>280.0</ele><time>2026-04-19T15:02:02.913Z</time></trkpt><trkpt lat="44.5527533" lon="10.5298767"><ele>280.0</ele><time>2026-04-19T15:02:03.917Z</time></trkpt><trkpt lat="44.5528867" lon="10.5298583"><ele>280.0</ele><time>2026-04-19T15:02:04.916Z</time></trkpt><trkpt lat="44.55302" lon="10.5298383"><ele>280.0</ele><time>2026-04-19T15:02:05.919Z</time></trkpt><trkpt lat="44.55315" lon="10.5298183"><ele>280.25</ele><time>2026-04-19T15:02:06.898Z</time></trkpt><trkpt lat="44.553275" lon="10.5297967"><ele>280.5</ele><time>2026-04-19T15:02:07.898Z</time></trkpt><trkpt lat="44.5534017" lon="10.529775"><ele>280.75</ele><time>2026-04-19T15:02:08.914Z</time></trkpt><trkpt lat="44.5535283" lon="10.5297533"><ele>281.0</ele><time>2026-04-19T15:02:09.93Z</time></trkpt><trkpt lat="44.553655" lon="10.5297317"><ele>281.25</ele><time>2026-04-19T15:02:10.913Z</time></trkpt><trkpt lat="44.5537817" lon="10.529715"><ele>281.5</ele><time>2026-04-19T15:02:11.955Z</time></trkpt><trkpt lat="44.55391" lon="10.5297033"><ele>281.75</ele><time>2026-04-19T15:02:12.912Z</time></trkpt><trkpt lat="44.5540417" lon="10.529705"><ele>282.0</ele><time>2026-04-19T15:02:13.912Z</time></trkpt><trkpt lat="44.554175" lon="10.5297167"><ele>282.0</ele><time>2026-04-19T15:02:14.908Z</time></trkpt><trkpt lat="44.5543117" lon="10.5297383"><ele>282.0</ele><time>2026-04-19T15:02:15.916Z</time></trkpt><trkpt lat="44.554455" lon="10.5297633"><ele>282.0</ele><time>2026-04-19T15:02:16.91Z</time></trkpt><trkpt lat="44.5546" lon="10.52979"><ele>282.0</ele><time>2026-04-19T15:02:17.911Z</time></trkpt><trkpt lat="44.5547467" lon="10.52982"><ele>282.0</ele><time>2026-04-19T15:02:18.911Z</time></trkpt><trkpt lat="44.5548933" lon="10.529845"><ele>282.0</ele><time>2026-04-19T15:02:19.908Z</time></trkpt><trkpt lat="44.5550367" lon="10.5298667"><ele>282.0</ele><time>2026-04-19T15:02:20.912Z</time></trkpt><trkpt lat="44.5551733" lon="10.529885"><ele>282.0</ele><time>2026-04-19T15:02:21.91Z</time></trkpt><trkpt lat="44.5553033" lon="10.5299033"><ele>280.5</ele><time>2026-04-19T15:02:22.914Z</time></trkpt><trkpt lat="44.5554333" lon="10.5299267"><ele>279.0</ele><time>2026-04-19T15:02:23.908Z</time></trkpt><trkpt lat="44.5555617" lon="10.5299567"><ele>277.5</ele><time>2026-04-19T15:02:24.915Z</time></trkpt><trkpt lat="44.5556933" lon="10.530005"><ele>276.0</ele><time>2026-04-19T15:02:25.918Z</time></trkpt><trkpt lat="44.5558217" lon="10.5300733"><ele>276.0</ele><time>2026-04-19T15:02:26.91Z</time></trkpt><trkpt lat="44.5559417" lon="10.5301617"><ele>276.0</ele><time>2026-04-19T15:02:27.927Z</time></trkpt><trkpt lat="44.55606" lon="10.530255"><ele>276.0</ele><time>2026-04-19T15:02:28.927Z</time></trkpt><trkpt lat="44.556175" lon="10.53034"><ele>276.0</ele><time>2026-04-19T15:02:29.913Z</time></trkpt><trkpt lat="44.556285" lon="10.5304233"><ele>276.40000000000003</ele><time>2026-04-19T15:02:30.911Z</time></trkpt><trkpt lat="44.5563917" lon="10.5305017"><ele>276.8</ele><time>2026-04-19T15:02:31.913Z</time></trkpt><trkpt lat="44.5564933" lon="10.5305767"><ele>277.20000000000005</ele><time>2026-04-19T15:02:32.912Z</time></trkpt><trkpt lat="44.55659" lon="10.53064"><ele>277.6</ele><time>2026-04-19T15:02:33.914Z</time></trkpt><trkpt lat="44.556685" lon="10.53068"><ele>278.0</ele><time>2026-04-19T15:02:34.911Z</time></trkpt><trkpt lat="44.5567883" lon="10.5306833"><ele>278.0</ele><time>2026-04-19T15:02:35.908Z</time></trkpt><trkpt lat="44.5568917" lon="10.5306333"><ele>278.0</ele><time>2026-04-19T15:02:36.906Z</time></trkpt><trkpt lat="44.5569933" lon="10.5305483"><ele>278.0</ele><time>2026-04-19T15:02:37.912Z</time></trkpt><trkpt lat="44.5570967" lon="10.5304433"><ele>278.0</ele><time>2026-04-19T15:02:38.918Z</time></trkpt><trkpt lat="44.557205" lon="10.5303367"><ele>275.25</ele><time>2026-04-19T15:02:39.916Z</time></trkpt><trkpt lat="44.5573167" lon="10.5302367"><ele>272.5</ele><time>2026-04-19T15:02:40.902Z</time></trkpt><trkpt lat="44.5574317" lon="10.5301567"><ele>269.75</ele><time>2026-04-19T15:02:41.91Z</time></trkpt><trkpt lat="44.557555" lon="10.530085"><ele>267.0</ele><time>2026-04-19T15:02:42.911Z</time></trkpt><trkpt lat="44.5576783" lon="10.5300233"><ele>267.0</ele><time>2026-04-19T15:02:43.913Z</time></trkpt><trkpt lat="44.55781" lon="10.5299683"><ele>267.0</ele><time>2026-04-19T15:02:44.902Z</time></trkpt><trkpt lat="44.557945" lon="10.5299083"><ele>267.0</ele><time>2026-04-19T15:02:45.924Z</time></trkpt><trkpt lat="44.5580783" lon="10.529845"><ele>267.0</ele><time>2026-04-19T15:02:46.923Z</time></trkpt><trkpt lat="44.5582067" lon="10.5297867"><ele>267.75</ele><time>2026-04-19T15:02:47.912Z</time></trkpt><trkpt lat="44.5583283" lon="10.5297317"><ele>268.5</ele><time>2026-04-19T15:02:48.947Z</time></trkpt><trkpt lat="44.5584433" lon="10.5296767"><ele>269.25</ele><time>2026-04-19T15:02:49.938Z</time></trkpt><trkpt lat="44.5585533" lon="10.5296233"><ele>270.0</ele><time>2026-04-19T15:02:50.907Z</time></trkpt><trkpt lat="44.5586667" lon="10.52957"><ele>268.5</ele><time>2026-04-19T15:02:51.909Z</time></trkpt><trkpt lat="44.5587833" lon="10.5295117"><ele>267.0</ele><time>2026-04-19T15:02:52.956Z</time></trkpt><trkpt lat="44.5589083" lon="10.5294467"><ele>265.5</ele><time>2026-04-19T15:02:53.914Z</time></trkpt><trkpt lat="44.55903" lon="10.5293817"><ele>264.0</ele><time>2026-04-19T15:02:54.909Z</time></trkpt><trkpt lat="44.5591533" lon="10.529315"><ele>264.0</ele><time>2026-04-19T15:02:55.922Z</time></trkpt><trkpt lat="44.5592733" lon="10.52925"><ele>264.0</ele><time>2026-04-19T15:02:56.923Z</time></trkpt><trkpt lat="44.559395" lon="10.529185"><ele>264.0</ele><time>2026-04-19T15:02:57.913Z</time></trkpt><trkpt lat="44.559515" lon="10.5291217"><ele>264.0</ele><time>2026-04-19T15:02:58.911Z</time></trkpt><trkpt lat="44.5596333" lon="10.5290567"><ele>264.0</ele><time>2026-04-19T15:02:59.908Z</time></trkpt><trkpt lat="44.559755" lon="10.5289917"><ele>264.0</ele><time>2026-04-19T15:03:00.919Z</time></trkpt><trkpt lat="44.5598783" lon="10.528925"><ele>264.0</ele><time>2026-04-19T15:03:01.911Z</time></trkpt><trkpt lat="44.560005" lon="10.5288583"><ele>264.0</ele><time>2026-04-19T15:03:02.925Z</time></trkpt><trkpt lat="44.5601317" lon="10.528795"><ele>264.0</ele><time>2026-04-19T15:03:03.91Z</time></trkpt><trkpt lat="44.5602583" lon="10.528735"><ele>264.0</ele><time>2026-04-19T15:03:04.916Z</time></trkpt><trkpt lat="44.5603883" lon="10.5286817"><ele>264.0</ele><time>2026-04-19T15:03:05.908Z</time></trkpt><trkpt lat="44.560525" lon="10.5286417"><ele>264.0</ele><time>2026-04-19T15:03:06.946Z</time></trkpt><trkpt lat="44.560665" lon="10.5286133"><ele>262.5</ele><time>2026-04-19T15:03:07.924Z</time></trkpt><trkpt lat="44.5608083" lon="10.5285883"><ele>261.0</ele><time>2026-04-19T15:03:08.945Z</time></trkpt><trkpt lat="44.560955" lon="10.5285717"><ele>259.5</ele><time>2026-04-19T15:03:09.914Z</time></trkpt><trkpt lat="44.5611033" lon="10.5285567"><ele>258.0</ele><time>2026-04-19T15:03:10.914Z</time></trkpt><trkpt lat="44.5612567" lon="10.5285483"><ele>257.0</ele><time>2026-04-19T15:03:11.91Z</time></trkpt><trkpt lat="44.5614133" lon="10.5285383"><ele>256.0</ele><time>2026-04-19T15:03:12.928Z</time></trkpt><trkpt lat="44.56157" lon="10.52853"><ele>255.0</ele><time>2026-04-19T15:03:13.911Z</time></trkpt><trkpt lat="44.5617233" lon="10.52852"><ele>255.0</ele><time>2026-04-19T15:03:14.911Z</time></trkpt><trkpt lat="44.5618717" lon="10.5285117"><ele>255.0</ele><time>2026-04-19T15:03:15.911Z</time></trkpt><trkpt lat="44.562015" lon="10.5285033"><ele>255.0</ele><time>2026-04-19T15:03:16.914Z</time></trkpt><trkpt lat="44.5621483" lon="10.5284917"><ele>255.0</ele><time>2026-04-19T15:03:17.912Z</time></trkpt><trkpt lat="44.562275" lon="10.52848"><ele>254.5</ele><time>2026-04-19T15:03:18.909Z</time></trkpt><trkpt lat="44.5624" lon="10.52847"><ele>254.0</ele><time>2026-04-19T15:03:19.92Z</time></trkpt><trkpt lat="44.562525" lon="10.5284633"><ele>253.5</ele><time>2026-04-19T15:03:20.908Z</time></trkpt><trkpt lat="44.5626567" lon="10.5284717"><ele>253.0</ele><time>2026-04-19T15:03:21.918Z</time></trkpt><trkpt lat="44.5627933" lon="10.5284933"><ele>251.66666666666666</ele><time>2026-04-19T15:03:22.915Z</time></trkpt><trkpt lat="44.562935" lon="10.5285333"><ele>250.33333333333331</ele><time>2026-04-19T15:03:23.915Z</time></trkpt><trkpt lat="44.5630783" lon="10.5285933"><ele>249.0</ele><time>2026-04-19T15:03:24.912Z</time></trkpt><trkpt lat="44.5632267" lon="10.528665"><ele>250.33333333333331</ele><time>2026-04-19T15:03:25.914Z</time></trkpt><trkpt lat="44.563375" lon="10.5287367"><ele>251.66666666666666</ele><time>2026-04-19T15:03:26.92Z</time></trkpt><trkpt lat="44.5635233" lon="10.5287983"><ele>253.0</ele><time>2026-04-19T15:03:27.918Z</time></trkpt><trkpt lat="44.563675" lon="10.5288483"><ele>251.66666666666666</ele><time>2026-04-19T15:03:28.952Z</time></trkpt><trkpt lat="44.5638283" lon="10.52888"><ele>250.33333333333331</ele><time>2026-04-19T15:03:29.961Z</time></trkpt><trkpt lat="44.5639867" lon="10.5288933"><ele>249.0</ele><time>2026-04-19T15:03:30.91Z</time></trkpt><trkpt lat="44.564145" lon="10.5288917"><ele>249.0</ele><time>2026-04-19T15:03:31.912Z</time></trkpt><trkpt lat="44.5642983" lon="10.5288867"><ele>249.0</ele><time>2026-04-19T15:03:32.91Z</time></trkpt><trkpt lat="44.5644467" lon="10.528875"><ele>249.0</ele><time>2026-04-19T15:03:33.912Z</time></trkpt><trkpt lat="44.5645883" lon="10.5288583"><ele>249.0</ele><time>2026-04-19T15:03:34.913Z</time></trkpt><trkpt lat="44.5647183" lon="10.5288433"><ele>248.75</ele><time>2026-04-19T15:03:35.913Z</time></trkpt><trkpt lat="44.5648383" lon="10.5288317"><ele>248.5</ele><time>2026-04-19T15:03:36.912Z</time></trkpt><trkpt lat="44.564955" lon="10.5288217"><ele>248.25</ele><time>2026-04-19T15:03:37.911Z</time></trkpt><trkpt lat="44.56507" lon="10.52881"><ele>248.0</ele><time>2026-04-19T15:03:38.908Z</time></trkpt><trkpt lat="44.5651883" lon="10.528795"><ele>248.0</ele><time>2026-04-19T15:03:39.918Z</time></trkpt><trkpt lat="44.5653117" lon="10.5287833"><ele>248.0</ele><time>2026-04-19T15:03:40.912Z</time></trkpt><trkpt lat="44.56544" lon="10.5287717"><ele>248.0</ele><time>2026-04-19T15:03:41.912Z</time></trkpt><trkpt lat="44.5655783" lon="10.52876"><ele>248.0</ele><time>2026-04-19T15:03:42.907Z</time></trkpt><trkpt lat="44.56572" lon="10.528745"><ele>246.33333333333334</ele><time>2026-04-19T15:03:43.908Z</time></trkpt><trkpt lat="44.5658683" lon="10.52873"><ele>244.66666666666669</ele><time>2026-04-19T15:03:44.911Z</time></trkpt><trkpt lat="44.5660233" lon="10.52872"><ele>243.0</ele><time>2026-04-19T15:03:45.918Z</time></trkpt><trkpt lat="44.56618" lon="10.5287083"><ele>241.33333333333331</ele><time>2026-04-19T15:03:46.915Z</time></trkpt><trkpt lat="44.5663417" lon="10.528695"><ele>239.66666666666666</ele><time>2026-04-19T15:03:47.912Z</time></trkpt><trkpt lat="44.566505" lon="10.5286817"><ele>238.0</ele><time>2026-04-19T15:03:48.911Z</time></trkpt><trkpt lat="44.5666683" lon="10.52866"><ele>238.0</ele><time>2026-04-19T15:03:49.909Z</time></trkpt><trkpt lat="44.5668283" lon="10.5286417"><ele>238.0</ele><time>2026-04-19T15:03:50.908Z</time></trkpt><trkpt lat="44.56699" lon="10.5286283"><ele>238.0</ele><time>2026-04-19T15:03:51.909Z</time></trkpt><trkpt lat="44.56715" lon="10.5286167"><ele>236.75</ele><time>2026-04-19T15:03:52.914Z</time></trkpt><trkpt lat="44.5673017" lon="10.5286083"><ele>235.5</ele><time>2026-04-19T15:03:53.912Z</time></trkpt><trkpt lat="44.5674467" lon="10.5285983"><ele>234.25</ele><time>2026-04-19T15:03:54.911Z</time></trkpt><trkpt lat="44.5675833" lon="10.5285867"><ele>233.0</ele><time>2026-04-19T15:03:55.91Z</time></trkpt><trkpt lat="44.567715" lon="10.5285733"><ele>233.0</ele><time>2026-04-19T15:03:56.925Z</time></trkpt><trkpt lat="44.5678417" lon="10.5285633"><ele>233.0</ele><time>2026-04-19T15:03:57.912Z</time></trkpt><trkpt lat="44.5679633" lon="10.52855"><ele>233.0</ele><time>2026-04-19T15:03:58.913Z</time></trkpt><trkpt lat="44.56809" lon="10.52854"><ele>233.0</ele><time>2026-04-19T15:03:59.926Z</time></trkpt><trkpt lat="44.5682233" lon="10.52853"><ele>233.0</ele><time>2026-04-19T15:04:00.912Z</time></trkpt><trkpt lat="44.5683567" lon="10.528515"><ele>233.0</ele><time>2026-04-19T15:04:01.929Z</time></trkpt><trkpt lat="44.56849" lon="10.5284933"><ele>233.0</ele><time>2026-04-19T15:04:02.907Z</time></trkpt><trkpt lat="44.568615" lon="10.5284617"><ele>233.0</ele><time>2026-04-19T15:04:03.91Z</time></trkpt><trkpt lat="44.568735" lon="10.5284183"><ele>231.75</ele><time>2026-04-19T15:04:04.912Z</time></trkpt><trkpt lat="44.56885" lon="10.528365"><ele>230.5</ele><time>2026-04-19T15:04:05.91Z</time></trkpt><trkpt lat="44.56896" lon="10.528305"><ele>229.25</ele><time>2026-04-19T15:04:06.972Z</time></trkpt><trkpt lat="44.56907" lon="10.5282417"><ele>228.0</ele><time>2026-04-19T15:04:07.932Z</time></trkpt><trkpt lat="44.56918" lon="10.5281717"><ele>228.0</ele><time>2026-04-19T15:04:08.915Z</time></trkpt><trkpt lat="44.56929" lon="10.5280917"><ele>228.0</ele><time>2026-04-19T15:04:09.912Z</time></trkpt><trkpt lat="44.5694017" lon="10.5280033"><ele>228.0</ele><time>2026-04-19T15:04:10.915Z</time></trkpt><trkpt lat="44.56952" lon="10.5279117"><ele>228.0</ele><time>2026-04-19T15:04:11.912Z</time></trkpt><trkpt lat="44.56964" lon="10.5278183"><ele>227.0</ele><time>2026-04-19T15:04:12.968Z</time></trkpt><trkpt lat="44.569765" lon="10.527725"><ele>226.0</ele><time>2026-04-19T15:04:13.991Z</time></trkpt><trkpt lat="44.5698883" lon="10.5276333"><ele>225.0</ele><time>2026-04-19T15:04:14.911Z</time></trkpt><trkpt lat="44.570015" lon="10.5275433"><ele>224.0</ele><time>2026-04-19T15:04:15.912Z</time></trkpt><trkpt lat="44.57015" lon="10.5274733"><ele>224.0</ele><time>2026-04-19T15:04:16.914Z</time></trkpt><trkpt lat="44.5702967" lon="10.5274317"><ele>224.0</ele><time>2026-04-19T15:04:17.947Z</time></trkpt><trkpt lat="44.57046" lon="10.527415"><ele>224.0</ele><time>2026-04-19T15:04:18.928Z</time></trkpt><trkpt lat="44.5706433" lon="10.5274233"><ele>224.33333333333334</ele><time>2026-04-19T15:04:19.956Z</time></trkpt><trkpt lat="44.5708433" lon="10.5274433"><ele>224.66666666666669</ele><time>2026-04-19T15:04:20.928Z</time></trkpt><trkpt lat="44.57105" lon="10.527475"><ele>225.0</ele><time>2026-04-19T15:04:21.972Z</time></trkpt><trkpt lat="44.571255" lon="10.5275133"><ele>225.0</ele><time>2026-04-19T15:04:22.95Z</time></trkpt><trkpt lat="44.5714583" lon="10.5275567"><ele>225.0</ele><time>2026-04-19T15:04:23.928Z</time></trkpt><trkpt lat="44.5716567" lon="10.5275983"><ele>225.0</ele><time>2026-04-19T15:04:24.939Z</time></trkpt><trkpt lat="44.5718433" lon="10.5276333"><ele>225.0</ele><time>2026-04-19T15:04:25.915Z</time></trkpt><trkpt lat="44.57202" lon="10.5276667"><ele>225.0</ele><time>2026-04-19T15:04:26.913Z</time></trkpt><trkpt lat="44.5721883" lon="10.52771"><ele>225.0</ele><time>2026-04-19T15:04:27.917Z</time></trkpt><trkpt lat="44.572345" lon="10.5277683"><ele>225.0</ele><time>2026-04-19T15:04:28.924Z</time></trkpt><trkpt lat="44.57249" lon="10.5278517"><ele>225.0</ele><time>2026-04-19T15:04:29.916Z</time></trkpt><trkpt lat="44.5726267" lon="10.5279633"><ele>225.0</ele><time>2026-04-19T15:04:30.912Z</time></trkpt><trkpt lat="44.5727483" lon="10.528105"><ele>223.33333333333331</ele><time>2026-04-19T15:04:31.956Z</time></trkpt><trkpt lat="44.572855" lon="10.5282833"><ele>221.66666666666666</ele><time>2026-04-19T15:04:32.915Z</time></trkpt><trkpt lat="44.572955" lon="10.5284733"><ele>220.0</ele><time>2026-04-19T15:04:33.952Z</time></trkpt><trkpt lat="44.5730517" lon="10.528655"><ele>220.0</ele><time>2026-04-19T15:04:34.912Z</time></trkpt><trkpt lat="44.5731583" lon="10.528825"><ele>220.0</ele><time>2026-04-19T15:04:35.916Z</time></trkpt><trkpt lat="44.5732833" lon="10.528975"><ele>220.0</ele><time>2026-04-19T15:04:36.914Z</time></trkpt><trkpt lat="44.573415" lon="10.5290933"><ele>220.0</ele><time>2026-04-19T15:04:37.915Z</time></trkpt><trkpt lat="44.57356" lon="10.5291817"><ele>220.0</ele><time>2026-04-19T15:04:38.915Z</time></trkpt><trkpt lat="44.573725" lon="10.5292417"><ele>220.0</ele><time>2026-04-19T15:04:39.912Z</time></trkpt><trkpt lat="44.5739117" lon="10.5292783"><ele>220.0</ele><time>2026-04-19T15:04:40.93Z</time></trkpt><trkpt lat="44.5741033" lon="10.5293"><ele>220.0</ele><time>2026-04-19T15:04:41.912Z</time></trkpt><trkpt lat="44.5743" lon="10.52932"><ele>220.0</ele><time>2026-04-19T15:04:42.952Z</time></trkpt><trkpt lat="44.5744917" lon="10.5293383"><ele>219.33333333333331</ele><time>2026-04-19T15:04:43.936Z</time></trkpt><trkpt lat="44.574665" lon="10.529355"><ele>218.66666666666669</ele><time>2026-04-19T15:04:44.918Z</time></trkpt><trkpt lat="44.5748233" lon="10.52937"><ele>218.0</ele><time>2026-04-19T15:04:45.912Z</time></trkpt><trkpt lat="44.5749717" lon="10.529385"><ele>218.0</ele><time>2026-04-19T15:04:46.917Z</time></trkpt><trkpt lat="44.5751167" lon="10.5293917"><ele>218.0</ele><time>2026-04-19T15:04:47.921Z</time></trkpt><trkpt lat="44.575255" lon="10.5293733"><ele>218.0</ele><time>2026-04-19T15:04:48.908Z</time></trkpt><trkpt lat="44.5753917" lon="10.5293167"><ele>218.0</ele><time>2026-04-19T15:04:49.91Z</time></trkpt><trkpt lat="44.5755267" lon="10.52921"><ele>218.0</ele><time>2026-04-19T15:04:50.915Z</time></trkpt><trkpt lat="44.5756717" lon="10.529065"><ele>218.0</ele><time>2026-04-19T15:04:51.941Z</time></trkpt><trkpt lat="44.5758233" lon="10.5288983"><ele>218.0</ele><time>2026-04-19T15:04:52.93Z</time></trkpt><trkpt lat="44.5759767" lon="10.5287217"><ele>218.0</ele><time>2026-04-19T15:04:53.915Z</time></trkpt><trkpt lat="44.5761283" lon="10.5285467"><ele>218.0</ele><time>2026-04-19T15:04:54.914Z</time></trkpt><trkpt lat="44.576275" lon="10.5283783"><ele>218.0</ele><time>2026-04-19T15:04:55.913Z</time></trkpt><trkpt lat="44.5764183" lon="10.528225"><ele>217.0</ele><time>2026-04-19T15:04:56.917Z</time></trkpt><trkpt lat="44.5765667" lon="10.5280983"><ele>216.0</ele><time>2026-04-19T15:04:57.913Z</time></trkpt><trkpt lat="44.5767167" lon="10.527995"><ele>215.0</ele><time>2026-04-19T15:04:58.914Z</time></trkpt><trkpt lat="44.576875" lon="10.5279133"><ele>217.66666666666669</ele><time>2026-04-19T15:04:59.924Z</time></trkpt><trkpt lat="44.5770417" lon="10.5278667"><ele>220.33333333333331</ele><time>2026-04-19T15:05:00.952Z</time></trkpt><trkpt lat="44.5772033" lon="10.5278533"><ele>223.0</ele><time>2026-04-19T15:05:01.924Z</time></trkpt><trkpt lat="44.5773633" lon="10.5278783"><ele>220.66666666666666</ele><time>2026-04-19T15:05:02.909Z</time></trkpt><trkpt lat="44.577515" lon="10.52793"><ele>218.33333333333331</ele><time>2026-04-19T15:05:03.909Z</time></trkpt><trkpt lat="44.57766" lon="10.5279917"><ele>216.0</ele><time>2026-04-19T15:05:04.915Z</time></trkpt><trkpt lat="44.5777983" lon="10.528055"><ele>217.0</ele><time>2026-04-19T15:05:05.912Z</time></trkpt><trkpt lat="44.577935" lon="10.5281217"><ele>218.0</ele><time>2026-04-19T15:05:06.908Z</time></trkpt><trkpt lat="44.5780717" lon="10.52819"><ele>219.0</ele><time>2026-04-19T15:05:07.925Z</time></trkpt><trkpt lat="44.5782083" lon="10.5282633"><ele>220.0</ele><time>2026-04-19T15:05:08.908Z</time></trkpt><trkpt lat="44.5783433" lon="10.5283433"><ele>220.0</ele><time>2026-04-19T15:05:09.923Z</time></trkpt><trkpt lat="44.5784733" lon="10.5284233"><ele>220.0</ele><time>2026-04-19T15:05:10.918Z</time></trkpt><trkpt lat="44.5785967" lon="10.5285117"><ele>220.0</ele><time>2026-04-19T15:05:11.926Z</time></trkpt><trkpt lat="44.57871" lon="10.52862"><ele>220.0</ele><time>2026-04-19T15:05:12.933Z</time></trkpt><trkpt lat="44.578815" lon="10.5287583"><ele>220.66666666666666</ele><time>2026-04-19T15:05:13.905Z</time></trkpt><trkpt lat="44.5789067" lon="10.528925"><ele>221.33333333333331</ele><time>2026-04-19T15:05:14.924Z</time></trkpt><trkpt lat="44.5789817" lon="10.5291133"><ele>222.0</ele><time>2026-04-19T15:05:15.911Z</time></trkpt><trkpt lat="44.5790483" lon="10.52931"><ele>222.0</ele><time>2026-04-19T15:05:16.913Z</time></trkpt><trkpt lat="44.579115" lon="10.5294983"><ele>222.0</ele><time>2026-04-19T15:05:17.94Z</time></trkpt><trkpt lat="44.5791917" lon="10.529665"><ele>222.0</ele><time>2026-04-19T15:05:18.911Z</time></trkpt><trkpt lat="44.5792817" lon="10.5298067"><ele>222.0</ele><time>2026-04-19T15:05:19.93Z</time></trkpt><trkpt lat="44.579375" lon="10.5299383"><ele>221.25</ele><time>2026-04-19T15:05:20.915Z</time></trkpt><trkpt lat="44.579465" lon="10.5300717"><ele>220.5</ele><time>2026-04-19T15:05:21.947Z</time></trkpt><trkpt lat="44.5795433" lon="10.5302133"><ele>219.75</ele><time>2026-04-19T15:05:22.954Z</time></trkpt><trkpt lat="44.579615" lon="10.530375"><ele>219.0</ele><time>2026-04-19T15:05:23.934Z</time></trkpt><trkpt lat="44.5796817" lon="10.53054"><ele>219.0</ele><time>2026-04-19T15:05:24.952Z</time></trkpt><trkpt lat="44.5797467" lon="10.5306983"><ele>219.0</ele><time>2026-04-19T15:05:25.955Z</time></trkpt><trkpt lat="44.57981" lon="10.5308483"><ele>219.0</ele><time>2026-04-19T15:05:26.916Z</time></trkpt><trkpt lat="44.579895" lon="10.530985"><ele>219.0</ele><time>2026-04-19T15:05:27.912Z</time></trkpt><trkpt lat="44.580005" lon="10.53109"><ele>219.0</ele><time>2026-04-19T15:05:28.914Z</time></trkpt><trkpt lat="44.5801317" lon="10.531155"><ele>219.0</ele><time>2026-04-19T15:05:29.935Z</time></trkpt><trkpt lat="44.5802633" lon="10.5311833"><ele>219.0</ele><time>2026-04-19T15:05:30.913Z</time></trkpt><trkpt lat="44.580395" lon="10.53119"><ele>219.0</ele><time>2026-04-19T15:05:31.931Z</time></trkpt><trkpt lat="44.580525" lon="10.531195"><ele>218.5</ele><time>2026-04-19T15:05:32.914Z</time></trkpt><trkpt lat="44.5806517" lon="10.531225"><ele>218.0</ele><time>2026-04-19T15:05:33.915Z</time></trkpt><trkpt lat="44.5807717" lon="10.5312933"><ele>217.5</ele><time>2026-04-19T15:05:34.913Z</time></trkpt><trkpt lat="44.5808917" lon="10.5314033"><ele>217.0</ele><time>2026-04-19T15:05:35.911Z</time></trkpt><trkpt lat="44.581005" lon="10.53154"><ele>217.0</ele><time>2026-04-19T15:05:36.913Z</time></trkpt><trkpt lat="44.5811167" lon="10.53169"><ele>217.0</ele><time>2026-04-19T15:05:37.919Z</time></trkpt><trkpt lat="44.5812233" lon="10.531835"><ele>217.0</ele><time>2026-04-19T15:05:38.911Z</time></trkpt><trkpt lat="44.5813233" lon="10.5319767"><ele>217.0</ele><time>2026-04-19T15:05:39.929Z</time></trkpt><trkpt lat="44.5814067" lon="10.5321167"><ele>218.5</ele><time>2026-04-19T15:05:40.912Z</time></trkpt><trkpt lat="44.5814717" lon="10.5322767"><ele>220.0</ele><time>2026-04-19T15:05:41.912Z</time></trkpt><trkpt lat="44.5815067" lon="10.5324633"><ele>221.5</ele><time>2026-04-19T15:05:42.92Z</time></trkpt><trkpt lat="44.5815267" lon="10.532655"><ele>223.0</ele><time>2026-04-19T15:05:43.914Z</time></trkpt><trkpt lat="44.5815283" lon="10.532845"><ele>221.5</ele><time>2026-04-19T15:05:44.927Z</time></trkpt><trkpt lat="44.581525" lon="10.5330283"><ele>220.0</ele><time>2026-04-19T15:05:45.914Z</time></trkpt><trkpt lat="44.5815217" lon="10.5332033"><ele>218.5</ele><time>2026-04-19T15:05:46.914Z</time></trkpt><trkpt lat="44.5815233" lon="10.5333667"><ele>217.0</ele><time>2026-04-19T15:05:47.915Z</time></trkpt><trkpt lat="44.5815283" lon="10.5335167"><ele>217.0</ele><time>2026-04-19T15:05:48.942Z</time></trkpt><trkpt lat="44.581555" lon="10.5336533"><ele>217.0</ele><time>2026-04-19T15:05:49.936Z</time></trkpt><trkpt lat="44.5816083" lon="10.5337733"><ele>217.0</ele><time>2026-04-19T15:05:50.952Z</time></trkpt><trkpt lat="44.5816883" lon="10.5338683"><ele>217.0</ele><time>2026-04-19T15:05:51.914Z</time></trkpt><trkpt lat="44.5817817" lon="10.5339267"><ele>217.0</ele><time>2026-04-19T15:05:52.94Z</time></trkpt><trkpt lat="44.5818833" lon="10.5339433"><ele>216.2</ele><time>2026-04-19T15:05:53.927Z</time></trkpt><trkpt lat="44.5819917" lon="10.533915"><ele>215.39999999999998</ele><time>2026-04-19T15:05:54.922Z</time></trkpt><trkpt lat="44.5820933" lon="10.5338617"><ele>214.60000000000002</ele><time>2026-04-19T15:05:55.934Z</time></trkpt><trkpt lat="44.5821867" lon="10.5337983"><ele>213.8</ele><time>2026-04-19T15:05:56.967Z</time></trkpt><trkpt lat="44.5822867" lon="10.5337517"><ele>213.0</ele><time>2026-04-19T15:05:57.943Z</time></trkpt><trkpt lat="44.582395" lon="10.5337367"><ele>212.75</ele><time>2026-04-19T15:05:58.929Z</time></trkpt><trkpt lat="44.5825067" lon="10.5337867"><ele>212.5</ele><time>2026-04-19T15:05:59.91Z</time></trkpt><trkpt lat="44.5826067" lon="10.5338683"><ele>212.25</ele><time>2026-04-19T15:06:00.913Z</time></trkpt><trkpt lat="44.58269" lon="10.5339733"><ele>212.0</ele><time>2026-04-19T15:06:01.916Z</time></trkpt><trkpt lat="44.5827633" lon="10.5340817"><ele>212.0</ele><time>2026-04-19T15:06:02.933Z</time></trkpt><trkpt lat="44.5828267" lon="10.5342217"><ele>212.0</ele><time>2026-04-19T15:06:03.908Z</time></trkpt><trkpt lat="44.5828883" lon="10.5343717"><ele>212.0</ele><time>2026-04-19T15:06:04.913Z</time></trkpt><trkpt lat="44.5829433" lon="10.5345283"><ele>212.0</ele><time>2026-04-19T15:06:05.919Z</time></trkpt><trkpt lat="44.5829967" lon="10.5346883"><ele>212.25</ele><time>2026-04-19T15:06:06.923Z</time></trkpt><trkpt lat="44.5830533" lon="10.5348483"><ele>212.5</ele><time>2026-04-19T15:06:07.96Z</time></trkpt><trkpt lat="44.5831117" lon="10.5350033"><ele>212.75</ele><time>2026-04-19T15:06:08.932Z</time></trkpt><trkpt lat="44.58317" lon="10.5351367"><ele>213.0</ele><time>2026-04-19T15:06:09.911Z</time></trkpt><trkpt lat="44.5832583" lon="10.5352517"><ele>213.0</ele><time>2026-04-19T15:06:10.931Z</time></trkpt><trkpt lat="44.5833717" lon="10.5353183"><ele>213.0</ele><time>2026-04-19T15:06:11.907Z</time></trkpt><trkpt lat="44.5835033" lon="10.5353317"><ele>213.0</ele><time>2026-04-19T15:06:12.931Z</time></trkpt><trkpt lat="44.5836433" lon="10.5353083"><ele>213.0</ele><time>2026-04-19T15:06:13.947Z</time></trkpt><trkpt lat="44.5837783" lon="10.5352717"><ele>212.25</ele><time>2026-04-19T15:06:14.936Z</time></trkpt><trkpt lat="44.5839083" lon="10.535225"><ele>211.5</ele><time>2026-04-19T15:06:15.92Z</time></trkpt><trkpt lat="44.5840417" lon="10.535165"><ele>210.75</ele><time>2026-04-19T15:06:16.915Z</time></trkpt><trkpt lat="44.5841783" lon="10.5351"><ele>210.0</ele><time>2026-04-19T15:06:17.915Z</time></trkpt><trkpt lat="44.584315" lon="10.5350333"><ele>210.0</ele><time>2026-04-19T15:06:18.913Z</time></trkpt><trkpt lat="44.5844533" lon="10.5349667"><ele>210.0</ele><time>2026-04-19T15:06:19.909Z</time></trkpt><trkpt lat="44.58459" lon="10.534905"><ele>210.0</ele><time>2026-04-19T15:06:20.914Z</time></trkpt><trkpt lat="44.584725" lon="10.5348467"><ele>210.0</ele><time>2026-04-19T15:06:21.949Z</time></trkpt><trkpt lat="44.5848583" lon="10.5347833"><ele>209.75</ele><time>2026-04-19T15:06:22.951Z</time></trkpt><trkpt lat="44.5849883" lon="10.534715"><ele>209.5</ele><time>2026-04-19T15:06:23.931Z</time></trkpt><trkpt lat="44.58511" lon="10.5346317"><ele>209.25</ele><time>2026-04-19T15:06:24.911Z</time></trkpt><trkpt lat="44.58522" lon="10.5345267"><ele>209.0</ele><time>2026-04-19T15:06:25.918Z</time></trkpt><trkpt lat="44.58533" lon="10.5344217"><ele>207.0</ele><time>2026-04-19T15:06:26.915Z</time></trkpt><trkpt lat="44.585445" lon="10.534335"><ele>205.0</ele><time>2026-04-19T15:06:27.914Z</time></trkpt><trkpt lat="44.5855683" lon="10.53427"><ele>203.0</ele><time>2026-04-19T15:06:28.913Z</time></trkpt><trkpt lat="44.5857" lon="10.5342383"><ele>201.0</ele><time>2026-04-19T15:06:29.926Z</time></trkpt><trkpt lat="44.5858283" lon="10.5342417"><ele>201.0</ele><time>2026-04-19T15:06:30.932Z</time></trkpt><trkpt lat="44.585945" lon="10.53429"><ele>201.0</ele><time>2026-04-19T15:06:31.914Z</time></trkpt><trkpt lat="44.586045" lon="10.5343817"><ele>201.0</ele><time>2026-04-19T15:06:32.967Z</time></trkpt><trkpt lat="44.5861283" lon="10.53451"><ele>201.0</ele><time>2026-04-19T15:06:33.912Z</time></trkpt><trkpt lat="44.5862" lon="10.5346567"><ele>200.25</ele><time>2026-04-19T15:06:34.915Z</time></trkpt><trkpt lat="44.586275" lon="10.5348033"><ele>199.5</ele><time>2026-04-19T15:06:35.922Z</time></trkpt><trkpt lat="44.586365" lon="10.53492"><ele>198.75</ele><time>2026-04-19T15:06:36.975Z</time></trkpt><trkpt lat="44.586475" lon="10.5350033"><ele>198.0</ele><time>2026-04-19T15:06:37.975Z</time></trkpt><trkpt lat="44.5865967" lon="10.5350667"><ele>198.0</ele><time>2026-04-19T15:06:38.915Z</time></trkpt><trkpt lat="44.5867233" lon="10.53513"><ele>198.0</ele><time>2026-04-19T15:06:39.912Z</time></trkpt><trkpt lat="44.5868467" lon="10.5352067"><ele>198.0</ele><time>2026-04-19T15:06:40.914Z</time></trkpt><trkpt lat="44.5869683" lon="10.5352967"><ele>198.0</ele><time>2026-04-19T15:06:41.929Z</time></trkpt><trkpt lat="44.5870983" lon="10.5353817"><ele>196.75</ele><time>2026-04-19T15:06:42.928Z</time></trkpt><trkpt lat="44.587225" lon="10.53544"><ele>195.5</ele><time>2026-04-19T15:06:43.926Z</time></trkpt><trkpt lat="44.5873667" lon="10.5354683"><ele>194.25</ele><time>2026-04-19T15:06:44.919Z</time></trkpt><trkpt lat="44.5875133" lon="10.53547"><ele>193.0</ele><time>2026-04-19T15:06:45.912Z</time></trkpt><trkpt lat="44.5876567" lon="10.5354567"><ele>193.0</ele><time>2026-04-19T15:06:46.96Z</time></trkpt><trkpt lat="44.5877933" lon="10.53544"><ele>193.0</ele><time>2026-04-19T15:06:47.913Z</time></trkpt><trkpt lat="44.5879283" lon="10.535435"><ele>193.0</ele><time>2026-04-19T15:06:48.915Z</time></trkpt><trkpt lat="44.588065" lon="10.53545"><ele>193.0</ele><time>2026-04-19T15:06:49.994Z</time></trkpt><trkpt lat="44.58821" lon="10.5354917"><ele>192.33333333333331</ele><time>2026-04-19T15:06:50.973Z</time></trkpt><trkpt lat="44.5883733" lon="10.5355517"><ele>191.66666666666666</ele><time>2026-04-19T15:06:51.951Z</time></trkpt><trkpt lat="44.5885467" lon="10.5356217"><ele>191.0</ele><time>2026-04-19T15:06:52.92Z</time></trkpt><trkpt lat="44.5887183" lon="10.535695"><ele>190.33333333333331</ele><time>2026-04-19T15:06:53.99Z</time></trkpt><trkpt lat="44.588885" lon="10.5357817"><ele>189.66666666666666</ele><time>2026-04-19T15:06:54.912Z</time></trkpt><trkpt lat="44.5890433" lon="10.5358617"><ele>189.0</ele><time>2026-04-19T15:06:55.907Z</time></trkpt><trkpt lat="44.589205" lon="10.5359433"><ele>189.0</ele><time>2026-04-19T15:06:56.923Z</time></trkpt><trkpt lat="44.5893717" lon="10.5360267"><ele>189.0</ele><time>2026-04-19T15:06:57.924Z</time></trkpt><trkpt lat="44.5895467" lon="10.536105"><ele>189.0</ele><time>2026-04-19T15:06:58.913Z</time></trkpt><trkpt lat="44.589725" lon="10.536165"><ele>189.0</ele><time>2026-04-19T15:06:59.916Z</time></trkpt><trkpt lat="44.589895" lon="10.5362217"><ele>189.0</ele><time>2026-04-19T15:07:00.928Z</time></trkpt><trkpt lat="44.5900567" lon="10.5362767"><ele>189.0</ele><time>2026-04-19T15:07:01.926Z</time></trkpt><trkpt lat="44.5902117" lon="10.5363383"><ele>189.66666666666666</ele><time>2026-04-19T15:07:02.916Z</time></trkpt><trkpt lat="44.5903617" lon="10.536405"><ele>190.33333333333331</ele><time>2026-04-19T15:07:03.927Z</time></trkpt><trkpt lat="44.5905067" lon="10.5364817"><ele>191.0</ele><time>2026-04-19T15:07:04.936Z</time></trkpt><trkpt lat="44.5906533" lon="10.5365817"><ele>191.0</ele><time>2026-04-19T15:07:05.92Z</time></trkpt><trkpt lat="44.5907967" lon="10.5366967"><ele>191.0</ele><time>2026-04-19T15:07:06.911Z</time></trkpt><trkpt lat="44.590945" lon="10.5368217"><ele>191.0</ele><time>2026-04-19T15:07:07.931Z</time></trkpt><trkpt lat="44.5911067" lon="10.53696"><ele>189.66666666666666</ele><time>2026-04-19T15:07:08.927Z</time></trkpt><trkpt lat="44.59128" lon="10.53711"><ele>188.33333333333334</ele><time>2026-04-19T15:07:09.914Z</time></trkpt><trkpt lat="44.5914517" lon="10.5372633"><ele>187.0</ele><time>2026-04-19T15:07:10.952Z</time></trkpt><trkpt lat="44.59161" lon="10.5374133"><ele>187.0</ele><time>2026-04-19T15:07:11.934Z</time></trkpt><trkpt lat="44.5917583" lon="10.5375567"><ele>187.0</ele><time>2026-04-19T15:07:12.929Z</time></trkpt><trkpt lat="44.5919" lon="10.5376933"><ele>187.0</ele><time>2026-04-19T15:07:13.94Z</time></trkpt><trkpt lat="44.5920267" lon="10.5378183"><ele>186.25</ele><time>2026-04-19T15:07:14.914Z</time></trkpt><trkpt lat="44.5921383" lon="10.53792"><ele>185.5</ele><time>2026-04-19T15:07:15.912Z</time></trkpt><trkpt lat="44.5922383" lon="10.5380133"><ele>184.75</ele><time>2026-04-19T15:07:16.922Z</time></trkpt><trkpt lat="44.5923317" lon="10.5381"><ele>184.0</ele><time>2026-04-19T15:07:17.937Z</time></trkpt><trkpt lat="44.59242" lon="10.5381833"><ele>184.0</ele><time>2026-04-19T15:07:18.911Z</time></trkpt><trkpt lat="44.5924983" lon="10.53826"><ele>184.0</ele><time>2026-04-19T15:07:19.983Z</time></trkpt><trkpt lat="44.5925783" lon="10.5383383"><ele>184.0</ele><time>2026-04-19T15:07:20.974Z</time></trkpt><trkpt lat="44.5926633" lon="10.53842"><ele>184.0</ele><time>2026-04-19T15:07:22.099Z</time></trkpt><trkpt lat="44.5928533" lon="10.5385983"><ele>183.5</ele><time>2026-04-19T15:07:23.919Z</time></trkpt><trkpt lat="44.59296" lon="10.5387033"><ele>183.0</ele><time>2026-04-19T15:07:24.92Z</time></trkpt><trkpt lat="44.593075" lon="10.538815"><ele>182.5</ele><time>2026-04-19T15:07:25.914Z</time></trkpt><trkpt lat="44.5932" lon="10.53893"><ele>182.0</ele><time>2026-04-19T15:07:26.912Z</time></trkpt><trkpt lat="44.5933317" lon="10.5390483"><ele>182.0</ele><time>2026-04-19T15:07:27.931Z</time></trkpt><trkpt lat="44.5934667" lon="10.53917"><ele>182.0</ele><time>2026-04-19T15:07:28.955Z</time></trkpt><trkpt lat="44.593605" lon="10.5393033"><ele>182.0</ele><time>2026-04-19T15:07:29.965Z</time></trkpt><trkpt lat="44.593745" lon="10.5394383"><ele>182.0</ele><time>2026-04-19T15:07:30.913Z</time></trkpt><trkpt lat="44.5938767" lon="10.539565"><ele>182.0</ele><time>2026-04-19T15:07:31.928Z</time></trkpt><trkpt lat="44.593995" lon="10.539685"><ele>182.0</ele><time>2026-04-19T15:07:32.915Z</time></trkpt><trkpt lat="44.5941" lon="10.5397933"><ele>182.0</ele><time>2026-04-19T15:07:33.938Z</time></trkpt><trkpt lat="44.5941967" lon="10.53989"><ele>182.0</ele><time>2026-04-19T15:07:34.913Z</time></trkpt><trkpt lat="44.59429" lon="10.53998"><ele>182.0</ele><time>2026-04-19T15:07:35.97Z</time></trkpt><trkpt lat="44.5943833" lon="10.5400633"><ele>182.0</ele><time>2026-04-19T15:07:36.956Z</time></trkpt><trkpt lat="44.5944833" lon="10.54014"><ele>182.0</ele><time>2026-04-19T15:07:37.916Z</time></trkpt><trkpt lat="44.5945833" lon="10.5402183"><ele>181.39999999999998</ele><time>2026-04-19T15:07:38.946Z</time></trkpt><trkpt lat="44.5946783" lon="10.5402917"><ele>180.79999999999998</ele><time>2026-04-19T15:07:39.925Z</time></trkpt><trkpt lat="44.59477" lon="10.5403617"><ele>180.2</ele><time>2026-04-19T15:07:40.913Z</time></trkpt><trkpt lat="44.5948617" lon="10.540425"><ele>179.6</ele><time>2026-04-19T15:07:41.918Z</time></trkpt><trkpt lat="44.594945" lon="10.5404817"><ele>179.0</ele><time>2026-04-19T15:07:42.977Z</time></trkpt><trkpt lat="44.5950217" lon="10.5405317"><ele>179.0</ele><time>2026-04-19T15:07:43.935Z</time></trkpt><trkpt lat="44.5951067" lon="10.5405883"><ele>179.0</ele><time>2026-04-19T15:07:44.914Z</time></trkpt><trkpt lat="44.5951883" lon="10.540645"><ele>179.0</ele><time>2026-04-19T15:07:45.931Z</time></trkpt><trkpt lat="44.5952683" lon="10.5407"><ele>179.0</ele><time>2026-04-19T15:07:46.912Z</time></trkpt><trkpt lat="44.5953517" lon="10.540755"><ele>179.0</ele><time>2026-04-19T15:07:47.915Z</time></trkpt><trkpt lat="44.5954417" lon="10.5408117"><ele>179.25</ele><time>2026-04-19T15:07:48.964Z</time></trkpt><trkpt lat="44.59554" lon="10.5408733"><ele>179.5</ele><time>2026-04-19T15:07:49.947Z</time></trkpt><trkpt lat="44.595645" lon="10.5409467"><ele>179.75</ele><time>2026-04-19T15:07:50.914Z</time></trkpt><trkpt lat="44.5957517" lon="10.5410217"><ele>180.0</ele><time>2026-04-19T15:07:51.907Z</time></trkpt><trkpt lat="44.5958533" lon="10.5410933"><ele>180.0</ele><time>2026-04-19T15:07:52.971Z</time></trkpt><trkpt lat="44.5959517" lon="10.541165"><ele>180.0</ele><time>2026-04-19T15:07:53.967Z</time></trkpt><trkpt lat="44.596055" lon="10.5412417"><ele>180.0</ele><time>2026-04-19T15:07:54.967Z</time></trkpt><trkpt lat="44.5961683" lon="10.54132"><ele>180.0</ele><time>2026-04-19T15:07:55.912Z</time></trkpt><trkpt lat="44.5962917" lon="10.54141"><ele>179.0</ele><time>2026-04-19T15:07:56.982Z</time></trkpt><trkpt lat="44.5964217" lon="10.54151"><ele>178.0</ele><time>2026-04-19T15:07:57.966Z</time></trkpt><trkpt lat="44.59656" lon="10.5416217"><ele>177.0</ele><time>2026-04-19T15:07:58.931Z</time></trkpt><trkpt lat="44.5967083" lon="10.5417433"><ele>177.0</ele><time>2026-04-19T15:07:59.914Z</time></trkpt><trkpt lat="44.5968583" lon="10.541865"><ele>177.0</ele><time>2026-04-19T15:08:00.936Z</time></trkpt><trkpt lat="44.5970017" lon="10.5419867"><ele>177.0</ele><time>2026-04-19T15:08:01.913Z</time></trkpt><trkpt lat="44.597135" lon="10.5421083"><ele>178.0</ele><time>2026-04-19T15:08:02.97Z</time></trkpt><trkpt lat="44.597255" lon="10.5422233"><ele>179.0</ele><time>2026-04-19T15:08:03.914Z</time></trkpt><trkpt lat="44.597365" lon="10.5423217"><ele>180.0</ele><time>2026-04-19T15:08:04.93Z</time></trkpt><trkpt lat="44.5974633" lon="10.5424083"><ele>181.0</ele><time>2026-04-19T15:08:05.913Z</time></trkpt><trkpt lat="44.5975583" lon="10.5424933"><ele>181.0</ele><time>2026-04-19T15:08:06.915Z</time></trkpt><trkpt lat="44.5976483" lon="10.5425817"><ele>181.0</ele><time>2026-04-19T15:08:07.989Z</time></trkpt><trkpt lat="44.5977367" lon="10.542675"><ele>181.0</ele><time>2026-04-19T15:08:08.913Z</time></trkpt><trkpt lat="44.597815" lon="10.5427717"><ele>181.0</ele><time>2026-04-19T15:08:09.913Z</time></trkpt><trkpt lat="44.5978883" lon="10.542875"><ele>181.0</ele><time>2026-04-19T15:08:10.916Z</time></trkpt><trkpt lat="44.5979533" lon="10.5429933"><ele>181.20000000000002</ele><time>2026-04-19T15:08:11.915Z</time></trkpt><trkpt lat="44.5980133" lon="10.5431283"><ele>181.4</ele><time>2026-04-19T15:08:12.924Z</time></trkpt><trkpt lat="44.5980667" lon="10.5432683"><ele>181.6</ele><time>2026-04-19T15:08:13.912Z</time></trkpt><trkpt lat="44.5981117" lon="10.5434017"><ele>181.8</ele><time>2026-04-19T15:08:14.928Z</time></trkpt><trkpt lat="44.59816" lon="10.5435333"><ele>182.0</ele><time>2026-04-19T15:08:15.928Z</time></trkpt><trkpt lat="44.5982183" lon="10.5436617"><ele>180.5</ele><time>2026-04-19T15:08:16.987Z</time></trkpt><trkpt lat="44.59829" lon="10.5437883"><ele>179.0</ele><time>2026-04-19T15:08:17.977Z</time></trkpt><trkpt lat="44.5983733" lon="10.5439117"><ele>177.5</ele><time>2026-04-19T15:08:18.909Z</time></trkpt><trkpt lat="44.5984617" lon="10.544035"><ele>176.0</ele><time>2026-04-19T15:08:19.952Z</time></trkpt><trkpt lat="44.598545" lon="10.54415"><ele>176.0</ele><time>2026-04-19T15:08:20.915Z</time></trkpt><trkpt lat="44.598625" lon="10.544255"><ele>176.0</ele><time>2026-04-19T15:08:21.916Z</time></trkpt><trkpt lat="44.598705" lon="10.5443567"><ele>176.0</ele><time>2026-04-19T15:08:22.91Z</time></trkpt><trkpt lat="44.5987833" lon="10.54446"><ele>176.0</ele><time>2026-04-19T15:08:23.915Z</time></trkpt><trkpt lat="44.5988617" lon="10.54456"><ele>176.0</ele><time>2026-04-19T15:08:24.909Z</time></trkpt><trkpt lat="44.5989517" lon="10.544665"><ele>175.8</ele><time>2026-04-19T15:08:25.913Z</time></trkpt><trkpt lat="44.5990467" lon="10.5447767"><ele>175.60000000000002</ele><time>2026-04-19T15:08:26.939Z</time></trkpt><trkpt lat="44.5991417" lon="10.5448833"><ele>175.4</ele><time>2026-04-19T15:08:27.911Z</time></trkpt><trkpt lat="44.5992283" lon="10.5449733"><ele>175.2</ele><time>2026-04-19T15:08:28.92Z</time></trkpt><trkpt lat="44.599305" lon="10.54505"><ele>175.0</ele><time>2026-04-19T15:08:29.995Z</time></trkpt><trkpt lat="44.599375" lon="10.545115"><ele>175.0</ele><time>2026-04-19T15:08:30.973Z</time></trkpt><trkpt lat="44.599435" lon="10.5451683"><ele>175.0</ele><time>2026-04-19T15:08:31.93Z</time></trkpt><trkpt lat="44.5995233" lon="10.545255"><ele>175.0</ele><time>2026-04-19T15:08:33.927Z</time></trkpt><trkpt lat="44.599595" lon="10.5453233"><ele>175.0</ele><time>2026-04-19T15:08:35.91Z</time></trkpt><trkpt lat="44.5996767" lon="10.5454033"><ele>175.0</ele><time>2026-04-19T15:08:37.968Z</time></trkpt><trkpt lat="44.59977" lon="10.5454833"><ele>175.0</ele><time>2026-04-19T15:08:40.09Z</time></trkpt><trkpt lat="44.599885" lon="10.5455817"><ele>175.0</ele><time>2026-04-19T15:08:41.912Z</time></trkpt><trkpt lat="44.5999617" lon="10.545635"><ele>175.0</ele><time>2026-04-19T15:08:42.907Z</time></trkpt><trkpt lat="44.600045" lon="10.545685"><ele>175.0</ele><time>2026-04-19T15:08:43.985Z</time></trkpt><trkpt lat="44.60013" lon="10.5457383"><ele>175.0</ele><time>2026-04-19T15:08:44.948Z</time></trkpt><trkpt lat="44.6002217" lon="10.5457867"><ele>175.0</ele><time>2026-04-19T15:08:45.922Z</time></trkpt><trkpt lat="44.6003117" lon="10.5458317"><ele>175.0</ele><time>2026-04-19T15:08:46.952Z</time></trkpt><trkpt lat="44.6004083" lon="10.5458783"><ele>175.0</ele><time>2026-04-19T15:08:47.914Z</time></trkpt><trkpt lat="44.6005133" lon="10.5459333"><ele>175.0</ele><time>2026-04-19T15:08:48.913Z</time></trkpt><trkpt lat="44.600625" lon="10.5459883"><ele>175.0</ele><time>2026-04-19T15:08:49.914Z</time></trkpt><trkpt lat="44.6007333" lon="10.5460483"><ele>175.25</ele><time>2026-04-19T15:08:50.942Z</time></trkpt><trkpt lat="44.60084" lon="10.5461067"><ele>175.5</ele><time>2026-04-19T15:08:51.918Z</time></trkpt><trkpt lat="44.60095" lon="10.546175"><ele>175.75</ele><time>2026-04-19T15:08:52.921Z</time></trkpt><trkpt lat="44.6010733" lon="10.5462467"><ele>176.0</ele><time>2026-04-19T15:08:53.923Z</time></trkpt><trkpt lat="44.6012033" lon="10.5463283"><ele>175.25</ele><time>2026-04-19T15:08:54.909Z</time></trkpt><trkpt lat="44.601335" lon="10.546415"><ele>174.5</ele><time>2026-04-19T15:08:55.933Z</time></trkpt><trkpt lat="44.60146" lon="10.5465083"><ele>173.75</ele><time>2026-04-19T15:08:56.911Z</time></trkpt><trkpt lat="44.6015867" lon="10.5466067"><ele>173.0</ele><time>2026-04-19T15:08:57.92Z</time></trkpt><trkpt lat="44.6017233" lon="10.5467083"><ele>173.0</ele><time>2026-04-19T15:08:58.912Z</time></trkpt><trkpt lat="44.60186" lon="10.5468117"><ele>173.0</ele><time>2026-04-19T15:08:59.932Z</time></trkpt><trkpt lat="44.6019883" lon="10.54691"><ele>173.0</ele><time>2026-04-19T15:09:00.907Z</time></trkpt><trkpt lat="44.602115" lon="10.5470067"><ele>173.0</ele><time>2026-04-19T15:09:01.923Z</time></trkpt><trkpt lat="44.602235" lon="10.547095"><ele>171.5</ele><time>2026-04-19T15:09:02.911Z</time></trkpt><trkpt lat="44.6023467" lon="10.547175"><ele>170.0</ele><time>2026-04-19T15:09:03.927Z</time></trkpt><trkpt lat="44.6024533" lon="10.54725"><ele>168.5</ele><time>2026-04-19T15:09:04.916Z</time></trkpt><trkpt lat="44.6025617" lon="10.5473183"><ele>167.0</ele><time>2026-04-19T15:09:05.913Z</time></trkpt><trkpt lat="44.60268" lon="10.5473767"><ele>167.0</ele><time>2026-04-19T15:09:06.913Z</time></trkpt><trkpt lat="44.6028283" lon="10.5474283"><ele>167.0</ele><time>2026-04-19T15:09:07.914Z</time></trkpt><trkpt lat="44.6029917" lon="10.54747"><ele>167.0</ele><time>2026-04-19T15:09:08.917Z</time></trkpt><trkpt lat="44.603165" lon="10.5475133"><ele>167.0</ele><time>2026-04-19T15:09:09.913Z</time></trkpt><trkpt lat="44.603345" lon="10.5475617"><ele>167.0</ele><time>2026-04-19T15:09:10.933Z</time></trkpt><trkpt lat="44.603525" lon="10.5476117"><ele>167.0</ele><time>2026-04-19T15:09:11.91Z</time></trkpt><trkpt lat="44.6036967" lon="10.5476633"><ele>167.0</ele><time>2026-04-19T15:09:12.984Z</time></trkpt><trkpt lat="44.6038567" lon="10.5477233"><ele>167.0</ele><time>2026-04-19T15:09:13.912Z</time></trkpt><trkpt lat="44.604005" lon="10.5477983"><ele>167.0</ele><time>2026-04-19T15:09:14.913Z</time></trkpt><trkpt lat="44.6041417" lon="10.5478867"><ele>166.25</ele><time>2026-04-19T15:09:15.936Z</time></trkpt><trkpt lat="44.6042683" lon="10.547975"><ele>165.5</ele><time>2026-04-19T15:09:16.933Z</time></trkpt><trkpt lat="44.6043933" lon="10.5480617"><ele>164.75</ele><time>2026-04-19T15:09:17.92Z</time></trkpt><trkpt lat="44.60453" lon="10.5481567"><ele>164.0</ele><time>2026-04-19T15:09:18.909Z</time></trkpt><trkpt lat="44.6046817" lon="10.5482567"><ele>164.0</ele><time>2026-04-19T15:09:19.96Z</time></trkpt><trkpt lat="44.60485" lon="10.54837"><ele>164.0</ele><time>2026-04-19T15:09:20.944Z</time></trkpt><trkpt lat="44.6050217" lon="10.5485"><ele>164.0</ele><time>2026-04-19T15:09:21.922Z</time></trkpt><trkpt lat="44.6051917" lon="10.5486317"><ele>162.33333333333331</ele><time>2026-04-19T15:09:22.932Z</time></trkpt><trkpt lat="44.60537" lon="10.5487633"><ele>160.66666666666666</ele><time>2026-04-19T15:09:23.912Z</time></trkpt><trkpt lat="44.6055583" lon="10.5488833"><ele>159.0</ele><time>2026-04-19T15:09:24.907Z</time></trkpt><trkpt lat="44.605765" lon="10.548905"><ele>159.0</ele><time>2026-04-19T15:09:26.386Z</time></trkpt><trkpt lat="44.6059883" lon="10.54899"><ele>159.0</ele><time>2026-04-19T15:09:27.396Z</time></trkpt><trkpt lat="44.6062833" lon="10.5491717"><ele>158.66666666666666</ele><time>2026-04-19T15:09:28.898Z</time></trkpt><trkpt lat="44.6064667" lon="10.5493167"><ele>158.33333333333331</ele><time>2026-04-19T15:09:29.897Z</time></trkpt><trkpt lat="44.60664" lon="10.549365"><ele>158.0</ele><time>2026-04-19T15:09:30.897Z</time></trkpt><trkpt lat="44.6067317" lon="10.5491767"><ele>158.0</ele><time>2026-04-19T15:09:31.896Z</time></trkpt><trkpt lat="44.6069167" lon="10.5492683"><ele>158.0</ele><time>2026-04-19T15:09:32.896Z</time></trkpt><trkpt lat="44.6070533" lon="10.5493783"><ele>158.0</ele><time>2026-04-19T15:09:33.897Z</time></trkpt><trkpt lat="44.6071767" lon="10.5494367"><ele>157.83333333333331</ele><time>2026-04-19T15:09:34.898Z</time></trkpt><trkpt lat="44.60727" lon="10.5494817"><ele>157.66666666666666</ele><time>2026-04-19T15:09:35.896Z</time></trkpt><trkpt lat="44.60735" lon="10.5495117"><ele>157.5</ele><time>2026-04-19T15:09:36.897Z</time></trkpt><trkpt lat="44.6074417" lon="10.549445"><ele>157.33333333333334</ele><time>2026-04-19T15:09:37.898Z</time></trkpt><trkpt lat="44.6075117" lon="10.5494617"><ele>157.16666666666669</ele><time>2026-04-19T15:09:38.895Z</time></trkpt><trkpt lat="44.607575" lon="10.5494667"><ele>157.0</ele><time>2026-04-19T15:09:39.897Z</time></trkpt><trkpt lat="44.6076433" lon="10.5495017"><ele>156.83333333333334</ele><time>2026-04-19T15:09:40.897Z</time></trkpt><trkpt lat="44.607705" lon="10.549545"><ele>156.66666666666669</ele><time>2026-04-19T15:09:41.897Z</time></trkpt><trkpt lat="44.6077767" lon="10.549565"><ele>156.5</ele><time>2026-04-19T15:09:42.897Z</time></trkpt><trkpt lat="44.6078583" lon="10.549565"><ele>156.33333333333334</ele><time>2026-04-19T15:09:43.898Z</time></trkpt><trkpt lat="44.6079533" lon="10.5495367"><ele>156.16666666666666</ele><time>2026-04-19T15:09:44.897Z</time></trkpt><trkpt lat="44.6080617" lon="10.5495217"><ele>156.0</ele><time>2026-04-19T15:09:45.91Z</time></trkpt><trkpt lat="44.6081767" lon="10.54954"><ele>156.5</ele><time>2026-04-19T15:09:46.911Z</time></trkpt><trkpt lat="44.6083017" lon="10.5495933"><ele>157.0</ele><time>2026-04-19T15:09:47.911Z</time></trkpt><trkpt lat="44.608425" lon="10.5496833"><ele>157.5</ele><time>2026-04-19T15:09:48.913Z</time></trkpt><trkpt lat="44.6085467" lon="10.5498067"><ele>158.0</ele><time>2026-04-19T15:09:49.92Z</time></trkpt><trkpt lat="44.6086683" lon="10.549945"><ele>158.0</ele><time>2026-04-19T15:09:50.923Z</time></trkpt><trkpt lat="44.6087867" lon="10.5501033"><ele>158.0</ele><time>2026-04-19T15:09:51.912Z</time></trkpt><trkpt lat="44.6089017" lon="10.55026"><ele>158.0</ele><time>2026-04-19T15:09:52.955Z</time></trkpt><trkpt lat="44.6090117" lon="10.550415"><ele>157.33333333333331</ele><time>2026-04-19T15:09:53.92Z</time></trkpt><trkpt lat="44.60912" lon="10.5505683"><ele>156.66666666666666</ele><time>2026-04-19T15:09:54.91Z</time></trkpt><trkpt lat="44.60923" lon="10.5507217"><ele>156.0</ele><time>2026-04-19T15:09:55.914Z</time></trkpt><trkpt lat="44.60934" lon="10.5508767"><ele>156.0</ele><time>2026-04-19T15:09:56.973Z</time></trkpt><trkpt lat="44.6094483" lon="10.5510267"><ele>156.0</ele><time>2026-04-19T15:09:57.912Z</time></trkpt><trkpt lat="44.609555" lon="10.5511733"><ele>156.0</ele><time>2026-04-19T15:09:58.923Z</time></trkpt><trkpt lat="44.60966" lon="10.55132"><ele>156.0</ele><time>2026-04-19T15:09:59.934Z</time></trkpt><trkpt lat="44.6097633" lon="10.5514617"><ele>156.25</ele><time>2026-04-19T15:10:00.912Z</time></trkpt><trkpt lat="44.609865" lon="10.5516033"><ele>156.5</ele><time>2026-04-19T15:10:01.911Z</time></trkpt><trkpt lat="44.6099667" lon="10.5517367"><ele>156.75</ele><time>2026-04-19T15:10:02.979Z</time></trkpt><trkpt lat="44.6100717" lon="10.55186"><ele>157.0</ele><time>2026-04-19T15:10:03.924Z</time></trkpt><trkpt lat="44.610185" lon="10.5519683"><ele>156.75</ele><time>2026-04-19T15:10:04.916Z</time></trkpt><trkpt lat="44.6103033" lon="10.5520667"><ele>156.5</ele><time>2026-04-19T15:10:05.913Z</time></trkpt><trkpt lat="44.6104233" lon="10.5521617"><ele>156.25</ele><time>2026-04-19T15:10:06.9Z</time></trkpt><trkpt lat="44.610545" lon="10.5522583"><ele>156.0</ele><time>2026-04-19T15:10:07.913Z</time></trkpt><trkpt lat="44.61067" lon="10.5523567"><ele>156.0</ele><time>2026-04-19T15:10:08.916Z</time></trkpt><trkpt lat="44.6107967" lon="10.55246"><ele>156.0</ele><time>2026-04-19T15:10:09.914Z</time></trkpt><trkpt lat="44.6109217" lon="10.5525633"><ele>156.0</ele><time>2026-04-19T15:10:10.913Z</time></trkpt><trkpt lat="44.6110467" lon="10.5526617"><ele>156.0</ele><time>2026-04-19T15:10:11.989Z</time></trkpt><trkpt lat="44.6111733" lon="10.5527567"><ele>155.75</ele><time>2026-04-19T15:10:12.908Z</time></trkpt><trkpt lat="44.6112983" lon="10.5528467"><ele>155.5</ele><time>2026-04-19T15:10:13.914Z</time></trkpt><trkpt lat="44.61142" lon="10.5529267"><ele>155.25</ele><time>2026-04-19T15:10:14.936Z</time></trkpt><trkpt lat="44.6115333" lon="10.5529983"><ele>155.0</ele><time>2026-04-19T15:10:15.914Z</time></trkpt><trkpt lat="44.6116383" lon="10.55306"><ele>155.0</ele><time>2026-04-19T15:10:16.923Z</time></trkpt><trkpt lat="44.6117367" lon="10.55312"><ele>155.0</ele><time>2026-04-19T15:10:17.926Z</time></trkpt><trkpt lat="44.6118333" lon="10.5531783"><ele>155.0</ele><time>2026-04-19T15:10:18.929Z</time></trkpt><trkpt lat="44.6119283" lon="10.5532383"><ele>155.0</ele><time>2026-04-19T15:10:19.914Z</time></trkpt><trkpt lat="44.6120283" lon="10.5533"><ele>155.0</ele><time>2026-04-19T15:10:20.929Z</time></trkpt><trkpt lat="44.6121317" lon="10.553365"><ele>155.0</ele><time>2026-04-19T15:10:21.94Z</time></trkpt><trkpt lat="44.61224" lon="10.5534333"><ele>155.0</ele><time>2026-04-19T15:10:22.921Z</time></trkpt><trkpt lat="44.61236" lon="10.553505"><ele>155.0</ele><time>2026-04-19T15:10:23.913Z</time></trkpt><trkpt lat="44.6124883" lon="10.55358"><ele>155.0</ele><time>2026-04-19T15:10:24.912Z</time></trkpt><trkpt lat="44.6126233" lon="10.5536617"><ele>154.75</ele><time>2026-04-19T15:10:25.912Z</time></trkpt><trkpt lat="44.612755" lon="10.5537417"><ele>154.5</ele><time>2026-04-19T15:10:26.977Z</time></trkpt><trkpt lat="44.6128917" lon="10.5538283"><ele>154.25</ele><time>2026-04-19T15:10:27.912Z</time></trkpt><trkpt lat="44.613025" lon="10.5539133"><ele>154.0</ele><time>2026-04-19T15:10:28.913Z</time></trkpt><trkpt lat="44.6131617" lon="10.5539983"><ele>153.75</ele><time>2026-04-19T15:10:29.911Z</time></trkpt><trkpt lat="44.6132983" lon="10.5540867"><ele>153.5</ele><time>2026-04-19T15:10:30.927Z</time></trkpt><trkpt lat="44.61343" lon="10.55417"><ele>153.25</ele><time>2026-04-19T15:10:31.911Z</time></trkpt><trkpt lat="44.6135583" lon="10.5542467"><ele>153.0</ele><time>2026-04-19T15:10:32.931Z</time></trkpt><trkpt lat="44.6136883" lon="10.55431"><ele>153.0</ele><time>2026-04-19T15:10:33.919Z</time></trkpt><trkpt lat="44.6138267" lon="10.5543517"><ele>153.0</ele><time>2026-04-19T15:10:34.924Z</time></trkpt><trkpt lat="44.613965" lon="10.5543667"><ele>153.0</ele><time>2026-04-19T15:10:35.964Z</time></trkpt><trkpt lat="44.6141083" lon="10.554355"><ele>153.0</ele><time>2026-04-19T15:10:36.919Z</time></trkpt><trkpt lat="44.6142467" lon="10.5543283"><ele>153.0</ele><time>2026-04-19T15:10:37.91Z</time></trkpt><trkpt lat="44.6143767" lon="10.5543017"><ele>153.0</ele><time>2026-04-19T15:10:38.935Z</time></trkpt><trkpt lat="44.6145083" lon="10.5542733"><ele>153.0</ele><time>2026-04-19T15:10:39.912Z</time></trkpt><trkpt lat="44.614645" lon="10.55424"><ele>153.0</ele><time>2026-04-19T15:10:40.912Z</time></trkpt><trkpt lat="44.61479" lon="10.5542017"><ele>152.75</ele><time>2026-04-19T15:10:41.911Z</time></trkpt><trkpt lat="44.614935" lon="10.554165"><ele>152.5</ele><time>2026-04-19T15:10:42.914Z</time></trkpt><trkpt lat="44.6150833" lon="10.5541333"><ele>152.25</ele><time>2026-04-19T15:10:43.992Z</time></trkpt><trkpt lat="44.6152267" lon="10.5541017"><ele>152.0</ele><time>2026-04-19T15:10:44.935Z</time></trkpt><trkpt lat="44.615365" lon="10.554075"><ele>151.75</ele><time>2026-04-19T15:10:45.911Z</time></trkpt><trkpt lat="44.6154967" lon="10.5540617"><ele>151.5</ele><time>2026-04-19T15:10:46.911Z</time></trkpt><trkpt lat="44.6156283" lon="10.5540683"><ele>151.25</ele><time>2026-04-19T15:10:47.912Z</time></trkpt><trkpt lat="44.6157617" lon="10.5540917"><ele>151.0</ele><time>2026-04-19T15:10:48.909Z</time></trkpt><trkpt lat="44.6158983" lon="10.5541283"><ele>151.0</ele><time>2026-04-19T15:10:49.913Z</time></trkpt><trkpt lat="44.6160367" lon="10.5541783"><ele>151.0</ele><time>2026-04-19T15:10:50.915Z</time></trkpt><trkpt lat="44.6161767" lon="10.554235"><ele>151.0</ele><time>2026-04-19T15:10:51.914Z</time></trkpt><trkpt lat="44.6163133" lon="10.554295"><ele>151.0</ele><time>2026-04-19T15:10:52.915Z</time></trkpt><trkpt lat="44.6164417" lon="10.5543483"><ele>151.25</ele><time>2026-04-19T15:10:53.91Z</time></trkpt><trkpt lat="44.616565" lon="10.5544033"><ele>151.5</ele><time>2026-04-19T15:10:54.911Z</time></trkpt><trkpt lat="44.616675" lon="10.5544517"><ele>151.75</ele><time>2026-04-19T15:10:55.916Z</time></trkpt><trkpt lat="44.6167867" lon="10.554495"><ele>152.0</ele><time>2026-04-19T15:10:56.913Z</time></trkpt><trkpt lat="44.61689" lon="10.5545367"><ele>151.6</ele><time>2026-04-19T15:10:57.965Z</time></trkpt><trkpt lat="44.6169933" lon="10.55458"><ele>151.2</ele><time>2026-04-19T15:10:58.948Z</time></trkpt><trkpt lat="44.6170883" lon="10.5546183"><ele>150.8</ele><time>2026-04-19T15:10:59.908Z</time></trkpt><trkpt lat="44.6171783" lon="10.5546567"><ele>150.4</ele><time>2026-04-19T15:11:00.959Z</time></trkpt><trkpt lat="44.6172717" lon="10.5547067"><ele>150.0</ele><time>2026-04-19T15:11:01.913Z</time></trkpt><trkpt lat="44.6173667" lon="10.5547733"><ele>150.0</ele><time>2026-04-19T15:11:02.924Z</time></trkpt><trkpt lat="44.6174533" lon="10.55485"><ele>150.0</ele><time>2026-04-19T15:11:03.954Z</time></trkpt><trkpt lat="44.6175333" lon="10.5549367"><ele>150.0</ele><time>2026-04-19T15:11:04.914Z</time></trkpt><trkpt lat="44.6176083" lon="10.55504"><ele>150.0</ele><time>2026-04-19T15:11:05.922Z</time></trkpt><trkpt lat="44.617675" lon="10.555155"><ele>150.0</ele><time>2026-04-19T15:11:06.912Z</time></trkpt><trkpt lat="44.6177283" lon="10.5552817"><ele>149.16666666666666</ele><time>2026-04-19T15:11:07.918Z</time></trkpt><trkpt lat="44.617765" lon="10.5554083"><ele>148.33333333333334</ele><time>2026-04-19T15:11:08.913Z</time></trkpt><trkpt lat="44.6177917" lon="10.5555333"><ele>147.5</ele><time>2026-04-19T15:11:09.917Z</time></trkpt><trkpt lat="44.6178017" lon="10.55565"><ele>146.66666666666669</ele><time>2026-04-19T15:11:10.913Z</time></trkpt><trkpt lat="44.617785" lon="10.5557583"><ele>145.83333333333334</ele><time>2026-04-19T15:11:11.915Z</time></trkpt><trkpt lat="44.61776" lon="10.5558633"><ele>145.0</ele><time>2026-04-19T15:11:12.912Z</time></trkpt><trkpt lat="44.6177383" lon="10.5559683"><ele>145.0</ele><time>2026-04-19T15:11:13.913Z</time></trkpt><trkpt lat="44.6177233" lon="10.5560783"><ele>145.0</ele><time>2026-04-19T15:11:14.92Z</time></trkpt><trkpt lat="44.617725" lon="10.556195"><ele>145.0</ele><time>2026-04-19T15:11:15.932Z</time></trkpt><trkpt lat="44.6177567" lon="10.5563417"><ele>145.0</ele><time>2026-04-19T15:11:16.924Z</time></trkpt><trkpt lat="44.6178133" lon="10.5565217"><ele>145.0</ele><time>2026-04-19T15:11:17.908Z</time></trkpt><trkpt lat="44.617855" lon="10.556735"><ele>145.0</ele><time>2026-04-19T15:11:18.937Z</time></trkpt><trkpt lat="44.6178783" lon="10.5569717"><ele>145.0</ele><time>2026-04-19T15:11:19.913Z</time></trkpt><trkpt lat="44.6178933" lon="10.5572083"><ele>145.0</ele><time>2026-04-19T15:11:20.913Z</time></trkpt><trkpt lat="44.6179183" lon="10.5574533"><ele>144.33333333333334</ele><time>2026-04-19T15:11:21.954Z</time></trkpt><trkpt lat="44.617965" lon="10.5577183"><ele>143.66666666666666</ele><time>2026-04-19T15:11:22.928Z</time></trkpt><trkpt lat="44.6180283" lon="10.5580017"><ele>143.0</ele><time>2026-04-19T15:11:23.914Z</time></trkpt><trkpt lat="44.6181133" lon="10.5582917"><ele>141.66666666666666</ele><time>2026-04-19T15:11:24.896Z</time></trkpt><trkpt lat="44.6182117" lon="10.5585783"><ele>140.33333333333334</ele><time>2026-04-19T15:11:25.909Z</time></trkpt><trkpt lat="44.61828" lon="10.558725"><ele>139.0</ele><time>2026-04-19T15:11:27.133Z</time></trkpt><trkpt lat="44.6184767" lon="10.5591133"><ele>138.0</ele><time>2026-04-19T15:11:28.397Z</time></trkpt><trkpt lat="44.61869" lon="10.5595383"><ele>137.0</ele><time>2026-04-19T15:11:29.896Z</time></trkpt><trkpt lat="44.6188467" lon="10.5598383"><ele>137.0</ele><time>2026-04-19T15:11:30.898Z</time></trkpt><trkpt lat="44.6190017" lon="10.5601383"><ele>137.0</ele><time>2026-04-19T15:11:31.898Z</time></trkpt><trkpt lat="44.6191633" lon="10.5604317"><ele>135.5</ele><time>2026-04-19T15:11:32.898Z</time></trkpt><trkpt lat="44.61931" lon="10.5607067"><ele>134.0</ele><time>2026-04-19T15:11:33.898Z</time></trkpt><trkpt lat="44.6194517" lon="10.5609617"><ele>134.0</ele><time>2026-04-19T15:11:34.898Z</time></trkpt><trkpt lat="44.61959" lon="10.5612083"><ele>134.0</ele><time>2026-04-19T15:11:35.899Z</time></trkpt><trkpt lat="44.6194717" lon="10.5610667"><ele>134.0</ele><time>2026-04-19T15:11:37.508Z</time></trkpt><trkpt lat="44.6197417" lon="10.5615567"><ele>134.0</ele><time>2026-04-19T15:11:38.896Z</time></trkpt><trkpt lat="44.6200483" lon="10.5620283"><ele>134.0</ele><time>2026-04-19T15:11:39.898Z</time></trkpt><trkpt lat="44.6202783" lon="10.5623983"><ele>134.0</ele><time>2026-04-19T15:11:40.897Z</time></trkpt><trkpt lat="44.6207617" lon="10.5631"><ele>130.0</ele><time>2026-04-19T15:11:42.727Z</time></trkpt><trkpt lat="44.6211867" lon="10.5637"><ele>130.0</ele><time>2026-04-19T15:11:44.897Z</time></trkpt><trkpt lat="44.621375" lon="10.5639383"><ele>130.0</ele><time>2026-04-19T15:11:45.898Z</time></trkpt><trkpt lat="44.62157" lon="10.5641533"><ele>130.0</ele><time>2026-04-19T15:11:46.897Z</time></trkpt><trkpt lat="44.6217783" lon="10.5643617"><ele>130.0</ele><time>2026-04-19T15:11:47.898Z</time></trkpt><trkpt lat="44.6219967" lon="10.5645683"><ele>131.0</ele><time>2026-04-19T15:11:48.898Z</time></trkpt><trkpt lat="44.6222183" lon="10.564765"><ele>132.0</ele><time>2026-04-19T15:11:49.897Z</time></trkpt><trkpt lat="44.6224417" lon="10.564945"><ele>132.0</ele><time>2026-04-19T15:11:50.897Z</time></trkpt><trkpt lat="44.622665" lon="10.5651167"><ele>132.0</ele><time>2026-04-19T15:11:51.898Z</time></trkpt><trkpt lat="44.622885" lon="10.565285"><ele>132.5</ele><time>2026-04-19T15:11:52.898Z</time></trkpt><trkpt lat="44.623095" lon="10.5654433"><ele>133.0</ele><time>2026-04-19T15:11:53.897Z</time></trkpt><trkpt lat="44.623295" lon="10.565595"><ele>133.0</ele><time>2026-04-19T15:11:54.898Z</time></trkpt><trkpt lat="44.6234833" lon="10.5657367"><ele>133.0</ele><time>2026-04-19T15:11:55.898Z</time></trkpt><trkpt lat="44.6236567" lon="10.5658667"><ele>133.0</ele><time>2026-04-19T15:11:56.896Z</time></trkpt><trkpt lat="44.6238167" lon="10.5659817"><ele>132.75</ele><time>2026-04-19T15:11:57.898Z</time></trkpt><trkpt lat="44.62396" lon="10.5660883"><ele>132.5</ele><time>2026-04-19T15:11:58.898Z</time></trkpt><trkpt lat="44.6240817" lon="10.566185"><ele>132.25</ele><time>2026-04-19T15:11:59.897Z</time></trkpt><trkpt lat="44.6241867" lon="10.566275"><ele>132.0</ele><time>2026-04-19T15:12:00.899Z</time></trkpt><trkpt lat="44.624275" lon="10.5663617"><ele>131.79999999999998</ele><time>2026-04-19T15:12:01.906Z</time></trkpt><trkpt lat="44.6243517" lon="10.5664517"><ele>131.6</ele><time>2026-04-19T15:12:02.92Z</time></trkpt><trkpt lat="44.624415" lon="10.5665483"><ele>131.39999999999998</ele><time>2026-04-19T15:12:03.914Z</time></trkpt><trkpt lat="44.624465" lon="10.5666533"><ele>131.2</ele><time>2026-04-19T15:12:04.92Z</time></trkpt><trkpt lat="44.6244917" lon="10.56679"><ele>131.0</ele><time>2026-04-19T15:12:05.91Z</time></trkpt><trkpt lat="44.6244867" lon="10.5669367"><ele>130.4</ele><time>2026-04-19T15:12:06.911Z</time></trkpt><trkpt lat="44.6244583" lon="10.56708"><ele>129.8</ele><time>2026-04-19T15:12:07.913Z</time></trkpt><trkpt lat="44.624405" lon="10.5672133"><ele>129.20000000000002</ele><time>2026-04-19T15:12:08.913Z</time></trkpt><trkpt lat="44.6243467" lon="10.5673383"><ele>128.6</ele><time>2026-04-19T15:12:09.913Z</time></trkpt><trkpt lat="44.62428" lon="10.5674567"><ele>128.0</ele><time>2026-04-19T15:12:10.914Z</time></trkpt><trkpt lat="44.6242117" lon="10.5675717"><ele>128.0</ele><time>2026-04-19T15:12:11.909Z</time></trkpt><trkpt lat="44.6241433" lon="10.567695"><ele>128.0</ele><time>2026-04-19T15:12:12.911Z</time></trkpt><trkpt lat="44.6240733" lon="10.5678233"><ele>128.0</ele><time>2026-04-19T15:12:13.911Z</time></trkpt><trkpt lat="44.6240017" lon="10.567965"><ele>128.0</ele><time>2026-04-19T15:12:14.911Z</time></trkpt><trkpt lat="44.623925" lon="10.5681167"><ele>128.0</ele><time>2026-04-19T15:12:15.912Z</time></trkpt><trkpt lat="44.6238467" lon="10.5682783"><ele>128.0</ele><time>2026-04-19T15:12:16.918Z</time></trkpt><trkpt lat="44.6237633" lon="10.568445"><ele>128.0</ele><time>2026-04-19T15:12:17.912Z</time></trkpt><trkpt lat="44.6236783" lon="10.5686117"><ele>128.0</ele><time>2026-04-19T15:12:18.922Z</time></trkpt><trkpt lat="44.6235917" lon="10.56878"><ele>129.25</ele><time>2026-04-19T15:12:19.912Z</time></trkpt><trkpt lat="44.6235083" lon="10.5689483"><ele>130.5</ele><time>2026-04-19T15:12:20.911Z</time></trkpt><trkpt lat="44.6234283" lon="10.569115"><ele>131.75</ele><time>2026-04-19T15:12:21.912Z</time></trkpt><trkpt lat="44.6233567" lon="10.5692817"><ele>133.0</ele><time>2026-04-19T15:12:22.914Z</time></trkpt><trkpt lat="44.6232933" lon="10.5694533"><ele>132.75</ele><time>2026-04-19T15:12:23.919Z</time></trkpt><trkpt lat="44.623235" lon="10.569625"><ele>132.5</ele><time>2026-04-19T15:12:24.922Z</time></trkpt><trkpt lat="44.6231817" lon="10.5697967"><ele>132.25</ele><time>2026-04-19T15:12:25.913Z</time></trkpt><trkpt lat="44.6231317" lon="10.5699633"><ele>132.0</ele><time>2026-04-19T15:12:26.914Z</time></trkpt><trkpt lat="44.623085" lon="10.5701267"><ele>132.0</ele><time>2026-04-19T15:12:27.91Z</time></trkpt><trkpt lat="44.6230383" lon="10.57029"><ele>132.0</ele><time>2026-04-19T15:12:28.914Z</time></trkpt><trkpt lat="44.622995" lon="10.5704517"><ele>132.0</ele><time>2026-04-19T15:12:29.915Z</time></trkpt><trkpt lat="44.6229483" lon="10.5706133"><ele>132.0</ele><time>2026-04-19T15:12:30.912Z</time></trkpt><trkpt lat="44.6229017" lon="10.5707767"><ele>132.25</ele><time>2026-04-19T15:12:31.914Z</time></trkpt><trkpt lat="44.6228533" lon="10.57094"><ele>132.5</ele><time>2026-04-19T15:12:32.913Z</time></trkpt><trkpt lat="44.6228033" lon="10.57111"><ele>132.75</ele><time>2026-04-19T15:12:33.916Z</time></trkpt><trkpt lat="44.6227467" lon="10.5712967"><ele>133.0</ele><time>2026-04-19T15:12:34.914Z</time></trkpt><trkpt lat="44.6226883" lon="10.5714917"><ele>134.0</ele><time>2026-04-19T15:12:35.918Z</time></trkpt><trkpt lat="44.6226267" lon="10.5716983"><ele>135.0</ele><time>2026-04-19T15:12:36.917Z</time></trkpt><trkpt lat="44.622565" lon="10.57191"><ele>136.0</ele><time>2026-04-19T15:12:37.912Z</time></trkpt><trkpt lat="44.6225083" lon="10.5721167"><ele>136.5</ele><time>2026-04-19T15:12:38.911Z</time></trkpt><trkpt lat="44.6224533" lon="10.5723083"><ele>137.0</ele><time>2026-04-19T15:12:39.914Z</time></trkpt><trkpt lat="44.6224017" lon="10.572485"><ele>137.5</ele><time>2026-04-19T15:12:40.918Z</time></trkpt><trkpt lat="44.6223533" lon="10.5726417"><ele>138.0</ele><time>2026-04-19T15:12:41.915Z</time></trkpt><trkpt lat="44.6223117" lon="10.57278"><ele>137.8</ele><time>2026-04-19T15:12:42.912Z</time></trkpt><trkpt lat="44.6222733" lon="10.5729133"><ele>137.60000000000002</ele><time>2026-04-19T15:12:43.921Z</time></trkpt><trkpt lat="44.622235" lon="10.5730367"><ele>137.39999999999998</ele><time>2026-04-19T15:12:44.911Z</time></trkpt><trkpt lat="44.6222017" lon="10.5731617"><ele>137.2</ele><time>2026-04-19T15:12:45.912Z</time></trkpt><trkpt lat="44.6221717" lon="10.5732783"><ele>137.0</ele><time>2026-04-19T15:12:46.913Z</time></trkpt><trkpt lat="44.622145" lon="10.57339"><ele>137.0</ele><time>2026-04-19T15:12:47.908Z</time></trkpt><trkpt lat="44.62212" lon="10.5734933"><ele>137.0</ele><time>2026-04-19T15:12:48.916Z</time></trkpt><trkpt lat="44.6221017" lon="10.57358"><ele>137.0</ele><time>2026-04-19T15:12:49.916Z</time></trkpt><trkpt lat="44.6220767" lon="10.5737233"><ele>137.0</ele><time>2026-04-19T15:12:51.914Z</time></trkpt><trkpt lat="44.6220167" lon="10.5739083"><ele>137.0</ele><time>2026-04-19T15:12:53.911Z</time></trkpt><trkpt lat="44.62197" lon="10.57403"><ele>137.5</ele><time>2026-04-19T15:12:54.918Z</time></trkpt><trkpt lat="44.62192" lon="10.5741583"><ele>138.0</ele><time>2026-04-19T15:12:55.924Z</time></trkpt><trkpt lat="44.6218683" lon="10.57431"><ele>138.5</ele><time>2026-04-19T15:12:56.928Z</time></trkpt><trkpt lat="44.6218067" lon="10.5744933"><ele>139.0</ele><time>2026-04-19T15:12:57.912Z</time></trkpt><trkpt lat="44.6217467" lon="10.57469"><ele>139.33333333333334</ele><time>2026-04-19T15:12:58.93Z</time></trkpt><trkpt lat="44.6216833" lon="10.5748933"><ele>139.66666666666666</ele><time>2026-04-19T15:12:59.914Z</time></trkpt><trkpt lat="44.6216267" lon="10.5751067"><ele>140.0</ele><time>2026-04-19T15:13:00.912Z</time></trkpt><trkpt lat="44.62158" lon="10.57533"><ele>140.0</ele><time>2026-04-19T15:13:01.916Z</time></trkpt><trkpt lat="44.621555" lon="10.5755583"><ele>140.0</ele><time>2026-04-19T15:13:02.919Z</time></trkpt><trkpt lat="44.621545" lon="10.5758017"><ele>140.0</ele><time>2026-04-19T15:13:03.915Z</time></trkpt><trkpt lat="44.6215433" lon="10.5760583"><ele>140.0</ele><time>2026-04-19T15:13:04.914Z</time></trkpt><trkpt lat="44.62154" lon="10.5763233"><ele>140.0</ele><time>2026-04-19T15:13:05.912Z</time></trkpt><trkpt lat="44.62154" lon="10.576595"><ele>140.0</ele><time>2026-04-19T15:13:06.909Z</time></trkpt><trkpt lat="44.621535" lon="10.57687"><ele>140.33333333333331</ele><time>2026-04-19T15:13:07.922Z</time></trkpt><trkpt lat="44.6215283" lon="10.577145"><ele>140.66666666666666</ele><time>2026-04-19T15:13:08.913Z</time></trkpt><trkpt lat="44.6215233" lon="10.5774217"><ele>141.0</ele><time>2026-04-19T15:13:09.923Z</time></trkpt><trkpt lat="44.6215167" lon="10.5776967"><ele>141.66666666666666</ele><time>2026-04-19T15:13:10.914Z</time></trkpt><trkpt lat="44.6215117" lon="10.57797"><ele>142.33333333333331</ele><time>2026-04-19T15:13:11.934Z</time></trkpt><trkpt lat="44.6215083" lon="10.5782433"><ele>143.0</ele><time>2026-04-19T15:13:12.912Z</time></trkpt><trkpt lat="44.62151" lon="10.5785183"><ele>142.66666666666666</ele><time>2026-04-19T15:13:13.91Z</time></trkpt><trkpt lat="44.6215083" lon="10.5787917"><ele>142.33333333333334</ele><time>2026-04-19T15:13:14.912Z</time></trkpt><trkpt lat="44.6215033" lon="10.5790683"><ele>142.0</ele><time>2026-04-19T15:13:15.911Z</time></trkpt><trkpt lat="44.6214983" lon="10.579355"><ele>141.0</ele><time>2026-04-19T15:13:16.912Z</time></trkpt><trkpt lat="44.6214983" lon="10.5796483"><ele>140.0</ele><time>2026-04-19T15:13:17.912Z</time></trkpt><trkpt lat="44.621495" lon="10.5799533"><ele>139.0</ele><time>2026-04-19T15:13:18.909Z</time></trkpt><trkpt lat="44.6214933" lon="10.5802567"><ele>139.33333333333334</ele><time>2026-04-19T15:13:19.909Z</time></trkpt><trkpt lat="44.6214917" lon="10.5805567"><ele>139.66666666666666</ele><time>2026-04-19T15:13:20.924Z</time></trkpt><trkpt lat="44.6214833" lon="10.5808483"><ele>140.0</ele><time>2026-04-19T15:13:21.915Z</time></trkpt><trkpt lat="44.6214783" lon="10.581135"><ele>141.0</ele><time>2026-04-19T15:13:22.924Z</time></trkpt><trkpt lat="44.6214817" lon="10.5814183"><ele>142.0</ele><time>2026-04-19T15:13:23.922Z</time></trkpt><trkpt lat="44.6214983" lon="10.5816983"><ele>143.0</ele><time>2026-04-19T15:13:24.91Z</time></trkpt><trkpt lat="44.621535" lon="10.58198"><ele>143.33333333333331</ele><time>2026-04-19T15:13:25.915Z</time></trkpt><trkpt lat="44.6215867" lon="10.5822617"><ele>143.66666666666666</ele><time>2026-04-19T15:13:26.936Z</time></trkpt><trkpt lat="44.6216467" lon="10.5825483"><ele>144.0</ele><time>2026-04-19T15:13:27.91Z</time></trkpt><trkpt lat="44.6217083" lon="10.5828383"><ele>144.0</ele><time>2026-04-19T15:13:28.942Z</time></trkpt><trkpt lat="44.6217733" lon="10.5831317"><ele>144.0</ele><time>2026-04-19T15:13:29.923Z</time></trkpt><trkpt lat="44.6218367" lon="10.5834317"><ele>144.0</ele><time>2026-04-19T15:13:30.907Z</time></trkpt><trkpt lat="44.6219033" lon="10.5837383"><ele>143.66666666666666</ele><time>2026-04-19T15:13:31.911Z</time></trkpt><trkpt lat="44.6219717" lon="10.58404"><ele>143.33333333333331</ele><time>2026-04-19T15:13:32.913Z</time></trkpt><trkpt lat="44.62204" lon="10.5843367"><ele>143.0</ele><time>2026-04-19T15:13:33.922Z</time></trkpt><trkpt lat="44.6221033" lon="10.5846333"><ele>142.0</ele><time>2026-04-19T15:13:34.914Z</time></trkpt><trkpt lat="44.6221667" lon="10.5849283"><ele>141.0</ele><time>2026-04-19T15:13:35.911Z</time></trkpt><trkpt lat="44.6222283" lon="10.58522"><ele>140.0</ele><time>2026-04-19T15:13:36.911Z</time></trkpt><trkpt lat="44.622285" lon="10.585495"><ele>140.0</ele><time>2026-04-19T15:13:37.915Z</time></trkpt><trkpt lat="44.622345" lon="10.5857617"><ele>140.0</ele><time>2026-04-19T15:13:38.908Z</time></trkpt><trkpt lat="44.6223933" lon="10.5860083"><ele>140.0</ele><time>2026-04-19T15:13:39.908Z</time></trkpt><trkpt lat="44.6224417" lon="10.5862267"><ele>140.25</ele><time>2026-04-19T15:13:40.921Z</time></trkpt><trkpt lat="44.6224983" lon="10.586425"><ele>140.5</ele><time>2026-04-19T15:13:41.913Z</time></trkpt><trkpt lat="44.6225667" lon="10.5865983"><ele>140.75</ele><time>2026-04-19T15:13:42.911Z</time></trkpt><trkpt lat="44.622655" lon="10.5867517"><ele>141.0</ele><time>2026-04-19T15:13:43.914Z</time></trkpt><trkpt lat="44.6227633" lon="10.586895"><ele>140.5</ele><time>2026-04-19T15:13:44.912Z</time></trkpt><trkpt lat="44.6228883" lon="10.58701"><ele>140.0</ele><time>2026-04-19T15:13:45.909Z</time></trkpt><trkpt lat="44.6230183" lon="10.587085"><ele>139.5</ele><time>2026-04-19T15:13:46.912Z</time></trkpt><trkpt lat="44.6231483" lon="10.5871383"><ele>139.0</ele><time>2026-04-19T15:13:47.913Z</time></trkpt><trkpt lat="44.62327" lon="10.5871717"><ele>138.8</ele><time>2026-04-19T15:13:48.956Z</time></trkpt><trkpt lat="44.6233883" lon="10.5872"><ele>138.60000000000002</ele><time>2026-04-19T15:13:49.92Z</time></trkpt><trkpt lat="44.6234967" lon="10.587235"><ele>138.4</ele><time>2026-04-19T15:13:50.943Z</time></trkpt><trkpt lat="44.6235967" lon="10.587275"><ele>138.20000000000002</ele><time>2026-04-19T15:13:51.913Z</time></trkpt><trkpt lat="44.6236917" lon="10.587325"><ele>138.0</ele><time>2026-04-19T15:13:52.912Z</time></trkpt><trkpt lat="44.6237867" lon="10.5873883"><ele>138.0</ele><time>2026-04-19T15:13:53.932Z</time></trkpt><trkpt lat="44.62388" lon="10.58747"><ele>138.0</ele><time>2026-04-19T15:13:54.912Z</time></trkpt><trkpt lat="44.62397" lon="10.5875833"><ele>138.0</ele><time>2026-04-19T15:13:55.91Z</time></trkpt><trkpt lat="44.6240583" lon="10.5877267"><ele>138.0</ele><time>2026-04-19T15:13:56.912Z</time></trkpt><trkpt lat="44.6241317" lon="10.5878933"><ele>139.5</ele><time>2026-04-19T15:13:57.911Z</time></trkpt><trkpt lat="44.624195" lon="10.58807"><ele>141.0</ele><time>2026-04-19T15:13:58.913Z</time></trkpt><trkpt lat="44.62424" lon="10.5882567"><ele>142.5</ele><time>2026-04-19T15:13:59.908Z</time></trkpt><trkpt lat="44.624285" lon="10.5884467"><ele>144.0</ele><time>2026-04-19T15:14:00.915Z</time></trkpt><trkpt lat="44.62433" lon="10.5886517"><ele>144.0</ele><time>2026-04-19T15:14:01.915Z</time></trkpt><trkpt lat="44.6243733" lon="10.58886"><ele>144.0</ele><time>2026-04-19T15:14:02.922Z</time></trkpt><trkpt lat="44.6244217" lon="10.5890733"><ele>144.0</ele><time>2026-04-19T15:14:03.912Z</time></trkpt><trkpt lat="44.6244667" lon="10.5892867"><ele>142.66666666666666</ele><time>2026-04-19T15:14:04.914Z</time></trkpt><trkpt lat="44.6245117" lon="10.5895"><ele>141.33333333333331</ele><time>2026-04-19T15:14:05.931Z</time></trkpt><trkpt lat="44.6245567" lon="10.5897133"><ele>140.0</ele><time>2026-04-19T15:14:06.918Z</time></trkpt><trkpt lat="44.6246017" lon="10.5899317"><ele>140.0</ele><time>2026-04-19T15:14:07.928Z</time></trkpt><trkpt lat="44.624645" lon="10.590155"><ele>140.0</ele><time>2026-04-19T15:14:08.915Z</time></trkpt><trkpt lat="44.62468" lon="10.59038"><ele>140.0</ele><time>2026-04-19T15:14:09.899Z</time></trkpt><trkpt lat="44.6247033" lon="10.5906017"><ele>141.0</ele><time>2026-04-19T15:14:10.899Z</time></trkpt><trkpt lat="44.624705" lon="10.5908183"><ele>142.0</ele><time>2026-04-19T15:14:11.898Z</time></trkpt><trkpt lat="44.6246883" lon="10.5910217"><ele>143.0</ele><time>2026-04-19T15:14:12.913Z</time></trkpt><trkpt lat="44.62466" lon="10.5912117"><ele>144.0</ele><time>2026-04-19T15:14:13.983Z</time></trkpt><trkpt lat="44.6246183" lon="10.5913867"><ele>144.2</ele><time>2026-04-19T15:14:14.971Z</time></trkpt><trkpt lat="44.6245733" lon="10.5915483"><ele>144.4</ele><time>2026-04-19T15:14:15.931Z</time></trkpt><trkpt lat="44.6245267" lon="10.5916933"><ele>144.6</ele><time>2026-04-19T15:14:16.98Z</time></trkpt><trkpt lat="44.624485" lon="10.5918133"><ele>144.8</ele><time>2026-04-19T15:14:17.912Z</time></trkpt><trkpt lat="44.6244433" lon="10.5919117"><ele>145.0</ele><time>2026-04-19T15:14:18.959Z</time></trkpt><trkpt lat="44.6244133" lon="10.5919933"><ele>145.2</ele><time>2026-04-19T15:14:19.938Z</time></trkpt><trkpt lat="44.6243967" lon="10.5921333"><ele>145.4</ele><time>2026-04-19T15:14:21.922Z</time></trkpt><trkpt lat="44.6245117" lon="10.5922467"><ele>145.6</ele><time>2026-04-19T15:14:23.911Z</time></trkpt><trkpt lat="44.6245867" lon="10.5922933"><ele>145.8</ele><time>2026-04-19T15:14:24.911Z</time></trkpt><trkpt lat="44.6246867" lon="10.59236"><ele>146.0</ele><time>2026-04-19T15:14:25.908Z</time></trkpt><trkpt lat="44.6248017" lon="10.5924417"><ele>145.5</ele><time>2026-04-19T15:14:26.919Z</time></trkpt><trkpt lat="44.624925" lon="10.5925367"><ele>145.0</ele><time>2026-04-19T15:14:27.912Z</time></trkpt><trkpt lat="44.6250483" lon="10.5926333"><ele>144.5</ele><time>2026-04-19T15:14:28.915Z</time></trkpt><trkpt lat="44.6251667" lon="10.5927283"><ele>144.0</ele><time>2026-04-19T15:14:29.912Z</time></trkpt><trkpt lat="44.6252833" lon="10.5928117"><ele>143.5</ele><time>2026-04-19T15:14:30.911Z</time></trkpt><trkpt lat="44.6253917" lon="10.5929017"><ele>143.0</ele><time>2026-04-19T15:14:31.912Z</time></trkpt><trkpt lat="44.6254983" lon="10.5929783"><ele>142.5</ele><time>2026-04-19T15:14:32.913Z</time></trkpt><trkpt lat="44.6256067" lon="10.5930417"><ele>142.0</ele><time>2026-04-19T15:14:33.912Z</time></trkpt><trkpt lat="44.625715" lon="10.593095"><ele>142.0</ele><time>2026-04-19T15:14:34.915Z</time></trkpt><trkpt lat="44.6258267" lon="10.5931517"><ele>142.0</ele><time>2026-04-19T15:14:35.913Z</time></trkpt><trkpt lat="44.6259467" lon="10.5931983"><ele>142.0</ele><time>2026-04-19T15:14:36.912Z</time></trkpt><trkpt lat="44.6260733" lon="10.5932517"><ele>142.0</ele><time>2026-04-19T15:14:37.914Z</time></trkpt><trkpt lat="44.6262" lon="10.59331"><ele>141.25</ele><time>2026-04-19T15:14:38.914Z</time></trkpt><trkpt lat="44.6263233" lon="10.593365"><ele>140.5</ele><time>2026-04-19T15:14:39.911Z</time></trkpt><trkpt lat="44.6264567" lon="10.5934417"><ele>139.75</ele><time>2026-04-19T15:14:40.913Z</time></trkpt><trkpt lat="44.62659" lon="10.5935167"><ele>139.0</ele><time>2026-04-19T15:14:41.911Z</time></trkpt><trkpt lat="44.6267267" lon="10.5935967"><ele>140.33333333333334</ele><time>2026-04-19T15:14:42.925Z</time></trkpt><trkpt lat="44.6268667" lon="10.5936833"><ele>141.66666666666666</ele><time>2026-04-19T15:14:43.913Z</time></trkpt><trkpt lat="44.627005" lon="10.5937717"><ele>143.0</ele><time>2026-04-19T15:14:44.907Z</time></trkpt><trkpt lat="44.62715" lon="10.5938567"><ele>143.0</ele><time>2026-04-19T15:14:45.911Z</time></trkpt><trkpt lat="44.6272967" lon="10.593945"><ele>143.0</ele><time>2026-04-19T15:14:46.913Z</time></trkpt><trkpt lat="44.62743" lon="10.59403"><ele>143.0</ele><time>2026-04-19T15:14:47.913Z</time></trkpt><trkpt lat="44.627555" lon="10.594115"><ele>143.0</ele><time>2026-04-19T15:14:48.91Z</time></trkpt><trkpt lat="44.6276733" lon="10.5941983"><ele>143.0</ele><time>2026-04-19T15:14:49.915Z</time></trkpt><trkpt lat="44.6277867" lon="10.5942783"><ele>143.0</ele><time>2026-04-19T15:14:50.914Z</time></trkpt><trkpt lat="44.6279" lon="10.59436"><ele>143.0</ele><time>2026-04-19T15:14:51.935Z</time></trkpt><trkpt lat="44.6280133" lon="10.5944433"><ele>143.0</ele><time>2026-04-19T15:14:52.908Z</time></trkpt><trkpt lat="44.6281333" lon="10.5945267"><ele>142.0</ele><time>2026-04-19T15:14:53.91Z</time></trkpt><trkpt lat="44.6282567" lon="10.594615"><ele>141.0</ele><time>2026-04-19T15:14:54.976Z</time></trkpt><trkpt lat="44.6283817" lon="10.5947"><ele>140.0</ele><time>2026-04-19T15:14:55.911Z</time></trkpt><trkpt lat="44.6285067" lon="10.5948"><ele>139.0</ele><time>2026-04-19T15:14:56.914Z</time></trkpt><trkpt lat="44.6286183" lon="10.5949217"><ele>138.75</ele><time>2026-04-19T15:14:57.935Z</time></trkpt><trkpt lat="44.62873" lon="10.5950617"><ele>138.5</ele><time>2026-04-19T15:14:58.914Z</time></trkpt><trkpt lat="44.6288367" lon="10.5952033"><ele>138.25</ele><time>2026-04-19T15:14:59.91Z</time></trkpt><trkpt lat="44.6289433" lon="10.5953483"><ele>138.0</ele><time>2026-04-19T15:15:00.91Z</time></trkpt><trkpt lat="44.6290517" lon="10.5954983"><ele>137.75</ele><time>2026-04-19T15:15:01.914Z</time></trkpt><trkpt lat="44.6291483" lon="10.5956383"><ele>137.5</ele><time>2026-04-19T15:15:02.917Z</time></trkpt><trkpt lat="44.6292417" lon="10.5957683"><ele>137.25</ele><time>2026-04-19T15:15:03.913Z</time></trkpt><trkpt lat="44.629325" lon="10.5958833"><ele>137.0</ele><time>2026-04-19T15:15:04.897Z</time></trkpt><trkpt lat="44.62941" lon="10.5960067"><ele>135.66666666666666</ele><time>2026-04-19T15:15:05.897Z</time></trkpt><trkpt lat="44.6295" lon="10.5961467"><ele>134.33333333333334</ele><time>2026-04-19T15:15:06.897Z</time></trkpt><trkpt lat="44.6295933" lon="10.5963333"><ele>133.0</ele><time>2026-04-19T15:15:07.896Z</time></trkpt><trkpt lat="44.629685" lon="10.59654"><ele>133.0</ele><time>2026-04-19T15:15:08.897Z</time></trkpt><trkpt lat="44.62978" lon="10.5967567"><ele>133.0</ele><time>2026-04-19T15:15:09.897Z</time></trkpt><trkpt lat="44.6298783" lon="10.5969717"><ele>133.0</ele><time>2026-04-19T15:15:10.897Z</time></trkpt><trkpt lat="44.6299817" lon="10.5971983"><ele>132.33333333333334</ele><time>2026-04-19T15:15:11.897Z</time></trkpt><trkpt lat="44.6300817" lon="10.5974167"><ele>131.66666666666666</ele><time>2026-04-19T15:15:12.898Z</time></trkpt><trkpt lat="44.6301967" lon="10.5976183"><ele>131.0</ele><time>2026-04-19T15:15:13.899Z</time></trkpt><trkpt lat="44.6303117" lon="10.59779"><ele>129.66666666666666</ele><time>2026-04-19T15:15:14.897Z</time></trkpt><trkpt lat="44.630445" lon="10.5979467"><ele>128.33333333333334</ele><time>2026-04-19T15:15:15.898Z</time></trkpt><trkpt lat="44.6305967" lon="10.5980817"><ele>127.0</ele><time>2026-04-19T15:15:16.898Z</time></trkpt><trkpt lat="44.6307567" lon="10.598195"><ele>127.0</ele><time>2026-04-19T15:15:17.897Z</time></trkpt><trkpt lat="44.6311217" lon="10.5984833"><ele>127.0</ele><time>2026-04-19T15:15:19.734Z</time></trkpt><trkpt lat="44.6314017" lon="10.5986467"><ele>126.75</ele><time>2026-04-19T15:15:21.898Z</time></trkpt><trkpt lat="44.6314917" lon="10.5987267"><ele>126.5</ele><time>2026-04-19T15:15:22.898Z</time></trkpt><trkpt lat="44.6316033" lon="10.5988233"><ele>126.25</ele><time>2026-04-19T15:15:23.899Z</time></trkpt><trkpt lat="44.631705" lon="10.598915"><ele>126.0</ele><time>2026-04-19T15:15:24.9Z</time></trkpt><trkpt lat="44.6318067" lon="10.5990067"><ele>126.0</ele><time>2026-04-19T15:15:25.898Z</time></trkpt><trkpt lat="44.6319133" lon="10.5990917"><ele>126.0</ele><time>2026-04-19T15:15:26.897Z</time></trkpt><trkpt lat="44.6320183" lon="10.5991733"><ele>126.0</ele><time>2026-04-19T15:15:27.897Z</time></trkpt><trkpt lat="44.6321233" lon="10.5992533"><ele>126.0</ele><time>2026-04-19T15:15:28.897Z</time></trkpt><trkpt lat="44.6322333" lon="10.599345"><ele>126.0</ele><time>2026-04-19T15:15:29.897Z</time></trkpt><trkpt lat="44.63235" lon="10.599445"><ele>126.0</ele><time>2026-04-19T15:15:30.898Z</time></trkpt><trkpt lat="44.63248" lon="10.5995483"><ele>126.0</ele><time>2026-04-19T15:15:31.897Z</time></trkpt><trkpt lat="44.6326217" lon="10.59966"><ele>126.0</ele><time>2026-04-19T15:15:32.898Z</time></trkpt><trkpt lat="44.63277" lon="10.5997817"><ele>125.0</ele><time>2026-04-19T15:15:33.898Z</time></trkpt><trkpt lat="44.6329117" lon="10.59989"><ele>124.0</ele><time>2026-04-19T15:15:34.898Z</time></trkpt><trkpt lat="44.63305" lon="10.59999"><ele>123.0</ele><time>2026-04-19T15:15:35.897Z</time></trkpt><trkpt lat="44.6331867" lon="10.6000883"><ele>123.0</ele><time>2026-04-19T15:15:36.898Z</time></trkpt><trkpt lat="44.6333267" lon="10.600185"><ele>123.0</ele><time>2026-04-19T15:15:37.898Z</time></trkpt><trkpt lat="44.63348" lon="10.6002967"><ele>123.0</ele><time>2026-04-19T15:15:38.911Z</time></trkpt><trkpt lat="44.6336467" lon="10.60041"><ele>122.33333333333334</ele><time>2026-04-19T15:15:39.915Z</time></trkpt><trkpt lat="44.6338083" lon="10.600515"><ele>121.66666666666667</ele><time>2026-04-19T15:15:40.913Z</time></trkpt><trkpt lat="44.63396" lon="10.6006133"><ele>121.0</ele><time>2026-04-19T15:15:41.911Z</time></trkpt><trkpt lat="44.6341017" lon="10.6007083"><ele>121.0</ele><time>2026-04-19T15:15:42.908Z</time></trkpt><trkpt lat="44.6342417" lon="10.60081"><ele>121.0</ele><time>2026-04-19T15:15:43.909Z</time></trkpt><trkpt lat="44.6343833" lon="10.60091"><ele>121.0</ele><time>2026-04-19T15:15:44.915Z</time></trkpt><trkpt lat="44.634535" lon="10.6010167"><ele>119.66666666666667</ele><time>2026-04-19T15:15:45.915Z</time></trkpt><trkpt lat="44.6346933" lon="10.6011267"><ele>118.33333333333334</ele><time>2026-04-19T15:15:46.912Z</time></trkpt><trkpt lat="44.634855" lon="10.6012417"><ele>117.0</ele><time>2026-04-19T15:15:47.912Z</time></trkpt><trkpt lat="44.63501" lon="10.6013517"><ele>117.0</ele><time>2026-04-19T15:15:48.911Z</time></trkpt><trkpt lat="44.63516" lon="10.6014583"><ele>117.0</ele><time>2026-04-19T15:15:49.908Z</time></trkpt><trkpt lat="44.6353283" lon="10.6015567"><ele>117.0</ele><time>2026-04-19T15:15:50.913Z</time></trkpt><trkpt lat="44.6355067" lon="10.6016333"><ele>116.66666666666666</ele><time>2026-04-19T15:15:51.91Z</time></trkpt><trkpt lat="44.635695" lon="10.6016767"><ele>116.33333333333333</ele><time>2026-04-19T15:15:52.909Z</time></trkpt><trkpt lat="44.6358983" lon="10.6016833"><ele>116.0</ele><time>2026-04-19T15:15:53.912Z</time></trkpt><trkpt lat="44.63611" lon="10.6016667"><ele>116.0</ele><time>2026-04-19T15:15:54.912Z</time></trkpt><trkpt lat="44.6363183" lon="10.6016567"><ele>116.0</ele><time>2026-04-19T15:15:55.902Z</time></trkpt><trkpt lat="44.6365283" lon="10.6016633"><ele>116.0</ele><time>2026-04-19T15:15:56.898Z</time></trkpt><trkpt lat="44.6367433" lon="10.6017167"><ele>116.0</ele><time>2026-04-19T15:15:57.899Z</time></trkpt><trkpt lat="44.63695" lon="10.6018267"><ele>116.0</ele><time>2026-04-19T15:15:58.898Z</time></trkpt><trkpt lat="44.6371583" lon="10.6019733"><ele>116.0</ele><time>2026-04-19T15:15:59.898Z</time></trkpt><trkpt lat="44.6373633" lon="10.6021233"><ele>116.0</ele><time>2026-04-19T15:16:00.899Z</time></trkpt><trkpt lat="44.6375717" lon="10.6022833"><ele>116.0</ele><time>2026-04-19T15:16:01.897Z</time></trkpt><trkpt lat="44.6377817" lon="10.6024383"><ele>116.0</ele><time>2026-04-19T15:16:02.898Z</time></trkpt><trkpt lat="44.6379883" lon="10.6025967"><ele>115.5</ele><time>2026-04-19T15:16:03.898Z</time></trkpt><trkpt lat="44.6382" lon="10.60275"><ele>115.0</ele><time>2026-04-19T15:16:04.9Z</time></trkpt><trkpt lat="44.63841" lon="10.6029"><ele>115.0</ele><time>2026-04-19T15:16:05.898Z</time></trkpt><trkpt lat="44.6386217" lon="10.6030617"><ele>115.0</ele><time>2026-04-19T15:16:06.898Z</time></trkpt><trkpt lat="44.6388333" lon="10.60322"><ele>115.5</ele><time>2026-04-19T15:16:07.898Z</time></trkpt><trkpt lat="44.6390467" lon="10.6033767"><ele>116.0</ele><time>2026-04-19T15:16:08.898Z</time></trkpt><trkpt lat="44.6392567" lon="10.6035383"><ele>115.5</ele><time>2026-04-19T15:16:09.898Z</time></trkpt><trkpt lat="44.6394683" lon="10.6036917"><ele>115.0</ele><time>2026-04-19T15:16:10.899Z</time></trkpt><trkpt lat="44.6396783" lon="10.6038433"><ele>115.0</ele><time>2026-04-19T15:16:11.898Z</time></trkpt><trkpt lat="44.6398767" lon="10.6039867"><ele>115.0</ele><time>2026-04-19T15:16:12.897Z</time></trkpt><trkpt lat="44.6400617" lon="10.6041217"><ele>115.0</ele><time>2026-04-19T15:16:13.898Z</time></trkpt><trkpt lat="44.6402367" lon="10.6042567"><ele>114.33333333333334</ele><time>2026-04-19T15:16:14.899Z</time></trkpt><trkpt lat="44.6404067" lon="10.604395"><ele>113.66666666666666</ele><time>2026-04-19T15:16:15.898Z</time></trkpt><trkpt lat="44.6405667" lon="10.6045517"><ele>113.0</ele><time>2026-04-19T15:16:16.913Z</time></trkpt><trkpt lat="44.6407033" lon="10.6047217"><ele>112.0</ele><time>2026-04-19T15:16:17.912Z</time></trkpt><trkpt lat="44.6408333" lon="10.6049033"><ele>111.0</ele><time>2026-04-19T15:16:18.918Z</time></trkpt><trkpt lat="44.6409667" lon="10.6050667"><ele>110.0</ele><time>2026-04-19T15:16:19.912Z</time></trkpt><trkpt lat="44.6411183" lon="10.605195"><ele>109.33333333333333</ele><time>2026-04-19T15:16:20.914Z</time></trkpt><trkpt lat="44.6412883" lon="10.6052967"><ele>108.66666666666666</ele><time>2026-04-19T15:16:21.913Z</time></trkpt><trkpt lat="44.6414767" lon="10.6053767"><ele>108.0</ele><time>2026-04-19T15:16:22.913Z</time></trkpt><trkpt lat="44.641675" lon="10.60544"><ele>108.0</ele><time>2026-04-19T15:16:23.914Z</time></trkpt><trkpt lat="44.6418783" lon="10.6054983"><ele>108.0</ele><time>2026-04-19T15:16:24.915Z</time></trkpt><trkpt lat="44.6420733" lon="10.6055567"><ele>108.0</ele><time>2026-04-19T15:16:25.919Z</time></trkpt><trkpt lat="44.6422583" lon="10.60562"><ele>108.66666666666666</ele><time>2026-04-19T15:16:26.913Z</time></trkpt><trkpt lat="44.6424367" lon="10.6056883"><ele>109.33333333333333</ele><time>2026-04-19T15:16:27.92Z</time></trkpt><trkpt lat="44.6426067" lon="10.6057617"><ele>110.0</ele><time>2026-04-19T15:16:28.914Z</time></trkpt><trkpt lat="44.6427683" lon="10.6058333"><ele>109.33333333333333</ele><time>2026-04-19T15:16:29.912Z</time></trkpt><trkpt lat="44.64292" lon="10.6058933"><ele>108.66666666666666</ele><time>2026-04-19T15:16:30.914Z</time></trkpt><trkpt lat="44.6430683" lon="10.6059283"><ele>108.0</ele><time>2026-04-19T15:16:31.912Z</time></trkpt><trkpt lat="44.6432133" lon="10.6059483"><ele>108.0</ele><time>2026-04-19T15:16:32.913Z</time></trkpt><trkpt lat="44.64336" lon="10.6059717"><ele>108.0</ele><time>2026-04-19T15:16:33.913Z</time></trkpt><trkpt lat="44.6435067" lon="10.6060083"><ele>108.0</ele><time>2026-04-19T15:16:34.913Z</time></trkpt><trkpt lat="44.6436483" lon="10.6060833"><ele>108.0</ele><time>2026-04-19T15:16:35.911Z</time></trkpt><trkpt lat="44.6437783" lon="10.606185"><ele>108.0</ele><time>2026-04-19T15:16:36.91Z</time></trkpt><trkpt lat="44.6439067" lon="10.6063133"><ele>108.0</ele><time>2026-04-19T15:16:37.911Z</time></trkpt><trkpt lat="44.6440383" lon="10.6064483"><ele>108.0</ele><time>2026-04-19T15:16:38.909Z</time></trkpt><trkpt lat="44.6441717" lon="10.6065817"><ele>108.0</ele><time>2026-04-19T15:16:39.909Z</time></trkpt><trkpt lat="44.64431" lon="10.6067167"><ele>108.0</ele><time>2026-04-19T15:16:40.91Z</time></trkpt><trkpt lat="44.644445" lon="10.6068433"><ele>108.0</ele><time>2026-04-19T15:16:41.914Z</time></trkpt><trkpt lat="44.6445733" lon="10.6069617"><ele>107.5</ele><time>2026-04-19T15:16:42.912Z</time></trkpt><trkpt lat="44.6446983" lon="10.6070783"><ele>107.0</ele><time>2026-04-19T15:16:43.914Z</time></trkpt><trkpt lat="44.6448133" lon="10.60719"><ele>106.5</ele><time>2026-04-19T15:16:44.912Z</time></trkpt><trkpt lat="44.6449217" lon="10.6072933"><ele>106.0</ele><time>2026-04-19T15:16:45.912Z</time></trkpt><trkpt lat="44.6450233" lon="10.6073917"><ele>106.00000000000001</ele><time>2026-04-19T15:16:46.916Z</time></trkpt><trkpt lat="44.6451117" lon="10.60748"><ele>106.0</ele><time>2026-04-19T15:16:47.913Z</time></trkpt><trkpt lat="44.6451733" lon="10.6075517"><ele>106.0</ele><time>2026-04-19T15:16:48.914Z</time></trkpt><trkpt lat="44.6452167" lon="10.6076167"><ele>106.0</ele><time>2026-04-19T15:16:49.916Z</time></trkpt><trkpt lat="44.6452633" lon="10.6077183"><ele>106.00000000000001</ele><time>2026-04-19T15:16:51.915Z</time></trkpt><trkpt lat="44.645305" lon="10.6078067"><ele>106.0</ele><time>2026-04-19T15:16:59.923Z</time></trkpt><trkpt lat="44.6454467" lon="10.60784"><ele>105.75</ele><time>2026-04-19T15:17:01.913Z</time></trkpt><trkpt lat="44.6455433" lon="10.60783"><ele>105.5</ele><time>2026-04-19T15:17:02.908Z</time></trkpt><trkpt lat="44.6456617" lon="10.6078233"><ele>105.25</ele><time>2026-04-19T15:17:03.913Z</time></trkpt><trkpt lat="44.6457767" lon="10.6078233"><ele>105.0</ele><time>2026-04-19T15:17:04.913Z</time></trkpt><trkpt lat="44.6458967" lon="10.6078283"><ele>104.5</ele><time>2026-04-19T15:17:05.908Z</time></trkpt><trkpt lat="44.64602" lon="10.6078333"><ele>104.0</ele><time>2026-04-19T15:17:06.914Z</time></trkpt><trkpt lat="44.6461533" lon="10.607845"><ele>103.5</ele><time>2026-04-19T15:17:07.913Z</time></trkpt><trkpt lat="44.6463017" lon="10.6078717"><ele>103.0</ele><time>2026-04-19T15:17:08.923Z</time></trkpt><trkpt lat="44.6464667" lon="10.60791"><ele>103.0</ele><time>2026-04-19T15:17:09.917Z</time></trkpt><trkpt lat="44.6466367" lon="10.6079533"><ele>103.0</ele><time>2026-04-19T15:17:10.912Z</time></trkpt><trkpt lat="44.646815" lon="10.608"><ele>103.0</ele><time>2026-04-19T15:17:11.913Z</time></trkpt><trkpt lat="44.6469967" lon="10.608045"><ele>102.33333333333334</ele><time>2026-04-19T15:17:12.917Z</time></trkpt><trkpt lat="44.64718" lon="10.60809"><ele>101.66666666666666</ele><time>2026-04-19T15:17:13.901Z</time></trkpt><trkpt lat="44.647365" lon="10.6081383"><ele>101.0</ele><time>2026-04-19T15:17:14.908Z</time></trkpt><trkpt lat="44.64755" lon="10.6081867"><ele>101.0</ele><time>2026-04-19T15:17:15.911Z</time></trkpt><trkpt lat="44.6477333" lon="10.60823"><ele>101.0</ele><time>2026-04-19T15:17:16.914Z</time></trkpt><trkpt lat="44.6479183" lon="10.608275"><ele>101.0</ele><time>2026-04-19T15:17:17.912Z</time></trkpt><trkpt lat="44.6481017" lon="10.6083217"><ele>101.33333333333333</ele><time>2026-04-19T15:17:18.912Z</time></trkpt><trkpt lat="44.6482883" lon="10.60837"><ele>101.66666666666666</ele><time>2026-04-19T15:17:19.912Z</time></trkpt><trkpt lat="44.64847" lon="10.6084183"><ele>102.0</ele><time>2026-04-19T15:17:20.913Z</time></trkpt><trkpt lat="44.6486433" lon="10.6084617"><ele>101.33333333333334</ele><time>2026-04-19T15:17:21.921Z</time></trkpt><trkpt lat="44.6488083" lon="10.6085067"><ele>100.66666666666667</ele><time>2026-04-19T15:17:22.914Z</time></trkpt><trkpt lat="44.6489633" lon="10.6085483"><ele>100.0</ele><time>2026-04-19T15:17:23.915Z</time></trkpt><trkpt lat="44.649115" lon="10.6085917"><ele>100.0</ele><time>2026-04-19T15:17:24.92Z</time></trkpt><trkpt lat="44.6492617" lon="10.6086317"><ele>100.0</ele><time>2026-04-19T15:17:25.915Z</time></trkpt><trkpt lat="44.64941" lon="10.6086717"><ele>100.0</ele><time>2026-04-19T15:17:26.935Z</time></trkpt><trkpt lat="44.64956" lon="10.608715"><ele>100.33333333333334</ele><time>2026-04-19T15:17:27.939Z</time></trkpt><trkpt lat="44.6497117" lon="10.608775"><ele>100.66666666666666</ele><time>2026-04-19T15:17:28.928Z</time></trkpt><trkpt lat="44.6498617" lon="10.6088467"><ele>101.0</ele><time>2026-04-19T15:17:29.912Z</time></trkpt><trkpt lat="44.65001" lon="10.608925"><ele>101.0</ele><time>2026-04-19T15:17:30.91Z</time></trkpt><trkpt lat="44.6501533" lon="10.609"><ele>101.0</ele><time>2026-04-19T15:17:31.912Z</time></trkpt><trkpt lat="44.6502867" lon="10.6090667"><ele>101.0</ele><time>2026-04-19T15:17:32.915Z</time></trkpt><trkpt lat="44.65041" lon="10.6091267"><ele>101.0</ele><time>2026-04-19T15:17:33.909Z</time></trkpt><trkpt lat="44.6505183" lon="10.60918"><ele>100.66666666666666</ele><time>2026-04-19T15:17:34.914Z</time></trkpt><trkpt lat="44.65061" lon="10.6092217"><ele>100.33333333333333</ele><time>2026-04-19T15:17:35.909Z</time></trkpt><trkpt lat="44.6506867" lon="10.6092583"><ele>100.0</ele><time>2026-04-19T15:17:36.936Z</time></trkpt><trkpt lat="44.6507483" lon="10.609295"><ele>99.66666666666666</ele><time>2026-04-19T15:17:37.916Z</time></trkpt><trkpt lat="44.6507867" lon="10.6093983"><ele>99.33333333333333</ele><time>2026-04-19T15:17:39.961Z</time></trkpt><trkpt lat="44.6507317" lon="10.6095383"><ele>99.0</ele><time>2026-04-19T15:17:41.932Z</time></trkpt><trkpt lat="44.6506533" lon="10.6096267"><ele>98.5</ele><time>2026-04-19T15:17:42.925Z</time></trkpt><trkpt lat="44.6505567" lon="10.6097217"><ele>98.0</ele><time>2026-04-19T15:17:43.921Z</time></trkpt><trkpt lat="44.6504533" lon="10.6098317"><ele>97.5</ele><time>2026-04-19T15:17:44.908Z</time></trkpt><trkpt lat="44.6503383" lon="10.6099567"><ele>97.0</ele><time>2026-04-19T15:17:45.912Z</time></trkpt><trkpt lat="44.6502283" lon="10.6100933"><ele>97.0</ele><time>2026-04-19T15:17:46.913Z</time></trkpt><trkpt lat="44.650115" lon="10.61023"><ele>97.0</ele><time>2026-04-19T15:17:47.906Z</time></trkpt><trkpt lat="44.6500017" lon="10.6103633"><ele>97.0</ele><time>2026-04-19T15:17:48.941Z</time></trkpt><trkpt lat="44.6498883" lon="10.6105017"><ele>97.0</ele><time>2026-04-19T15:17:49.912Z</time></trkpt><trkpt lat="44.6497683" lon="10.6106417"><ele>97.0</ele><time>2026-04-19T15:17:50.914Z</time></trkpt><trkpt lat="44.6496467" lon="10.6107783"><ele>97.0</ele><time>2026-04-19T15:17:51.941Z</time></trkpt><trkpt lat="44.6495233" lon="10.6109133"><ele>97.0</ele><time>2026-04-19T15:17:52.93Z</time></trkpt><trkpt lat="44.6494" lon="10.6110517"><ele>96.66666666666667</ele><time>2026-04-19T15:17:53.912Z</time></trkpt><trkpt lat="44.6492783" lon="10.6111883"><ele>96.33333333333334</ele><time>2026-04-19T15:17:54.911Z</time></trkpt><trkpt lat="44.6491567" lon="10.6113267"><ele>96.0</ele><time>2026-04-19T15:17:55.898Z</time></trkpt><trkpt lat="44.6493333" lon="10.6113917"><ele>96.0</ele><time>2026-04-19T15:17:56.844Z</time></trkpt><trkpt lat="44.6490583" lon="10.6115883"><ele>96.0</ele><time>2026-04-19T15:17:57.895Z</time></trkpt><trkpt lat="44.64892" lon="10.6117217"><ele>96.0</ele><time>2026-04-19T15:17:58.898Z</time></trkpt><trkpt lat="44.648765" lon="10.611845"><ele>96.0</ele><time>2026-04-19T15:17:59.898Z</time></trkpt><trkpt lat="44.6486333" lon="10.61196"><ele>96.0</ele><time>2026-04-19T15:18:00.896Z</time></trkpt><trkpt lat="44.64852" lon="10.61208"><ele>97.33333333333334</ele><time>2026-04-19T15:18:01.899Z</time></trkpt><trkpt lat="44.6484133" lon="10.6122083"><ele>98.66666666666667</ele><time>2026-04-19T15:18:02.897Z</time></trkpt><trkpt lat="44.6484217" lon="10.6123983"><ele>100.0</ele><time>2026-04-19T15:18:04.203Z</time></trkpt><trkpt lat="44.648315" lon="10.61264"><ele>100.00000000000001</ele><time>2026-04-19T15:18:05.897Z</time></trkpt><trkpt lat="44.648265" lon="10.6127583"><ele>100.0</ele><time>2026-04-19T15:18:06.896Z</time></trkpt><trkpt lat="44.64822" lon="10.6128583"><ele>100.0</ele><time>2026-04-19T15:18:07.897Z</time></trkpt><trkpt lat="44.6481817" lon="10.6129533"><ele>100.0</ele><time>2026-04-19T15:18:08.896Z</time></trkpt><trkpt lat="44.6481417" lon="10.61304"><ele>100.00000000000001</ele><time>2026-04-19T15:18:09.897Z</time></trkpt><trkpt lat="44.648105" lon="10.6131283"><ele>100.0</ele><time>2026-04-19T15:18:10.897Z</time></trkpt><trkpt lat="44.648065" lon="10.6132233"><ele>99.75</ele><time>2026-04-19T15:18:11.896Z</time></trkpt><trkpt lat="44.6480167" lon="10.6133217"><ele>99.5</ele><time>2026-04-19T15:18:12.897Z</time></trkpt><trkpt lat="44.6479583" lon="10.6134183"><ele>99.25</ele><time>2026-04-19T15:18:13.897Z</time></trkpt><trkpt lat="44.6477883" lon="10.6133933"><ele>99.0</ele><time>2026-04-19T15:18:15.303Z</time></trkpt><trkpt lat="44.6476867" lon="10.6134683"><ele>97.66666666666667</ele><time>2026-04-19T15:18:16.399Z</time></trkpt><trkpt lat="44.6475733" lon="10.6136617"><ele>96.33333333333334</ele><time>2026-04-19T15:18:17.898Z</time></trkpt><trkpt lat="44.6474967" lon="10.6138183"><ele>95.0</ele><time>2026-04-19T15:18:18.898Z</time></trkpt><trkpt lat="44.6474183" lon="10.6139933"><ele>95.0</ele><time>2026-04-19T15:18:19.899Z</time></trkpt><trkpt lat="44.6473483" lon="10.6142217"><ele>95.0</ele><time>2026-04-19T15:18:20.899Z</time></trkpt><trkpt lat="44.6472683" lon="10.6144133"><ele>95.0</ele><time>2026-04-19T15:18:21.9Z</time></trkpt><trkpt lat="44.64718" lon="10.6146083"><ele>94.66666666666667</ele><time>2026-04-19T15:18:22.898Z</time></trkpt><trkpt lat="44.6470883" lon="10.6148"><ele>94.33333333333333</ele><time>2026-04-19T15:18:23.899Z</time></trkpt><trkpt lat="44.646995" lon="10.614975"><ele>94.0</ele><time>2026-04-19T15:18:24.898Z</time></trkpt><trkpt lat="44.6469" lon="10.6151367"><ele>94.0</ele><time>2026-04-19T15:18:25.899Z</time></trkpt><trkpt lat="44.6468117" lon="10.6152867"><ele>94.0</ele><time>2026-04-19T15:18:26.897Z</time></trkpt><trkpt lat="44.64673" lon="10.6154267"><ele>94.0</ele><time>2026-04-19T15:18:27.9Z</time></trkpt><trkpt lat="44.6466517" lon="10.6155533"><ele>94.0</ele><time>2026-04-19T15:18:28.896Z</time></trkpt><trkpt lat="44.646575" lon="10.6156683"><ele>94.0</ele><time>2026-04-19T15:18:29.9Z</time></trkpt><trkpt lat="44.646495" lon="10.6157733"><ele>94.0</ele><time>2026-04-19T15:18:30.898Z</time></trkpt><trkpt lat="44.646405" lon="10.6158767"><ele>94.0</ele><time>2026-04-19T15:18:31.899Z</time></trkpt><trkpt lat="44.6463" lon="10.61598"><ele>94.0</ele><time>2026-04-19T15:18:32.896Z</time></trkpt><trkpt lat="44.6461783" lon="10.6160783"><ele>94.0</ele><time>2026-04-19T15:18:33.899Z</time></trkpt><trkpt lat="44.6460533" lon="10.6161783"><ele>94.0</ele><time>2026-04-19T15:18:34.909Z</time></trkpt><trkpt lat="44.64593" lon="10.6162717"><ele>94.0</ele><time>2026-04-19T15:18:35.911Z</time></trkpt><trkpt lat="44.6458033" lon="10.6163683"><ele>94.0</ele><time>2026-04-19T15:18:36.908Z</time></trkpt><trkpt lat="44.6456817" lon="10.6164783"><ele>94.0</ele><time>2026-04-19T15:18:37.924Z</time></trkpt><trkpt lat="44.6455667" lon="10.6166033"><ele>94.0</ele><time>2026-04-19T15:18:38.931Z</time></trkpt><trkpt lat="44.6454467" lon="10.6167233"><ele>94.0</ele><time>2026-04-19T15:18:39.933Z</time></trkpt><trkpt lat="44.6453233" lon="10.61683"><ele>94.0</ele><time>2026-04-19T15:18:40.911Z</time></trkpt><trkpt lat="44.6452183" lon="10.6169217"><ele>93.25</ele><time>2026-04-19T15:18:41.9Z</time></trkpt><trkpt lat="44.6451233" lon="10.6170217"><ele>92.5</ele><time>2026-04-19T15:18:42.908Z</time></trkpt><trkpt lat="44.6450367" lon="10.617135"><ele>91.75</ele><time>2026-04-19T15:18:43.912Z</time></trkpt><trkpt lat="44.6449483" lon="10.617265"><ele>91.0</ele><time>2026-04-19T15:18:44.912Z</time></trkpt><trkpt lat="44.6448517" lon="10.6174083"><ele>91.0</ele><time>2026-04-19T15:18:45.917Z</time></trkpt><trkpt lat="44.644755" lon="10.6175617"><ele>91.0</ele><time>2026-04-19T15:18:46.914Z</time></trkpt><trkpt lat="44.64466" lon="10.61772"><ele>91.0</ele><time>2026-04-19T15:18:47.914Z</time></trkpt><trkpt lat="44.64457" lon="10.617875"><ele>91.0</ele><time>2026-04-19T15:18:48.911Z</time></trkpt><trkpt lat="44.644485" lon="10.6180217"><ele>91.0</ele><time>2026-04-19T15:18:49.913Z</time></trkpt><trkpt lat="44.6444033" lon="10.6181567"><ele>91.0</ele><time>2026-04-19T15:18:50.918Z</time></trkpt><trkpt lat="44.6443283" lon="10.6182817"><ele>91.0</ele><time>2026-04-19T15:18:51.914Z</time></trkpt><trkpt lat="44.644255" lon="10.6184"><ele>91.0</ele><time>2026-04-19T15:18:52.912Z</time></trkpt><trkpt lat="44.644185" lon="10.6185117"><ele>91.0</ele><time>2026-04-19T15:18:53.916Z</time></trkpt><trkpt lat="44.644115" lon="10.6186267"><ele>91.0</ele><time>2026-04-19T15:18:54.911Z</time></trkpt><trkpt lat="44.6440467" lon="10.61874"><ele>91.0</ele><time>2026-04-19T15:18:55.912Z</time></trkpt><trkpt lat="44.6439833" lon="10.6188517"><ele>91.0</ele><time>2026-04-19T15:18:56.938Z</time></trkpt><trkpt lat="44.6439217" lon="10.6189533"><ele>91.0</ele><time>2026-04-19T15:18:57.941Z</time></trkpt><trkpt lat="44.6438617" lon="10.61905"><ele>91.19999999999999</ele><time>2026-04-19T15:18:58.923Z</time></trkpt><trkpt lat="44.6438" lon="10.61914"><ele>91.39999999999999</ele><time>2026-04-19T15:18:59.958Z</time></trkpt><trkpt lat="44.6437333" lon="10.6192267"><ele>91.6</ele><time>2026-04-19T15:19:00.912Z</time></trkpt><trkpt lat="44.6436567" lon="10.6192983"><ele>91.8</ele><time>2026-04-19T15:19:01.923Z</time></trkpt><trkpt lat="44.6435683" lon="10.6193317"><ele>92.0</ele><time>2026-04-19T15:19:02.915Z</time></trkpt><trkpt lat="44.6434733" lon="10.6193217"><ele>92.0</ele><time>2026-04-19T15:19:03.914Z</time></trkpt><trkpt lat="44.6433667" lon="10.6192667"><ele>92.0</ele><time>2026-04-19T15:19:04.912Z</time></trkpt><trkpt lat="44.643265" lon="10.61919"><ele>92.0</ele><time>2026-04-19T15:19:05.92Z</time></trkpt><trkpt lat="44.6431717" lon="10.6191183"><ele>92.0</ele><time>2026-04-19T15:19:06.911Z</time></trkpt><trkpt lat="44.643085" lon="10.619055"><ele>92.0</ele><time>2026-04-19T15:19:07.913Z</time></trkpt><trkpt lat="44.643" lon="10.6189983"><ele>92.0</ele><time>2026-04-19T15:19:08.932Z</time></trkpt><trkpt lat="44.6429167" lon="10.6189433"><ele>92.0</ele><time>2026-04-19T15:19:09.907Z</time></trkpt><trkpt lat="44.6428333" lon="10.6188883"><ele>92.0</ele><time>2026-04-19T15:19:10.911Z</time></trkpt><trkpt lat="44.6427467" lon="10.6188367"><ele>92.0</ele><time>2026-04-19T15:19:11.913Z</time></trkpt><trkpt lat="44.6426633" lon="10.6187817"><ele>92.0</ele><time>2026-04-19T15:19:12.897Z</time></trkpt><trkpt lat="44.64258" lon="10.6187267"><ele>93.0</ele><time>2026-04-19T15:19:13.897Z</time></trkpt><trkpt lat="44.6425" lon="10.6186717"><ele>94.0</ele><time>2026-04-19T15:19:14.897Z</time></trkpt><trkpt lat="44.6424283" lon="10.6186217"><ele>95.0</ele><time>2026-04-19T15:19:15.898Z</time></trkpt><trkpt lat="44.6423583" lon="10.618575"><ele>96.0</ele><time>2026-04-19T15:19:16.899Z</time></trkpt><trkpt lat="44.6422967" lon="10.6185267"><ele>97.0</ele><time>2026-04-19T15:19:17.908Z</time></trkpt><trkpt lat="44.642455" lon="10.6184183"><ele>97.0</ele><time>2026-04-19T15:19:19.384Z</time></trkpt><trkpt lat="44.6422483" lon="10.61836"><ele>97.0</ele><time>2026-04-19T15:19:20.398Z</time></trkpt><trkpt lat="44.64222" lon="10.61824"><ele>97.0</ele><time>2026-04-19T15:19:21.898Z</time></trkpt><trkpt lat="44.64221" lon="10.6181317"><ele>97.0</ele><time>2026-04-19T15:19:22.898Z</time></trkpt><trkpt lat="44.6421917" lon="10.6180317"><ele>97.0</ele><time>2026-04-19T15:19:23.907Z</time></trkpt><trkpt lat="44.64223" lon="10.6179467"><ele>97.0</ele><time>2026-04-19T15:19:25.19Z</time></trkpt><trkpt lat="44.64215" lon="10.6178317"><ele>97.0</ele><time>2026-04-19T15:19:26.896Z</time></trkpt><trkpt lat="44.6420967" lon="10.6177633"><ele>97.0</ele><time>2026-04-19T15:19:27.898Z</time></trkpt><trkpt lat="44.6420183" lon="10.6176583"><ele>97.0</ele><time>2026-04-19T15:19:29.897Z</time></trkpt><trkpt lat="44.6419483" lon="10.617575"><ele>101.0</ele><time>2026-04-19T15:19:31.897Z</time></trkpt><trkpt lat="44.641885" lon="10.6175383"><ele>101.0</ele><time>2026-04-19T15:19:33.898Z</time></trkpt><trkpt lat="44.6418067" lon="10.61758"><ele>101.0</ele><time>2026-04-19T15:19:36.898Z</time></trkpt></trkseg></trk></gpx>